<?xml version='1.0' encoding='UTF-8'?><gpx version="1.1" creator="JPX - https://github.com/jenetics/jpx" xmlns="http://www.topografix.com/GPX/1/1"><trk><trkseg><trkpt lat="42.159045" lon="-7.9492767"><ele>490.5</ele><time>2026-04-04T07:55:52.183Z</time></trkpt><trkpt lat="42.1590067" lon="-7.9494317"><ele>491.0</ele><time>2026-04-04T07:55:54.184Z</time></trkpt><trkpt lat="42.1589167" lon="-7.9496117"><ele>491.5</ele><time>2026-04-04T07:55:56.823Z</time></trkpt><trkpt lat="42.1589233" lon="-7.949765"><ele>492.0</ele><time>2026-04-04T07:55:58.823Z</time></trkpt><trkpt lat="42.1588967" lon="-7.949865"><ele>492.0</ele><time>2026-04-04T07:56:04.823Z</time></trkpt><trkpt lat="42.1588833" lon="-7.9499583"><ele>492.00000000000006</ele><time>2026-04-04T07:56:09.823Z</time></trkpt><trkpt lat="42.1588883" lon="-7.9500467"><ele>492.00000000000006</ele><time>2026-04-04T07:56:17.823Z</time></trkpt><trkpt lat="42.159095" lon="-7.9499967"><ele>492.0</ele><time>2026-04-04T07:58:52.08Z</time></trkpt><trkpt lat="42.159035" lon="-7.9500383"><ele>492.0</ele><time>2026-04-04T07:58:58.823Z</time></trkpt><trkpt lat="42.1589683" lon="-7.9500583"><ele>492.0</ele><time>2026-04-04T07:59:01.823Z</time></trkpt><trkpt lat="42.1588783" lon="-7.949995"><ele>492.0</ele><time>2026-04-04T08:00:11.823Z</time></trkpt><trkpt lat="42.1588083" lon="-7.95002"><ele>492.0</ele><time>2026-04-04T08:00:19.823Z</time></trkpt><trkpt lat="42.1587783" lon="-7.94994"><ele>492.0</ele><time>2026-04-04T08:00:41.824Z</time></trkpt><trkpt lat="42.1587017" lon="-7.9500033"><ele>492.0</ele><time>2026-04-04T08:00:46.823Z</time></trkpt><trkpt lat="42.1586" lon="-7.95004"><ele>492.0</ele><time>2026-04-04T08:00:48.824Z</time></trkpt><trkpt lat="42.15851" lon="-7.950105"><ele>493.1666666666667</ele><time>2026-04-04T08:00:50.825Z</time></trkpt><trkpt lat="42.1584133" lon="-7.9502117"><ele>494.33333333333337</ele><time>2026-04-04T08:00:52.823Z</time></trkpt><trkpt lat="42.1583667" lon="-7.9502767"><ele>495.5</ele><time>2026-04-04T08:00:53.823Z</time></trkpt><trkpt lat="42.158315" lon="-7.950345"><ele>496.6666666666667</ele><time>2026-04-04T08:00:54.824Z</time></trkpt><trkpt lat="42.1582667" lon="-7.9504133"><ele>497.83333333333337</ele><time>2026-04-04T08:00:55.823Z</time></trkpt><trkpt lat="42.1582133" lon="-7.95048"><ele>499.0</ele><time>2026-04-04T08:00:56.825Z</time></trkpt><trkpt lat="42.15814" lon="-7.9505717"><ele>499.6</ele><time>2026-04-04T08:00:57.823Z</time></trkpt><trkpt lat="42.158065" lon="-7.9506617"><ele>500.2</ele><time>2026-04-04T08:00:58.824Z</time></trkpt><trkpt lat="42.1579883" lon="-7.9507533"><ele>500.80000000000007</ele><time>2026-04-04T08:00:59.824Z</time></trkpt><trkpt lat="42.1579067" lon="-7.9508467"><ele>501.40000000000003</ele><time>2026-04-04T08:01:00.823Z</time></trkpt><trkpt lat="42.1578233" lon="-7.9509417"><ele>502.0</ele><time>2026-04-04T08:01:01.824Z</time></trkpt><trkpt lat="42.1577367" lon="-7.9510333"><ele>503.0</ele><time>2026-04-04T08:01:02.823Z</time></trkpt><trkpt lat="42.1576467" lon="-7.9511267"><ele>504.00000000000006</ele><time>2026-04-04T08:01:03.824Z</time></trkpt><trkpt lat="42.1575617" lon="-7.951215"><ele>505.00000000000006</ele><time>2026-04-04T08:01:04.823Z</time></trkpt><trkpt lat="42.1574767" lon="-7.9513017"><ele>506.0</ele><time>2026-04-04T08:01:05.826Z</time></trkpt><trkpt lat="42.15739" lon="-7.9513867"><ele>507.0</ele><time>2026-04-04T08:01:06.824Z</time></trkpt><trkpt lat="42.1573033" lon="-7.9514667"><ele>507.0</ele><time>2026-04-04T08:01:07.823Z</time></trkpt><trkpt lat="42.1572167" lon="-7.95155"><ele>507.00000000000006</ele><time>2026-04-04T08:01:08.826Z</time></trkpt><trkpt lat="42.1571267" lon="-7.951635"><ele>507.00000000000006</ele><time>2026-04-04T08:01:09.823Z</time></trkpt><trkpt lat="42.1570383" lon="-7.9517167"><ele>507.0</ele><time>2026-04-04T08:01:10.824Z</time></trkpt><trkpt lat="42.1569483" lon="-7.9518"><ele>507.0</ele><time>2026-04-04T08:01:11.824Z</time></trkpt><trkpt lat="42.1568667" lon="-7.9518783"><ele>507.8</ele><time>2026-04-04T08:01:12.823Z</time></trkpt><trkpt lat="42.1567833" lon="-7.9519517"><ele>508.6</ele><time>2026-04-04T08:01:13.826Z</time></trkpt><trkpt lat="42.156705" lon="-7.9520233"><ele>509.40000000000003</ele><time>2026-04-04T08:01:14.828Z</time></trkpt><trkpt lat="42.15663" lon="-7.9520917"><ele>510.20000000000005</ele><time>2026-04-04T08:01:15.823Z</time></trkpt><trkpt lat="42.156555" lon="-7.9521583"><ele>511.0</ele><time>2026-04-04T08:01:16.824Z</time></trkpt><trkpt lat="42.156485" lon="-7.9522067"><ele>511.00000000000006</ele><time>2026-04-04T08:01:17.826Z</time></trkpt><trkpt lat="42.1564283" lon="-7.95226"><ele>511.0</ele><time>2026-04-04T08:01:18.829Z</time></trkpt><trkpt lat="42.156325" lon="-7.9523417"><ele>511.0</ele><time>2026-04-04T08:01:20.824Z</time></trkpt><trkpt lat="42.156275" lon="-7.9523967"><ele>511.0</ele><time>2026-04-04T08:01:21.825Z</time></trkpt><trkpt lat="42.15621" lon="-7.9524517"><ele>511.00000000000006</ele><time>2026-04-04T08:01:22.824Z</time></trkpt><trkpt lat="42.1561383" lon="-7.952515"><ele>511.0</ele><time>2026-04-04T08:01:23.825Z</time></trkpt><trkpt lat="42.156065" lon="-7.9525867"><ele>511.4</ele><time>2026-04-04T08:01:24.824Z</time></trkpt><trkpt lat="42.1559817" lon="-7.95266"><ele>511.8</ele><time>2026-04-04T08:01:25.825Z</time></trkpt><trkpt lat="42.155895" lon="-7.9527383"><ele>512.1999999999999</ele><time>2026-04-04T08:01:26.824Z</time></trkpt><trkpt lat="42.15581" lon="-7.9528167"><ele>512.6</ele><time>2026-04-04T08:01:27.825Z</time></trkpt><trkpt lat="42.155725" lon="-7.9528883"><ele>513.0</ele><time>2026-04-04T08:01:28.824Z</time></trkpt><trkpt lat="42.1556383" lon="-7.9529617"><ele>513.0</ele><time>2026-04-04T08:01:29.825Z</time></trkpt><trkpt lat="42.1555517" lon="-7.953025"><ele>513.0</ele><time>2026-04-04T08:01:30.824Z</time></trkpt><trkpt lat="42.1554767" lon="-7.9530883"><ele>513.0</ele><time>2026-04-04T08:01:31.824Z</time></trkpt><trkpt lat="42.155405" lon="-7.953145"><ele>513.0</ele><time>2026-04-04T08:01:32.825Z</time></trkpt><trkpt lat="42.155345" lon="-7.9531967"><ele>513.0</ele><time>2026-04-04T08:01:33.825Z</time></trkpt><trkpt lat="42.155245" lon="-7.9532617"><ele>513.0</ele><time>2026-04-04T08:01:35.825Z</time></trkpt><trkpt lat="42.155135" lon="-7.9533183"><ele>513.0</ele><time>2026-04-04T08:01:37.825Z</time></trkpt><trkpt lat="42.15508" lon="-7.9533717"><ele>513.0</ele><time>2026-04-04T08:01:38.825Z</time></trkpt><trkpt lat="42.15503" lon="-7.953425"><ele>513.0</ele><time>2026-04-04T08:01:39.824Z</time></trkpt><trkpt lat="42.1549367" lon="-7.95353"><ele>513.0</ele><time>2026-04-04T08:01:41.824Z</time></trkpt><trkpt lat="42.154885" lon="-7.9535817"><ele>513.0</ele><time>2026-04-04T08:01:42.824Z</time></trkpt><trkpt lat="42.1548283" lon="-7.9536333"><ele>513.1666666666666</ele><time>2026-04-04T08:01:43.824Z</time></trkpt><trkpt lat="42.15477" lon="-7.9536883"><ele>513.3333333333334</ele><time>2026-04-04T08:01:44.825Z</time></trkpt><trkpt lat="42.1546917" lon="-7.9537517"><ele>513.5</ele><time>2026-04-04T08:01:45.824Z</time></trkpt><trkpt lat="42.1546233" lon="-7.9538117"><ele>513.6666666666667</ele><time>2026-04-04T08:01:46.825Z</time></trkpt><trkpt lat="42.1545667" lon="-7.95387"><ele>513.8333333333334</ele><time>2026-04-04T08:01:47.825Z</time></trkpt><trkpt lat="42.1545083" lon="-7.953935"><ele>514.0</ele><time>2026-04-04T08:01:48.824Z</time></trkpt><trkpt lat="42.1544533" lon="-7.954"><ele>514.0</ele><time>2026-04-04T08:01:49.824Z</time></trkpt><trkpt lat="42.154395" lon="-7.9540717"><ele>514.0</ele><time>2026-04-04T08:01:50.825Z</time></trkpt><trkpt lat="42.1543317" lon="-7.9541517"><ele>514.0</ele><time>2026-04-04T08:01:51.824Z</time></trkpt><trkpt lat="42.1542683" lon="-7.9542433"><ele>514.0</ele><time>2026-04-04T08:01:52.825Z</time></trkpt><trkpt lat="42.1542083" lon="-7.9543467"><ele>514.0</ele><time>2026-04-04T08:01:53.824Z</time></trkpt><trkpt lat="42.154145" lon="-7.9544533"><ele>514.2</ele><time>2026-04-04T08:01:54.824Z</time></trkpt><trkpt lat="42.154085" lon="-7.9545667"><ele>514.4</ele><time>2026-04-04T08:01:55.824Z</time></trkpt><trkpt lat="42.1540183" lon="-7.9546733"><ele>514.6</ele><time>2026-04-04T08:01:56.825Z</time></trkpt><trkpt lat="42.15395" lon="-7.9547817"><ele>514.8</ele><time>2026-04-04T08:01:57.824Z</time></trkpt><trkpt lat="42.1538817" lon="-7.954875"><ele>515.0</ele><time>2026-04-04T08:01:58.825Z</time></trkpt><trkpt lat="42.153825" lon="-7.9549567"><ele>515.0</ele><time>2026-04-04T08:01:59.824Z</time></trkpt><trkpt lat="42.153775" lon="-7.9550267"><ele>515.0</ele><time>2026-04-04T08:02:00.825Z</time></trkpt><trkpt lat="42.1537417" lon="-7.9551117"><ele>515.0</ele><time>2026-04-04T08:02:01.825Z</time></trkpt><trkpt lat="42.1536917" lon="-7.9551933"><ele>515.0</ele><time>2026-04-04T08:02:02.824Z</time></trkpt><trkpt lat="42.1536267" lon="-7.9552367"><ele>515.0</ele><time>2026-04-04T08:02:03.824Z</time></trkpt><trkpt lat="42.1535633" lon="-7.9552733"><ele>515.0</ele><time>2026-04-04T08:02:04.825Z</time></trkpt><trkpt lat="42.1534967" lon="-7.9552883"><ele>515.0</ele><time>2026-04-04T08:02:05.825Z</time></trkpt><trkpt lat="42.1534217" lon="-7.9552683"><ele>515.0</ele><time>2026-04-04T08:02:06.824Z</time></trkpt><trkpt lat="42.1533417" lon="-7.9552433"><ele>515.0</ele><time>2026-04-04T08:02:07.824Z</time></trkpt><trkpt lat="42.1532567" lon="-7.9552283"><ele>515.0</ele><time>2026-04-04T08:02:08.825Z</time></trkpt><trkpt lat="42.1531667" lon="-7.9552167"><ele>515.0</ele><time>2026-04-04T08:02:09.824Z</time></trkpt><trkpt lat="42.1530717" lon="-7.9552017"><ele>515.0</ele><time>2026-04-04T08:02:10.824Z</time></trkpt><trkpt lat="42.1529783" lon="-7.95518"><ele>515.0</ele><time>2026-04-04T08:02:11.824Z</time></trkpt><trkpt lat="42.15289" lon="-7.955175"><ele>515.0</ele><time>2026-04-04T08:02:12.824Z</time></trkpt><trkpt lat="42.1528067" lon="-7.955165"><ele>515.0</ele><time>2026-04-04T08:02:13.824Z</time></trkpt><trkpt lat="42.152725" lon="-7.955135"><ele>515.0</ele><time>2026-04-04T08:02:14.825Z</time></trkpt><trkpt lat="42.1526483" lon="-7.9551217"><ele>515.0</ele><time>2026-04-04T08:02:15.825Z</time></trkpt><trkpt lat="42.1525783" lon="-7.955105"><ele>515.0</ele><time>2026-04-04T08:02:16.825Z</time></trkpt><trkpt lat="42.1525067" lon="-7.9550817"><ele>515.0</ele><time>2026-04-04T08:02:17.826Z</time></trkpt><trkpt lat="42.1524417" lon="-7.95508"><ele>515.0</ele><time>2026-04-04T08:02:18.825Z</time></trkpt><trkpt lat="42.152375" lon="-7.9550767"><ele>515.0</ele><time>2026-04-04T08:02:19.824Z</time></trkpt><trkpt lat="42.1523033" lon="-7.95508"><ele>515.0</ele><time>2026-04-04T08:02:20.825Z</time></trkpt><trkpt lat="42.1522317" lon="-7.9551"><ele>515.0</ele><time>2026-04-04T08:02:21.824Z</time></trkpt><trkpt lat="42.1521617" lon="-7.9551317"><ele>515.0</ele><time>2026-04-04T08:02:22.825Z</time></trkpt><trkpt lat="42.1520933" lon="-7.955185"><ele>515.0</ele><time>2026-04-04T08:02:23.824Z</time></trkpt><trkpt lat="42.152035" lon="-7.9552333"><ele>515.0</ele><time>2026-04-04T08:02:24.824Z</time></trkpt><trkpt lat="42.15198" lon="-7.9552833"><ele>514.1666666666666</ele><time>2026-04-04T08:02:25.824Z</time></trkpt><trkpt lat="42.15192" lon="-7.9553417"><ele>513.3333333333333</ele><time>2026-04-04T08:02:26.824Z</time></trkpt><trkpt lat="42.1518633" lon="-7.955405"><ele>512.5</ele><time>2026-04-04T08:02:27.824Z</time></trkpt><trkpt lat="42.1518" lon="-7.95547"><ele>511.66666666666663</ele><time>2026-04-04T08:02:28.826Z</time></trkpt><trkpt lat="42.1517367" lon="-7.955535"><ele>510.8333333333333</ele><time>2026-04-04T08:02:29.824Z</time></trkpt><trkpt lat="42.1516717" lon="-7.9556017"><ele>510.0</ele><time>2026-04-04T08:02:30.824Z</time></trkpt><trkpt lat="42.15161" lon="-7.9556667"><ele>510.0</ele><time>2026-04-04T08:02:31.825Z</time></trkpt><trkpt lat="42.1515467" lon="-7.95573"><ele>510.0</ele><time>2026-04-04T08:02:32.825Z</time></trkpt><trkpt lat="42.1514867" lon="-7.955795"><ele>510.0</ele><time>2026-04-04T08:02:33.825Z</time></trkpt><trkpt lat="42.1514183" lon="-7.955855"><ele>510.0</ele><time>2026-04-04T08:02:34.824Z</time></trkpt><trkpt lat="42.1513433" lon="-7.955925"><ele>510.0</ele><time>2026-04-04T08:02:35.825Z</time></trkpt><trkpt lat="42.1512633" lon="-7.955995"><ele>510.0</ele><time>2026-04-04T08:02:36.825Z</time></trkpt><trkpt lat="42.151185" lon="-7.956065"><ele>510.4</ele><time>2026-04-04T08:02:37.825Z</time></trkpt><trkpt lat="42.15111" lon="-7.9561217"><ele>510.8</ele><time>2026-04-04T08:02:38.825Z</time></trkpt><trkpt lat="42.1510417" lon="-7.9561767"><ele>511.20000000000005</ele><time>2026-04-04T08:02:39.825Z</time></trkpt><trkpt lat="42.1509833" lon="-7.9562267"><ele>511.6</ele><time>2026-04-04T08:02:40.826Z</time></trkpt><trkpt lat="42.150885" lon="-7.956315"><ele>512.0</ele><time>2026-04-04T08:02:42.826Z</time></trkpt><trkpt lat="42.1507917" lon="-7.95641"><ele>511.8</ele><time>2026-04-04T08:02:44.825Z</time></trkpt><trkpt lat="42.1506917" lon="-7.9564933"><ele>511.6</ele><time>2026-04-04T08:02:46.824Z</time></trkpt><trkpt lat="42.1506067" lon="-7.956555"><ele>511.40000000000003</ele><time>2026-04-04T08:02:48.825Z</time></trkpt><trkpt lat="42.1505467" lon="-7.9566167"><ele>511.20000000000005</ele><time>2026-04-04T08:02:50.825Z</time></trkpt><trkpt lat="42.1504467" lon="-7.9567017"><ele>511.0</ele><time>2026-04-04T08:02:52.824Z</time></trkpt><trkpt lat="42.1503817" lon="-7.95675"><ele>511.00000000000006</ele><time>2026-04-04T08:02:53.824Z</time></trkpt><trkpt lat="42.1503133" lon="-7.95681"><ele>511.0</ele><time>2026-04-04T08:02:54.825Z</time></trkpt><trkpt lat="42.150245" lon="-7.9568717"><ele>511.0</ele><time>2026-04-04T08:02:55.824Z</time></trkpt><trkpt lat="42.1501783" lon="-7.956945"><ele>511.0</ele><time>2026-04-04T08:02:56.824Z</time></trkpt><trkpt lat="42.1501167" lon="-7.9570067"><ele>511.00000000000006</ele><time>2026-04-04T08:02:57.825Z</time></trkpt><trkpt lat="42.1500517" lon="-7.95707"><ele>511.0</ele><time>2026-04-04T08:02:58.824Z</time></trkpt><trkpt lat="42.149985" lon="-7.95713"><ele>511.0</ele><time>2026-04-04T08:02:59.824Z</time></trkpt><trkpt lat="42.1499117" lon="-7.9572017"><ele>511.0</ele><time>2026-04-04T08:03:00.824Z</time></trkpt><trkpt lat="42.149835" lon="-7.9572783"><ele>511.0</ele><time>2026-04-04T08:03:01.826Z</time></trkpt><trkpt lat="42.1497533" lon="-7.9573567"><ele>511.0</ele><time>2026-04-04T08:03:02.824Z</time></trkpt><trkpt lat="42.1496667" lon="-7.957425"><ele>511.0</ele><time>2026-04-04T08:03:03.824Z</time></trkpt><trkpt lat="42.1495817" lon="-7.957495"><ele>511.1666666666667</ele><time>2026-04-04T08:03:04.824Z</time></trkpt><trkpt lat="42.1494983" lon="-7.9575617"><ele>511.33333333333337</ele><time>2026-04-04T08:03:05.825Z</time></trkpt><trkpt lat="42.1494183" lon="-7.9576333"><ele>511.5</ele><time>2026-04-04T08:03:06.826Z</time></trkpt><trkpt lat="42.14935" lon="-7.9576933"><ele>511.66666666666663</ele><time>2026-04-04T08:03:07.824Z</time></trkpt><trkpt lat="42.1492817" lon="-7.9577583"><ele>511.8333333333333</ele><time>2026-04-04T08:03:08.825Z</time></trkpt><trkpt lat="42.149215" lon="-7.9578283"><ele>512.0</ele><time>2026-04-04T08:03:09.824Z</time></trkpt><trkpt lat="42.1491567" lon="-7.9579033"><ele>512.0</ele><time>2026-04-04T08:03:10.824Z</time></trkpt><trkpt lat="42.1491267" lon="-7.9580017"><ele>511.99999999999994</ele><time>2026-04-04T08:03:11.825Z</time></trkpt><trkpt lat="42.1491017" lon="-7.9580967"><ele>512.0</ele><time>2026-04-04T08:03:12.824Z</time></trkpt><trkpt lat="42.1490817" lon="-7.9582017"><ele>512.0</ele><time>2026-04-04T08:03:13.824Z</time></trkpt><trkpt lat="42.14905" lon="-7.9582883"><ele>511.99999999999994</ele><time>2026-04-04T08:03:14.825Z</time></trkpt><trkpt lat="42.1490083" lon="-7.95836"><ele>512.0</ele><time>2026-04-04T08:03:15.824Z</time></trkpt><trkpt lat="42.14896" lon="-7.95843"><ele>512.0</ele><time>2026-04-04T08:03:16.826Z</time></trkpt><trkpt lat="42.1488933" lon="-7.9584983"><ele>511.5</ele><time>2026-04-04T08:03:17.825Z</time></trkpt><trkpt lat="42.1488133" lon="-7.95856"><ele>511.0</ele><time>2026-04-04T08:03:18.825Z</time></trkpt><trkpt lat="42.1487067" lon="-7.9585983"><ele>510.5</ele><time>2026-04-04T08:03:19.826Z</time></trkpt><trkpt lat="42.1485667" lon="-7.9586217"><ele>510.0</ele><time>2026-04-04T08:03:20.825Z</time></trkpt><trkpt lat="42.148425" lon="-7.9586583"><ele>510.0</ele><time>2026-04-04T08:03:21.823Z</time></trkpt><trkpt lat="42.1482983" lon="-7.9586867"><ele>510.0</ele><time>2026-04-04T08:03:22.824Z</time></trkpt><trkpt lat="42.148175" lon="-7.958715"><ele>510.0</ele><time>2026-04-04T08:03:23.823Z</time></trkpt><trkpt lat="42.1480583" lon="-7.9587517"><ele>510.0</ele><time>2026-04-04T08:03:24.823Z</time></trkpt><trkpt lat="42.1479533" lon="-7.9587833"><ele>509.4</ele><time>2026-04-04T08:03:25.823Z</time></trkpt><trkpt lat="42.1478533" lon="-7.9588167"><ele>508.8</ele><time>2026-04-04T08:03:26.824Z</time></trkpt><trkpt lat="42.1477717" lon="-7.9588417"><ele>508.20000000000005</ele><time>2026-04-04T08:03:27.823Z</time></trkpt><trkpt lat="42.147705" lon="-7.958875"><ele>507.6</ele><time>2026-04-04T08:03:28.823Z</time></trkpt><trkpt lat="42.1476117" lon="-7.9589383"><ele>507.0</ele><time>2026-04-04T08:03:30.824Z</time></trkpt><trkpt lat="42.1475217" lon="-7.9590117"><ele>507.0</ele><time>2026-04-04T08:03:32.824Z</time></trkpt><trkpt lat="42.1474567" lon="-7.9590467"><ele>507.00000000000006</ele><time>2026-04-04T08:03:33.823Z</time></trkpt><trkpt lat="42.1473733" lon="-7.959085"><ele>507.00000000000006</ele><time>2026-04-04T08:03:34.824Z</time></trkpt><trkpt lat="42.1472783" lon="-7.95913"><ele>507.0</ele><time>2026-04-04T08:03:35.823Z</time></trkpt><trkpt lat="42.1471767" lon="-7.9591917"><ele>507.0</ele><time>2026-04-04T08:03:36.824Z</time></trkpt><trkpt lat="42.1470817" lon="-7.9592567"><ele>507.0</ele><time>2026-04-04T08:03:37.824Z</time></trkpt><trkpt lat="42.14699" lon="-7.9593133"><ele>507.00000000000006</ele><time>2026-04-04T08:03:38.824Z</time></trkpt><trkpt lat="42.1468967" lon="-7.959345"><ele>507.00000000000006</ele><time>2026-04-04T08:03:39.823Z</time></trkpt><trkpt lat="42.1468033" lon="-7.9593583"><ele>507.0</ele><time>2026-04-04T08:03:40.824Z</time></trkpt><trkpt lat="42.146705" lon="-7.959365"><ele>507.0</ele><time>2026-04-04T08:03:41.822Z</time></trkpt><trkpt lat="42.1466133" lon="-7.9593833"><ele>508.3333333333333</ele><time>2026-04-04T08:03:42.823Z</time></trkpt><trkpt lat="42.146525" lon="-7.9594133"><ele>509.66666666666663</ele><time>2026-04-04T08:03:43.822Z</time></trkpt><trkpt lat="42.1464483" lon="-7.959465"><ele>511.0</ele><time>2026-04-04T08:03:44.822Z</time></trkpt><trkpt lat="42.1463817" lon="-7.9595267"><ele>512.3333333333333</ele><time>2026-04-04T08:03:45.822Z</time></trkpt><trkpt lat="42.1463317" lon="-7.959615"><ele>513.6666666666666</ele><time>2026-04-04T08:03:46.821Z</time></trkpt><trkpt lat="42.14631" lon="-7.959745"><ele>515.0</ele><time>2026-04-04T08:03:47.823Z</time></trkpt><trkpt lat="42.146295" lon="-7.9598717"><ele>515.0</ele><time>2026-04-04T08:03:48.823Z</time></trkpt><trkpt lat="42.1462717" lon="-7.9599783"><ele>515.0</ele><time>2026-04-04T08:03:49.822Z</time></trkpt><trkpt lat="42.1462467" lon="-7.9600717"><ele>515.0</ele><time>2026-04-04T08:03:50.823Z</time></trkpt><trkpt lat="42.1462283" lon="-7.9601667"><ele>515.0</ele><time>2026-04-04T08:03:51.823Z</time></trkpt><trkpt lat="42.1461983" lon="-7.9602433"><ele>515.0</ele><time>2026-04-04T08:03:52.825Z</time></trkpt><trkpt lat="42.1461" lon="-7.9603317"><ele>515.0</ele><time>2026-04-04T08:03:54.822Z</time></trkpt><trkpt lat="42.1460367" lon="-7.9603633"><ele>514.8333333333333</ele><time>2026-04-04T08:03:55.823Z</time></trkpt><trkpt lat="42.14597" lon="-7.9604"><ele>514.6666666666666</ele><time>2026-04-04T08:03:56.823Z</time></trkpt><trkpt lat="42.1459033" lon="-7.9604433"><ele>514.5</ele><time>2026-04-04T08:03:57.822Z</time></trkpt><trkpt lat="42.1458333" lon="-7.960505"><ele>514.3333333333334</ele><time>2026-04-04T08:03:58.824Z</time></trkpt><trkpt lat="42.1457617" lon="-7.96057"><ele>514.1666666666667</ele><time>2026-04-04T08:03:59.823Z</time></trkpt><trkpt lat="42.1456983" lon="-7.96065"><ele>514.0</ele><time>2026-04-04T08:04:00.823Z</time></trkpt><trkpt lat="42.14563" lon="-7.960745"><ele>517.2</ele><time>2026-04-04T08:04:01.823Z</time></trkpt><trkpt lat="42.1455717" lon="-7.9608617"><ele>520.4</ele><time>2026-04-04T08:04:02.824Z</time></trkpt><trkpt lat="42.1455233" lon="-7.96096"><ele>523.6</ele><time>2026-04-04T08:04:03.823Z</time></trkpt><trkpt lat="42.1454583" lon="-7.9610583"><ele>526.8</ele><time>2026-04-04T08:04:04.822Z</time></trkpt><trkpt lat="42.1453917" lon="-7.96115"><ele>530.0</ele><time>2026-04-04T08:04:05.823Z</time></trkpt><trkpt lat="42.1453183" lon="-7.96122"><ele>530.8333333333333</ele><time>2026-04-04T08:04:06.823Z</time></trkpt><trkpt lat="42.14525" lon="-7.9612833"><ele>531.6666666666666</ele><time>2026-04-04T08:04:07.822Z</time></trkpt><trkpt lat="42.1451817" lon="-7.96135"><ele>532.5</ele><time>2026-04-04T08:04:08.823Z</time></trkpt><trkpt lat="42.14513" lon="-7.9614117"><ele>533.3333333333334</ele><time>2026-04-04T08:04:09.823Z</time></trkpt><trkpt lat="42.1450717" lon="-7.9614733"><ele>534.1666666666667</ele><time>2026-04-04T08:04:10.823Z</time></trkpt><trkpt lat="42.14497" lon="-7.961555"><ele>535.0</ele><time>2026-04-04T08:04:12.823Z</time></trkpt><trkpt lat="42.1448733" lon="-7.961585"><ele>536.6</ele><time>2026-04-04T08:04:14.824Z</time></trkpt><trkpt lat="42.1447817" lon="-7.9616017"><ele>538.2</ele><time>2026-04-04T08:04:16.823Z</time></trkpt><trkpt lat="42.1446783" lon="-7.9616267"><ele>539.8</ele><time>2026-04-04T08:04:19.823Z</time></trkpt><trkpt lat="42.1445417" lon="-7.9616617"><ele>541.4</ele><time>2026-04-04T08:04:21.823Z</time></trkpt><trkpt lat="42.1444617" lon="-7.961675"><ele>543.0</ele><time>2026-04-04T08:04:23.824Z</time></trkpt><trkpt lat="42.14433" lon="-7.9617067"><ele>544.8333333333334</ele><time>2026-04-04T08:04:25.824Z</time></trkpt><trkpt lat="42.1442567" lon="-7.9617367"><ele>546.6666666666666</ele><time>2026-04-04T08:04:26.823Z</time></trkpt><trkpt lat="42.14417" lon="-7.9617717"><ele>548.5</ele><time>2026-04-04T08:04:27.823Z</time></trkpt><trkpt lat="42.14411" lon="-7.961805"><ele>550.3333333333333</ele><time>2026-04-04T08:04:28.823Z</time></trkpt><trkpt lat="42.144015" lon="-7.961865"><ele>552.1666666666666</ele><time>2026-04-04T08:04:30.823Z</time></trkpt><trkpt lat="42.1439383" lon="-7.9619283"><ele>554.0</ele><time>2026-04-04T08:04:32.824Z</time></trkpt><trkpt lat="42.14388" lon="-7.9619733"><ele>554.5</ele><time>2026-04-04T08:04:33.822Z</time></trkpt><trkpt lat="42.1438283" lon="-7.9620367"><ele>555.0</ele><time>2026-04-04T08:04:34.824Z</time></trkpt><trkpt lat="42.1437733" lon="-7.9621"><ele>555.5</ele><time>2026-04-04T08:04:35.823Z</time></trkpt><trkpt lat="42.1437117" lon="-7.9621667"><ele>556.0</ele><time>2026-04-04T08:04:36.822Z</time></trkpt><trkpt lat="42.1436467" lon="-7.96223"><ele>556.5</ele><time>2026-04-04T08:04:37.822Z</time></trkpt><trkpt lat="42.1435833" lon="-7.962305"><ele>557.0</ele><time>2026-04-04T08:04:38.823Z</time></trkpt><trkpt lat="42.14352" lon="-7.9623833"><ele>557.0</ele><time>2026-04-04T08:04:39.823Z</time></trkpt><trkpt lat="42.1434633" lon="-7.9624667"><ele>557.0</ele><time>2026-04-04T08:04:40.822Z</time></trkpt><trkpt lat="42.1433917" lon="-7.9625517"><ele>557.0</ele><time>2026-04-04T08:04:41.822Z</time></trkpt><trkpt lat="42.1433283" lon="-7.9626417"><ele>557.0</ele><time>2026-04-04T08:04:42.824Z</time></trkpt><trkpt lat="42.1432767" lon="-7.9627483"><ele>557.0</ele><time>2026-04-04T08:04:43.823Z</time></trkpt><trkpt lat="42.1432383" lon="-7.9628667"><ele>559.2</ele><time>2026-04-04T08:04:44.823Z</time></trkpt><trkpt lat="42.1432033" lon="-7.9629983"><ele>561.4000000000001</ele><time>2026-04-04T08:04:45.822Z</time></trkpt><trkpt lat="42.1431567" lon="-7.9631183"><ele>563.5999999999999</ele><time>2026-04-04T08:04:46.823Z</time></trkpt><trkpt lat="42.1431167" lon="-7.9632417"><ele>565.8</ele><time>2026-04-04T08:04:47.823Z</time></trkpt><trkpt lat="42.1430767" lon="-7.9633567"><ele>568.0</ele><time>2026-04-04T08:04:48.823Z</time></trkpt><trkpt lat="42.1430283" lon="-7.9634467"><ele>569.8333333333334</ele><time>2026-04-04T08:04:49.823Z</time></trkpt><trkpt lat="42.1429783" lon="-7.9635183"><ele>571.6666666666667</ele><time>2026-04-04T08:04:50.824Z</time></trkpt><trkpt lat="42.1429333" lon="-7.9635817"><ele>573.5</ele><time>2026-04-04T08:04:51.822Z</time></trkpt><trkpt lat="42.1428433" lon="-7.96369"><ele>575.3333333333334</ele><time>2026-04-04T08:04:53.824Z</time></trkpt><trkpt lat="42.1427383" lon="-7.9637633"><ele>577.1666666666666</ele><time>2026-04-04T08:04:55.822Z</time></trkpt><trkpt lat="42.1426783" lon="-7.963805"><ele>579.0</ele><time>2026-04-04T08:04:56.824Z</time></trkpt><trkpt lat="42.1426083" lon="-7.9638467"><ele>578.9999999999999</ele><time>2026-04-04T08:04:57.822Z</time></trkpt><trkpt lat="42.1425467" lon="-7.9638983"><ele>579.0</ele><time>2026-04-04T08:04:58.822Z</time></trkpt><trkpt lat="42.1424883" lon="-7.963945"><ele>579.0</ele><time>2026-04-04T08:04:59.823Z</time></trkpt><trkpt lat="42.1424233" lon="-7.9639833"><ele>579.0</ele><time>2026-04-04T08:05:00.823Z</time></trkpt><trkpt lat="42.1423517" lon="-7.9640267"><ele>579.0</ele><time>2026-04-04T08:05:01.822Z</time></trkpt><trkpt lat="42.1422783" lon="-7.9640567"><ele>578.9999999999999</ele><time>2026-04-04T08:05:02.823Z</time></trkpt><trkpt lat="42.142205" lon="-7.9640533"><ele>579.0</ele><time>2026-04-04T08:05:03.823Z</time></trkpt><trkpt lat="42.14214" lon="-7.96401"><ele>582.5</ele><time>2026-04-04T08:05:04.827Z</time></trkpt><trkpt lat="42.142095" lon="-7.9639483"><ele>586.0</ele><time>2026-04-04T08:05:05.823Z</time></trkpt><trkpt lat="42.1420183" lon="-7.9636167"><ele>589.5</ele><time>2026-04-04T08:05:06.823Z</time></trkpt><trkpt lat="42.1419783" lon="-7.9634967"><ele>593.0</ele><time>2026-04-04T08:05:07.826Z</time></trkpt><trkpt lat="42.14195" lon="-7.9633917"><ele>592.3333333333333</ele><time>2026-04-04T08:05:08.823Z</time></trkpt><trkpt lat="42.1419217" lon="-7.9632817"><ele>591.6666666666666</ele><time>2026-04-04T08:05:09.825Z</time></trkpt><trkpt lat="42.1419083" lon="-7.9631717"><ele>591.0</ele><time>2026-04-04T08:05:10.825Z</time></trkpt><trkpt lat="42.1418633" lon="-7.9630783"><ele>590.3333333333334</ele><time>2026-04-04T08:05:11.824Z</time></trkpt><trkpt lat="42.1418333" lon="-7.96298"><ele>589.6666666666667</ele><time>2026-04-04T08:05:12.823Z</time></trkpt><trkpt lat="42.1418033" lon="-7.962865"><ele>589.0</ele><time>2026-04-04T08:05:13.823Z</time></trkpt><trkpt lat="42.1417517" lon="-7.9627617"><ele>589.0</ele><time>2026-04-04T08:05:14.823Z</time></trkpt><trkpt lat="42.1417017" lon="-7.9626817"><ele>589.0</ele><time>2026-04-04T08:05:15.823Z</time></trkpt><trkpt lat="42.1416333" lon="-7.962545"><ele>589.0</ele><time>2026-04-04T08:05:17.823Z</time></trkpt><trkpt lat="42.1415917" lon="-7.9624783"><ele>589.0</ele><time>2026-04-04T08:05:18.823Z</time></trkpt><trkpt lat="42.14153" lon="-7.962415"><ele>589.0</ele><time>2026-04-04T08:05:19.823Z</time></trkpt><trkpt lat="42.14149" lon="-7.9623483"><ele>589.0</ele><time>2026-04-04T08:05:20.824Z</time></trkpt><trkpt lat="42.1414617" lon="-7.9622667"><ele>588.3333333333334</ele><time>2026-04-04T08:05:21.823Z</time></trkpt><trkpt lat="42.14152" lon="-7.9621683"><ele>587.6666666666667</ele><time>2026-04-04T08:05:22.826Z</time></trkpt><trkpt lat="42.1415383" lon="-7.962065"><ele>587.0</ele><time>2026-04-04T08:05:23.823Z</time></trkpt><trkpt lat="42.141555" lon="-7.961975"><ele>586.3333333333334</ele><time>2026-04-04T08:05:24.824Z</time></trkpt><trkpt lat="42.1415633" lon="-7.9618683"><ele>585.6666666666666</ele><time>2026-04-04T08:05:25.824Z</time></trkpt><trkpt lat="42.141595" lon="-7.9617467"><ele>585.0</ele><time>2026-04-04T08:05:26.822Z</time></trkpt><trkpt lat="42.1416117" lon="-7.9616367"><ele>584.7142857142858</ele><time>2026-04-04T08:05:27.822Z</time></trkpt><trkpt lat="42.1416183" lon="-7.9615283"><ele>584.4285714285714</ele><time>2026-04-04T08:05:28.822Z</time></trkpt><trkpt lat="42.1416267" lon="-7.9614283"><ele>584.1428571428571</ele><time>2026-04-04T08:05:29.823Z</time></trkpt><trkpt lat="42.14164" lon="-7.9613183"><ele>583.8571428571429</ele><time>2026-04-04T08:05:30.822Z</time></trkpt><trkpt lat="42.1416517" lon="-7.9612117"><ele>583.5714285714286</ele><time>2026-04-04T08:05:31.823Z</time></trkpt><trkpt lat="42.14166" lon="-7.9611233"><ele>583.2857142857143</ele><time>2026-04-04T08:05:32.823Z</time></trkpt><trkpt lat="42.14166" lon="-7.9610383"><ele>583.0</ele><time>2026-04-04T08:05:33.823Z</time></trkpt><trkpt lat="42.141655" lon="-7.96091"><ele>583.8</ele><time>2026-04-04T08:05:35.824Z</time></trkpt><trkpt lat="42.1416367" lon="-7.9607767"><ele>584.5999999999999</ele><time>2026-04-04T08:05:37.822Z</time></trkpt><trkpt lat="42.14163" lon="-7.9606883"><ele>585.4000000000001</ele><time>2026-04-04T08:05:38.824Z</time></trkpt><trkpt lat="42.1416467" lon="-7.9605533"><ele>586.2</ele><time>2026-04-04T08:05:40.823Z</time></trkpt><trkpt lat="42.1416567" lon="-7.9603883"><ele>587.0</ele><time>2026-04-04T08:05:42.823Z</time></trkpt><trkpt lat="42.14167" lon="-7.9602917"><ele>587.0</ele><time>2026-04-04T08:05:44.823Z</time></trkpt><trkpt lat="42.1416217" lon="-7.9603467"><ele>587.0</ele><time>2026-04-04T08:05:52.824Z</time></trkpt><trkpt lat="42.1415633" lon="-7.9604517"><ele>587.0</ele><time>2026-04-04T08:05:54.823Z</time></trkpt><trkpt lat="42.14151" lon="-7.9605567"><ele>587.0</ele><time>2026-04-04T08:05:56.823Z</time></trkpt><trkpt lat="42.1414333" lon="-7.96062"><ele>587.0</ele><time>2026-04-04T08:05:58.824Z</time></trkpt><trkpt lat="42.1413233" lon="-7.960655"><ele>591.4</ele><time>2026-04-04T08:06:00.824Z</time></trkpt><trkpt lat="42.1412133" lon="-7.96065"><ele>595.8000000000001</ele><time>2026-04-04T08:06:01.823Z</time></trkpt><trkpt lat="42.1411383" lon="-7.9606483"><ele>600.2</ele><time>2026-04-04T08:06:02.823Z</time></trkpt><trkpt lat="42.1410367" lon="-7.960695"><ele>604.6</ele><time>2026-04-04T08:06:04.826Z</time></trkpt><trkpt lat="42.14095" lon="-7.9607783"><ele>609.0</ele><time>2026-04-04T08:06:06.825Z</time></trkpt><trkpt lat="42.1408883" lon="-7.960885"><ele>609.0</ele><time>2026-04-04T08:06:08.824Z</time></trkpt><trkpt lat="42.1408417" lon="-7.9610467"><ele>609.0</ele><time>2026-04-04T08:06:10.824Z</time></trkpt><trkpt lat="42.1408283" lon="-7.96113"><ele>609.0</ele><time>2026-04-04T08:06:11.824Z</time></trkpt><trkpt lat="42.1408167" lon="-7.9612283"><ele>609.0</ele><time>2026-04-04T08:06:12.825Z</time></trkpt><trkpt lat="42.140825" lon="-7.96132"><ele>609.0</ele><time>2026-04-04T08:06:13.825Z</time></trkpt><trkpt lat="42.14082" lon="-7.9614467"><ele>609.0</ele><time>2026-04-04T08:06:15.824Z</time></trkpt><trkpt lat="42.1408417" lon="-7.9615967"><ele>609.0</ele><time>2026-04-04T08:06:17.825Z</time></trkpt><trkpt lat="42.1409167" lon="-7.9616767"><ele>609.0</ele><time>2026-04-04T08:06:19.824Z</time></trkpt><trkpt lat="42.1409433" lon="-7.9617833"><ele>609.0</ele><time>2026-04-04T08:06:21.824Z</time></trkpt><trkpt lat="42.1409567" lon="-7.96192"><ele>609.0</ele><time>2026-04-04T08:06:23.823Z</time></trkpt><trkpt lat="42.1409217" lon="-7.9620667"><ele>609.0</ele><time>2026-04-04T08:06:25.824Z</time></trkpt><trkpt lat="42.140865" lon="-7.9622067"><ele>609.2</ele><time>2026-04-04T08:06:27.824Z</time></trkpt><trkpt lat="42.1408433" lon="-7.962355"><ele>609.4</ele><time>2026-04-04T08:06:29.824Z</time></trkpt><trkpt lat="42.1408417" lon="-7.962455"><ele>609.6</ele><time>2026-04-04T08:06:30.825Z</time></trkpt><trkpt lat="42.14084" lon="-7.9625433"><ele>609.8</ele><time>2026-04-04T08:06:31.824Z</time></trkpt><trkpt lat="42.1408533" lon="-7.9626783"><ele>610.0</ele><time>2026-04-04T08:06:32.824Z</time></trkpt><trkpt lat="42.1408567" lon="-7.9628567"><ele>610.1666666666667</ele><time>2026-04-04T08:06:33.825Z</time></trkpt><trkpt lat="42.1408567" lon="-7.9629867"><ele>610.3333333333334</ele><time>2026-04-04T08:06:34.824Z</time></trkpt><trkpt lat="42.14087" lon="-7.9630933"><ele>610.5</ele><time>2026-04-04T08:06:35.824Z</time></trkpt><trkpt lat="42.1408883" lon="-7.9631933"><ele>610.6666666666666</ele><time>2026-04-04T08:06:36.824Z</time></trkpt><trkpt lat="42.1409017" lon="-7.9632867"><ele>610.8333333333333</ele><time>2026-04-04T08:06:37.824Z</time></trkpt><trkpt lat="42.1409183" lon="-7.9633883"><ele>611.0</ele><time>2026-04-04T08:06:38.824Z</time></trkpt><trkpt lat="42.14093" lon="-7.9634767"><ele>611.6</ele><time>2026-04-04T08:06:39.824Z</time></trkpt><trkpt lat="42.14092" lon="-7.9636367"><ele>612.2</ele><time>2026-04-04T08:06:41.824Z</time></trkpt><trkpt lat="42.1409017" lon="-7.9637633"><ele>612.8</ele><time>2026-04-04T08:06:43.825Z</time></trkpt><trkpt lat="42.1408617" lon="-7.9638517"><ele>613.4</ele><time>2026-04-04T08:06:45.824Z</time></trkpt><trkpt lat="42.14077" lon="-7.9638917"><ele>614.0</ele><time>2026-04-04T08:06:47.824Z</time></trkpt><trkpt lat="42.140655" lon="-7.9638933"><ele>616.8</ele><time>2026-04-04T08:06:49.824Z</time></trkpt><trkpt lat="42.1405283" lon="-7.96392"><ele>619.5999999999999</ele><time>2026-04-04T08:06:51.824Z</time></trkpt><trkpt lat="42.1404617" lon="-7.963945"><ele>622.4</ele><time>2026-04-04T08:06:52.824Z</time></trkpt><trkpt lat="42.14036" lon="-7.9640017"><ele>625.1999999999999</ele><time>2026-04-04T08:06:54.825Z</time></trkpt><trkpt lat="42.1402833" lon="-7.9640183"><ele>628.0</ele><time>2026-04-04T08:06:56.824Z</time></trkpt><trkpt lat="42.140185" lon="-7.9639767"><ele>628.0</ele><time>2026-04-04T08:06:58.824Z</time></trkpt><trkpt lat="42.1401133" lon="-7.9639417"><ele>628.0</ele><time>2026-04-04T08:07:00.824Z</time></trkpt><trkpt lat="42.1400683" lon="-7.9638667"><ele>628.0</ele><time>2026-04-04T08:07:02.824Z</time></trkpt><trkpt lat="42.1400467" lon="-7.96378"><ele>628.0</ele><time>2026-04-04T08:07:04.824Z</time></trkpt><trkpt lat="42.1400517" lon="-7.963685"><ele>628.0</ele><time>2026-04-04T08:07:06.824Z</time></trkpt><trkpt lat="42.1400667" lon="-7.9635467"><ele>628.0</ele><time>2026-04-04T08:07:08.824Z</time></trkpt><trkpt lat="42.1400667" lon="-7.9634017"><ele>628.0</ele><time>2026-04-04T08:07:10.825Z</time></trkpt><trkpt lat="42.13999" lon="-7.9633867"><ele>628.0</ele><time>2026-04-04T08:07:13.824Z</time></trkpt><trkpt lat="42.1399217" lon="-7.9633283"><ele>628.0</ele><time>2026-04-04T08:07:16.825Z</time></trkpt><trkpt lat="42.13982" lon="-7.9632633"><ele>628.0</ele><time>2026-04-04T08:07:18.825Z</time></trkpt><trkpt lat="42.1397267" lon="-7.9631983"><ele>628.0</ele><time>2026-04-04T08:07:20.825Z</time></trkpt><trkpt lat="42.139655" lon="-7.9631733"><ele>631.1666666666667</ele><time>2026-04-04T08:07:22.823Z</time></trkpt><trkpt lat="42.1395767" lon="-7.9631817"><ele>634.3333333333334</ele><time>2026-04-04T08:07:23.823Z</time></trkpt><trkpt lat="42.1394967" lon="-7.9632067"><ele>637.5</ele><time>2026-04-04T08:07:25.824Z</time></trkpt><trkpt lat="42.1394217" lon="-7.9632183"><ele>640.6666666666666</ele><time>2026-04-04T08:07:27.822Z</time></trkpt><trkpt lat="42.139355" lon="-7.9631917"><ele>643.8333333333333</ele><time>2026-04-04T08:07:29.824Z</time></trkpt><trkpt lat="42.1393083" lon="-7.9631317"><ele>647.0</ele><time>2026-04-04T08:07:31.824Z</time></trkpt><trkpt lat="42.139225" lon="-7.9630733"><ele>647.0</ele><time>2026-04-04T08:07:34.823Z</time></trkpt><trkpt lat="42.1391467" lon="-7.9630183"><ele>647.0</ele><time>2026-04-04T08:07:36.823Z</time></trkpt><trkpt lat="42.1390683" lon="-7.9629417"><ele>647.0</ele><time>2026-04-04T08:07:38.824Z</time></trkpt><trkpt lat="42.139" lon="-7.962895"><ele>647.0</ele><time>2026-04-04T08:07:39.823Z</time></trkpt><trkpt lat="42.1389117" lon="-7.9627667"><ele>647.0</ele><time>2026-04-04T08:07:41.823Z</time></trkpt><trkpt lat="42.1388633" lon="-7.9627083"><ele>651.2</ele><time>2026-04-04T08:07:42.822Z</time></trkpt><trkpt lat="42.1387583" lon="-7.9625683"><ele>655.4000000000001</ele><time>2026-04-04T08:07:44.824Z</time></trkpt><trkpt lat="42.1386733" lon="-7.962475"><ele>659.5999999999999</ele><time>2026-04-04T08:07:45.823Z</time></trkpt><trkpt lat="42.1386167" lon="-7.9623833"><ele>663.8</ele><time>2026-04-04T08:07:46.822Z</time></trkpt><trkpt lat="42.1385617" lon="-7.962295"><ele>668.0</ele><time>2026-04-04T08:07:47.823Z</time></trkpt><trkpt lat="42.13851" lon="-7.9622"><ele>668.0</ele><time>2026-04-04T08:07:48.822Z</time></trkpt><trkpt lat="42.1384483" lon="-7.9621367"><ele>668.0</ele><time>2026-04-04T08:07:49.823Z</time></trkpt><trkpt lat="42.1383717" lon="-7.9620933"><ele>668.0</ele><time>2026-04-04T08:07:50.823Z</time></trkpt><trkpt lat="42.138305" lon="-7.9620633"><ele>668.0</ele><time>2026-04-04T08:07:51.824Z</time></trkpt><trkpt lat="42.1382383" lon="-7.9620467"><ele>668.0</ele><time>2026-04-04T08:07:52.822Z</time></trkpt><trkpt lat="42.1381633" lon="-7.9620317"><ele>668.0</ele><time>2026-04-04T08:07:53.823Z</time></trkpt><trkpt lat="42.1380933" lon="-7.9620183"><ele>668.0</ele><time>2026-04-04T08:07:54.823Z</time></trkpt><trkpt lat="42.1379733" lon="-7.96196"><ele>671.4</ele><time>2026-04-04T08:07:56.823Z</time></trkpt><trkpt lat="42.1379167" lon="-7.9619083"><ele>674.8</ele><time>2026-04-04T08:07:57.823Z</time></trkpt><trkpt lat="42.13786" lon="-7.961855"><ele>678.2</ele><time>2026-04-04T08:07:58.823Z</time></trkpt><trkpt lat="42.1377617" lon="-7.9617717"><ele>681.6</ele><time>2026-04-04T08:08:00.823Z</time></trkpt><trkpt lat="42.1376533" lon="-7.9617883"><ele>685.0</ele><time>2026-04-04T08:08:02.823Z</time></trkpt><trkpt lat="42.1375683" lon="-7.9618233"><ele>685.0</ele><time>2026-04-04T08:08:04.823Z</time></trkpt><trkpt lat="42.13749" lon="-7.961925"><ele>685.0</ele><time>2026-04-04T08:08:07.823Z</time></trkpt><trkpt lat="42.1374583" lon="-7.9620533"><ele>685.0</ele><time>2026-04-04T08:08:09.822Z</time></trkpt><trkpt lat="42.1374" lon="-7.9621483"><ele>685.0</ele><time>2026-04-04T08:08:11.823Z</time></trkpt><trkpt lat="42.1373767" lon="-7.96225"><ele>685.0</ele><time>2026-04-04T08:08:13.823Z</time></trkpt><trkpt lat="42.1373333" lon="-7.9623333"><ele>688.0</ele><time>2026-04-04T08:08:15.822Z</time></trkpt><trkpt lat="42.13729" lon="-7.96241"><ele>691.0</ele><time>2026-04-04T08:08:17.823Z</time></trkpt><trkpt lat="42.1371967" lon="-7.96246"><ele>694.0</ele><time>2026-04-04T08:08:19.822Z</time></trkpt><trkpt lat="42.1371333" lon="-7.9624617"><ele>697.0</ele><time>2026-04-04T08:08:20.824Z</time></trkpt><trkpt lat="42.1370267" lon="-7.962485"><ele>700.0</ele><time>2026-04-04T08:08:22.823Z</time></trkpt><trkpt lat="42.1368983" lon="-7.962515"><ele>699.5</ele><time>2026-04-04T08:08:24.825Z</time></trkpt><trkpt lat="42.1368183" lon="-7.96254"><ele>699.0</ele><time>2026-04-04T08:08:25.824Z</time></trkpt><trkpt lat="42.1367417" lon="-7.9625717"><ele>698.5</ele><time>2026-04-04T08:08:26.825Z</time></trkpt><trkpt lat="42.1366483" lon="-7.9626183"><ele>698.0</ele><time>2026-04-04T08:08:27.823Z</time></trkpt><trkpt lat="42.1365633" lon="-7.96268"><ele>697.5</ele><time>2026-04-04T08:08:29.823Z</time></trkpt><trkpt lat="42.1365033" lon="-7.96263"><ele>697.0</ele><time>2026-04-04T08:08:32.822Z</time></trkpt><trkpt lat="42.1364917" lon="-7.9624817"><ele>700.4000000000001</ele><time>2026-04-04T08:08:34.823Z</time></trkpt><trkpt lat="42.1364883" lon="-7.962315"><ele>703.8000000000001</ele><time>2026-04-04T08:08:36.823Z</time></trkpt><trkpt lat="42.1364833" lon="-7.9621983"><ele>707.2</ele><time>2026-04-04T08:08:37.823Z</time></trkpt><trkpt lat="42.136465" lon="-7.9621083"><ele>710.6</ele><time>2026-04-04T08:08:38.824Z</time></trkpt><trkpt lat="42.13641" lon="-7.9619467"><ele>714.0</ele><time>2026-04-04T08:08:40.823Z</time></trkpt><trkpt lat="42.1363717" lon="-7.9618783"><ele>714.0</ele><time>2026-04-04T08:08:41.823Z</time></trkpt><trkpt lat="42.1362883" lon="-7.961765"><ele>714.0</ele><time>2026-04-04T08:08:43.824Z</time></trkpt><trkpt lat="42.1362367" lon="-7.9617117"><ele>714.0</ele><time>2026-04-04T08:08:44.823Z</time></trkpt><trkpt lat="42.1361817" lon="-7.96165"><ele>714.0</ele><time>2026-04-04T08:08:45.823Z</time></trkpt><trkpt lat="42.1361233" lon="-7.9615767"><ele>714.0</ele><time>2026-04-04T08:08:46.823Z</time></trkpt><trkpt lat="42.1360917" lon="-7.9615"><ele>714.0</ele><time>2026-04-04T08:08:47.824Z</time></trkpt><trkpt lat="42.13604" lon="-7.96142"><ele>713.25</ele><time>2026-04-04T08:08:48.823Z</time></trkpt><trkpt lat="42.1359833" lon="-7.9612817"><ele>712.5</ele><time>2026-04-04T08:08:50.823Z</time></trkpt><trkpt lat="42.135935" lon="-7.9611383"><ele>711.75</ele><time>2026-04-04T08:08:52.824Z</time></trkpt><trkpt lat="42.1358367" lon="-7.9610633"><ele>711.0</ele><time>2026-04-04T08:08:54.823Z</time></trkpt><trkpt lat="42.1357233" lon="-7.9610167"><ele>713.1666666666666</ele><time>2026-04-04T08:08:56.824Z</time></trkpt><trkpt lat="42.1356517" lon="-7.9610383"><ele>715.3333333333334</ele><time>2026-04-04T08:08:57.823Z</time></trkpt><trkpt lat="42.1355783" lon="-7.9610333"><ele>717.5</ele><time>2026-04-04T08:08:58.823Z</time></trkpt><trkpt lat="42.1355067" lon="-7.9610183"><ele>719.6666666666667</ele><time>2026-04-04T08:08:59.823Z</time></trkpt><trkpt lat="42.1354" lon="-7.9609833"><ele>721.8333333333334</ele><time>2026-04-04T08:09:00.824Z</time></trkpt><trkpt lat="42.1353017" lon="-7.9609533"><ele>724.0</ele><time>2026-04-04T08:09:01.823Z</time></trkpt><trkpt lat="42.1352383" lon="-7.9609467"><ele>724.0</ele><time>2026-04-04T08:09:02.823Z</time></trkpt><trkpt lat="42.13512" lon="-7.9609333"><ele>724.0</ele><time>2026-04-04T08:09:04.823Z</time></trkpt><trkpt lat="42.1350467" lon="-7.96092"><ele>724.0</ele><time>2026-04-04T08:09:06.823Z</time></trkpt><trkpt lat="42.1349783" lon="-7.9608667"><ele>724.0</ele><time>2026-04-04T08:09:08.824Z</time></trkpt><trkpt lat="42.1348733" lon="-7.9608483"><ele>724.0</ele><time>2026-04-04T08:09:10.823Z</time></trkpt><trkpt lat="42.13487" lon="-7.9610217"><ele>724.0</ele><time>2026-04-04T08:09:12.823Z</time></trkpt><trkpt lat="42.134905" lon="-7.9611667"><ele>724.0</ele><time>2026-04-04T08:09:13.824Z</time></trkpt><trkpt lat="42.13489" lon="-7.9613"><ele>724.0</ele><time>2026-04-04T08:09:15.823Z</time></trkpt><trkpt lat="42.13483" lon="-7.9614317"><ele>724.0</ele><time>2026-04-04T08:09:17.824Z</time></trkpt><trkpt lat="42.1347833" lon="-7.961495"><ele>724.0</ele><time>2026-04-04T08:09:18.825Z</time></trkpt><trkpt lat="42.13473" lon="-7.9615467"><ele>725.1666666666667</ele><time>2026-04-04T08:09:19.823Z</time></trkpt><trkpt lat="42.1346717" lon="-7.9616083"><ele>726.3333333333334</ele><time>2026-04-04T08:09:20.823Z</time></trkpt><trkpt lat="42.1346033" lon="-7.9616867"><ele>727.5</ele><time>2026-04-04T08:09:21.823Z</time></trkpt><trkpt lat="42.1345433" lon="-7.9617667"><ele>728.6666666666666</ele><time>2026-04-04T08:09:22.823Z</time></trkpt><trkpt lat="42.1344683" lon="-7.961905"><ele>729.8333333333333</ele><time>2026-04-04T08:09:24.824Z</time></trkpt><trkpt lat="42.1344183" lon="-7.9619617"><ele>731.0</ele><time>2026-04-04T08:09:25.823Z</time></trkpt><trkpt lat="42.134325" lon="-7.9620317"><ele>731.0</ele><time>2026-04-04T08:09:27.822Z</time></trkpt><trkpt lat="42.13426" lon="-7.962045"><ele>731.0</ele><time>2026-04-04T08:09:28.824Z</time></trkpt><trkpt lat="42.1341967" lon="-7.9620733"><ele>731.0</ele><time>2026-04-04T08:09:29.824Z</time></trkpt><trkpt lat="42.1341383" lon="-7.96211"><ele>731.0</ele><time>2026-04-04T08:09:30.823Z</time></trkpt><trkpt lat="42.1340583" lon="-7.962145"><ele>731.0</ele><time>2026-04-04T08:09:31.823Z</time></trkpt><trkpt lat="42.1339683" lon="-7.9621567"><ele>731.0</ele><time>2026-04-04T08:09:32.823Z</time></trkpt><trkpt lat="42.1338883" lon="-7.9621717"><ele>732.8</ele><time>2026-04-04T08:09:33.823Z</time></trkpt><trkpt lat="42.1337983" lon="-7.9621833"><ele>734.5999999999999</ele><time>2026-04-04T08:09:34.823Z</time></trkpt><trkpt lat="42.1337083" lon="-7.9622033"><ele>736.4</ele><time>2026-04-04T08:09:35.823Z</time></trkpt><trkpt lat="42.1336167" lon="-7.96224"><ele>738.2</ele><time>2026-04-04T08:09:36.823Z</time></trkpt><trkpt lat="42.1335317" lon="-7.9622933"><ele>740.0</ele><time>2026-04-04T08:09:37.823Z</time></trkpt><trkpt lat="42.1334633" lon="-7.962365"><ele>740.0</ele><time>2026-04-04T08:09:38.824Z</time></trkpt><trkpt lat="42.1333967" lon="-7.962425"><ele>740.0</ele><time>2026-04-04T08:09:39.826Z</time></trkpt><trkpt lat="42.1333333" lon="-7.962475"><ele>740.0</ele><time>2026-04-04T08:09:40.825Z</time></trkpt><trkpt lat="42.1332717" lon="-7.962505"><ele>740.0</ele><time>2026-04-04T08:09:41.823Z</time></trkpt><trkpt lat="42.1331917" lon="-7.9625233"><ele>740.0</ele><time>2026-04-04T08:09:42.823Z</time></trkpt><trkpt lat="42.13311" lon="-7.9625333"><ele>740.0</ele><time>2026-04-04T08:09:43.824Z</time></trkpt><trkpt lat="42.1330283" lon="-7.9625383"><ele>741.5</ele><time>2026-04-04T08:09:44.824Z</time></trkpt><trkpt lat="42.1329467" lon="-7.9625317"><ele>743.0</ele><time>2026-04-04T08:09:45.823Z</time></trkpt><trkpt lat="42.13287" lon="-7.9625317"><ele>744.5</ele><time>2026-04-04T08:09:46.823Z</time></trkpt><trkpt lat="42.1327933" lon="-7.9625133"><ele>746.0</ele><time>2026-04-04T08:09:47.823Z</time></trkpt><trkpt lat="42.132715" lon="-7.9625017"><ele>747.5</ele><time>2026-04-04T08:09:48.823Z</time></trkpt><trkpt lat="42.1326417" lon="-7.9624917"><ele>749.0</ele><time>2026-04-04T08:09:49.823Z</time></trkpt><trkpt lat="42.1325633" lon="-7.9624683"><ele>749.5</ele><time>2026-04-04T08:09:50.826Z</time></trkpt><trkpt lat="42.1324933" lon="-7.962455"><ele>750.0</ele><time>2026-04-04T08:09:51.823Z</time></trkpt><trkpt lat="42.13243" lon="-7.9624417"><ele>750.5</ele><time>2026-04-04T08:09:52.825Z</time></trkpt><trkpt lat="42.13233" lon="-7.9623917"><ele>751.0</ele><time>2026-04-04T08:09:54.824Z</time></trkpt><trkpt lat="42.1322167" lon="-7.9623483"><ele>751.5</ele><time>2026-04-04T08:09:56.824Z</time></trkpt><trkpt lat="42.1321467" lon="-7.9623433"><ele>752.0</ele><time>2026-04-04T08:09:57.824Z</time></trkpt><trkpt lat="42.1320767" lon="-7.9623417"><ele>753.5</ele><time>2026-04-04T08:09:58.823Z</time></trkpt><trkpt lat="42.1320017" lon="-7.9623183"><ele>755.0</ele><time>2026-04-04T08:09:59.824Z</time></trkpt><trkpt lat="42.131925" lon="-7.9622883"><ele>756.5</ele><time>2026-04-04T08:10:00.825Z</time></trkpt><trkpt lat="42.1318417" lon="-7.9622583"><ele>758.0</ele><time>2026-04-04T08:10:01.825Z</time></trkpt><trkpt lat="42.1317433" lon="-7.96223"><ele>759.5</ele><time>2026-04-04T08:10:02.824Z</time></trkpt><trkpt lat="42.13165" lon="-7.9621933"><ele>761.0</ele><time>2026-04-04T08:10:03.823Z</time></trkpt><trkpt lat="42.1315633" lon="-7.9621533"><ele>762.1999999999999</ele><time>2026-04-04T08:10:04.823Z</time></trkpt><trkpt lat="42.1314933" lon="-7.962105"><ele>763.4</ele><time>2026-04-04T08:10:05.824Z</time></trkpt><trkpt lat="42.1314217" lon="-7.96205"><ele>764.6</ele><time>2026-04-04T08:10:06.824Z</time></trkpt><trkpt lat="42.13135" lon="-7.9619967"><ele>765.8</ele><time>2026-04-04T08:10:07.823Z</time></trkpt><trkpt lat="42.1312817" lon="-7.961945"><ele>767.0</ele><time>2026-04-04T08:10:08.826Z</time></trkpt><trkpt lat="42.13116" lon="-7.9618667"><ele>767.0</ele><time>2026-04-04T08:10:10.824Z</time></trkpt><trkpt lat="42.1310917" lon="-7.961875"><ele>767.0</ele><time>2026-04-04T08:10:11.824Z</time></trkpt><trkpt lat="42.1310017" lon="-7.961885"><ele>767.0</ele><time>2026-04-04T08:10:12.824Z</time></trkpt><trkpt lat="42.130895" lon="-7.9619133"><ele>767.0</ele><time>2026-04-04T08:10:13.823Z</time></trkpt><trkpt lat="42.1307667" lon="-7.9619233"><ele>767.0</ele><time>2026-04-04T08:10:14.824Z</time></trkpt><trkpt lat="42.1306733" lon="-7.9620033"><ele>769.4000000000001</ele><time>2026-04-04T08:10:15.824Z</time></trkpt><trkpt lat="42.1305633" lon="-7.9620433"><ele>771.8000000000001</ele><time>2026-04-04T08:10:16.823Z</time></trkpt><trkpt lat="42.1304633" lon="-7.9620717"><ele>774.2</ele><time>2026-04-04T08:10:17.824Z</time></trkpt><trkpt lat="42.13038" lon="-7.9621117"><ele>776.6</ele><time>2026-04-04T08:10:18.824Z</time></trkpt><trkpt lat="42.13029" lon="-7.9621483"><ele>779.0</ele><time>2026-04-04T08:10:19.824Z</time></trkpt><trkpt lat="42.130205" lon="-7.9621783"><ele>779.0</ele><time>2026-04-04T08:10:20.823Z</time></trkpt><trkpt lat="42.1301133" lon="-7.9621983"><ele>779.0</ele><time>2026-04-04T08:10:21.823Z</time></trkpt><trkpt lat="42.1300167" lon="-7.96221"><ele>779.0</ele><time>2026-04-04T08:10:22.823Z</time></trkpt><trkpt lat="42.1299183" lon="-7.96222"><ele>779.0</ele><time>2026-04-04T08:10:23.824Z</time></trkpt><trkpt lat="42.129815" lon="-7.9622333"><ele>779.0</ele><time>2026-04-04T08:10:24.823Z</time></trkpt><trkpt lat="42.1297083" lon="-7.96225"><ele>780.0</ele><time>2026-04-04T08:10:25.825Z</time></trkpt><trkpt lat="42.1296" lon="-7.9622667"><ele>781.0</ele><time>2026-04-04T08:10:26.824Z</time></trkpt><trkpt lat="42.1295033" lon="-7.9622883"><ele>782.0</ele><time>2026-04-04T08:10:27.823Z</time></trkpt><trkpt lat="42.1294217" lon="-7.96231"><ele>783.0</ele><time>2026-04-04T08:10:28.824Z</time></trkpt><trkpt lat="42.1293533" lon="-7.9623233"><ele>784.0</ele><time>2026-04-04T08:10:29.824Z</time></trkpt><trkpt lat="42.1292367" lon="-7.9623483"><ele>783.9999999999999</ele><time>2026-04-04T08:10:31.823Z</time></trkpt><trkpt lat="42.1291383" lon="-7.9623933"><ele>784.0</ele><time>2026-04-04T08:10:33.824Z</time></trkpt><trkpt lat="42.129085" lon="-7.9624467"><ele>784.0</ele><time>2026-04-04T08:10:34.823Z</time></trkpt><trkpt lat="42.1290533" lon="-7.96254"><ele>784.0</ele><time>2026-04-04T08:10:35.823Z</time></trkpt><trkpt lat="42.129005" lon="-7.9626183"><ele>783.9999999999999</ele><time>2026-04-04T08:10:36.823Z</time></trkpt><trkpt lat="42.1289117" lon="-7.9626783"><ele>784.0</ele><time>2026-04-04T08:10:37.825Z</time></trkpt><trkpt lat="42.1288467" lon="-7.962795"><ele>784.1666666666666</ele><time>2026-04-04T08:10:38.824Z</time></trkpt><trkpt lat="42.1288" lon="-7.9629017"><ele>784.3333333333333</ele><time>2026-04-04T08:10:39.823Z</time></trkpt><trkpt lat="42.128775" lon="-7.963025"><ele>784.5</ele><time>2026-04-04T08:10:40.823Z</time></trkpt><trkpt lat="42.1287483" lon="-7.96311"><ele>784.6666666666667</ele><time>2026-04-04T08:10:41.823Z</time></trkpt><trkpt lat="42.1287133" lon="-7.96319"><ele>784.8333333333334</ele><time>2026-04-04T08:10:42.823Z</time></trkpt><trkpt lat="42.1286633" lon="-7.9632633"><ele>785.0</ele><time>2026-04-04T08:10:43.823Z</time></trkpt><trkpt lat="42.1286117" lon="-7.9633467"><ele>786.0</ele><time>2026-04-04T08:10:44.824Z</time></trkpt><trkpt lat="42.1285617" lon="-7.96344"><ele>787.0</ele><time>2026-04-04T08:10:45.823Z</time></trkpt><trkpt lat="42.1285183" lon="-7.9635683"><ele>788.0</ele><time>2026-04-04T08:10:46.823Z</time></trkpt><trkpt lat="42.12846" lon="-7.96366"><ele>789.0</ele><time>2026-04-04T08:10:47.824Z</time></trkpt><trkpt lat="42.1283267" lon="-7.9639917"><ele>789.0</ele><time>2026-04-04T08:10:48.823Z</time></trkpt><trkpt lat="42.1282617" lon="-7.9641183"><ele>789.0</ele><time>2026-04-04T08:10:49.823Z</time></trkpt><trkpt lat="42.1281833" lon="-7.9641833"><ele>789.0</ele><time>2026-04-04T08:10:50.824Z</time></trkpt><trkpt lat="42.1280733" lon="-7.9642567"><ele>789.0</ele><time>2026-04-04T08:10:51.823Z</time></trkpt><trkpt lat="42.1280133" lon="-7.9643517"><ele>789.0</ele><time>2026-04-04T08:10:52.823Z</time></trkpt><trkpt lat="42.1279483" lon="-7.9644583"><ele>789.2</ele><time>2026-04-04T08:10:53.823Z</time></trkpt><trkpt lat="42.1278867" lon="-7.9645617"><ele>789.4000000000001</ele><time>2026-04-04T08:10:54.824Z</time></trkpt><trkpt lat="42.1278167" lon="-7.9646817"><ele>789.6</ele><time>2026-04-04T08:10:55.825Z</time></trkpt><trkpt lat="42.1277367" lon="-7.9647917"><ele>789.8</ele><time>2026-04-04T08:10:56.824Z</time></trkpt><trkpt lat="42.1276733" lon="-7.96489"><ele>790.0</ele><time>2026-04-04T08:10:57.823Z</time></trkpt><trkpt lat="42.12759" lon="-7.964975"><ele>791.0</ele><time>2026-04-04T08:10:58.823Z</time></trkpt><trkpt lat="42.1274917" lon="-7.96505"><ele>792.0</ele><time>2026-04-04T08:10:59.823Z</time></trkpt><trkpt lat="42.12739" lon="-7.9651183"><ele>793.0</ele><time>2026-04-04T08:11:00.824Z</time></trkpt><trkpt lat="42.1272533" lon="-7.965205"><ele>794.0</ele><time>2026-04-04T08:11:01.824Z</time></trkpt><trkpt lat="42.1271717" lon="-7.965285"><ele>794.0</ele><time>2026-04-04T08:11:02.825Z</time></trkpt><trkpt lat="42.1270783" lon="-7.96537"><ele>794.0</ele><time>2026-04-04T08:11:03.823Z</time></trkpt><trkpt lat="42.1269917" lon="-7.9654283"><ele>794.0</ele><time>2026-04-04T08:11:04.823Z</time></trkpt><trkpt lat="42.12692" lon="-7.965455"><ele>794.0</ele><time>2026-04-04T08:11:05.824Z</time></trkpt><trkpt lat="42.12684" lon="-7.9654633"><ele>794.0</ele><time>2026-04-04T08:11:06.824Z</time></trkpt><trkpt lat="42.126755" lon="-7.965445"><ele>794.0</ele><time>2026-04-04T08:11:07.824Z</time></trkpt><trkpt lat="42.1266583" lon="-7.9654183"><ele>794.0</ele><time>2026-04-04T08:11:08.824Z</time></trkpt><trkpt lat="42.126565" lon="-7.9654"><ele>794.0</ele><time>2026-04-04T08:11:09.823Z</time></trkpt><trkpt lat="42.12647" lon="-7.9653733"><ele>794.0</ele><time>2026-04-04T08:11:10.824Z</time></trkpt><trkpt lat="42.1263783" lon="-7.9653533"><ele>794.0</ele><time>2026-04-04T08:11:11.824Z</time></trkpt><trkpt lat="42.1262883" lon="-7.9653333"><ele>793.8333333333334</ele><time>2026-04-04T08:11:12.824Z</time></trkpt><trkpt lat="42.126205" lon="-7.96531"><ele>793.6666666666667</ele><time>2026-04-04T08:11:13.823Z</time></trkpt><trkpt lat="42.126125" lon="-7.9652867"><ele>793.5</ele><time>2026-04-04T08:11:14.824Z</time></trkpt><trkpt lat="42.1260483" lon="-7.9652667"><ele>793.3333333333333</ele><time>2026-04-04T08:11:15.823Z</time></trkpt><trkpt lat="42.1259783" lon="-7.9652233"><ele>793.1666666666666</ele><time>2026-04-04T08:11:16.826Z</time></trkpt><trkpt lat="42.12591" lon="-7.965165"><ele>793.0</ele><time>2026-04-04T08:11:17.823Z</time></trkpt><trkpt lat="42.125835" lon="-7.9651083"><ele>792.9999999999999</ele><time>2026-04-04T08:11:18.823Z</time></trkpt><trkpt lat="42.1257733" lon="-7.9650567"><ele>793.0</ele><time>2026-04-04T08:11:19.824Z</time></trkpt><trkpt lat="42.1257133" lon="-7.9649917"><ele>793.0</ele><time>2026-04-04T08:11:20.824Z</time></trkpt><trkpt lat="42.12565" lon="-7.96494"><ele>793.0</ele><time>2026-04-04T08:11:21.823Z</time></trkpt><trkpt lat="42.1255867" lon="-7.964895"><ele>792.9999999999999</ele><time>2026-04-04T08:11:22.823Z</time></trkpt><trkpt lat="42.12552" lon="-7.9648383"><ele>793.0</ele><time>2026-04-04T08:11:23.824Z</time></trkpt><trkpt lat="42.125415" lon="-7.9647817"><ele>791.4</ele><time>2026-04-04T08:11:24.824Z</time></trkpt><trkpt lat="42.1253433" lon="-7.96473"><ele>789.8</ele><time>2026-04-04T08:11:25.823Z</time></trkpt><trkpt lat="42.12522" lon="-7.9647267"><ele>788.2</ele><time>2026-04-04T08:11:27.825Z</time></trkpt><trkpt lat="42.125205" lon="-7.96482"><ele>786.6</ele><time>2026-04-04T08:11:28.823Z</time></trkpt><trkpt lat="42.12511" lon="-7.9648633"><ele>785.0</ele><time>2026-04-04T08:11:29.823Z</time></trkpt><trkpt lat="42.1250217" lon="-7.9649183"><ele>785.0</ele><time>2026-04-04T08:11:30.824Z</time></trkpt><trkpt lat="42.12494" lon="-7.9649667"><ele>785.0</ele><time>2026-04-04T08:11:31.823Z</time></trkpt><trkpt lat="42.1248567" lon="-7.96504"><ele>785.0</ele><time>2026-04-04T08:11:32.824Z</time></trkpt><trkpt lat="42.1247733" lon="-7.9651067"><ele>785.0</ele><time>2026-04-04T08:11:33.825Z</time></trkpt><trkpt lat="42.124685" lon="-7.9651483"><ele>785.0</ele><time>2026-04-04T08:11:34.823Z</time></trkpt><trkpt lat="42.124585" lon="-7.9651817"><ele>786.0</ele><time>2026-04-04T08:11:35.823Z</time></trkpt><trkpt lat="42.1244867" lon="-7.9652017"><ele>787.0</ele><time>2026-04-04T08:11:36.824Z</time></trkpt><trkpt lat="42.12439" lon="-7.9652333"><ele>788.0</ele><time>2026-04-04T08:11:37.825Z</time></trkpt><trkpt lat="42.1243017" lon="-7.965255"><ele>789.0</ele><time>2026-04-04T08:11:38.824Z</time></trkpt><trkpt lat="42.1242167" lon="-7.965265"><ele>790.0</ele><time>2026-04-04T08:11:39.823Z</time></trkpt><trkpt lat="42.12414" lon="-7.9652717"><ele>789.9999999999999</ele><time>2026-04-04T08:11:40.823Z</time></trkpt><trkpt lat="42.1240667" lon="-7.9652683"><ele>790.0</ele><time>2026-04-04T08:11:41.824Z</time></trkpt><trkpt lat="42.1240017" lon="-7.9652667"><ele>790.0</ele><time>2026-04-04T08:11:42.824Z</time></trkpt><trkpt lat="42.1238667" lon="-7.96525"><ele>790.0</ele><time>2026-04-04T08:11:44.824Z</time></trkpt><trkpt lat="42.1237967" lon="-7.9652317"><ele>789.9999999999999</ele><time>2026-04-04T08:11:45.825Z</time></trkpt><trkpt lat="42.1237167" lon="-7.9652233"><ele>790.0</ele><time>2026-04-04T08:11:46.823Z</time></trkpt><trkpt lat="42.1236067" lon="-7.9651483"><ele>790.6</ele><time>2026-04-04T08:11:48.824Z</time></trkpt><trkpt lat="42.123565" lon="-7.9650017"><ele>791.2</ele><time>2026-04-04T08:11:49.824Z</time></trkpt><trkpt lat="42.1235183" lon="-7.96488"><ele>791.8</ele><time>2026-04-04T08:11:50.824Z</time></trkpt><trkpt lat="42.1234733" lon="-7.964755"><ele>792.4</ele><time>2026-04-04T08:11:51.825Z</time></trkpt><trkpt lat="42.1234583" lon="-7.9646417"><ele>793.0</ele><time>2026-04-04T08:11:52.825Z</time></trkpt><trkpt lat="42.12338" lon="-7.9644967"><ele>793.0</ele><time>2026-04-04T08:11:54.825Z</time></trkpt><trkpt lat="42.123305" lon="-7.9644417"><ele>793.0</ele><time>2026-04-04T08:11:55.823Z</time></trkpt><trkpt lat="42.1232217" lon="-7.9643833"><ele>793.0</ele><time>2026-04-04T08:11:56.825Z</time></trkpt><trkpt lat="42.12314" lon="-7.9643783"><ele>793.0</ele><time>2026-04-04T08:11:57.824Z</time></trkpt><trkpt lat="42.123065" lon="-7.96436"><ele>793.0</ele><time>2026-04-04T08:11:58.824Z</time></trkpt><trkpt lat="42.1229567" lon="-7.9645167"><ele>795.2</ele><time>2026-04-04T08:11:59.824Z</time></trkpt><trkpt lat="42.1228733" lon="-7.9645983"><ele>797.4</ele><time>2026-04-04T08:12:00.823Z</time></trkpt><trkpt lat="42.1227967" lon="-7.9647417"><ele>799.6</ele><time>2026-04-04T08:12:01.824Z</time></trkpt><trkpt lat="42.12271" lon="-7.96482"><ele>801.8000000000001</ele><time>2026-04-04T08:12:02.824Z</time></trkpt><trkpt lat="42.1226233" lon="-7.9648683"><ele>804.0</ele><time>2026-04-04T08:12:03.824Z</time></trkpt><trkpt lat="42.1225317" lon="-7.964875"><ele>804.0</ele><time>2026-04-04T08:12:04.825Z</time></trkpt><trkpt lat="42.1224433" lon="-7.964865"><ele>804.0</ele><time>2026-04-04T08:12:05.824Z</time></trkpt><trkpt lat="42.1223583" lon="-7.9648383"><ele>804.0</ele><time>2026-04-04T08:12:06.824Z</time></trkpt><trkpt lat="42.1222733" lon="-7.9647417"><ele>804.0</ele><time>2026-04-04T08:12:07.825Z</time></trkpt><trkpt lat="42.122195" lon="-7.9646567"><ele>804.0</ele><time>2026-04-04T08:12:08.824Z</time></trkpt><trkpt lat="42.12213" lon="-7.9645633"><ele>804.6</ele><time>2026-04-04T08:12:09.825Z</time></trkpt><trkpt lat="42.1220683" lon="-7.9644533"><ele>805.2</ele><time>2026-04-04T08:12:10.825Z</time></trkpt><trkpt lat="42.1220233" lon="-7.9643383"><ele>805.8000000000001</ele><time>2026-04-04T08:12:11.825Z</time></trkpt><trkpt lat="42.1219933" lon="-7.96423"><ele>806.4000000000001</ele><time>2026-04-04T08:12:12.824Z</time></trkpt><trkpt lat="42.1219817" lon="-7.9641017"><ele>807.0</ele><time>2026-04-04T08:12:13.824Z</time></trkpt><trkpt lat="42.1219583" lon="-7.9639717"><ele>807.0</ele><time>2026-04-04T08:12:14.824Z</time></trkpt><trkpt lat="42.12192" lon="-7.9638417"><ele>807.0</ele><time>2026-04-04T08:12:15.824Z</time></trkpt><trkpt lat="42.1218867" lon="-7.9637067"><ele>807.0</ele><time>2026-04-04T08:12:16.824Z</time></trkpt><trkpt lat="42.12186" lon="-7.9635717"><ele>807.0</ele><time>2026-04-04T08:12:17.824Z</time></trkpt><trkpt lat="42.1218383" lon="-7.9634383"><ele>807.0</ele><time>2026-04-04T08:12:18.824Z</time></trkpt><trkpt lat="42.12182" lon="-7.963315"><ele>806.5</ele><time>2026-04-04T08:12:19.824Z</time></trkpt><trkpt lat="42.121805" lon="-7.96321"><ele>806.0</ele><time>2026-04-04T08:12:20.824Z</time></trkpt><trkpt lat="42.1217867" lon="-7.9631283"><ele>805.5</ele><time>2026-04-04T08:12:21.823Z</time></trkpt><trkpt lat="42.121745" lon="-7.963035"><ele>805.0</ele><time>2026-04-04T08:12:23.824Z</time></trkpt><trkpt lat="42.1216483" lon="-7.963085"><ele>804.5</ele><time>2026-04-04T08:12:26.824Z</time></trkpt><trkpt lat="42.1215983" lon="-7.96316"><ele>804.0</ele><time>2026-04-04T08:12:27.824Z</time></trkpt><trkpt lat="42.1215517" lon="-7.9632317"><ele>804.0</ele><time>2026-04-04T08:12:28.826Z</time></trkpt><trkpt lat="42.1214967" lon="-7.9633067"><ele>804.0</ele><time>2026-04-04T08:12:29.825Z</time></trkpt><trkpt lat="42.1214317" lon="-7.9633833"><ele>804.0</ele><time>2026-04-04T08:12:30.825Z</time></trkpt><trkpt lat="42.1213733" lon="-7.963455"><ele>804.0</ele><time>2026-04-04T08:12:31.825Z</time></trkpt><trkpt lat="42.121315" lon="-7.9635433"><ele>804.0</ele><time>2026-04-04T08:12:32.825Z</time></trkpt><trkpt lat="42.121265" lon="-7.9636183"><ele>804.0</ele><time>2026-04-04T08:12:33.823Z</time></trkpt><trkpt lat="42.121205" lon="-7.9636917"><ele>805.5</ele><time>2026-04-04T08:12:34.823Z</time></trkpt><trkpt lat="42.1211417" lon="-7.963755"><ele>807.0</ele><time>2026-04-04T08:12:35.823Z</time></trkpt><trkpt lat="42.1210767" lon="-7.963815"><ele>808.5</ele><time>2026-04-04T08:12:36.826Z</time></trkpt><trkpt lat="42.12101" lon="-7.9638733"><ele>810.0</ele><time>2026-04-04T08:12:37.824Z</time></trkpt><trkpt lat="42.1209383" lon="-7.9639367"><ele>811.5</ele><time>2026-04-04T08:12:38.823Z</time></trkpt><trkpt lat="42.1208683" lon="-7.9639917"><ele>813.0</ele><time>2026-04-04T08:12:39.824Z</time></trkpt><trkpt lat="42.1207967" lon="-7.9640467"><ele>813.6666666666666</ele><time>2026-04-04T08:12:40.823Z</time></trkpt><trkpt lat="42.1207217" lon="-7.9641067"><ele>814.3333333333333</ele><time>2026-04-04T08:12:41.823Z</time></trkpt><trkpt lat="42.1206483" lon="-7.96417"><ele>815.0</ele><time>2026-04-04T08:12:42.825Z</time></trkpt><trkpt lat="42.12058" lon="-7.9642383"><ele>815.6666666666666</ele><time>2026-04-04T08:12:43.823Z</time></trkpt><trkpt lat="42.1205133" lon="-7.964315"><ele>816.3333333333333</ele><time>2026-04-04T08:12:44.823Z</time></trkpt><trkpt lat="42.12045" lon="-7.9643983"><ele>817.0</ele><time>2026-04-04T08:12:45.824Z</time></trkpt><trkpt lat="42.1203867" lon="-7.9644717"><ele>817.9999999999999</ele><time>2026-04-04T08:12:46.823Z</time></trkpt><trkpt lat="42.120325" lon="-7.96455"><ele>819.0</ele><time>2026-04-04T08:12:47.823Z</time></trkpt><trkpt lat="42.12026" lon="-7.964635"><ele>820.0</ele><time>2026-04-04T08:12:48.824Z</time></trkpt><trkpt lat="42.1201983" lon="-7.9647183"><ele>821.0</ele><time>2026-04-04T08:12:49.823Z</time></trkpt><trkpt lat="42.1201383" lon="-7.96481"><ele>821.9999999999999</ele><time>2026-04-04T08:12:50.823Z</time></trkpt><trkpt lat="42.120075" lon="-7.9649067"><ele>823.0</ele><time>2026-04-04T08:12:51.823Z</time></trkpt><trkpt lat="42.1200117" lon="-7.9650033"><ele>824.6666666666666</ele><time>2026-04-04T08:12:52.823Z</time></trkpt><trkpt lat="42.1199533" lon="-7.965105"><ele>826.3333333333333</ele><time>2026-04-04T08:12:53.823Z</time></trkpt><trkpt lat="42.1199" lon="-7.9651883"><ele>828.0</ele><time>2026-04-04T08:12:54.824Z</time></trkpt><trkpt lat="42.1198533" lon="-7.9652667"><ele>829.6666666666667</ele><time>2026-04-04T08:12:55.823Z</time></trkpt><trkpt lat="42.1198" lon="-7.9653417"><ele>831.3333333333334</ele><time>2026-04-04T08:12:56.824Z</time></trkpt><trkpt lat="42.11974" lon="-7.965425"><ele>833.0</ele><time>2026-04-04T08:12:57.823Z</time></trkpt><trkpt lat="42.1196817" lon="-7.9655017"><ele>833.3333333333334</ele><time>2026-04-04T08:12:58.823Z</time></trkpt><trkpt lat="42.1196233" lon="-7.965575"><ele>833.6666666666667</ele><time>2026-04-04T08:12:59.823Z</time></trkpt><trkpt lat="42.1195683" lon="-7.96564"><ele>834.0</ele><time>2026-04-04T08:13:00.824Z</time></trkpt><trkpt lat="42.1195117" lon="-7.9657133"><ele>834.3333333333333</ele><time>2026-04-04T08:13:01.824Z</time></trkpt><trkpt lat="42.1194567" lon="-7.9657917"><ele>834.6666666666666</ele><time>2026-04-04T08:13:02.823Z</time></trkpt><trkpt lat="42.1194017" lon="-7.9658567"><ele>835.0</ele><time>2026-04-04T08:13:03.823Z</time></trkpt><trkpt lat="42.1193367" lon="-7.96593"><ele>836.2857142857143</ele><time>2026-04-04T08:13:04.823Z</time></trkpt><trkpt lat="42.1192783" lon="-7.96599"><ele>837.5714285714286</ele><time>2026-04-04T08:13:05.823Z</time></trkpt><trkpt lat="42.1192233" lon="-7.96605"><ele>838.8571428571429</ele><time>2026-04-04T08:13:06.823Z</time></trkpt><trkpt lat="42.11917" lon="-7.9661083"><ele>840.1428571428571</ele><time>2026-04-04T08:13:07.823Z</time></trkpt><trkpt lat="42.1191167" lon="-7.96617"><ele>841.4285714285714</ele><time>2026-04-04T08:13:08.823Z</time></trkpt><trkpt lat="42.11906" lon="-7.9662283"><ele>842.7142857142858</ele><time>2026-04-04T08:13:09.823Z</time></trkpt><trkpt lat="42.119005" lon="-7.9662933"><ele>844.0</ele><time>2026-04-04T08:13:10.823Z</time></trkpt><trkpt lat="42.1189433" lon="-7.966355"><ele>843.9999999999999</ele><time>2026-04-04T08:13:11.824Z</time></trkpt><trkpt lat="42.11888" lon="-7.9664267"><ele>844.0</ele><time>2026-04-04T08:13:12.824Z</time></trkpt><trkpt lat="42.11882" lon="-7.966495"><ele>844.0</ele><time>2026-04-04T08:13:13.824Z</time></trkpt><trkpt lat="42.1187617" lon="-7.96657"><ele>844.0</ele><time>2026-04-04T08:13:14.824Z</time></trkpt><trkpt lat="42.11871" lon="-7.96665"><ele>843.9999999999999</ele><time>2026-04-04T08:13:15.823Z</time></trkpt><trkpt lat="42.1186567" lon="-7.9667283"><ele>844.0</ele><time>2026-04-04T08:13:16.823Z</time></trkpt><trkpt lat="42.1186083" lon="-7.9668083"><ele>845.2</ele><time>2026-04-04T08:13:17.823Z</time></trkpt><trkpt lat="42.1185583" lon="-7.9668933"><ele>846.4000000000001</ele><time>2026-04-04T08:13:18.824Z</time></trkpt><trkpt lat="42.1185067" lon="-7.966995"><ele>847.6</ele><time>2026-04-04T08:13:19.823Z</time></trkpt><trkpt lat="42.1184583" lon="-7.96711"><ele>848.8</ele><time>2026-04-04T08:13:20.827Z</time></trkpt><trkpt lat="42.1183883" lon="-7.9672417"><ele>850.0</ele><time>2026-04-04T08:13:21.822Z</time></trkpt><trkpt lat="42.118315" lon="-7.9673733"><ele>850.0</ele><time>2026-04-04T08:13:22.824Z</time></trkpt><trkpt lat="42.1182467" lon="-7.967505"><ele>850.0</ele><time>2026-04-04T08:13:23.823Z</time></trkpt><trkpt lat="42.1181883" lon="-7.9676267"><ele>850.0</ele><time>2026-04-04T08:13:24.823Z</time></trkpt><trkpt lat="42.118135" lon="-7.9677483"><ele>850.0</ele><time>2026-04-04T08:13:25.823Z</time></trkpt><trkpt lat="42.11808" lon="-7.9678667"><ele>850.0</ele><time>2026-04-04T08:13:26.824Z</time></trkpt><trkpt lat="42.118025" lon="-7.9679817"><ele>850.6</ele><time>2026-04-04T08:13:27.823Z</time></trkpt><trkpt lat="42.11797" lon="-7.96809"><ele>851.2</ele><time>2026-04-04T08:13:28.823Z</time></trkpt><trkpt lat="42.1179083" lon="-7.9681833"><ele>851.8</ele><time>2026-04-04T08:13:29.823Z</time></trkpt><trkpt lat="42.1178317" lon="-7.9682617"><ele>852.4</ele><time>2026-04-04T08:13:30.823Z</time></trkpt><trkpt lat="42.117745" lon="-7.968325"><ele>853.0</ele><time>2026-04-04T08:13:31.823Z</time></trkpt><trkpt lat="42.117655" lon="-7.9683667"><ele>852.9999999999999</ele><time>2026-04-04T08:13:32.826Z</time></trkpt><trkpt lat="42.1175683" lon="-7.9683883"><ele>853.0</ele><time>2026-04-04T08:13:33.822Z</time></trkpt><trkpt lat="42.1174883" lon="-7.9684017"><ele>853.0</ele><time>2026-04-04T08:13:34.823Z</time></trkpt><trkpt lat="42.1174133" lon="-7.968405"><ele>853.0</ele><time>2026-04-04T08:13:35.825Z</time></trkpt><trkpt lat="42.11735" lon="-7.9683733"><ele>852.9999999999999</ele><time>2026-04-04T08:13:36.823Z</time></trkpt><trkpt lat="42.1172883" lon="-7.9683167"><ele>853.0</ele><time>2026-04-04T08:13:37.823Z</time></trkpt><trkpt lat="42.1172317" lon="-7.968235"><ele>853.0</ele><time>2026-04-04T08:13:38.823Z</time></trkpt><trkpt lat="42.1171783" lon="-7.9681383"><ele>853.0</ele><time>2026-04-04T08:13:39.823Z</time></trkpt><trkpt lat="42.1171333" lon="-7.9680283"><ele>853.0</ele><time>2026-04-04T08:13:40.822Z</time></trkpt><trkpt lat="42.117085" lon="-7.9679317"><ele>853.0</ele><time>2026-04-04T08:13:41.823Z</time></trkpt><trkpt lat="42.1170333" lon="-7.9678233"><ele>853.0</ele><time>2026-04-04T08:13:42.823Z</time></trkpt><trkpt lat="42.1169783" lon="-7.96773"><ele>852.9999999999999</ele><time>2026-04-04T08:13:43.823Z</time></trkpt><trkpt lat="42.11692" lon="-7.9676567"><ele>853.0</ele><time>2026-04-04T08:13:44.823Z</time></trkpt><trkpt lat="42.116865" lon="-7.9675917"><ele>853.0</ele><time>2026-04-04T08:13:45.823Z</time></trkpt><trkpt lat="42.1168017" lon="-7.9675467"><ele>853.0</ele><time>2026-04-04T08:13:46.826Z</time></trkpt><trkpt lat="42.1167283" lon="-7.9675083"><ele>852.9999999999999</ele><time>2026-04-04T08:13:47.823Z</time></trkpt><trkpt lat="42.1166467" lon="-7.9674733"><ele>853.0</ele><time>2026-04-04T08:13:48.824Z</time></trkpt><trkpt lat="42.11656" lon="-7.967445"><ele>851.6666666666666</ele><time>2026-04-04T08:13:49.823Z</time></trkpt><trkpt lat="42.1164667" lon="-7.9674317"><ele>850.3333333333333</ele><time>2026-04-04T08:13:50.824Z</time></trkpt><trkpt lat="42.1163783" lon="-7.9674367"><ele>849.0</ele><time>2026-04-04T08:13:51.824Z</time></trkpt><trkpt lat="42.1162933" lon="-7.967445"><ele>847.6666666666667</ele><time>2026-04-04T08:13:52.823Z</time></trkpt><trkpt lat="42.1162167" lon="-7.9674533"><ele>846.3333333333334</ele><time>2026-04-04T08:13:53.823Z</time></trkpt><trkpt lat="42.11615" lon="-7.96748"><ele>845.0</ele><time>2026-04-04T08:13:54.823Z</time></trkpt><trkpt lat="42.1160783" lon="-7.9675317"><ele>845.0</ele><time>2026-04-04T08:13:55.824Z</time></trkpt><trkpt lat="42.1160067" lon="-7.9675983"><ele>845.0</ele><time>2026-04-04T08:13:56.823Z</time></trkpt><trkpt lat="42.1159267" lon="-7.9676667"><ele>845.0</ele><time>2026-04-04T08:13:57.825Z</time></trkpt><trkpt lat="42.1158333" lon="-7.9677233"><ele>845.0</ele><time>2026-04-04T08:13:58.826Z</time></trkpt><trkpt lat="42.11573" lon="-7.9677833"><ele>845.0</ele><time>2026-04-04T08:13:59.822Z</time></trkpt><trkpt lat="42.1156233" lon="-7.967855"><ele>843.4</ele><time>2026-04-04T08:14:00.824Z</time></trkpt><trkpt lat="42.115525" lon="-7.9679367"><ele>841.8</ele><time>2026-04-04T08:14:01.826Z</time></trkpt><trkpt lat="42.1154417" lon="-7.9680083"><ele>840.2</ele><time>2026-04-04T08:14:02.823Z</time></trkpt><trkpt lat="42.1153667" lon="-7.9680867"><ele>838.6</ele><time>2026-04-04T08:14:03.822Z</time></trkpt><trkpt lat="42.11529" lon="-7.968175"><ele>837.0</ele><time>2026-04-04T08:14:04.824Z</time></trkpt><trkpt lat="42.1152183" lon="-7.9682733"><ele>838.2</ele><time>2026-04-04T08:14:05.823Z</time></trkpt><trkpt lat="42.11516" lon="-7.96838"><ele>839.4000000000001</ele><time>2026-04-04T08:14:06.823Z</time></trkpt><trkpt lat="42.1151117" lon="-7.9684917"><ele>840.5999999999999</ele><time>2026-04-04T08:14:07.824Z</time></trkpt><trkpt lat="42.1150733" lon="-7.9686133"><ele>841.8</ele><time>2026-04-04T08:14:08.823Z</time></trkpt><trkpt lat="42.11504" lon="-7.968735"><ele>843.0</ele><time>2026-04-04T08:14:09.822Z</time></trkpt><trkpt lat="42.115015" lon="-7.9688517"><ele>843.0</ele><time>2026-04-04T08:14:10.823Z</time></trkpt><trkpt lat="42.1149883" lon="-7.9689633"><ele>843.0</ele><time>2026-04-04T08:14:11.823Z</time></trkpt><trkpt lat="42.11497" lon="-7.9690767"><ele>843.0</ele><time>2026-04-04T08:14:12.823Z</time></trkpt><trkpt lat="42.1149467" lon="-7.9691967"><ele>843.0</ele><time>2026-04-04T08:14:13.823Z</time></trkpt><trkpt lat="42.11492" lon="-7.9693183"><ele>843.0</ele><time>2026-04-04T08:14:14.823Z</time></trkpt><trkpt lat="42.1148883" lon="-7.96943"><ele>843.0</ele><time>2026-04-04T08:14:15.823Z</time></trkpt><trkpt lat="42.11485" lon="-7.9695317"><ele>843.1666666666666</ele><time>2026-04-04T08:14:16.823Z</time></trkpt><trkpt lat="42.1147917" lon="-7.9696167"><ele>843.3333333333333</ele><time>2026-04-04T08:14:17.823Z</time></trkpt><trkpt lat="42.1147183" lon="-7.96969"><ele>843.5</ele><time>2026-04-04T08:14:18.822Z</time></trkpt><trkpt lat="42.114655" lon="-7.96975"><ele>843.6666666666666</ele><time>2026-04-04T08:14:19.823Z</time></trkpt><trkpt lat="42.114605" lon="-7.9698033"><ele>843.8333333333333</ele><time>2026-04-04T08:14:20.823Z</time></trkpt><trkpt lat="42.11456" lon="-7.9699167"><ele>844.0</ele><time>2026-04-04T08:14:22.823Z</time></trkpt><trkpt lat="42.1145583" lon="-7.9700917"><ele>845.1666666666666</ele><time>2026-04-04T08:14:24.822Z</time></trkpt><trkpt lat="42.1145583" lon="-7.9701867"><ele>846.3333333333333</ele><time>2026-04-04T08:14:25.823Z</time></trkpt><trkpt lat="42.1145533" lon="-7.9702783"><ele>847.5</ele><time>2026-04-04T08:14:26.825Z</time></trkpt><trkpt lat="42.11454" lon="-7.970365"><ele>848.6666666666667</ele><time>2026-04-04T08:14:27.822Z</time></trkpt><trkpt lat="42.114535" lon="-7.9704567"><ele>849.8333333333334</ele><time>2026-04-04T08:14:28.823Z</time></trkpt><trkpt lat="42.1145567" lon="-7.9706267"><ele>851.0</ele><time>2026-04-04T08:14:30.822Z</time></trkpt><trkpt lat="42.1145917" lon="-7.9707217"><ele>851.0</ele><time>2026-04-04T08:14:31.824Z</time></trkpt><trkpt lat="42.1146483" lon="-7.970845"><ele>851.0</ele><time>2026-04-04T08:14:32.823Z</time></trkpt><trkpt lat="42.1147033" lon="-7.9709617"><ele>851.0</ele><time>2026-04-04T08:14:33.823Z</time></trkpt><trkpt lat="42.1147617" lon="-7.9710767"><ele>851.0</ele><time>2026-04-04T08:14:34.823Z</time></trkpt><trkpt lat="42.1148317" lon="-7.9711733"><ele>851.0</ele><time>2026-04-04T08:14:35.824Z</time></trkpt><trkpt lat="42.11492" lon="-7.9712583"><ele>854.3333333333334</ele><time>2026-04-04T08:14:36.823Z</time></trkpt><trkpt lat="42.1150483" lon="-7.971335"><ele>857.6666666666667</ele><time>2026-04-04T08:14:37.823Z</time></trkpt><trkpt lat="42.1151983" lon="-7.97143"><ele>861.0</ele><time>2026-04-04T08:14:38.823Z</time></trkpt><trkpt lat="42.11535" lon="-7.97153"><ele>861.0</ele><time>2026-04-04T08:14:39.822Z</time></trkpt><trkpt lat="42.1154817" lon="-7.9716167"><ele>861.0</ele><time>2026-04-04T08:14:40.823Z</time></trkpt><trkpt lat="42.1155967" lon="-7.9716933"><ele>861.0</ele><time>2026-04-04T08:14:41.823Z</time></trkpt><trkpt lat="42.115695" lon="-7.97177"><ele>861.0</ele><time>2026-04-04T08:14:42.822Z</time></trkpt><trkpt lat="42.1157717" lon="-7.9718417"><ele>863.0</ele><time>2026-04-04T08:14:43.823Z</time></trkpt><trkpt lat="42.115825" lon="-7.9719067"><ele>864.9999999999999</ele><time>2026-04-04T08:14:44.823Z</time></trkpt><trkpt lat="42.1158367" lon="-7.97207"><ele>866.9999999999999</ele><time>2026-04-04T08:14:46.822Z</time></trkpt><trkpt lat="42.1158283" lon="-7.9722133"><ele>869.0</ele><time>2026-04-04T08:14:48.825Z</time></trkpt><trkpt lat="42.11576" lon="-7.9722783"><ele>871.0</ele><time>2026-04-04T08:14:49.825Z</time></trkpt><trkpt lat="42.1156933" lon="-7.9723467"><ele>871.0</ele><time>2026-04-04T08:14:50.823Z</time></trkpt><trkpt lat="42.1156167" lon="-7.97242"><ele>871.0</ele><time>2026-04-04T08:14:51.825Z</time></trkpt><trkpt lat="42.115515" lon="-7.9725017"><ele>871.0</ele><time>2026-04-04T08:14:52.824Z</time></trkpt><trkpt lat="42.115405" lon="-7.9726083"><ele>871.0</ele><time>2026-04-04T08:14:53.823Z</time></trkpt><trkpt lat="42.11525" lon="-7.9727383"><ele>874.0</ele><time>2026-04-04T08:14:54.823Z</time></trkpt><trkpt lat="42.1150883" lon="-7.97286"><ele>877.0</ele><time>2026-04-04T08:14:55.823Z</time></trkpt><trkpt lat="42.1149633" lon="-7.9729817"><ele>880.0</ele><time>2026-04-04T08:14:56.823Z</time></trkpt><trkpt lat="42.114865" lon="-7.9730967"><ele>880.75</ele><time>2026-04-04T08:14:57.823Z</time></trkpt><trkpt lat="42.11477" lon="-7.9732233"><ele>881.5</ele><time>2026-04-04T08:14:58.823Z</time></trkpt><trkpt lat="42.114705" lon="-7.9733483"><ele>882.25</ele><time>2026-04-04T08:14:59.823Z</time></trkpt><trkpt lat="42.11466" lon="-7.97348"><ele>883.0</ele><time>2026-04-04T08:15:00.824Z</time></trkpt><trkpt lat="42.11463" lon="-7.9736333"><ele>883.3333333333333</ele><time>2026-04-04T08:15:01.823Z</time></trkpt><trkpt lat="42.1146133" lon="-7.9738333"><ele>883.6666666666667</ele><time>2026-04-04T08:15:02.823Z</time></trkpt><trkpt lat="42.1146" lon="-7.97406"><ele>884.0</ele><time>2026-04-04T08:15:03.824Z</time></trkpt><trkpt lat="42.1145617" lon="-7.9743017"><ele>884.6666666666667</ele><time>2026-04-04T08:15:04.823Z</time></trkpt><trkpt lat="42.1145033" lon="-7.97453"><ele>885.3333333333333</ele><time>2026-04-04T08:15:05.824Z</time></trkpt><trkpt lat="42.11445" lon="-7.974745"><ele>886.0</ele><time>2026-04-04T08:15:06.823Z</time></trkpt><trkpt lat="42.1143883" lon="-7.97495"><ele>885.0</ele><time>2026-04-04T08:15:07.824Z</time></trkpt><trkpt lat="42.1143083" lon="-7.9751683"><ele>884.0</ele><time>2026-04-04T08:15:08.825Z</time></trkpt><trkpt lat="42.1142317" lon="-7.9753933"><ele>883.0</ele><time>2026-04-04T08:15:09.823Z</time></trkpt><trkpt lat="42.114145" lon="-7.97562"><ele>886.3333333333333</ele><time>2026-04-04T08:15:10.823Z</time></trkpt><trkpt lat="42.1140617" lon="-7.9758317"><ele>889.6666666666667</ele><time>2026-04-04T08:15:11.823Z</time></trkpt><trkpt lat="42.1139833" lon="-7.9760267"><ele>893.0</ele><time>2026-04-04T08:15:12.824Z</time></trkpt><trkpt lat="42.1139117" lon="-7.9761983"><ele>893.0</ele><time>2026-04-04T08:15:13.824Z</time></trkpt><trkpt lat="42.1138483" lon="-7.9763467"><ele>893.0</ele><time>2026-04-04T08:15:14.823Z</time></trkpt><trkpt lat="42.1137917" lon="-7.976485"><ele>893.0</ele><time>2026-04-04T08:15:15.824Z</time></trkpt><trkpt lat="42.1137283" lon="-7.976615"><ele>893.0</ele><time>2026-04-04T08:15:16.823Z</time></trkpt><trkpt lat="42.1136533" lon="-7.9767383"><ele>892.8</ele><time>2026-04-04T08:15:17.824Z</time></trkpt><trkpt lat="42.11358" lon="-7.9768517"><ele>892.5999999999999</ele><time>2026-04-04T08:15:18.823Z</time></trkpt><trkpt lat="42.1135033" lon="-7.9769483"><ele>892.4000000000001</ele><time>2026-04-04T08:15:19.823Z</time></trkpt><trkpt lat="42.1134267" lon="-7.9770367"><ele>892.2</ele><time>2026-04-04T08:15:20.824Z</time></trkpt><trkpt lat="42.1133433" lon="-7.9771233"><ele>892.0</ele><time>2026-04-04T08:15:21.825Z</time></trkpt><trkpt lat="42.1132633" lon="-7.97721"><ele>892.75</ele><time>2026-04-04T08:15:22.823Z</time></trkpt><trkpt lat="42.11317" lon="-7.97729"><ele>893.5</ele><time>2026-04-04T08:15:23.824Z</time></trkpt><trkpt lat="42.1130667" lon="-7.9773667"><ele>894.25</ele><time>2026-04-04T08:15:24.823Z</time></trkpt><trkpt lat="42.1129417" lon="-7.977445"><ele>895.0</ele><time>2026-04-04T08:15:25.824Z</time></trkpt><trkpt lat="42.1128217" lon="-7.97752"><ele>895.0</ele><time>2026-04-04T08:15:26.824Z</time></trkpt><trkpt lat="42.1127" lon="-7.9775967"><ele>895.0</ele><time>2026-04-04T08:15:27.824Z</time></trkpt><trkpt lat="42.11258" lon="-7.9776717"><ele>895.0</ele><time>2026-04-04T08:15:28.823Z</time></trkpt><trkpt lat="42.1124467" lon="-7.9777333"><ele>895.0</ele><time>2026-04-04T08:15:29.827Z</time></trkpt><trkpt lat="42.112295" lon="-7.97777"><ele>895.0</ele><time>2026-04-04T08:15:30.823Z</time></trkpt><trkpt lat="42.1121583" lon="-7.977795"><ele>895.0</ele><time>2026-04-04T08:15:31.823Z</time></trkpt><trkpt lat="42.1120333" lon="-7.9778017"><ele>895.0</ele><time>2026-04-04T08:15:32.823Z</time></trkpt><trkpt lat="42.1119" lon="-7.977785"><ele>895.0</ele><time>2026-04-04T08:15:33.824Z</time></trkpt><trkpt lat="42.1117683" lon="-7.9777567"><ele>895.0</ele><time>2026-04-04T08:15:34.823Z</time></trkpt><trkpt lat="42.11164" lon="-7.97773"><ele>895.0</ele><time>2026-04-04T08:15:35.823Z</time></trkpt><trkpt lat="42.1115317" lon="-7.977705"><ele>895.0</ele><time>2026-04-04T08:15:36.823Z</time></trkpt><trkpt lat="42.11144" lon="-7.97773"><ele>895.0</ele><time>2026-04-04T08:15:38.823Z</time></trkpt><trkpt lat="42.1113833" lon="-7.97787"><ele>895.0</ele><time>2026-04-04T08:15:40.824Z</time></trkpt><trkpt lat="42.1113717" lon="-7.9780017"><ele>895.0</ele><time>2026-04-04T08:15:41.823Z</time></trkpt><trkpt lat="42.111345" lon="-7.9781333"><ele>895.0</ele><time>2026-04-04T08:15:42.822Z</time></trkpt><trkpt lat="42.1112967" lon="-7.9782967"><ele>895.0</ele><time>2026-04-04T08:15:43.823Z</time></trkpt><trkpt lat="42.1112317" lon="-7.978465"><ele>895.0</ele><time>2026-04-04T08:15:44.823Z</time></trkpt><trkpt lat="42.1111617" lon="-7.9786133"><ele>895.0</ele><time>2026-04-04T08:15:45.823Z</time></trkpt><trkpt lat="42.1110867" lon="-7.9787417"><ele>895.0</ele><time>2026-04-04T08:15:46.823Z</time></trkpt><trkpt lat="42.11101" lon="-7.97884"><ele>895.0</ele><time>2026-04-04T08:15:47.823Z</time></trkpt><trkpt lat="42.11093" lon="-7.9789317"><ele>894.9999999999999</ele><time>2026-04-04T08:15:48.823Z</time></trkpt><trkpt lat="42.110855" lon="-7.9790033"><ele>895.0</ele><time>2026-04-04T08:15:49.823Z</time></trkpt><trkpt lat="42.11079" lon="-7.9790833"><ele>895.0</ele><time>2026-04-04T08:15:50.824Z</time></trkpt><trkpt lat="42.1107417" lon="-7.979165"><ele>895.0</ele><time>2026-04-04T08:15:51.823Z</time></trkpt><trkpt lat="42.1107067" lon="-7.979255"><ele>894.9999999999999</ele><time>2026-04-04T08:15:52.822Z</time></trkpt><trkpt lat="42.11069" lon="-7.9793383"><ele>895.0</ele><time>2026-04-04T08:15:53.823Z</time></trkpt><trkpt lat="42.110665" lon="-7.9794733"><ele>896.2</ele><time>2026-04-04T08:15:55.822Z</time></trkpt><trkpt lat="42.1106317" lon="-7.9796067"><ele>897.4</ele><time>2026-04-04T08:15:57.823Z</time></trkpt><trkpt lat="42.1105817" lon="-7.9797217"><ele>898.5999999999999</ele><time>2026-04-04T08:15:59.823Z</time></trkpt><trkpt lat="42.11051" lon="-7.9798033"><ele>899.8</ele><time>2026-04-04T08:16:01.823Z</time></trkpt><trkpt lat="42.1104" lon="-7.9798417"><ele>901.0</ele><time>2026-04-04T08:16:03.823Z</time></trkpt><trkpt lat="42.1103267" lon="-7.979885"><ele>900.9999999999999</ele><time>2026-04-04T08:16:05.823Z</time></trkpt><trkpt lat="42.1102633" lon="-7.97999"><ele>901.0</ele><time>2026-04-04T08:16:08.823Z</time></trkpt><trkpt lat="42.1102367" lon="-7.9801"><ele>901.0</ele><time>2026-04-04T08:16:10.824Z</time></trkpt><trkpt lat="42.1102133" lon="-7.98022"><ele>901.0</ele><time>2026-04-04T08:16:12.824Z</time></trkpt><trkpt lat="42.110185" lon="-7.9803383"><ele>900.9999999999999</ele><time>2026-04-04T08:16:14.824Z</time></trkpt><trkpt lat="42.1101517" lon="-7.9804283"><ele>901.0</ele><time>2026-04-04T08:16:16.823Z</time></trkpt><trkpt lat="42.1100517" lon="-7.9804783"><ele>902.5999999999999</ele><time>2026-04-04T08:16:19.824Z</time></trkpt><trkpt lat="42.1099117" lon="-7.9805067"><ele>904.1999999999999</ele><time>2026-04-04T08:16:21.824Z</time></trkpt><trkpt lat="42.109825" lon="-7.98053"><ele>905.8000000000001</ele><time>2026-04-04T08:16:22.823Z</time></trkpt><trkpt lat="42.1097333" lon="-7.9805517"><ele>907.4000000000001</ele><time>2026-04-04T08:16:23.824Z</time></trkpt><trkpt lat="42.1096333" lon="-7.9805717"><ele>909.0</ele><time>2026-04-04T08:16:24.823Z</time></trkpt><trkpt lat="42.1095483" lon="-7.9805983"><ele>910.4000000000001</ele><time>2026-04-04T08:16:25.824Z</time></trkpt><trkpt lat="42.10947" lon="-7.980625"><ele>911.8000000000001</ele><time>2026-04-04T08:16:26.823Z</time></trkpt><trkpt lat="42.10938" lon="-7.98065"><ele>913.1999999999999</ele><time>2026-04-04T08:16:27.824Z</time></trkpt><trkpt lat="42.1092917" lon="-7.9806883"><ele>914.5999999999999</ele><time>2026-04-04T08:16:28.824Z</time></trkpt><trkpt lat="42.1091933" lon="-7.980735"><ele>916.0</ele><time>2026-04-04T08:16:29.823Z</time></trkpt><trkpt lat="42.1090983" lon="-7.9807817"><ele>916.4999999999999</ele><time>2026-04-04T08:16:30.823Z</time></trkpt><trkpt lat="42.1090217" lon="-7.980825"><ele>917.0</ele><time>2026-04-04T08:16:31.823Z</time></trkpt><trkpt lat="42.1089517" lon="-7.98087"><ele>917.5</ele><time>2026-04-04T08:16:32.823Z</time></trkpt><trkpt lat="42.1088567" lon="-7.98096"><ele>918.0</ele><time>2026-04-04T08:16:34.823Z</time></trkpt><trkpt lat="42.1088067" lon="-7.981035"><ele>918.4999999999999</ele><time>2026-04-04T08:16:36.824Z</time></trkpt><trkpt lat="42.108795" lon="-7.981155"><ele>919.0</ele><time>2026-04-04T08:16:39.823Z</time></trkpt><trkpt lat="42.1087433" lon="-7.9812483"><ele>919.8333333333333</ele><time>2026-04-04T08:16:42.823Z</time></trkpt><trkpt lat="42.1086667" lon="-7.981335"><ele>920.6666666666666</ele><time>2026-04-04T08:16:44.824Z</time></trkpt><trkpt lat="42.1085683" lon="-7.98145"><ele>921.5</ele><time>2026-04-04T08:16:46.823Z</time></trkpt><trkpt lat="42.1085167" lon="-7.9815117"><ele>922.3333333333333</ele><time>2026-04-04T08:16:47.823Z</time></trkpt><trkpt lat="42.10847" lon="-7.9815883"><ele>923.1666666666666</ele><time>2026-04-04T08:16:48.824Z</time></trkpt><trkpt lat="42.10842" lon="-7.98166"><ele>924.0</ele><time>2026-04-04T08:16:49.823Z</time></trkpt><trkpt lat="42.108375" lon="-7.9817217"><ele>924.8333333333334</ele><time>2026-04-04T08:16:50.823Z</time></trkpt><trkpt lat="42.108325" lon="-7.9817733"><ele>925.6666666666667</ele><time>2026-04-04T08:16:51.823Z</time></trkpt><trkpt lat="42.1082217" lon="-7.981865"><ele>926.5</ele><time>2026-04-04T08:16:53.824Z</time></trkpt><trkpt lat="42.10816" lon="-7.9819083"><ele>927.3333333333334</ele><time>2026-04-04T08:16:54.823Z</time></trkpt><trkpt lat="42.108095" lon="-7.9819583"><ele>928.1666666666667</ele><time>2026-04-04T08:16:55.823Z</time></trkpt><trkpt lat="42.10802" lon="-7.9820017"><ele>929.0</ele><time>2026-04-04T08:16:56.823Z</time></trkpt><trkpt lat="42.1079417" lon="-7.9820367"><ele>929.6666666666667</ele><time>2026-04-04T08:16:57.823Z</time></trkpt><trkpt lat="42.10787" lon="-7.9820583"><ele>930.3333333333334</ele><time>2026-04-04T08:16:58.822Z</time></trkpt><trkpt lat="42.1078067" lon="-7.98207"><ele>931.0</ele><time>2026-04-04T08:16:59.823Z</time></trkpt><trkpt lat="42.10772" lon="-7.982075"><ele>931.6666666666667</ele><time>2026-04-04T08:17:01.825Z</time></trkpt><trkpt lat="42.1076217" lon="-7.9820517"><ele>932.3333333333334</ele><time>2026-04-04T08:17:03.824Z</time></trkpt><trkpt lat="42.107525" lon="-7.98203"><ele>933.0</ele><time>2026-04-04T08:17:05.826Z</time></trkpt><trkpt lat="42.1074383" lon="-7.98208"><ele>933.0</ele><time>2026-04-04T08:17:07.823Z</time></trkpt><trkpt lat="42.107385" lon="-7.9821267"><ele>933.0</ele><time>2026-04-04T08:17:08.823Z</time></trkpt><trkpt lat="42.1073233" lon="-7.9821783"><ele>933.0</ele><time>2026-04-04T08:17:09.823Z</time></trkpt><trkpt lat="42.1072483" lon="-7.982225"><ele>933.0</ele><time>2026-04-04T08:17:10.823Z</time></trkpt><trkpt lat="42.1071667" lon="-7.98227"><ele>933.0</ele><time>2026-04-04T08:17:11.824Z</time></trkpt><trkpt lat="42.1070817" lon="-7.98232"><ele>933.0</ele><time>2026-04-04T08:17:12.823Z</time></trkpt><trkpt lat="42.10699" lon="-7.982375"><ele>933.0</ele><time>2026-04-04T08:17:13.824Z</time></trkpt><trkpt lat="42.1068933" lon="-7.9824317"><ele>933.0</ele><time>2026-04-04T08:17:14.825Z</time></trkpt><trkpt lat="42.1067967" lon="-7.9824917"><ele>933.0</ele><time>2026-04-04T08:17:15.824Z</time></trkpt><trkpt lat="42.1067" lon="-7.9825517"><ele>933.0</ele><time>2026-04-04T08:17:16.824Z</time></trkpt><trkpt lat="42.1066017" lon="-7.98261"><ele>933.0</ele><time>2026-04-04T08:17:17.824Z</time></trkpt><trkpt lat="42.1065017" lon="-7.9826667"><ele>934.2</ele><time>2026-04-04T08:17:18.826Z</time></trkpt><trkpt lat="42.1064067" lon="-7.98272"><ele>935.4</ele><time>2026-04-04T08:17:19.824Z</time></trkpt><trkpt lat="42.1063183" lon="-7.982765"><ele>936.6000000000001</ele><time>2026-04-04T08:17:20.825Z</time></trkpt><trkpt lat="42.1062433" lon="-7.9828017"><ele>937.8000000000001</ele><time>2026-04-04T08:17:21.825Z</time></trkpt><trkpt lat="42.106135" lon="-7.9828433"><ele>939.0</ele><time>2026-04-04T08:17:23.824Z</time></trkpt><trkpt lat="42.10603" lon="-7.9828917"><ele>939.0</ele><time>2026-04-04T08:17:25.824Z</time></trkpt><trkpt lat="42.1059117" lon="-7.9829733"><ele>939.0</ele><time>2026-04-04T08:17:27.824Z</time></trkpt><trkpt lat="42.1058533" lon="-7.9830183"><ele>939.0</ele><time>2026-04-04T08:17:28.825Z</time></trkpt><trkpt lat="42.1057883" lon="-7.9830583"><ele>939.0</ele><time>2026-04-04T08:17:29.825Z</time></trkpt><trkpt lat="42.10572" lon="-7.983095"><ele>939.0</ele><time>2026-04-04T08:17:30.824Z</time></trkpt><trkpt lat="42.1056483" lon="-7.9831333"><ele>939.0</ele><time>2026-04-04T08:17:31.824Z</time></trkpt><trkpt lat="42.1055733" lon="-7.9831667"><ele>939.0</ele><time>2026-04-04T08:17:32.826Z</time></trkpt><trkpt lat="42.1055067" lon="-7.9832017"><ele>939.0</ele><time>2026-04-04T08:17:33.825Z</time></trkpt><trkpt lat="42.1054433" lon="-7.9832167"><ele>939.0</ele><time>2026-04-04T08:17:34.826Z</time></trkpt><trkpt lat="42.1053283" lon="-7.9832683"><ele>939.0</ele><time>2026-04-04T08:17:36.824Z</time></trkpt><trkpt lat="42.1052317" lon="-7.9833183"><ele>939.0</ele><time>2026-04-04T08:17:38.825Z</time></trkpt><trkpt lat="42.10517" lon="-7.98336"><ele>939.0</ele><time>2026-04-04T08:17:40.823Z</time></trkpt><trkpt lat="42.1051033" lon="-7.9834017"><ele>938.8000000000001</ele><time>2026-04-04T08:17:44.825Z</time></trkpt><trkpt lat="42.10503" lon="-7.9834483"><ele>938.6000000000001</ele><time>2026-04-04T08:17:48.825Z</time></trkpt><trkpt lat="42.1049317" lon="-7.9835"><ele>938.4</ele><time>2026-04-04T08:17:50.824Z</time></trkpt><trkpt lat="42.1048633" lon="-7.9835467"><ele>938.2</ele><time>2026-04-04T08:17:51.825Z</time></trkpt><trkpt lat="42.10478" lon="-7.9836033"><ele>938.0</ele><time>2026-04-04T08:17:52.824Z</time></trkpt><trkpt lat="42.1046717" lon="-7.983665"><ele>938.0</ele><time>2026-04-04T08:17:53.825Z</time></trkpt><trkpt lat="42.1045583" lon="-7.9837317"><ele>938.0</ele><time>2026-04-04T08:17:54.824Z</time></trkpt><trkpt lat="42.1044467" lon="-7.98379"><ele>938.0</ele><time>2026-04-04T08:17:55.824Z</time></trkpt><trkpt lat="42.10433" lon="-7.9838467"><ele>938.0</ele><time>2026-04-04T08:17:56.825Z</time></trkpt><trkpt lat="42.1042183" lon="-7.9838983"><ele>938.0</ele><time>2026-04-04T08:17:57.824Z</time></trkpt><trkpt lat="42.1041033" lon="-7.9839467"><ele>938.0</ele><time>2026-04-04T08:17:58.825Z</time></trkpt><trkpt lat="42.1039883" lon="-7.983995"><ele>938.0</ele><time>2026-04-04T08:17:59.824Z</time></trkpt><trkpt lat="42.1038683" lon="-7.98404"><ele>938.0</ele><time>2026-04-04T08:18:00.824Z</time></trkpt><trkpt lat="42.1037517" lon="-7.984085"><ele>938.75</ele><time>2026-04-04T08:18:01.826Z</time></trkpt><trkpt lat="42.1036317" lon="-7.9841283"><ele>939.5</ele><time>2026-04-04T08:18:02.825Z</time></trkpt><trkpt lat="42.1035083" lon="-7.9841717"><ele>940.25</ele><time>2026-04-04T08:18:03.824Z</time></trkpt><trkpt lat="42.1033867" lon="-7.984215"><ele>941.0</ele><time>2026-04-04T08:18:04.825Z</time></trkpt><trkpt lat="42.1032667" lon="-7.984265"><ele>941.75</ele><time>2026-04-04T08:18:05.825Z</time></trkpt><trkpt lat="42.1031467" lon="-7.98432"><ele>942.5</ele><time>2026-04-04T08:18:06.826Z</time></trkpt><trkpt lat="42.1030317" lon="-7.9843917"><ele>943.25</ele><time>2026-04-04T08:18:07.826Z</time></trkpt><trkpt lat="42.1029183" lon="-7.9844717"><ele>944.0</ele><time>2026-04-04T08:18:08.825Z</time></trkpt><trkpt lat="42.102805" lon="-7.9845533"><ele>944.0</ele><time>2026-04-04T08:18:09.824Z</time></trkpt><trkpt lat="42.102695" lon="-7.984635"><ele>944.0</ele><time>2026-04-04T08:18:10.825Z</time></trkpt><trkpt lat="42.102585" lon="-7.9847167"><ele>944.0</ele><time>2026-04-04T08:18:11.824Z</time></trkpt><trkpt lat="42.1024767" lon="-7.984805"><ele>944.0</ele><time>2026-04-04T08:18:12.824Z</time></trkpt><trkpt lat="42.1023733" lon="-7.9849017"><ele>944.75</ele><time>2026-04-04T08:18:13.824Z</time></trkpt><trkpt lat="42.1022767" lon="-7.9850083"><ele>945.5</ele><time>2026-04-04T08:18:14.824Z</time></trkpt><trkpt lat="42.102185" lon="-7.9851267"><ele>946.25</ele><time>2026-04-04T08:18:15.824Z</time></trkpt><trkpt lat="42.1020967" lon="-7.9852533"><ele>947.0</ele><time>2026-04-04T08:18:16.825Z</time></trkpt><trkpt lat="42.1020133" lon="-7.985385"><ele>947.0</ele><time>2026-04-04T08:18:17.825Z</time></trkpt><trkpt lat="42.1019233" lon="-7.9855233"><ele>947.0</ele><time>2026-04-04T08:18:18.827Z</time></trkpt><trkpt lat="42.1018317" lon="-7.9856567"><ele>947.0</ele><time>2026-04-04T08:18:19.826Z</time></trkpt><trkpt lat="42.1017383" lon="-7.985795"><ele>947.0</ele><time>2026-04-04T08:18:20.825Z</time></trkpt><trkpt lat="42.101645" lon="-7.9859383"><ele>948.75</ele><time>2026-04-04T08:18:21.824Z</time></trkpt><trkpt lat="42.1015533" lon="-7.9860783"><ele>950.5</ele><time>2026-04-04T08:18:22.826Z</time></trkpt><trkpt lat="42.1014583" lon="-7.986215"><ele>952.25</ele><time>2026-04-04T08:18:23.824Z</time></trkpt><trkpt lat="42.1013733" lon="-7.9863467"><ele>954.0</ele><time>2026-04-04T08:18:24.824Z</time></trkpt><trkpt lat="42.101275" lon="-7.9864767"><ele>954.0</ele><time>2026-04-04T08:18:25.826Z</time></trkpt><trkpt lat="42.1011767" lon="-7.986605"><ele>954.0</ele><time>2026-04-04T08:18:26.824Z</time></trkpt><trkpt lat="42.1010783" lon="-7.98673"><ele>954.0</ele><time>2026-04-04T08:18:27.825Z</time></trkpt><trkpt lat="42.1009767" lon="-7.9868517"><ele>954.0</ele><time>2026-04-04T08:18:28.824Z</time></trkpt><trkpt lat="42.100875" lon="-7.9869617"><ele>953.75</ele><time>2026-04-04T08:18:29.824Z</time></trkpt><trkpt lat="42.100765" lon="-7.987055"><ele>953.5</ele><time>2026-04-04T08:18:30.825Z</time></trkpt><trkpt lat="42.1006483" lon="-7.9871317"><ele>953.25</ele><time>2026-04-04T08:18:31.824Z</time></trkpt><trkpt lat="42.100535" lon="-7.9871917"><ele>953.0</ele><time>2026-04-04T08:18:32.824Z</time></trkpt><trkpt lat="42.1004117" lon="-7.987225"><ele>954.0</ele><time>2026-04-04T08:18:33.825Z</time></trkpt><trkpt lat="42.1002933" lon="-7.98724"><ele>955.0</ele><time>2026-04-04T08:18:34.824Z</time></trkpt><trkpt lat="42.1001767" lon="-7.9872317"><ele>956.0</ele><time>2026-04-04T08:18:35.824Z</time></trkpt><trkpt lat="42.10006" lon="-7.9872067"><ele>957.0</ele><time>2026-04-04T08:18:36.826Z</time></trkpt><trkpt lat="42.099945" lon="-7.9871733"><ele>957.6</ele><time>2026-04-04T08:18:37.823Z</time></trkpt><trkpt lat="42.0998383" lon="-7.9871383"><ele>958.2</ele><time>2026-04-04T08:18:38.823Z</time></trkpt><trkpt lat="42.0997317" lon="-7.9871"><ele>958.8</ele><time>2026-04-04T08:18:39.823Z</time></trkpt><trkpt lat="42.0996267" lon="-7.98707"><ele>959.4</ele><time>2026-04-04T08:18:40.823Z</time></trkpt><trkpt lat="42.099515" lon="-7.9870417"><ele>960.0</ele><time>2026-04-04T08:18:41.823Z</time></trkpt><trkpt lat="42.0994017" lon="-7.987035"><ele>960.0</ele><time>2026-04-04T08:18:42.824Z</time></trkpt><trkpt lat="42.0992867" lon="-7.9870417"><ele>960.0</ele><time>2026-04-04T08:18:43.824Z</time></trkpt><trkpt lat="42.0991767" lon="-7.98706"><ele>960.0</ele><time>2026-04-04T08:18:44.827Z</time></trkpt><trkpt lat="42.0990683" lon="-7.9870917"><ele>960.0</ele><time>2026-04-04T08:18:45.824Z</time></trkpt><trkpt lat="42.0989667" lon="-7.9871417"><ele>960.0</ele><time>2026-04-04T08:18:46.826Z</time></trkpt><trkpt lat="42.0988633" lon="-7.9872033"><ele>961.4</ele><time>2026-04-04T08:18:47.826Z</time></trkpt><trkpt lat="42.098765" lon="-7.987275"><ele>962.8</ele><time>2026-04-04T08:18:48.824Z</time></trkpt><trkpt lat="42.0986667" lon="-7.9873533"><ele>964.2</ele><time>2026-04-04T08:18:49.824Z</time></trkpt><trkpt lat="42.098575" lon="-7.9874433"><ele>965.6</ele><time>2026-04-04T08:18:50.825Z</time></trkpt><trkpt lat="42.098495" lon="-7.98754"><ele>967.0</ele><time>2026-04-04T08:18:51.826Z</time></trkpt><trkpt lat="42.098415" lon="-7.9876417"><ele>967.2</ele><time>2026-04-04T08:18:52.824Z</time></trkpt><trkpt lat="42.0983367" lon="-7.9877467"><ele>967.4000000000001</ele><time>2026-04-04T08:18:53.823Z</time></trkpt><trkpt lat="42.0982583" lon="-7.9878617"><ele>967.5999999999999</ele><time>2026-04-04T08:18:54.823Z</time></trkpt><trkpt lat="42.0981917" lon="-7.98797"><ele>967.8</ele><time>2026-04-04T08:18:55.826Z</time></trkpt><trkpt lat="42.0981217" lon="-7.9880833"><ele>968.0</ele><time>2026-04-04T08:18:56.823Z</time></trkpt><trkpt lat="42.098055" lon="-7.9882"><ele>970.25</ele><time>2026-04-04T08:18:57.823Z</time></trkpt><trkpt lat="42.0979833" lon="-7.98832"><ele>972.5</ele><time>2026-04-04T08:18:58.827Z</time></trkpt><trkpt lat="42.0979133" lon="-7.98844"><ele>974.75</ele><time>2026-04-04T08:18:59.823Z</time></trkpt><trkpt lat="42.0978433" lon="-7.988565"><ele>977.0</ele><time>2026-04-04T08:19:00.824Z</time></trkpt><trkpt lat="42.0977683" lon="-7.9886817"><ele>977.25</ele><time>2026-04-04T08:19:01.823Z</time></trkpt><trkpt lat="42.09769" lon="-7.988795"><ele>977.5</ele><time>2026-04-04T08:19:02.825Z</time></trkpt><trkpt lat="42.09761" lon="-7.9889117"><ele>977.75</ele><time>2026-04-04T08:19:03.824Z</time></trkpt><trkpt lat="42.097535" lon="-7.9890283"><ele>978.0</ele><time>2026-04-04T08:19:04.824Z</time></trkpt><trkpt lat="42.09746" lon="-7.9891383"><ele>978.5999999999999</ele><time>2026-04-04T08:19:05.824Z</time></trkpt><trkpt lat="42.0973867" lon="-7.9892367"><ele>979.1999999999999</ele><time>2026-04-04T08:19:06.825Z</time></trkpt><trkpt lat="42.0973033" lon="-7.9893267"><ele>979.8</ele><time>2026-04-04T08:19:07.824Z</time></trkpt><trkpt lat="42.097215" lon="-7.9894033"><ele>980.4</ele><time>2026-04-04T08:19:08.824Z</time></trkpt><trkpt lat="42.0971167" lon="-7.9894533"><ele>981.0</ele><time>2026-04-04T08:19:09.824Z</time></trkpt><trkpt lat="42.0970117" lon="-7.9894767"><ele>981.0</ele><time>2026-04-04T08:19:10.825Z</time></trkpt><trkpt lat="42.096905" lon="-7.9894767"><ele>980.9999999999999</ele><time>2026-04-04T08:19:11.824Z</time></trkpt><trkpt lat="42.096795" lon="-7.98947"><ele>980.9999999999999</ele><time>2026-04-04T08:19:12.824Z</time></trkpt><trkpt lat="42.0966817" lon="-7.98946"><ele>981.0</ele><time>2026-04-04T08:19:13.824Z</time></trkpt><trkpt lat="42.09657" lon="-7.9894467"><ele>981.0</ele><time>2026-04-04T08:19:14.824Z</time></trkpt><trkpt lat="42.0964617" lon="-7.9894467"><ele>982.1999999999999</ele><time>2026-04-04T08:19:15.825Z</time></trkpt><trkpt lat="42.096355" lon="-7.9894617"><ele>983.3999999999999</ele><time>2026-04-04T08:19:16.824Z</time></trkpt><trkpt lat="42.0962517" lon="-7.9894983"><ele>984.6</ele><time>2026-04-04T08:19:17.825Z</time></trkpt><trkpt lat="42.0961517" lon="-7.9895617"><ele>985.8</ele><time>2026-04-04T08:19:18.824Z</time></trkpt><trkpt lat="42.096065" lon="-7.9896367"><ele>987.0</ele><time>2026-04-04T08:19:19.824Z</time></trkpt><trkpt lat="42.095995" lon="-7.9897267"><ele>987.0</ele><time>2026-04-04T08:19:20.825Z</time></trkpt><trkpt lat="42.09594" lon="-7.98984"><ele>987.0</ele><time>2026-04-04T08:19:21.824Z</time></trkpt><trkpt lat="42.0958933" lon="-7.98998"><ele>987.0</ele><time>2026-04-04T08:19:22.825Z</time></trkpt><trkpt lat="42.0958633" lon="-7.9901383"><ele>987.0</ele><time>2026-04-04T08:19:23.825Z</time></trkpt><trkpt lat="42.09587" lon="-7.9903067"><ele>986.4000000000001</ele><time>2026-04-04T08:19:24.824Z</time></trkpt><trkpt lat="42.0958717" lon="-7.99047"><ele>985.8000000000001</ele><time>2026-04-04T08:19:25.825Z</time></trkpt><trkpt lat="42.0958617" lon="-7.990625"><ele>985.2</ele><time>2026-04-04T08:19:26.824Z</time></trkpt><trkpt lat="42.09583" lon="-7.990765"><ele>984.6</ele><time>2026-04-04T08:19:27.824Z</time></trkpt><trkpt lat="42.0957917" lon="-7.9908883"><ele>984.0</ele><time>2026-04-04T08:19:28.824Z</time></trkpt><trkpt lat="42.0957383" lon="-7.991"><ele>984.0</ele><time>2026-04-04T08:19:29.824Z</time></trkpt><trkpt lat="42.0956833" lon="-7.9910917"><ele>984.0000000000001</ele><time>2026-04-04T08:19:30.825Z</time></trkpt><trkpt lat="42.0956083" lon="-7.9911667"><ele>984.0000000000001</ele><time>2026-04-04T08:19:31.827Z</time></trkpt><trkpt lat="42.0955117" lon="-7.991235"><ele>984.0</ele><time>2026-04-04T08:19:32.823Z</time></trkpt><trkpt lat="42.0954017" lon="-7.9913017"><ele>984.0</ele><time>2026-04-04T08:19:33.823Z</time></trkpt><trkpt lat="42.095295" lon="-7.9913733"><ele>984.0</ele><time>2026-04-04T08:19:34.824Z</time></trkpt><trkpt lat="42.0951867" lon="-7.9914483"><ele>984.0</ele><time>2026-04-04T08:19:35.824Z</time></trkpt><trkpt lat="42.0950717" lon="-7.9915217"><ele>984.0</ele><time>2026-04-04T08:19:36.824Z</time></trkpt><trkpt lat="42.0949533" lon="-7.9915917"><ele>984.0</ele><time>2026-04-04T08:19:37.824Z</time></trkpt><trkpt lat="42.09483" lon="-7.9916617"><ele>986.5</ele><time>2026-04-04T08:19:38.827Z</time></trkpt><trkpt lat="42.094705" lon="-7.9917283"><ele>989.0</ele><time>2026-04-04T08:19:39.823Z</time></trkpt><trkpt lat="42.0945817" lon="-7.9917967"><ele>991.5</ele><time>2026-04-04T08:19:40.823Z</time></trkpt><trkpt lat="42.094455" lon="-7.991865"><ele>994.0</ele><time>2026-04-04T08:19:41.825Z</time></trkpt><trkpt lat="42.0943333" lon="-7.991935"><ele>994.0</ele><time>2026-04-04T08:19:42.826Z</time></trkpt><trkpt lat="42.09421" lon="-7.9920117"><ele>994.0</ele><time>2026-04-04T08:19:43.824Z</time></trkpt><trkpt lat="42.0940917" lon="-7.9920917"><ele>994.0</ele><time>2026-04-04T08:19:44.824Z</time></trkpt><trkpt lat="42.09398" lon="-7.9921717"><ele>994.0</ele><time>2026-04-04T08:19:45.826Z</time></trkpt><trkpt lat="42.0938683" lon="-7.9922533"><ele>994.5</ele><time>2026-04-04T08:19:46.823Z</time></trkpt><trkpt lat="42.09376" lon="-7.992335"><ele>995.0</ele><time>2026-04-04T08:19:47.826Z</time></trkpt><trkpt lat="42.0936483" lon="-7.9924183"><ele>995.5</ele><time>2026-04-04T08:19:48.825Z</time></trkpt><trkpt lat="42.0935467" lon="-7.992495"><ele>996.0</ele><time>2026-04-04T08:19:49.824Z</time></trkpt><trkpt lat="42.0934583" lon="-7.99256"><ele>996.0</ele><time>2026-04-04T08:19:50.825Z</time></trkpt><trkpt lat="42.0933883" lon="-7.9926117"><ele>995.9999999999999</ele><time>2026-04-04T08:19:51.824Z</time></trkpt><trkpt lat="42.0932967" lon="-7.9926533"><ele>995.9999999999999</ele><time>2026-04-04T08:19:53.824Z</time></trkpt><trkpt lat="42.0932217" lon="-7.9926"><ele>996.0</ele><time>2026-04-04T08:19:56.825Z</time></trkpt><trkpt lat="42.0931283" lon="-7.9925117"><ele>996.0</ele><time>2026-04-04T08:19:58.825Z</time></trkpt><trkpt lat="42.0930467" lon="-7.9924533"><ele>996.75</ele><time>2026-04-04T08:19:59.826Z</time></trkpt><trkpt lat="42.0929467" lon="-7.992385"><ele>997.5</ele><time>2026-04-04T08:20:00.825Z</time></trkpt><trkpt lat="42.0928467" lon="-7.9923017"><ele>998.25</ele><time>2026-04-04T08:20:01.825Z</time></trkpt><trkpt lat="42.0927533" lon="-7.9922117"><ele>999.0</ele><time>2026-04-04T08:20:02.827Z</time></trkpt><trkpt lat="42.0926617" lon="-7.99212"><ele>999.0</ele><time>2026-04-04T08:20:03.824Z</time></trkpt><trkpt lat="42.0925767" lon="-7.992025"><ele>999.0</ele><time>2026-04-04T08:20:04.824Z</time></trkpt><trkpt lat="42.0924933" lon="-7.9919283"><ele>999.0</ele><time>2026-04-04T08:20:05.825Z</time></trkpt><trkpt lat="42.09241" lon="-7.9918217"><ele>999.0</ele><time>2026-04-04T08:20:06.824Z</time></trkpt><trkpt lat="42.0923317" lon="-7.9917067"><ele>999.6</ele><time>2026-04-04T08:20:07.825Z</time></trkpt><trkpt lat="42.0922633" lon="-7.9915967"><ele>1000.2</ele><time>2026-04-04T08:20:08.825Z</time></trkpt><trkpt lat="42.0922033" lon="-7.9914883"><ele>1000.8000000000001</ele><time>2026-04-04T08:20:09.824Z</time></trkpt><trkpt lat="42.0921467" lon="-7.991375"><ele>1001.4000000000001</ele><time>2026-04-04T08:20:10.825Z</time></trkpt><trkpt lat="42.0920917" lon="-7.991255"><ele>1002.0</ele><time>2026-04-04T08:20:11.825Z</time></trkpt><trkpt lat="42.0920317" lon="-7.991135"><ele>1002.0</ele><time>2026-04-04T08:20:12.824Z</time></trkpt><trkpt lat="42.0919633" lon="-7.9910067"><ele>1002.0</ele><time>2026-04-04T08:20:13.825Z</time></trkpt><trkpt lat="42.09189" lon="-7.9908783"><ele>1002.0</ele><time>2026-04-04T08:20:14.825Z</time></trkpt><trkpt lat="42.0918183" lon="-7.9907467"><ele>1002.0</ele><time>2026-04-04T08:20:15.824Z</time></trkpt><trkpt lat="42.0917433" lon="-7.9906183"><ele>1001.5</ele><time>2026-04-04T08:20:16.824Z</time></trkpt><trkpt lat="42.0916767" lon="-7.9904917"><ele>1001.0</ele><time>2026-04-04T08:20:17.825Z</time></trkpt><trkpt lat="42.0916067" lon="-7.9903567"><ele>1000.5</ele><time>2026-04-04T08:20:18.825Z</time></trkpt><trkpt lat="42.0915333" lon="-7.9902217"><ele>1000.0</ele><time>2026-04-04T08:20:19.826Z</time></trkpt><trkpt lat="42.0914583" lon="-7.9900917"><ele>997.0</ele><time>2026-04-04T08:20:20.828Z</time></trkpt><trkpt lat="42.0913867" lon="-7.9899617"><ele>994.0</ele><time>2026-04-04T08:20:21.826Z</time></trkpt><trkpt lat="42.091315" lon="-7.989825"><ele>991.0</ele><time>2026-04-04T08:20:22.825Z</time></trkpt><trkpt lat="42.0912383" lon="-7.98968"><ele>988.0</ele><time>2026-04-04T08:20:23.824Z</time></trkpt><trkpt lat="42.0911567" lon="-7.9895283"><ele>988.0</ele><time>2026-04-04T08:20:24.824Z</time></trkpt><trkpt lat="42.09108" lon="-7.9893767"><ele>988.0</ele><time>2026-04-04T08:20:25.824Z</time></trkpt><trkpt lat="42.09101" lon="-7.9892183"><ele>988.0</ele><time>2026-04-04T08:20:26.825Z</time></trkpt><trkpt lat="42.0909433" lon="-7.98906"><ele>988.0</ele><time>2026-04-04T08:20:27.825Z</time></trkpt><trkpt lat="42.090875" lon="-7.98891"><ele>987.0</ele><time>2026-04-04T08:20:28.825Z</time></trkpt><trkpt lat="42.0908" lon="-7.9887733"><ele>986.0</ele><time>2026-04-04T08:20:29.825Z</time></trkpt><trkpt lat="42.0907217" lon="-7.988665"><ele>985.0</ele><time>2026-04-04T08:20:30.826Z</time></trkpt><trkpt lat="42.0906367" lon="-7.9885833"><ele>984.0</ele><time>2026-04-04T08:20:31.823Z</time></trkpt><trkpt lat="42.0905483" lon="-7.9885183"><ele>983.0</ele><time>2026-04-04T08:20:32.825Z</time></trkpt><trkpt lat="42.090455" lon="-7.9884883"><ele>982.0</ele><time>2026-04-04T08:20:33.824Z</time></trkpt><trkpt lat="42.0903533" lon="-7.98848"><ele>981.0</ele><time>2026-04-04T08:20:34.825Z</time></trkpt><trkpt lat="42.0902567" lon="-7.9884883"><ele>980.0</ele><time>2026-04-04T08:20:35.827Z</time></trkpt><trkpt lat="42.0901633" lon="-7.9885233"><ele>979.0</ele><time>2026-04-04T08:20:36.825Z</time></trkpt><trkpt lat="42.0900717" lon="-7.988585"><ele>978.0</ele><time>2026-04-04T08:20:37.825Z</time></trkpt><trkpt lat="42.0899733" lon="-7.988665"><ele>975.5</ele><time>2026-04-04T08:20:38.824Z</time></trkpt><trkpt lat="42.08987" lon="-7.9887533"><ele>973.0</ele><time>2026-04-04T08:20:39.825Z</time></trkpt><trkpt lat="42.0897583" lon="-7.988845"><ele>970.5</ele><time>2026-04-04T08:20:40.824Z</time></trkpt><trkpt lat="42.0896417" lon="-7.9889367"><ele>968.0</ele><time>2026-04-04T08:20:41.824Z</time></trkpt><trkpt lat="42.08952" lon="-7.989025"><ele>968.0</ele><time>2026-04-04T08:20:42.824Z</time></trkpt><trkpt lat="42.0893917" lon="-7.98912"><ele>968.0</ele><time>2026-04-04T08:20:43.824Z</time></trkpt><trkpt lat="42.089265" lon="-7.9892183"><ele>968.0</ele><time>2026-04-04T08:20:44.824Z</time></trkpt><trkpt lat="42.0891367" lon="-7.9893133"><ele>968.0</ele><time>2026-04-04T08:20:45.827Z</time></trkpt><trkpt lat="42.0890033" lon="-7.9894083"><ele>969.6666666666667</ele><time>2026-04-04T08:20:46.825Z</time></trkpt><trkpt lat="42.0888667" lon="-7.989505"><ele>971.3333333333333</ele><time>2026-04-04T08:20:47.825Z</time></trkpt><trkpt lat="42.088735" lon="-7.9895983"><ele>973.0</ele><time>2026-04-04T08:20:48.825Z</time></trkpt><trkpt lat="42.0886067" lon="-7.989695"><ele>973.0</ele><time>2026-04-04T08:20:49.823Z</time></trkpt><trkpt lat="42.0884833" lon="-7.9897917"><ele>973.0</ele><time>2026-04-04T08:20:50.823Z</time></trkpt><trkpt lat="42.0883583" lon="-7.989885"><ele>973.0</ele><time>2026-04-04T08:20:51.822Z</time></trkpt><trkpt lat="42.0882333" lon="-7.9899667"><ele>973.0</ele><time>2026-04-04T08:20:52.824Z</time></trkpt><trkpt lat="42.0881083" lon="-7.99004"><ele>974.5</ele><time>2026-04-04T08:20:53.823Z</time></trkpt><trkpt lat="42.0879817" lon="-7.990105"><ele>976.0</ele><time>2026-04-04T08:20:54.822Z</time></trkpt><trkpt lat="42.0878433" lon="-7.990165"><ele>977.5</ele><time>2026-04-04T08:20:55.823Z</time></trkpt><trkpt lat="42.087695" lon="-7.99022"><ele>979.0</ele><time>2026-04-04T08:20:56.824Z</time></trkpt><trkpt lat="42.0875483" lon="-7.9902633"><ele>977.75</ele><time>2026-04-04T08:20:57.822Z</time></trkpt><trkpt lat="42.0873983" lon="-7.9902983"><ele>976.5</ele><time>2026-04-04T08:20:58.825Z</time></trkpt><trkpt lat="42.08725" lon="-7.990325"><ele>975.25</ele><time>2026-04-04T08:20:59.823Z</time></trkpt><trkpt lat="42.0871083" lon="-7.9903267"><ele>974.0</ele><time>2026-04-04T08:21:00.825Z</time></trkpt><trkpt lat="42.0869633" lon="-7.990325"><ele>974.0</ele><time>2026-04-04T08:21:01.823Z</time></trkpt><trkpt lat="42.0868083" lon="-7.9903183"><ele>974.0</ele><time>2026-04-04T08:21:02.824Z</time></trkpt><trkpt lat="42.0866533" lon="-7.9903017"><ele>974.0</ele><time>2026-04-04T08:21:03.826Z</time></trkpt><trkpt lat="42.08651" lon="-7.990245"><ele>973.5</ele><time>2026-04-04T08:21:04.825Z</time></trkpt><trkpt lat="42.0863767" lon="-7.990195"><ele>973.0</ele><time>2026-04-04T08:21:05.825Z</time></trkpt><trkpt lat="42.0862567" lon="-7.9901333"><ele>972.5</ele><time>2026-04-04T08:21:06.822Z</time></trkpt><trkpt lat="42.0861467" lon="-7.9900683"><ele>972.0</ele><time>2026-04-04T08:21:07.823Z</time></trkpt><trkpt lat="42.086055" lon="-7.98998"><ele>972.0</ele><time>2026-04-04T08:21:08.823Z</time></trkpt><trkpt lat="42.0859567" lon="-7.989885"><ele>972.0</ele><time>2026-04-04T08:21:09.823Z</time></trkpt><trkpt lat="42.085865" lon="-7.9897767"><ele>972.0</ele><time>2026-04-04T08:21:10.822Z</time></trkpt><trkpt lat="42.0857633" lon="-7.9896683"><ele>972.0</ele><time>2026-04-04T08:21:11.822Z</time></trkpt><trkpt lat="42.0856533" lon="-7.9895567"><ele>972.0</ele><time>2026-04-04T08:21:12.823Z</time></trkpt><trkpt lat="42.0855383" lon="-7.9894417"><ele>972.0</ele><time>2026-04-04T08:21:13.823Z</time></trkpt><trkpt lat="42.08542" lon="-7.9893283"><ele>972.0</ele><time>2026-04-04T08:21:14.823Z</time></trkpt><trkpt lat="42.0853" lon="-7.9892133"><ele>972.0</ele><time>2026-04-04T08:21:15.823Z</time></trkpt><trkpt lat="42.0851833" lon="-7.9890967"><ele>972.0</ele><time>2026-04-04T08:21:16.822Z</time></trkpt><trkpt lat="42.0850667" lon="-7.9889783"><ele>972.0</ele><time>2026-04-04T08:21:17.822Z</time></trkpt><trkpt lat="42.08495" lon="-7.98886"><ele>972.0</ele><time>2026-04-04T08:21:18.822Z</time></trkpt><trkpt lat="42.084835" lon="-7.9887417"><ele>972.0</ele><time>2026-04-04T08:21:19.824Z</time></trkpt><trkpt lat="42.08472" lon="-7.988625"><ele>972.0</ele><time>2026-04-04T08:21:20.823Z</time></trkpt><trkpt lat="42.084605" lon="-7.9885217"><ele>972.0</ele><time>2026-04-04T08:21:21.822Z</time></trkpt><trkpt lat="42.08449" lon="-7.9884317"><ele>972.0</ele><time>2026-04-04T08:21:22.822Z</time></trkpt><trkpt lat="42.08437" lon="-7.9883617"><ele>972.0</ele><time>2026-04-04T08:21:23.823Z</time></trkpt><trkpt lat="42.08425" lon="-7.988305"><ele>972.5</ele><time>2026-04-04T08:21:24.822Z</time></trkpt><trkpt lat="42.08413" lon="-7.9882767"><ele>973.0</ele><time>2026-04-04T08:21:25.824Z</time></trkpt><trkpt lat="42.0840083" lon="-7.9882633"><ele>973.5</ele><time>2026-04-04T08:21:26.824Z</time></trkpt><trkpt lat="42.0838833" lon="-7.9882633"><ele>974.0</ele><time>2026-04-04T08:21:27.822Z</time></trkpt><trkpt lat="42.083755" lon="-7.9882833"><ele>972.0</ele><time>2026-04-04T08:21:28.824Z</time></trkpt><trkpt lat="42.0836367" lon="-7.988315"><ele>970.0</ele><time>2026-04-04T08:21:29.826Z</time></trkpt><trkpt lat="42.0835233" lon="-7.98836"><ele>968.0</ele><time>2026-04-04T08:21:30.822Z</time></trkpt><trkpt lat="42.0834183" lon="-7.988415"><ele>966.0</ele><time>2026-04-04T08:21:31.823Z</time></trkpt><trkpt lat="42.0833167" lon="-7.9884867"><ele>964.0</ele><time>2026-04-04T08:21:32.822Z</time></trkpt><trkpt lat="42.0832283" lon="-7.988575"><ele>962.0</ele><time>2026-04-04T08:21:33.823Z</time></trkpt><trkpt lat="42.0831517" lon="-7.9886817"><ele>960.0</ele><time>2026-04-04T08:21:34.822Z</time></trkpt><trkpt lat="42.0830867" lon="-7.988805"><ele>958.0</ele><time>2026-04-04T08:21:35.823Z</time></trkpt><trkpt lat="42.0830283" lon="-7.9889433"><ele>958.0</ele><time>2026-04-04T08:21:36.822Z</time></trkpt><trkpt lat="42.0829833" lon="-7.9890933"><ele>958.0</ele><time>2026-04-04T08:21:37.823Z</time></trkpt><trkpt lat="42.08295" lon="-7.9892483"><ele>958.0</ele><time>2026-04-04T08:21:38.823Z</time></trkpt><trkpt lat="42.0829333" lon="-7.9894133"><ele>958.0</ele><time>2026-04-04T08:21:39.823Z</time></trkpt><trkpt lat="42.0829417" lon="-7.98959"><ele>957.75</ele><time>2026-04-04T08:21:40.822Z</time></trkpt><trkpt lat="42.0829617" lon="-7.9897617"><ele>957.5</ele><time>2026-04-04T08:21:41.823Z</time></trkpt><trkpt lat="42.0829933" lon="-7.9899267"><ele>957.25</ele><time>2026-04-04T08:21:42.823Z</time></trkpt><trkpt lat="42.0830267" lon="-7.9900867"><ele>957.0</ele><time>2026-04-04T08:21:43.822Z</time></trkpt><trkpt lat="42.08306" lon="-7.9902467"><ele>955.8</ele><time>2026-04-04T08:21:44.824Z</time></trkpt><trkpt lat="42.0830933" lon="-7.9904017"><ele>954.6</ele><time>2026-04-04T08:21:45.822Z</time></trkpt><trkpt lat="42.0831167" lon="-7.9905467"><ele>953.3999999999999</ele><time>2026-04-04T08:21:46.823Z</time></trkpt><trkpt lat="42.0831383" lon="-7.9906883"><ele>952.1999999999999</ele><time>2026-04-04T08:21:47.823Z</time></trkpt><trkpt lat="42.0831567" lon="-7.9908283"><ele>951.0</ele><time>2026-04-04T08:21:48.823Z</time></trkpt><trkpt lat="42.083175" lon="-7.9909683"><ele>950.5999999999999</ele><time>2026-04-04T08:21:49.823Z</time></trkpt><trkpt lat="42.0831983" lon="-7.9910983"><ele>950.1999999999999</ele><time>2026-04-04T08:21:50.823Z</time></trkpt><trkpt lat="42.0832283" lon="-7.9912217"><ele>949.8000000000001</ele><time>2026-04-04T08:21:51.823Z</time></trkpt><trkpt lat="42.0832617" lon="-7.9913417"><ele>949.4000000000001</ele><time>2026-04-04T08:21:52.822Z</time></trkpt><trkpt lat="42.08329" lon="-7.99146"><ele>949.0</ele><time>2026-04-04T08:21:53.823Z</time></trkpt><trkpt lat="42.0833133" lon="-7.991585"><ele>947.0</ele><time>2026-04-04T08:21:54.823Z</time></trkpt><trkpt lat="42.0833333" lon="-7.9917117"><ele>945.0000000000001</ele><time>2026-04-04T08:21:55.822Z</time></trkpt><trkpt lat="42.0833483" lon="-7.9918333"><ele>943.0000000000001</ele><time>2026-04-04T08:21:56.823Z</time></trkpt><trkpt lat="42.0833617" lon="-7.991955"><ele>941.0</ele><time>2026-04-04T08:21:57.823Z</time></trkpt><trkpt lat="42.0833717" lon="-7.9920767"><ele>939.0</ele><time>2026-04-04T08:21:58.823Z</time></trkpt><trkpt lat="42.083375" lon="-7.9921933"><ele>939.0</ele><time>2026-04-04T08:21:59.823Z</time></trkpt><trkpt lat="42.0833733" lon="-7.9923083"><ele>939.0</ele><time>2026-04-04T08:22:00.824Z</time></trkpt><trkpt lat="42.0833667" lon="-7.99242"><ele>939.0</ele><time>2026-04-04T08:22:01.826Z</time></trkpt><trkpt lat="42.083355" lon="-7.9925283"><ele>939.0</ele><time>2026-04-04T08:22:02.823Z</time></trkpt><trkpt lat="42.08334" lon="-7.992635"><ele>939.0</ele><time>2026-04-04T08:22:03.823Z</time></trkpt><trkpt lat="42.0833217" lon="-7.9927367"><ele>939.0</ele><time>2026-04-04T08:22:04.824Z</time></trkpt><trkpt lat="42.083295" lon="-7.9928333"><ele>939.3333333333334</ele><time>2026-04-04T08:22:05.823Z</time></trkpt><trkpt lat="42.083265" lon="-7.9929333"><ele>939.6666666666667</ele><time>2026-04-04T08:22:06.823Z</time></trkpt><trkpt lat="42.0832283" lon="-7.9930383"><ele>940.0</ele><time>2026-04-04T08:22:07.826Z</time></trkpt><trkpt lat="42.0831867" lon="-7.9931467"><ele>940.3333333333334</ele><time>2026-04-04T08:22:08.824Z</time></trkpt><trkpt lat="42.0831433" lon="-7.9932583"><ele>940.6666666666667</ele><time>2026-04-04T08:22:09.823Z</time></trkpt><trkpt lat="42.0831017" lon="-7.99337"><ele>941.0</ele><time>2026-04-04T08:22:10.823Z</time></trkpt><trkpt lat="42.0830567" lon="-7.993485"><ele>941.0</ele><time>2026-04-04T08:22:11.823Z</time></trkpt><trkpt lat="42.0830083" lon="-7.9936033"><ele>940.9999999999999</ele><time>2026-04-04T08:22:12.823Z</time></trkpt><trkpt lat="42.082955" lon="-7.993725"><ele>940.9999999999999</ele><time>2026-04-04T08:22:13.826Z</time></trkpt><trkpt lat="42.0828983" lon="-7.99384"><ele>941.0</ele><time>2026-04-04T08:22:14.823Z</time></trkpt><trkpt lat="42.082845" lon="-7.993955"><ele>941.0</ele><time>2026-04-04T08:22:15.823Z</time></trkpt><trkpt lat="42.08279" lon="-7.994065"><ele>941.0</ele><time>2026-04-04T08:22:16.822Z</time></trkpt><trkpt lat="42.0827317" lon="-7.9941683"><ele>940.9999999999999</ele><time>2026-04-04T08:22:17.826Z</time></trkpt><trkpt lat="42.0826533" lon="-7.9942617"><ele>940.9999999999999</ele><time>2026-04-04T08:22:18.823Z</time></trkpt><trkpt lat="42.08258" lon="-7.99434"><ele>941.0</ele><time>2026-04-04T08:22:19.825Z</time></trkpt><trkpt lat="42.0824983" lon="-7.9944067"><ele>941.0</ele><time>2026-04-04T08:22:20.823Z</time></trkpt><trkpt lat="42.0824117" lon="-7.9944533"><ele>943.0</ele><time>2026-04-04T08:22:21.823Z</time></trkpt><trkpt lat="42.082315" lon="-7.99448"><ele>944.9999999999999</ele><time>2026-04-04T08:22:22.823Z</time></trkpt><trkpt lat="42.0822117" lon="-7.9944917"><ele>946.9999999999999</ele><time>2026-04-04T08:22:23.824Z</time></trkpt><trkpt lat="42.082105" lon="-7.9944867"><ele>949.0</ele><time>2026-04-04T08:22:24.823Z</time></trkpt><trkpt lat="42.0819917" lon="-7.9944717"><ele>951.0</ele><time>2026-04-04T08:22:25.824Z</time></trkpt><trkpt lat="42.0818767" lon="-7.994445"><ele>951.0</ele><time>2026-04-04T08:22:26.823Z</time></trkpt><trkpt lat="42.08175" lon="-7.994415"><ele>951.0</ele><time>2026-04-04T08:22:27.823Z</time></trkpt><trkpt lat="42.0816283" lon="-7.9943867"><ele>951.0</ele><time>2026-04-04T08:22:28.823Z</time></trkpt><trkpt lat="42.0815183" lon="-7.9943517"><ele>951.0</ele><time>2026-04-04T08:22:29.823Z</time></trkpt><trkpt lat="42.0814067" lon="-7.9942717"><ele>950.0</ele><time>2026-04-04T08:22:30.824Z</time></trkpt><trkpt lat="42.0812967" lon="-7.9941667"><ele>949.0</ele><time>2026-04-04T08:22:31.824Z</time></trkpt><trkpt lat="42.081195" lon="-7.994075"><ele>948.0</ele><time>2026-04-04T08:22:32.826Z</time></trkpt><trkpt lat="42.0810983" lon="-7.9939867"><ele>947.0</ele><time>2026-04-04T08:22:33.822Z</time></trkpt><trkpt lat="42.081005" lon="-7.9939083"><ele>947.0</ele><time>2026-04-04T08:22:34.822Z</time></trkpt><trkpt lat="42.0809117" lon="-7.993835"><ele>947.0</ele><time>2026-04-04T08:22:35.824Z</time></trkpt><trkpt lat="42.080815" lon="-7.9937717"><ele>947.0</ele><time>2026-04-04T08:22:36.822Z</time></trkpt><trkpt lat="42.0807133" lon="-7.9937183"><ele>947.0</ele><time>2026-04-04T08:22:37.823Z</time></trkpt><trkpt lat="42.08061" lon="-7.99368"><ele>947.0</ele><time>2026-04-04T08:22:38.824Z</time></trkpt><trkpt lat="42.0804967" lon="-7.9936467"><ele>946.0</ele><time>2026-04-04T08:22:39.823Z</time></trkpt><trkpt lat="42.0803833" lon="-7.9936117"><ele>945.0</ele><time>2026-04-04T08:22:40.822Z</time></trkpt><trkpt lat="42.0802683" lon="-7.99358"><ele>944.0</ele><time>2026-04-04T08:22:41.83Z</time></trkpt><trkpt lat="42.0801483" lon="-7.9935417"><ele>943.0</ele><time>2026-04-04T08:22:42.915Z</time></trkpt><trkpt lat="42.0800217" lon="-7.993505"><ele>942.25</ele><time>2026-04-04T08:22:43.822Z</time></trkpt><trkpt lat="42.079895" lon="-7.99346"><ele>941.5</ele><time>2026-04-04T08:22:44.826Z</time></trkpt><trkpt lat="42.0797683" lon="-7.9934117"><ele>940.75</ele><time>2026-04-04T08:22:45.822Z</time></trkpt><trkpt lat="42.0796433" lon="-7.99336"><ele>940.0</ele><time>2026-04-04T08:22:46.822Z</time></trkpt><trkpt lat="42.0795117" lon="-7.9933017"><ele>941.75</ele><time>2026-04-04T08:22:47.823Z</time></trkpt><trkpt lat="42.079385" lon="-7.9932333"><ele>943.5</ele><time>2026-04-04T08:22:48.823Z</time></trkpt><trkpt lat="42.079255" lon="-7.9931517"><ele>945.25</ele><time>2026-04-04T08:22:49.823Z</time></trkpt><trkpt lat="42.0791317" lon="-7.9930683"><ele>947.0</ele><time>2026-04-04T08:22:50.823Z</time></trkpt><trkpt lat="42.07901" lon="-7.9929817"><ele>947.0</ele><time>2026-04-04T08:22:51.823Z</time></trkpt><trkpt lat="42.0788883" lon="-7.9928967"><ele>947.0</ele><time>2026-04-04T08:22:52.823Z</time></trkpt><trkpt lat="42.07877" lon="-7.9928117"><ele>947.0</ele><time>2026-04-04T08:22:53.823Z</time></trkpt><trkpt lat="42.0786517" lon="-7.9927233"><ele>947.0</ele><time>2026-04-04T08:22:54.823Z</time></trkpt><trkpt lat="42.0785333" lon="-7.9926367"><ele>947.0</ele><time>2026-04-04T08:22:55.823Z</time></trkpt><trkpt lat="42.078415" lon="-7.9925467"><ele>947.0</ele><time>2026-04-04T08:22:56.823Z</time></trkpt><trkpt lat="42.0782967" lon="-7.9924533"><ele>947.0</ele><time>2026-04-04T08:22:57.823Z</time></trkpt><trkpt lat="42.0781767" lon="-7.9923583"><ele>947.0</ele><time>2026-04-04T08:22:58.822Z</time></trkpt><trkpt lat="42.0780583" lon="-7.9922583"><ele>947.5</ele><time>2026-04-04T08:22:59.824Z</time></trkpt><trkpt lat="42.0779367" lon="-7.99216"><ele>948.0</ele><time>2026-04-04T08:23:00.823Z</time></trkpt><trkpt lat="42.0778167" lon="-7.9920617"><ele>948.5</ele><time>2026-04-04T08:23:01.822Z</time></trkpt><trkpt lat="42.0776983" lon="-7.9919617"><ele>949.0</ele><time>2026-04-04T08:23:02.823Z</time></trkpt><trkpt lat="42.0775833" lon="-7.991855"><ele>949.0</ele><time>2026-04-04T08:23:03.822Z</time></trkpt><trkpt lat="42.0774733" lon="-7.9917533"><ele>949.0</ele><time>2026-04-04T08:23:04.823Z</time></trkpt><trkpt lat="42.0773633" lon="-7.9916583"><ele>949.0</ele><time>2026-04-04T08:23:05.824Z</time></trkpt><trkpt lat="42.077255" lon="-7.99157"><ele>949.0</ele><time>2026-04-04T08:23:06.823Z</time></trkpt><trkpt lat="42.0771417" lon="-7.9914867"><ele>948.25</ele><time>2026-04-04T08:23:07.823Z</time></trkpt><trkpt lat="42.077025" lon="-7.9914167"><ele>947.5</ele><time>2026-04-04T08:23:08.823Z</time></trkpt><trkpt lat="42.076905" lon="-7.991355"><ele>946.75</ele><time>2026-04-04T08:23:09.825Z</time></trkpt><trkpt lat="42.0767767" lon="-7.9912883"><ele>946.0</ele><time>2026-04-04T08:23:10.825Z</time></trkpt><trkpt lat="42.07665" lon="-7.991225"><ele>944.25</ele><time>2026-04-04T08:23:11.823Z</time></trkpt><trkpt lat="42.0765283" lon="-7.99117"><ele>942.5</ele><time>2026-04-04T08:23:12.823Z</time></trkpt><trkpt lat="42.0764117" lon="-7.9911267"><ele>940.75</ele><time>2026-04-04T08:23:13.823Z</time></trkpt><trkpt lat="42.0762967" lon="-7.9910883"><ele>939.0</ele><time>2026-04-04T08:23:14.823Z</time></trkpt><trkpt lat="42.076175" lon="-7.9910533"><ele>939.0</ele><time>2026-04-04T08:23:15.823Z</time></trkpt><trkpt lat="42.0760533" lon="-7.9910183"><ele>939.0</ele><time>2026-04-04T08:23:16.824Z</time></trkpt><trkpt lat="42.07593" lon="-7.9909783"><ele>939.0</ele><time>2026-04-04T08:23:17.823Z</time></trkpt><trkpt lat="42.07581" lon="-7.9909433"><ele>939.0</ele><time>2026-04-04T08:23:18.823Z</time></trkpt><trkpt lat="42.0756833" lon="-7.99091"><ele>938.0</ele><time>2026-04-04T08:23:19.823Z</time></trkpt><trkpt lat="42.075555" lon="-7.9908767"><ele>937.0</ele><time>2026-04-04T08:23:20.823Z</time></trkpt><trkpt lat="42.0754283" lon="-7.9908367"><ele>936.0</ele><time>2026-04-04T08:23:21.822Z</time></trkpt><trkpt lat="42.0753" lon="-7.9907933"><ele>935.0</ele><time>2026-04-04T08:23:22.822Z</time></trkpt><trkpt lat="42.075175" lon="-7.9907467"><ele>937.25</ele><time>2026-04-04T08:23:23.823Z</time></trkpt><trkpt lat="42.07505" lon="-7.9907"><ele>939.5</ele><time>2026-04-04T08:23:24.822Z</time></trkpt><trkpt lat="42.0749233" lon="-7.990655"><ele>941.75</ele><time>2026-04-04T08:23:25.823Z</time></trkpt><trkpt lat="42.0747967" lon="-7.9906117"><ele>944.0</ele><time>2026-04-04T08:23:26.823Z</time></trkpt><trkpt lat="42.07467" lon="-7.99057"><ele>944.0</ele><time>2026-04-04T08:23:27.824Z</time></trkpt><trkpt lat="42.0745433" lon="-7.9905217"><ele>944.0</ele><time>2026-04-04T08:23:28.825Z</time></trkpt><trkpt lat="42.0744167" lon="-7.9904667"><ele>944.0</ele><time>2026-04-04T08:23:29.822Z</time></trkpt><trkpt lat="42.0742983" lon="-7.9904033"><ele>944.0</ele><time>2026-04-04T08:23:30.823Z</time></trkpt><trkpt lat="42.07419" lon="-7.9903317"><ele>943.25</ele><time>2026-04-04T08:23:31.824Z</time></trkpt><trkpt lat="42.0740983" lon="-7.990245"><ele>942.5</ele><time>2026-04-04T08:23:32.823Z</time></trkpt><trkpt lat="42.07401" lon="-7.9901367"><ele>941.75</ele><time>2026-04-04T08:23:33.823Z</time></trkpt><trkpt lat="42.0739267" lon="-7.9900183"><ele>941.0</ele><time>2026-04-04T08:23:34.823Z</time></trkpt><trkpt lat="42.07385" lon="-7.9899017"><ele>941.0</ele><time>2026-04-04T08:23:35.823Z</time></trkpt><trkpt lat="42.0737683" lon="-7.9897883"><ele>940.9999999999999</ele><time>2026-04-04T08:23:36.823Z</time></trkpt><trkpt lat="42.073685" lon="-7.9896867"><ele>940.9999999999999</ele><time>2026-04-04T08:23:37.823Z</time></trkpt><trkpt lat="42.0735967" lon="-7.9896033"><ele>941.0</ele><time>2026-04-04T08:23:38.825Z</time></trkpt><trkpt lat="42.0735117" lon="-7.9895517"><ele>941.0</ele><time>2026-04-04T08:23:39.826Z</time></trkpt><trkpt lat="42.0734317" lon="-7.989525"><ele>941.0</ele><time>2026-04-04T08:23:40.822Z</time></trkpt><trkpt lat="42.0733467" lon="-7.9895183"><ele>940.9999999999999</ele><time>2026-04-04T08:23:41.823Z</time></trkpt><trkpt lat="42.0732633" lon="-7.9895367"><ele>940.9999999999999</ele><time>2026-04-04T08:23:42.823Z</time></trkpt><trkpt lat="42.073175" lon="-7.9895933"><ele>941.0</ele><time>2026-04-04T08:23:43.824Z</time></trkpt><trkpt lat="42.073075" lon="-7.9896967"><ele>941.0</ele><time>2026-04-04T08:23:44.826Z</time></trkpt><trkpt lat="42.0729767" lon="-7.9897967"><ele>939.5999999999999</ele><time>2026-04-04T08:23:45.825Z</time></trkpt><trkpt lat="42.0728833" lon="-7.9898917"><ele>938.1999999999999</ele><time>2026-04-04T08:23:46.823Z</time></trkpt><trkpt lat="42.0727867" lon="-7.9899683"><ele>936.8000000000001</ele><time>2026-04-04T08:23:47.825Z</time></trkpt><trkpt lat="42.0726883" lon="-7.990015"><ele>935.4000000000001</ele><time>2026-04-04T08:23:48.826Z</time></trkpt><trkpt lat="42.0725967" lon="-7.9900417"><ele>934.0</ele><time>2026-04-04T08:23:49.823Z</time></trkpt><trkpt lat="42.0725" lon="-7.9900433"><ele>934.0</ele><time>2026-04-04T08:23:50.823Z</time></trkpt><trkpt lat="42.0724033" lon="-7.9900167"><ele>934.0000000000001</ele><time>2026-04-04T08:23:51.822Z</time></trkpt><trkpt lat="42.0723033" lon="-7.9899567"><ele>934.0000000000001</ele><time>2026-04-04T08:23:52.822Z</time></trkpt><trkpt lat="42.0722083" lon="-7.9898667"><ele>934.0</ele><time>2026-04-04T08:23:53.824Z</time></trkpt><trkpt lat="42.07212" lon="-7.9897517"><ele>934.0</ele><time>2026-04-04T08:23:54.822Z</time></trkpt><trkpt lat="42.0720417" lon="-7.9896283"><ele>934.0</ele><time>2026-04-04T08:23:55.826Z</time></trkpt><trkpt lat="42.071965" lon="-7.9895"><ele>934.0</ele><time>2026-04-04T08:23:56.823Z</time></trkpt><trkpt lat="42.0718833" lon="-7.9893717"><ele>934.0</ele><time>2026-04-04T08:23:57.822Z</time></trkpt><trkpt lat="42.071805" lon="-7.98924"><ele>934.0</ele><time>2026-04-04T08:23:58.826Z</time></trkpt><trkpt lat="42.0717267" lon="-7.9891"><ele>933.5</ele><time>2026-04-04T08:23:59.824Z</time></trkpt><trkpt lat="42.0716467" lon="-7.98896"><ele>933.0</ele><time>2026-04-04T08:24:00.823Z</time></trkpt><trkpt lat="42.0715683" lon="-7.9888267"><ele>932.5</ele><time>2026-04-04T08:24:01.823Z</time></trkpt><trkpt lat="42.07149" lon="-7.9887"><ele>932.0</ele><time>2026-04-04T08:24:02.824Z</time></trkpt><trkpt lat="42.0714033" lon="-7.9885683"><ele>932.0</ele><time>2026-04-04T08:24:03.822Z</time></trkpt><trkpt lat="42.0713067" lon="-7.9884417"><ele>932.0</ele><time>2026-04-04T08:24:04.822Z</time></trkpt><trkpt lat="42.0711983" lon="-7.9883217"><ele>932.0</ele><time>2026-04-04T08:24:05.823Z</time></trkpt><trkpt lat="42.071085" lon="-7.9882117"><ele>932.0</ele><time>2026-04-04T08:24:06.822Z</time></trkpt><trkpt lat="42.0709767" lon="-7.9881067"><ele>932.25</ele><time>2026-04-04T08:24:07.825Z</time></trkpt><trkpt lat="42.0708683" lon="-7.988015"><ele>932.5</ele><time>2026-04-04T08:24:08.823Z</time></trkpt><trkpt lat="42.0707633" lon="-7.9879267"><ele>932.75</ele><time>2026-04-04T08:24:09.823Z</time></trkpt><trkpt lat="42.0706617" lon="-7.9878417"><ele>933.0</ele><time>2026-04-04T08:24:10.823Z</time></trkpt><trkpt lat="42.0705583" lon="-7.987755"><ele>931.25</ele><time>2026-04-04T08:24:11.825Z</time></trkpt><trkpt lat="42.0704633" lon="-7.9876617"><ele>929.5</ele><time>2026-04-04T08:24:12.823Z</time></trkpt><trkpt lat="42.0703767" lon="-7.9875683"><ele>927.75</ele><time>2026-04-04T08:24:13.824Z</time></trkpt><trkpt lat="42.0702967" lon="-7.9874567"><ele>926.0</ele><time>2026-04-04T08:24:14.823Z</time></trkpt><trkpt lat="42.0702283" lon="-7.9873383"><ele>925.75</ele><time>2026-04-04T08:24:15.822Z</time></trkpt><trkpt lat="42.070165" lon="-7.9872183"><ele>925.5</ele><time>2026-04-04T08:24:16.823Z</time></trkpt><trkpt lat="42.070105" lon="-7.9870933"><ele>925.25</ele><time>2026-04-04T08:24:17.823Z</time></trkpt><trkpt lat="42.0700433" lon="-7.9869583"><ele>925.0</ele><time>2026-04-04T08:24:18.822Z</time></trkpt><trkpt lat="42.0699833" lon="-7.986825"><ele>922.5</ele><time>2026-04-04T08:24:19.823Z</time></trkpt><trkpt lat="42.0699267" lon="-7.9866917"><ele>920.0</ele><time>2026-04-04T08:24:20.823Z</time></trkpt><trkpt lat="42.0698583" lon="-7.9865583"><ele>917.5</ele><time>2026-04-04T08:24:21.823Z</time></trkpt><trkpt lat="42.0697917" lon="-7.9864183"><ele>915.0</ele><time>2026-04-04T08:24:22.823Z</time></trkpt><trkpt lat="42.0697267" lon="-7.9862733"><ele>913.75</ele><time>2026-04-04T08:24:23.822Z</time></trkpt><trkpt lat="42.0696633" lon="-7.98613"><ele>912.5</ele><time>2026-04-04T08:24:24.823Z</time></trkpt><trkpt lat="42.0696017" lon="-7.9859917"><ele>911.25</ele><time>2026-04-04T08:24:25.823Z</time></trkpt><trkpt lat="42.0695383" lon="-7.9858617"><ele>910.0</ele><time>2026-04-04T08:24:26.823Z</time></trkpt><trkpt lat="42.0694767" lon="-7.9857367"><ele>909.8</ele><time>2026-04-04T08:24:27.823Z</time></trkpt><trkpt lat="42.069415" lon="-7.9856117"><ele>909.6</ele><time>2026-04-04T08:24:28.823Z</time></trkpt><trkpt lat="42.06936" lon="-7.9854883"><ele>909.4000000000001</ele><time>2026-04-04T08:24:29.823Z</time></trkpt><trkpt lat="42.0693017" lon="-7.9853567"><ele>909.2</ele><time>2026-04-04T08:24:30.822Z</time></trkpt><trkpt lat="42.06924" lon="-7.9852267"><ele>909.0</ele><time>2026-04-04T08:24:31.823Z</time></trkpt><trkpt lat="42.06918" lon="-7.9851017"><ele>908.2</ele><time>2026-04-04T08:24:32.823Z</time></trkpt><trkpt lat="42.06912" lon="-7.984985"><ele>907.4000000000001</ele><time>2026-04-04T08:24:33.823Z</time></trkpt><trkpt lat="42.0690567" lon="-7.9848717"><ele>906.6</ele><time>2026-04-04T08:24:34.822Z</time></trkpt><trkpt lat="42.068995" lon="-7.9847767"><ele>905.8</ele><time>2026-04-04T08:24:35.823Z</time></trkpt><trkpt lat="42.0689233" lon="-7.9847017"><ele>905.0</ele><time>2026-04-04T08:24:36.822Z</time></trkpt><trkpt lat="42.0688517" lon="-7.984645"><ele>904.5000000000001</ele><time>2026-04-04T08:24:37.823Z</time></trkpt><trkpt lat="42.06877" lon="-7.9845983"><ele>904.0</ele><time>2026-04-04T08:24:38.823Z</time></trkpt><trkpt lat="42.06869" lon="-7.98458"><ele>903.5</ele><time>2026-04-04T08:24:39.824Z</time></trkpt><trkpt lat="42.0686" lon="-7.9845667"><ele>903.0</ele><time>2026-04-04T08:24:40.823Z</time></trkpt><trkpt lat="42.068505" lon="-7.984565"><ele>902.5000000000001</ele><time>2026-04-04T08:24:41.824Z</time></trkpt><trkpt lat="42.0684133" lon="-7.9845633"><ele>902.0</ele><time>2026-04-04T08:24:42.823Z</time></trkpt><trkpt lat="42.0683167" lon="-7.9845717"><ele>901.6666666666667</ele><time>2026-04-04T08:24:43.824Z</time></trkpt><trkpt lat="42.0682217" lon="-7.9845867"><ele>901.3333333333334</ele><time>2026-04-04T08:24:44.823Z</time></trkpt><trkpt lat="42.0681317" lon="-7.9846017"><ele>901.0</ele><time>2026-04-04T08:24:45.823Z</time></trkpt><trkpt lat="42.068045" lon="-7.9846183"><ele>900.6666666666667</ele><time>2026-04-04T08:24:46.823Z</time></trkpt><trkpt lat="42.0679583" lon="-7.9846417"><ele>900.3333333333334</ele><time>2026-04-04T08:24:47.824Z</time></trkpt><trkpt lat="42.0678833" lon="-7.984665"><ele>900.0</ele><time>2026-04-04T08:24:48.823Z</time></trkpt><trkpt lat="42.0678233" lon="-7.9846933"><ele>900.0</ele><time>2026-04-04T08:24:49.823Z</time></trkpt><trkpt lat="42.0677633" lon="-7.9847217"><ele>900.0</ele><time>2026-04-04T08:24:51.823Z</time></trkpt><trkpt lat="42.0678267" lon="-7.9846833"><ele>900.0</ele><time>2026-04-04T08:25:02.823Z</time></trkpt><trkpt lat="42.0678833" lon="-7.98473"><ele>900.0</ele><time>2026-04-04T08:25:04.822Z</time></trkpt><trkpt lat="42.06796" lon="-7.984795"><ele>900.0</ele><time>2026-04-04T08:25:06.822Z</time></trkpt><trkpt lat="42.0680367" lon="-7.984885"><ele>900.0</ele><time>2026-04-04T08:25:08.823Z</time></trkpt><trkpt lat="42.06809" lon="-7.984985"><ele>900.0</ele><time>2026-04-04T08:25:10.822Z</time></trkpt><trkpt lat="42.0681483" lon="-7.985075"><ele>900.0</ele><time>2026-04-04T08:25:12.826Z</time></trkpt><trkpt lat="42.0681983" lon="-7.985155"><ele>900.0</ele><time>2026-04-04T08:25:14.824Z</time></trkpt><trkpt lat="42.0681283" lon="-7.9850233"><ele>900.0</ele><time>2026-04-04T08:28:27.823Z</time></trkpt><trkpt lat="42.0680733" lon="-7.984935"><ele>900.0</ele><time>2026-04-04T08:28:28.823Z</time></trkpt><trkpt lat="42.0680133" lon="-7.9848567"><ele>900.0</ele><time>2026-04-04T08:28:29.824Z</time></trkpt><trkpt lat="42.0679583" lon="-7.9848"><ele>900.0</ele><time>2026-04-04T08:28:30.823Z</time></trkpt><trkpt lat="42.06787" lon="-7.9847133"><ele>900.0</ele><time>2026-04-04T08:28:32.824Z</time></trkpt><trkpt lat="42.0679" lon="-7.9846367"><ele>900.0</ele><time>2026-04-04T08:28:36.828Z</time></trkpt><trkpt lat="42.068005" lon="-7.9846283"><ele>900.0</ele><time>2026-04-04T08:28:37.823Z</time></trkpt><trkpt lat="42.06813" lon="-7.9846133"><ele>900.0</ele><time>2026-04-04T08:28:38.824Z</time></trkpt><trkpt lat="42.0682367" lon="-7.9846083"><ele>900.0</ele><time>2026-04-04T08:28:39.827Z</time></trkpt><trkpt lat="42.0683583" lon="-7.984605"><ele>900.0</ele><time>2026-04-04T08:28:40.823Z</time></trkpt><trkpt lat="42.06849" lon="-7.9846033"><ele>900.0</ele><time>2026-04-04T08:28:41.824Z</time></trkpt><trkpt lat="42.0686217" lon="-7.9846117"><ele>900.4</ele><time>2026-04-04T08:28:42.826Z</time></trkpt><trkpt lat="42.06874" lon="-7.98463"><ele>900.8</ele><time>2026-04-04T08:28:43.825Z</time></trkpt><trkpt lat="42.06885" lon="-7.9846583"><ele>901.2</ele><time>2026-04-04T08:28:44.828Z</time></trkpt><trkpt lat="42.0689517" lon="-7.9847117"><ele>901.6</ele><time>2026-04-04T08:28:45.826Z</time></trkpt><trkpt lat="42.0690333" lon="-7.9847917"><ele>902.0</ele><time>2026-04-04T08:28:46.826Z</time></trkpt><trkpt lat="42.0691083" lon="-7.9848983"><ele>903.75</ele><time>2026-04-04T08:28:47.824Z</time></trkpt><trkpt lat="42.069185" lon="-7.9850233"><ele>905.5</ele><time>2026-04-04T08:28:48.824Z</time></trkpt><trkpt lat="42.0692583" lon="-7.985165"><ele>907.25</ele><time>2026-04-04T08:28:49.823Z</time></trkpt><trkpt lat="42.06933" lon="-7.9853117"><ele>909.0</ele><time>2026-04-04T08:28:50.827Z</time></trkpt><trkpt lat="42.0694017" lon="-7.9854667"><ele>909.0</ele><time>2026-04-04T08:28:51.823Z</time></trkpt><trkpt lat="42.0694767" lon="-7.9856283"><ele>909.0</ele><time>2026-04-04T08:28:52.823Z</time></trkpt><trkpt lat="42.0695517" lon="-7.9857967"><ele>909.0</ele><time>2026-04-04T08:28:53.823Z</time></trkpt><trkpt lat="42.0696283" lon="-7.9859617"><ele>909.0</ele><time>2026-04-04T08:28:54.823Z</time></trkpt><trkpt lat="42.069705" lon="-7.9861267"><ele>909.25</ele><time>2026-04-04T08:28:55.824Z</time></trkpt><trkpt lat="42.0697817" lon="-7.9862867"><ele>909.5</ele><time>2026-04-04T08:28:56.823Z</time></trkpt><trkpt lat="42.0698583" lon="-7.986445"><ele>909.75</ele><time>2026-04-04T08:28:57.823Z</time></trkpt><trkpt lat="42.069935" lon="-7.9866067"><ele>910.0</ele><time>2026-04-04T08:28:58.824Z</time></trkpt><trkpt lat="42.070005" lon="-7.9867717"><ele>913.75</ele><time>2026-04-04T08:28:59.826Z</time></trkpt><trkpt lat="42.0700767" lon="-7.9869333"><ele>917.5</ele><time>2026-04-04T08:29:00.823Z</time></trkpt><trkpt lat="42.0701483" lon="-7.98709"><ele>921.25</ele><time>2026-04-04T08:29:01.827Z</time></trkpt><trkpt lat="42.0702233" lon="-7.9872483"><ele>925.0</ele><time>2026-04-04T08:29:02.824Z</time></trkpt><trkpt lat="42.0703033" lon="-7.9874033"><ele>925.25</ele><time>2026-04-04T08:29:03.824Z</time></trkpt><trkpt lat="42.0703883" lon="-7.987545"><ele>925.5</ele><time>2026-04-04T08:29:04.825Z</time></trkpt><trkpt lat="42.070475" lon="-7.9876683"><ele>925.75</ele><time>2026-04-04T08:29:05.824Z</time></trkpt><trkpt lat="42.0705817" lon="-7.9877783"><ele>926.0</ele><time>2026-04-04T08:29:06.824Z</time></trkpt><trkpt lat="42.0706983" lon="-7.9878817"><ele>928.3333333333334</ele><time>2026-04-04T08:29:07.824Z</time></trkpt><trkpt lat="42.070825" lon="-7.9879883"><ele>930.6666666666667</ele><time>2026-04-04T08:29:08.824Z</time></trkpt><trkpt lat="42.0709567" lon="-7.9880983"><ele>933.0</ele><time>2026-04-04T08:29:09.823Z</time></trkpt><trkpt lat="42.07109" lon="-7.9882117"><ele>933.0</ele><time>2026-04-04T08:29:10.823Z</time></trkpt><trkpt lat="42.0712183" lon="-7.9883317"><ele>933.0</ele><time>2026-04-04T08:29:11.824Z</time></trkpt><trkpt lat="42.07134" lon="-7.9884517"><ele>933.0</ele><time>2026-04-04T08:29:12.823Z</time></trkpt><trkpt lat="42.0714567" lon="-7.98858"><ele>932.75</ele><time>2026-04-04T08:29:13.823Z</time></trkpt><trkpt lat="42.071555" lon="-7.9887183"><ele>932.5</ele><time>2026-04-04T08:29:14.824Z</time></trkpt><trkpt lat="42.0716483" lon="-7.9888767"><ele>932.25</ele><time>2026-04-04T08:29:15.823Z</time></trkpt><trkpt lat="42.0717333" lon="-7.9890317"><ele>932.0</ele><time>2026-04-04T08:29:16.824Z</time></trkpt><trkpt lat="42.07182" lon="-7.98918"><ele>932.5</ele><time>2026-04-04T08:29:17.823Z</time></trkpt><trkpt lat="42.0719067" lon="-7.9893167"><ele>933.0</ele><time>2026-04-04T08:29:18.824Z</time></trkpt><trkpt lat="42.071995" lon="-7.98945"><ele>933.5</ele><time>2026-04-04T08:29:19.826Z</time></trkpt><trkpt lat="42.0720717" lon="-7.989575"><ele>934.0</ele><time>2026-04-04T08:29:20.823Z</time></trkpt><trkpt lat="42.0721467" lon="-7.9896933"><ele>934.0</ele><time>2026-04-04T08:29:21.822Z</time></trkpt><trkpt lat="42.0722217" lon="-7.989805"><ele>934.0000000000001</ele><time>2026-04-04T08:29:22.822Z</time></trkpt><trkpt lat="42.0723017" lon="-7.9899067"><ele>934.0000000000001</ele><time>2026-04-04T08:29:23.823Z</time></trkpt><trkpt lat="42.0723833" lon="-7.9899883"><ele>934.0</ele><time>2026-04-04T08:29:24.822Z</time></trkpt><trkpt lat="42.0724633" lon="-7.99003"><ele>934.0</ele><time>2026-04-04T08:29:25.823Z</time></trkpt><trkpt lat="42.0725533" lon="-7.9900567"><ele>934.0</ele><time>2026-04-04T08:29:26.826Z</time></trkpt><trkpt lat="42.0726417" lon="-7.9900533"><ele>934.0000000000001</ele><time>2026-04-04T08:29:27.825Z</time></trkpt><trkpt lat="42.0727333" lon="-7.9900283"><ele>934.0000000000001</ele><time>2026-04-04T08:29:28.822Z</time></trkpt><trkpt lat="42.0728267" lon="-7.9899883"><ele>934.0</ele><time>2026-04-04T08:29:29.825Z</time></trkpt><trkpt lat="42.07292" lon="-7.989915"><ele>934.0</ele><time>2026-04-04T08:29:30.823Z</time></trkpt><trkpt lat="42.0730117" lon="-7.9898133"><ele>934.0</ele><time>2026-04-04T08:29:31.823Z</time></trkpt><trkpt lat="42.07311" lon="-7.9897017"><ele>934.0</ele><time>2026-04-04T08:29:32.824Z</time></trkpt><trkpt lat="42.0732083" lon="-7.9896083"><ele>934.0</ele><time>2026-04-04T08:29:33.822Z</time></trkpt><trkpt lat="42.0733083" lon="-7.9895417"><ele>934.0</ele><time>2026-04-04T08:29:34.822Z</time></trkpt><trkpt lat="42.0734133" lon="-7.989505"><ele>935.4000000000001</ele><time>2026-04-04T08:29:35.823Z</time></trkpt><trkpt lat="42.07352" lon="-7.989505"><ele>936.8000000000001</ele><time>2026-04-04T08:29:36.822Z</time></trkpt><trkpt lat="42.07362" lon="-7.9895383"><ele>938.1999999999999</ele><time>2026-04-04T08:29:37.825Z</time></trkpt><trkpt lat="42.073715" lon="-7.989605"><ele>939.5999999999999</ele><time>2026-04-04T08:29:38.823Z</time></trkpt><trkpt lat="42.0738033" lon="-7.9896983"><ele>941.0</ele><time>2026-04-04T08:29:39.822Z</time></trkpt><trkpt lat="42.073885" lon="-7.98981"><ele>941.0</ele><time>2026-04-04T08:29:40.823Z</time></trkpt><trkpt lat="42.0739667" lon="-7.98993"><ele>941.0</ele><time>2026-04-04T08:29:41.826Z</time></trkpt><trkpt lat="42.074055" lon="-7.9900517"><ele>941.0</ele><time>2026-04-04T08:29:42.822Z</time></trkpt><trkpt lat="42.07415" lon="-7.9901683"><ele>941.0</ele><time>2026-04-04T08:29:43.822Z</time></trkpt><trkpt lat="42.07425" lon="-7.990275"><ele>941.75</ele><time>2026-04-04T08:29:44.823Z</time></trkpt><trkpt lat="42.074355" lon="-7.9903717"><ele>942.5</ele><time>2026-04-04T08:29:45.822Z</time></trkpt><trkpt lat="42.0744667" lon="-7.9904467"><ele>943.25</ele><time>2026-04-04T08:29:46.823Z</time></trkpt><trkpt lat="42.0745883" lon="-7.9905033"><ele>944.0</ele><time>2026-04-04T08:29:47.824Z</time></trkpt><trkpt lat="42.0747183" lon="-7.990555"><ele>944.0</ele><time>2026-04-04T08:29:48.822Z</time></trkpt><trkpt lat="42.0748533" lon="-7.990605"><ele>944.0</ele><time>2026-04-04T08:29:49.822Z</time></trkpt><trkpt lat="42.0749933" lon="-7.990655"><ele>944.0</ele><time>2026-04-04T08:29:50.822Z</time></trkpt><trkpt lat="42.0751383" lon="-7.9907067"><ele>944.0</ele><time>2026-04-04T08:29:51.822Z</time></trkpt><trkpt lat="42.075285" lon="-7.9907533"><ele>944.6666666666667</ele><time>2026-04-04T08:29:52.822Z</time></trkpt><trkpt lat="42.0754317" lon="-7.9907983"><ele>945.3333333333333</ele><time>2026-04-04T08:29:53.822Z</time></trkpt><trkpt lat="42.0755817" lon="-7.9908433"><ele>946.0</ele><time>2026-04-04T08:29:54.823Z</time></trkpt><trkpt lat="42.0757267" lon="-7.99089"><ele>944.25</ele><time>2026-04-04T08:29:55.822Z</time></trkpt><trkpt lat="42.07587" lon="-7.9909333"><ele>942.5</ele><time>2026-04-04T08:29:56.824Z</time></trkpt><trkpt lat="42.0760083" lon="-7.9909733"><ele>940.75</ele><time>2026-04-04T08:29:57.822Z</time></trkpt><trkpt lat="42.0761417" lon="-7.9910117"><ele>939.0</ele><time>2026-04-04T08:29:58.823Z</time></trkpt><trkpt lat="42.07627" lon="-7.9910517"><ele>939.0</ele><time>2026-04-04T08:29:59.822Z</time></trkpt><trkpt lat="42.076395" lon="-7.991095"><ele>939.0</ele><time>2026-04-04T08:30:00.822Z</time></trkpt><trkpt lat="42.0765183" lon="-7.99114"><ele>939.0</ele><time>2026-04-04T08:30:01.822Z</time></trkpt><trkpt lat="42.0766417" lon="-7.9911933"><ele>939.0</ele><time>2026-04-04T08:30:02.824Z</time></trkpt><trkpt lat="42.0767683" lon="-7.991255"><ele>940.75</ele><time>2026-04-04T08:30:03.822Z</time></trkpt><trkpt lat="42.076895" lon="-7.99132"><ele>942.5</ele><time>2026-04-04T08:30:04.822Z</time></trkpt><trkpt lat="42.0770217" lon="-7.9913917"><ele>944.25</ele><time>2026-04-04T08:30:05.823Z</time></trkpt><trkpt lat="42.0771483" lon="-7.991465"><ele>946.0</ele><time>2026-04-04T08:30:06.823Z</time></trkpt><trkpt lat="42.0772767" lon="-7.991545"><ele>946.0</ele><time>2026-04-04T08:30:07.823Z</time></trkpt><trkpt lat="42.0774" lon="-7.9916333"><ele>946.0</ele><time>2026-04-04T08:30:08.823Z</time></trkpt><trkpt lat="42.07752" lon="-7.991735"><ele>946.0</ele><time>2026-04-04T08:30:09.823Z</time></trkpt><trkpt lat="42.0776417" lon="-7.9918467"><ele>946.0</ele><time>2026-04-04T08:30:10.823Z</time></trkpt><trkpt lat="42.0777683" lon="-7.99196"><ele>946.75</ele><time>2026-04-04T08:30:11.825Z</time></trkpt><trkpt lat="42.077895" lon="-7.9920717"><ele>947.5</ele><time>2026-04-04T08:30:12.823Z</time></trkpt><trkpt lat="42.07802" lon="-7.9921767"><ele>948.25</ele><time>2026-04-04T08:30:13.823Z</time></trkpt><trkpt lat="42.0781467" lon="-7.9922817"><ele>949.0</ele><time>2026-04-04T08:30:14.822Z</time></trkpt><trkpt lat="42.0782717" lon="-7.9923883"><ele>948.5</ele><time>2026-04-04T08:30:15.823Z</time></trkpt><trkpt lat="42.0783967" lon="-7.992485"><ele>948.0</ele><time>2026-04-04T08:30:16.826Z</time></trkpt><trkpt lat="42.0785217" lon="-7.9925767"><ele>947.5</ele><time>2026-04-04T08:30:17.825Z</time></trkpt><trkpt lat="42.07865" lon="-7.9926683"><ele>947.0</ele><time>2026-04-04T08:30:18.822Z</time></trkpt><trkpt lat="42.0787767" lon="-7.9927633"><ele>947.0</ele><time>2026-04-04T08:30:19.823Z</time></trkpt><trkpt lat="42.078905" lon="-7.9928567"><ele>947.0</ele><time>2026-04-04T08:30:20.825Z</time></trkpt><trkpt lat="42.0790333" lon="-7.9929533"><ele>947.0</ele><time>2026-04-04T08:30:21.826Z</time></trkpt><trkpt lat="42.0791667" lon="-7.9930483"><ele>947.0</ele><time>2026-04-04T08:30:22.823Z</time></trkpt><trkpt lat="42.0793017" lon="-7.9931383"><ele>947.5</ele><time>2026-04-04T08:30:23.826Z</time></trkpt><trkpt lat="42.07944" lon="-7.9932233"><ele>948.0</ele><time>2026-04-04T08:30:24.822Z</time></trkpt><trkpt lat="42.0795733" lon="-7.993295"><ele>948.5</ele><time>2026-04-04T08:30:25.822Z</time></trkpt><trkpt lat="42.079705" lon="-7.993345"><ele>949.0</ele><time>2026-04-04T08:30:26.825Z</time></trkpt><trkpt lat="42.0798367" lon="-7.99339"><ele>947.5</ele><time>2026-04-04T08:30:27.823Z</time></trkpt><trkpt lat="42.0799717" lon="-7.993435"><ele>946.0</ele><time>2026-04-04T08:30:28.822Z</time></trkpt><trkpt lat="42.0801067" lon="-7.9934767"><ele>944.5</ele><time>2026-04-04T08:30:29.822Z</time></trkpt><trkpt lat="42.0802333" lon="-7.9935133"><ele>943.0</ele><time>2026-04-04T08:30:30.822Z</time></trkpt><trkpt lat="42.0803467" lon="-7.9935467"><ele>942.9999999999999</ele><time>2026-04-04T08:30:31.822Z</time></trkpt><trkpt lat="42.08045" lon="-7.9935783"><ele>943.0</ele><time>2026-04-04T08:30:32.822Z</time></trkpt><trkpt lat="42.0805383" lon="-7.9936067"><ele>943.0</ele><time>2026-04-04T08:30:33.822Z</time></trkpt><trkpt lat="42.080615" lon="-7.9936383"><ele>943.0</ele><time>2026-04-04T08:30:34.822Z</time></trkpt><trkpt lat="42.0806733" lon="-7.9936733"><ele>942.9999999999999</ele><time>2026-04-04T08:30:35.822Z</time></trkpt><trkpt lat="42.0807433" lon="-7.9937533"><ele>943.0</ele><time>2026-04-04T08:30:37.823Z</time></trkpt><trkpt lat="42.08078" lon="-7.9938233"><ele>943.4999999999999</ele><time>2026-04-04T08:30:40.822Z</time></trkpt><trkpt lat="42.0807783" lon="-7.99392"><ele>944.0</ele><time>2026-04-04T08:32:57.823Z</time></trkpt><trkpt lat="42.0808283" lon="-7.994005"><ele>944.5</ele><time>2026-04-04T08:32:59.823Z</time></trkpt><trkpt lat="42.0808867" lon="-7.9941017"><ele>945.0</ele><time>2026-04-04T08:33:01.824Z</time></trkpt><trkpt lat="42.0809317" lon="-7.99418"><ele>945.4999999999999</ele><time>2026-04-04T08:33:03.822Z</time></trkpt><trkpt lat="42.0809817" lon="-7.9943067"><ele>946.0</ele><time>2026-04-04T08:33:05.822Z</time></trkpt><trkpt lat="42.0810367" lon="-7.9944333"><ele>945.9999999999999</ele><time>2026-04-04T08:33:07.823Z</time></trkpt><trkpt lat="42.0811" lon="-7.9945533"><ele>946.0</ele><time>2026-04-04T08:33:09.822Z</time></trkpt><trkpt lat="42.081135" lon="-7.9946333"><ele>946.0</ele><time>2026-04-04T08:33:10.822Z</time></trkpt><trkpt lat="42.0811717" lon="-7.994715"><ele>946.0</ele><time>2026-04-04T08:33:11.822Z</time></trkpt><trkpt lat="42.0812117" lon="-7.9948067"><ele>945.9999999999999</ele><time>2026-04-04T08:33:12.824Z</time></trkpt><trkpt lat="42.08125" lon="-7.9949083"><ele>946.0</ele><time>2026-04-04T08:33:13.824Z</time></trkpt><trkpt lat="42.0812883" lon="-7.9950067"><ele>945.8</ele><time>2026-04-04T08:33:14.823Z</time></trkpt><trkpt lat="42.0813267" lon="-7.9951117"><ele>945.5999999999999</ele><time>2026-04-04T08:33:15.823Z</time></trkpt><trkpt lat="42.08137" lon="-7.9952233"><ele>945.4</ele><time>2026-04-04T08:33:16.823Z</time></trkpt><trkpt lat="42.0814133" lon="-7.9953433"><ele>945.2</ele><time>2026-04-04T08:33:17.824Z</time></trkpt><trkpt lat="42.081475" lon="-7.995485"><ele>945.0</ele><time>2026-04-04T08:33:18.823Z</time></trkpt><trkpt lat="42.0815433" lon="-7.9956383"><ele>947.0</ele><time>2026-04-04T08:33:19.826Z</time></trkpt><trkpt lat="42.0816267" lon="-7.99582"><ele>949.0</ele><time>2026-04-04T08:33:20.823Z</time></trkpt><trkpt lat="42.0816967" lon="-7.9959733"><ele>951.0</ele><time>2026-04-04T08:33:21.823Z</time></trkpt><trkpt lat="42.0817567" lon="-7.9961083"><ele>953.0</ele><time>2026-04-04T08:33:22.824Z</time></trkpt><trkpt lat="42.081835" lon="-7.9962667"><ele>954.3333333333334</ele><time>2026-04-04T08:33:23.824Z</time></trkpt><trkpt lat="42.0819133" lon="-7.9964367"><ele>955.6666666666667</ele><time>2026-04-04T08:33:24.824Z</time></trkpt><trkpt lat="42.0820033" lon="-7.9966083"><ele>957.0</ele><time>2026-04-04T08:33:25.825Z</time></trkpt><trkpt lat="42.0820983" lon="-7.9968033"><ele>957.6666666666667</ele><time>2026-04-04T08:33:26.827Z</time></trkpt><trkpt lat="42.082195" lon="-7.997"><ele>958.3333333333334</ele><time>2026-04-04T08:33:27.823Z</time></trkpt><trkpt lat="42.0822967" lon="-7.99721"><ele>959.0</ele><time>2026-04-04T08:33:28.824Z</time></trkpt><trkpt lat="42.0823867" lon="-7.9974"><ele>962.0</ele><time>2026-04-04T08:33:29.824Z</time></trkpt><trkpt lat="42.0824667" lon="-7.99756"><ele>965.0</ele><time>2026-04-04T08:33:30.825Z</time></trkpt><trkpt lat="42.08254" lon="-7.9977033"><ele>968.0</ele><time>2026-04-04T08:33:31.823Z</time></trkpt><trkpt lat="42.082605" lon="-7.9978233"><ele>971.0</ele><time>2026-04-04T08:33:32.824Z</time></trkpt><trkpt lat="42.0826667" lon="-7.9979417"><ele>971.0</ele><time>2026-04-04T08:33:33.825Z</time></trkpt><trkpt lat="42.0827317" lon="-7.9980733"><ele>971.0</ele><time>2026-04-04T08:33:34.824Z</time></trkpt><trkpt lat="42.082805" lon="-7.9982067"><ele>971.0</ele><time>2026-04-04T08:33:35.824Z</time></trkpt><trkpt lat="42.0828833" lon="-7.9983433"><ele>971.0</ele><time>2026-04-04T08:33:36.824Z</time></trkpt><trkpt lat="42.08296" lon="-7.998485"><ele>972.0</ele><time>2026-04-04T08:33:37.824Z</time></trkpt><trkpt lat="42.0830383" lon="-7.9986267"><ele>973.0</ele><time>2026-04-04T08:33:38.824Z</time></trkpt><trkpt lat="42.0831133" lon="-7.998765"><ele>974.0</ele><time>2026-04-04T08:33:39.824Z</time></trkpt><trkpt lat="42.0831967" lon="-7.99891"><ele>975.0</ele><time>2026-04-04T08:33:40.824Z</time></trkpt><trkpt lat="42.0832733" lon="-7.999055"><ele>974.5</ele><time>2026-04-04T08:33:41.824Z</time></trkpt><trkpt lat="42.083345" lon="-7.9992033"><ele>974.0</ele><time>2026-04-04T08:33:42.824Z</time></trkpt><trkpt lat="42.08341" lon="-7.9993567"><ele>973.5</ele><time>2026-04-04T08:33:43.824Z</time></trkpt><trkpt lat="42.0834617" lon="-7.999495"><ele>973.0</ele><time>2026-04-04T08:33:44.825Z</time></trkpt><trkpt lat="42.0834967" lon="-7.9996317"><ele>973.0</ele><time>2026-04-04T08:33:45.823Z</time></trkpt><trkpt lat="42.0835067" lon="-7.9997583"><ele>973.0</ele><time>2026-04-04T08:33:46.823Z</time></trkpt><trkpt lat="42.0835033" lon="-7.9998733"><ele>973.0</ele><time>2026-04-04T08:33:47.823Z</time></trkpt><trkpt lat="42.0834783" lon="-7.9999933"><ele>973.0</ele><time>2026-04-04T08:33:48.825Z</time></trkpt><trkpt lat="42.0834283" lon="-8.000125"><ele>973.0</ele><time>2026-04-04T08:33:49.825Z</time></trkpt><trkpt lat="42.0833683" lon="-8.0002533"><ele>973.0</ele><time>2026-04-04T08:33:50.824Z</time></trkpt><trkpt lat="42.0833133" lon="-8.0003733"><ele>973.0</ele><time>2026-04-04T08:33:51.823Z</time></trkpt><trkpt lat="42.0832583" lon="-8.0004883"><ele>973.0</ele><time>2026-04-04T08:33:52.824Z</time></trkpt><trkpt lat="42.08318" lon="-8.000605"><ele>973.0</ele><time>2026-04-04T08:33:53.825Z</time></trkpt><trkpt lat="42.08307" lon="-8.0007167"><ele>974.3333333333333</ele><time>2026-04-04T08:33:54.826Z</time></trkpt><trkpt lat="42.08294" lon="-8.0008317"><ele>975.6666666666667</ele><time>2026-04-04T08:33:55.827Z</time></trkpt><trkpt lat="42.08281" lon="-8.0009383"><ele>977.0</ele><time>2026-04-04T08:33:56.826Z</time></trkpt><trkpt lat="42.0826867" lon="-8.0010383"><ele>977.0</ele><time>2026-04-04T08:33:57.822Z</time></trkpt><trkpt lat="42.0825767" lon="-8.00113"><ele>977.0</ele><time>2026-04-04T08:33:58.822Z</time></trkpt><trkpt lat="42.0824683" lon="-8.0012117"><ele>977.0</ele><time>2026-04-04T08:33:59.824Z</time></trkpt><trkpt lat="42.0823567" lon="-8.0012817"><ele>977.0</ele><time>2026-04-04T08:34:00.823Z</time></trkpt><trkpt lat="42.082245" lon="-8.0013467"><ele>977.25</ele><time>2026-04-04T08:34:01.825Z</time></trkpt><trkpt lat="42.082135" lon="-8.0014217"><ele>977.5</ele><time>2026-04-04T08:34:02.825Z</time></trkpt><trkpt lat="42.0820217" lon="-8.0015067"><ele>977.75</ele><time>2026-04-04T08:34:03.823Z</time></trkpt><trkpt lat="42.0819133" lon="-8.0015967"><ele>978.0</ele><time>2026-04-04T08:34:04.823Z</time></trkpt><trkpt lat="42.0818067" lon="-8.0016833"><ele>978.25</ele><time>2026-04-04T08:34:05.823Z</time></trkpt><trkpt lat="42.0816917" lon="-8.0017633"><ele>978.5</ele><time>2026-04-04T08:34:06.823Z</time></trkpt><trkpt lat="42.08157" lon="-8.00185"><ele>978.75</ele><time>2026-04-04T08:34:07.823Z</time></trkpt><trkpt lat="42.0814517" lon="-8.0019467"><ele>979.0</ele><time>2026-04-04T08:34:08.824Z</time></trkpt><trkpt lat="42.0813317" lon="-8.0020417"><ele>977.75</ele><time>2026-04-04T08:34:09.823Z</time></trkpt><trkpt lat="42.0812183" lon="-8.0021317"><ele>976.5</ele><time>2026-04-04T08:34:10.823Z</time></trkpt><trkpt lat="42.0811083" lon="-8.0022233"><ele>975.25</ele><time>2026-04-04T08:34:11.824Z</time></trkpt><trkpt lat="42.0809983" lon="-8.0023117"><ele>974.0</ele><time>2026-04-04T08:34:12.823Z</time></trkpt><trkpt lat="42.0808733" lon="-8.0023917"><ele>974.5</ele><time>2026-04-04T08:34:13.827Z</time></trkpt><trkpt lat="42.08074" lon="-8.00247"><ele>975.0</ele><time>2026-04-04T08:34:14.824Z</time></trkpt><trkpt lat="42.080605" lon="-8.002565"><ele>975.5</ele><time>2026-04-04T08:34:15.824Z</time></trkpt><trkpt lat="42.0804717" lon="-8.002655"><ele>976.0</ele><time>2026-04-04T08:34:16.826Z</time></trkpt><trkpt lat="42.08034" lon="-8.0027517"><ele>976.25</ele><time>2026-04-04T08:34:17.824Z</time></trkpt><trkpt lat="42.08021" lon="-8.0028433"><ele>976.5</ele><time>2026-04-04T08:34:18.824Z</time></trkpt><trkpt lat="42.0800833" lon="-8.0029283"><ele>976.75</ele><time>2026-04-04T08:34:19.824Z</time></trkpt><trkpt lat="42.0799583" lon="-8.00301"><ele>977.0</ele><time>2026-04-04T08:34:20.825Z</time></trkpt><trkpt lat="42.0798333" lon="-8.0030867"><ele>976.5</ele><time>2026-04-04T08:34:21.824Z</time></trkpt><trkpt lat="42.0797083" lon="-8.0031583"><ele>976.0</ele><time>2026-04-04T08:34:22.825Z</time></trkpt><trkpt lat="42.0795883" lon="-8.0032317"><ele>975.5</ele><time>2026-04-04T08:34:23.824Z</time></trkpt><trkpt lat="42.07947" lon="-8.003295"><ele>975.0</ele><time>2026-04-04T08:34:24.826Z</time></trkpt><trkpt lat="42.0793567" lon="-8.0033467"><ele>975.0</ele><time>2026-04-04T08:34:25.823Z</time></trkpt><trkpt lat="42.079275" lon="-8.003395"><ele>974.9999999999999</ele><time>2026-04-04T08:34:26.824Z</time></trkpt><trkpt lat="42.0792333" lon="-8.00346"><ele>975.0</ele><time>2026-04-04T08:34:27.824Z</time></trkpt><trkpt lat="42.07919" lon="-8.0035283"><ele>975.0</ele><time>2026-04-04T08:34:28.824Z</time></trkpt><trkpt lat="42.0791617" lon="-8.00361"><ele>974.9999999999999</ele><time>2026-04-04T08:34:29.823Z</time></trkpt><trkpt lat="42.0791367" lon="-8.003695"><ele>975.0</ele><time>2026-04-04T08:34:30.823Z</time></trkpt><trkpt lat="42.079115" lon="-8.0038183"><ele>975.0</ele><time>2026-04-04T08:34:31.824Z</time></trkpt><trkpt lat="42.07908" lon="-8.0039533"><ele>974.0</ele><time>2026-04-04T08:34:32.826Z</time></trkpt><trkpt lat="42.0790283" lon="-8.0041183"><ele>973.0</ele><time>2026-04-04T08:34:33.823Z</time></trkpt><trkpt lat="42.0789783" lon="-8.004275"><ele>972.0</ele><time>2026-04-04T08:34:34.823Z</time></trkpt><trkpt lat="42.07893" lon="-8.00445"><ele>971.0</ele><time>2026-04-04T08:34:35.823Z</time></trkpt><trkpt lat="42.0788883" lon="-8.004625"><ele>970.0</ele><time>2026-04-04T08:34:36.823Z</time></trkpt><trkpt lat="42.0788467" lon="-8.0047933"><ele>969.0</ele><time>2026-04-04T08:34:37.823Z</time></trkpt><trkpt lat="42.078815" lon="-8.00495"><ele>968.0</ele><time>2026-04-04T08:34:38.824Z</time></trkpt><trkpt lat="42.0787867" lon="-8.0050983"><ele>967.0</ele><time>2026-04-04T08:34:39.823Z</time></trkpt><trkpt lat="42.0787483" lon="-8.0052433"><ele>966.5</ele><time>2026-04-04T08:34:40.823Z</time></trkpt><trkpt lat="42.0786817" lon="-8.00538"><ele>966.0</ele><time>2026-04-04T08:34:41.826Z</time></trkpt><trkpt lat="42.0786017" lon="-8.0055"><ele>965.5</ele><time>2026-04-04T08:34:42.826Z</time></trkpt><trkpt lat="42.0785117" lon="-8.0056"><ele>965.0</ele><time>2026-04-04T08:34:43.826Z</time></trkpt><trkpt lat="42.0784117" lon="-8.0056883"><ele>965.0</ele><time>2026-04-04T08:34:44.824Z</time></trkpt><trkpt lat="42.0783117" lon="-8.005765"><ele>965.0</ele><time>2026-04-04T08:34:45.824Z</time></trkpt><trkpt lat="42.0782217" lon="-8.0058383"><ele>965.0</ele><time>2026-04-04T08:34:46.824Z</time></trkpt><trkpt lat="42.07815" lon="-8.0059117"><ele>965.0</ele><time>2026-04-04T08:34:47.824Z</time></trkpt><trkpt lat="42.0780967" lon="-8.0059817"><ele>965.0</ele><time>2026-04-04T08:34:48.825Z</time></trkpt><trkpt lat="42.0780283" lon="-8.006105"><ele>964.5000000000001</ele><time>2026-04-04T08:34:50.826Z</time></trkpt><trkpt lat="42.07802" lon="-8.0062017"><ele>964.0</ele><time>2026-04-04T08:34:52.824Z</time></trkpt><trkpt lat="42.0780783" lon="-8.00632"><ele>963.5</ele><time>2026-04-04T08:34:54.824Z</time></trkpt><trkpt lat="42.078155" lon="-8.0063883"><ele>963.0</ele><time>2026-04-04T08:34:55.824Z</time></trkpt><trkpt lat="42.0782183" lon="-8.006465"><ele>962.5000000000001</ele><time>2026-04-04T08:34:56.825Z</time></trkpt><trkpt lat="42.07828" lon="-8.006555"><ele>962.0</ele><time>2026-04-04T08:34:57.824Z</time></trkpt><trkpt lat="42.0783417" lon="-8.0066767"><ele>961.8</ele><time>2026-04-04T08:34:58.824Z</time></trkpt><trkpt lat="42.07837" lon="-8.0067867"><ele>961.6</ele><time>2026-04-04T08:34:59.826Z</time></trkpt><trkpt lat="42.07837" lon="-8.0069033"><ele>961.3999999999999</ele><time>2026-04-04T08:35:00.822Z</time></trkpt><trkpt lat="42.07832" lon="-8.0070467"><ele>961.1999999999999</ele><time>2026-04-04T08:35:01.824Z</time></trkpt><trkpt lat="42.07827" lon="-8.0071667"><ele>961.0</ele><time>2026-04-04T08:35:02.826Z</time></trkpt><trkpt lat="42.0781833" lon="-8.0073017"><ele>960.5</ele><time>2026-04-04T08:35:03.823Z</time></trkpt><trkpt lat="42.078085" lon="-8.0074383"><ele>960.0</ele><time>2026-04-04T08:35:04.826Z</time></trkpt><trkpt lat="42.0779967" lon="-8.007565"><ele>959.5</ele><time>2026-04-04T08:35:05.823Z</time></trkpt><trkpt lat="42.0779033" lon="-8.0076817"><ele>959.0</ele><time>2026-04-04T08:35:06.824Z</time></trkpt><trkpt lat="42.0778117" lon="-8.007765"><ele>959.4000000000001</ele><time>2026-04-04T08:35:07.826Z</time></trkpt><trkpt lat="42.077705" lon="-8.0077983"><ele>959.8000000000001</ele><time>2026-04-04T08:35:08.826Z</time></trkpt><trkpt lat="42.0775967" lon="-8.0077933"><ele>960.1999999999999</ele><time>2026-04-04T08:35:09.824Z</time></trkpt><trkpt lat="42.077485" lon="-8.0077633"><ele>960.5999999999999</ele><time>2026-04-04T08:35:10.827Z</time></trkpt><trkpt lat="42.0773733" lon="-8.0077233"><ele>961.0</ele><time>2026-04-04T08:35:11.823Z</time></trkpt><trkpt lat="42.077255" lon="-8.007685"><ele>961.0</ele><time>2026-04-04T08:35:12.824Z</time></trkpt><trkpt lat="42.07714" lon="-8.0076667"><ele>960.9999999999999</ele><time>2026-04-04T08:35:13.828Z</time></trkpt><trkpt lat="42.0770333" lon="-8.00769"><ele>960.9999999999999</ele><time>2026-04-04T08:35:14.825Z</time></trkpt><trkpt lat="42.0769417" lon="-8.0077633"><ele>961.0</ele><time>2026-04-04T08:35:15.823Z</time></trkpt><trkpt lat="42.076855" lon="-8.007855"><ele>961.0</ele><time>2026-04-04T08:35:16.823Z</time></trkpt><trkpt lat="42.0767717" lon="-8.00797"><ele>961.0</ele><time>2026-04-04T08:35:17.823Z</time></trkpt><trkpt lat="42.076695" lon="-8.0080883"><ele>961.0</ele><time>2026-04-04T08:35:18.823Z</time></trkpt><trkpt lat="42.076625" lon="-8.00822"><ele>961.0</ele><time>2026-04-04T08:35:19.823Z</time></trkpt><trkpt lat="42.0765667" lon="-8.0083733"><ele>961.0</ele><time>2026-04-04T08:35:20.824Z</time></trkpt><trkpt lat="42.07651" lon="-8.0085317"><ele>961.25</ele><time>2026-04-04T08:35:21.824Z</time></trkpt><trkpt lat="42.0764517" lon="-8.008695"><ele>961.5</ele><time>2026-04-04T08:35:22.823Z</time></trkpt><trkpt lat="42.0763917" lon="-8.0088533"><ele>961.75</ele><time>2026-04-04T08:35:23.824Z</time></trkpt><trkpt lat="42.0763333" lon="-8.0090167"><ele>962.0</ele><time>2026-04-04T08:35:24.826Z</time></trkpt><trkpt lat="42.0762683" lon="-8.009185"><ele>964.0</ele><time>2026-04-04T08:35:25.823Z</time></trkpt><trkpt lat="42.076205" lon="-8.0093517"><ele>966.0</ele><time>2026-04-04T08:35:26.824Z</time></trkpt><trkpt lat="42.0761367" lon="-8.0095133"><ele>968.0</ele><time>2026-04-04T08:35:27.824Z</time></trkpt><trkpt lat="42.0760683" lon="-8.009675"><ele>970.0</ele><time>2026-04-04T08:35:28.825Z</time></trkpt><trkpt lat="42.0760017" lon="-8.0098317"><ele>970.0</ele><time>2026-04-04T08:35:29.824Z</time></trkpt><trkpt lat="42.0759383" lon="-8.0099833"><ele>970.0</ele><time>2026-04-04T08:35:30.823Z</time></trkpt><trkpt lat="42.075875" lon="-8.0101317"><ele>970.0</ele><time>2026-04-04T08:35:31.825Z</time></trkpt><trkpt lat="42.07582" lon="-8.010265"><ele>970.0</ele><time>2026-04-04T08:35:32.824Z</time></trkpt><trkpt lat="42.0757733" lon="-8.01038"><ele>969.8333333333333</ele><time>2026-04-04T08:35:33.823Z</time></trkpt><trkpt lat="42.0757367" lon="-8.0104733"><ele>969.6666666666666</ele><time>2026-04-04T08:35:34.824Z</time></trkpt><trkpt lat="42.0756983" lon="-8.0105433"><ele>969.5</ele><time>2026-04-04T08:35:35.823Z</time></trkpt><trkpt lat="42.0755883" lon="-8.0106183"><ele>969.3333333333333</ele><time>2026-04-04T08:35:37.824Z</time></trkpt><trkpt lat="42.0755267" lon="-8.01067"><ele>969.1666666666666</ele><time>2026-04-04T08:35:38.827Z</time></trkpt><trkpt lat="42.0754533" lon="-8.010745"><ele>969.0</ele><time>2026-04-04T08:35:39.823Z</time></trkpt><trkpt lat="42.075365" lon="-8.0108333"><ele>969.8000000000001</ele><time>2026-04-04T08:35:40.823Z</time></trkpt><trkpt lat="42.0752817" lon="-8.0109533"><ele>970.6000000000001</ele><time>2026-04-04T08:35:41.823Z</time></trkpt><trkpt lat="42.07521" lon="-8.0110667"><ele>971.4</ele><time>2026-04-04T08:35:42.823Z</time></trkpt><trkpt lat="42.075135" lon="-8.0111567"><ele>972.2</ele><time>2026-04-04T08:35:43.823Z</time></trkpt><trkpt lat="42.0750583" lon="-8.0112233"><ele>973.0</ele><time>2026-04-04T08:35:44.823Z</time></trkpt><trkpt lat="42.0749683" lon="-8.0112733"><ele>971.9999999999999</ele><time>2026-04-04T08:35:45.822Z</time></trkpt><trkpt lat="42.0748733" lon="-8.01132"><ele>971.0</ele><time>2026-04-04T08:35:46.822Z</time></trkpt><trkpt lat="42.0747967" lon="-8.0113717"><ele>970.0</ele><time>2026-04-04T08:35:47.823Z</time></trkpt><trkpt lat="42.0747367" lon="-8.01142"><ele>969.0</ele><time>2026-04-04T08:35:48.823Z</time></trkpt><trkpt lat="42.0747" lon="-8.0114933"><ele>967.9999999999999</ele><time>2026-04-04T08:35:49.824Z</time></trkpt><trkpt lat="42.07466" lon="-8.0115717"><ele>967.0</ele><time>2026-04-04T08:35:50.824Z</time></trkpt><trkpt lat="42.0746433" lon="-8.0116667"><ele>967.0</ele><time>2026-04-04T08:35:51.823Z</time></trkpt><trkpt lat="42.0746533" lon="-8.011785"><ele>967.0</ele><time>2026-04-04T08:35:52.824Z</time></trkpt><trkpt lat="42.0747367" lon="-8.01195"><ele>967.0</ele><time>2026-04-04T08:35:53.823Z</time></trkpt><trkpt lat="42.0747967" lon="-8.0120817"><ele>967.0</ele><time>2026-04-04T08:35:54.823Z</time></trkpt><trkpt lat="42.0748183" lon="-8.0121867"><ele>967.0</ele><time>2026-04-04T08:35:55.823Z</time></trkpt><trkpt lat="42.0748383" lon="-8.01229"><ele>967.0</ele><time>2026-04-04T08:35:56.823Z</time></trkpt><trkpt lat="42.074845" lon="-8.01238"><ele>967.0</ele><time>2026-04-04T08:35:57.822Z</time></trkpt><trkpt lat="42.0748183" lon="-8.0125333"><ele>967.0</ele><time>2026-04-04T08:35:59.822Z</time></trkpt><trkpt lat="42.0747683" lon="-8.0126167"><ele>967.0</ele><time>2026-04-04T08:36:00.823Z</time></trkpt><trkpt lat="42.0746983" lon="-8.0127083"><ele>967.0</ele><time>2026-04-04T08:36:01.825Z</time></trkpt><trkpt lat="42.074615" lon="-8.01279"><ele>966.75</ele><time>2026-04-04T08:36:02.822Z</time></trkpt><trkpt lat="42.0745233" lon="-8.0128717"><ele>966.5</ele><time>2026-04-04T08:36:03.822Z</time></trkpt><trkpt lat="42.0744133" lon="-8.0129617"><ele>966.25</ele><time>2026-04-04T08:36:04.822Z</time></trkpt><trkpt lat="42.0742967" lon="-8.0130483"><ele>966.0</ele><time>2026-04-04T08:36:05.822Z</time></trkpt><trkpt lat="42.07418" lon="-8.0131383"><ele>965.75</ele><time>2026-04-04T08:36:06.822Z</time></trkpt><trkpt lat="42.0740533" lon="-8.0132183"><ele>965.5</ele><time>2026-04-04T08:36:07.822Z</time></trkpt><trkpt lat="42.0739267" lon="-8.0132767"><ele>965.25</ele><time>2026-04-04T08:36:08.823Z</time></trkpt><trkpt lat="42.0738067" lon="-8.0133117"><ele>965.0</ele><time>2026-04-04T08:36:09.825Z</time></trkpt><trkpt lat="42.0736917" lon="-8.0133417"><ele>965.0</ele><time>2026-04-04T08:36:10.822Z</time></trkpt><trkpt lat="42.07358" lon="-8.013375"><ele>965.0</ele><time>2026-04-04T08:36:11.822Z</time></trkpt><trkpt lat="42.07348" lon="-8.0134117"><ele>965.0</ele><time>2026-04-04T08:36:12.825Z</time></trkpt><trkpt lat="42.0733883" lon="-8.0134417"><ele>965.0</ele><time>2026-04-04T08:36:13.822Z</time></trkpt><trkpt lat="42.0733133" lon="-8.0134533"><ele>965.0</ele><time>2026-04-04T08:36:14.823Z</time></trkpt><trkpt lat="42.0732483" lon="-8.01345"><ele>965.0</ele><time>2026-04-04T08:36:15.822Z</time></trkpt><trkpt lat="42.07315" lon="-8.0133833"><ele>965.0</ele><time>2026-04-04T08:36:17.822Z</time></trkpt><trkpt lat="42.0730983" lon="-8.0133117"><ele>965.0</ele><time>2026-04-04T08:36:18.823Z</time></trkpt><trkpt lat="42.07304" lon="-8.0132417"><ele>965.0</ele><time>2026-04-04T08:36:19.823Z</time></trkpt><trkpt lat="42.07298" lon="-8.01316"><ele>965.0</ele><time>2026-04-04T08:36:20.823Z</time></trkpt><trkpt lat="42.07291" lon="-8.0130533"><ele>965.0</ele><time>2026-04-04T08:36:21.822Z</time></trkpt><trkpt lat="42.07282" lon="-8.0129433"><ele>965.0</ele><time>2026-04-04T08:36:22.822Z</time></trkpt><trkpt lat="42.0727233" lon="-8.0128183"><ele>965.0</ele><time>2026-04-04T08:36:23.822Z</time></trkpt><trkpt lat="42.07262" lon="-8.0126817"><ele>965.0</ele><time>2026-04-04T08:36:24.822Z</time></trkpt><trkpt lat="42.0725233" lon="-8.0125517"><ele>966.5</ele><time>2026-04-04T08:36:25.822Z</time></trkpt><trkpt lat="42.0724317" lon="-8.01242"><ele>968.0</ele><time>2026-04-04T08:36:26.824Z</time></trkpt><trkpt lat="42.0723483" lon="-8.01228"><ele>969.5</ele><time>2026-04-04T08:36:27.822Z</time></trkpt><trkpt lat="42.0722667" lon="-8.0121217"><ele>971.0</ele><time>2026-04-04T08:36:28.824Z</time></trkpt><trkpt lat="42.0721783" lon="-8.011965"><ele>971.0</ele><time>2026-04-04T08:36:29.826Z</time></trkpt><trkpt lat="42.07209" lon="-8.0118133"><ele>971.0</ele><time>2026-04-04T08:36:30.822Z</time></trkpt><trkpt lat="42.0720033" lon="-8.01166"><ele>971.0</ele><time>2026-04-04T08:36:31.822Z</time></trkpt><trkpt lat="42.0719133" lon="-8.0115167"><ele>971.0</ele><time>2026-04-04T08:36:32.822Z</time></trkpt><trkpt lat="42.0718317" lon="-8.0113867"><ele>970.5999999999999</ele><time>2026-04-04T08:36:33.822Z</time></trkpt><trkpt lat="42.0717667" lon="-8.011275"><ele>970.1999999999999</ele><time>2026-04-04T08:36:34.822Z</time></trkpt><trkpt lat="42.0717117" lon="-8.0111833"><ele>969.8000000000001</ele><time>2026-04-04T08:36:35.823Z</time></trkpt><trkpt lat="42.0716517" lon="-8.0111167"><ele>969.4000000000001</ele><time>2026-04-04T08:36:36.822Z</time></trkpt><trkpt lat="42.0715817" lon="-8.0110517"><ele>969.0</ele><time>2026-04-04T08:36:37.822Z</time></trkpt><trkpt lat="42.07149" lon="-8.01102"><ele>970.2</ele><time>2026-04-04T08:36:38.823Z</time></trkpt><trkpt lat="42.0713817" lon="-8.0109967"><ele>971.4000000000001</ele><time>2026-04-04T08:36:39.822Z</time></trkpt><trkpt lat="42.0712717" lon="-8.0109833"><ele>972.6</ele><time>2026-04-04T08:36:40.823Z</time></trkpt><trkpt lat="42.0711583" lon="-8.0109717"><ele>973.8</ele><time>2026-04-04T08:36:41.822Z</time></trkpt><trkpt lat="42.0710433" lon="-8.0109733"><ele>975.0</ele><time>2026-04-04T08:36:42.822Z</time></trkpt><trkpt lat="42.07092" lon="-8.010985"><ele>975.0</ele><time>2026-04-04T08:36:43.822Z</time></trkpt><trkpt lat="42.0708017" lon="-8.0109883"><ele>975.0</ele><time>2026-04-04T08:36:44.823Z</time></trkpt><trkpt lat="42.0706783" lon="-8.01098"><ele>975.0</ele><time>2026-04-04T08:36:45.823Z</time></trkpt><trkpt lat="42.070555" lon="-8.0109733"><ele>975.0</ele><time>2026-04-04T08:36:46.822Z</time></trkpt><trkpt lat="42.0704283" lon="-8.0109683"><ele>975.5</ele><time>2026-04-04T08:36:47.826Z</time></trkpt><trkpt lat="42.0702983" lon="-8.010965"><ele>976.0</ele><time>2026-04-04T08:36:48.823Z</time></trkpt><trkpt lat="42.0701767" lon="-8.0109667"><ele>976.5</ele><time>2026-04-04T08:36:49.823Z</time></trkpt><trkpt lat="42.0700617" lon="-8.010975"><ele>977.0</ele><time>2026-04-04T08:36:50.823Z</time></trkpt><trkpt lat="42.069945" lon="-8.0109883"><ele>978.0</ele><time>2026-04-04T08:36:51.822Z</time></trkpt><trkpt lat="42.06983" lon="-8.0110117"><ele>979.0</ele><time>2026-04-04T08:36:52.822Z</time></trkpt><trkpt lat="42.0697133" lon="-8.0110433"><ele>980.0</ele><time>2026-04-04T08:36:53.824Z</time></trkpt><trkpt lat="42.069595" lon="-8.01107"><ele>981.0</ele><time>2026-04-04T08:36:54.822Z</time></trkpt><trkpt lat="42.0694833" lon="-8.0110967"><ele>981.0</ele><time>2026-04-04T08:36:55.823Z</time></trkpt><trkpt lat="42.06938" lon="-8.01111"><ele>980.9999999999999</ele><time>2026-04-04T08:36:56.825Z</time></trkpt><trkpt lat="42.069275" lon="-8.011125"><ele>980.9999999999999</ele><time>2026-04-04T08:36:57.822Z</time></trkpt><trkpt lat="42.0691817" lon="-8.0111417"><ele>981.0</ele><time>2026-04-04T08:36:58.823Z</time></trkpt><trkpt lat="42.0691017" lon="-8.0111633"><ele>981.0</ele><time>2026-04-04T08:36:59.822Z</time></trkpt><trkpt lat="42.069025" lon="-8.0111917"><ele>980.5</ele><time>2026-04-04T08:37:00.822Z</time></trkpt><trkpt lat="42.0689567" lon="-8.01123"><ele>980.0</ele><time>2026-04-04T08:37:01.822Z</time></trkpt><trkpt lat="42.0688917" lon="-8.0112867"><ele>979.5</ele><time>2026-04-04T08:37:02.823Z</time></trkpt><trkpt lat="42.0688383" lon="-8.0113733"><ele>979.0</ele><time>2026-04-04T08:37:03.822Z</time></trkpt><trkpt lat="42.06879" lon="-8.01148"><ele>978.5</ele><time>2026-04-04T08:37:04.823Z</time></trkpt><trkpt lat="42.0687433" lon="-8.0115867"><ele>978.0</ele><time>2026-04-04T08:37:05.824Z</time></trkpt><trkpt lat="42.0686933" lon="-8.0116817"><ele>978.0</ele><time>2026-04-04T08:37:06.822Z</time></trkpt><trkpt lat="42.06863" lon="-8.0117667"><ele>978.0</ele><time>2026-04-04T08:37:07.823Z</time></trkpt><trkpt lat="42.0685567" lon="-8.011855"><ele>978.0</ele><time>2026-04-04T08:37:08.826Z</time></trkpt><trkpt lat="42.068475" lon="-8.0119517"><ele>978.0</ele><time>2026-04-04T08:37:09.822Z</time></trkpt><trkpt lat="42.0683967" lon="-8.0120517"><ele>978.0</ele><time>2026-04-04T08:37:10.823Z</time></trkpt><trkpt lat="42.06832" lon="-8.0121533"><ele>977.2</ele><time>2026-04-04T08:37:11.823Z</time></trkpt><trkpt lat="42.0682433" lon="-8.012255"><ele>976.4</ele><time>2026-04-04T08:37:12.823Z</time></trkpt><trkpt lat="42.0681733" lon="-8.01236"><ele>975.6000000000001</ele><time>2026-04-04T08:37:13.822Z</time></trkpt><trkpt lat="42.0681017" lon="-8.01247"><ele>974.8000000000001</ele><time>2026-04-04T08:37:14.823Z</time></trkpt><trkpt lat="42.0680367" lon="-8.0125733"><ele>974.0</ele><time>2026-04-04T08:37:15.823Z</time></trkpt><trkpt lat="42.0679783" lon="-8.012675"><ele>974.0000000000001</ele><time>2026-04-04T08:37:16.823Z</time></trkpt><trkpt lat="42.0679317" lon="-8.01278"><ele>974.0</ele><time>2026-04-04T08:37:17.823Z</time></trkpt><trkpt lat="42.0678917" lon="-8.0128767"><ele>974.0</ele><time>2026-04-04T08:37:18.823Z</time></trkpt><trkpt lat="42.0678433" lon="-8.012965"><ele>974.0</ele><time>2026-04-04T08:37:19.823Z</time></trkpt><trkpt lat="42.0677817" lon="-8.0130383"><ele>974.0000000000001</ele><time>2026-04-04T08:37:20.823Z</time></trkpt><trkpt lat="42.0677017" lon="-8.013095"><ele>974.0</ele><time>2026-04-04T08:37:21.823Z</time></trkpt><trkpt lat="42.0676117" lon="-8.0131333"><ele>974.0</ele><time>2026-04-04T08:37:22.823Z</time></trkpt><trkpt lat="42.06752" lon="-8.01317"><ele>974.0000000000001</ele><time>2026-04-04T08:37:23.823Z</time></trkpt><trkpt lat="42.0674317" lon="-8.013195"><ele>974.0000000000001</ele><time>2026-04-04T08:37:24.824Z</time></trkpt><trkpt lat="42.0673417" lon="-8.0131967"><ele>974.0</ele><time>2026-04-04T08:37:25.823Z</time></trkpt><trkpt lat="42.0672433" lon="-8.0131883"><ele>974.0</ele><time>2026-04-04T08:37:26.826Z</time></trkpt><trkpt lat="42.0671367" lon="-8.0131817"><ele>973.6</ele><time>2026-04-04T08:37:27.822Z</time></trkpt><trkpt lat="42.067035" lon="-8.0131733"><ele>973.2</ele><time>2026-04-04T08:37:28.823Z</time></trkpt><trkpt lat="42.0669367" lon="-8.0131667"><ele>972.8000000000001</ele><time>2026-04-04T08:37:29.823Z</time></trkpt><trkpt lat="42.0668367" lon="-8.0131633"><ele>972.4000000000001</ele><time>2026-04-04T08:37:30.824Z</time></trkpt><trkpt lat="42.06674" lon="-8.0131733"><ele>972.0</ele><time>2026-04-04T08:37:31.824Z</time></trkpt><trkpt lat="42.066655" lon="-8.0131917"><ele>971.0</ele><time>2026-04-04T08:37:32.826Z</time></trkpt><trkpt lat="42.0665817" lon="-8.0132117"><ele>970.0</ele><time>2026-04-04T08:37:33.822Z</time></trkpt><trkpt lat="42.0665183" lon="-8.0132183"><ele>969.0</ele><time>2026-04-04T08:37:34.823Z</time></trkpt><trkpt lat="42.0663933" lon="-8.0131867"><ele>968.0</ele><time>2026-04-04T08:37:36.823Z</time></trkpt><trkpt lat="42.0663167" lon="-8.0131517"><ele>967.0</ele><time>2026-04-04T08:37:37.823Z</time></trkpt><trkpt lat="42.0662267" lon="-8.013095"><ele>966.0</ele><time>2026-04-04T08:37:38.825Z</time></trkpt><trkpt lat="42.0661417" lon="-8.0130283"><ele>966.0</ele><time>2026-04-04T08:37:39.822Z</time></trkpt><trkpt lat="42.0660583" lon="-8.01295"><ele>965.9999999999999</ele><time>2026-04-04T08:37:40.823Z</time></trkpt><trkpt lat="42.0659733" lon="-8.0128567"><ele>965.9999999999999</ele><time>2026-04-04T08:37:41.823Z</time></trkpt><trkpt lat="42.065885" lon="-8.0127633"><ele>966.0</ele><time>2026-04-04T08:37:42.822Z</time></trkpt><trkpt lat="42.065785" lon="-8.0126733"><ele>966.0</ele><time>2026-04-04T08:37:43.823Z</time></trkpt><trkpt lat="42.065685" lon="-8.0125717"><ele>962.25</ele><time>2026-04-04T08:37:44.823Z</time></trkpt><trkpt lat="42.0655817" lon="-8.0124733"><ele>958.5</ele><time>2026-04-04T08:37:45.822Z</time></trkpt><trkpt lat="42.06548" lon="-8.012395"><ele>954.75</ele><time>2026-04-04T08:37:46.822Z</time></trkpt><trkpt lat="42.0653833" lon="-8.0123267"><ele>951.0</ele><time>2026-04-04T08:37:47.823Z</time></trkpt><trkpt lat="42.0652867" lon="-8.012255"><ele>951.0</ele><time>2026-04-04T08:37:48.822Z</time></trkpt><trkpt lat="42.0652" lon="-8.01218"><ele>950.9999999999999</ele><time>2026-04-04T08:37:49.823Z</time></trkpt><trkpt lat="42.065125" lon="-8.0121017"><ele>950.9999999999999</ele><time>2026-04-04T08:37:50.823Z</time></trkpt><trkpt lat="42.06505" lon="-8.01202"><ele>951.0</ele><time>2026-04-04T08:37:51.822Z</time></trkpt><trkpt lat="42.0649817" lon="-8.011935"><ele>951.0</ele><time>2026-04-04T08:37:52.822Z</time></trkpt><trkpt lat="42.06491" lon="-8.0118417"><ele>949.0</ele><time>2026-04-04T08:37:53.824Z</time></trkpt><trkpt lat="42.06484" lon="-8.0117433"><ele>946.9999999999999</ele><time>2026-04-04T08:37:54.822Z</time></trkpt><trkpt lat="42.0647733" lon="-8.01164"><ele>944.9999999999999</ele><time>2026-04-04T08:37:55.823Z</time></trkpt><trkpt lat="42.0647083" lon="-8.0115383"><ele>943.0</ele><time>2026-04-04T08:37:56.823Z</time></trkpt><trkpt lat="42.0646467" lon="-8.0114383"><ele>941.0</ele><time>2026-04-04T08:37:57.823Z</time></trkpt><trkpt lat="42.06459" lon="-8.0113383"><ele>940.8</ele><time>2026-04-04T08:37:58.823Z</time></trkpt><trkpt lat="42.0645367" lon="-8.01123"><ele>940.5999999999999</ele><time>2026-04-04T08:37:59.823Z</time></trkpt><trkpt lat="42.0644867" lon="-8.011105"><ele>940.4</ele><time>2026-04-04T08:38:00.822Z</time></trkpt><trkpt lat="42.0644367" lon="-8.01097"><ele>940.2</ele><time>2026-04-04T08:38:01.824Z</time></trkpt><trkpt lat="42.0643917" lon="-8.0108233"><ele>940.0</ele><time>2026-04-04T08:38:02.823Z</time></trkpt><trkpt lat="42.0643467" lon="-8.0106817"><ele>939.75</ele><time>2026-04-04T08:38:03.823Z</time></trkpt><trkpt lat="42.0643017" lon="-8.0105433"><ele>939.5</ele><time>2026-04-04T08:38:04.823Z</time></trkpt><trkpt lat="42.0642467" lon="-8.0104067"><ele>939.25</ele><time>2026-04-04T08:38:05.824Z</time></trkpt><trkpt lat="42.0641833" lon="-8.0102767"><ele>939.0</ele><time>2026-04-04T08:38:06.822Z</time></trkpt><trkpt lat="42.0640967" lon="-8.0101667"><ele>938.0</ele><time>2026-04-04T08:38:07.823Z</time></trkpt><trkpt lat="42.064005" lon="-8.0100567"><ele>937.0</ele><time>2026-04-04T08:38:08.823Z</time></trkpt><trkpt lat="42.063905" lon="-8.009945"><ele>936.0</ele><time>2026-04-04T08:38:09.824Z</time></trkpt><trkpt lat="42.0638117" lon="-8.0098417"><ele>935.0</ele><time>2026-04-04T08:38:10.822Z</time></trkpt><trkpt lat="42.06371" lon="-8.0097383"><ele>935.0</ele><time>2026-04-04T08:38:11.823Z</time></trkpt><trkpt lat="42.0636167" lon="-8.0096417"><ele>935.0</ele><time>2026-04-04T08:38:12.823Z</time></trkpt><trkpt lat="42.0635183" lon="-8.0095467"><ele>935.0</ele><time>2026-04-04T08:38:13.824Z</time></trkpt><trkpt lat="42.063425" lon="-8.009445"><ele>935.0</ele><time>2026-04-04T08:38:14.822Z</time></trkpt><trkpt lat="42.0633283" lon="-8.0093317"><ele>933.2</ele><time>2026-04-04T08:38:15.823Z</time></trkpt><trkpt lat="42.0632383" lon="-8.0092117"><ele>931.4</ele><time>2026-04-04T08:38:16.823Z</time></trkpt><trkpt lat="42.06316" lon="-8.0091167"><ele>929.5999999999999</ele><time>2026-04-04T08:38:17.825Z</time></trkpt><trkpt lat="42.0631017" lon="-8.009045"><ele>927.8</ele><time>2026-04-04T08:38:18.823Z</time></trkpt><trkpt lat="42.06305" lon="-8.0089917"><ele>926.0</ele><time>2026-04-04T08:38:19.822Z</time></trkpt><trkpt lat="42.063095" lon="-8.0091167"><ele>926.0</ele><time>2026-04-04T08:38:27.823Z</time></trkpt><trkpt lat="42.0631817" lon="-8.0092667"><ele>925.9999999999999</ele><time>2026-04-04T08:38:29.823Z</time></trkpt><trkpt lat="42.0632117" lon="-8.0093633"><ele>925.9999999999999</ele><time>2026-04-04T08:38:30.823Z</time></trkpt><trkpt lat="42.06324" lon="-8.00947"><ele>926.0</ele><time>2026-04-04T08:38:31.824Z</time></trkpt><trkpt lat="42.0632533" lon="-8.0096217"><ele>926.0</ele><time>2026-04-04T08:38:32.824Z</time></trkpt><trkpt lat="42.0632667" lon="-8.0097367"><ele>927.4</ele><time>2026-04-04T08:38:33.822Z</time></trkpt><trkpt lat="42.063285" lon="-8.009855"><ele>928.8</ele><time>2026-04-04T08:38:34.823Z</time></trkpt><trkpt lat="42.063285" lon="-8.0099967"><ele>930.1999999999999</ele><time>2026-04-04T08:38:35.823Z</time></trkpt><trkpt lat="42.0632933" lon="-8.0101267"><ele>931.5999999999999</ele><time>2026-04-04T08:38:36.823Z</time></trkpt><trkpt lat="42.0632967" lon="-8.0102433"><ele>933.0</ele><time>2026-04-04T08:38:37.822Z</time></trkpt><trkpt lat="42.0632917" lon="-8.01035"><ele>931.2</ele><time>2026-04-04T08:38:38.823Z</time></trkpt><trkpt lat="42.0632783" lon="-8.0104617"><ele>929.4</ele><time>2026-04-04T08:38:39.823Z</time></trkpt><trkpt lat="42.0632533" lon="-8.010585"><ele>927.6000000000001</ele><time>2026-04-04T08:38:40.824Z</time></trkpt><trkpt lat="42.063215" lon="-8.0107083"><ele>925.8000000000001</ele><time>2026-04-04T08:38:41.823Z</time></trkpt><trkpt lat="42.06317" lon="-8.0108267"><ele>924.0</ele><time>2026-04-04T08:38:42.824Z</time></trkpt><trkpt lat="42.0631233" lon="-8.0109733"><ele>924.0</ele><time>2026-04-04T08:38:43.823Z</time></trkpt><trkpt lat="42.06308" lon="-8.01111"><ele>924.0000000000001</ele><time>2026-04-04T08:38:44.823Z</time></trkpt><trkpt lat="42.0630383" lon="-8.0112467"><ele>924.0000000000001</ele><time>2026-04-04T08:38:45.823Z</time></trkpt><trkpt lat="42.063005" lon="-8.0113717"><ele>924.0</ele><time>2026-04-04T08:38:46.823Z</time></trkpt><trkpt lat="42.0629767" lon="-8.0114867"><ele>924.0</ele><time>2026-04-04T08:38:47.823Z</time></trkpt><trkpt lat="42.062955" lon="-8.0115967"><ele>924.2</ele><time>2026-04-04T08:38:48.824Z</time></trkpt><trkpt lat="42.0629417" lon="-8.01171"><ele>924.4000000000001</ele><time>2026-04-04T08:38:49.823Z</time></trkpt><trkpt lat="42.062925" lon="-8.0118167"><ele>924.6</ele><time>2026-04-04T08:38:50.823Z</time></trkpt><trkpt lat="42.0629283" lon="-8.0119567"><ele>924.8</ele><time>2026-04-04T08:38:52.824Z</time></trkpt><trkpt lat="42.0629883" lon="-8.0120467"><ele>925.0</ele><time>2026-04-04T08:38:54.823Z</time></trkpt><trkpt lat="42.0630967" lon="-8.012085"><ele>924.9999999999999</ele><time>2026-04-04T08:38:56.824Z</time></trkpt><trkpt lat="42.06316" lon="-8.0121217"><ele>925.0</ele><time>2026-04-04T08:38:57.822Z</time></trkpt><trkpt lat="42.063225" lon="-8.0121683"><ele>925.0</ele><time>2026-04-04T08:38:58.822Z</time></trkpt><trkpt lat="42.0633233" lon="-8.012255"><ele>925.0</ele><time>2026-04-04T08:39:00.824Z</time></trkpt><trkpt lat="42.0633883" lon="-8.0123433"><ele>924.9999999999999</ele><time>2026-04-04T08:39:02.823Z</time></trkpt><trkpt lat="42.0633267" lon="-8.012435"><ele>925.0</ele><time>2026-04-04T08:39:05.824Z</time></trkpt><trkpt lat="42.0632433" lon="-8.0124717"><ele>925.6666666666666</ele><time>2026-04-04T08:39:06.823Z</time></trkpt><trkpt lat="42.0631533" lon="-8.0125"><ele>926.3333333333333</ele><time>2026-04-04T08:39:07.826Z</time></trkpt><trkpt lat="42.0630683" lon="-8.012515"><ele>927.0</ele><time>2026-04-04T08:39:09.823Z</time></trkpt><trkpt lat="42.0630017" lon="-8.0125317"><ele>927.6666666666667</ele><time>2026-04-04T08:39:11.823Z</time></trkpt><trkpt lat="42.062935" lon="-8.0125817"><ele>928.3333333333334</ele><time>2026-04-04T08:39:13.823Z</time></trkpt><trkpt lat="42.06287" lon="-8.0127"><ele>929.0</ele><time>2026-04-04T08:39:15.823Z</time></trkpt><trkpt lat="42.0628033" lon="-8.0127917"><ele>929.0</ele><time>2026-04-04T08:39:17.823Z</time></trkpt><trkpt lat="42.0627383" lon="-8.012885"><ele>929.0000000000001</ele><time>2026-04-04T08:39:19.824Z</time></trkpt><trkpt lat="42.0626633" lon="-8.0129967"><ele>929.0000000000001</ele><time>2026-04-04T08:39:21.823Z</time></trkpt><trkpt lat="42.0625833" lon="-8.013115"><ele>929.0</ele><time>2026-04-04T08:39:23.823Z</time></trkpt><trkpt lat="42.06254" lon="-8.0132117"><ele>929.0</ele><time>2026-04-04T08:39:25.823Z</time></trkpt><trkpt lat="42.062535" lon="-8.013315"><ele>929.0</ele><time>2026-04-04T08:39:27.823Z</time></trkpt><trkpt lat="42.0625617" lon="-8.0134383"><ele>929.0000000000001</ele><time>2026-04-04T08:39:29.825Z</time></trkpt><trkpt lat="42.0625783" lon="-8.013565"><ele>929.0000000000001</ele><time>2026-04-04T08:39:31.824Z</time></trkpt><trkpt lat="42.0625183" lon="-8.0136833"><ele>929.0</ele><time>2026-04-04T08:39:33.823Z</time></trkpt><trkpt lat="42.06245" lon="-8.0137833"><ele>929.0</ele><time>2026-04-04T08:39:34.823Z</time></trkpt><trkpt lat="42.0624117" lon="-8.013875"><ele>929.0</ele><time>2026-04-04T08:39:35.826Z</time></trkpt><trkpt lat="42.0623517" lon="-8.014005"><ele>929.0</ele><time>2026-04-04T08:39:36.823Z</time></trkpt><trkpt lat="42.0622583" lon="-8.0141417"><ele>929.0</ele><time>2026-04-04T08:39:37.823Z</time></trkpt><trkpt lat="42.0620617" lon="-8.0143567"><ele>933.0</ele><time>2026-04-04T08:39:38.825Z</time></trkpt><trkpt lat="42.0619317" lon="-8.0145083"><ele>937.0</ele><time>2026-04-04T08:39:39.823Z</time></trkpt><trkpt lat="42.061815" lon="-8.014635"><ele>941.0</ele><time>2026-04-04T08:39:40.823Z</time></trkpt><trkpt lat="42.0617" lon="-8.0147267"><ele>939.75</ele><time>2026-04-04T08:39:41.824Z</time></trkpt><trkpt lat="42.061585" lon="-8.0148017"><ele>938.5</ele><time>2026-04-04T08:39:42.824Z</time></trkpt><trkpt lat="42.061465" lon="-8.0148583"><ele>937.25</ele><time>2026-04-04T08:39:43.824Z</time></trkpt><trkpt lat="42.0613267" lon="-8.0149133"><ele>936.0</ele><time>2026-04-04T08:39:44.824Z</time></trkpt><trkpt lat="42.0611933" lon="-8.0149717"><ele>936.1999999999999</ele><time>2026-04-04T08:39:45.822Z</time></trkpt><trkpt lat="42.0610917" lon="-8.0150183"><ele>936.3999999999999</ele><time>2026-04-04T08:39:46.823Z</time></trkpt><trkpt lat="42.0609967" lon="-8.0150583"><ele>936.6</ele><time>2026-04-04T08:39:47.823Z</time></trkpt><trkpt lat="42.0609117" lon="-8.0151"><ele>936.8</ele><time>2026-04-04T08:39:48.822Z</time></trkpt><trkpt lat="42.06083" lon="-8.0151567"><ele>937.0</ele><time>2026-04-04T08:39:49.823Z</time></trkpt><trkpt lat="42.060755" lon="-8.0152333"><ele>937.0</ele><time>2026-04-04T08:39:50.823Z</time></trkpt><trkpt lat="42.0606783" lon="-8.0153167"><ele>937.0</ele><time>2026-04-04T08:39:51.824Z</time></trkpt><trkpt lat="42.0606017" lon="-8.0154117"><ele>937.0</ele><time>2026-04-04T08:39:52.824Z</time></trkpt><trkpt lat="42.06054" lon="-8.0155167"><ele>937.0</ele><time>2026-04-04T08:39:53.823Z</time></trkpt><trkpt lat="42.060485" lon="-8.0156317"><ele>937.0</ele><time>2026-04-04T08:39:54.822Z</time></trkpt><trkpt lat="42.0604467" lon="-8.0157517"><ele>942.0</ele><time>2026-04-04T08:39:55.823Z</time></trkpt><trkpt lat="42.060415" lon="-8.0158833"><ele>947.0</ele><time>2026-04-04T08:39:56.823Z</time></trkpt><trkpt lat="42.06039" lon="-8.0160267"><ele>952.0</ele><time>2026-04-04T08:39:57.823Z</time></trkpt><trkpt lat="42.0603733" lon="-8.016175"><ele>957.0</ele><time>2026-04-04T08:39:58.824Z</time></trkpt><trkpt lat="42.060365" lon="-8.0163317"><ele>962.0</ele><time>2026-04-04T08:39:59.823Z</time></trkpt><trkpt lat="42.060365" lon="-8.0164783"><ele>962.0</ele><time>2026-04-04T08:40:00.825Z</time></trkpt><trkpt lat="42.06036" lon="-8.016615"><ele>962.0</ele><time>2026-04-04T08:40:01.823Z</time></trkpt><trkpt lat="42.06035" lon="-8.016755"><ele>962.0</ele><time>2026-04-04T08:40:02.823Z</time></trkpt><trkpt lat="42.0603233" lon="-8.0168883"><ele>962.0</ele><time>2026-04-04T08:40:03.822Z</time></trkpt><trkpt lat="42.06028" lon="-8.0170083"><ele>962.0</ele><time>2026-04-04T08:40:04.825Z</time></trkpt><trkpt lat="42.0602483" lon="-8.01712"><ele>961.8</ele><time>2026-04-04T08:40:05.824Z</time></trkpt><trkpt lat="42.0602317" lon="-8.0172383"><ele>961.6</ele><time>2026-04-04T08:40:06.823Z</time></trkpt><trkpt lat="42.06022" lon="-8.017365"><ele>961.3999999999999</ele><time>2026-04-04T08:40:07.823Z</time></trkpt><trkpt lat="42.06024" lon="-8.0174917"><ele>961.1999999999999</ele><time>2026-04-04T08:40:08.824Z</time></trkpt><trkpt lat="42.0602833" lon="-8.0176217"><ele>961.0</ele><time>2026-04-04T08:40:09.823Z</time></trkpt><trkpt lat="42.060345" lon="-8.0177767"><ele>961.0</ele><time>2026-04-04T08:40:10.824Z</time></trkpt><trkpt lat="42.06041" lon="-8.0179333"><ele>961.0</ele><time>2026-04-04T08:40:11.824Z</time></trkpt><trkpt lat="42.0604667" lon="-8.0180667"><ele>961.0</ele><time>2026-04-04T08:40:12.824Z</time></trkpt><trkpt lat="42.0605367" lon="-8.0181917"><ele>961.0</ele><time>2026-04-04T08:40:13.822Z</time></trkpt><trkpt lat="42.0606067" lon="-8.0183033"><ele>961.0</ele><time>2026-04-04T08:40:14.823Z</time></trkpt><trkpt lat="42.060685" lon="-8.0184117"><ele>960.9999999999999</ele><time>2026-04-04T08:40:15.824Z</time></trkpt><trkpt lat="42.0607483" lon="-8.0185317"><ele>960.9999999999999</ele><time>2026-04-04T08:40:16.823Z</time></trkpt><trkpt lat="42.0607883" lon="-8.01865"><ele>961.0</ele><time>2026-04-04T08:40:17.823Z</time></trkpt><trkpt lat="42.0608033" lon="-8.018765"><ele>961.0</ele><time>2026-04-04T08:40:18.824Z</time></trkpt><trkpt lat="42.0608083" lon="-8.01888"><ele>960.9999999999999</ele><time>2026-04-04T08:40:19.823Z</time></trkpt><trkpt lat="42.0608" lon="-8.0189767"><ele>961.0</ele><time>2026-04-04T08:40:20.823Z</time></trkpt><trkpt lat="42.060775" lon="-8.0191483"><ele>961.0</ele><time>2026-04-04T08:40:22.823Z</time></trkpt><trkpt lat="42.0607717" lon="-8.0192517"><ele>961.0</ele><time>2026-04-04T08:40:23.823Z</time></trkpt><trkpt lat="42.0607767" lon="-8.01935"><ele>960.9999999999999</ele><time>2026-04-04T08:40:24.823Z</time></trkpt><trkpt lat="42.0607883" lon="-8.0194383"><ele>961.0</ele><time>2026-04-04T08:40:25.823Z</time></trkpt><trkpt lat="42.0608" lon="-8.0195867"><ele>961.1999999999999</ele><time>2026-04-04T08:40:27.822Z</time></trkpt><trkpt lat="42.0607833" lon="-8.0196783"><ele>961.3999999999999</ele><time>2026-04-04T08:40:29.824Z</time></trkpt><trkpt lat="42.0606833" lon="-8.019715"><ele>961.6</ele><time>2026-04-04T08:40:32.823Z</time></trkpt><trkpt lat="42.0605683" lon="-8.019675"><ele>961.8</ele><time>2026-04-04T08:40:34.823Z</time></trkpt><trkpt lat="42.0604883" lon="-8.0196067"><ele>962.0</ele><time>2026-04-04T08:40:35.822Z</time></trkpt><trkpt lat="42.06041" lon="-8.019535"><ele>962.0</ele><time>2026-04-04T08:40:36.823Z</time></trkpt><trkpt lat="42.0603333" lon="-8.01947"><ele>962.0</ele><time>2026-04-04T08:40:37.823Z</time></trkpt><trkpt lat="42.0602517" lon="-8.0194067"><ele>962.0</ele><time>2026-04-04T08:40:38.823Z</time></trkpt><trkpt lat="42.060165" lon="-8.019345"><ele>962.0</ele><time>2026-04-04T08:40:39.823Z</time></trkpt><trkpt lat="42.06008" lon="-8.019285"><ele>962.0</ele><time>2026-04-04T08:40:40.824Z</time></trkpt><trkpt lat="42.0599933" lon="-8.01922"><ele>961.4000000000001</ele><time>2026-04-04T08:40:41.823Z</time></trkpt><trkpt lat="42.0599067" lon="-8.01914"><ele>960.8000000000001</ele><time>2026-04-04T08:40:42.823Z</time></trkpt><trkpt lat="42.0598183" lon="-8.0190517"><ele>960.2</ele><time>2026-04-04T08:40:43.823Z</time></trkpt><trkpt lat="42.0597317" lon="-8.0189567"><ele>959.6</ele><time>2026-04-04T08:40:44.824Z</time></trkpt><trkpt lat="42.059645" lon="-8.0188583"><ele>959.0</ele><time>2026-04-04T08:40:45.823Z</time></trkpt><trkpt lat="42.059555" lon="-8.018775"><ele>959.0</ele><time>2026-04-04T08:40:46.823Z</time></trkpt><trkpt lat="42.05946" lon="-8.01871"><ele>959.0</ele><time>2026-04-04T08:40:47.826Z</time></trkpt><trkpt lat="42.059355" lon="-8.0186517"><ele>959.0</ele><time>2026-04-04T08:40:48.823Z</time></trkpt><trkpt lat="42.0592483" lon="-8.018595"><ele>959.0</ele><time>2026-04-04T08:40:49.824Z</time></trkpt></trkseg><trkseg><trkpt lat="42.05351" lon="-8.0147833"><ele>954.0</ele><time>2026-04-04T08:52:19.823Z</time></trkpt><trkpt lat="42.0534817" lon="-8.0149067"><ele>954.0000000000001</ele><time>2026-04-04T08:52:21.823Z</time></trkpt><trkpt lat="42.0534717" lon="-8.0149917"><ele>954.0000000000001</ele><time>2026-04-04T08:52:22.824Z</time></trkpt><trkpt lat="42.05345" lon="-8.0151467"><ele>954.0</ele><time>2026-04-04T08:52:24.823Z</time></trkpt><trkpt lat="42.0534017" lon="-8.0152833"><ele>954.0</ele><time>2026-04-04T08:52:26.825Z</time></trkpt><trkpt lat="42.0533083" lon="-8.0153833"><ele>954.8333333333334</ele><time>2026-04-04T08:52:28.823Z</time></trkpt><trkpt lat="42.0532483" lon="-8.0154183"><ele>955.6666666666667</ele><time>2026-04-04T08:52:29.824Z</time></trkpt><trkpt lat="42.0531817" lon="-8.0154317"><ele>956.5</ele><time>2026-04-04T08:52:30.824Z</time></trkpt><trkpt lat="42.05309" lon="-8.0154283"><ele>957.3333333333334</ele><time>2026-04-04T08:52:31.823Z</time></trkpt><trkpt lat="42.0530067" lon="-8.0154367"><ele>958.1666666666667</ele><time>2026-04-04T08:52:32.824Z</time></trkpt><trkpt lat="42.0529233" lon="-8.015455"><ele>959.0</ele><time>2026-04-04T08:52:33.823Z</time></trkpt><trkpt lat="42.0528383" lon="-8.0155017"><ele>959.0</ele><time>2026-04-04T08:52:34.823Z</time></trkpt><trkpt lat="42.0527467" lon="-8.015565"><ele>959.0</ele><time>2026-04-04T08:52:35.824Z</time></trkpt><trkpt lat="42.0526267" lon="-8.0156283"><ele>959.0</ele><time>2026-04-04T08:52:36.824Z</time></trkpt><trkpt lat="42.0524867" lon="-8.0156983"><ele>959.0</ele><time>2026-04-04T08:52:37.823Z</time></trkpt><trkpt lat="42.0523417" lon="-8.0157633"><ele>960.2</ele><time>2026-04-04T08:52:38.824Z</time></trkpt><trkpt lat="42.0522" lon="-8.015825"><ele>961.4000000000001</ele><time>2026-04-04T08:52:39.824Z</time></trkpt><trkpt lat="42.0520883" lon="-8.0158767"><ele>962.6</ele><time>2026-04-04T08:52:40.823Z</time></trkpt><trkpt lat="42.0520083" lon="-8.0159067"><ele>963.8</ele><time>2026-04-04T08:52:41.824Z</time></trkpt><trkpt lat="42.051945" lon="-8.0159333"><ele>965.0</ele><time>2026-04-04T08:52:42.823Z</time></trkpt><trkpt lat="42.0518717" lon="-8.01594"><ele>965.0000000000001</ele><time>2026-04-04T08:52:44.823Z</time></trkpt><trkpt lat="42.05183" lon="-8.01586"><ele>965.0</ele><time>2026-04-04T08:52:46.822Z</time></trkpt><trkpt lat="42.0518167" lon="-8.0157717"><ele>965.0</ele><time>2026-04-04T08:52:47.822Z</time></trkpt><trkpt lat="42.0517933" lon="-8.015685"><ele>965.0</ele><time>2026-04-04T08:52:48.822Z</time></trkpt><trkpt lat="42.0517167" lon="-8.01557"><ele>965.0000000000001</ele><time>2026-04-04T08:52:50.823Z</time></trkpt><trkpt lat="42.0516167" lon="-8.0155167"><ele>965.0</ele><time>2026-04-04T08:52:52.822Z</time></trkpt><trkpt lat="42.051545" lon="-8.015515"><ele>963.1666666666667</ele><time>2026-04-04T08:52:53.824Z</time></trkpt><trkpt lat="42.0514717" lon="-8.0155117"><ele>961.3333333333334</ele><time>2026-04-04T08:52:54.822Z</time></trkpt><trkpt lat="42.0513617" lon="-8.01551"><ele>959.5</ele><time>2026-04-04T08:52:56.823Z</time></trkpt><trkpt lat="42.0512883" lon="-8.0154767"><ele>957.6666666666667</ele><time>2026-04-04T08:52:58.822Z</time></trkpt><trkpt lat="42.0512467" lon="-8.0154067"><ele>955.8333333333334</ele><time>2026-04-04T08:53:01.823Z</time></trkpt><trkpt lat="42.05121" lon="-8.015335"><ele>954.0</ele><time>2026-04-04T08:53:03.822Z</time></trkpt><trkpt lat="42.0511467" lon="-8.0152083"><ele>954.0</ele><time>2026-04-04T08:53:05.825Z</time></trkpt><trkpt lat="42.05111" lon="-8.0151333"><ele>954.0</ele><time>2026-04-04T08:53:06.823Z</time></trkpt><trkpt lat="42.0510767" lon="-8.0150417"><ele>954.0</ele><time>2026-04-04T08:53:07.823Z</time></trkpt><trkpt lat="42.0510417" lon="-8.0149317"><ele>954.0</ele><time>2026-04-04T08:53:08.823Z</time></trkpt><trkpt lat="42.0509983" lon="-8.0148233"><ele>954.0</ele><time>2026-04-04T08:53:09.823Z</time></trkpt><trkpt lat="42.0509483" lon="-8.0147183"><ele>954.0</ele><time>2026-04-04T08:53:10.824Z</time></trkpt><trkpt lat="42.0508817" lon="-8.0146333"><ele>952.8333333333334</ele><time>2026-04-04T08:53:11.823Z</time></trkpt><trkpt lat="42.0508117" lon="-8.0145667"><ele>951.6666666666667</ele><time>2026-04-04T08:53:12.823Z</time></trkpt><trkpt lat="42.0507367" lon="-8.0145033"><ele>950.5</ele><time>2026-04-04T08:53:13.823Z</time></trkpt><trkpt lat="42.050665" lon="-8.0144583"><ele>949.3333333333334</ele><time>2026-04-04T08:53:14.823Z</time></trkpt><trkpt lat="42.0505983" lon="-8.01443"><ele>948.1666666666667</ele><time>2026-04-04T08:53:15.822Z</time></trkpt><trkpt lat="42.050485" lon="-8.0144617"><ele>947.0</ele><time>2026-04-04T08:53:17.824Z</time></trkpt><trkpt lat="42.0503567" lon="-8.01442"><ele>945.6666666666667</ele><time>2026-04-04T08:53:19.822Z</time></trkpt><trkpt lat="42.0502867" lon="-8.0143883"><ele>944.3333333333334</ele><time>2026-04-04T08:53:20.823Z</time></trkpt><trkpt lat="42.0502083" lon="-8.01436"><ele>943.0</ele><time>2026-04-04T08:53:21.823Z</time></trkpt><trkpt lat="42.0501233" lon="-8.01432"><ele>941.6666666666667</ele><time>2026-04-04T08:53:22.822Z</time></trkpt><trkpt lat="42.050045" lon="-8.0142767"><ele>940.3333333333334</ele><time>2026-04-04T08:53:23.823Z</time></trkpt><trkpt lat="42.0499617" lon="-8.0142333"><ele>939.0</ele><time>2026-04-04T08:53:24.823Z</time></trkpt><trkpt lat="42.0498867" lon="-8.014205"><ele>938.1666666666666</ele><time>2026-04-04T08:53:25.822Z</time></trkpt><trkpt lat="42.0498083" lon="-8.0141917"><ele>937.3333333333333</ele><time>2026-04-04T08:53:26.824Z</time></trkpt><trkpt lat="42.0497383" lon="-8.0141933"><ele>936.5</ele><time>2026-04-04T08:53:27.823Z</time></trkpt><trkpt lat="42.0496667" lon="-8.01421"><ele>935.6666666666666</ele><time>2026-04-04T08:53:28.823Z</time></trkpt><trkpt lat="42.0495983" lon="-8.014215"><ele>934.8333333333333</ele><time>2026-04-04T08:53:29.824Z</time></trkpt><trkpt lat="42.0494667" lon="-8.0141783"><ele>934.0</ele><time>2026-04-04T08:53:31.823Z</time></trkpt><trkpt lat="42.0494033" lon="-8.0141283"><ele>932.6</ele><time>2026-04-04T08:53:32.823Z</time></trkpt><trkpt lat="42.0493417" lon="-8.014085"><ele>931.2</ele><time>2026-04-04T08:53:33.823Z</time></trkpt><trkpt lat="42.04923" lon="-8.0140183"><ele>929.8000000000001</ele><time>2026-04-04T08:53:35.823Z</time></trkpt><trkpt lat="42.0491133" lon="-8.014005"><ele>928.4000000000001</ele><time>2026-04-04T08:53:37.824Z</time></trkpt><trkpt lat="42.04902" lon="-8.0140717"><ele>927.0</ele><time>2026-04-04T08:53:39.824Z</time></trkpt><trkpt lat="42.0489717" lon="-8.0141383"><ele>928.0</ele><time>2026-04-04T08:53:40.824Z</time></trkpt><trkpt lat="42.04891" lon="-8.01419"><ele>929.0</ele><time>2026-04-04T08:53:41.823Z</time></trkpt><trkpt lat="42.048865" lon="-8.0142683"><ele>930.0</ele><time>2026-04-04T08:53:42.823Z</time></trkpt><trkpt lat="42.0488167" lon="-8.0143383"><ele>931.0</ele><time>2026-04-04T08:53:43.822Z</time></trkpt><trkpt lat="42.0487217" lon="-8.014425"><ele>932.0</ele><time>2026-04-04T08:53:45.823Z</time></trkpt><trkpt lat="42.0486367" lon="-8.01441"><ele>933.0</ele><time>2026-04-04T08:53:47.823Z</time></trkpt><trkpt lat="42.0485733" lon="-8.0143817"><ele>933.0</ele><time>2026-04-04T08:53:49.822Z</time></trkpt><trkpt lat="42.0484967" lon="-8.0143117"><ele>933.0</ele><time>2026-04-04T08:53:51.823Z</time></trkpt><trkpt lat="42.0483983" lon="-8.0142683"><ele>933.0</ele><time>2026-04-04T08:53:53.823Z</time></trkpt><trkpt lat="42.0483283" lon="-8.01424"><ele>933.0</ele><time>2026-04-04T08:53:55.823Z</time></trkpt><trkpt lat="42.0482367" lon="-8.01419"><ele>933.0</ele><time>2026-04-04T08:53:57.823Z</time></trkpt><trkpt lat="42.0481233" lon="-8.01416"><ele>930.75</ele><time>2026-04-04T08:53:59.823Z</time></trkpt><trkpt lat="42.048" lon="-8.01415"><ele>928.5</ele><time>2026-04-04T08:54:01.823Z</time></trkpt><trkpt lat="42.047885" lon="-8.0141283"><ele>926.25</ele><time>2026-04-04T08:54:03.823Z</time></trkpt><trkpt lat="42.0477867" lon="-8.0141467"><ele>924.0</ele><time>2026-04-04T08:54:05.823Z</time></trkpt><trkpt lat="42.0476917" lon="-8.0142333"><ele>924.0</ele><time>2026-04-04T08:54:07.823Z</time></trkpt><trkpt lat="42.0476233" lon="-8.0143067"><ele>924.0000000000001</ele><time>2026-04-04T08:54:08.823Z</time></trkpt><trkpt lat="42.0475517" lon="-8.0144"><ele>924.0000000000001</ele><time>2026-04-04T08:54:09.823Z</time></trkpt><trkpt lat="42.0474833" lon="-8.0145183"><ele>924.0</ele><time>2026-04-04T08:54:10.824Z</time></trkpt><trkpt lat="42.04742" lon="-8.0146383"><ele>924.0</ele><time>2026-04-04T08:54:11.823Z</time></trkpt><trkpt lat="42.0473517" lon="-8.014765"><ele>924.8333333333334</ele><time>2026-04-04T08:54:12.823Z</time></trkpt><trkpt lat="42.047285" lon="-8.0148733"><ele>925.6666666666667</ele><time>2026-04-04T08:54:13.823Z</time></trkpt><trkpt lat="42.047215" lon="-8.01497"><ele>926.5</ele><time>2026-04-04T08:54:14.823Z</time></trkpt><trkpt lat="42.0471533" lon="-8.0150367"><ele>927.3333333333334</ele><time>2026-04-04T08:54:15.822Z</time></trkpt><trkpt lat="42.0470867" lon="-8.0150983"><ele>928.1666666666667</ele><time>2026-04-04T08:54:16.822Z</time></trkpt><trkpt lat="42.0470233" lon="-8.0151483"><ele>929.0</ele><time>2026-04-04T08:54:17.823Z</time></trkpt><trkpt lat="42.0469567" lon="-8.0151767"><ele>929.0000000000001</ele><time>2026-04-04T08:54:18.824Z</time></trkpt><trkpt lat="42.0468883" lon="-8.0151767"><ele>929.0</ele><time>2026-04-04T08:54:19.824Z</time></trkpt><trkpt lat="42.0468133" lon="-8.0151483"><ele>929.0</ele><time>2026-04-04T08:54:20.825Z</time></trkpt><trkpt lat="42.0467433" lon="-8.0150933"><ele>929.0</ele><time>2026-04-04T08:54:21.825Z</time></trkpt><trkpt lat="42.0466683" lon="-8.0150217"><ele>929.0000000000001</ele><time>2026-04-04T08:54:22.824Z</time></trkpt><trkpt lat="42.0466067" lon="-8.0149317"><ele>929.0</ele><time>2026-04-04T08:54:23.824Z</time></trkpt><trkpt lat="42.04656" lon="-8.014845"><ele>925.0000000000001</ele><time>2026-04-04T08:54:24.825Z</time></trkpt><trkpt lat="42.0465" lon="-8.0147683"><ele>921.0</ele><time>2026-04-04T08:54:25.823Z</time></trkpt><trkpt lat="42.046435" lon="-8.0147083"><ele>917.0</ele><time>2026-04-04T08:54:26.824Z</time></trkpt><trkpt lat="42.0463667" lon="-8.0146583"><ele>913.0</ele><time>2026-04-04T08:54:27.823Z</time></trkpt><trkpt lat="42.0462783" lon="-8.0146383"><ele>909.0000000000001</ele><time>2026-04-04T08:54:28.824Z</time></trkpt><trkpt lat="42.04618" lon="-8.0146367"><ele>905.0</ele><time>2026-04-04T08:54:29.824Z</time></trkpt><trkpt lat="42.0460817" lon="-8.0146467"><ele>905.0</ele><time>2026-04-04T08:54:30.823Z</time></trkpt><trkpt lat="42.0460017" lon="-8.0147117"><ele>905.0</ele><time>2026-04-04T08:54:31.824Z</time></trkpt><trkpt lat="42.0459183" lon="-8.0147783"><ele>905.0</ele><time>2026-04-04T08:54:32.823Z</time></trkpt><trkpt lat="42.0458333" lon="-8.0148483"><ele>905.0</ele><time>2026-04-04T08:54:33.822Z</time></trkpt><trkpt lat="42.045745" lon="-8.0149467"><ele>905.0</ele><time>2026-04-04T08:54:34.822Z</time></trkpt><trkpt lat="42.0456633" lon="-8.015055"><ele>904.25</ele><time>2026-04-04T08:54:35.823Z</time></trkpt><trkpt lat="42.0455933" lon="-8.0151833"><ele>903.5</ele><time>2026-04-04T08:54:36.823Z</time></trkpt><trkpt lat="42.04553" lon="-8.0153333"><ele>902.75</ele><time>2026-04-04T08:54:37.825Z</time></trkpt><trkpt lat="42.0454633" lon="-8.0154933"><ele>902.0</ele><time>2026-04-04T08:54:38.823Z</time></trkpt><trkpt lat="42.0453883" lon="-8.0156467"><ele>902.0</ele><time>2026-04-04T08:54:39.826Z</time></trkpt><trkpt lat="42.045315" lon="-8.0157833"><ele>902.0</ele><time>2026-04-04T08:54:40.823Z</time></trkpt><trkpt lat="42.04525" lon="-8.0158983"><ele>902.0</ele><time>2026-04-04T08:54:41.824Z</time></trkpt><trkpt lat="42.0451967" lon="-8.0159967"><ele>902.0</ele><time>2026-04-04T08:54:42.824Z</time></trkpt><trkpt lat="42.04515" lon="-8.0160633"><ele>902.0</ele><time>2026-04-04T08:54:43.825Z</time></trkpt><trkpt lat="42.0450983" lon="-8.0161217"><ele>903.8</ele><time>2026-04-04T08:54:44.823Z</time></trkpt><trkpt lat="42.045035" lon="-8.0161583"><ele>905.6</ele><time>2026-04-04T08:54:45.823Z</time></trkpt><trkpt lat="42.0449717" lon="-8.0162133"><ele>907.3999999999999</ele><time>2026-04-04T08:54:46.823Z</time></trkpt><trkpt lat="42.0449" lon="-8.016275"><ele>909.1999999999999</ele><time>2026-04-04T08:54:47.824Z</time></trkpt><trkpt lat="42.0448267" lon="-8.01636"><ele>911.0</ele><time>2026-04-04T08:54:48.824Z</time></trkpt><trkpt lat="42.044735" lon="-8.0164833"><ele>911.0</ele><time>2026-04-04T08:54:49.824Z</time></trkpt><trkpt lat="42.0446483" lon="-8.01659"><ele>910.9999999999999</ele><time>2026-04-04T08:54:50.823Z</time></trkpt><trkpt lat="42.0445683" lon="-8.0166833"><ele>910.9999999999999</ele><time>2026-04-04T08:54:51.824Z</time></trkpt><trkpt lat="42.0444783" lon="-8.0167667"><ele>911.0</ele><time>2026-04-04T08:54:52.823Z</time></trkpt><trkpt lat="42.0443883" lon="-8.01683"><ele>911.0</ele><time>2026-04-04T08:54:53.824Z</time></trkpt><trkpt lat="42.0443033" lon="-8.0168867"><ele>911.5000000000001</ele><time>2026-04-04T08:54:54.825Z</time></trkpt><trkpt lat="42.044225" lon="-8.0169267"><ele>912.0</ele><time>2026-04-04T08:54:55.824Z</time></trkpt><trkpt lat="42.0441483" lon="-8.0169567"><ele>912.5</ele><time>2026-04-04T08:54:56.824Z</time></trkpt><trkpt lat="42.04408" lon="-8.0169733"><ele>913.0</ele><time>2026-04-04T08:54:57.825Z</time></trkpt><trkpt lat="42.0440133" lon="-8.0169517"><ele>913.5000000000001</ele><time>2026-04-04T08:54:58.823Z</time></trkpt><trkpt lat="42.0439583" lon="-8.0168967"><ele>914.0</ele><time>2026-04-04T08:54:59.824Z</time></trkpt><trkpt lat="42.0438767" lon="-8.0168217"><ele>914.75</ele><time>2026-04-04T08:55:00.824Z</time></trkpt><trkpt lat="42.0437833" lon="-8.016725"><ele>915.5</ele><time>2026-04-04T08:55:01.824Z</time></trkpt><trkpt lat="42.0436667" lon="-8.0166"><ele>916.25</ele><time>2026-04-04T08:55:02.824Z</time></trkpt><trkpt lat="42.043535" lon="-8.0164567"><ele>917.0</ele><time>2026-04-04T08:55:03.824Z</time></trkpt><trkpt lat="42.0433883" lon="-8.0163217"><ele>919.75</ele><time>2026-04-04T08:55:04.823Z</time></trkpt><trkpt lat="42.0432667" lon="-8.0162033"><ele>922.5</ele><time>2026-04-04T08:55:05.824Z</time></trkpt><trkpt lat="42.0431633" lon="-8.0161033"><ele>925.25</ele><time>2026-04-04T08:55:06.826Z</time></trkpt><trkpt lat="42.0430767" lon="-8.0160167"><ele>928.0</ele><time>2026-04-04T08:55:07.824Z</time></trkpt><trkpt lat="42.0430117" lon="-8.0159267"><ele>928.0000000000001</ele><time>2026-04-04T08:55:08.825Z</time></trkpt><trkpt lat="42.042965" lon="-8.01586"><ele>928.0</ele><time>2026-04-04T08:55:09.824Z</time></trkpt><trkpt lat="42.0429133" lon="-8.0157833"><ele>928.0000000000001</ele><time>2026-04-04T08:55:10.824Z</time></trkpt><trkpt lat="42.0428583" lon="-8.0157133"><ele>928.0000000000001</ele><time>2026-04-04T08:55:11.824Z</time></trkpt><trkpt lat="42.0428033" lon="-8.0156433"><ele>928.0</ele><time>2026-04-04T08:55:12.824Z</time></trkpt><trkpt lat="42.0427533" lon="-8.015575"><ele>928.0000000000001</ele><time>2026-04-04T08:55:13.824Z</time></trkpt><trkpt lat="42.0427017" lon="-8.0155217"><ele>928.0000000000001</ele><time>2026-04-04T08:55:14.824Z</time></trkpt><trkpt lat="42.0426233" lon="-8.01544"><ele>926.2</ele><time>2026-04-04T08:55:16.823Z</time></trkpt><trkpt lat="42.0425333" lon="-8.015395"><ele>924.4</ele><time>2026-04-04T08:55:18.823Z</time></trkpt><trkpt lat="42.0424083" lon="-8.0153767"><ele>922.6000000000001</ele><time>2026-04-04T08:55:20.824Z</time></trkpt><trkpt lat="42.0423267" lon="-8.0153933"><ele>920.8000000000001</ele><time>2026-04-04T08:55:21.824Z</time></trkpt><trkpt lat="42.042235" lon="-8.0154283"><ele>919.0</ele><time>2026-04-04T08:55:22.823Z</time></trkpt><trkpt lat="42.0421583" lon="-8.0154817"><ele>919.0</ele><time>2026-04-04T08:55:23.825Z</time></trkpt><trkpt lat="42.0420933" lon="-8.01554"><ele>918.9999999999999</ele><time>2026-04-04T08:55:24.823Z</time></trkpt><trkpt lat="42.0420383" lon="-8.0156067"><ele>919.0</ele><time>2026-04-04T08:55:25.823Z</time></trkpt><trkpt lat="42.0419917" lon="-8.0156867"><ele>919.0</ele><time>2026-04-04T08:55:26.823Z</time></trkpt><trkpt lat="42.04195" lon="-8.01576"><ele>918.9999999999999</ele><time>2026-04-04T08:55:27.824Z</time></trkpt><trkpt lat="42.04191" lon="-8.0158367"><ele>919.0</ele><time>2026-04-04T08:55:28.823Z</time></trkpt><trkpt lat="42.04187" lon="-8.015905"><ele>919.0</ele><time>2026-04-04T08:55:29.823Z</time></trkpt><trkpt lat="42.0418033" lon="-8.0160417"><ele>921.6666666666666</ele><time>2026-04-04T08:55:31.823Z</time></trkpt><trkpt lat="42.0417283" lon="-8.0161567"><ele>924.3333333333333</ele><time>2026-04-04T08:55:33.822Z</time></trkpt><trkpt lat="42.04166" lon="-8.0162183"><ele>927.0</ele><time>2026-04-04T08:55:35.823Z</time></trkpt><trkpt lat="42.0415917" lon="-8.0161917"><ele>929.6666666666667</ele><time>2026-04-04T08:55:38.824Z</time></trkpt><trkpt lat="42.0414867" lon="-8.0161967"><ele>932.3333333333334</ele><time>2026-04-04T08:55:41.823Z</time></trkpt><trkpt lat="42.0414233" lon="-8.016215"><ele>935.0</ele><time>2026-04-04T08:55:42.823Z</time></trkpt><trkpt lat="42.0413367" lon="-8.0162233"><ele>935.25</ele><time>2026-04-04T08:55:43.823Z</time></trkpt><trkpt lat="42.04122" lon="-8.0162283"><ele>935.5</ele><time>2026-04-04T08:55:44.824Z</time></trkpt><trkpt lat="42.041105" lon="-8.0162483"><ele>935.75</ele><time>2026-04-04T08:55:45.824Z</time></trkpt><trkpt lat="42.0409933" lon="-8.01628"><ele>936.0</ele><time>2026-04-04T08:55:46.823Z</time></trkpt><trkpt lat="42.04088" lon="-8.01633"><ele>935.0</ele><time>2026-04-04T08:55:47.823Z</time></trkpt><trkpt lat="42.0407683" lon="-8.01639"><ele>934.0</ele><time>2026-04-04T08:55:48.823Z</time></trkpt><trkpt lat="42.0406567" lon="-8.01646"><ele>933.0</ele><time>2026-04-04T08:55:49.824Z</time></trkpt><trkpt lat="42.04055" lon="-8.016525"><ele>932.0</ele><time>2026-04-04T08:55:50.823Z</time></trkpt><trkpt lat="42.0404383" lon="-8.0165767"><ele>932.0</ele><time>2026-04-04T08:55:51.823Z</time></trkpt><trkpt lat="42.040325" lon="-8.0166217"><ele>932.0</ele><time>2026-04-04T08:55:52.823Z</time></trkpt><trkpt lat="42.0402133" lon="-8.0166683"><ele>932.0</ele><time>2026-04-04T08:55:53.824Z</time></trkpt><trkpt lat="42.040095" lon="-8.0167"><ele>932.0</ele><time>2026-04-04T08:55:54.824Z</time></trkpt><trkpt lat="42.0399783" lon="-8.0167117"><ele>936.5</ele><time>2026-04-04T08:55:55.824Z</time></trkpt><trkpt lat="42.0398583" lon="-8.0167017"><ele>941.0</ele><time>2026-04-04T08:55:56.823Z</time></trkpt><trkpt lat="42.0397333" lon="-8.0166867"><ele>945.5</ele><time>2026-04-04T08:55:57.823Z</time></trkpt><trkpt lat="42.0396017" lon="-8.0166717"><ele>950.0</ele><time>2026-04-04T08:55:58.823Z</time></trkpt><trkpt lat="42.0394683" lon="-8.0166583"><ele>949.75</ele><time>2026-04-04T08:55:59.824Z</time></trkpt><trkpt lat="42.0393367" lon="-8.0166517"><ele>949.5</ele><time>2026-04-04T08:56:00.825Z</time></trkpt><trkpt lat="42.0392083" lon="-8.0166467"><ele>949.25</ele><time>2026-04-04T08:56:01.823Z</time></trkpt><trkpt lat="42.039085" lon="-8.0166367"><ele>949.0</ele><time>2026-04-04T08:56:02.824Z</time></trkpt><trkpt lat="42.0389617" lon="-8.0166217"><ele>949.0</ele><time>2026-04-04T08:56:03.823Z</time></trkpt><trkpt lat="42.038845" lon="-8.0165983"><ele>949.0</ele><time>2026-04-04T08:56:04.823Z</time></trkpt><trkpt lat="42.038735" lon="-8.0165667"><ele>949.0</ele><time>2026-04-04T08:56:05.824Z</time></trkpt><trkpt lat="42.0386217" lon="-8.0165367"><ele>949.0</ele><time>2026-04-04T08:56:06.823Z</time></trkpt><trkpt lat="42.0385083" lon="-8.0165067"><ele>949.0</ele><time>2026-04-04T08:56:07.823Z</time></trkpt><trkpt lat="42.0384033" lon="-8.0164717"><ele>949.0</ele><time>2026-04-04T08:56:08.824Z</time></trkpt><trkpt lat="42.0383067" lon="-8.016405"><ele>949.0</ele><time>2026-04-04T08:56:09.823Z</time></trkpt><trkpt lat="42.0382067" lon="-8.016305"><ele>949.0</ele><time>2026-04-04T08:56:10.824Z</time></trkpt><trkpt lat="42.0381117" lon="-8.01619"><ele>951.8000000000001</ele><time>2026-04-04T08:56:11.823Z</time></trkpt><trkpt lat="42.0380167" lon="-8.016085"><ele>954.6000000000001</ele><time>2026-04-04T08:56:12.823Z</time></trkpt><trkpt lat="42.0379233" lon="-8.0159983"><ele>957.4</ele><time>2026-04-04T08:56:13.823Z</time></trkpt><trkpt lat="42.037825" lon="-8.0159383"><ele>960.2</ele><time>2026-04-04T08:56:14.825Z</time></trkpt><trkpt lat="42.0377233" lon="-8.015915"><ele>963.0</ele><time>2026-04-04T08:56:15.824Z</time></trkpt><trkpt lat="42.0376217" lon="-8.0159233"><ele>963.0</ele><time>2026-04-04T08:56:16.823Z</time></trkpt><trkpt lat="42.03751" lon="-8.01595"><ele>963.0</ele><time>2026-04-04T08:56:17.824Z</time></trkpt><trkpt lat="42.0373933" lon="-8.015985"><ele>963.0</ele><time>2026-04-04T08:56:18.824Z</time></trkpt><trkpt lat="42.0372817" lon="-8.016025"><ele>963.0</ele><time>2026-04-04T08:56:19.823Z</time></trkpt><trkpt lat="42.0371717" lon="-8.0160633"><ele>963.0</ele><time>2026-04-04T08:56:20.824Z</time></trkpt><trkpt lat="42.0370783" lon="-8.0161067"><ele>963.0</ele><time>2026-04-04T08:56:21.825Z</time></trkpt><trkpt lat="42.03699" lon="-8.0161583"><ele>963.0</ele><time>2026-04-04T08:56:22.823Z</time></trkpt><trkpt lat="42.03691" lon="-8.0162367"><ele>963.0</ele><time>2026-04-04T08:56:23.823Z</time></trkpt><trkpt lat="42.0368283" lon="-8.0163233"><ele>963.0</ele><time>2026-04-04T08:56:24.823Z</time></trkpt><trkpt lat="42.0367383" lon="-8.0164017"><ele>960.5</ele><time>2026-04-04T08:56:25.826Z</time></trkpt><trkpt lat="42.036635" lon="-8.0164633"><ele>958.0</ele><time>2026-04-04T08:56:26.825Z</time></trkpt><trkpt lat="42.0365217" lon="-8.0165117"><ele>955.5</ele><time>2026-04-04T08:56:27.823Z</time></trkpt><trkpt lat="42.0363967" lon="-8.0165483"><ele>953.0</ele><time>2026-04-04T08:56:28.826Z</time></trkpt><trkpt lat="42.0362633" lon="-8.01658"><ele>953.0</ele><time>2026-04-04T08:56:29.823Z</time></trkpt><trkpt lat="42.036135" lon="-8.016615"><ele>953.0</ele><time>2026-04-04T08:56:30.826Z</time></trkpt><trkpt lat="42.0359983" lon="-8.0166633"><ele>953.0</ele><time>2026-04-04T08:56:31.826Z</time></trkpt><trkpt lat="42.035865" lon="-8.0167117"><ele>953.0</ele><time>2026-04-04T08:56:32.823Z</time></trkpt><trkpt lat="42.035735" lon="-8.0167633"><ele>953.4</ele><time>2026-04-04T08:56:33.823Z</time></trkpt><trkpt lat="42.0356133" lon="-8.0168217"><ele>953.8</ele><time>2026-04-04T08:56:34.825Z</time></trkpt><trkpt lat="42.035505" lon="-8.01689"><ele>954.2</ele><time>2026-04-04T08:56:35.825Z</time></trkpt><trkpt lat="42.0354083" lon="-8.01696"><ele>954.6</ele><time>2026-04-04T08:56:36.823Z</time></trkpt><trkpt lat="42.035325" lon="-8.017005"><ele>955.0</ele><time>2026-04-04T08:56:37.824Z</time></trkpt><trkpt lat="42.035245" lon="-8.0170283"><ele>954.9999999999999</ele><time>2026-04-04T08:56:38.825Z</time></trkpt><trkpt lat="42.0351783" lon="-8.01703"><ele>955.0</ele><time>2026-04-04T08:56:39.823Z</time></trkpt><trkpt lat="42.0351167" lon="-8.0170033"><ele>955.0</ele><time>2026-04-04T08:56:40.824Z</time></trkpt><trkpt lat="42.0350183" lon="-8.0169683"><ele>955.0</ele><time>2026-04-04T08:56:42.823Z</time></trkpt><trkpt lat="42.034925" lon="-8.0169817"><ele>954.9999999999999</ele><time>2026-04-04T08:56:44.824Z</time></trkpt><trkpt lat="42.0348333" lon="-8.0170283"><ele>955.0</ele><time>2026-04-04T08:56:46.825Z</time></trkpt><trkpt lat="42.0347133" lon="-8.0170933"><ele>954.1666666666666</ele><time>2026-04-04T08:56:48.824Z</time></trkpt><trkpt lat="42.0346483" lon="-8.0171367"><ele>953.3333333333333</ele><time>2026-04-04T08:56:49.824Z</time></trkpt><trkpt lat="42.034585" lon="-8.0171867"><ele>952.5</ele><time>2026-04-04T08:56:50.823Z</time></trkpt><trkpt lat="42.0345267" lon="-8.01723"><ele>951.6666666666667</ele><time>2026-04-04T08:56:51.823Z</time></trkpt><trkpt lat="42.0344083" lon="-8.0172717"><ele>950.8333333333334</ele><time>2026-04-04T08:56:53.825Z</time></trkpt><trkpt lat="42.0343383" lon="-8.0172717"><ele>950.0</ele><time>2026-04-04T08:56:54.823Z</time></trkpt><trkpt lat="42.0342683" lon="-8.01726"><ele>950.0</ele><time>2026-04-04T08:56:55.823Z</time></trkpt><trkpt lat="42.0341983" lon="-8.0172517"><ele>950.0</ele><time>2026-04-04T08:56:56.824Z</time></trkpt><trkpt lat="42.03412" lon="-8.017255"><ele>950.0</ele><time>2026-04-04T08:56:57.823Z</time></trkpt><trkpt lat="42.03403" lon="-8.0172667"><ele>950.0</ele><time>2026-04-04T08:56:58.824Z</time></trkpt><trkpt lat="42.0339367" lon="-8.0172833"><ele>950.0</ele><time>2026-04-04T08:56:59.823Z</time></trkpt><trkpt lat="42.0338067" lon="-8.0172983"><ele>948.8</ele><time>2026-04-04T08:57:00.824Z</time></trkpt><trkpt lat="42.03369" lon="-8.01732"><ele>947.6</ele><time>2026-04-04T08:57:01.824Z</time></trkpt><trkpt lat="42.0335867" lon="-8.0173467"><ele>946.4000000000001</ele><time>2026-04-04T08:57:02.825Z</time></trkpt><trkpt lat="42.033485" lon="-8.017365"><ele>945.2</ele><time>2026-04-04T08:57:03.823Z</time></trkpt><trkpt lat="42.0333933" lon="-8.0173817"><ele>944.0</ele><time>2026-04-04T08:57:04.822Z</time></trkpt><trkpt lat="42.0333133" lon="-8.017395"><ele>943.1666666666667</ele><time>2026-04-04T08:57:05.824Z</time></trkpt><trkpt lat="42.0332317" lon="-8.0174"><ele>942.3333333333334</ele><time>2026-04-04T08:57:06.822Z</time></trkpt><trkpt lat="42.0331567" lon="-8.0174017"><ele>941.5</ele><time>2026-04-04T08:57:07.823Z</time></trkpt><trkpt lat="42.033085" lon="-8.0173833"><ele>940.6666666666667</ele><time>2026-04-04T08:57:08.823Z</time></trkpt><trkpt lat="42.0330117" lon="-8.0173483"><ele>939.8333333333334</ele><time>2026-04-04T08:57:09.822Z</time></trkpt><trkpt lat="42.0329433" lon="-8.017315"><ele>939.0</ele><time>2026-04-04T08:57:10.823Z</time></trkpt><trkpt lat="42.03287" lon="-8.01728"><ele>939.0</ele><time>2026-04-04T08:57:11.823Z</time></trkpt><trkpt lat="42.0327967" lon="-8.0172583"><ele>939.0</ele><time>2026-04-04T08:57:12.823Z</time></trkpt><trkpt lat="42.0327117" lon="-8.0172567"><ele>939.0</ele><time>2026-04-04T08:57:13.823Z</time></trkpt><trkpt lat="42.0326233" lon="-8.01727"><ele>939.0</ele><time>2026-04-04T08:57:14.823Z</time></trkpt><trkpt lat="42.0325333" lon="-8.0172967"><ele>939.0</ele><time>2026-04-04T08:57:15.822Z</time></trkpt><trkpt lat="42.0324417" lon="-8.01733"><ele>939.0</ele><time>2026-04-04T08:57:16.822Z</time></trkpt><trkpt lat="42.0323483" lon="-8.0173433"><ele>940.2</ele><time>2026-04-04T08:57:17.823Z</time></trkpt><trkpt lat="42.0322467" lon="-8.017325"><ele>941.4000000000001</ele><time>2026-04-04T08:57:18.823Z</time></trkpt><trkpt lat="42.032135" lon="-8.0172817"><ele>942.6</ele><time>2026-04-04T08:57:19.824Z</time></trkpt><trkpt lat="42.0320283" lon="-8.0172333"><ele>943.8</ele><time>2026-04-04T08:57:20.823Z</time></trkpt><trkpt lat="42.03192" lon="-8.01718"><ele>945.0</ele><time>2026-04-04T08:57:21.823Z</time></trkpt><trkpt lat="42.0318017" lon="-8.0171"><ele>945.0</ele><time>2026-04-04T08:57:22.824Z</time></trkpt><trkpt lat="42.0316933" lon="-8.0170083"><ele>945.0</ele><time>2026-04-04T08:57:23.823Z</time></trkpt><trkpt lat="42.0316033" lon="-8.0169117"><ele>945.0</ele><time>2026-04-04T08:57:24.823Z</time></trkpt><trkpt lat="42.0315283" lon="-8.0168083"><ele>945.0</ele><time>2026-04-04T08:57:25.822Z</time></trkpt><trkpt lat="42.0314617" lon="-8.0166983"><ele>942.4</ele><time>2026-04-04T08:57:26.823Z</time></trkpt><trkpt lat="42.0314" lon="-8.0165967"><ele>939.8</ele><time>2026-04-04T08:57:27.822Z</time></trkpt><trkpt lat="42.031345" lon="-8.0164867"><ele>937.2</ele><time>2026-04-04T08:57:28.822Z</time></trkpt><trkpt lat="42.0313" lon="-8.01638"><ele>934.6</ele><time>2026-04-04T08:57:29.823Z</time></trkpt><trkpt lat="42.03126" lon="-8.01627"><ele>932.0</ele><time>2026-04-04T08:57:30.822Z</time></trkpt><trkpt lat="42.0312233" lon="-8.0161683"><ele>932.0000000000001</ele><time>2026-04-04T08:57:31.822Z</time></trkpt><trkpt lat="42.0311883" lon="-8.0160783"><ele>932.0</ele><time>2026-04-04T08:57:32.825Z</time></trkpt><trkpt lat="42.0311533" lon="-8.0159917"><ele>932.0</ele><time>2026-04-04T08:57:33.822Z</time></trkpt><trkpt lat="42.03111" lon="-8.0158917"><ele>932.0</ele><time>2026-04-04T08:57:34.822Z</time></trkpt><trkpt lat="42.0310667" lon="-8.0157917"><ele>932.0000000000001</ele><time>2026-04-04T08:57:35.822Z</time></trkpt><trkpt lat="42.0310167" lon="-8.015685"><ele>932.0</ele><time>2026-04-04T08:57:36.822Z</time></trkpt><trkpt lat="42.030975" lon="-8.0155883"><ele>930.5714285714287</ele><time>2026-04-04T08:57:37.824Z</time></trkpt><trkpt lat="42.0309283" lon="-8.0155033"><ele>929.1428571428571</ele><time>2026-04-04T08:57:38.824Z</time></trkpt><trkpt lat="42.0308833" lon="-8.015435"><ele>927.7142857142858</ele><time>2026-04-04T08:57:39.822Z</time></trkpt><trkpt lat="42.0308417" lon="-8.0153683"><ele>926.2857142857143</ele><time>2026-04-04T08:57:40.823Z</time></trkpt><trkpt lat="42.0307767" lon="-8.0152667"><ele>924.8571428571429</ele><time>2026-04-04T08:57:42.822Z</time></trkpt><trkpt lat="42.0307283" lon="-8.0152083"><ele>923.4285714285714</ele><time>2026-04-04T08:57:45.822Z</time></trkpt><trkpt lat="42.03069" lon="-8.0152767"><ele>922.0</ele><time>2026-04-04T08:57:48.823Z</time></trkpt><trkpt lat="42.0306383" lon="-8.0154333"><ele>922.6</ele><time>2026-04-04T08:57:50.822Z</time></trkpt><trkpt lat="42.0305883" lon="-8.01553"><ele>923.2</ele><time>2026-04-04T08:57:51.824Z</time></trkpt><trkpt lat="42.030525" lon="-8.01562"><ele>923.8</ele><time>2026-04-04T08:57:52.822Z</time></trkpt><trkpt lat="42.03045" lon="-8.01571"><ele>924.4</ele><time>2026-04-04T08:57:53.823Z</time></trkpt><trkpt lat="42.03036" lon="-8.0158033"><ele>925.0</ele><time>2026-04-04T08:57:54.822Z</time></trkpt><trkpt lat="42.0302667" lon="-8.0158867"><ele>925.0</ele><time>2026-04-04T08:57:55.822Z</time></trkpt><trkpt lat="42.03017" lon="-8.015975"><ele>925.0</ele><time>2026-04-04T08:57:56.823Z</time></trkpt><trkpt lat="42.0300717" lon="-8.0160717"><ele>925.0</ele><time>2026-04-04T08:57:57.822Z</time></trkpt><trkpt lat="42.0299783" lon="-8.0161733"><ele>925.0</ele><time>2026-04-04T08:57:58.823Z</time></trkpt><trkpt lat="42.029885" lon="-8.0162817"><ele>923.5</ele><time>2026-04-04T08:57:59.822Z</time></trkpt><trkpt lat="42.02979" lon="-8.01639"><ele>922.0</ele><time>2026-04-04T08:58:00.823Z</time></trkpt><trkpt lat="42.0296917" lon="-8.0164967"><ele>920.5</ele><time>2026-04-04T08:58:01.822Z</time></trkpt><trkpt lat="42.02959" lon="-8.0165967"><ele>919.0</ele><time>2026-04-04T08:58:02.823Z</time></trkpt><trkpt lat="42.0294883" lon="-8.0166933"><ele>919.0</ele><time>2026-04-04T08:58:03.823Z</time></trkpt><trkpt lat="42.029385" lon="-8.0167917"><ele>919.0</ele><time>2026-04-04T08:58:04.823Z</time></trkpt><trkpt lat="42.0292817" lon="-8.0169083"><ele>919.0</ele><time>2026-04-04T08:58:05.823Z</time></trkpt><trkpt lat="42.0291783" lon="-8.0170267"><ele>919.0</ele><time>2026-04-04T08:58:06.823Z</time></trkpt><trkpt lat="42.0290883" lon="-8.0171467"><ele>919.4000000000001</ele><time>2026-04-04T08:58:07.822Z</time></trkpt><trkpt lat="42.029005" lon="-8.0172617"><ele>919.8000000000001</ele><time>2026-04-04T08:58:08.823Z</time></trkpt><trkpt lat="42.0289383" lon="-8.01737"><ele>920.1999999999999</ele><time>2026-04-04T08:58:09.822Z</time></trkpt><trkpt lat="42.028885" lon="-8.0174867"><ele>920.5999999999999</ele><time>2026-04-04T08:58:10.823Z</time></trkpt><trkpt lat="42.0288583" lon="-8.0176133"><ele>921.0</ele><time>2026-04-04T08:58:11.824Z</time></trkpt><trkpt lat="42.0288417" lon="-8.0177417"><ele>921.0</ele><time>2026-04-04T08:58:12.823Z</time></trkpt><trkpt lat="42.0288217" lon="-8.0178617"><ele>921.0</ele><time>2026-04-04T08:58:13.822Z</time></trkpt><trkpt lat="42.028795" lon="-8.0179617"><ele>921.0</ele><time>2026-04-04T08:58:14.823Z</time></trkpt><trkpt lat="42.0287633" lon="-8.0180533"><ele>921.0</ele><time>2026-04-04T08:58:15.822Z</time></trkpt><trkpt lat="42.0287133" lon="-8.0181217"><ele>921.0</ele><time>2026-04-04T08:58:16.823Z</time></trkpt><trkpt lat="42.0286533" lon="-8.01818"><ele>921.0</ele><time>2026-04-04T08:58:17.823Z</time></trkpt><trkpt lat="42.0285783" lon="-8.01823"><ele>921.0</ele><time>2026-04-04T08:58:18.824Z</time></trkpt><trkpt lat="42.028475" lon="-8.0182617"><ele>921.0</ele><time>2026-04-04T08:58:19.825Z</time></trkpt><trkpt lat="42.0283183" lon="-8.0182883"><ele>921.0</ele><time>2026-04-04T08:58:20.823Z</time></trkpt><trkpt lat="42.0281933" lon="-8.018325"><ele>921.0</ele><time>2026-04-04T08:58:21.822Z</time></trkpt><trkpt lat="42.0280567" lon="-8.0183617"><ele>922.25</ele><time>2026-04-04T08:58:22.823Z</time></trkpt><trkpt lat="42.0279183" lon="-8.0183933"><ele>923.5</ele><time>2026-04-04T08:58:23.822Z</time></trkpt><trkpt lat="42.0277883" lon="-8.0184317"><ele>924.75</ele><time>2026-04-04T08:58:24.823Z</time></trkpt><trkpt lat="42.0276717" lon="-8.0184717"><ele>926.0</ele><time>2026-04-04T08:58:25.822Z</time></trkpt><trkpt lat="42.0275683" lon="-8.018525"><ele>926.0</ele><time>2026-04-04T08:58:26.824Z</time></trkpt><trkpt lat="42.0274917" lon="-8.0185983"><ele>925.9999999999999</ele><time>2026-04-04T08:58:27.822Z</time></trkpt><trkpt lat="42.0274267" lon="-8.018695"><ele>925.9999999999999</ele><time>2026-04-04T08:58:28.823Z</time></trkpt><trkpt lat="42.027365" lon="-8.0187883"><ele>926.0</ele><time>2026-04-04T08:58:29.825Z</time></trkpt><trkpt lat="42.0273017" lon="-8.0188667"><ele>926.0</ele><time>2026-04-04T08:58:30.824Z</time></trkpt><trkpt lat="42.0272367" lon="-8.01893"><ele>925.0000000000001</ele><time>2026-04-04T08:58:31.824Z</time></trkpt><trkpt lat="42.02717" lon="-8.0189867"><ele>924.0</ele><time>2026-04-04T08:58:32.824Z</time></trkpt><trkpt lat="42.0270983" lon="-8.01902"><ele>923.0</ele><time>2026-04-04T08:58:33.823Z</time></trkpt><trkpt lat="42.0270233" lon="-8.0190383"><ele>922.0</ele><time>2026-04-04T08:58:34.823Z</time></trkpt><trkpt lat="42.0269567" lon="-8.0190417"><ele>921.0000000000001</ele><time>2026-04-04T08:58:35.823Z</time></trkpt><trkpt lat="42.0268433" lon="-8.0190133"><ele>920.0</ele><time>2026-04-04T08:58:37.823Z</time></trkpt><trkpt lat="42.02674" lon="-8.018975"><ele>920.0000000000001</ele><time>2026-04-04T08:58:39.823Z</time></trkpt><trkpt lat="42.02665" lon="-8.018945"><ele>920.0</ele><time>2026-04-04T08:58:41.824Z</time></trkpt><trkpt lat="42.0265733" lon="-8.01893"><ele>920.0</ele><time>2026-04-04T08:58:43.823Z</time></trkpt><trkpt lat="42.0264783" lon="-8.018905"><ele>920.0</ele><time>2026-04-04T08:58:46.823Z</time></trkpt><trkpt lat="42.0264067" lon="-8.01886"><ele>920.0000000000001</ele><time>2026-04-04T08:58:48.823Z</time></trkpt><trkpt lat="42.0263417" lon="-8.0188167"><ele>920.0</ele><time>2026-04-04T08:58:50.823Z</time></trkpt><trkpt lat="42.026275" lon="-8.0187317"><ele>917.4</ele><time>2026-04-04T08:58:52.823Z</time></trkpt><trkpt lat="42.02622" lon="-8.0186"><ele>914.8</ele><time>2026-04-04T08:58:54.823Z</time></trkpt><trkpt lat="42.0261967" lon="-8.018435"><ele>912.2</ele><time>2026-04-04T08:58:56.823Z</time></trkpt><trkpt lat="42.0261883" lon="-8.0183433"><ele>909.6</ele><time>2026-04-04T08:58:57.824Z</time></trkpt><trkpt lat="42.02618" lon="-8.01825"><ele>907.0</ele><time>2026-04-04T08:58:58.824Z</time></trkpt><trkpt lat="42.0261633" lon="-8.0181483"><ele>906.3333333333333</ele><time>2026-04-04T08:58:59.824Z</time></trkpt><trkpt lat="42.0261383" lon="-8.0180467"><ele>905.6666666666666</ele><time>2026-04-04T08:59:00.823Z</time></trkpt><trkpt lat="42.026095" lon="-8.017955"><ele>905.0</ele><time>2026-04-04T08:59:01.823Z</time></trkpt><trkpt lat="42.0260417" lon="-8.0178683"><ele>904.3333333333333</ele><time>2026-04-04T08:59:02.823Z</time></trkpt><trkpt lat="42.02598" lon="-8.01779"><ele>903.6666666666666</ele><time>2026-04-04T08:59:03.823Z</time></trkpt><trkpt lat="42.025915" lon="-8.0177117"><ele>903.0</ele><time>2026-04-04T08:59:04.823Z</time></trkpt><trkpt lat="42.0258467" lon="-8.0176367"><ele>900.8</ele><time>2026-04-04T08:59:05.824Z</time></trkpt><trkpt lat="42.02578" lon="-8.0175633"><ele>898.5999999999999</ele><time>2026-04-04T08:59:06.823Z</time></trkpt><trkpt lat="42.0257117" lon="-8.017495"><ele>896.4000000000001</ele><time>2026-04-04T08:59:07.823Z</time></trkpt><trkpt lat="42.0256433" lon="-8.0174233"><ele>894.2</ele><time>2026-04-04T08:59:08.824Z</time></trkpt><trkpt lat="42.0255717" lon="-8.017335"><ele>892.0</ele><time>2026-04-04T08:59:09.823Z</time></trkpt><trkpt lat="42.02549" lon="-8.0172417"><ele>890.5</ele><time>2026-04-04T08:59:10.824Z</time></trkpt><trkpt lat="42.025405" lon="-8.0171467"><ele>889.0</ele><time>2026-04-04T08:59:11.823Z</time></trkpt><trkpt lat="42.0253117" lon="-8.0170483"><ele>887.5</ele><time>2026-04-04T08:59:12.824Z</time></trkpt><trkpt lat="42.025215" lon="-8.016945"><ele>886.0</ele><time>2026-04-04T08:59:13.825Z</time></trkpt><trkpt lat="42.02512" lon="-8.0168433"><ele>886.0</ele><time>2026-04-04T08:59:14.822Z</time></trkpt><trkpt lat="42.0250183" lon="-8.0167317"><ele>886.0</ele><time>2026-04-04T08:59:15.822Z</time></trkpt><trkpt lat="42.0249133" lon="-8.0166183"><ele>886.0</ele><time>2026-04-04T08:59:16.822Z</time></trkpt><trkpt lat="42.0247983" lon="-8.0164983"><ele>886.0</ele><time>2026-04-04T08:59:17.823Z</time></trkpt><trkpt lat="42.0246867" lon="-8.0163767"><ele>885.25</ele><time>2026-04-04T08:59:18.823Z</time></trkpt><trkpt lat="42.0245633" lon="-8.01625"><ele>884.5</ele><time>2026-04-04T08:59:19.823Z</time></trkpt><trkpt lat="42.0244533" lon="-8.01613"><ele>883.75</ele><time>2026-04-04T08:59:20.823Z</time></trkpt><trkpt lat="42.0243433" lon="-8.0160133"><ele>883.0</ele><time>2026-04-04T08:59:21.822Z</time></trkpt><trkpt lat="42.0242367" lon="-8.0158983"><ele>881.5</ele><time>2026-04-04T08:59:22.823Z</time></trkpt><trkpt lat="42.024125" lon="-8.0157783"><ele>880.0</ele><time>2026-04-04T08:59:23.823Z</time></trkpt><trkpt lat="42.024015" lon="-8.015655"><ele>878.5</ele><time>2026-04-04T08:59:24.824Z</time></trkpt><trkpt lat="42.0239117" lon="-8.0155433"><ele>877.0</ele><time>2026-04-04T08:59:25.822Z</time></trkpt><trkpt lat="42.0238167" lon="-8.0154317"><ele>877.0</ele><time>2026-04-04T08:59:26.823Z</time></trkpt><trkpt lat="42.023725" lon="-8.0153117"><ele>877.0</ele><time>2026-04-04T08:59:27.823Z</time></trkpt><trkpt lat="42.02364" lon="-8.015195"><ele>877.0</ele><time>2026-04-04T08:59:28.824Z</time></trkpt><trkpt lat="42.0235667" lon="-8.0150833"><ele>877.0</ele><time>2026-04-04T08:59:29.822Z</time></trkpt><trkpt lat="42.0235033" lon="-8.0149717"><ele>877.4999999999999</ele><time>2026-04-04T08:59:30.823Z</time></trkpt><trkpt lat="42.023455" lon="-8.0148783"><ele>878.0</ele><time>2026-04-04T08:59:31.826Z</time></trkpt><trkpt lat="42.0234167" lon="-8.0147833"><ele>878.5</ele><time>2026-04-04T08:59:32.824Z</time></trkpt><trkpt lat="42.02338" lon="-8.0147133"><ele>879.0</ele><time>2026-04-04T08:59:33.824Z</time></trkpt><trkpt lat="42.0232917" lon="-8.0147233"><ele>879.4999999999999</ele><time>2026-04-04T08:59:36.823Z</time></trkpt><trkpt lat="42.0231867" lon="-8.0147683"><ele>880.0</ele><time>2026-04-04T08:59:38.823Z</time></trkpt><trkpt lat="42.0231167" lon="-8.0147767"><ele>880.2</ele><time>2026-04-04T08:59:39.824Z</time></trkpt><trkpt lat="42.0230167" lon="-8.0147883"><ele>880.4</ele><time>2026-04-04T08:59:40.822Z</time></trkpt><trkpt lat="42.0229233" lon="-8.014775"><ele>880.5999999999999</ele><time>2026-04-04T08:59:41.824Z</time></trkpt><trkpt lat="42.0228133" lon="-8.0147417"><ele>880.8</ele><time>2026-04-04T08:59:42.824Z</time></trkpt><trkpt lat="42.022705" lon="-8.0146933"><ele>881.0</ele><time>2026-04-04T08:59:43.823Z</time></trkpt><trkpt lat="42.0226033" lon="-8.0146567"><ele>881.0</ele><time>2026-04-04T08:59:44.822Z</time></trkpt><trkpt lat="42.02249" lon="-8.0146117"><ele>880.9999999999999</ele><time>2026-04-04T08:59:45.824Z</time></trkpt><trkpt lat="42.0223767" lon="-8.0145667"><ele>880.9999999999999</ele><time>2026-04-04T08:59:46.822Z</time></trkpt><trkpt lat="42.0222783" lon="-8.0145317"><ele>881.0</ele><time>2026-04-04T08:59:47.823Z</time></trkpt><trkpt lat="42.0221933" lon="-8.0145083"><ele>881.0</ele><time>2026-04-04T08:59:48.823Z</time></trkpt><trkpt lat="42.0221167" lon="-8.0144917"><ele>880.8333333333334</ele><time>2026-04-04T08:59:49.823Z</time></trkpt><trkpt lat="42.0220517" lon="-8.014485"><ele>880.6666666666667</ele><time>2026-04-04T08:59:50.823Z</time></trkpt><trkpt lat="42.0219883" lon="-8.0144683"><ele>880.5</ele><time>2026-04-04T08:59:52.823Z</time></trkpt><trkpt lat="42.0220633" lon="-8.0143983"><ele>880.3333333333333</ele><time>2026-04-04T08:59:58.823Z</time></trkpt><trkpt lat="42.022145" lon="-8.0144167"><ele>880.1666666666666</ele><time>2026-04-04T08:59:59.824Z</time></trkpt><trkpt lat="42.0222383" lon="-8.0144517"><ele>880.0</ele><time>2026-04-04T09:00:00.823Z</time></trkpt><trkpt lat="42.022395" lon="-8.0145133"><ele>880.25</ele><time>2026-04-04T09:00:01.825Z</time></trkpt><trkpt lat="42.0225783" lon="-8.0145867"><ele>880.5</ele><time>2026-04-04T09:00:02.825Z</time></trkpt><trkpt lat="42.0226983" lon="-8.01464"><ele>880.75</ele><time>2026-04-04T09:00:03.823Z</time></trkpt><trkpt lat="42.02281" lon="-8.0147033"><ele>881.0</ele><time>2026-04-04T09:00:04.823Z</time></trkpt><trkpt lat="42.0228933" lon="-8.0147583"><ele>881.0000000000001</ele><time>2026-04-04T09:00:05.823Z</time></trkpt><trkpt lat="42.02297" lon="-8.0148117"><ele>881.0</ele><time>2026-04-04T09:00:06.824Z</time></trkpt><trkpt lat="42.0230417" lon="-8.0149033"><ele>881.0</ele><time>2026-04-04T09:00:08.824Z</time></trkpt><trkpt lat="42.0230817" lon="-8.0149867"><ele>881.0</ele><time>2026-04-04T09:00:10.823Z</time></trkpt><trkpt lat="42.0230483" lon="-8.01506"><ele>881.0000000000001</ele><time>2026-04-04T09:00:11.824Z</time></trkpt><trkpt lat="42.0229717" lon="-8.0151367"><ele>881.0</ele><time>2026-04-04T09:00:12.825Z</time></trkpt><trkpt lat="42.0228783" lon="-8.0152167"><ele>878.0</ele><time>2026-04-04T09:00:13.825Z</time></trkpt><trkpt lat="42.02273" lon="-8.015305"><ele>875.0</ele><time>2026-04-04T09:00:14.824Z</time></trkpt><trkpt lat="42.02236" lon="-8.015435"><ele>874.0</ele><time>2026-04-04T09:00:15.824Z</time></trkpt><trkpt lat="42.022185" lon="-8.015535"><ele>873.0</ele><time>2026-04-04T09:00:16.825Z</time></trkpt><trkpt lat="42.0220533" lon="-8.015635"><ele>872.0</ele><time>2026-04-04T09:00:17.825Z</time></trkpt><trkpt lat="42.021945" lon="-8.0157267"><ele>872.0</ele><time>2026-04-04T09:00:18.824Z</time></trkpt><trkpt lat="42.0218567" lon="-8.0158017"><ele>872.0</ele><time>2026-04-04T09:00:19.823Z</time></trkpt><trkpt lat="42.021775" lon="-8.0158483"><ele>872.0</ele><time>2026-04-04T09:00:20.824Z</time></trkpt><trkpt lat="42.02168" lon="-8.0158783"><ele>872.0</ele><time>2026-04-04T09:00:21.824Z</time></trkpt><trkpt lat="42.02156" lon="-8.0158917"><ele>872.0</ele><time>2026-04-04T09:00:22.825Z</time></trkpt><trkpt lat="42.0214167" lon="-8.0158967"><ele>868.0</ele><time>2026-04-04T09:00:23.824Z</time></trkpt><trkpt lat="42.021285" lon="-8.0159017"><ele>864.0</ele><time>2026-04-04T09:00:24.826Z</time></trkpt><trkpt lat="42.021155" lon="-8.0159133"><ele>860.0</ele><time>2026-04-04T09:00:25.824Z</time></trkpt><trkpt lat="42.0210317" lon="-8.0159167"><ele>856.0</ele><time>2026-04-04T09:00:26.824Z</time></trkpt><trkpt lat="42.0209133" lon="-8.0158967"><ele>855.25</ele><time>2026-04-04T09:00:27.827Z</time></trkpt><trkpt lat="42.0207917" lon="-8.015855"><ele>854.5</ele><time>2026-04-04T09:00:28.825Z</time></trkpt><trkpt lat="42.020675" lon="-8.0158117"><ele>853.75</ele><time>2026-04-04T09:00:29.824Z</time></trkpt><trkpt lat="42.0205533" lon="-8.0157883"><ele>853.0</ele><time>2026-04-04T09:00:30.824Z</time></trkpt><trkpt lat="42.0204333" lon="-8.0157967"><ele>853.0</ele><time>2026-04-04T09:00:31.825Z</time></trkpt><trkpt lat="42.020305" lon="-8.0158217"><ele>853.0</ele><time>2026-04-04T09:00:32.826Z</time></trkpt><trkpt lat="42.0201833" lon="-8.015835"><ele>853.0</ele><time>2026-04-04T09:00:33.824Z</time></trkpt><trkpt lat="42.020075" lon="-8.0158433"><ele>853.0</ele><time>2026-04-04T09:00:34.824Z</time></trkpt><trkpt lat="42.0199533" lon="-8.01585"><ele>852.25</ele><time>2026-04-04T09:00:35.824Z</time></trkpt><trkpt lat="42.0198167" lon="-8.015865"><ele>851.5</ele><time>2026-04-04T09:00:36.824Z</time></trkpt><trkpt lat="42.0196733" lon="-8.0158783"><ele>850.75</ele><time>2026-04-04T09:00:37.824Z</time></trkpt><trkpt lat="42.0195283" lon="-8.0158867"><ele>850.0</ele><time>2026-04-04T09:00:38.824Z</time></trkpt><trkpt lat="42.0193967" lon="-8.0159033"><ele>850.0</ele><time>2026-04-04T09:00:39.824Z</time></trkpt><trkpt lat="42.019275" lon="-8.0159117"><ele>850.0</ele><time>2026-04-04T09:00:40.823Z</time></trkpt><trkpt lat="42.01915" lon="-8.0159167"><ele>850.0</ele><time>2026-04-04T09:00:41.823Z</time></trkpt><trkpt lat="42.01901" lon="-8.015925"><ele>850.0</ele><time>2026-04-04T09:00:42.824Z</time></trkpt><trkpt lat="42.01887" lon="-8.0159433"><ele>849.5</ele><time>2026-04-04T09:00:43.823Z</time></trkpt><trkpt lat="42.018735" lon="-8.0159583"><ele>849.0</ele><time>2026-04-04T09:00:44.823Z</time></trkpt><trkpt lat="42.018605" lon="-8.015965"><ele>848.5</ele><time>2026-04-04T09:00:45.824Z</time></trkpt><trkpt lat="42.018495" lon="-8.01596"><ele>848.0</ele><time>2026-04-04T09:00:46.826Z</time></trkpt><trkpt lat="42.01841" lon="-8.01594"><ele>848.0000000000001</ele><time>2026-04-04T09:00:47.824Z</time></trkpt><trkpt lat="42.0183383" lon="-8.0159067"><ele>848.0</ele><time>2026-04-04T09:00:48.824Z</time></trkpt><trkpt lat="42.0182733" lon="-8.0158517"><ele>848.0</ele><time>2026-04-04T09:00:49.824Z</time></trkpt><trkpt lat="42.0182" lon="-8.0157883"><ele>848.0</ele><time>2026-04-04T09:00:50.824Z</time></trkpt><trkpt lat="42.0181317" lon="-8.0156917"><ele>848.0000000000001</ele><time>2026-04-04T09:00:51.824Z</time></trkpt><trkpt lat="42.01806" lon="-8.01561"><ele>848.0</ele><time>2026-04-04T09:00:52.824Z</time></trkpt><trkpt lat="42.0179867" lon="-8.0155517"><ele>851.5999999999999</ele><time>2026-04-04T09:00:53.824Z</time></trkpt><trkpt lat="42.017915" lon="-8.0155"><ele>855.1999999999999</ele><time>2026-04-04T09:00:54.824Z</time></trkpt><trkpt lat="42.0178333" lon="-8.0154517"><ele>858.8</ele><time>2026-04-04T09:00:55.824Z</time></trkpt><trkpt lat="42.0177533" lon="-8.0154633"><ele>862.4</ele><time>2026-04-04T09:00:56.824Z</time></trkpt><trkpt lat="42.01766" lon="-8.01558"><ele>866.0</ele><time>2026-04-04T09:00:58.824Z</time></trkpt><trkpt lat="42.0176317" lon="-8.0157633"><ele>862.8</ele><time>2026-04-04T09:00:59.824Z</time></trkpt><trkpt lat="42.017525" lon="-8.0158467"><ele>859.5999999999999</ele><time>2026-04-04T09:01:00.824Z</time></trkpt><trkpt lat="42.0174383" lon="-8.015875"><ele>856.4</ele><time>2026-04-04T09:01:01.826Z</time></trkpt><trkpt lat="42.01735" lon="-8.0159033"><ele>853.2</ele><time>2026-04-04T09:01:02.823Z</time></trkpt><trkpt lat="42.0172567" lon="-8.01589"><ele>850.0</ele><time>2026-04-04T09:01:03.823Z</time></trkpt><trkpt lat="42.017165" lon="-8.0158633"><ele>850.0</ele><time>2026-04-04T09:01:04.824Z</time></trkpt><trkpt lat="42.017075" lon="-8.01583"><ele>850.0</ele><time>2026-04-04T09:01:05.824Z</time></trkpt><trkpt lat="42.0169783" lon="-8.0157983"><ele>850.0</ele><time>2026-04-04T09:01:06.824Z</time></trkpt><trkpt lat="42.0169" lon="-8.0157867"><ele>850.0</ele><time>2026-04-04T09:01:07.824Z</time></trkpt><trkpt lat="42.0167983" lon="-8.0158483"><ele>850.0</ele><time>2026-04-04T09:01:09.824Z</time></trkpt><trkpt lat="42.0167433" lon="-8.015915"><ele>850.0</ele><time>2026-04-04T09:01:10.824Z</time></trkpt><trkpt lat="42.01667" lon="-8.0159867"><ele>850.0</ele><time>2026-04-04T09:01:11.825Z</time></trkpt><trkpt lat="42.0165883" lon="-8.0160517"><ele>850.0</ele><time>2026-04-04T09:01:12.824Z</time></trkpt><trkpt lat="42.0164967" lon="-8.016095"><ele>850.0</ele><time>2026-04-04T09:01:13.824Z</time></trkpt><trkpt lat="42.0164083" lon="-8.01613"><ele>850.0</ele><time>2026-04-04T09:01:14.824Z</time></trkpt><trkpt lat="42.0163267" lon="-8.0161717"><ele>850.0</ele><time>2026-04-04T09:01:15.825Z</time></trkpt><trkpt lat="42.0162533" lon="-8.0162317"><ele>850.0</ele><time>2026-04-04T09:01:16.824Z</time></trkpt><trkpt lat="42.01619" lon="-8.016315"><ele>850.0</ele><time>2026-04-04T09:01:17.824Z</time></trkpt><trkpt lat="42.0161367" lon="-8.0164167"><ele>850.0</ele><time>2026-04-04T09:01:18.825Z</time></trkpt><trkpt lat="42.0161367" lon="-8.0165733"><ele>850.0</ele><time>2026-04-04T09:01:19.825Z</time></trkpt><trkpt lat="42.01612" lon="-8.016725"><ele>850.0</ele><time>2026-04-04T09:01:20.824Z</time></trkpt><trkpt lat="42.01611" lon="-8.016915"><ele>850.0</ele><time>2026-04-04T09:01:21.824Z</time></trkpt><trkpt lat="42.0160633" lon="-8.0170883"><ele>850.0</ele><time>2026-04-04T09:01:22.824Z</time></trkpt><trkpt lat="42.0160017" lon="-8.0172483"><ele>850.0</ele><time>2026-04-04T09:01:23.824Z</time></trkpt><trkpt lat="42.0159383" lon="-8.0173783"><ele>849.0</ele><time>2026-04-04T09:01:24.824Z</time></trkpt><trkpt lat="42.01586" lon="-8.0175067"><ele>848.0</ele><time>2026-04-04T09:01:25.824Z</time></trkpt><trkpt lat="42.01577" lon="-8.0176217"><ele>847.0</ele><time>2026-04-04T09:01:26.824Z</time></trkpt><trkpt lat="42.0156767" lon="-8.0177033"><ele>846.0</ele><time>2026-04-04T09:01:27.824Z</time></trkpt><trkpt lat="42.0155933" lon="-8.0177633"><ele>846.0</ele><time>2026-04-04T09:01:28.824Z</time></trkpt><trkpt lat="42.0155" lon="-8.0178083"><ele>846.0</ele><time>2026-04-04T09:01:29.824Z</time></trkpt><trkpt lat="42.0153917" lon="-8.0178383"><ele>846.0</ele><time>2026-04-04T09:01:30.824Z</time></trkpt><trkpt lat="42.015265" lon="-8.01788"><ele>846.0</ele><time>2026-04-04T09:01:31.825Z</time></trkpt><trkpt lat="42.01512" lon="-8.01793"><ele>843.3333333333333</ele><time>2026-04-04T09:01:32.824Z</time></trkpt><trkpt lat="42.0149717" lon="-8.0179867"><ele>840.6666666666666</ele><time>2026-04-04T09:01:33.824Z</time></trkpt><trkpt lat="42.0148267" lon="-8.0180383"><ele>838.0</ele><time>2026-04-04T09:01:34.823Z</time></trkpt><trkpt lat="42.0146783" lon="-8.01809"><ele>838.0</ele><time>2026-04-04T09:01:35.824Z</time></trkpt><trkpt lat="42.014535" lon="-8.0181317"><ele>838.0</ele><time>2026-04-04T09:01:36.824Z</time></trkpt><trkpt lat="42.0144183" lon="-8.0181683"><ele>838.0</ele><time>2026-04-04T09:01:37.824Z</time></trkpt><trkpt lat="42.0143117" lon="-8.0181933"><ele>838.0</ele><time>2026-04-04T09:01:38.824Z</time></trkpt><trkpt lat="42.0142133" lon="-8.018205"><ele>835.0</ele><time>2026-04-04T09:01:39.824Z</time></trkpt><trkpt lat="42.014105" lon="-8.0182033"><ele>832.0</ele><time>2026-04-04T09:01:40.824Z</time></trkpt><trkpt lat="42.0139967" lon="-8.0181933"><ele>829.0</ele><time>2026-04-04T09:01:41.825Z</time></trkpt><trkpt lat="42.0138933" lon="-8.018175"><ele>826.0</ele><time>2026-04-04T09:01:42.824Z</time></trkpt><trkpt lat="42.0138067" lon="-8.0181433"><ele>823.0</ele><time>2026-04-04T09:01:43.825Z</time></trkpt><trkpt lat="42.0137317" lon="-8.0180817"><ele>823.0</ele><time>2026-04-04T09:01:44.824Z</time></trkpt><trkpt lat="42.0136583" lon="-8.017995"><ele>823.0</ele><time>2026-04-04T09:01:45.824Z</time></trkpt><trkpt lat="42.0135867" lon="-8.01788"><ele>823.0</ele><time>2026-04-04T09:01:46.824Z</time></trkpt><trkpt lat="42.01352" lon="-8.0177417"><ele>823.0</ele><time>2026-04-04T09:01:47.824Z</time></trkpt><trkpt lat="42.0134583" lon="-8.0175967"><ele>825.2</ele><time>2026-04-04T09:01:48.824Z</time></trkpt><trkpt lat="42.01341" lon="-8.0174633"><ele>827.4</ele><time>2026-04-04T09:01:49.824Z</time></trkpt><trkpt lat="42.0133783" lon="-8.0173383"><ele>829.6</ele><time>2026-04-04T09:01:50.824Z</time></trkpt><trkpt lat="42.0133617" lon="-8.01722"><ele>831.8000000000001</ele><time>2026-04-04T09:01:51.823Z</time></trkpt><trkpt lat="42.0133617" lon="-8.0170917"><ele>834.0</ele><time>2026-04-04T09:01:52.823Z</time></trkpt><trkpt lat="42.0133667" lon="-8.0169833"><ele>834.0</ele><time>2026-04-04T09:01:53.823Z</time></trkpt><trkpt lat="42.0133717" lon="-8.0168833"><ele>834.0</ele><time>2026-04-04T09:01:54.823Z</time></trkpt><trkpt lat="42.0133717" lon="-8.01679"><ele>834.0</ele><time>2026-04-04T09:01:55.823Z</time></trkpt><trkpt lat="42.0132967" lon="-8.0166967"><ele>834.0</ele><time>2026-04-04T09:01:58.823Z</time></trkpt><trkpt lat="42.01317" lon="-8.0168017"><ele>834.0</ele><time>2026-04-04T09:01:59.823Z</time></trkpt><trkpt lat="42.013095" lon="-8.0168367"><ele>834.3333333333333</ele><time>2026-04-04T09:02:00.824Z</time></trkpt><trkpt lat="42.0129733" lon="-8.0169"><ele>834.6666666666666</ele><time>2026-04-04T09:02:01.823Z</time></trkpt><trkpt lat="42.0128333" lon="-8.017005"><ele>835.0</ele><time>2026-04-04T09:02:02.823Z</time></trkpt><trkpt lat="42.0126633" lon="-8.01712"><ele>835.0</ele><time>2026-04-04T09:02:03.823Z</time></trkpt><trkpt lat="42.0125433" lon="-8.0171667"><ele>835.0</ele><time>2026-04-04T09:02:04.824Z</time></trkpt><trkpt lat="42.0124383" lon="-8.0171917"><ele>835.0</ele><time>2026-04-04T09:02:05.823Z</time></trkpt><trkpt lat="42.01233" lon="-8.0171983"><ele>835.0</ele><time>2026-04-04T09:02:06.823Z</time></trkpt><trkpt lat="42.0122233" lon="-8.0171833"><ele>835.0</ele><time>2026-04-04T09:02:07.822Z</time></trkpt><trkpt lat="42.012125" lon="-8.0171483"><ele>834.4</ele><time>2026-04-04T09:02:08.823Z</time></trkpt><trkpt lat="42.0120433" lon="-8.01709"><ele>833.8</ele><time>2026-04-04T09:02:09.824Z</time></trkpt><trkpt lat="42.0119433" lon="-8.0170183"><ele>833.2</ele><time>2026-04-04T09:02:10.824Z</time></trkpt><trkpt lat="42.011855" lon="-8.0169567"><ele>832.6</ele><time>2026-04-04T09:02:11.823Z</time></trkpt><trkpt lat="42.0117617" lon="-8.0169217"><ele>832.0</ele><time>2026-04-04T09:02:12.824Z</time></trkpt><trkpt lat="42.0116567" lon="-8.0169"><ele>831.0</ele><time>2026-04-04T09:02:13.823Z</time></trkpt><trkpt lat="42.0115317" lon="-8.0169183"><ele>830.0</ele><time>2026-04-04T09:02:14.823Z</time></trkpt><trkpt lat="42.011405" lon="-8.0169267"><ele>829.0</ele><time>2026-04-04T09:02:15.823Z</time></trkpt><trkpt lat="42.0112933" lon="-8.0169383"><ele>828.0</ele><time>2026-04-04T09:02:16.823Z</time></trkpt><trkpt lat="42.011185" lon="-8.0169233"><ele>828.0</ele><time>2026-04-04T09:02:17.823Z</time></trkpt><trkpt lat="42.0110717" lon="-8.01689"><ele>828.0</ele><time>2026-04-04T09:02:18.824Z</time></trkpt><trkpt lat="42.0109533" lon="-8.0168317"><ele>828.0</ele><time>2026-04-04T09:02:19.824Z</time></trkpt><trkpt lat="42.01085" lon="-8.016775"><ele>828.0</ele><time>2026-04-04T09:02:20.824Z</time></trkpt><trkpt lat="42.0107617" lon="-8.016735"><ele>828.0</ele><time>2026-04-04T09:02:21.823Z</time></trkpt><trkpt lat="42.0106833" lon="-8.0167167"><ele>829.3333333333334</ele><time>2026-04-04T09:02:22.823Z</time></trkpt><trkpt lat="42.0106017" lon="-8.016715"><ele>830.6666666666667</ele><time>2026-04-04T09:02:23.823Z</time></trkpt><trkpt lat="42.01053" lon="-8.016765"><ele>832.0</ele><time>2026-04-04T09:02:24.823Z</time></trkpt><trkpt lat="42.010455" lon="-8.0168383"><ele>833.3333333333334</ele><time>2026-04-04T09:02:25.824Z</time></trkpt><trkpt lat="42.0104067" lon="-8.0169183"><ele>834.6666666666667</ele><time>2026-04-04T09:02:26.822Z</time></trkpt><trkpt lat="42.0103917" lon="-8.01704"><ele>836.0</ele><time>2026-04-04T09:02:27.824Z</time></trkpt><trkpt lat="42.0103583" lon="-8.017165"><ele>836.0</ele><time>2026-04-04T09:02:28.824Z</time></trkpt><trkpt lat="42.0102967" lon="-8.0172767"><ele>836.0</ele><time>2026-04-04T09:02:29.824Z</time></trkpt><trkpt lat="42.010225" lon="-8.0173483"><ele>836.0</ele><time>2026-04-04T09:02:30.823Z</time></trkpt><trkpt lat="42.0101383" lon="-8.0174083"><ele>836.0</ele><time>2026-04-04T09:02:31.824Z</time></trkpt><trkpt lat="42.010035" lon="-8.017455"><ele>836.0</ele><time>2026-04-04T09:02:32.823Z</time></trkpt><trkpt lat="42.0099383" lon="-8.0174617"><ele>833.75</ele><time>2026-04-04T09:02:33.824Z</time></trkpt><trkpt lat="42.0098467" lon="-8.0174333"><ele>831.5</ele><time>2026-04-04T09:02:34.823Z</time></trkpt><trkpt lat="42.009735" lon="-8.017375"><ele>829.25</ele><time>2026-04-04T09:02:35.823Z</time></trkpt><trkpt lat="42.0096067" lon="-8.0172933"><ele>827.0</ele><time>2026-04-04T09:02:36.824Z</time></trkpt><trkpt lat="42.0094567" lon="-8.0171717"><ele>827.0</ele><time>2026-04-04T09:02:37.824Z</time></trkpt><trkpt lat="42.009315" lon="-8.0170567"><ele>827.0</ele><time>2026-04-04T09:02:38.823Z</time></trkpt><trkpt lat="42.0091783" lon="-8.0169467"><ele>827.0</ele><time>2026-04-04T09:02:39.823Z</time></trkpt><trkpt lat="42.0090483" lon="-8.016825"><ele>827.25</ele><time>2026-04-04T09:02:40.824Z</time></trkpt><trkpt lat="42.008925" lon="-8.0167017"><ele>827.5</ele><time>2026-04-04T09:02:41.823Z</time></trkpt><trkpt lat="42.008815" lon="-8.0165917"><ele>827.75</ele><time>2026-04-04T09:02:42.824Z</time></trkpt><trkpt lat="42.0087183" lon="-8.016495"><ele>828.0</ele><time>2026-04-04T09:02:43.823Z</time></trkpt><trkpt lat="42.0086417" lon="-8.016415"><ele>828.0</ele><time>2026-04-04T09:02:44.825Z</time></trkpt><trkpt lat="42.008575" lon="-8.0163667"><ele>828.0</ele><time>2026-04-04T09:02:45.823Z</time></trkpt><trkpt lat="42.0085083" lon="-8.0163217"><ele>828.0</ele><time>2026-04-04T09:02:46.822Z</time></trkpt><trkpt lat="42.0084" lon="-8.016355"><ele>828.0</ele><time>2026-04-04T09:02:48.823Z</time></trkpt><trkpt lat="42.0083567" lon="-8.0164383"><ele>828.0</ele><time>2026-04-04T09:02:49.823Z</time></trkpt><trkpt lat="42.008295" lon="-8.016485"><ele>828.0</ele><time>2026-04-04T09:02:50.823Z</time></trkpt><trkpt lat="42.0081817" lon="-8.01651"><ele>826.75</ele><time>2026-04-04T09:02:52.824Z</time></trkpt><trkpt lat="42.0080617" lon="-8.0164267"><ele>825.5</ele><time>2026-04-04T09:02:54.824Z</time></trkpt><trkpt lat="42.0079817" lon="-8.0163167"><ele>824.25</ele><time>2026-04-04T09:02:55.824Z</time></trkpt><trkpt lat="42.0079133" lon="-8.01619"><ele>823.0</ele><time>2026-04-04T09:02:56.824Z</time></trkpt><trkpt lat="42.0078483" lon="-8.0160917"><ele>823.0</ele><time>2026-04-04T09:02:57.825Z</time></trkpt><trkpt lat="42.007785" lon="-8.0160133"><ele>823.0</ele><time>2026-04-04T09:02:58.823Z</time></trkpt><trkpt lat="42.0077217" lon="-8.0159717"><ele>823.0</ele><time>2026-04-04T09:02:59.823Z</time></trkpt><trkpt lat="42.0076033" lon="-8.0160183"><ele>823.0</ele><time>2026-04-04T09:03:01.823Z</time></trkpt><trkpt lat="42.0075233" lon="-8.01613"><ele>823.0</ele><time>2026-04-04T09:03:03.823Z</time></trkpt><trkpt lat="42.0075217" lon="-8.0162517"><ele>822.9999999999999</ele><time>2026-04-04T09:03:04.823Z</time></trkpt><trkpt lat="42.007495" lon="-8.016365"><ele>823.0</ele><time>2026-04-04T09:03:05.823Z</time></trkpt><trkpt lat="42.007405" lon="-8.0164133"><ele>823.0</ele><time>2026-04-04T09:03:07.823Z</time></trkpt><trkpt lat="42.00734" lon="-8.0164217"><ele>823.0</ele><time>2026-04-04T09:03:08.823Z</time></trkpt><trkpt lat="42.0072483" lon="-8.0164183"><ele>822.9999999999999</ele><time>2026-04-04T09:03:09.823Z</time></trkpt><trkpt lat="42.007175" lon="-8.0164033"><ele>823.0</ele><time>2026-04-04T09:03:10.824Z</time></trkpt><trkpt lat="42.007085" lon="-8.01637"><ele>823.1666666666666</ele><time>2026-04-04T09:03:11.823Z</time></trkpt><trkpt lat="42.0069967" lon="-8.01632"><ele>823.3333333333333</ele><time>2026-04-04T09:03:12.824Z</time></trkpt><trkpt lat="42.0069233" lon="-8.0162833"><ele>823.5</ele><time>2026-04-04T09:03:13.823Z</time></trkpt><trkpt lat="42.0068517" lon="-8.01626"><ele>823.6666666666667</ele><time>2026-04-04T09:03:14.823Z</time></trkpt><trkpt lat="42.006785" lon="-8.016245"><ele>823.8333333333334</ele><time>2026-04-04T09:03:15.823Z</time></trkpt><trkpt lat="42.006685" lon="-8.016255"><ele>824.0</ele><time>2026-04-04T09:03:17.823Z</time></trkpt><trkpt lat="42.006625" lon="-8.0163083"><ele>824.4000000000001</ele><time>2026-04-04T09:03:18.823Z</time></trkpt><trkpt lat="42.0065467" lon="-8.0163767"><ele>824.8</ele><time>2026-04-04T09:03:19.823Z</time></trkpt><trkpt lat="42.0064817" lon="-8.0164917"><ele>825.2</ele><time>2026-04-04T09:03:20.823Z</time></trkpt><trkpt lat="42.0063833" lon="-8.0166067"><ele>825.5999999999999</ele><time>2026-04-04T09:03:21.823Z</time></trkpt><trkpt lat="42.0063033" lon="-8.0166983"><ele>826.0</ele><time>2026-04-04T09:03:22.823Z</time></trkpt><trkpt lat="42.0062017" lon="-8.01681"><ele>826.0</ele><time>2026-04-04T09:03:23.823Z</time></trkpt><trkpt lat="42.0061217" lon="-8.016925"><ele>826.0</ele><time>2026-04-04T09:03:24.823Z</time></trkpt><trkpt lat="42.0060517" lon="-8.017055"><ele>826.0</ele><time>2026-04-04T09:03:25.824Z</time></trkpt><trkpt lat="42.005975" lon="-8.0171917"><ele>826.0</ele><time>2026-04-04T09:03:26.824Z</time></trkpt><trkpt lat="42.0058983" lon="-8.0173183"><ele>825.0</ele><time>2026-04-04T09:03:27.822Z</time></trkpt><trkpt lat="42.00582" lon="-8.01745"><ele>824.0</ele><time>2026-04-04T09:03:28.822Z</time></trkpt><trkpt lat="42.00574" lon="-8.0175617"><ele>823.0</ele><time>2026-04-04T09:03:29.824Z</time></trkpt><trkpt lat="42.0056583" lon="-8.0176733"><ele>822.0</ele><time>2026-04-04T09:03:30.823Z</time></trkpt><trkpt lat="42.005575" lon="-8.01776"><ele>822.0</ele><time>2026-04-04T09:03:31.823Z</time></trkpt><trkpt lat="42.0054883" lon="-8.0178367"><ele>822.0</ele><time>2026-04-04T09:03:32.823Z</time></trkpt><trkpt lat="42.0054083" lon="-8.0178967"><ele>822.0</ele><time>2026-04-04T09:03:33.823Z</time></trkpt><trkpt lat="42.0053367" lon="-8.017955"><ele>822.0</ele><time>2026-04-04T09:03:34.823Z</time></trkpt><trkpt lat="42.0052683" lon="-8.0180083"><ele>822.0</ele><time>2026-04-04T09:03:35.823Z</time></trkpt><trkpt lat="42.0052017" lon="-8.0180567"><ele>822.0</ele><time>2026-04-04T09:03:36.823Z</time></trkpt><trkpt lat="42.0051417" lon="-8.0181"><ele>822.0</ele><time>2026-04-04T09:03:37.824Z</time></trkpt><trkpt lat="42.0050333" lon="-8.0181583"><ele>822.0</ele><time>2026-04-04T09:03:39.824Z</time></trkpt><trkpt lat="42.0049733" lon="-8.01819"><ele>822.0</ele><time>2026-04-04T09:03:40.823Z</time></trkpt><trkpt lat="42.0049033" lon="-8.0182317"><ele>822.0</ele><time>2026-04-04T09:03:41.823Z</time></trkpt><trkpt lat="42.00482" lon="-8.01828"><ele>822.0</ele><time>2026-04-04T09:03:42.823Z</time></trkpt><trkpt lat="42.004735" lon="-8.0183383"><ele>822.0</ele><time>2026-04-04T09:03:43.824Z</time></trkpt><trkpt lat="42.004635" lon="-8.0184033"><ele>820.4000000000001</ele><time>2026-04-04T09:03:44.823Z</time></trkpt><trkpt lat="42.00454" lon="-8.0184667"><ele>818.8000000000001</ele><time>2026-04-04T09:03:45.822Z</time></trkpt><trkpt lat="42.0044417" lon="-8.0185133"><ele>817.2</ele><time>2026-04-04T09:03:46.823Z</time></trkpt><trkpt lat="42.00434" lon="-8.0185383"><ele>815.6</ele><time>2026-04-04T09:03:47.823Z</time></trkpt><trkpt lat="42.00423" lon="-8.0185467"><ele>814.0</ele><time>2026-04-04T09:03:48.823Z</time></trkpt><trkpt lat="42.0041117" lon="-8.0185417"><ele>814.0</ele><time>2026-04-04T09:03:49.823Z</time></trkpt><trkpt lat="42.0039833" lon="-8.0185483"><ele>814.0</ele><time>2026-04-04T09:03:50.823Z</time></trkpt><trkpt lat="42.00386" lon="-8.0185683"><ele>814.0</ele><time>2026-04-04T09:03:51.823Z</time></trkpt><trkpt lat="42.0037517" lon="-8.0185967"><ele>814.0</ele><time>2026-04-04T09:03:52.823Z</time></trkpt><trkpt lat="42.0036583" lon="-8.0186117"><ele>813.9999999999999</ele><time>2026-04-04T09:03:53.823Z</time></trkpt><trkpt lat="42.00357" lon="-8.0186017"><ele>814.0</ele><time>2026-04-04T09:03:54.823Z</time></trkpt><trkpt lat="42.0034867" lon="-8.0185767"><ele>814.0</ele><time>2026-04-04T09:03:55.824Z</time></trkpt><trkpt lat="42.0034117" lon="-8.0185633"><ele>814.0</ele><time>2026-04-04T09:03:56.823Z</time></trkpt><trkpt lat="42.003345" lon="-8.01857"><ele>813.9999999999999</ele><time>2026-04-04T09:03:57.823Z</time></trkpt><trkpt lat="42.003235" lon="-8.0186"><ele>814.0</ele><time>2026-04-04T09:03:59.823Z</time></trkpt><trkpt lat="42.00316" lon="-8.0187317"><ele>814.4999999999999</ele><time>2026-04-04T09:04:01.823Z</time></trkpt><trkpt lat="42.0031233" lon="-8.018825"><ele>815.0</ele><time>2026-04-04T09:04:02.823Z</time></trkpt><trkpt lat="42.00308" lon="-8.0189017"><ele>815.5</ele><time>2026-04-04T09:04:03.824Z</time></trkpt><trkpt lat="42.0030283" lon="-8.0189683"><ele>816.0</ele><time>2026-04-04T09:04:04.823Z</time></trkpt><trkpt lat="42.00297" lon="-8.0190417"><ele>816.4999999999999</ele><time>2026-04-04T09:04:05.823Z</time></trkpt><trkpt lat="42.0029" lon="-8.019115"><ele>817.0</ele><time>2026-04-04T09:04:06.824Z</time></trkpt><trkpt lat="42.0028083" lon="-8.0191633"><ele>815.25</ele><time>2026-04-04T09:04:07.823Z</time></trkpt><trkpt lat="42.0027067" lon="-8.0191833"><ele>813.5</ele><time>2026-04-04T09:04:08.823Z</time></trkpt><trkpt lat="42.00258" lon="-8.01918"><ele>811.75</ele><time>2026-04-04T09:04:09.824Z</time></trkpt><trkpt lat="42.00243" lon="-8.019135"><ele>810.0</ele><time>2026-04-04T09:04:10.824Z</time></trkpt><trkpt lat="42.0022867" lon="-8.01909"><ele>810.0</ele><time>2026-04-04T09:04:11.823Z</time></trkpt><trkpt lat="42.0021683" lon="-8.019065"><ele>810.0</ele><time>2026-04-04T09:04:12.823Z</time></trkpt><trkpt lat="42.002065" lon="-8.0190267"><ele>810.0</ele><time>2026-04-04T09:04:13.824Z</time></trkpt><trkpt lat="42.0019617" lon="-8.0189783"><ele>810.0</ele><time>2026-04-04T09:04:14.823Z</time></trkpt><trkpt lat="42.0018567" lon="-8.0189083"><ele>810.0</ele><time>2026-04-04T09:04:15.824Z</time></trkpt><trkpt lat="42.0017733" lon="-8.0188233"><ele>810.0</ele><time>2026-04-04T09:04:16.823Z</time></trkpt><trkpt lat="42.0017033" lon="-8.0187467"><ele>810.0</ele><time>2026-04-04T09:04:17.824Z</time></trkpt><trkpt lat="42.00164" lon="-8.018645"><ele>810.0</ele><time>2026-04-04T09:04:18.824Z</time></trkpt><trkpt lat="42.0015833" lon="-8.01854"><ele>810.0</ele><time>2026-04-04T09:04:19.824Z</time></trkpt><trkpt lat="42.0015283" lon="-8.0184717"><ele>810.8</ele><time>2026-04-04T09:04:20.824Z</time></trkpt><trkpt lat="42.001485" lon="-8.018405"><ele>811.6</ele><time>2026-04-04T09:04:21.823Z</time></trkpt><trkpt lat="42.0014433" lon="-8.01834"><ele>812.4000000000001</ele><time>2026-04-04T09:04:22.825Z</time></trkpt><trkpt lat="42.0013567" lon="-8.0182733"><ele>813.2</ele><time>2026-04-04T09:04:24.825Z</time></trkpt><trkpt lat="42.0012417" lon="-8.0183433"><ele>814.0</ele><time>2026-04-04T09:04:26.824Z</time></trkpt><trkpt lat="42.00111" lon="-8.0184333"><ele>814.0</ele><time>2026-04-04T09:04:28.823Z</time></trkpt><trkpt lat="42.0010283" lon="-8.0184983"><ele>814.0</ele><time>2026-04-04T09:04:29.823Z</time></trkpt><trkpt lat="42.000925" lon="-8.0185917"><ele>814.0</ele><time>2026-04-04T09:04:30.823Z</time></trkpt><trkpt lat="42.0008017" lon="-8.0187117"><ele>814.0</ele><time>2026-04-04T09:04:31.823Z</time></trkpt><trkpt lat="42.000655" lon="-8.0187733"><ele>815.25</ele><time>2026-04-04T09:04:32.823Z</time></trkpt><trkpt lat="42.0004933" lon="-8.01883"><ele>816.5</ele><time>2026-04-04T09:04:33.823Z</time></trkpt><trkpt lat="42.000365" lon="-8.0188983"><ele>817.75</ele><time>2026-04-04T09:04:34.824Z</time></trkpt><trkpt lat="42.00025" lon="-8.0189817"><ele>819.0</ele><time>2026-04-04T09:04:35.824Z</time></trkpt><trkpt lat="42.0001383" lon="-8.0190667"><ele>819.0</ele><time>2026-04-04T09:04:36.823Z</time></trkpt><trkpt lat="42.00004" lon="-8.01912"><ele>819.0</ele><time>2026-04-04T09:04:37.823Z</time></trkpt><trkpt lat="41.9999483" lon="-8.0191567"><ele>819.0</ele><time>2026-04-04T09:04:38.824Z</time></trkpt><trkpt lat="41.9998617" lon="-8.019185"><ele>819.0</ele><time>2026-04-04T09:04:39.824Z</time></trkpt><trkpt lat="41.9997683" lon="-8.019195"><ele>819.0</ele><time>2026-04-04T09:04:40.823Z</time></trkpt><trkpt lat="41.9996667" lon="-8.0191917"><ele>819.0</ele><time>2026-04-04T09:04:41.824Z</time></trkpt><trkpt lat="41.99956" lon="-8.0191683"><ele>819.0</ele><time>2026-04-04T09:04:42.824Z</time></trkpt><trkpt lat="41.99945" lon="-8.01914"><ele>819.0</ele><time>2026-04-04T09:04:43.824Z</time></trkpt><trkpt lat="41.999355" lon="-8.01912"><ele>819.0</ele><time>2026-04-04T09:04:44.824Z</time></trkpt><trkpt lat="41.999255" lon="-8.019125"><ele>819.0</ele><time>2026-04-04T09:04:45.824Z</time></trkpt><trkpt lat="41.99916" lon="-8.0191567"><ele>817.6</ele><time>2026-04-04T09:04:46.826Z</time></trkpt><trkpt lat="41.999065" lon="-8.019235"><ele>816.2</ele><time>2026-04-04T09:04:47.823Z</time></trkpt><trkpt lat="41.9989683" lon="-8.0193383"><ele>814.8000000000001</ele><time>2026-04-04T09:04:48.824Z</time></trkpt><trkpt lat="41.9988867" lon="-8.0194417"><ele>813.4000000000001</ele><time>2026-04-04T09:04:49.823Z</time></trkpt><trkpt lat="41.99882" lon="-8.0195233"><ele>812.0</ele><time>2026-04-04T09:04:50.827Z</time></trkpt><trkpt lat="41.9987567" lon="-8.0195933"><ele>812.0000000000001</ele><time>2026-04-04T09:04:51.824Z</time></trkpt><trkpt lat="41.998705" lon="-8.019645"><ele>812.0</ele><time>2026-04-04T09:04:52.823Z</time></trkpt><trkpt lat="41.998635" lon="-8.0196883"><ele>812.0</ele><time>2026-04-04T09:04:54.824Z</time></trkpt><trkpt lat="41.998575" lon="-8.0196017"><ele>812.0</ele><time>2026-04-04T09:04:57.825Z</time></trkpt><trkpt lat="41.9986017" lon="-8.0194433"><ele>812.0000000000001</ele><time>2026-04-04T09:04:59.825Z</time></trkpt><trkpt lat="41.9986167" lon="-8.0193583"><ele>812.0</ele><time>2026-04-04T09:05:00.825Z</time></trkpt><trkpt lat="41.9986417" lon="-8.01927"><ele>812.0</ele><time>2026-04-04T09:05:01.824Z</time></trkpt><trkpt lat="41.9986717" lon="-8.0191533"><ele>812.0</ele><time>2026-04-04T09:05:03.825Z</time></trkpt><trkpt lat="41.9986683" lon="-8.0190583"><ele>812.0</ele><time>2026-04-04T09:05:05.825Z</time></trkpt><trkpt lat="41.9985983" lon="-8.0191033"><ele>812.0</ele><time>2026-04-04T09:05:08.824Z</time></trkpt><trkpt lat="41.9985583" lon="-8.01928"><ele>812.0</ele><time>2026-04-04T09:05:10.823Z</time></trkpt><trkpt lat="41.9985217" lon="-8.0194083"><ele>812.0</ele><time>2026-04-04T09:05:11.824Z</time></trkpt><trkpt lat="41.998475" lon="-8.0195417"><ele>812.0</ele><time>2026-04-04T09:05:12.826Z</time></trkpt><trkpt lat="41.998405" lon="-8.019655"><ele>812.0</ele><time>2026-04-04T09:05:13.824Z</time></trkpt><trkpt lat="41.9983133" lon="-8.019745"><ele>812.0</ele><time>2026-04-04T09:05:14.824Z</time></trkpt><trkpt lat="41.9982017" lon="-8.019835"><ele>812.0</ele><time>2026-04-04T09:05:15.824Z</time></trkpt><trkpt lat="41.99808" lon="-8.019915"><ele>812.0</ele><time>2026-04-04T09:05:16.823Z</time></trkpt><trkpt lat="41.9979633" lon="-8.019985"><ele>812.0</ele><time>2026-04-04T09:05:17.823Z</time></trkpt><trkpt lat="41.99785" lon="-8.0200317"><ele>812.0</ele><time>2026-04-04T09:05:18.825Z</time></trkpt><trkpt lat="41.9977367" lon="-8.0200533"><ele>812.0</ele><time>2026-04-04T09:05:19.823Z</time></trkpt><trkpt lat="41.9976233" lon="-8.0200767"><ele>812.0</ele><time>2026-04-04T09:05:20.824Z</time></trkpt><trkpt lat="41.9975183" lon="-8.0201267"><ele>812.0</ele><time>2026-04-04T09:05:21.827Z</time></trkpt><trkpt lat="41.9974317" lon="-8.020215"><ele>812.0</ele><time>2026-04-04T09:05:22.825Z</time></trkpt><trkpt lat="41.9973583" lon="-8.0203433"><ele>812.25</ele><time>2026-04-04T09:05:23.823Z</time></trkpt><trkpt lat="41.9972933" lon="-8.0204767"><ele>812.5</ele><time>2026-04-04T09:05:24.823Z</time></trkpt><trkpt lat="41.9972533" lon="-8.020615"><ele>812.75</ele><time>2026-04-04T09:05:25.824Z</time></trkpt><trkpt lat="41.9972317" lon="-8.0207667"><ele>813.0</ele><time>2026-04-04T09:05:26.824Z</time></trkpt><trkpt lat="41.9972117" lon="-8.0209067"><ele>813.0</ele><time>2026-04-04T09:05:27.823Z</time></trkpt><trkpt lat="41.9971733" lon="-8.02103"><ele>813.0</ele><time>2026-04-04T09:05:28.823Z</time></trkpt><trkpt lat="41.9971167" lon="-8.021135"><ele>813.0</ele><time>2026-04-04T09:05:29.824Z</time></trkpt><trkpt lat="41.9970483" lon="-8.0212117"><ele>813.0</ele><time>2026-04-04T09:05:30.825Z</time></trkpt><trkpt lat="41.996965" lon="-8.0212717"><ele>813.0</ele><time>2026-04-04T09:05:31.823Z</time></trkpt><trkpt lat="41.9968683" lon="-8.021315"><ele>813.0</ele><time>2026-04-04T09:05:32.823Z</time></trkpt><trkpt lat="41.9967667" lon="-8.0213267"><ele>813.0</ele><time>2026-04-04T09:05:33.824Z</time></trkpt><trkpt lat="41.9966717" lon="-8.021315"><ele>813.0</ele><time>2026-04-04T09:05:34.823Z</time></trkpt><trkpt lat="41.9965683" lon="-8.021265"><ele>813.0</ele><time>2026-04-04T09:05:35.824Z</time></trkpt><trkpt lat="41.9964583" lon="-8.0211933"><ele>813.0</ele><time>2026-04-04T09:05:36.824Z</time></trkpt><trkpt lat="41.99635" lon="-8.0211"><ele>816.5999999999999</ele><time>2026-04-04T09:05:37.824Z</time></trkpt><trkpt lat="41.9962483" lon="-8.0210167"><ele>820.1999999999999</ele><time>2026-04-04T09:05:38.823Z</time></trkpt><trkpt lat="41.9961583" lon="-8.020965"><ele>823.8</ele><time>2026-04-04T09:05:39.823Z</time></trkpt><trkpt lat="41.99607" lon="-8.0209317"><ele>827.4</ele><time>2026-04-04T09:05:40.825Z</time></trkpt><trkpt lat="41.995985" lon="-8.0209267"><ele>831.0</ele><time>2026-04-04T09:05:41.824Z</time></trkpt><trkpt lat="41.9958883" lon="-8.02097"><ele>831.0</ele><time>2026-04-04T09:05:42.824Z</time></trkpt><trkpt lat="41.9957833" lon="-8.0210067"><ele>831.0</ele><time>2026-04-04T09:05:43.823Z</time></trkpt><trkpt lat="41.9956567" lon="-8.0210583"><ele>831.0</ele><time>2026-04-04T09:05:44.825Z</time></trkpt><trkpt lat="41.9955133" lon="-8.021095"><ele>831.0</ele><time>2026-04-04T09:05:45.823Z</time></trkpt><trkpt lat="41.9953583" lon="-8.021145"><ele>831.0</ele><time>2026-04-04T09:05:46.823Z</time></trkpt><trkpt lat="41.9952033" lon="-8.0211817"><ele>831.0</ele><time>2026-04-04T09:05:47.823Z</time></trkpt><trkpt lat="41.9950633" lon="-8.0212283"><ele>831.0</ele><time>2026-04-04T09:05:48.824Z</time></trkpt><trkpt lat="41.994945" lon="-8.0212933"><ele>831.0</ele><time>2026-04-04T09:05:49.823Z</time></trkpt><trkpt lat="41.9948317" lon="-8.02137"><ele>832.75</ele><time>2026-04-04T09:05:50.823Z</time></trkpt><trkpt lat="41.9947133" lon="-8.021455"><ele>834.5</ele><time>2026-04-04T09:05:51.823Z</time></trkpt><trkpt lat="41.9945883" lon="-8.0215517"><ele>836.25</ele><time>2026-04-04T09:05:52.823Z</time></trkpt><trkpt lat="41.9944667" lon="-8.0216433"><ele>838.0</ele><time>2026-04-04T09:05:53.824Z</time></trkpt><trkpt lat="41.9943517" lon="-8.0217"><ele>837.0</ele><time>2026-04-04T09:05:54.826Z</time></trkpt><trkpt lat="41.994225" lon="-8.0217267"><ele>836.0</ele><time>2026-04-04T09:05:55.823Z</time></trkpt><trkpt lat="41.9940833" lon="-8.0217383"><ele>835.0</ele><time>2026-04-04T09:05:56.823Z</time></trkpt><trkpt lat="41.9939383" lon="-8.021755"><ele>834.0</ele><time>2026-04-04T09:05:57.823Z</time></trkpt><trkpt lat="41.9938183" lon="-8.02177"><ele>834.0</ele><time>2026-04-04T09:05:58.824Z</time></trkpt><trkpt lat="41.9937417" lon="-8.0217917"><ele>834.0</ele><time>2026-04-04T09:05:59.823Z</time></trkpt><trkpt lat="41.9936783" lon="-8.0218133"><ele>834.0</ele><time>2026-04-04T09:06:00.824Z</time></trkpt><trkpt lat="41.993605" lon="-8.0219067"><ele>834.0</ele><time>2026-04-04T09:06:02.824Z</time></trkpt><trkpt lat="41.9936283" lon="-8.0219917"><ele>834.0</ele><time>2026-04-04T09:06:03.823Z</time></trkpt><trkpt lat="41.9936967" lon="-8.0220783"><ele>834.0</ele><time>2026-04-04T09:06:04.824Z</time></trkpt><trkpt lat="41.99377" lon="-8.0221517"><ele>834.0</ele><time>2026-04-04T09:06:05.823Z</time></trkpt><trkpt lat="41.993835" lon="-8.0222217"><ele>834.0</ele><time>2026-04-04T09:06:06.824Z</time></trkpt><trkpt lat="41.9938833" lon="-8.022305"><ele>834.0</ele><time>2026-04-04T09:06:07.823Z</time></trkpt><trkpt lat="41.9939067" lon="-8.0223967"><ele>834.0</ele><time>2026-04-04T09:06:08.824Z</time></trkpt><trkpt lat="41.993895" lon="-8.0225817"><ele>834.0</ele><time>2026-04-04T09:06:10.824Z</time></trkpt><trkpt lat="41.9938583" lon="-8.02271"><ele>832.25</ele><time>2026-04-04T09:06:11.826Z</time></trkpt><trkpt lat="41.9938033" lon="-8.0228417"><ele>830.5</ele><time>2026-04-04T09:06:12.823Z</time></trkpt><trkpt lat="41.9937083" lon="-8.02296"><ele>828.75</ele><time>2026-04-04T09:06:13.823Z</time></trkpt><trkpt lat="41.993585" lon="-8.023075"><ele>827.0</ele><time>2026-04-04T09:06:14.826Z</time></trkpt><trkpt lat="41.9934683" lon="-8.0232017"><ele>828.5</ele><time>2026-04-04T09:06:15.824Z</time></trkpt><trkpt lat="41.9933833" lon="-8.0233483"><ele>830.0</ele><time>2026-04-04T09:06:16.824Z</time></trkpt><trkpt lat="41.9933167" lon="-8.0234833"><ele>831.5</ele><time>2026-04-04T09:06:17.824Z</time></trkpt><trkpt lat="41.99325" lon="-8.0236067"><ele>833.0</ele><time>2026-04-04T09:06:18.824Z</time></trkpt><trkpt lat="41.9931533" lon="-8.02373"><ele>833.0</ele><time>2026-04-04T09:06:19.826Z</time></trkpt><trkpt lat="41.9930367" lon="-8.0238633"><ele>833.0</ele><time>2026-04-04T09:06:20.824Z</time></trkpt><trkpt lat="41.9929" lon="-8.024005"><ele>833.0</ele><time>2026-04-04T09:06:21.823Z</time></trkpt><trkpt lat="41.9927667" lon="-8.0241433"><ele>831.75</ele><time>2026-04-04T09:06:22.824Z</time></trkpt><trkpt lat="41.9926533" lon="-8.0242733"><ele>830.5</ele><time>2026-04-04T09:06:23.825Z</time></trkpt><trkpt lat="41.992565" lon="-8.024385"><ele>829.25</ele><time>2026-04-04T09:06:24.825Z</time></trkpt><trkpt lat="41.9924933" lon="-8.02446"><ele>828.0</ele><time>2026-04-04T09:06:25.826Z</time></trkpt><trkpt lat="41.9924" lon="-8.02453"><ele>828.0</ele><time>2026-04-04T09:06:26.828Z</time></trkpt><trkpt lat="41.99229" lon="-8.0245883"><ele>828.0</ele><time>2026-04-04T09:06:27.823Z</time></trkpt><trkpt lat="41.9921733" lon="-8.0246333"><ele>828.0</ele><time>2026-04-04T09:06:28.824Z</time></trkpt><trkpt lat="41.9920717" lon="-8.0246533"><ele>828.0</ele><time>2026-04-04T09:06:29.824Z</time></trkpt><trkpt lat="41.9919767" lon="-8.0246583"><ele>828.0</ele><time>2026-04-04T09:06:30.825Z</time></trkpt><trkpt lat="41.9918783" lon="-8.0246467"><ele>828.0</ele><time>2026-04-04T09:06:31.824Z</time></trkpt><trkpt lat="41.9917717" lon="-8.0246267"><ele>828.0</ele><time>2026-04-04T09:06:32.824Z</time></trkpt><trkpt lat="41.9916667" lon="-8.0246017"><ele>828.0</ele><time>2026-04-04T09:06:33.824Z</time></trkpt><trkpt lat="41.991555" lon="-8.0245517"><ele>828.0</ele><time>2026-04-04T09:06:34.824Z</time></trkpt><trkpt lat="41.99144" lon="-8.0244917"><ele>828.2</ele><time>2026-04-04T09:06:35.824Z</time></trkpt><trkpt lat="41.9913267" lon="-8.0244333"><ele>828.4</ele><time>2026-04-04T09:06:36.824Z</time></trkpt><trkpt lat="41.9912233" lon="-8.0243867"><ele>828.6</ele><time>2026-04-04T09:06:37.825Z</time></trkpt><trkpt lat="41.9911217" lon="-8.0243683"><ele>828.8000000000001</ele><time>2026-04-04T09:06:38.824Z</time></trkpt><trkpt lat="41.991025" lon="-8.0243867"><ele>829.0</ele><time>2026-04-04T09:06:39.825Z</time></trkpt><trkpt lat="41.99095" lon="-8.0244333"><ele>829.0</ele><time>2026-04-04T09:06:40.824Z</time></trkpt><trkpt lat="41.9908867" lon="-8.0245133"><ele>829.0</ele><time>2026-04-04T09:06:41.824Z</time></trkpt><trkpt lat="41.99084" lon="-8.0246467"><ele>829.0</ele><time>2026-04-04T09:06:42.825Z</time></trkpt><trkpt lat="41.9907883" lon="-8.0247383"><ele>829.0</ele><time>2026-04-04T09:06:43.824Z</time></trkpt><trkpt lat="41.9907317" lon="-8.0248"><ele>829.0</ele><time>2026-04-04T09:06:44.826Z</time></trkpt><trkpt lat="41.9906033" lon="-8.0248383"><ele>827.75</ele><time>2026-04-04T09:06:46.824Z</time></trkpt><trkpt lat="41.9905167" lon="-8.0248217"><ele>826.5</ele><time>2026-04-04T09:06:47.824Z</time></trkpt><trkpt lat="41.9904083" lon="-8.02481"><ele>825.25</ele><time>2026-04-04T09:06:48.824Z</time></trkpt><trkpt lat="41.9902683" lon="-8.02481"><ele>824.0</ele><time>2026-04-04T09:06:49.824Z</time></trkpt><trkpt lat="41.9901433" lon="-8.0247967"><ele>824.0</ele><time>2026-04-04T09:06:50.824Z</time></trkpt><trkpt lat="41.990045" lon="-8.0247767"><ele>824.0</ele><time>2026-04-04T09:06:51.824Z</time></trkpt><trkpt lat="41.9899467" lon="-8.0247433"><ele>824.0</ele><time>2026-04-04T09:06:52.824Z</time></trkpt><trkpt lat="41.9898633" lon="-8.0246967"><ele>824.0</ele><time>2026-04-04T09:06:53.824Z</time></trkpt><trkpt lat="41.9898" lon="-8.02463"><ele>824.0</ele><time>2026-04-04T09:06:54.824Z</time></trkpt><trkpt lat="41.9897333" lon="-8.024575"><ele>823.6</ele><time>2026-04-04T09:06:55.824Z</time></trkpt><trkpt lat="41.9896617" lon="-8.0245417"><ele>823.2</ele><time>2026-04-04T09:06:56.824Z</time></trkpt><trkpt lat="41.9895867" lon="-8.0245333"><ele>822.8000000000001</ele><time>2026-04-04T09:06:57.824Z</time></trkpt><trkpt lat="41.9894933" lon="-8.0245467"><ele>822.4000000000001</ele><time>2026-04-04T09:06:58.824Z</time></trkpt><trkpt lat="41.9893767" lon="-8.0245967"><ele>822.0</ele><time>2026-04-04T09:06:59.824Z</time></trkpt><trkpt lat="41.98927" lon="-8.0246733"><ele>822.0</ele><time>2026-04-04T09:07:00.825Z</time></trkpt><trkpt lat="41.9891833" lon="-8.0247267"><ele>822.0</ele><time>2026-04-04T09:07:01.824Z</time></trkpt><trkpt lat="41.989095" lon="-8.0247617"><ele>822.0</ele><time>2026-04-04T09:07:02.824Z</time></trkpt><trkpt lat="41.9889967" lon="-8.0247833"><ele>822.0</ele><time>2026-04-04T09:07:03.824Z</time></trkpt><trkpt lat="41.98889" lon="-8.024775"><ele>822.0</ele><time>2026-04-04T09:07:04.824Z</time></trkpt><trkpt lat="41.9887733" lon="-8.0247617"><ele>821.8</ele><time>2026-04-04T09:07:05.825Z</time></trkpt><trkpt lat="41.9886683" lon="-8.0247517"><ele>821.6</ele><time>2026-04-04T09:07:06.825Z</time></trkpt><trkpt lat="41.9885783" lon="-8.02476"><ele>821.4</ele><time>2026-04-04T09:07:07.825Z</time></trkpt><trkpt lat="41.9884983" lon="-8.0247817"><ele>821.1999999999999</ele><time>2026-04-04T09:07:08.824Z</time></trkpt><trkpt lat="41.9884433" lon="-8.02486"><ele>821.0</ele><time>2026-04-04T09:07:09.826Z</time></trkpt><trkpt lat="41.98841" lon="-8.02498"><ele>819.5</ele><time>2026-04-04T09:07:10.824Z</time></trkpt><trkpt lat="41.9883683" lon="-8.0250767"><ele>818.0</ele><time>2026-04-04T09:07:11.824Z</time></trkpt><trkpt lat="41.9883283" lon="-8.02521"><ele>816.5</ele><time>2026-04-04T09:07:12.826Z</time></trkpt><trkpt lat="41.9883017" lon="-8.0253833"><ele>815.0</ele><time>2026-04-04T09:07:13.824Z</time></trkpt><trkpt lat="41.988275" lon="-8.025585"><ele>815.0</ele><time>2026-04-04T09:07:14.824Z</time></trkpt><trkpt lat="41.9882167" lon="-8.0257633"><ele>815.0</ele><time>2026-04-04T09:07:15.824Z</time></trkpt><trkpt lat="41.9881467" lon="-8.025945"><ele>815.0</ele><time>2026-04-04T09:07:16.823Z</time></trkpt><trkpt lat="41.988055" lon="-8.0261117"><ele>812.3333333333334</ele><time>2026-04-04T09:07:17.824Z</time></trkpt><trkpt lat="41.9879433" lon="-8.0262767"><ele>809.6666666666667</ele><time>2026-04-04T09:07:18.825Z</time></trkpt><trkpt lat="41.9878017" lon="-8.0264433"><ele>807.0</ele><time>2026-04-04T09:07:19.824Z</time></trkpt><trkpt lat="41.987645" lon="-8.0266433"><ele>805.3333333333333</ele><time>2026-04-04T09:07:20.825Z</time></trkpt><trkpt lat="41.9875" lon="-8.0268117"><ele>803.6666666666666</ele><time>2026-04-04T09:07:21.824Z</time></trkpt><trkpt lat="41.987365" lon="-8.0269617"><ele>802.0</ele><time>2026-04-04T09:07:22.824Z</time></trkpt><trkpt lat="41.9872433" lon="-8.0270917"><ele>802.0</ele><time>2026-04-04T09:07:23.825Z</time></trkpt><trkpt lat="41.9871267" lon="-8.0271967"><ele>802.0</ele><time>2026-04-04T09:07:24.827Z</time></trkpt><trkpt lat="41.9869983" lon="-8.0272833"><ele>802.0</ele><time>2026-04-04T09:07:25.825Z</time></trkpt><trkpt lat="41.9868767" lon="-8.027365"><ele>802.0</ele><time>2026-04-04T09:07:26.824Z</time></trkpt><trkpt lat="41.9867717" lon="-8.0274367"><ele>802.6666666666666</ele><time>2026-04-04T09:07:27.823Z</time></trkpt><trkpt lat="41.9866783" lon="-8.0274833"><ele>803.3333333333333</ele><time>2026-04-04T09:07:28.824Z</time></trkpt><trkpt lat="41.9866033" lon="-8.0274983"><ele>804.0</ele><time>2026-04-04T09:07:29.823Z</time></trkpt><trkpt lat="41.9865333" lon="-8.0274867"><ele>804.6666666666667</ele><time>2026-04-04T09:07:30.823Z</time></trkpt><trkpt lat="41.98645" lon="-8.027465"><ele>805.3333333333334</ele><time>2026-04-04T09:07:31.823Z</time></trkpt><trkpt lat="41.9863683" lon="-8.0274633"><ele>806.0</ele><time>2026-04-04T09:07:32.823Z</time></trkpt><trkpt lat="41.986285" lon="-8.0274867"><ele>805.25</ele><time>2026-04-04T09:07:33.823Z</time></trkpt><trkpt lat="41.9861933" lon="-8.0275467"><ele>804.5</ele><time>2026-04-04T09:07:34.822Z</time></trkpt><trkpt lat="41.9860817" lon="-8.0276533"><ele>803.75</ele><time>2026-04-04T09:07:35.823Z</time></trkpt><trkpt lat="41.9859433" lon="-8.0277583"><ele>803.0</ele><time>2026-04-04T09:07:36.823Z</time></trkpt><trkpt lat="41.9858" lon="-8.0278883"><ele>803.0</ele><time>2026-04-04T09:07:37.822Z</time></trkpt><trkpt lat="41.9856517" lon="-8.028035"><ele>803.0</ele><time>2026-04-04T09:07:38.823Z</time></trkpt><trkpt lat="41.9855117" lon="-8.0281583"><ele>803.0</ele><time>2026-04-04T09:07:39.823Z</time></trkpt><trkpt lat="41.98538" lon="-8.0282833"><ele>800.75</ele><time>2026-04-04T09:07:40.823Z</time></trkpt><trkpt lat="41.9852583" lon="-8.028375"><ele>798.5</ele><time>2026-04-04T09:07:41.823Z</time></trkpt><trkpt lat="41.985135" lon="-8.0284483"><ele>796.25</ele><time>2026-04-04T09:07:42.823Z</time></trkpt><trkpt lat="41.9849967" lon="-8.028525"><ele>794.0</ele><time>2026-04-04T09:07:43.823Z</time></trkpt><trkpt lat="41.9848517" lon="-8.028595"><ele>794.0</ele><time>2026-04-04T09:07:44.823Z</time></trkpt><trkpt lat="41.9847217" lon="-8.0286733"><ele>794.0</ele><time>2026-04-04T09:07:45.822Z</time></trkpt><trkpt lat="41.9845933" lon="-8.0287633"><ele>794.0</ele><time>2026-04-04T09:07:46.821Z</time></trkpt><trkpt lat="41.9844833" lon="-8.0288583"><ele>794.0</ele><time>2026-04-04T09:07:47.822Z</time></trkpt><trkpt lat="41.984385" lon="-8.028935"><ele>794.0</ele><time>2026-04-04T09:07:48.823Z</time></trkpt><trkpt lat="41.9842883" lon="-8.02901"><ele>794.0</ele><time>2026-04-04T09:07:49.822Z</time></trkpt><trkpt lat="41.9841867" lon="-8.0290683"><ele>794.0</ele><time>2026-04-04T09:07:50.823Z</time></trkpt><trkpt lat="41.984085" lon="-8.0291"><ele>794.0</ele><time>2026-04-04T09:07:51.823Z</time></trkpt><trkpt lat="41.9839733" lon="-8.029095"><ele>794.0</ele><time>2026-04-04T09:07:52.825Z</time></trkpt><trkpt lat="41.9838683" lon="-8.029075"><ele>795.0</ele><time>2026-04-04T09:07:53.824Z</time></trkpt><trkpt lat="41.9837733" lon="-8.0290783"><ele>796.0</ele><time>2026-04-04T09:07:54.823Z</time></trkpt><trkpt lat="41.98367" lon="-8.0290933"><ele>797.0</ele><time>2026-04-04T09:07:55.823Z</time></trkpt><trkpt lat="41.983575" lon="-8.0291467"><ele>798.0</ele><time>2026-04-04T09:07:56.823Z</time></trkpt><trkpt lat="41.98348" lon="-8.0292433"><ele>799.0</ele><time>2026-04-04T09:07:57.824Z</time></trkpt><trkpt lat="41.983385" lon="-8.029325"><ele>795.9999999999999</ele><time>2026-04-04T09:07:58.823Z</time></trkpt><trkpt lat="41.98329" lon="-8.0293817"><ele>793.0</ele><time>2026-04-04T09:07:59.823Z</time></trkpt><trkpt lat="41.9832" lon="-8.0294133"><ele>790.0</ele><time>2026-04-04T09:08:00.824Z</time></trkpt><trkpt lat="41.9831133" lon="-8.02943"><ele>787.0</ele><time>2026-04-04T09:08:01.823Z</time></trkpt><trkpt lat="41.9830317" lon="-8.0294317"><ele>783.9999999999999</ele><time>2026-04-04T09:08:02.823Z</time></trkpt><trkpt lat="41.9829583" lon="-8.02942"><ele>781.0</ele><time>2026-04-04T09:08:03.824Z</time></trkpt><trkpt lat="41.9828867" lon="-8.0294217"><ele>780.9999999999999</ele><time>2026-04-04T09:08:04.824Z</time></trkpt><trkpt lat="41.9828133" lon="-8.0294367"><ele>781.0</ele><time>2026-04-04T09:08:06.823Z</time></trkpt><trkpt lat="41.9827533" lon="-8.0294783"><ele>781.0</ele><time>2026-04-04T09:08:11.823Z</time></trkpt><trkpt lat="41.9828283" lon="-8.0294233"><ele>781.0</ele><time>2026-04-04T09:08:33.823Z</time></trkpt><trkpt lat="41.9829017" lon="-8.029405"><ele>780.9999999999999</ele><time>2026-04-04T09:08:34.823Z</time></trkpt><trkpt lat="41.9829917" lon="-8.029395"><ele>781.0</ele><time>2026-04-04T09:08:35.823Z</time></trkpt><trkpt lat="41.98309" lon="-8.0293867"><ele>781.0</ele><time>2026-04-04T09:08:36.824Z</time></trkpt><trkpt lat="41.98321" lon="-8.029355"><ele>781.0</ele><time>2026-04-04T09:08:37.824Z</time></trkpt><trkpt lat="41.9833267" lon="-8.0292917"><ele>781.0</ele><time>2026-04-04T09:08:38.823Z</time></trkpt><trkpt lat="41.9834417" lon="-8.0292217"><ele>781.0</ele><time>2026-04-04T09:08:39.823Z</time></trkpt><trkpt lat="41.98355" lon="-8.0291417"><ele>785.5</ele><time>2026-04-04T09:08:40.824Z</time></trkpt><trkpt lat="41.9836517" lon="-8.029075"><ele>790.0</ele><time>2026-04-04T09:08:41.823Z</time></trkpt><trkpt lat="41.9837617" lon="-8.02903"><ele>794.5</ele><time>2026-04-04T09:08:42.823Z</time></trkpt><trkpt lat="41.9838817" lon="-8.029005"><ele>799.0</ele><time>2026-04-04T09:08:43.823Z</time></trkpt><trkpt lat="41.984" lon="-8.029"><ele>799.0</ele><time>2026-04-04T09:08:44.823Z</time></trkpt><trkpt lat="41.9841117" lon="-8.02898"><ele>799.0</ele><time>2026-04-04T09:08:45.824Z</time></trkpt><trkpt lat="41.9842317" lon="-8.028945"><ele>799.0</ele><time>2026-04-04T09:08:46.823Z</time></trkpt><trkpt lat="41.9843483" lon="-8.0288867"><ele>799.0</ele><time>2026-04-04T09:08:47.823Z</time></trkpt><trkpt lat="41.9844517" lon="-8.0288017"><ele>797.75</ele><time>2026-04-04T09:08:48.823Z</time></trkpt><trkpt lat="41.9845583" lon="-8.0287233"><ele>796.5</ele><time>2026-04-04T09:08:49.823Z</time></trkpt><trkpt lat="41.98466" lon="-8.02865"><ele>795.25</ele><time>2026-04-04T09:08:50.823Z</time></trkpt><trkpt lat="41.9847583" lon="-8.0285817"><ele>794.0</ele><time>2026-04-04T09:08:51.823Z</time></trkpt><trkpt lat="41.9848767" lon="-8.0285133"><ele>796.25</ele><time>2026-04-04T09:08:52.823Z</time></trkpt><trkpt lat="41.985015" lon="-8.0284517"><ele>798.5</ele><time>2026-04-04T09:08:53.823Z</time></trkpt><trkpt lat="41.9851517" lon="-8.0283933"><ele>800.75</ele><time>2026-04-04T09:08:54.824Z</time></trkpt><trkpt lat="41.9852767" lon="-8.0283233"><ele>803.0</ele><time>2026-04-04T09:08:55.823Z</time></trkpt><trkpt lat="41.985395" lon="-8.0282367"><ele>803.0</ele><time>2026-04-04T09:08:56.823Z</time></trkpt><trkpt lat="41.985505" lon="-8.0281533"><ele>803.0</ele><time>2026-04-04T09:08:57.824Z</time></trkpt><trkpt lat="41.9856117" lon="-8.028065"><ele>803.0</ele><time>2026-04-04T09:08:58.823Z</time></trkpt><trkpt lat="41.9857233" lon="-8.0279733"><ele>803.0</ele><time>2026-04-04T09:08:59.823Z</time></trkpt><trkpt lat="41.9858433" lon="-8.0278767"><ele>799.6666666666667</ele><time>2026-04-04T09:09:00.823Z</time></trkpt><trkpt lat="41.9859817" lon="-8.0277517"><ele>796.3333333333333</ele><time>2026-04-04T09:09:01.823Z</time></trkpt><trkpt lat="41.9861083" lon="-8.0276433"><ele>793.0</ele><time>2026-04-04T09:09:02.823Z</time></trkpt><trkpt lat="41.9862233" lon="-8.0275433"><ele>794.8</ele><time>2026-04-04T09:09:03.823Z</time></trkpt><trkpt lat="41.98633" lon="-8.0274617"><ele>796.5999999999999</ele><time>2026-04-04T09:09:04.824Z</time></trkpt><trkpt lat="41.98643" lon="-8.027385"><ele>798.4000000000001</ele><time>2026-04-04T09:09:05.823Z</time></trkpt><trkpt lat="41.986525" lon="-8.027345"><ele>800.2</ele><time>2026-04-04T09:09:06.824Z</time></trkpt><trkpt lat="41.9866067" lon="-8.0273417"><ele>802.0</ele><time>2026-04-04T09:09:07.824Z</time></trkpt><trkpt lat="41.9866867" lon="-8.0273517"><ele>801.9999999999999</ele><time>2026-04-04T09:09:08.823Z</time></trkpt><trkpt lat="41.9867683" lon="-8.0273533"><ele>802.0</ele><time>2026-04-04T09:09:09.824Z</time></trkpt><trkpt lat="41.986845" lon="-8.0273317"><ele>802.0</ele><time>2026-04-04T09:09:10.823Z</time></trkpt><trkpt lat="41.9869217" lon="-8.0272867"><ele>802.0</ele><time>2026-04-04T09:09:11.824Z</time></trkpt><trkpt lat="41.9870067" lon="-8.027245"><ele>801.9999999999999</ele><time>2026-04-04T09:09:12.824Z</time></trkpt><trkpt lat="41.9871067" lon="-8.0271883"><ele>802.0</ele><time>2026-04-04T09:09:13.823Z</time></trkpt><trkpt lat="41.9872167" lon="-8.0271183"><ele>802.0</ele><time>2026-04-04T09:09:14.824Z</time></trkpt><trkpt lat="41.9873083" lon="-8.0270367"><ele>802.0</ele><time>2026-04-04T09:09:15.824Z</time></trkpt><trkpt lat="41.987405" lon="-8.0269333"><ele>802.0</ele><time>2026-04-04T09:09:16.823Z</time></trkpt><trkpt lat="41.98751" lon="-8.0268167"><ele>802.0</ele><time>2026-04-04T09:09:17.823Z</time></trkpt><trkpt lat="41.9876217" lon="-8.0266917"><ele>803.6666666666666</ele><time>2026-04-04T09:09:18.824Z</time></trkpt><trkpt lat="41.98774" lon="-8.02656"><ele>805.3333333333333</ele><time>2026-04-04T09:09:19.822Z</time></trkpt><trkpt lat="41.98786" lon="-8.0264283"><ele>807.0</ele><time>2026-04-04T09:09:20.825Z</time></trkpt><trkpt lat="41.9879817" lon="-8.0262733"><ele>807.0</ele><time>2026-04-04T09:09:21.823Z</time></trkpt><trkpt lat="41.9880833" lon="-8.0261317"><ele>807.0</ele><time>2026-04-04T09:09:22.823Z</time></trkpt><trkpt lat="41.988175" lon="-8.025985"><ele>807.0</ele><time>2026-04-04T09:09:23.828Z</time></trkpt><trkpt lat="41.9882517" lon="-8.02586"><ele>807.0</ele><time>2026-04-04T09:09:24.823Z</time></trkpt><trkpt lat="41.9883067" lon="-8.0257467"><ele>807.0</ele><time>2026-04-04T09:09:25.823Z</time></trkpt><trkpt lat="41.9883383" lon="-8.025655"><ele>807.0</ele><time>2026-04-04T09:09:26.824Z</time></trkpt><trkpt lat="41.9883733" lon="-8.0255667"><ele>807.0</ele><time>2026-04-04T09:09:27.824Z</time></trkpt><trkpt lat="41.9883983" lon="-8.0254833"><ele>807.0</ele><time>2026-04-04T09:09:28.823Z</time></trkpt><trkpt lat="41.98842" lon="-8.0253383"><ele>807.0</ele><time>2026-04-04T09:09:31.824Z</time></trkpt><trkpt lat="41.9884" lon="-8.025235"><ele>807.0</ele><time>2026-04-04T09:09:35.824Z</time></trkpt><trkpt lat="41.9884317" lon="-8.0253417"><ele>807.0</ele><time>2026-04-04T09:09:52.825Z</time></trkpt><trkpt lat="41.9884033" lon="-8.0254417"><ele>807.0</ele><time>2026-04-04T09:09:53.823Z</time></trkpt><trkpt lat="41.98838" lon="-8.0255483"><ele>807.0</ele><time>2026-04-04T09:09:54.826Z</time></trkpt><trkpt lat="41.9883433" lon="-8.0256717"><ele>807.0</ele><time>2026-04-04T09:09:55.824Z</time></trkpt><trkpt lat="41.9882983" lon="-8.025805"><ele>807.0</ele><time>2026-04-04T09:09:56.824Z</time></trkpt><trkpt lat="41.9882367" lon="-8.02594"><ele>807.0</ele><time>2026-04-04T09:09:57.824Z</time></trkpt><trkpt lat="41.9881617" lon="-8.02608"><ele>807.0</ele><time>2026-04-04T09:09:58.823Z</time></trkpt><trkpt lat="41.9880733" lon="-8.0262117"><ele>807.0</ele><time>2026-04-04T09:09:59.823Z</time></trkpt><trkpt lat="41.98798" lon="-8.0263333"><ele>807.0</ele><time>2026-04-04T09:10:00.823Z</time></trkpt><trkpt lat="41.98788" lon="-8.0264617"><ele>807.0</ele><time>2026-04-04T09:10:01.824Z</time></trkpt><trkpt lat="41.9877817" lon="-8.0265883"><ele>807.0</ele><time>2026-04-04T09:10:02.823Z</time></trkpt><trkpt lat="41.98768" lon="-8.02672"><ele>807.0</ele><time>2026-04-04T09:10:03.824Z</time></trkpt><trkpt lat="41.987575" lon="-8.0268417"><ele>807.0</ele><time>2026-04-04T09:10:04.822Z</time></trkpt><trkpt lat="41.9874767" lon="-8.0269533"><ele>806.0</ele><time>2026-04-04T09:10:05.823Z</time></trkpt><trkpt lat="41.9873883" lon="-8.0270533"><ele>805.0</ele><time>2026-04-04T09:10:06.825Z</time></trkpt><trkpt lat="41.9872983" lon="-8.0271417"><ele>804.0</ele><time>2026-04-04T09:10:07.823Z</time></trkpt><trkpt lat="41.9872167" lon="-8.0272133"><ele>803.0</ele><time>2026-04-04T09:10:08.823Z</time></trkpt><trkpt lat="41.9871467" lon="-8.027265"><ele>802.0</ele><time>2026-04-04T09:10:09.823Z</time></trkpt><trkpt lat="41.9870817" lon="-8.02731"><ele>801.9999999999999</ele><time>2026-04-04T09:10:10.823Z</time></trkpt><trkpt lat="41.9870183" lon="-8.0273517"><ele>802.0</ele><time>2026-04-04T09:10:11.823Z</time></trkpt><trkpt lat="41.9869567" lon="-8.0273917"><ele>802.0</ele><time>2026-04-04T09:10:12.824Z</time></trkpt><trkpt lat="41.986895" lon="-8.0274367"><ele>802.0</ele><time>2026-04-04T09:10:13.823Z</time></trkpt><trkpt lat="41.9868333" lon="-8.0274717"><ele>801.9999999999999</ele><time>2026-04-04T09:10:14.823Z</time></trkpt><trkpt lat="41.9867333" lon="-8.0275267"><ele>802.0</ele><time>2026-04-04T09:10:16.823Z</time></trkpt><trkpt lat="41.986655" lon="-8.02755"><ele>802.5714285714286</ele><time>2026-04-04T09:10:19.823Z</time></trkpt><trkpt lat="41.98658" lon="-8.0274983"><ele>803.1428571428571</ele><time>2026-04-04T09:10:23.822Z</time></trkpt><trkpt lat="41.9865167" lon="-8.027435"><ele>803.7142857142858</ele><time>2026-04-04T09:10:26.823Z</time></trkpt><trkpt lat="41.98645" lon="-8.0274217"><ele>804.2857142857142</ele><time>2026-04-04T09:10:29.824Z</time></trkpt><trkpt lat="41.9864083" lon="-8.0273417"><ele>804.8571428571428</ele><time>2026-04-04T09:10:40.824Z</time></trkpt><trkpt lat="41.98639" lon="-8.027255"><ele>805.4285714285714</ele><time>2026-04-04T09:10:42.823Z</time></trkpt><trkpt lat="41.9863867" lon="-8.0271583"><ele>806.0</ele><time>2026-04-04T09:10:44.823Z</time></trkpt><trkpt lat="41.9863783" lon="-8.02705"><ele>806.0000000000001</ele><time>2026-04-04T09:10:47.823Z</time></trkpt><trkpt lat="41.9863367" lon="-8.0269667"><ele>806.0</ele><time>2026-04-04T09:10:49.823Z</time></trkpt><trkpt lat="41.9862933" lon="-8.0268933"><ele>806.0</ele><time>2026-04-04T09:10:51.823Z</time></trkpt><trkpt lat="41.9862417" lon="-8.0268217"><ele>806.0</ele><time>2026-04-04T09:10:53.823Z</time></trkpt><trkpt lat="41.9861933" lon="-8.0267617"><ele>806.0000000000001</ele><time>2026-04-04T09:10:55.824Z</time></trkpt><trkpt lat="41.98613" lon="-8.0266583"><ele>806.0</ele><time>2026-04-04T09:10:58.823Z</time></trkpt><trkpt lat="41.9860817" lon="-8.0265717"><ele>809.0</ele><time>2026-04-04T09:11:00.824Z</time></trkpt><trkpt lat="41.9860333" lon="-8.0264683"><ele>812.0</ele><time>2026-04-04T09:11:02.824Z</time></trkpt><trkpt lat="41.9859933" lon="-8.0263467"><ele>815.0</ele><time>2026-04-04T09:11:04.823Z</time></trkpt><trkpt lat="41.9859467" lon="-8.026215"><ele>818.0</ele><time>2026-04-04T09:11:06.824Z</time></trkpt><trkpt lat="41.98589" lon="-8.02609"><ele>821.0</ele><time>2026-04-04T09:11:08.823Z</time></trkpt><trkpt lat="41.98584" lon="-8.0259683"><ele>822.4</ele><time>2026-04-04T09:11:10.823Z</time></trkpt><trkpt lat="41.9857883" lon="-8.0258217"><ele>823.8</ele><time>2026-04-04T09:11:12.826Z</time></trkpt><trkpt lat="41.98574" lon="-8.0256833"><ele>825.1999999999999</ele><time>2026-04-04T09:11:14.823Z</time></trkpt><trkpt lat="41.985695" lon="-8.0255967"><ele>826.5999999999999</ele><time>2026-04-04T09:11:16.822Z</time></trkpt><trkpt lat="41.9856183" lon="-8.0255367"><ele>828.0</ele><time>2026-04-04T09:11:19.824Z</time></trkpt><trkpt lat="41.9855717" lon="-8.0254517"><ele>830.75</ele><time>2026-04-04T09:11:21.823Z</time></trkpt><trkpt lat="41.9855117" lon="-8.0253467"><ele>833.5</ele><time>2026-04-04T09:11:23.824Z</time></trkpt><trkpt lat="41.9854117" lon="-8.025245"><ele>836.25</ele><time>2026-04-04T09:11:25.823Z</time></trkpt><trkpt lat="41.9853283" lon="-8.0251333"><ele>839.0</ele><time>2026-04-04T09:11:27.824Z</time></trkpt><trkpt lat="41.9852617" lon="-8.0250167"><ele>840.0</ele><time>2026-04-04T09:11:29.823Z</time></trkpt><trkpt lat="41.98521" lon="-8.0248967"><ele>841.0</ele><time>2026-04-04T09:11:31.824Z</time></trkpt><trkpt lat="41.9851633" lon="-8.0247633"><ele>842.0</ele><time>2026-04-04T09:11:33.825Z</time></trkpt><trkpt lat="41.9851433" lon="-8.0246517"><ele>843.0</ele><time>2026-04-04T09:11:35.824Z</time></trkpt><trkpt lat="41.98508" lon="-8.0246233"><ele>844.0</ele><time>2026-04-04T09:11:37.823Z</time></trkpt><trkpt lat="41.98495" lon="-8.024685"><ele>844.0</ele><time>2026-04-04T09:11:39.823Z</time></trkpt><trkpt lat="41.9848633" lon="-8.0247633"><ele>844.0</ele><time>2026-04-04T09:11:40.823Z</time></trkpt><trkpt lat="41.984775" lon="-8.0248383"><ele>844.0</ele><time>2026-04-04T09:11:41.823Z</time></trkpt><trkpt lat="41.9846517" lon="-8.0249633"><ele>844.0</ele><time>2026-04-04T09:11:42.824Z</time></trkpt><trkpt lat="41.9845283" lon="-8.0250683"><ele>843.0</ele><time>2026-04-04T09:11:43.823Z</time></trkpt><trkpt lat="41.98442" lon="-8.02516"><ele>842.0</ele><time>2026-04-04T09:11:44.824Z</time></trkpt><trkpt lat="41.9843117" lon="-8.025255"><ele>841.0</ele><time>2026-04-04T09:11:45.823Z</time></trkpt><trkpt lat="41.9841967" lon="-8.0253467"><ele>840.0</ele><time>2026-04-04T09:11:46.825Z</time></trkpt><trkpt lat="41.9840883" lon="-8.0254233"><ele>840.0</ele><time>2026-04-04T09:11:47.823Z</time></trkpt><trkpt lat="41.9839883" lon="-8.0254767"><ele>840.0</ele><time>2026-04-04T09:11:48.823Z</time></trkpt><trkpt lat="41.983895" lon="-8.0255"><ele>840.0</ele><time>2026-04-04T09:11:49.825Z</time></trkpt><trkpt lat="41.9838017" lon="-8.0254833"><ele>840.0</ele><time>2026-04-04T09:11:50.826Z</time></trkpt><trkpt lat="41.9837117" lon="-8.02543"><ele>840.0</ele><time>2026-04-04T09:11:51.824Z</time></trkpt><trkpt lat="41.9836383" lon="-8.02534"><ele>840.0</ele><time>2026-04-04T09:11:52.824Z</time></trkpt><trkpt lat="41.98356" lon="-8.025235"><ele>840.0</ele><time>2026-04-04T09:11:53.825Z</time></trkpt><trkpt lat="41.9834917" lon="-8.0251483"><ele>840.0</ele><time>2026-04-04T09:11:54.824Z</time></trkpt><trkpt lat="41.9834233" lon="-8.0250883"><ele>840.0</ele><time>2026-04-04T09:11:55.823Z</time></trkpt><trkpt lat="41.983355" lon="-8.0250683"><ele>840.0</ele><time>2026-04-04T09:11:56.823Z</time></trkpt><trkpt lat="41.9832817" lon="-8.0250817"><ele>840.0</ele><time>2026-04-04T09:11:57.823Z</time></trkpt><trkpt lat="41.9831817" lon="-8.0251317"><ele>839.5</ele><time>2026-04-04T09:11:58.823Z</time></trkpt><trkpt lat="41.9830533" lon="-8.0252117"><ele>839.0</ele><time>2026-04-04T09:11:59.823Z</time></trkpt><trkpt lat="41.9829483" lon="-8.025265"><ele>838.5</ele><time>2026-04-04T09:12:00.824Z</time></trkpt><trkpt lat="41.9828617" lon="-8.0253417"><ele>838.0</ele><time>2026-04-04T09:12:01.824Z</time></trkpt><trkpt lat="41.9827817" lon="-8.025445"><ele>838.0</ele><time>2026-04-04T09:12:02.824Z</time></trkpt><trkpt lat="41.9826983" lon="-8.0255733"><ele>838.0</ele><time>2026-04-04T09:12:03.823Z</time></trkpt><trkpt lat="41.98261" lon="-8.0257083"><ele>838.0</ele><time>2026-04-04T09:12:04.823Z</time></trkpt><trkpt lat="41.9825167" lon="-8.0258367"><ele>838.0</ele><time>2026-04-04T09:12:05.824Z</time></trkpt><trkpt lat="41.9824333" lon="-8.0259633"><ele>836.75</ele><time>2026-04-04T09:12:06.825Z</time></trkpt><trkpt lat="41.98235" lon="-8.0260833"><ele>835.5</ele><time>2026-04-04T09:12:07.823Z</time></trkpt><trkpt lat="41.9822633" lon="-8.0261983"><ele>834.25</ele><time>2026-04-04T09:12:08.823Z</time></trkpt><trkpt lat="41.9821667" lon="-8.0262917"><ele>833.0</ele><time>2026-04-04T09:12:09.823Z</time></trkpt><trkpt lat="41.9820683" lon="-8.0263583"><ele>833.0</ele><time>2026-04-04T09:12:10.823Z</time></trkpt><trkpt lat="41.9819667" lon="-8.026405"><ele>833.0</ele><time>2026-04-04T09:12:11.824Z</time></trkpt><trkpt lat="41.981855" lon="-8.026435"><ele>833.0</ele><time>2026-04-04T09:12:12.824Z</time></trkpt><trkpt lat="41.98173" lon="-8.0264467"><ele>833.0</ele><time>2026-04-04T09:12:13.824Z</time></trkpt><trkpt lat="41.9816117" lon="-8.0264417"><ele>833.4</ele><time>2026-04-04T09:12:14.824Z</time></trkpt><trkpt lat="41.9815" lon="-8.0264283"><ele>833.8</ele><time>2026-04-04T09:12:15.824Z</time></trkpt><trkpt lat="41.9814167" lon="-8.0264317"><ele>834.2</ele><time>2026-04-04T09:12:16.824Z</time></trkpt><trkpt lat="41.98134" lon="-8.0264583"><ele>834.6</ele><time>2026-04-04T09:12:17.823Z</time></trkpt><trkpt lat="41.9812617" lon="-8.0265033"><ele>835.0</ele><time>2026-04-04T09:12:18.824Z</time></trkpt><trkpt lat="41.9811883" lon="-8.0265767"><ele>833.0</ele><time>2026-04-04T09:12:19.824Z</time></trkpt><trkpt lat="41.9811117" lon="-8.0266583"><ele>831.0</ele><time>2026-04-04T09:12:20.824Z</time></trkpt><trkpt lat="41.981025" lon="-8.0268117"><ele>829.0</ele><time>2026-04-04T09:12:21.826Z</time></trkpt><trkpt lat="41.9809367" lon="-8.0269217"><ele>827.0</ele><time>2026-04-04T09:12:22.824Z</time></trkpt><trkpt lat="41.980835" lon="-8.0270333"><ele>827.0</ele><time>2026-04-04T09:12:23.823Z</time></trkpt><trkpt lat="41.980725" lon="-8.0271083"><ele>827.0</ele><time>2026-04-04T09:12:24.823Z</time></trkpt><trkpt lat="41.9806167" lon="-8.0271767"><ele>827.0</ele><time>2026-04-04T09:12:25.824Z</time></trkpt><trkpt lat="41.9804817" lon="-8.027195"><ele>827.0</ele><time>2026-04-04T09:12:26.823Z</time></trkpt><trkpt lat="41.9803467" lon="-8.0271817"><ele>827.0</ele><time>2026-04-04T09:12:27.824Z</time></trkpt><trkpt lat="41.9802167" lon="-8.0271533"><ele>827.0</ele><time>2026-04-04T09:12:28.824Z</time></trkpt><trkpt lat="41.9800883" lon="-8.0271083"><ele>827.0</ele><time>2026-04-04T09:12:29.824Z</time></trkpt><trkpt lat="41.9799633" lon="-8.027055"><ele>827.0</ele><time>2026-04-04T09:12:30.824Z</time></trkpt><trkpt lat="41.979855" lon="-8.02699"><ele>826.8333333333334</ele><time>2026-04-04T09:12:31.824Z</time></trkpt><trkpt lat="41.9797583" lon="-8.0269333"><ele>826.6666666666667</ele><time>2026-04-04T09:12:32.824Z</time></trkpt><trkpt lat="41.9796717" lon="-8.0268733"><ele>826.5</ele><time>2026-04-04T09:12:33.824Z</time></trkpt><trkpt lat="41.9795917" lon="-8.02682"><ele>826.3333333333333</ele><time>2026-04-04T09:12:34.823Z</time></trkpt><trkpt lat="41.9795217" lon="-8.0267833"><ele>826.1666666666666</ele><time>2026-04-04T09:12:35.824Z</time></trkpt><trkpt lat="41.9794583" lon="-8.0267717"><ele>826.0</ele><time>2026-04-04T09:12:36.824Z</time></trkpt><trkpt lat="41.9793517" lon="-8.02681"><ele>826.0</ele><time>2026-04-04T09:12:38.824Z</time></trkpt><trkpt lat="41.979275" lon="-8.0269233"><ele>826.0</ele><time>2026-04-04T09:12:40.823Z</time></trkpt><trkpt lat="41.9791767" lon="-8.0270033"><ele>826.0</ele><time>2026-04-04T09:12:42.824Z</time></trkpt><trkpt lat="41.9791183" lon="-8.0270383"><ele>826.0</ele><time>2026-04-04T09:12:43.823Z</time></trkpt><trkpt lat="41.9790567" lon="-8.0270733"><ele>826.0</ele><time>2026-04-04T09:12:44.823Z</time></trkpt><trkpt lat="41.9789417" lon="-8.0271417"><ele>825.6666666666666</ele><time>2026-04-04T09:12:46.823Z</time></trkpt><trkpt lat="41.9788783" lon="-8.027175"><ele>825.3333333333333</ele><time>2026-04-04T09:12:47.824Z</time></trkpt><trkpt lat="41.978815" lon="-8.0272067"><ele>825.0</ele><time>2026-04-04T09:12:48.824Z</time></trkpt><trkpt lat="41.9787067" lon="-8.0272733"><ele>824.6666666666667</ele><time>2026-04-04T09:12:50.823Z</time></trkpt><trkpt lat="41.9786483" lon="-8.0273083"><ele>824.3333333333334</ele><time>2026-04-04T09:12:51.824Z</time></trkpt><trkpt lat="41.9785933" lon="-8.0273517"><ele>824.0</ele><time>2026-04-04T09:12:52.823Z</time></trkpt><trkpt lat="41.9785183" lon="-8.0274617"><ele>822.3333333333334</ele><time>2026-04-04T09:12:54.824Z</time></trkpt><trkpt lat="41.978505" lon="-8.0275917"><ele>820.6666666666667</ele><time>2026-04-04T09:12:56.823Z</time></trkpt><trkpt lat="41.9785167" lon="-8.0276983"><ele>819.0</ele><time>2026-04-04T09:12:58.823Z</time></trkpt><trkpt lat="41.97852" lon="-8.0277883"><ele>817.3333333333333</ele><time>2026-04-04T09:13:01.823Z</time></trkpt><trkpt lat="41.9785133" lon="-8.0278733"><ele>815.6666666666666</ele><time>2026-04-04T09:23:08.823Z</time></trkpt><trkpt lat="41.9784517" lon="-8.0279517"><ele>814.0</ele><time>2026-04-04T09:23:11.824Z</time></trkpt><trkpt lat="41.9784083" lon="-8.0280167"><ele>813.9999999999999</ele><time>2026-04-04T09:23:13.823Z</time></trkpt><trkpt lat="41.9783483" lon="-8.028095"><ele>814.0</ele><time>2026-04-04T09:23:16.823Z</time></trkpt><trkpt lat="41.9783033" lon="-8.0281817"><ele>814.0</ele><time>2026-04-04T09:23:19.822Z</time></trkpt><trkpt lat="41.9782617" lon="-8.028285"><ele>814.0</ele><time>2026-04-04T09:23:22.823Z</time></trkpt><trkpt lat="41.9782233" lon="-8.0283533"><ele>813.9999999999999</ele><time>2026-04-04T09:23:24.822Z</time></trkpt><trkpt lat="41.9781683" lon="-8.02843"><ele>814.0</ele><time>2026-04-04T09:23:27.824Z</time></trkpt><trkpt lat="41.9780933" lon="-8.0285283"><ele>814.0</ele><time>2026-04-04T09:23:30.824Z</time></trkpt><trkpt lat="41.977995" lon="-8.0286267"><ele>814.0</ele><time>2026-04-04T09:23:32.824Z</time></trkpt><trkpt lat="41.977885" lon="-8.0287067"><ele>814.0</ele><time>2026-04-04T09:23:34.824Z</time></trkpt><trkpt lat="41.9778233" lon="-8.0287367"><ele>814.0</ele><time>2026-04-04T09:23:35.823Z</time></trkpt><trkpt lat="41.97776" lon="-8.0287633"><ele>814.0</ele><time>2026-04-04T09:23:36.824Z</time></trkpt><trkpt lat="41.9776933" lon="-8.028795"><ele>813.9999999999999</ele><time>2026-04-04T09:23:37.823Z</time></trkpt><trkpt lat="41.9776317" lon="-8.02882"><ele>814.0</ele><time>2026-04-04T09:23:38.823Z</time></trkpt><trkpt lat="41.9775133" lon="-8.028875"><ele>814.0</ele><time>2026-04-04T09:23:40.822Z</time></trkpt><trkpt lat="41.97744" lon="-8.0289017"><ele>814.0</ele><time>2026-04-04T09:23:41.825Z</time></trkpt><trkpt lat="41.9773633" lon="-8.0289233"><ele>813.9999999999999</ele><time>2026-04-04T09:23:42.823Z</time></trkpt><trkpt lat="41.97728" lon="-8.02894"><ele>814.0</ele><time>2026-04-04T09:23:43.823Z</time></trkpt><trkpt lat="41.9771933" lon="-8.0289467"><ele>815.6</ele><time>2026-04-04T09:23:44.826Z</time></trkpt><trkpt lat="41.9771017" lon="-8.028955"><ele>817.2</ele><time>2026-04-04T09:23:45.822Z</time></trkpt><trkpt lat="41.977005" lon="-8.0289617"><ele>818.8000000000001</ele><time>2026-04-04T09:23:46.823Z</time></trkpt><trkpt lat="41.97689" lon="-8.02897"><ele>820.4000000000001</ele><time>2026-04-04T09:23:47.823Z</time></trkpt><trkpt lat="41.9767617" lon="-8.028975"><ele>822.0</ele><time>2026-04-04T09:23:48.823Z</time></trkpt><trkpt lat="41.9766267" lon="-8.0289767"><ele>822.0</ele><time>2026-04-04T09:23:49.823Z</time></trkpt><trkpt lat="41.9765" lon="-8.02898"><ele>822.0</ele><time>2026-04-04T09:23:50.825Z</time></trkpt><trkpt lat="41.9763883" lon="-8.02898"><ele>822.0</ele><time>2026-04-04T09:23:51.824Z</time></trkpt><trkpt lat="41.9762883" lon="-8.0289733"><ele>822.0</ele><time>2026-04-04T09:23:52.824Z</time></trkpt><trkpt lat="41.976195" lon="-8.028935"><ele>822.0</ele><time>2026-04-04T09:23:53.824Z</time></trkpt><trkpt lat="41.9761117" lon="-8.0288867"><ele>822.0</ele><time>2026-04-04T09:23:54.825Z</time></trkpt><trkpt lat="41.9760383" lon="-8.0288183"><ele>822.0</ele><time>2026-04-04T09:23:55.825Z</time></trkpt><trkpt lat="41.97598" lon="-8.028725"><ele>822.0</ele><time>2026-04-04T09:23:56.824Z</time></trkpt><trkpt lat="41.97593" lon="-8.028595"><ele>822.0</ele><time>2026-04-04T09:23:57.824Z</time></trkpt><trkpt lat="41.975865" lon="-8.0284433"><ele>822.0</ele><time>2026-04-04T09:23:58.824Z</time></trkpt><trkpt lat="41.9757817" lon="-8.0283083"><ele>821.25</ele><time>2026-04-04T09:23:59.824Z</time></trkpt><trkpt lat="41.97569" lon="-8.0281933"><ele>820.5</ele><time>2026-04-04T09:24:00.825Z</time></trkpt><trkpt lat="41.9755833" lon="-8.0280983"><ele>819.75</ele><time>2026-04-04T09:24:01.825Z</time></trkpt><trkpt lat="41.97548" lon="-8.0280117"><ele>819.0</ele><time>2026-04-04T09:24:02.825Z</time></trkpt><trkpt lat="41.9753917" lon="-8.0279367"><ele>819.0</ele><time>2026-04-04T09:24:03.824Z</time></trkpt><trkpt lat="41.9753267" lon="-8.0278567"><ele>819.0</ele><time>2026-04-04T09:24:04.823Z</time></trkpt><trkpt lat="41.9752817" lon="-8.0277767"><ele>819.0</ele><time>2026-04-04T09:24:05.824Z</time></trkpt><trkpt lat="41.97525" lon="-8.0276833"><ele>819.0</ele><time>2026-04-04T09:24:06.824Z</time></trkpt><trkpt lat="41.9752367" lon="-8.0275767"><ele>819.0</ele><time>2026-04-04T09:24:07.824Z</time></trkpt><trkpt lat="41.9752533" lon="-8.02745"><ele>819.0</ele><time>2026-04-04T09:24:08.825Z</time></trkpt><trkpt lat="41.9752667" lon="-8.0273117"><ele>819.75</ele><time>2026-04-04T09:24:09.825Z</time></trkpt><trkpt lat="41.9752967" lon="-8.0271267"><ele>820.5</ele><time>2026-04-04T09:24:10.825Z</time></trkpt><trkpt lat="41.9753167" lon="-8.0269483"><ele>821.25</ele><time>2026-04-04T09:24:11.824Z</time></trkpt><trkpt lat="41.9753333" lon="-8.0267983"><ele>822.0</ele><time>2026-04-04T09:24:12.825Z</time></trkpt><trkpt lat="41.975345" lon="-8.02669"><ele>822.0</ele><time>2026-04-04T09:24:13.824Z</time></trkpt><trkpt lat="41.975365" lon="-8.0265583"><ele>822.0</ele><time>2026-04-04T09:24:15.824Z</time></trkpt><trkpt lat="41.9753667" lon="-8.0264633"><ele>822.0</ele><time>2026-04-04T09:24:18.825Z</time></trkpt><trkpt lat="41.97541" lon="-8.026565"><ele>822.0</ele><time>2026-04-04T09:24:23.824Z</time></trkpt><trkpt lat="41.97538" lon="-8.0267017"><ele>822.0</ele><time>2026-04-04T09:24:25.825Z</time></trkpt><trkpt lat="41.975365" lon="-8.0268283"><ele>822.0</ele><time>2026-04-04T09:24:27.824Z</time></trkpt><trkpt lat="41.9753533" lon="-8.0269567"><ele>822.0</ele><time>2026-04-04T09:24:29.824Z</time></trkpt><trkpt lat="41.9753467" lon="-8.0270617"><ele>822.0</ele><time>2026-04-04T09:24:31.824Z</time></trkpt><trkpt lat="41.9753417" lon="-8.02716"><ele>822.0</ele><time>2026-04-04T09:24:33.824Z</time></trkpt><trkpt lat="41.9753283" lon="-8.027275"><ele>822.0</ele><time>2026-04-04T09:24:35.824Z</time></trkpt><trkpt lat="41.9753183" lon="-8.0274"><ele>822.0</ele><time>2026-04-04T09:24:37.824Z</time></trkpt><trkpt lat="41.9753117" lon="-8.0275283"><ele>821.5</ele><time>2026-04-04T09:24:39.824Z</time></trkpt><trkpt lat="41.9753" lon="-8.0276367"><ele>821.0</ele><time>2026-04-04T09:24:41.824Z</time></trkpt><trkpt lat="41.97531" lon="-8.027745"><ele>820.5</ele><time>2026-04-04T09:24:44.825Z</time></trkpt><trkpt lat="41.9753483" lon="-8.02783"><ele>820.0</ele><time>2026-04-04T09:24:46.824Z</time></trkpt><trkpt lat="41.9754017" lon="-8.0278917"><ele>819.5</ele><time>2026-04-04T09:24:48.825Z</time></trkpt><trkpt lat="41.9754967" lon="-8.0279533"><ele>819.0</ele><time>2026-04-04T09:24:51.824Z</time></trkpt><trkpt lat="41.9755783" lon="-8.0280317"><ele>819.0</ele><time>2026-04-04T09:24:53.825Z</time></trkpt><trkpt lat="41.9756417" lon="-8.0281217"><ele>819.0</ele><time>2026-04-04T09:24:55.825Z</time></trkpt><trkpt lat="41.975695" lon="-8.0281933"><ele>819.0</ele><time>2026-04-04T09:24:57.824Z</time></trkpt><trkpt lat="41.97577" lon="-8.028265"><ele>819.0</ele><time>2026-04-04T09:24:59.826Z</time></trkpt><trkpt lat="41.9758683" lon="-8.0283817"><ele>819.0</ele><time>2026-04-04T09:25:01.825Z</time></trkpt><trkpt lat="41.9759117" lon="-8.0284633"><ele>819.5</ele><time>2026-04-04T09:25:02.824Z</time></trkpt><trkpt lat="41.9759467" lon="-8.02854"><ele>820.0</ele><time>2026-04-04T09:25:03.824Z</time></trkpt><trkpt lat="41.9759883" lon="-8.0286683"><ele>820.5</ele><time>2026-04-04T09:25:05.824Z</time></trkpt><trkpt lat="41.9760233" lon="-8.0287467"><ele>821.0</ele><time>2026-04-04T09:25:07.824Z</time></trkpt><trkpt lat="41.9760617" lon="-8.0288167"><ele>821.5</ele><time>2026-04-04T09:25:10.824Z</time></trkpt><trkpt lat="41.97603" lon="-8.02891"><ele>822.0</ele><time>2026-04-04T09:25:15.825Z</time></trkpt><trkpt lat="41.97599" lon="-8.0289967"><ele>822.0</ele><time>2026-04-04T09:25:18.825Z</time></trkpt><trkpt lat="41.9759617" lon="-8.0290833"><ele>822.0</ele><time>2026-04-04T09:25:22.823Z</time></trkpt><trkpt lat="41.975915" lon="-8.0291817"><ele>822.0</ele><time>2026-04-04T09:25:26.823Z</time></trkpt><trkpt lat="41.9758667" lon="-8.0292817"><ele>822.0</ele><time>2026-04-04T09:25:29.824Z</time></trkpt><trkpt lat="41.9758333" lon="-8.0293667"><ele>822.0</ele><time>2026-04-04T09:25:31.823Z</time></trkpt><trkpt lat="41.9758083" lon="-8.029445"><ele>822.0</ele><time>2026-04-04T09:25:33.823Z</time></trkpt><trkpt lat="41.9757733" lon="-8.0295517"><ele>819.8333333333334</ele><time>2026-04-04T09:25:36.824Z</time></trkpt><trkpt lat="41.975735" lon="-8.0296467"><ele>817.6666666666667</ele><time>2026-04-04T09:25:39.823Z</time></trkpt><trkpt lat="41.9756983" lon="-8.0297217"><ele>815.5</ele><time>2026-04-04T09:25:42.826Z</time></trkpt><trkpt lat="41.9756567" lon="-8.0298283"><ele>813.3333333333334</ele><time>2026-04-04T09:25:45.823Z</time></trkpt><trkpt lat="41.9756067" lon="-8.02995"><ele>811.1666666666667</ele><time>2026-04-04T09:25:47.823Z</time></trkpt><trkpt lat="41.975575" lon="-8.03003"><ele>809.0</ele><time>2026-04-04T09:25:48.824Z</time></trkpt><trkpt lat="41.975545" lon="-8.0301133"><ele>807.2</ele><time>2026-04-04T09:25:49.824Z</time></trkpt><trkpt lat="41.9755133" lon="-8.0301967"><ele>805.4000000000001</ele><time>2026-04-04T09:25:50.824Z</time></trkpt><trkpt lat="41.9754617" lon="-8.030335"><ele>803.6</ele><time>2026-04-04T09:25:52.824Z</time></trkpt><trkpt lat="41.9754183" lon="-8.03046"><ele>801.8</ele><time>2026-04-04T09:25:54.824Z</time></trkpt><trkpt lat="41.975375" lon="-8.0305767"><ele>800.0</ele><time>2026-04-04T09:25:56.824Z</time></trkpt><trkpt lat="41.9753217" lon="-8.0307"><ele>797.2</ele><time>2026-04-04T09:25:58.823Z</time></trkpt><trkpt lat="41.9752683" lon="-8.0308183"><ele>794.4</ele><time>2026-04-04T09:26:00.824Z</time></trkpt><trkpt lat="41.975215" lon="-8.0309333"><ele>791.5999999999999</ele><time>2026-04-04T09:26:02.825Z</time></trkpt><trkpt lat="41.975145" lon="-8.0310783"><ele>788.8</ele><time>2026-04-04T09:26:04.824Z</time></trkpt><trkpt lat="41.9751083" lon="-8.0311567"><ele>786.0</ele><time>2026-04-04T09:26:05.824Z</time></trkpt><trkpt lat="41.9750767" lon="-8.03123"><ele>785.5</ele><time>2026-04-04T09:26:06.825Z</time></trkpt><trkpt lat="41.9750067" lon="-8.031375"><ele>785.0</ele><time>2026-04-04T09:26:08.825Z</time></trkpt><trkpt lat="41.9749717" lon="-8.0314467"><ele>784.5</ele><time>2026-04-04T09:26:09.823Z</time></trkpt><trkpt lat="41.9749083" lon="-8.0315867"><ele>784.0</ele><time>2026-04-04T09:26:11.823Z</time></trkpt><trkpt lat="41.9748383" lon="-8.031745"><ele>783.6666666666666</ele><time>2026-04-04T09:26:13.824Z</time></trkpt><trkpt lat="41.9748083" lon="-8.0318267"><ele>783.3333333333333</ele><time>2026-04-04T09:26:14.824Z</time></trkpt><trkpt lat="41.97478" lon="-8.031905"><ele>783.0</ele><time>2026-04-04T09:26:15.823Z</time></trkpt><trkpt lat="41.9747317" lon="-8.0320267"><ele>782.6666666666667</ele><time>2026-04-04T09:26:17.827Z</time></trkpt><trkpt lat="41.974685" lon="-8.0320867"><ele>782.3333333333334</ele><time>2026-04-04T09:26:19.826Z</time></trkpt><trkpt lat="41.97462" lon="-8.0320883"><ele>782.0</ele><time>2026-04-04T09:26:21.824Z</time></trkpt><trkpt lat="41.974515" lon="-8.03204"><ele>782.0000000000001</ele><time>2026-04-04T09:26:23.824Z</time></trkpt><trkpt lat="41.9744417" lon="-8.031995"><ele>782.0</ele><time>2026-04-04T09:26:24.823Z</time></trkpt><trkpt lat="41.974355" lon="-8.031935"><ele>782.0</ele><time>2026-04-04T09:26:25.823Z</time></trkpt><trkpt lat="41.97428" lon="-8.0318833"><ele>782.0</ele><time>2026-04-04T09:26:26.822Z</time></trkpt><trkpt lat="41.974215" lon="-8.031835"><ele>782.0000000000001</ele><time>2026-04-04T09:26:27.822Z</time></trkpt><trkpt lat="41.9741567" lon="-8.0317883"><ele>782.0</ele><time>2026-04-04T09:26:28.824Z</time></trkpt><trkpt lat="41.974115" lon="-8.031685"><ele>781.6</ele><time>2026-04-04T09:26:30.824Z</time></trkpt><trkpt lat="41.9741433" lon="-8.0315783"><ele>781.2</ele><time>2026-04-04T09:26:32.824Z</time></trkpt><trkpt lat="41.9741917" lon="-8.0314317"><ele>780.8</ele><time>2026-04-04T09:26:34.823Z</time></trkpt><trkpt lat="41.9742233" lon="-8.0313367"><ele>780.4</ele><time>2026-04-04T09:26:35.823Z</time></trkpt><trkpt lat="41.97428" lon="-8.0312017"><ele>780.0</ele><time>2026-04-04T09:26:36.826Z</time></trkpt><trkpt lat="41.9743283" lon="-8.0310617"><ele>780.8</ele><time>2026-04-04T09:26:37.823Z</time></trkpt><trkpt lat="41.9743683" lon="-8.03093"><ele>781.6</ele><time>2026-04-04T09:26:38.824Z</time></trkpt><trkpt lat="41.9744067" lon="-8.0307917"><ele>782.4000000000001</ele><time>2026-04-04T09:26:39.825Z</time></trkpt><trkpt lat="41.97443" lon="-8.0306583"><ele>783.2</ele><time>2026-04-04T09:26:40.823Z</time></trkpt><trkpt lat="41.974445" lon="-8.030545"><ele>784.0</ele><time>2026-04-04T09:26:41.824Z</time></trkpt><trkpt lat="41.9744467" lon="-8.030445"><ele>785.1666666666666</ele><time>2026-04-04T09:26:42.824Z</time></trkpt><trkpt lat="41.9744517" lon="-8.0303417"><ele>786.3333333333333</ele><time>2026-04-04T09:26:43.826Z</time></trkpt><trkpt lat="41.9744667" lon="-8.0302283"><ele>787.5</ele><time>2026-04-04T09:26:44.825Z</time></trkpt><trkpt lat="41.9744767" lon="-8.0301233"><ele>788.6666666666667</ele><time>2026-04-04T09:26:45.825Z</time></trkpt><trkpt lat="41.9744883" lon="-8.03002"><ele>789.8333333333334</ele><time>2026-04-04T09:26:46.829Z</time></trkpt><trkpt lat="41.9744917" lon="-8.0299283"><ele>791.0</ele><time>2026-04-04T09:26:47.826Z</time></trkpt><trkpt lat="41.9744867" lon="-8.0298367"><ele>790.0000000000001</ele><time>2026-04-04T09:26:48.824Z</time></trkpt><trkpt lat="41.9744783" lon="-8.0297517"><ele>789.0</ele><time>2026-04-04T09:26:49.824Z</time></trkpt><trkpt lat="41.9743967" lon="-8.0296533"><ele>788.0</ele><time>2026-04-04T09:26:51.822Z</time></trkpt><trkpt lat="41.974325" lon="-8.0296167"><ele>787.0</ele><time>2026-04-04T09:26:52.822Z</time></trkpt><trkpt lat="41.9742633" lon="-8.0295633"><ele>786.0000000000001</ele><time>2026-04-04T09:26:53.823Z</time></trkpt><trkpt lat="41.974205" lon="-8.0295233"><ele>785.0</ele><time>2026-04-04T09:26:54.822Z</time></trkpt><trkpt lat="41.9741483" lon="-8.0294767"><ele>785.0000000000001</ele><time>2026-04-04T09:26:55.823Z</time></trkpt><trkpt lat="41.9740917" lon="-8.02943"><ele>785.0</ele><time>2026-04-04T09:26:56.825Z</time></trkpt><trkpt lat="41.9739783" lon="-8.0293517"><ele>785.0</ele><time>2026-04-04T09:26:58.822Z</time></trkpt><trkpt lat="41.9739083" lon="-8.0293"><ele>785.0</ele><time>2026-04-04T09:26:59.823Z</time></trkpt><trkpt lat="41.9738383" lon="-8.0292517"><ele>785.0000000000001</ele><time>2026-04-04T09:27:00.823Z</time></trkpt><trkpt lat="41.9737717" lon="-8.029205"><ele>785.0</ele><time>2026-04-04T09:27:01.823Z</time></trkpt><trkpt lat="41.9737117" lon="-8.0291533"><ele>785.2857142857143</ele><time>2026-04-04T09:27:02.822Z</time></trkpt><trkpt lat="41.97365" lon="-8.029105"><ele>785.5714285714286</ele><time>2026-04-04T09:27:03.822Z</time></trkpt><trkpt lat="41.973595" lon="-8.0290483"><ele>785.8571428571429</ele><time>2026-04-04T09:27:04.824Z</time></trkpt><trkpt lat="41.9735367" lon="-8.0290017"><ele>786.1428571428571</ele><time>2026-04-04T09:27:05.822Z</time></trkpt><trkpt lat="41.973485" lon="-8.0289533"><ele>786.4285714285713</ele><time>2026-04-04T09:27:06.824Z</time></trkpt><trkpt lat="41.973435" lon="-8.0289017"><ele>786.7142857142857</ele><time>2026-04-04T09:27:07.822Z</time></trkpt><trkpt lat="41.9733433" lon="-8.0288167"><ele>787.0</ele><time>2026-04-04T09:27:09.822Z</time></trkpt><trkpt lat="41.973285" lon="-8.0287567"><ele>785.6</ele><time>2026-04-04T09:27:12.822Z</time></trkpt><trkpt lat="41.9732567" lon="-8.0286417"><ele>784.2</ele><time>2026-04-04T09:27:16.822Z</time></trkpt><trkpt lat="41.9732667" lon="-8.0285067"><ele>782.8</ele><time>2026-04-04T09:27:18.824Z</time></trkpt><trkpt lat="41.9732617" lon="-8.0283733"><ele>781.4</ele><time>2026-04-04T09:27:20.823Z</time></trkpt><trkpt lat="41.9732017" lon="-8.028265"><ele>780.0</ele><time>2026-04-04T09:27:22.822Z</time></trkpt><trkpt lat="41.9730967" lon="-8.0281917"><ele>780.0</ele><time>2026-04-04T09:27:24.824Z</time></trkpt><trkpt lat="41.973015" lon="-8.028155"><ele>780.0</ele><time>2026-04-04T09:27:25.822Z</time></trkpt><trkpt lat="41.9729083" lon="-8.0281117"><ele>780.0</ele><time>2026-04-04T09:27:26.824Z</time></trkpt><trkpt lat="41.9728033" lon="-8.0280717"><ele>780.0</ele><time>2026-04-04T09:27:27.823Z</time></trkpt><trkpt lat="41.9726833" lon="-8.0280283"><ele>780.0</ele><time>2026-04-04T09:27:28.822Z</time></trkpt><trkpt lat="41.9725567" lon="-8.0279833"><ele>778.75</ele><time>2026-04-04T09:27:29.823Z</time></trkpt><trkpt lat="41.9724217" lon="-8.02793"><ele>777.5</ele><time>2026-04-04T09:27:30.823Z</time></trkpt><trkpt lat="41.97228" lon="-8.0278733"><ele>776.25</ele><time>2026-04-04T09:27:31.823Z</time></trkpt><trkpt lat="41.9721383" lon="-8.0278117"><ele>775.0</ele><time>2026-04-04T09:27:32.823Z</time></trkpt><trkpt lat="41.9720017" lon="-8.0277517"><ele>775.0</ele><time>2026-04-04T09:27:33.823Z</time></trkpt><trkpt lat="41.9718633" lon="-8.027705"><ele>775.0</ele><time>2026-04-04T09:27:34.822Z</time></trkpt><trkpt lat="41.97173" lon="-8.0276767"><ele>775.0</ele><time>2026-04-04T09:27:35.823Z</time></trkpt><trkpt lat="41.9716083" lon="-8.0276667"><ele>775.0</ele><time>2026-04-04T09:27:36.823Z</time></trkpt><trkpt lat="41.97149" lon="-8.0276567"><ele>775.4</ele><time>2026-04-04T09:27:37.823Z</time></trkpt><trkpt lat="41.9713833" lon="-8.0276417"><ele>775.8</ele><time>2026-04-04T09:27:38.823Z</time></trkpt><trkpt lat="41.9712967" lon="-8.02761"><ele>776.2</ele><time>2026-04-04T09:27:39.825Z</time></trkpt><trkpt lat="41.971215" lon="-8.0275667"><ele>776.6</ele><time>2026-04-04T09:27:40.823Z</time></trkpt><trkpt lat="41.9711467" lon="-8.0275417"><ele>777.0</ele><time>2026-04-04T09:27:41.823Z</time></trkpt><trkpt lat="41.97105" lon="-8.027545"><ele>777.0</ele><time>2026-04-04T09:27:43.824Z</time></trkpt><trkpt lat="41.97096" lon="-8.0275733"><ele>777.0</ele><time>2026-04-04T09:27:45.823Z</time></trkpt><trkpt lat="41.97086" lon="-8.0275983"><ele>777.0</ele><time>2026-04-04T09:27:47.824Z</time></trkpt><trkpt lat="41.9707717" lon="-8.02761"><ele>777.0</ele><time>2026-04-04T09:27:49.823Z</time></trkpt><trkpt lat="41.9706917" lon="-8.027615"><ele>777.0</ele><time>2026-04-04T09:27:51.825Z</time></trkpt><trkpt lat="41.970615" lon="-8.02761"><ele>777.0</ele><time>2026-04-04T09:27:53.824Z</time></trkpt><trkpt lat="41.9705267" lon="-8.0275933"><ele>776.8</ele><time>2026-04-04T09:27:55.826Z</time></trkpt><trkpt lat="41.9704383" lon="-8.027565"><ele>776.6</ele><time>2026-04-04T09:27:57.822Z</time></trkpt><trkpt lat="41.9703617" lon="-8.02753"><ele>776.4</ele><time>2026-04-04T09:27:59.823Z</time></trkpt><trkpt lat="41.97027" lon="-8.027475"><ele>776.1999999999999</ele><time>2026-04-04T09:28:01.823Z</time></trkpt><trkpt lat="41.9701667" lon="-8.0273933"><ele>776.0</ele><time>2026-04-04T09:28:03.823Z</time></trkpt><trkpt lat="41.9700667" lon="-8.0273233"><ele>777.1999999999999</ele><time>2026-04-04T09:28:05.823Z</time></trkpt><trkpt lat="41.9699533" lon="-8.0272883"><ele>778.4</ele><time>2026-04-04T09:28:07.823Z</time></trkpt><trkpt lat="41.96983" lon="-8.0272867"><ele>779.6</ele><time>2026-04-04T09:28:09.823Z</time></trkpt><trkpt lat="41.9697567" lon="-8.027305"><ele>780.8</ele><time>2026-04-04T09:28:10.822Z</time></trkpt><trkpt lat="41.9696833" lon="-8.0273233"><ele>782.0</ele><time>2026-04-04T09:28:11.823Z</time></trkpt><trkpt lat="41.96961" lon="-8.02734"><ele>781.9999999999999</ele><time>2026-04-04T09:28:12.825Z</time></trkpt><trkpt lat="41.969545" lon="-8.02735"><ele>782.0</ele><time>2026-04-04T09:28:13.823Z</time></trkpt><trkpt lat="41.9694733" lon="-8.02736"><ele>782.0</ele><time>2026-04-04T09:28:14.823Z</time></trkpt><trkpt lat="41.9693967" lon="-8.027365"><ele>782.0</ele><time>2026-04-04T09:28:15.823Z</time></trkpt><trkpt lat="41.9693183" lon="-8.0273517"><ele>782.0</ele><time>2026-04-04T09:28:16.824Z</time></trkpt><trkpt lat="41.9692467" lon="-8.0273167"><ele>781.9999999999999</ele><time>2026-04-04T09:28:17.823Z</time></trkpt><trkpt lat="41.96918" lon="-8.0272833"><ele>782.0</ele><time>2026-04-04T09:28:18.823Z</time></trkpt><trkpt lat="41.9691167" lon="-8.0272517"><ele>780.4000000000001</ele><time>2026-04-04T09:28:19.823Z</time></trkpt><trkpt lat="41.9690017" lon="-8.0272167"><ele>778.8000000000001</ele><time>2026-04-04T09:28:21.822Z</time></trkpt><trkpt lat="41.9688917" lon="-8.0272267"><ele>777.2</ele><time>2026-04-04T09:28:23.823Z</time></trkpt><trkpt lat="41.968795" lon="-8.027275"><ele>775.6</ele><time>2026-04-04T09:28:25.824Z</time></trkpt><trkpt lat="41.96874" lon="-8.0273167"><ele>774.0</ele><time>2026-04-04T09:28:26.823Z</time></trkpt><trkpt lat="41.9686867" lon="-8.0273733"><ele>770.8000000000001</ele><time>2026-04-04T09:28:27.823Z</time></trkpt><trkpt lat="41.96862" lon="-8.0274833"><ele>767.6</ele><time>2026-04-04T09:28:29.823Z</time></trkpt><trkpt lat="41.9685617" lon="-8.027575"><ele>764.4</ele><time>2026-04-04T09:28:31.824Z</time></trkpt><trkpt lat="41.96849" lon="-8.0276567"><ele>761.2</ele><time>2026-04-04T09:28:33.823Z</time></trkpt><trkpt lat="41.9684" lon="-8.0277767"><ele>758.0</ele><time>2026-04-04T09:28:35.823Z</time></trkpt><trkpt lat="41.9683483" lon="-8.0278383"><ele>757.0</ele><time>2026-04-04T09:28:36.823Z</time></trkpt><trkpt lat="41.968295" lon="-8.0278883"><ele>756.0</ele><time>2026-04-04T09:28:37.823Z</time></trkpt><trkpt lat="41.9681967" lon="-8.0279667"><ele>755.0</ele><time>2026-04-04T09:28:39.823Z</time></trkpt><trkpt lat="41.9681" lon="-8.0280083"><ele>754.0</ele><time>2026-04-04T09:28:41.823Z</time></trkpt><trkpt lat="41.9679983" lon="-8.0280367"><ele>753.0</ele><time>2026-04-04T09:28:43.823Z</time></trkpt><trkpt lat="41.9678917" lon="-8.0280633"><ele>753.0</ele><time>2026-04-04T09:28:45.823Z</time></trkpt><trkpt lat="41.96782" lon="-8.028095"><ele>753.0</ele><time>2026-04-04T09:28:47.822Z</time></trkpt><trkpt lat="41.9677583" lon="-8.028115"><ele>753.0</ele><time>2026-04-04T09:28:50.823Z</time></trkpt><trkpt lat="41.9676517" lon="-8.0281283"><ele>753.0</ele><time>2026-04-04T09:28:53.822Z</time></trkpt><trkpt lat="41.9675767" lon="-8.0281583"><ele>753.0</ele><time>2026-04-04T09:28:54.823Z</time></trkpt><trkpt lat="41.9675017" lon="-8.0281917"><ele>753.0</ele><time>2026-04-04T09:28:55.823Z</time></trkpt><trkpt lat="41.9674333" lon="-8.028225"><ele>751.75</ele><time>2026-04-04T09:28:56.823Z</time></trkpt><trkpt lat="41.9673717" lon="-8.0282583"><ele>750.5</ele><time>2026-04-04T09:28:57.824Z</time></trkpt><trkpt lat="41.9672517" lon="-8.02825"><ele>749.25</ele><time>2026-04-04T09:28:59.823Z</time></trkpt><trkpt lat="41.967125" lon="-8.0281283"><ele>748.0</ele><time>2026-04-04T09:29:01.823Z</time></trkpt><trkpt lat="41.9670467" lon="-8.0280217"><ele>748.0</ele><time>2026-04-04T09:29:02.823Z</time></trkpt><trkpt lat="41.966955" lon="-8.0279067"><ele>748.0</ele><time>2026-04-04T09:29:03.822Z</time></trkpt><trkpt lat="41.9668667" lon="-8.0277967"><ele>748.0</ele><time>2026-04-04T09:29:04.823Z</time></trkpt><trkpt lat="41.9667767" lon="-8.0276917"><ele>748.0</ele><time>2026-04-04T09:29:05.822Z</time></trkpt><trkpt lat="41.9666917" lon="-8.0275883"><ele>746.75</ele><time>2026-04-04T09:29:06.824Z</time></trkpt><trkpt lat="41.9666017" lon="-8.0274867"><ele>745.5</ele><time>2026-04-04T09:29:07.823Z</time></trkpt><trkpt lat="41.9665067" lon="-8.0273833"><ele>744.25</ele><time>2026-04-04T09:29:08.823Z</time></trkpt><trkpt lat="41.9664183" lon="-8.0272817"><ele>743.0</ele><time>2026-04-04T09:29:09.823Z</time></trkpt><trkpt lat="41.96633" lon="-8.02718"><ele>743.0</ele><time>2026-04-04T09:29:10.825Z</time></trkpt><trkpt lat="41.9662417" lon="-8.0270733"><ele>743.0</ele><time>2026-04-04T09:29:11.825Z</time></trkpt><trkpt lat="41.9661533" lon="-8.0269617"><ele>743.0</ele><time>2026-04-04T09:29:12.826Z</time></trkpt><trkpt lat="41.9660567" lon="-8.0268533"><ele>743.0</ele><time>2026-04-04T09:29:13.824Z</time></trkpt><trkpt lat="41.9659617" lon="-8.0267533"><ele>743.0</ele><time>2026-04-04T09:29:14.826Z</time></trkpt><trkpt lat="41.9658733" lon="-8.0266633"><ele>743.0</ele><time>2026-04-04T09:29:15.824Z</time></trkpt><trkpt lat="41.9657967" lon="-8.0265717"><ele>743.0</ele><time>2026-04-04T09:29:16.826Z</time></trkpt><trkpt lat="41.96573" lon="-8.02649"><ele>743.0</ele><time>2026-04-04T09:29:17.824Z</time></trkpt><trkpt lat="41.96567" lon="-8.02642"><ele>743.0</ele><time>2026-04-04T09:29:18.825Z</time></trkpt><trkpt lat="41.9656233" lon="-8.02636"><ele>743.0</ele><time>2026-04-04T09:29:19.825Z</time></trkpt><trkpt lat="41.9655683" lon="-8.02628"><ele>743.5</ele><time>2026-04-04T09:29:21.825Z</time></trkpt><trkpt lat="41.9655333" lon="-8.0262033"><ele>744.0</ele><time>2026-04-04T09:29:24.825Z</time></trkpt><trkpt lat="41.9654883" lon="-8.026135"><ele>744.5</ele><time>2026-04-04T09:29:27.826Z</time></trkpt><trkpt lat="41.965565" lon="-8.0262333"><ele>745.0</ele><time>2026-04-04T09:29:36.825Z</time></trkpt><trkpt lat="41.9655967" lon="-8.0263317"><ele>745.5</ele><time>2026-04-04T09:29:38.826Z</time></trkpt><trkpt lat="41.9655217" lon="-8.026285"><ele>746.0</ele><time>2026-04-04T09:29:43.825Z</time></trkpt><trkpt lat="41.9654583" lon="-8.0261817"><ele>746.0</ele><time>2026-04-04T09:29:45.825Z</time></trkpt><trkpt lat="41.9654083" lon="-8.026085"><ele>746.0</ele><time>2026-04-04T09:29:47.825Z</time></trkpt><trkpt lat="41.96537" lon="-8.026015"><ele>746.0</ele><time>2026-04-04T09:29:49.825Z</time></trkpt><trkpt lat="41.9653267" lon="-8.0259433"><ele>746.0</ele><time>2026-04-04T09:29:52.825Z</time></trkpt><trkpt lat="41.9653383" lon="-8.0260417"><ele>746.0</ele><time>2026-04-04T09:30:20.824Z</time></trkpt><trkpt lat="41.9653333" lon="-8.0261317"><ele>746.0</ele><time>2026-04-04T09:30:23.826Z</time></trkpt><trkpt lat="41.9653317" lon="-8.026235"><ele>746.0</ele><time>2026-04-04T09:30:26.825Z</time></trkpt><trkpt lat="41.965345" lon="-8.0263267"><ele>746.0</ele><time>2026-04-04T09:30:29.825Z</time></trkpt><trkpt lat="41.9653483" lon="-8.026445"><ele>746.0</ele><time>2026-04-04T09:30:32.825Z</time></trkpt><trkpt lat="41.9653517" lon="-8.0265567"><ele>746.0</ele><time>2026-04-04T09:30:34.824Z</time></trkpt><trkpt lat="41.965345" lon="-8.0266833"><ele>746.0</ele><time>2026-04-04T09:30:36.825Z</time></trkpt><trkpt lat="41.965345" lon="-8.0267967"><ele>746.0</ele><time>2026-04-04T09:30:38.824Z</time></trkpt><trkpt lat="41.965335" lon="-8.0269133"><ele>746.0</ele><time>2026-04-04T09:30:40.829Z</time></trkpt><trkpt lat="41.9653033" lon="-8.0270367"><ele>743.5</ele><time>2026-04-04T09:30:42.825Z</time></trkpt><trkpt lat="41.9652617" lon="-8.0271383"><ele>741.0</ele><time>2026-04-04T09:30:44.825Z</time></trkpt><trkpt lat="41.9652417" lon="-8.0272467"><ele>738.5</ele><time>2026-04-04T09:30:49.825Z</time></trkpt><trkpt lat="41.96517" lon="-8.0273333"><ele>736.0</ele><time>2026-04-04T09:30:52.824Z</time></trkpt><trkpt lat="41.9650617" lon="-8.0273867"><ele>733.5</ele><time>2026-04-04T09:30:54.825Z</time></trkpt><trkpt lat="41.9650017" lon="-8.0274167"><ele>731.0</ele><time>2026-04-04T09:30:55.824Z</time></trkpt><trkpt lat="41.964885" lon="-8.0274633"><ele>729.2857142857142</ele><time>2026-04-04T09:30:57.825Z</time></trkpt><trkpt lat="41.9648183" lon="-8.0274867"><ele>727.5714285714286</ele><time>2026-04-04T09:30:58.826Z</time></trkpt><trkpt lat="41.9647517" lon="-8.0275183"><ele>725.8571428571429</ele><time>2026-04-04T09:30:59.825Z</time></trkpt><trkpt lat="41.9646867" lon="-8.0275483"><ele>724.1428571428571</ele><time>2026-04-04T09:31:00.825Z</time></trkpt><trkpt lat="41.9646217" lon="-8.0275883"><ele>722.4285714285714</ele><time>2026-04-04T09:31:01.825Z</time></trkpt><trkpt lat="41.9645567" lon="-8.0276367"><ele>720.7142857142857</ele><time>2026-04-04T09:31:02.825Z</time></trkpt><trkpt lat="41.96449" lon="-8.0276867"><ele>719.0</ele><time>2026-04-04T09:31:03.825Z</time></trkpt><trkpt lat="41.964425" lon="-8.0277383"><ele>719.0</ele><time>2026-04-04T09:31:04.825Z</time></trkpt><trkpt lat="41.96436" lon="-8.027785"><ele>719.0</ele><time>2026-04-04T09:31:05.824Z</time></trkpt><trkpt lat="41.9643033" lon="-8.02783"><ele>719.0</ele><time>2026-04-04T09:31:06.825Z</time></trkpt><trkpt lat="41.9641933" lon="-8.027885"><ele>719.0</ele><time>2026-04-04T09:31:08.825Z</time></trkpt><trkpt lat="41.9640883" lon="-8.0279283"><ele>719.0</ele><time>2026-04-04T09:31:10.826Z</time></trkpt><trkpt lat="41.96399" lon="-8.0279667"><ele>718.3333333333333</ele><time>2026-04-04T09:31:12.825Z</time></trkpt><trkpt lat="41.9638533" lon="-8.02799"><ele>717.6666666666666</ele><time>2026-04-04T09:31:14.826Z</time></trkpt><trkpt lat="41.96378" lon="-8.0280033"><ele>717.0</ele><time>2026-04-04T09:31:15.824Z</time></trkpt><trkpt lat="41.963705" lon="-8.0280217"><ele>716.3333333333334</ele><time>2026-04-04T09:31:16.825Z</time></trkpt><trkpt lat="41.9636233" lon="-8.0280267"><ele>715.6666666666667</ele><time>2026-04-04T09:31:17.824Z</time></trkpt><trkpt lat="41.9635483" lon="-8.0280317"><ele>715.0</ele><time>2026-04-04T09:31:18.825Z</time></trkpt><trkpt lat="41.9634817" lon="-8.0280367"><ele>715.0</ele><time>2026-04-04T09:31:19.825Z</time></trkpt><trkpt lat="41.9634067" lon="-8.02804"><ele>715.0</ele><time>2026-04-04T09:31:20.825Z</time></trkpt><trkpt lat="41.963335" lon="-8.0280483"><ele>715.0</ele><time>2026-04-04T09:31:21.824Z</time></trkpt><trkpt lat="41.9632583" lon="-8.0280517"><ele>715.0</ele><time>2026-04-04T09:31:22.824Z</time></trkpt><trkpt lat="41.9631817" lon="-8.0280617"><ele>715.0</ele><time>2026-04-04T09:31:23.825Z</time></trkpt><trkpt lat="41.963115" lon="-8.0280733"><ele>715.0</ele><time>2026-04-04T09:31:24.826Z</time></trkpt><trkpt lat="41.9630483" lon="-8.0280867"><ele>715.0</ele><time>2026-04-04T09:31:25.825Z</time></trkpt><trkpt lat="41.9629567" lon="-8.02812"><ele>715.3333333333334</ele><time>2026-04-04T09:31:27.825Z</time></trkpt><trkpt lat="41.9628767" lon="-8.0281617"><ele>715.6666666666667</ele><time>2026-04-04T09:31:29.824Z</time></trkpt><trkpt lat="41.9628033" lon="-8.0282083"><ele>716.0</ele><time>2026-04-04T09:31:31.826Z</time></trkpt><trkpt lat="41.9627383" lon="-8.0282467"><ele>716.3333333333334</ele><time>2026-04-04T09:31:33.826Z</time></trkpt><trkpt lat="41.9626783" lon="-8.028285"><ele>716.6666666666666</ele><time>2026-04-04T09:31:35.825Z</time></trkpt><trkpt lat="41.962615" lon="-8.02834"><ele>717.0</ele><time>2026-04-04T09:31:37.823Z</time></trkpt><trkpt lat="41.9625183" lon="-8.0284117"><ele>719.0</ele><time>2026-04-04T09:31:39.824Z</time></trkpt><trkpt lat="41.9624067" lon="-8.0284833"><ele>721.0</ele><time>2026-04-04T09:31:41.823Z</time></trkpt><trkpt lat="41.9623167" lon="-8.0285667"><ele>723.0</ele><time>2026-04-04T09:31:43.823Z</time></trkpt><trkpt lat="41.9622133" lon="-8.0286533"><ele>725.0</ele><time>2026-04-04T09:31:45.823Z</time></trkpt><trkpt lat="41.9621267" lon="-8.0287233"><ele>725.0</ele><time>2026-04-04T09:31:47.823Z</time></trkpt><trkpt lat="41.96206" lon="-8.02875"><ele>725.0</ele><time>2026-04-04T09:31:49.823Z</time></trkpt><trkpt lat="41.961985" lon="-8.0287567"><ele>725.0</ele><time>2026-04-04T09:31:52.823Z</time></trkpt><trkpt lat="41.9619317" lon="-8.0286983"><ele>725.0</ele><time>2026-04-04T09:31:54.823Z</time></trkpt><trkpt lat="41.9618717" lon="-8.028655"><ele>725.0</ele><time>2026-04-04T09:31:56.823Z</time></trkpt><trkpt lat="41.9617983" lon="-8.02868"><ele>725.0</ele><time>2026-04-04T09:31:58.823Z</time></trkpt><trkpt lat="41.961715" lon="-8.02878"><ele>723.6666666666666</ele><time>2026-04-04T09:32:00.823Z</time></trkpt><trkpt lat="41.9616633" lon="-8.0288433"><ele>722.3333333333333</ele><time>2026-04-04T09:32:01.824Z</time></trkpt><trkpt lat="41.9616183" lon="-8.028905"><ele>721.0</ele><time>2026-04-04T09:32:02.824Z</time></trkpt><trkpt lat="41.9615533" lon="-8.0290283"><ele>719.6666666666666</ele><time>2026-04-04T09:32:04.824Z</time></trkpt><trkpt lat="41.9614683" lon="-8.0291367"><ele>718.3333333333334</ele><time>2026-04-04T09:32:06.828Z</time></trkpt><trkpt lat="41.9613983" lon="-8.0291883"><ele>717.0</ele><time>2026-04-04T09:32:07.823Z</time></trkpt><trkpt lat="41.9613367" lon="-8.0292367"><ele>717.0</ele><time>2026-04-04T09:32:08.823Z</time></trkpt><trkpt lat="41.9612367" lon="-8.0293083"><ele>717.0</ele><time>2026-04-04T09:32:10.823Z</time></trkpt><trkpt lat="41.96115" lon="-8.0293817"><ele>717.0</ele><time>2026-04-04T09:32:12.823Z</time></trkpt><trkpt lat="41.9610933" lon="-8.0294533"><ele>717.0</ele><time>2026-04-04T09:32:14.823Z</time></trkpt><trkpt lat="41.9610417" lon="-8.0295083"><ele>717.0</ele><time>2026-04-04T09:32:16.824Z</time></trkpt><trkpt lat="41.9609783" lon="-8.0295567"><ele>717.0</ele><time>2026-04-04T09:32:18.823Z</time></trkpt><trkpt lat="41.9609083" lon="-8.0296083"><ele>715.3333333333334</ele><time>2026-04-04T09:32:20.826Z</time></trkpt><trkpt lat="41.9608467" lon="-8.0296467"><ele>713.6666666666666</ele><time>2026-04-04T09:32:22.823Z</time></trkpt><trkpt lat="41.9607517" lon="-8.0297167"><ele>712.0</ele><time>2026-04-04T09:32:25.823Z</time></trkpt><trkpt lat="41.9606733" lon="-8.0297983"><ele>710.3333333333333</ele><time>2026-04-04T09:32:27.825Z</time></trkpt><trkpt lat="41.960605" lon="-8.0298733"><ele>708.6666666666666</ele><time>2026-04-04T09:32:29.823Z</time></trkpt><trkpt lat="41.96054" lon="-8.0299383"><ele>707.0</ele><time>2026-04-04T09:32:31.826Z</time></trkpt><trkpt lat="41.9604733" lon="-8.0299717"><ele>705.2</ele><time>2026-04-04T09:32:33.823Z</time></trkpt><trkpt lat="41.9603967" lon="-8.030015"><ele>703.4000000000001</ele><time>2026-04-04T09:32:35.823Z</time></trkpt><trkpt lat="41.9603033" lon="-8.0300683"><ele>701.5999999999999</ele><time>2026-04-04T09:32:37.823Z</time></trkpt><trkpt lat="41.9601883" lon="-8.0301433"><ele>699.8</ele><time>2026-04-04T09:32:39.823Z</time></trkpt><trkpt lat="41.96008" lon="-8.03022"><ele>698.0</ele><time>2026-04-04T09:32:41.823Z</time></trkpt><trkpt lat="41.9600133" lon="-8.0302683"><ele>697.0</ele><time>2026-04-04T09:32:42.823Z</time></trkpt><trkpt lat="41.9599367" lon="-8.0303233"><ele>696.0</ele><time>2026-04-04T09:32:43.823Z</time></trkpt><trkpt lat="41.9598617" lon="-8.0303733"><ele>695.0</ele><time>2026-04-04T09:32:44.823Z</time></trkpt><trkpt lat="41.95979" lon="-8.03042"><ele>694.0</ele><time>2026-04-04T09:32:45.823Z</time></trkpt><trkpt lat="41.9597283" lon="-8.030465"><ele>693.0</ele><time>2026-04-04T09:32:46.827Z</time></trkpt><trkpt lat="41.95967" lon="-8.0305"><ele>692.0</ele><time>2026-04-04T09:32:47.823Z</time></trkpt><trkpt lat="41.9596033" lon="-8.0305633"><ele>692.0</ele><time>2026-04-04T09:32:49.823Z</time></trkpt><trkpt lat="41.9595217" lon="-8.03062"><ele>692.0</ele><time>2026-04-04T09:32:51.823Z</time></trkpt><trkpt lat="41.95946" lon="-8.0306617"><ele>692.0</ele><time>2026-04-04T09:32:52.822Z</time></trkpt><trkpt lat="41.9593883" lon="-8.0307233"><ele>692.0</ele><time>2026-04-04T09:32:53.823Z</time></trkpt><trkpt lat="41.9593133" lon="-8.0307817"><ele>692.0</ele><time>2026-04-04T09:32:54.823Z</time></trkpt><trkpt lat="41.95923" lon="-8.03083"><ele>692.0</ele><time>2026-04-04T09:32:55.826Z</time></trkpt><trkpt lat="41.95915" lon="-8.030885"><ele>691.1666666666666</ele><time>2026-04-04T09:32:56.822Z</time></trkpt><trkpt lat="41.9590667" lon="-8.0309367"><ele>690.3333333333333</ele><time>2026-04-04T09:32:57.823Z</time></trkpt><trkpt lat="41.9589883" lon="-8.030975"><ele>689.5</ele><time>2026-04-04T09:32:58.823Z</time></trkpt><trkpt lat="41.9589133" lon="-8.0310033"><ele>688.6666666666666</ele><time>2026-04-04T09:32:59.823Z</time></trkpt><trkpt lat="41.9588467" lon="-8.0310417"><ele>687.8333333333334</ele><time>2026-04-04T09:33:00.823Z</time></trkpt><trkpt lat="41.9587817" lon="-8.031095"><ele>687.0</ele><time>2026-04-04T09:33:01.823Z</time></trkpt><trkpt lat="41.9587233" lon="-8.0311433"><ele>687.0</ele><time>2026-04-04T09:33:02.823Z</time></trkpt><trkpt lat="41.9586683" lon="-8.0311883"><ele>687.0</ele><time>2026-04-04T09:33:03.823Z</time></trkpt><trkpt lat="41.9586083" lon="-8.031225"><ele>687.0</ele><time>2026-04-04T09:33:04.822Z</time></trkpt><trkpt lat="41.95849" lon="-8.0313183"><ele>687.0</ele><time>2026-04-04T09:33:06.825Z</time></trkpt><trkpt lat="41.95842" lon="-8.0313633"><ele>687.0</ele><time>2026-04-04T09:33:07.823Z</time></trkpt><trkpt lat="41.95835" lon="-8.0314117"><ele>687.0</ele><time>2026-04-04T09:33:08.824Z</time></trkpt><trkpt lat="41.958235" lon="-8.0314767"><ele>686.8333333333334</ele><time>2026-04-04T09:33:10.822Z</time></trkpt><trkpt lat="41.9581533" lon="-8.031535"><ele>686.6666666666666</ele><time>2026-04-04T09:33:12.824Z</time></trkpt><trkpt lat="41.9580783" lon="-8.0315983"><ele>686.5</ele><time>2026-04-04T09:33:14.823Z</time></trkpt><trkpt lat="41.9580117" lon="-8.0316617"><ele>686.3333333333333</ele><time>2026-04-04T09:33:16.823Z</time></trkpt><trkpt lat="41.9579483" lon="-8.0317267"><ele>686.1666666666666</ele><time>2026-04-04T09:33:18.823Z</time></trkpt><trkpt lat="41.957885" lon="-8.0317867"><ele>686.0</ele><time>2026-04-04T09:33:21.823Z</time></trkpt><trkpt lat="41.957825" lon="-8.0318183"><ele>684.6666666666666</ele><time>2026-04-04T09:33:24.824Z</time></trkpt><trkpt lat="41.9577617" lon="-8.0318433"><ele>683.3333333333333</ele><time>2026-04-04T09:33:26.824Z</time></trkpt><trkpt lat="41.957665" lon="-8.0319117"><ele>682.0</ele><time>2026-04-04T09:33:28.823Z</time></trkpt><trkpt lat="41.9575433" lon="-8.03198"><ele>680.6666666666666</ele><time>2026-04-04T09:33:30.824Z</time></trkpt><trkpt lat="41.9574817" lon="-8.032015"><ele>679.3333333333334</ele><time>2026-04-04T09:33:31.824Z</time></trkpt><trkpt lat="41.9574233" lon="-8.03206"><ele>678.0</ele><time>2026-04-04T09:33:32.823Z</time></trkpt><trkpt lat="41.9573567" lon="-8.0321133"><ele>677.0</ele><time>2026-04-04T09:33:33.824Z</time></trkpt><trkpt lat="41.9572967" lon="-8.0321617"><ele>676.0</ele><time>2026-04-04T09:33:34.823Z</time></trkpt><trkpt lat="41.9572367" lon="-8.0322033"><ele>675.0</ele><time>2026-04-04T09:33:35.824Z</time></trkpt><trkpt lat="41.9571317" lon="-8.0322633"><ele>674.0</ele><time>2026-04-04T09:33:37.823Z</time></trkpt><trkpt lat="41.9570583" lon="-8.0323117"><ele>673.0</ele><time>2026-04-04T09:33:39.823Z</time></trkpt><trkpt lat="41.9569817" lon="-8.0323583"><ele>672.0</ele><time>2026-04-04T09:33:41.823Z</time></trkpt><trkpt lat="41.9569067" lon="-8.0324217"><ele>671.2</ele><time>2026-04-04T09:33:43.824Z</time></trkpt><trkpt lat="41.9568167" lon="-8.032495"><ele>670.4000000000001</ele><time>2026-04-04T09:33:45.823Z</time></trkpt><trkpt lat="41.956715" lon="-8.03257"><ele>669.5999999999999</ele><time>2026-04-04T09:33:47.824Z</time></trkpt><trkpt lat="41.9565967" lon="-8.0326483"><ele>668.8</ele><time>2026-04-04T09:33:49.823Z</time></trkpt><trkpt lat="41.9565283" lon="-8.0327067"><ele>668.0</ele><time>2026-04-04T09:33:50.826Z</time></trkpt><trkpt lat="41.956465" lon="-8.032755"><ele>667.1666666666666</ele><time>2026-04-04T09:33:51.824Z</time></trkpt><trkpt lat="41.95637" lon="-8.0328267"><ele>666.3333333333333</ele><time>2026-04-04T09:33:53.823Z</time></trkpt><trkpt lat="41.9563083" lon="-8.0328633"><ele>665.5</ele><time>2026-04-04T09:33:55.823Z</time></trkpt><trkpt lat="41.95631" lon="-8.0329633"><ele>664.6666666666666</ele><time>2026-04-04T09:34:01.824Z</time></trkpt><trkpt lat="41.956385" lon="-8.0330283"><ele>663.8333333333334</ele><time>2026-04-04T09:34:03.823Z</time></trkpt><trkpt lat="41.9564767" lon="-8.03309"><ele>663.0</ele><time>2026-04-04T09:34:05.823Z</time></trkpt><trkpt lat="41.9565783" lon="-8.03316"><ele>663.0</ele><time>2026-04-04T09:34:07.823Z</time></trkpt><trkpt lat="41.95668" lon="-8.0332267"><ele>663.0</ele><time>2026-04-04T09:34:09.823Z</time></trkpt><trkpt lat="41.9567383" lon="-8.0332667"><ele>663.0</ele><time>2026-04-04T09:34:10.823Z</time></trkpt><trkpt lat="41.9568383" lon="-8.033335"><ele>663.0</ele><time>2026-04-04T09:34:12.823Z</time></trkpt><trkpt lat="41.956915" lon="-8.0333867"><ele>663.0</ele><time>2026-04-04T09:34:15.823Z</time></trkpt><trkpt lat="41.9569833" lon="-8.0334233"><ele>662.0</ele><time>2026-04-04T09:34:18.824Z</time></trkpt><trkpt lat="41.957075" lon="-8.033455"><ele>661.0</ele><time>2026-04-04T09:34:21.823Z</time></trkpt><trkpt lat="41.9571433" lon="-8.033475"><ele>660.0</ele><time>2026-04-04T09:34:23.823Z</time></trkpt><trkpt lat="41.9572167" lon="-8.0334817"><ele>659.0</ele><time>2026-04-04T09:34:25.822Z</time></trkpt><trkpt lat="41.9572867" lon="-8.033475"><ele>658.0</ele><time>2026-04-04T09:34:27.823Z</time></trkpt><trkpt lat="41.9573733" lon="-8.0334683"><ele>657.0</ele><time>2026-04-04T09:34:29.823Z</time></trkpt><trkpt lat="41.9574633" lon="-8.0334883"><ele>657.0</ele><time>2026-04-04T09:34:31.823Z</time></trkpt><trkpt lat="41.95754" lon="-8.033515"><ele>657.0</ele><time>2026-04-04T09:34:34.823Z</time></trkpt><trkpt lat="41.9574517" lon="-8.03353"><ele>657.0</ele><time>2026-04-04T09:34:38.823Z</time></trkpt><trkpt lat="41.957335" lon="-8.0334817"><ele>657.0</ele><time>2026-04-04T09:34:40.825Z</time></trkpt><trkpt lat="41.9572667" lon="-8.03347"><ele>657.0</ele><time>2026-04-04T09:34:41.825Z</time></trkpt><trkpt lat="41.9571967" lon="-8.0334667"><ele>657.0</ele><time>2026-04-04T09:34:42.824Z</time></trkpt><trkpt lat="41.95713" lon="-8.0334467"><ele>657.0</ele><time>2026-04-04T09:34:43.823Z</time></trkpt><trkpt lat="41.9570517" lon="-8.033425"><ele>657.0</ele><time>2026-04-04T09:34:44.823Z</time></trkpt><trkpt lat="41.9569783" lon="-8.03339"><ele>657.0</ele><time>2026-04-04T09:34:45.823Z</time></trkpt><trkpt lat="41.9569" lon="-8.0333467"><ele>657.0</ele><time>2026-04-04T09:34:46.823Z</time></trkpt><trkpt lat="41.9568217" lon="-8.0333"><ele>657.0</ele><time>2026-04-04T09:34:47.824Z</time></trkpt><trkpt lat="41.9567467" lon="-8.0332533"><ele>657.0</ele><time>2026-04-04T09:34:48.824Z</time></trkpt><trkpt lat="41.9566767" lon="-8.0332067"><ele>658.0</ele><time>2026-04-04T09:34:49.824Z</time></trkpt><trkpt lat="41.956605" lon="-8.0331617"><ele>659.0</ele><time>2026-04-04T09:34:50.823Z</time></trkpt><trkpt lat="41.956535" lon="-8.0331217"><ele>660.0</ele><time>2026-04-04T09:34:51.823Z</time></trkpt><trkpt lat="41.9564583" lon="-8.0330767"><ele>661.0</ele><time>2026-04-04T09:34:52.823Z</time></trkpt><trkpt lat="41.956385" lon="-8.0330233"><ele>662.0</ele><time>2026-04-04T09:34:53.823Z</time></trkpt><trkpt lat="41.95632" lon="-8.032965"><ele>663.0</ele><time>2026-04-04T09:34:54.826Z</time></trkpt><trkpt lat="41.9562583" lon="-8.0328933"><ele>663.0</ele><time>2026-04-04T09:34:55.823Z</time></trkpt><trkpt lat="41.9562033" lon="-8.032825"><ele>663.0</ele><time>2026-04-04T09:34:56.824Z</time></trkpt><trkpt lat="41.9561583" lon="-8.0327517"><ele>663.0</ele><time>2026-04-04T09:34:57.824Z</time></trkpt><trkpt lat="41.9561133" lon="-8.0326833"><ele>663.0</ele><time>2026-04-04T09:34:58.823Z</time></trkpt><trkpt lat="41.95604" lon="-8.0325683"><ele>663.0</ele><time>2026-04-04T09:35:00.825Z</time></trkpt><trkpt lat="41.9559767" lon="-8.032475"><ele>663.0</ele><time>2026-04-04T09:35:02.823Z</time></trkpt><trkpt lat="41.9559183" lon="-8.0323817"><ele>661.2</ele><time>2026-04-04T09:35:04.824Z</time></trkpt><trkpt lat="41.955855" lon="-8.0322617"><ele>659.4</ele><time>2026-04-04T09:35:06.824Z</time></trkpt><trkpt lat="41.95582" lon="-8.0321867"><ele>657.6</ele><time>2026-04-04T09:35:07.823Z</time></trkpt><trkpt lat="41.9557917" lon="-8.0321067"><ele>655.8000000000001</ele><time>2026-04-04T09:35:08.823Z</time></trkpt><trkpt lat="41.9557967" lon="-8.031925"><ele>654.0</ele><time>2026-04-04T09:35:10.824Z</time></trkpt><trkpt lat="41.9558267" lon="-8.031825"><ele>654.5</ele><time>2026-04-04T09:35:11.823Z</time></trkpt><trkpt lat="41.9558767" lon="-8.03171"><ele>655.0</ele><time>2026-04-04T09:35:12.824Z</time></trkpt><trkpt lat="41.9559267" lon="-8.0315933"><ele>655.5</ele><time>2026-04-04T09:35:13.823Z</time></trkpt><trkpt lat="41.95597" lon="-8.03149"><ele>656.0</ele><time>2026-04-04T09:35:14.823Z</time></trkpt><trkpt lat="41.95601" lon="-8.0313983"><ele>656.5</ele><time>2026-04-04T09:35:15.824Z</time></trkpt><trkpt lat="41.9560467" lon="-8.0313183"><ele>657.0</ele><time>2026-04-04T09:35:16.824Z</time></trkpt><trkpt lat="41.956115" lon="-8.0311783"><ele>657.0</ele><time>2026-04-04T09:35:18.824Z</time></trkpt><trkpt lat="41.9561483" lon="-8.0311033"><ele>657.0</ele><time>2026-04-04T09:35:19.824Z</time></trkpt><trkpt lat="41.9561783" lon="-8.0310117"><ele>657.0</ele><time>2026-04-04T09:35:20.824Z</time></trkpt><trkpt lat="41.9561967" lon="-8.0309033"><ele>657.0</ele><time>2026-04-04T09:35:21.823Z</time></trkpt><trkpt lat="41.9561983" lon="-8.0307933"><ele>657.0</ele><time>2026-04-04T09:35:22.823Z</time></trkpt><trkpt lat="41.9561917" lon="-8.0306817"><ele>657.0</ele><time>2026-04-04T09:35:23.823Z</time></trkpt><trkpt lat="41.9561783" lon="-8.03057"><ele>656.6666666666666</ele><time>2026-04-04T09:35:24.824Z</time></trkpt><trkpt lat="41.9561733" lon="-8.030455"><ele>656.3333333333334</ele><time>2026-04-04T09:35:25.823Z</time></trkpt><trkpt lat="41.956165" lon="-8.030335"><ele>656.0</ele><time>2026-04-04T09:35:26.823Z</time></trkpt><trkpt lat="41.9561617" lon="-8.0302167"><ele>655.6666666666667</ele><time>2026-04-04T09:35:27.828Z</time></trkpt><trkpt lat="41.9561633" lon="-8.0300983"><ele>655.3333333333334</ele><time>2026-04-04T09:35:28.823Z</time></trkpt><trkpt lat="41.9561683" lon="-8.0299883"><ele>655.0</ele><time>2026-04-04T09:35:29.824Z</time></trkpt><trkpt lat="41.9561783" lon="-8.0298883"><ele>652.8333333333334</ele><time>2026-04-04T09:35:30.824Z</time></trkpt><trkpt lat="41.9561883" lon="-8.029795"><ele>650.6666666666667</ele><time>2026-04-04T09:35:31.823Z</time></trkpt><trkpt lat="41.9561983" lon="-8.0297017"><ele>648.5</ele><time>2026-04-04T09:35:32.823Z</time></trkpt><trkpt lat="41.9562083" lon="-8.0296083"><ele>646.3333333333334</ele><time>2026-04-04T09:35:33.823Z</time></trkpt><trkpt lat="41.9562267" lon="-8.0295233"><ele>644.1666666666666</ele><time>2026-04-04T09:35:34.823Z</time></trkpt><trkpt lat="41.9562383" lon="-8.02938"><ele>642.0</ele><time>2026-04-04T09:35:36.824Z</time></trkpt><trkpt lat="41.956145" lon="-8.0293967"><ele>642.0</ele><time>2026-04-04T09:35:40.823Z</time></trkpt><trkpt lat="41.95607" lon="-8.0295433"><ele>642.0</ele><time>2026-04-04T09:35:42.824Z</time></trkpt><trkpt lat="41.9560267" lon="-8.0296233"><ele>642.0</ele><time>2026-04-04T09:35:43.823Z</time></trkpt><trkpt lat="41.9559367" lon="-8.02974"><ele>642.0</ele><time>2026-04-04T09:35:45.824Z</time></trkpt><trkpt lat="41.95588" lon="-8.0297817"><ele>642.0</ele><time>2026-04-04T09:35:46.823Z</time></trkpt><trkpt lat="41.9557767" lon="-8.0298383"><ele>638.0</ele><time>2026-04-04T09:35:48.824Z</time></trkpt><trkpt lat="41.9557017" lon="-8.02985"><ele>634.0</ele><time>2026-04-04T09:35:50.824Z</time></trkpt><trkpt lat="41.95565" lon="-8.0297717"><ele>630.0</ele><time>2026-04-04T09:35:52.823Z</time></trkpt><trkpt lat="41.955665" lon="-8.0295233"><ele>626.0</ele><time>2026-04-04T09:35:54.825Z</time></trkpt><trkpt lat="41.955675" lon="-8.02941"><ele>622.0</ele><time>2026-04-04T09:35:55.824Z</time></trkpt><trkpt lat="41.955675" lon="-8.029325"><ele>622.0</ele><time>2026-04-04T09:35:56.822Z</time></trkpt><trkpt lat="41.9556667" lon="-8.029225"><ele>622.0</ele><time>2026-04-04T09:35:57.822Z</time></trkpt><trkpt lat="41.955665" lon="-8.0291167"><ele>622.0</ele><time>2026-04-04T09:35:58.822Z</time></trkpt><trkpt lat="41.955635" lon="-8.0290033"><ele>622.0</ele><time>2026-04-04T09:35:59.827Z</time></trkpt><trkpt lat="41.9555867" lon="-8.0288917"><ele>622.0</ele><time>2026-04-04T09:36:00.823Z</time></trkpt><trkpt lat="41.9555433" lon="-8.028795"><ele>622.0</ele><time>2026-04-04T09:36:01.823Z</time></trkpt><trkpt lat="41.955495" lon="-8.0287083"><ele>619.8333333333334</ele><time>2026-04-04T09:36:02.823Z</time></trkpt><trkpt lat="41.9554483" lon="-8.0286183"><ele>617.6666666666667</ele><time>2026-04-04T09:36:03.822Z</time></trkpt><trkpt lat="41.9554" lon="-8.02854"><ele>615.5</ele><time>2026-04-04T09:36:04.822Z</time></trkpt><trkpt lat="41.9553483" lon="-8.0284467"><ele>613.3333333333334</ele><time>2026-04-04T09:36:05.824Z</time></trkpt><trkpt lat="41.9552933" lon="-8.0283817"><ele>611.1666666666666</ele><time>2026-04-04T09:36:06.823Z</time></trkpt><trkpt lat="41.95523" lon="-8.0283317"><ele>609.0</ele><time>2026-04-04T09:36:07.822Z</time></trkpt><trkpt lat="41.9551667" lon="-8.02829"><ele>607.5</ele><time>2026-04-04T09:36:08.822Z</time></trkpt><trkpt lat="41.9550867" lon="-8.028245"><ele>606.0</ele><time>2026-04-04T09:36:09.825Z</time></trkpt><trkpt lat="41.9550167" lon="-8.0281917"><ele>604.5</ele><time>2026-04-04T09:36:10.822Z</time></trkpt><trkpt lat="41.9549533" lon="-8.0281317"><ele>603.0</ele><time>2026-04-04T09:36:11.822Z</time></trkpt><trkpt lat="41.9548933" lon="-8.0280667"><ele>601.5</ele><time>2026-04-04T09:36:12.822Z</time></trkpt><trkpt lat="41.954835" lon="-8.02799"><ele>600.0</ele><time>2026-04-04T09:36:13.823Z</time></trkpt><trkpt lat="41.9547783" lon="-8.0279133"><ele>597.8333333333334</ele><time>2026-04-04T09:36:14.822Z</time></trkpt><trkpt lat="41.954725" lon="-8.0278317"><ele>595.6666666666666</ele><time>2026-04-04T09:36:15.822Z</time></trkpt><trkpt lat="41.9546783" lon="-8.02775"><ele>593.5</ele><time>2026-04-04T09:36:16.822Z</time></trkpt><trkpt lat="41.9546367" lon="-8.0276717"><ele>591.3333333333333</ele><time>2026-04-04T09:36:17.822Z</time></trkpt><trkpt lat="41.9546" lon="-8.0276017"><ele>589.1666666666666</ele><time>2026-04-04T09:36:18.823Z</time></trkpt><trkpt lat="41.9545367" lon="-8.0274933"><ele>587.0</ele><time>2026-04-04T09:36:20.823Z</time></trkpt><trkpt lat="41.9544717" lon="-8.0274317"><ele>585.3333333333333</ele><time>2026-04-04T09:36:22.823Z</time></trkpt><trkpt lat="41.9543833" lon="-8.0274017"><ele>583.6666666666666</ele><time>2026-04-04T09:36:24.826Z</time></trkpt><trkpt lat="41.9542983" lon="-8.0273633"><ele>582.0</ele><time>2026-04-04T09:36:26.823Z</time></trkpt><trkpt lat="41.9542233" lon="-8.02733"><ele>580.3333333333334</ele><time>2026-04-04T09:36:28.823Z</time></trkpt><trkpt lat="41.954175" lon="-8.0272433"><ele>578.6666666666667</ele><time>2026-04-04T09:36:30.823Z</time></trkpt><trkpt lat="41.9541683" lon="-8.0271283"><ele>577.0</ele><time>2026-04-04T09:36:32.822Z</time></trkpt><trkpt lat="41.9541967" lon="-8.0270417"><ele>577.0</ele><time>2026-04-04T09:36:33.823Z</time></trkpt><trkpt lat="41.954215" lon="-8.0269567"><ele>577.0</ele><time>2026-04-04T09:36:34.822Z</time></trkpt><trkpt lat="41.9542333" lon="-8.026875"><ele>577.0</ele><time>2026-04-04T09:36:35.824Z</time></trkpt><trkpt lat="41.9542467" lon="-8.0267917"><ele>577.0</ele><time>2026-04-04T09:36:36.825Z</time></trkpt><trkpt lat="41.95425" lon="-8.0266583"><ele>577.0</ele><time>2026-04-04T09:36:38.823Z</time></trkpt><trkpt lat="41.9542483" lon="-8.0265567"><ele>577.0</ele><time>2026-04-04T09:36:41.822Z</time></trkpt><trkpt lat="41.9542567" lon="-8.0266483"><ele>577.0</ele><time>2026-04-04T09:36:48.823Z</time></trkpt><trkpt lat="41.9542533" lon="-8.0267933"><ele>577.0</ele><time>2026-04-04T09:36:50.824Z</time></trkpt><trkpt lat="41.95424" lon="-8.0269433"><ele>577.0</ele><time>2026-04-04T09:36:52.822Z</time></trkpt><trkpt lat="41.9542233" lon="-8.0271333"><ele>577.0</ele><time>2026-04-04T09:36:54.823Z</time></trkpt><trkpt lat="41.9542067" lon="-8.0272167"><ele>577.0</ele><time>2026-04-04T09:36:55.823Z</time></trkpt><trkpt lat="41.954185" lon="-8.0272967"><ele>577.0</ele><time>2026-04-04T09:36:56.823Z</time></trkpt><trkpt lat="41.9541383" lon="-8.0273983"><ele>578.0</ele><time>2026-04-04T09:36:58.825Z</time></trkpt><trkpt lat="41.95405" lon="-8.0274733"><ele>579.0</ele><time>2026-04-04T09:37:00.824Z</time></trkpt><trkpt lat="41.953965" lon="-8.0275617"><ele>580.0</ele><time>2026-04-04T09:37:02.823Z</time></trkpt><trkpt lat="41.9538883" lon="-8.0276617"><ele>581.0</ele><time>2026-04-04T09:37:04.823Z</time></trkpt><trkpt lat="41.95383" lon="-8.0277283"><ele>582.0</ele><time>2026-04-04T09:37:06.824Z</time></trkpt><trkpt lat="41.9537733" lon="-8.0277733"><ele>582.0</ele><time>2026-04-04T09:37:09.823Z</time></trkpt><trkpt lat="41.95374" lon="-8.0278683"><ele>582.0</ele><time>2026-04-04T09:37:13.823Z</time></trkpt><trkpt lat="41.95373" lon="-8.0279667"><ele>582.0</ele><time>2026-04-04T09:37:16.825Z</time></trkpt><trkpt lat="41.953705" lon="-8.0280733"><ele>582.0</ele><time>2026-04-04T09:37:19.825Z</time></trkpt><trkpt lat="41.9536833" lon="-8.0281667"><ele>582.0</ele><time>2026-04-04T09:37:21.824Z</time></trkpt><trkpt lat="41.9536483" lon="-8.028265"><ele>582.0</ele><time>2026-04-04T09:37:23.824Z</time></trkpt><trkpt lat="41.953595" lon="-8.0283617"><ele>582.1666666666666</ele><time>2026-04-04T09:37:25.824Z</time></trkpt><trkpt lat="41.9535283" lon="-8.0284533"><ele>582.3333333333334</ele><time>2026-04-04T09:37:27.824Z</time></trkpt><trkpt lat="41.9534717" lon="-8.02851"><ele>582.5</ele><time>2026-04-04T09:37:29.823Z</time></trkpt><trkpt lat="41.9533833" lon="-8.0285383"><ele>582.6666666666667</ele><time>2026-04-04T09:37:32.824Z</time></trkpt><trkpt lat="41.95332" lon="-8.028575"><ele>582.8333333333334</ele><time>2026-04-04T09:37:34.824Z</time></trkpt><trkpt lat="41.9532567" lon="-8.0286267"><ele>583.0</ele><time>2026-04-04T09:37:36.824Z</time></trkpt><trkpt lat="41.9531967" lon="-8.028665"><ele>583.0</ele><time>2026-04-04T09:37:38.824Z</time></trkpt><trkpt lat="41.9531333" lon="-8.0287033"><ele>583.0</ele><time>2026-04-04T09:37:40.824Z</time></trkpt><trkpt lat="41.9530567" lon="-8.0287667"><ele>583.0</ele><time>2026-04-04T09:37:43.823Z</time></trkpt><trkpt lat="41.953005" lon="-8.028815"><ele>583.0</ele><time>2026-04-04T09:37:45.824Z</time></trkpt><trkpt lat="41.95295" lon="-8.0288583"><ele>583.0</ele><time>2026-04-04T09:37:47.824Z</time></trkpt><trkpt lat="41.9528833" lon="-8.0288967"><ele>583.0</ele><time>2026-04-04T09:37:50.824Z</time></trkpt><trkpt lat="41.9527933" lon="-8.0289367"><ele>583.0</ele><time>2026-04-04T09:37:53.823Z</time></trkpt><trkpt lat="41.9527267" lon="-8.0289633"><ele>583.0</ele><time>2026-04-04T09:37:55.824Z</time></trkpt><trkpt lat="41.9526483" lon="-8.0290117"><ele>583.0</ele><time>2026-04-04T09:37:58.823Z</time></trkpt><trkpt lat="41.9525767" lon="-8.0290533"><ele>583.0</ele><time>2026-04-04T09:38:02.829Z</time></trkpt><trkpt lat="41.9525067" lon="-8.0290767"><ele>583.0</ele><time>2026-04-04T09:38:12.826Z</time></trkpt><trkpt lat="41.9524533" lon="-8.0291283"><ele>583.0</ele><time>2026-04-04T09:38:15.824Z</time></trkpt><trkpt lat="41.9523583" lon="-8.029225"><ele>582.1666666666667</ele><time>2026-04-04T09:38:47.823Z</time></trkpt><trkpt lat="41.9522633" lon="-8.0293783"><ele>581.3333333333334</ele><time>2026-04-04T09:39:05.823Z</time></trkpt><trkpt lat="41.9521983" lon="-8.0293633"><ele>580.5</ele><time>2026-04-04T09:39:28.823Z</time></trkpt><trkpt lat="41.9521233" lon="-8.0293233"><ele>579.6666666666666</ele><time>2026-04-04T09:39:30.824Z</time></trkpt><trkpt lat="41.95206" lon="-8.029345"><ele>578.8333333333333</ele><time>2026-04-04T09:39:32.824Z</time></trkpt><trkpt lat="41.9519867" lon="-8.0294"><ele>578.0</ele><time>2026-04-04T09:39:34.823Z</time></trkpt><trkpt lat="41.9519383" lon="-8.0294617"><ele>578.0</ele><time>2026-04-04T09:39:36.823Z</time></trkpt><trkpt lat="41.951875" lon="-8.02954"><ele>578.0</ele><time>2026-04-04T09:39:38.824Z</time></trkpt><trkpt lat="41.9518017" lon="-8.0296067"><ele>578.0</ele><time>2026-04-04T09:39:40.824Z</time></trkpt><trkpt lat="41.95173" lon="-8.0296433"><ele>578.0</ele><time>2026-04-04T09:39:42.823Z</time></trkpt><trkpt lat="41.9517067" lon="-8.02955"><ele>578.0</ele><time>2026-04-04T09:39:49.823Z</time></trkpt><trkpt lat="41.9517417" lon="-8.029475"><ele>578.0</ele><time>2026-04-04T09:39:51.823Z</time></trkpt><trkpt lat="41.9518" lon="-8.0293817"><ele>578.0</ele><time>2026-04-04T09:39:54.823Z</time></trkpt><trkpt lat="41.9518683" lon="-8.029335"><ele>578.0</ele><time>2026-04-04T09:39:58.823Z</time></trkpt><trkpt lat="41.9518533" lon="-8.02946"><ele>578.0</ele><time>2026-04-04T09:44:32.823Z</time></trkpt><trkpt lat="41.9518317" lon="-8.0295883"><ele>578.0</ele><time>2026-04-04T09:44:34.823Z</time></trkpt><trkpt lat="41.951795" lon="-8.0297017"><ele>578.0</ele><time>2026-04-04T09:44:36.825Z</time></trkpt><trkpt lat="41.9517517" lon="-8.0298233"><ele>578.0</ele><time>2026-04-04T09:44:38.826Z</time></trkpt><trkpt lat="41.9517383" lon="-8.02991"><ele>578.0</ele><time>2026-04-04T09:44:39.822Z</time></trkpt><trkpt lat="41.9517217" lon="-8.030005"><ele>578.0</ele><time>2026-04-04T09:44:40.824Z</time></trkpt><trkpt lat="41.9516967" lon="-8.0301033"><ele>578.0</ele><time>2026-04-04T09:44:41.822Z</time></trkpt><trkpt lat="41.95166" lon="-8.0302067"><ele>578.0</ele><time>2026-04-04T09:44:42.824Z</time></trkpt><trkpt lat="41.9516167" lon="-8.0303133"><ele>578.0</ele><time>2026-04-04T09:44:43.825Z</time></trkpt><trkpt lat="41.9515717" lon="-8.0304183"><ele>577.4</ele><time>2026-04-04T09:44:44.823Z</time></trkpt><trkpt lat="41.951505" lon="-8.0305317"><ele>576.8</ele><time>2026-04-04T09:44:45.824Z</time></trkpt><trkpt lat="41.9514483" lon="-8.0306417"><ele>576.2</ele><time>2026-04-04T09:44:46.824Z</time></trkpt><trkpt lat="41.9513917" lon="-8.0307533"><ele>575.6</ele><time>2026-04-04T09:44:47.824Z</time></trkpt><trkpt lat="41.9513317" lon="-8.0308733"><ele>575.0</ele><time>2026-04-04T09:44:48.824Z</time></trkpt><trkpt lat="41.951265" lon="-8.0309883"><ele>575.0</ele><time>2026-04-04T09:44:49.823Z</time></trkpt><trkpt lat="41.9511933" lon="-8.0311133"><ele>575.0</ele><time>2026-04-04T09:44:50.823Z</time></trkpt><trkpt lat="41.9511267" lon="-8.0312467"><ele>575.0</ele><time>2026-04-04T09:44:51.822Z</time></trkpt><trkpt lat="41.9510617" lon="-8.03137"><ele>575.0</ele><time>2026-04-04T09:44:52.823Z</time></trkpt><trkpt lat="41.950995" lon="-8.0314967"><ele>575.0</ele><time>2026-04-04T09:44:53.824Z</time></trkpt><trkpt lat="41.950935" lon="-8.0316167"><ele>575.0</ele><time>2026-04-04T09:44:54.824Z</time></trkpt><trkpt lat="41.950875" lon="-8.0317333"><ele>575.0</ele><time>2026-04-04T09:44:55.822Z</time></trkpt><trkpt lat="41.95081" lon="-8.03186"><ele>575.0</ele><time>2026-04-04T09:44:56.823Z</time></trkpt><trkpt lat="41.9507467" lon="-8.0319883"><ele>575.0</ele><time>2026-04-04T09:44:57.823Z</time></trkpt><trkpt lat="41.950685" lon="-8.0321183"><ele>574.5</ele><time>2026-04-04T09:44:58.825Z</time></trkpt><trkpt lat="41.950625" lon="-8.0322367"><ele>574.0</ele><time>2026-04-04T09:44:59.824Z</time></trkpt><trkpt lat="41.95055" lon="-8.032355"><ele>573.5</ele><time>2026-04-04T09:45:00.824Z</time></trkpt><trkpt lat="41.9504617" lon="-8.0324717"><ele>573.0</ele><time>2026-04-04T09:45:01.822Z</time></trkpt><trkpt lat="41.95037" lon="-8.0325833"><ele>573.0</ele><time>2026-04-04T09:45:02.823Z</time></trkpt><trkpt lat="41.9502733" lon="-8.032685"><ele>573.0</ele><time>2026-04-04T09:45:03.822Z</time></trkpt><trkpt lat="41.9501383" lon="-8.0327533"><ele>573.0</ele><time>2026-04-04T09:45:04.824Z</time></trkpt><trkpt lat="41.950025" lon="-8.0328217"><ele>573.0</ele><time>2026-04-04T09:45:05.822Z</time></trkpt><trkpt lat="41.9498933" lon="-8.032875"><ele>568.75</ele><time>2026-04-04T09:45:06.822Z</time></trkpt><trkpt lat="41.9497617" lon="-8.0328983"><ele>564.5</ele><time>2026-04-04T09:45:07.823Z</time></trkpt><trkpt lat="41.9496367" lon="-8.0329017"><ele>560.25</ele><time>2026-04-04T09:45:08.822Z</time></trkpt><trkpt lat="41.9495133" lon="-8.0328967"><ele>556.0</ele><time>2026-04-04T09:45:09.822Z</time></trkpt><trkpt lat="41.9493967" lon="-8.03289"><ele>556.0</ele><time>2026-04-04T09:45:10.823Z</time></trkpt><trkpt lat="41.9492717" lon="-8.0328717"><ele>556.0</ele><time>2026-04-04T09:45:11.823Z</time></trkpt><trkpt lat="41.9491433" lon="-8.0328467"><ele>556.0</ele><time>2026-04-04T09:45:12.822Z</time></trkpt><trkpt lat="41.94903" lon="-8.0328317"><ele>556.0</ele><time>2026-04-04T09:45:13.824Z</time></trkpt><trkpt lat="41.9489033" lon="-8.032815"><ele>556.5</ele><time>2026-04-04T09:45:14.824Z</time></trkpt><trkpt lat="41.9487883" lon="-8.0328"><ele>557.0</ele><time>2026-04-04T09:45:15.823Z</time></trkpt><trkpt lat="41.9486567" lon="-8.0327583"><ele>557.5</ele><time>2026-04-04T09:45:16.823Z</time></trkpt><trkpt lat="41.9485333" lon="-8.0327483"><ele>558.0</ele><time>2026-04-04T09:45:17.824Z</time></trkpt><trkpt lat="41.9484133" lon="-8.0327433"><ele>558.75</ele><time>2026-04-04T09:45:18.823Z</time></trkpt><trkpt lat="41.948295" lon="-8.0327667"><ele>559.5</ele><time>2026-04-04T09:45:19.823Z</time></trkpt><trkpt lat="41.9481783" lon="-8.032805"><ele>560.25</ele><time>2026-04-04T09:45:20.823Z</time></trkpt><trkpt lat="41.9480667" lon="-8.0328667"><ele>561.0</ele><time>2026-04-04T09:45:21.823Z</time></trkpt><trkpt lat="41.9479567" lon="-8.03294"><ele>561.0</ele><time>2026-04-04T09:45:22.823Z</time></trkpt><trkpt lat="41.94785" lon="-8.0330367"><ele>561.0</ele><time>2026-04-04T09:45:23.824Z</time></trkpt><trkpt lat="41.9477483" lon="-8.0331383"><ele>561.0</ele><time>2026-04-04T09:45:24.823Z</time></trkpt><trkpt lat="41.9476483" lon="-8.033235"><ele>561.0</ele><time>2026-04-04T09:45:25.823Z</time></trkpt><trkpt lat="41.9475417" lon="-8.0333333"><ele>559.5</ele><time>2026-04-04T09:45:26.825Z</time></trkpt><trkpt lat="41.9474433" lon="-8.03343"><ele>558.0</ele><time>2026-04-04T09:45:27.822Z</time></trkpt><trkpt lat="41.947345" lon="-8.0335283"><ele>556.5</ele><time>2026-04-04T09:45:28.822Z</time></trkpt><trkpt lat="41.9472433" lon="-8.0336283"><ele>555.0</ele><time>2026-04-04T09:45:29.823Z</time></trkpt><trkpt lat="41.9471367" lon="-8.0337283"><ele>555.0</ele><time>2026-04-04T09:45:30.823Z</time></trkpt><trkpt lat="41.9470283" lon="-8.03384"><ele>555.0</ele><time>2026-04-04T09:45:31.823Z</time></trkpt><trkpt lat="41.94692" lon="-8.0339533"><ele>555.0</ele><time>2026-04-04T09:45:32.825Z</time></trkpt><trkpt lat="41.9468033" lon="-8.0340617"><ele>555.0</ele><time>2026-04-04T09:45:33.824Z</time></trkpt><trkpt lat="41.9466883" lon="-8.03417"><ele>553.25</ele><time>2026-04-04T09:45:34.823Z</time></trkpt><trkpt lat="41.9465767" lon="-8.0342783"><ele>551.5</ele><time>2026-04-04T09:45:35.823Z</time></trkpt><trkpt lat="41.9464633" lon="-8.0343867"><ele>549.75</ele><time>2026-04-04T09:45:36.824Z</time></trkpt><trkpt lat="41.946355" lon="-8.034495"><ele>548.0</ele><time>2026-04-04T09:45:37.823Z</time></trkpt><trkpt lat="41.94625" lon="-8.0346"><ele>548.0</ele><time>2026-04-04T09:45:38.823Z</time></trkpt><trkpt lat="41.9461467" lon="-8.0346933"><ele>548.0</ele><time>2026-04-04T09:45:39.824Z</time></trkpt><trkpt lat="41.946055" lon="-8.0347733"><ele>548.0</ele><time>2026-04-04T09:45:40.824Z</time></trkpt><trkpt lat="41.94597" lon="-8.034845"><ele>548.0</ele><time>2026-04-04T09:45:41.825Z</time></trkpt><trkpt lat="41.9458867" lon="-8.0349083"><ele>548.0</ele><time>2026-04-04T09:45:42.823Z</time></trkpt><trkpt lat="41.9457933" lon="-8.0349667"><ele>548.5</ele><time>2026-04-04T09:45:43.824Z</time></trkpt><trkpt lat="41.9457067" lon="-8.03502"><ele>549.0</ele><time>2026-04-04T09:45:44.824Z</time></trkpt><trkpt lat="41.9456267" lon="-8.03507"><ele>549.5</ele><time>2026-04-04T09:45:45.823Z</time></trkpt><trkpt lat="41.9455483" lon="-8.0351167"><ele>550.0</ele><time>2026-04-04T09:45:46.824Z</time></trkpt><trkpt lat="41.9454783" lon="-8.035165"><ele>550.5</ele><time>2026-04-04T09:45:47.823Z</time></trkpt><trkpt lat="41.94541" lon="-8.0352133"><ele>551.0</ele><time>2026-04-04T09:45:48.823Z</time></trkpt><trkpt lat="41.9453383" lon="-8.0352517"><ele>551.0</ele><time>2026-04-04T09:45:49.823Z</time></trkpt><trkpt lat="41.945265" lon="-8.0353033"><ele>551.0</ele><time>2026-04-04T09:45:50.824Z</time></trkpt><trkpt lat="41.94519" lon="-8.035355"><ele>551.0</ele><time>2026-04-04T09:45:51.824Z</time></trkpt><trkpt lat="41.94512" lon="-8.0354017"><ele>551.0</ele><time>2026-04-04T09:45:52.823Z</time></trkpt><trkpt lat="41.945045" lon="-8.035435"><ele>551.0</ele><time>2026-04-04T09:45:53.823Z</time></trkpt><trkpt lat="41.9449683" lon="-8.035445"><ele>551.0</ele><time>2026-04-04T09:45:54.824Z</time></trkpt><trkpt lat="41.9449017" lon="-8.0354283"><ele>549.8333333333333</ele><time>2026-04-04T09:45:55.823Z</time></trkpt><trkpt lat="41.94484" lon="-8.0353917"><ele>548.6666666666666</ele><time>2026-04-04T09:45:56.823Z</time></trkpt><trkpt lat="41.9447733" lon="-8.035335"><ele>547.5</ele><time>2026-04-04T09:45:57.823Z</time></trkpt><trkpt lat="41.9446967" lon="-8.0352567"><ele>546.3333333333334</ele><time>2026-04-04T09:45:58.824Z</time></trkpt><trkpt lat="41.944615" lon="-8.0351833"><ele>545.1666666666667</ele><time>2026-04-04T09:45:59.824Z</time></trkpt><trkpt lat="41.94453" lon="-8.0351217"><ele>544.0</ele><time>2026-04-04T09:46:00.823Z</time></trkpt><trkpt lat="41.9444467" lon="-8.0350667"><ele>544.0</ele><time>2026-04-04T09:46:01.823Z</time></trkpt><trkpt lat="41.9443633" lon="-8.0350133"><ele>544.0</ele><time>2026-04-04T09:46:02.823Z</time></trkpt></trkseg><trkseg><trkpt lat="41.9421" lon="-8.0354867"><ele>554.0</ele><time>2026-04-04T09:49:02.823Z</time></trkpt><trkpt lat="41.942055" lon="-8.0355883"><ele>554.0</ele><time>2026-04-04T09:49:20.824Z</time></trkpt><trkpt lat="41.9419917" lon="-8.03562"><ele>554.0</ele><time>2026-04-04T09:49:21.823Z</time></trkpt><trkpt lat="41.94192" lon="-8.0356867"><ele>554.0</ele><time>2026-04-04T09:49:22.823Z</time></trkpt><trkpt lat="41.9418533" lon="-8.035745"><ele>554.0</ele><time>2026-04-04T09:49:23.823Z</time></trkpt><trkpt lat="41.9418017" lon="-8.035795"><ele>554.0</ele><time>2026-04-04T09:49:24.823Z</time></trkpt><trkpt lat="41.94172" lon="-8.0358733"><ele>553.6</ele><time>2026-04-04T09:49:26.824Z</time></trkpt><trkpt lat="41.9415733" lon="-8.0358683"><ele>553.2</ele><time>2026-04-04T09:49:28.822Z</time></trkpt><trkpt lat="41.94149" lon="-8.0358433"><ele>552.8000000000001</ele><time>2026-04-04T09:49:29.823Z</time></trkpt><trkpt lat="41.9414067" lon="-8.03582"><ele>552.4</ele><time>2026-04-04T09:49:30.823Z</time></trkpt><trkpt lat="41.941325" lon="-8.0357933"><ele>552.0</ele><time>2026-04-04T09:49:31.823Z</time></trkpt><trkpt lat="41.9412433" lon="-8.035755"><ele>552.0</ele><time>2026-04-04T09:49:32.823Z</time></trkpt><trkpt lat="41.9411567" lon="-8.0357217"><ele>552.0</ele><time>2026-04-04T09:49:33.824Z</time></trkpt><trkpt lat="41.94107" lon="-8.035675"><ele>552.0</ele><time>2026-04-04T09:49:34.825Z</time></trkpt><trkpt lat="41.9409967" lon="-8.0356233"><ele>552.0</ele><time>2026-04-04T09:49:35.823Z</time></trkpt><trkpt lat="41.9409233" lon="-8.0355633"><ele>552.0</ele><time>2026-04-04T09:49:36.823Z</time></trkpt><trkpt lat="41.9408467" lon="-8.0355083"><ele>552.0</ele><time>2026-04-04T09:49:37.823Z</time></trkpt><trkpt lat="41.9407733" lon="-8.035465"><ele>551.8333333333334</ele><time>2026-04-04T09:49:38.823Z</time></trkpt><trkpt lat="41.940695" lon="-8.035425"><ele>551.6666666666666</ele><time>2026-04-04T09:49:39.823Z</time></trkpt><trkpt lat="41.940615" lon="-8.0354"><ele>551.5</ele><time>2026-04-04T09:49:40.823Z</time></trkpt><trkpt lat="41.9405333" lon="-8.035385"><ele>551.3333333333333</ele><time>2026-04-04T09:49:41.824Z</time></trkpt><trkpt lat="41.9404383" lon="-8.0353833"><ele>551.1666666666666</ele><time>2026-04-04T09:49:42.823Z</time></trkpt><trkpt lat="41.9403467" lon="-8.03538"><ele>551.0</ele><time>2026-04-04T09:49:43.823Z</time></trkpt><trkpt lat="41.94025" lon="-8.035385"><ele>551.0</ele><time>2026-04-04T09:49:44.824Z</time></trkpt><trkpt lat="41.9401633" lon="-8.035395"><ele>551.0</ele><time>2026-04-04T09:49:45.823Z</time></trkpt><trkpt lat="41.94008" lon="-8.0353967"><ele>551.0</ele><time>2026-04-04T09:49:46.823Z</time></trkpt><trkpt lat="41.9399933" lon="-8.0353817"><ele>551.0</ele><time>2026-04-04T09:49:47.823Z</time></trkpt><trkpt lat="41.939905" lon="-8.035355"><ele>551.0</ele><time>2026-04-04T09:49:48.823Z</time></trkpt><trkpt lat="41.9398167" lon="-8.03531"><ele>551.0</ele><time>2026-04-04T09:49:49.823Z</time></trkpt><trkpt lat="41.9397267" lon="-8.0352517"><ele>551.2</ele><time>2026-04-04T09:49:50.824Z</time></trkpt><trkpt lat="41.9396317" lon="-8.0351867"><ele>551.4000000000001</ele><time>2026-04-04T09:49:51.823Z</time></trkpt><trkpt lat="41.9395333" lon="-8.0351167"><ele>551.6</ele><time>2026-04-04T09:49:52.824Z</time></trkpt><trkpt lat="41.9394333" lon="-8.0350433"><ele>551.8000000000001</ele><time>2026-04-04T09:49:53.823Z</time></trkpt><trkpt lat="41.93934" lon="-8.03497"><ele>552.0</ele><time>2026-04-04T09:49:54.824Z</time></trkpt><trkpt lat="41.9392467" lon="-8.034905"><ele>551.6</ele><time>2026-04-04T09:49:55.823Z</time></trkpt><trkpt lat="41.93916" lon="-8.0348433"><ele>551.2</ele><time>2026-04-04T09:49:56.824Z</time></trkpt><trkpt lat="41.9390683" lon="-8.03478"><ele>550.8</ele><time>2026-04-04T09:49:57.823Z</time></trkpt><trkpt lat="41.9389883" lon="-8.0347133"><ele>550.4</ele><time>2026-04-04T09:49:58.823Z</time></trkpt><trkpt lat="41.9389083" lon="-8.0346417"><ele>550.0</ele><time>2026-04-04T09:49:59.826Z</time></trkpt><trkpt lat="41.9388367" lon="-8.0345683"><ele>550.0</ele><time>2026-04-04T09:50:00.824Z</time></trkpt><trkpt lat="41.9387683" lon="-8.03449"><ele>550.0</ele><time>2026-04-04T09:50:01.827Z</time></trkpt><trkpt lat="41.9387017" lon="-8.0344083"><ele>550.0</ele><time>2026-04-04T09:50:02.824Z</time></trkpt><trkpt lat="41.9386183" lon="-8.0343"><ele>550.0</ele><time>2026-04-04T09:50:03.825Z</time></trkpt><trkpt lat="41.9385683" lon="-8.03419"><ele>550.0</ele><time>2026-04-04T09:50:04.824Z</time></trkpt><trkpt lat="41.93853" lon="-8.03407"><ele>551.5</ele><time>2026-04-04T09:50:05.823Z</time></trkpt><trkpt lat="41.9385133" lon="-8.0339483"><ele>553.0</ele><time>2026-04-04T09:50:06.823Z</time></trkpt><trkpt lat="41.938505" lon="-8.03384"><ele>554.5</ele><time>2026-04-04T09:50:07.824Z</time></trkpt><trkpt lat="41.9385017" lon="-8.03375"><ele>556.0</ele><time>2026-04-04T09:50:08.823Z</time></trkpt><trkpt lat="41.9385033" lon="-8.0336467"><ele>557.5</ele><time>2026-04-04T09:50:10.823Z</time></trkpt><trkpt lat="41.93844" lon="-8.033645"><ele>559.0</ele><time>2026-04-04T09:50:15.823Z</time></trkpt><trkpt lat="41.93836" lon="-8.0336883"><ele>560.5</ele><time>2026-04-04T09:50:18.824Z</time></trkpt><trkpt lat="41.9382833" lon="-8.0337267"><ele>562.0</ele><time>2026-04-04T09:50:20.826Z</time></trkpt><trkpt lat="41.9381783" lon="-8.0337533"><ele>563.5</ele><time>2026-04-04T09:50:22.823Z</time></trkpt><trkpt lat="41.9381033" lon="-8.0337617"><ele>565.0</ele><time>2026-04-04T09:50:23.823Z</time></trkpt><trkpt lat="41.93803" lon="-8.0337583"><ele>566.5</ele><time>2026-04-04T09:50:24.825Z</time></trkpt><trkpt lat="41.9379517" lon="-8.0337467"><ele>568.0</ele><time>2026-04-04T09:50:25.823Z</time></trkpt><trkpt lat="41.93787" lon="-8.0337333"><ele>568.0</ele><time>2026-04-04T09:50:26.823Z</time></trkpt><trkpt lat="41.937785" lon="-8.0337133"><ele>568.0</ele><time>2026-04-04T09:50:27.823Z</time></trkpt><trkpt lat="41.9376933" lon="-8.0336917"><ele>568.0</ele><time>2026-04-04T09:50:28.823Z</time></trkpt><trkpt lat="41.9376017" lon="-8.0336767"><ele>568.0</ele><time>2026-04-04T09:50:29.825Z</time></trkpt><trkpt lat="41.9375183" lon="-8.0336683"><ele>568.0</ele><time>2026-04-04T09:50:30.823Z</time></trkpt><trkpt lat="41.9374217" lon="-8.0336617"><ele>570.0</ele><time>2026-04-04T09:50:31.822Z</time></trkpt><trkpt lat="41.93732" lon="-8.0336433"><ele>572.0</ele><time>2026-04-04T09:50:32.823Z</time></trkpt><trkpt lat="41.9372317" lon="-8.0336217"><ele>574.0</ele><time>2026-04-04T09:50:33.821Z</time></trkpt><trkpt lat="41.93714" lon="-8.0335867"><ele>576.0</ele><time>2026-04-04T09:50:34.822Z</time></trkpt><trkpt lat="41.937055" lon="-8.0335333"><ele>578.0</ele><time>2026-04-04T09:50:35.823Z</time></trkpt><trkpt lat="41.9369767" lon="-8.0334617"><ele>578.0</ele><time>2026-04-04T09:50:36.822Z</time></trkpt><trkpt lat="41.9368983" lon="-8.0333867"><ele>578.0</ele><time>2026-04-04T09:50:37.822Z</time></trkpt><trkpt lat="41.9368267" lon="-8.0333033"><ele>578.0</ele><time>2026-04-04T09:50:38.824Z</time></trkpt><trkpt lat="41.936755" lon="-8.0332217"><ele>578.0</ele><time>2026-04-04T09:50:39.822Z</time></trkpt><trkpt lat="41.9366833" lon="-8.03314"><ele>578.0</ele><time>2026-04-04T09:50:40.822Z</time></trkpt><trkpt lat="41.9366033" lon="-8.0330783"><ele>583.0</ele><time>2026-04-04T09:50:41.823Z</time></trkpt><trkpt lat="41.9365367" lon="-8.03305"><ele>588.0</ele><time>2026-04-04T09:50:42.824Z</time></trkpt><trkpt lat="41.936455" lon="-8.033025"><ele>593.0</ele><time>2026-04-04T09:50:43.823Z</time></trkpt><trkpt lat="41.936355" lon="-8.0330317"><ele>598.0</ele><time>2026-04-04T09:50:44.823Z</time></trkpt><trkpt lat="41.9362433" lon="-8.0330133"><ele>603.0</ele><time>2026-04-04T09:50:45.823Z</time></trkpt><trkpt lat="41.9361367" lon="-8.0329733"><ele>603.0</ele><time>2026-04-04T09:50:46.822Z</time></trkpt><trkpt lat="41.9360383" lon="-8.03291"><ele>603.0</ele><time>2026-04-04T09:50:47.823Z</time></trkpt><trkpt lat="41.9359567" lon="-8.03283"><ele>603.0</ele><time>2026-04-04T09:50:48.824Z</time></trkpt><trkpt lat="41.935885" lon="-8.0327367"><ele>603.0</ele><time>2026-04-04T09:50:49.824Z</time></trkpt><trkpt lat="41.9358333" lon="-8.03263"><ele>603.0</ele><time>2026-04-04T09:50:50.823Z</time></trkpt><trkpt lat="41.9358083" lon="-8.032525"><ele>604.7142857142858</ele><time>2026-04-04T09:50:51.823Z</time></trkpt><trkpt lat="41.9358" lon="-8.032415"><ele>606.4285714285713</ele><time>2026-04-04T09:50:52.823Z</time></trkpt><trkpt lat="41.9358" lon="-8.0323267"><ele>608.1428571428571</ele><time>2026-04-04T09:50:53.823Z</time></trkpt><trkpt lat="41.9358167" lon="-8.0322333"><ele>609.8571428571429</ele><time>2026-04-04T09:50:54.823Z</time></trkpt><trkpt lat="41.93583" lon="-8.03215"><ele>611.5714285714287</ele><time>2026-04-04T09:50:55.822Z</time></trkpt><trkpt lat="41.935875" lon="-8.0320867"><ele>613.2857142857142</ele><time>2026-04-04T09:50:56.826Z</time></trkpt><trkpt lat="41.9359383" lon="-8.03205"><ele>615.0</ele><time>2026-04-04T09:50:57.823Z</time></trkpt><trkpt lat="41.936035" lon="-8.03205"><ele>616.2</ele><time>2026-04-04T09:50:58.823Z</time></trkpt><trkpt lat="41.9361433" lon="-8.0320433"><ele>617.4</ele><time>2026-04-04T09:50:59.823Z</time></trkpt><trkpt lat="41.93627" lon="-8.03205"><ele>618.6</ele><time>2026-04-04T09:51:00.823Z</time></trkpt><trkpt lat="41.936365" lon="-8.0320167"><ele>619.8</ele><time>2026-04-04T09:51:01.823Z</time></trkpt><trkpt lat="41.9364733" lon="-8.031995"><ele>621.0</ele><time>2026-04-04T09:51:02.823Z</time></trkpt><trkpt lat="41.9365567" lon="-8.0319533"><ele>621.0</ele><time>2026-04-04T09:51:03.823Z</time></trkpt><trkpt lat="41.9366483" lon="-8.03194"><ele>621.0</ele><time>2026-04-04T09:51:04.822Z</time></trkpt><trkpt lat="41.93673" lon="-8.0319267"><ele>621.0</ele><time>2026-04-04T09:51:05.822Z</time></trkpt><trkpt lat="41.9368017" lon="-8.0319067"><ele>621.0</ele><time>2026-04-04T09:51:06.823Z</time></trkpt><trkpt lat="41.9368717" lon="-8.0318917"><ele>621.0</ele><time>2026-04-04T09:51:07.823Z</time></trkpt><trkpt lat="41.93696" lon="-8.031865"><ele>621.0</ele><time>2026-04-04T09:51:09.823Z</time></trkpt><trkpt lat="41.93703" lon="-8.03184"><ele>620.3333333333334</ele><time>2026-04-04T09:51:11.823Z</time></trkpt><trkpt lat="41.9370933" lon="-8.0318583"><ele>619.6666666666666</ele><time>2026-04-04T09:51:13.823Z</time></trkpt><trkpt lat="41.9370467" lon="-8.0319717"><ele>619.0</ele><time>2026-04-04T09:51:17.824Z</time></trkpt><trkpt lat="41.9369667" lon="-8.032005"><ele>618.3333333333333</ele><time>2026-04-04T09:51:19.823Z</time></trkpt><trkpt lat="41.93698" lon="-8.031895"><ele>617.6666666666666</ele><time>2026-04-04T09:51:24.823Z</time></trkpt><trkpt lat="41.9370783" lon="-8.031805"><ele>617.0</ele><time>2026-04-04T09:51:26.823Z</time></trkpt><trkpt lat="41.9371383" lon="-8.0317283"><ele>617.0</ele><time>2026-04-04T09:51:27.822Z</time></trkpt><trkpt lat="41.9372017" lon="-8.0316467"><ele>617.0</ele><time>2026-04-04T09:51:28.824Z</time></trkpt><trkpt lat="41.9372683" lon="-8.03157"><ele>617.0</ele><time>2026-04-04T09:51:29.823Z</time></trkpt><trkpt lat="41.9373267" lon="-8.0314867"><ele>617.0</ele><time>2026-04-04T09:51:30.823Z</time></trkpt><trkpt lat="41.9373817" lon="-8.0313833"><ele>617.0</ele><time>2026-04-04T09:51:31.823Z</time></trkpt><trkpt lat="41.9374233" lon="-8.031265"><ele>619.4</ele><time>2026-04-04T09:51:32.823Z</time></trkpt><trkpt lat="41.9374683" lon="-8.0311417"><ele>621.8000000000001</ele><time>2026-04-04T09:51:33.822Z</time></trkpt><trkpt lat="41.93751" lon="-8.031015"><ele>624.2</ele><time>2026-04-04T09:51:34.822Z</time></trkpt><trkpt lat="41.937525" lon="-8.0308983"><ele>626.6</ele><time>2026-04-04T09:51:35.823Z</time></trkpt><trkpt lat="41.9375283" lon="-8.03079"><ele>629.0</ele><time>2026-04-04T09:51:36.823Z</time></trkpt><trkpt lat="41.9375167" lon="-8.0306817"><ele>631.6666666666666</ele><time>2026-04-04T09:51:37.823Z</time></trkpt><trkpt lat="41.9374983" lon="-8.0305717"><ele>634.3333333333333</ele><time>2026-04-04T09:51:38.823Z</time></trkpt><trkpt lat="41.937475" lon="-8.0304617"><ele>637.0</ele><time>2026-04-04T09:51:39.822Z</time></trkpt><trkpt lat="41.93744" lon="-8.0303683"><ele>639.6666666666666</ele><time>2026-04-04T09:51:40.822Z</time></trkpt><trkpt lat="41.9373583" lon="-8.0302817"><ele>642.3333333333334</ele><time>2026-04-04T09:51:41.823Z</time></trkpt><trkpt lat="41.937285" lon="-8.0302317"><ele>645.0</ele><time>2026-04-04T09:51:42.825Z</time></trkpt><trkpt lat="41.9371917" lon="-8.030195"><ele>645.0</ele><time>2026-04-04T09:51:43.826Z</time></trkpt><trkpt lat="41.937055" lon="-8.0301967"><ele>645.0</ele><time>2026-04-04T09:51:44.823Z</time></trkpt><trkpt lat="41.936925" lon="-8.0301917"><ele>645.0</ele><time>2026-04-04T09:51:45.823Z</time></trkpt><trkpt lat="41.936825" lon="-8.0301767"><ele>645.0</ele><time>2026-04-04T09:51:46.823Z</time></trkpt><trkpt lat="41.9367433" lon="-8.0301517"><ele>645.6</ele><time>2026-04-04T09:51:47.822Z</time></trkpt><trkpt lat="41.9366567" lon="-8.0301183"><ele>646.2</ele><time>2026-04-04T09:51:48.822Z</time></trkpt><trkpt lat="41.936565" lon="-8.0300817"><ele>646.8</ele><time>2026-04-04T09:51:49.823Z</time></trkpt><trkpt lat="41.93648" lon="-8.03004"><ele>647.4</ele><time>2026-04-04T09:51:50.824Z</time></trkpt><trkpt lat="41.9364083" lon="-8.02999"><ele>648.0</ele><time>2026-04-04T09:51:51.823Z</time></trkpt><trkpt lat="41.9363367" lon="-8.0298767"><ele>649.8333333333334</ele><time>2026-04-04T09:51:53.823Z</time></trkpt><trkpt lat="41.93631" lon="-8.0298"><ele>651.6666666666666</ele><time>2026-04-04T09:51:54.823Z</time></trkpt><trkpt lat="41.9362917" lon="-8.0297117"><ele>653.5</ele><time>2026-04-04T09:51:55.824Z</time></trkpt><trkpt lat="41.9362967" lon="-8.0295983"><ele>655.3333333333333</ele><time>2026-04-04T09:51:56.823Z</time></trkpt><trkpt lat="41.9363183" lon="-8.0294717"><ele>657.1666666666666</ele><time>2026-04-04T09:51:57.822Z</time></trkpt><trkpt lat="41.9363433" lon="-8.0293417"><ele>659.0</ele><time>2026-04-04T09:51:58.822Z</time></trkpt><trkpt lat="41.9363667" lon="-8.029225"><ele>660.3333333333333</ele><time>2026-04-04T09:51:59.823Z</time></trkpt><trkpt lat="41.9364067" lon="-8.0291133"><ele>661.6666666666666</ele><time>2026-04-04T09:52:00.824Z</time></trkpt><trkpt lat="41.9364283" lon="-8.02901"><ele>663.0</ele><time>2026-04-04T09:52:01.823Z</time></trkpt><trkpt lat="41.936445" lon="-8.0289183"><ele>664.3333333333334</ele><time>2026-04-04T09:52:02.825Z</time></trkpt><trkpt lat="41.9364983" lon="-8.0287933"><ele>665.6666666666667</ele><time>2026-04-04T09:52:04.826Z</time></trkpt><trkpt lat="41.9365383" lon="-8.0287233"><ele>667.0</ele><time>2026-04-04T09:52:07.826Z</time></trkpt><trkpt lat="41.9365983" lon="-8.0287633"><ele>667.0</ele><time>2026-04-04T09:52:09.824Z</time></trkpt><trkpt lat="41.9366667" lon="-8.0287683"><ele>667.0</ele><time>2026-04-04T09:52:11.823Z</time></trkpt><trkpt lat="41.9367467" lon="-8.0287667"><ele>667.0</ele><time>2026-04-04T09:52:13.826Z</time></trkpt><trkpt lat="41.9368033" lon="-8.0287117"><ele>667.0</ele><time>2026-04-04T09:52:15.823Z</time></trkpt><trkpt lat="41.936825" lon="-8.02857"><ele>667.0</ele><time>2026-04-04T09:52:17.823Z</time></trkpt><trkpt lat="41.936775" lon="-8.0284183"><ele>667.0</ele><time>2026-04-04T09:52:19.824Z</time></trkpt><trkpt lat="41.9367217" lon="-8.0283"><ele>669.8</ele><time>2026-04-04T09:52:21.824Z</time></trkpt><trkpt lat="41.9366883" lon="-8.0282117"><ele>672.6</ele><time>2026-04-04T09:52:23.825Z</time></trkpt><trkpt lat="41.936645" lon="-8.0281067"><ele>675.4</ele><time>2026-04-04T09:52:25.827Z</time></trkpt><trkpt lat="41.9365883" lon="-8.0279817"><ele>678.1999999999999</ele><time>2026-04-04T09:52:27.824Z</time></trkpt><trkpt lat="41.936535" lon="-8.02784"><ele>681.0</ele><time>2026-04-04T09:52:29.825Z</time></trkpt><trkpt lat="41.93648" lon="-8.0276833"><ele>681.0</ele><time>2026-04-04T09:52:31.824Z</time></trkpt><trkpt lat="41.9364617" lon="-8.0275933"><ele>681.0</ele><time>2026-04-04T09:52:32.826Z</time></trkpt><trkpt lat="41.9364467" lon="-8.0274967"><ele>681.0</ele><time>2026-04-04T09:52:33.824Z</time></trkpt><trkpt lat="41.9364383" lon="-8.02739"><ele>681.0</ele><time>2026-04-04T09:52:34.823Z</time></trkpt><trkpt lat="41.9364317" lon="-8.02728"><ele>681.0</ele><time>2026-04-04T09:52:35.824Z</time></trkpt><trkpt lat="41.9364167" lon="-8.0271717"><ele>681.0</ele><time>2026-04-04T09:52:36.825Z</time></trkpt><trkpt lat="41.936395" lon="-8.0270617"><ele>682.5999999999999</ele><time>2026-04-04T09:52:37.824Z</time></trkpt><trkpt lat="41.9363633" lon="-8.0269433"><ele>684.2</ele><time>2026-04-04T09:52:38.824Z</time></trkpt><trkpt lat="41.9363317" lon="-8.02682"><ele>685.8</ele><time>2026-04-04T09:52:39.824Z</time></trkpt><trkpt lat="41.9363017" lon="-8.0266817"><ele>687.4000000000001</ele><time>2026-04-04T09:52:40.824Z</time></trkpt><trkpt lat="41.9362733" lon="-8.0265367"><ele>689.0</ele><time>2026-04-04T09:52:41.824Z</time></trkpt><trkpt lat="41.936255" lon="-8.0263933"><ele>690.2</ele><time>2026-04-04T09:52:42.824Z</time></trkpt><trkpt lat="41.93623" lon="-8.0262467"><ele>691.4000000000001</ele><time>2026-04-04T09:52:43.825Z</time></trkpt><trkpt lat="41.93621" lon="-8.026105"><ele>692.6</ele><time>2026-04-04T09:52:44.826Z</time></trkpt><trkpt lat="41.9361967" lon="-8.025975"><ele>693.8</ele><time>2026-04-04T09:52:45.825Z</time></trkpt><trkpt lat="41.93619" lon="-8.0258483"><ele>695.0</ele><time>2026-04-04T09:52:46.825Z</time></trkpt><trkpt lat="41.9361967" lon="-8.025735"><ele>696.3333333333333</ele><time>2026-04-04T09:52:47.824Z</time></trkpt><trkpt lat="41.9362117" lon="-8.02562"><ele>697.6666666666666</ele><time>2026-04-04T09:52:48.824Z</time></trkpt><trkpt lat="41.9362333" lon="-8.0255133"><ele>699.0</ele><time>2026-04-04T09:52:49.824Z</time></trkpt><trkpt lat="41.9362583" lon="-8.0254067"><ele>700.3333333333334</ele><time>2026-04-04T09:52:50.825Z</time></trkpt><trkpt lat="41.93629" lon="-8.0252933"><ele>701.6666666666667</ele><time>2026-04-04T09:52:51.824Z</time></trkpt><trkpt lat="41.9363317" lon="-8.0251783"><ele>703.0</ele><time>2026-04-04T09:52:52.825Z</time></trkpt><trkpt lat="41.9363933" lon="-8.0250717"><ele>703.2</ele><time>2026-04-04T09:52:53.826Z</time></trkpt><trkpt lat="41.936465" lon="-8.0249717"><ele>703.4</ele><time>2026-04-04T09:52:54.825Z</time></trkpt><trkpt lat="41.93654" lon="-8.0248783"><ele>703.6</ele><time>2026-04-04T09:52:55.825Z</time></trkpt><trkpt lat="41.936625" lon="-8.0247967"><ele>703.8000000000001</ele><time>2026-04-04T09:52:56.825Z</time></trkpt><trkpt lat="41.9367133" lon="-8.0247267"><ele>704.0</ele><time>2026-04-04T09:52:57.825Z</time></trkpt><trkpt lat="41.9368067" lon="-8.0246683"><ele>705.8000000000001</ele><time>2026-04-04T09:52:58.825Z</time></trkpt><trkpt lat="41.9369017" lon="-8.024615"><ele>707.6</ele><time>2026-04-04T09:52:59.825Z</time></trkpt><trkpt lat="41.937" lon="-8.0245667"><ele>709.4</ele><time>2026-04-04T09:53:00.824Z</time></trkpt><trkpt lat="41.9370983" lon="-8.0245217"><ele>711.2</ele><time>2026-04-04T09:53:01.826Z</time></trkpt><trkpt lat="41.9371983" lon="-8.0244783"><ele>713.0</ele><time>2026-04-04T09:53:02.826Z</time></trkpt><trkpt lat="41.9372983" lon="-8.0244317"><ele>713.0</ele><time>2026-04-04T09:53:03.825Z</time></trkpt><trkpt lat="41.9374033" lon="-8.024385"><ele>713.0</ele><time>2026-04-04T09:53:04.824Z</time></trkpt><trkpt lat="41.9375033" lon="-8.02433"><ele>713.0</ele><time>2026-04-04T09:53:05.823Z</time></trkpt><trkpt lat="41.9375983" lon="-8.02426"><ele>713.0</ele><time>2026-04-04T09:53:06.825Z</time></trkpt><trkpt lat="41.9376717" lon="-8.0241683"><ele>713.0</ele><time>2026-04-04T09:53:07.823Z</time></trkpt><trkpt lat="41.937735" lon="-8.024075"><ele>712.8</ele><time>2026-04-04T09:53:08.825Z</time></trkpt><trkpt lat="41.9377683" lon="-8.02396"><ele>712.5999999999999</ele><time>2026-04-04T09:53:09.824Z</time></trkpt><trkpt lat="41.9377883" lon="-8.0238367"><ele>712.4000000000001</ele><time>2026-04-04T09:53:10.823Z</time></trkpt><trkpt lat="41.937795" lon="-8.0237133"><ele>712.2</ele><time>2026-04-04T09:53:11.824Z</time></trkpt><trkpt lat="41.93778" lon="-8.0235767"><ele>712.0</ele><time>2026-04-04T09:53:12.823Z</time></trkpt><trkpt lat="41.9377617" lon="-8.0234233"><ele>713.6</ele><time>2026-04-04T09:53:13.823Z</time></trkpt><trkpt lat="41.93775" lon="-8.0232733"><ele>715.2</ele><time>2026-04-04T09:53:14.824Z</time></trkpt><trkpt lat="41.937745" lon="-8.023125"><ele>716.8</ele><time>2026-04-04T09:53:15.823Z</time></trkpt><trkpt lat="41.9377483" lon="-8.0229917"><ele>718.4</ele><time>2026-04-04T09:53:16.823Z</time></trkpt><trkpt lat="41.937745" lon="-8.0228717"><ele>720.0</ele><time>2026-04-04T09:53:17.825Z</time></trkpt><trkpt lat="41.9377517" lon="-8.0227617"><ele>720.0</ele><time>2026-04-04T09:53:18.823Z</time></trkpt><trkpt lat="41.9377633" lon="-8.022665"><ele>720.0</ele><time>2026-04-04T09:53:19.824Z</time></trkpt><trkpt lat="41.9377833" lon="-8.02258"><ele>720.0</ele><time>2026-04-04T09:53:20.828Z</time></trkpt><trkpt lat="41.9378083" lon="-8.0224967"><ele>720.0</ele><time>2026-04-04T09:53:21.823Z</time></trkpt><trkpt lat="41.937845" lon="-8.0224117"><ele>720.0</ele><time>2026-04-04T09:53:22.824Z</time></trkpt><trkpt lat="41.93789" lon="-8.02233"><ele>720.0</ele><time>2026-04-04T09:53:23.823Z</time></trkpt><trkpt lat="41.9379433" lon="-8.0222433"><ele>720.0</ele><time>2026-04-04T09:53:24.823Z</time></trkpt><trkpt lat="41.93801" lon="-8.02216"><ele>721.8</ele><time>2026-04-04T09:53:25.826Z</time></trkpt><trkpt lat="41.938065" lon="-8.0220567"><ele>723.6</ele><time>2026-04-04T09:53:26.824Z</time></trkpt><trkpt lat="41.9381067" lon="-8.0219367"><ele>725.4000000000001</ele><time>2026-04-04T09:53:27.823Z</time></trkpt><trkpt lat="41.93814" lon="-8.0218067"><ele>727.2</ele><time>2026-04-04T09:53:28.824Z</time></trkpt><trkpt lat="41.9381733" lon="-8.0216733"><ele>729.0</ele><time>2026-04-04T09:53:29.824Z</time></trkpt><trkpt lat="41.9382183" lon="-8.02154"><ele>728.25</ele><time>2026-04-04T09:53:30.823Z</time></trkpt><trkpt lat="41.9382783" lon="-8.0214217"><ele>727.5</ele><time>2026-04-04T09:53:31.823Z</time></trkpt><trkpt lat="41.9383533" lon="-8.0213083"><ele>726.75</ele><time>2026-04-04T09:53:32.824Z</time></trkpt><trkpt lat="41.9384317" lon="-8.0211933"><ele>726.0</ele><time>2026-04-04T09:53:33.824Z</time></trkpt><trkpt lat="41.9385067" lon="-8.02107"><ele>726.0</ele><time>2026-04-04T09:53:34.823Z</time></trkpt><trkpt lat="41.93857" lon="-8.0209283"><ele>726.0</ele><time>2026-04-04T09:53:35.823Z</time></trkpt><trkpt lat="41.93861" lon="-8.0207783"><ele>726.0</ele><time>2026-04-04T09:53:36.824Z</time></trkpt><trkpt lat="41.9386183" lon="-8.020615"><ele>726.0</ele><time>2026-04-04T09:53:37.824Z</time></trkpt><trkpt lat="41.93862" lon="-8.0204467"><ele>727.5</ele><time>2026-04-04T09:53:38.826Z</time></trkpt><trkpt lat="41.9386133" lon="-8.0202817"><ele>729.0</ele><time>2026-04-04T09:53:39.823Z</time></trkpt><trkpt lat="41.9386033" lon="-8.020115"><ele>730.5</ele><time>2026-04-04T09:53:40.823Z</time></trkpt><trkpt lat="41.9385967" lon="-8.01995"><ele>732.0</ele><time>2026-04-04T09:53:41.824Z</time></trkpt><trkpt lat="41.9386117" lon="-8.0198"><ele>733.0</ele><time>2026-04-04T09:53:42.824Z</time></trkpt><trkpt lat="41.93866" lon="-8.019665"><ele>734.0</ele><time>2026-04-04T09:53:43.824Z</time></trkpt><trkpt lat="41.9387317" lon="-8.0195367"><ele>735.0</ele><time>2026-04-04T09:53:44.824Z</time></trkpt><trkpt lat="41.9388183" lon="-8.0194083"><ele>736.0</ele><time>2026-04-04T09:53:45.823Z</time></trkpt><trkpt lat="41.938895" lon="-8.0192617"><ele>737.5</ele><time>2026-04-04T09:53:46.824Z</time></trkpt><trkpt lat="41.9389617" lon="-8.0191033"><ele>739.0</ele><time>2026-04-04T09:53:47.824Z</time></trkpt><trkpt lat="41.939025" lon="-8.0189417"><ele>740.5</ele><time>2026-04-04T09:53:48.823Z</time></trkpt><trkpt lat="41.9390883" lon="-8.0187783"><ele>742.0</ele><time>2026-04-04T09:53:49.823Z</time></trkpt><trkpt lat="41.9391483" lon="-8.018615"><ele>742.0</ele><time>2026-04-04T09:53:50.824Z</time></trkpt><trkpt lat="41.939195" lon="-8.0184367"><ele>742.0</ele><time>2026-04-04T09:53:51.823Z</time></trkpt><trkpt lat="41.93925" lon="-8.0182733"><ele>742.0</ele><time>2026-04-04T09:53:52.823Z</time></trkpt><trkpt lat="41.9392933" lon="-8.0181133"><ele>742.0</ele><time>2026-04-04T09:53:53.824Z</time></trkpt><trkpt lat="41.9393333" lon="-8.017955"><ele>739.0</ele><time>2026-04-04T09:53:54.824Z</time></trkpt><trkpt lat="41.9393733" lon="-8.0177983"><ele>736.0</ele><time>2026-04-04T09:53:55.824Z</time></trkpt><trkpt lat="41.9394033" lon="-8.0176383"><ele>733.0</ele><time>2026-04-04T09:53:56.824Z</time></trkpt><trkpt lat="41.9394217" lon="-8.017475"><ele>730.0</ele><time>2026-04-04T09:53:57.827Z</time></trkpt><trkpt lat="41.93943" lon="-8.0173133"><ele>730.0</ele><time>2026-04-04T09:53:58.823Z</time></trkpt><trkpt lat="41.9394383" lon="-8.0171517"><ele>730.0</ele><time>2026-04-04T09:53:59.823Z</time></trkpt><trkpt lat="41.9394433" lon="-8.01699"><ele>730.0</ele><time>2026-04-04T09:54:00.822Z</time></trkpt><trkpt lat="41.9394467" lon="-8.016835"><ele>730.0</ele><time>2026-04-04T09:54:01.823Z</time></trkpt><trkpt lat="41.93944" lon="-8.016695"><ele>729.4</ele><time>2026-04-04T09:54:02.823Z</time></trkpt><trkpt lat="41.9394167" lon="-8.016565"><ele>728.8</ele><time>2026-04-04T09:54:03.822Z</time></trkpt><trkpt lat="41.9393533" lon="-8.0164567"><ele>728.2</ele><time>2026-04-04T09:54:04.822Z</time></trkpt><trkpt lat="41.9392633" lon="-8.016395"><ele>727.6</ele><time>2026-04-04T09:54:05.823Z</time></trkpt><trkpt lat="41.9391583" lon="-8.0163633"><ele>727.0</ele><time>2026-04-04T09:54:06.823Z</time></trkpt><trkpt lat="41.9390683" lon="-8.0163367"><ele>728.3333333333334</ele><time>2026-04-04T09:54:07.822Z</time></trkpt><trkpt lat="41.939" lon="-8.0162917"><ele>729.6666666666667</ele><time>2026-04-04T09:54:08.825Z</time></trkpt><trkpt lat="41.9389517" lon="-8.0162317"><ele>731.0</ele><time>2026-04-04T09:54:09.822Z</time></trkpt><trkpt lat="41.93892" lon="-8.0161483"><ele>732.3333333333334</ele><time>2026-04-04T09:54:10.823Z</time></trkpt><trkpt lat="41.9388967" lon="-8.0160367"><ele>733.6666666666666</ele><time>2026-04-04T09:54:11.823Z</time></trkpt><trkpt lat="41.9388833" lon="-8.0159017"><ele>735.0</ele><time>2026-04-04T09:54:12.822Z</time></trkpt><trkpt lat="41.938865" lon="-8.0157367"><ele>735.0</ele><time>2026-04-04T09:54:13.822Z</time></trkpt><trkpt lat="41.938855" lon="-8.0156"><ele>735.0</ele><time>2026-04-04T09:54:14.824Z</time></trkpt><trkpt lat="41.938855" lon="-8.0154467"><ele>735.0</ele><time>2026-04-04T09:54:15.822Z</time></trkpt><trkpt lat="41.93886" lon="-8.015295"><ele>735.0</ele><time>2026-04-04T09:54:16.822Z</time></trkpt><trkpt lat="41.93888" lon="-8.0151433"><ele>735.0</ele><time>2026-04-04T09:54:17.823Z</time></trkpt><trkpt lat="41.9389033" lon="-8.015"><ele>735.8</ele><time>2026-04-04T09:54:18.823Z</time></trkpt><trkpt lat="41.9389367" lon="-8.0148717"><ele>736.6</ele><time>2026-04-04T09:54:19.824Z</time></trkpt><trkpt lat="41.938955" lon="-8.0147517"><ele>737.4000000000001</ele><time>2026-04-04T09:54:20.823Z</time></trkpt><trkpt lat="41.9389833" lon="-8.014635"><ele>738.2</ele><time>2026-04-04T09:54:21.825Z</time></trkpt><trkpt lat="41.9390217" lon="-8.0145233"><ele>739.0</ele><time>2026-04-04T09:54:22.822Z</time></trkpt><trkpt lat="41.9390583" lon="-8.0144167"><ele>739.0</ele><time>2026-04-04T09:54:23.823Z</time></trkpt><trkpt lat="41.9390967" lon="-8.01432"><ele>739.0</ele><time>2026-04-04T09:54:24.822Z</time></trkpt><trkpt lat="41.939125" lon="-8.0142167"><ele>739.0</ele><time>2026-04-04T09:54:25.822Z</time></trkpt><trkpt lat="41.9391483" lon="-8.014115"><ele>739.0</ele><time>2026-04-04T09:54:26.823Z</time></trkpt><trkpt lat="41.9391617" lon="-8.014"><ele>739.0</ele><time>2026-04-04T09:54:27.822Z</time></trkpt><trkpt lat="41.9391817" lon="-8.0138867"><ele>739.0</ele><time>2026-04-04T09:54:28.823Z</time></trkpt><trkpt lat="41.9391983" lon="-8.0137633"><ele>739.3333333333334</ele><time>2026-04-04T09:54:29.823Z</time></trkpt><trkpt lat="41.9392133" lon="-8.0136433"><ele>739.6666666666667</ele><time>2026-04-04T09:54:30.823Z</time></trkpt><trkpt lat="41.9392217" lon="-8.0135317"><ele>740.0</ele><time>2026-04-04T09:54:31.824Z</time></trkpt><trkpt lat="41.9392283" lon="-8.0134283"><ele>740.3333333333334</ele><time>2026-04-04T09:54:32.823Z</time></trkpt><trkpt lat="41.9392283" lon="-8.01334"><ele>740.6666666666666</ele><time>2026-04-04T09:54:33.822Z</time></trkpt><trkpt lat="41.9392383" lon="-8.0132117"><ele>741.0</ele><time>2026-04-04T09:54:35.823Z</time></trkpt><trkpt lat="41.9392467" lon="-8.01308"><ele>741.1999999999999</ele><time>2026-04-04T09:54:37.823Z</time></trkpt><trkpt lat="41.9392617" lon="-8.0129517"><ele>741.4</ele><time>2026-04-04T09:54:39.822Z</time></trkpt><trkpt lat="41.9392567" lon="-8.012825"><ele>741.6</ele><time>2026-04-04T09:54:41.823Z</time></trkpt><trkpt lat="41.9392417" lon="-8.012675"><ele>741.8</ele><time>2026-04-04T09:54:43.826Z</time></trkpt><trkpt lat="41.939215" lon="-8.0125083"><ele>742.0</ele><time>2026-04-04T09:54:45.826Z</time></trkpt><trkpt lat="41.9392017" lon="-8.0124183"><ele>742.5</ele><time>2026-04-04T09:54:46.823Z</time></trkpt><trkpt lat="41.9391933" lon="-8.012325"><ele>743.0</ele><time>2026-04-04T09:54:47.827Z</time></trkpt><trkpt lat="41.9391833" lon="-8.0122267"><ele>743.5</ele><time>2026-04-04T09:54:48.822Z</time></trkpt><trkpt lat="41.9391717" lon="-8.0121133"><ele>744.0</ele><time>2026-04-04T09:54:49.824Z</time></trkpt><trkpt lat="41.9391583" lon="-8.0120033"><ele>744.5</ele><time>2026-04-04T09:54:50.824Z</time></trkpt><trkpt lat="41.9391417" lon="-8.0118967"><ele>745.0</ele><time>2026-04-04T09:54:51.824Z</time></trkpt><trkpt lat="41.9391283" lon="-8.01179"><ele>745.0</ele><time>2026-04-04T09:54:52.824Z</time></trkpt><trkpt lat="41.9391167" lon="-8.0116817"><ele>745.0</ele><time>2026-04-04T09:54:53.824Z</time></trkpt><trkpt lat="41.9391033" lon="-8.01157"><ele>745.0</ele><time>2026-04-04T09:54:54.824Z</time></trkpt><trkpt lat="41.9390883" lon="-8.011455"><ele>745.0</ele><time>2026-04-04T09:54:55.825Z</time></trkpt><trkpt lat="41.939075" lon="-8.0113333"><ele>745.0</ele><time>2026-04-04T09:54:56.826Z</time></trkpt><trkpt lat="41.9390633" lon="-8.011215"><ele>745.0</ele><time>2026-04-04T09:54:57.823Z</time></trkpt><trkpt lat="41.9390517" lon="-8.0110933"><ele>746.2</ele><time>2026-04-04T09:54:58.824Z</time></trkpt><trkpt lat="41.93904" lon="-8.0109717"><ele>747.4</ele><time>2026-04-04T09:54:59.827Z</time></trkpt><trkpt lat="41.9390217" lon="-8.0108567"><ele>748.5999999999999</ele><time>2026-04-04T09:55:00.824Z</time></trkpt><trkpt lat="41.9390033" lon="-8.0107133"><ele>749.8</ele><time>2026-04-04T09:55:01.824Z</time></trkpt><trkpt lat="41.9389917" lon="-8.01058"><ele>751.0</ele><time>2026-04-04T09:55:02.823Z</time></trkpt><trkpt lat="41.9390017" lon="-8.0104283"><ele>751.0</ele><time>2026-04-04T09:55:03.826Z</time></trkpt><trkpt lat="41.9390033" lon="-8.0102917"><ele>751.0</ele><time>2026-04-04T09:55:04.824Z</time></trkpt><trkpt lat="41.9390083" lon="-8.0101533"><ele>751.0</ele><time>2026-04-04T09:55:05.826Z</time></trkpt><trkpt lat="41.9390217" lon="-8.010005"><ele>751.0</ele><time>2026-04-04T09:55:06.824Z</time></trkpt><trkpt lat="41.9390283" lon="-8.0098617"><ele>751.0</ele><time>2026-04-04T09:55:07.824Z</time></trkpt><trkpt lat="41.9390267" lon="-8.0097133"><ele>748.5999999999999</ele><time>2026-04-04T09:55:08.824Z</time></trkpt><trkpt lat="41.9390283" lon="-8.0095767"><ele>746.2</ele><time>2026-04-04T09:55:09.823Z</time></trkpt><trkpt lat="41.93903" lon="-8.00945"><ele>743.8</ele><time>2026-04-04T09:55:10.825Z</time></trkpt><trkpt lat="41.939035" lon="-8.0093317"><ele>741.4000000000001</ele><time>2026-04-04T09:55:11.825Z</time></trkpt><trkpt lat="41.939025" lon="-8.0091867"><ele>739.0</ele><time>2026-04-04T09:55:12.825Z</time></trkpt><trkpt lat="41.9390433" lon="-8.0089667"><ele>738.5</ele><time>2026-04-04T09:55:13.826Z</time></trkpt><trkpt lat="41.9390383" lon="-8.008845"><ele>738.0</ele><time>2026-04-04T09:55:14.824Z</time></trkpt><trkpt lat="41.9390333" lon="-8.0087017"><ele>737.5</ele><time>2026-04-04T09:55:15.823Z</time></trkpt><trkpt lat="41.93903" lon="-8.0085983"><ele>737.0</ele><time>2026-04-04T09:55:16.823Z</time></trkpt><trkpt lat="41.9390167" lon="-8.0084583"><ele>736.5</ele><time>2026-04-04T09:55:18.824Z</time></trkpt><trkpt lat="41.9389617" lon="-8.0084133"><ele>736.0</ele><time>2026-04-04T09:55:22.825Z</time></trkpt><trkpt lat="41.9388867" lon="-8.0085217"><ele>736.0</ele><time>2026-04-04T09:57:48.822Z</time></trkpt><trkpt lat="41.9388217" lon="-8.008545"><ele>736.0</ele><time>2026-04-04T09:57:52.823Z</time></trkpt><trkpt lat="41.938725" lon="-8.00861"><ele>736.0</ele><time>2026-04-04T09:57:55.824Z</time></trkpt><trkpt lat="41.9386683" lon="-8.00865"><ele>736.0</ele><time>2026-04-04T09:57:56.823Z</time></trkpt><trkpt lat="41.9385933" lon="-8.0086967"><ele>736.0</ele><time>2026-04-04T09:57:57.823Z</time></trkpt><trkpt lat="41.938515" lon="-8.0087417"><ele>736.0</ele><time>2026-04-04T09:57:58.822Z</time></trkpt><trkpt lat="41.9384183" lon="-8.008785"><ele>735.1666666666667</ele><time>2026-04-04T09:57:59.822Z</time></trkpt><trkpt lat="41.9383317" lon="-8.0088267"><ele>734.3333333333334</ele><time>2026-04-04T09:58:00.823Z</time></trkpt><trkpt lat="41.9382417" lon="-8.008855"><ele>733.5</ele><time>2026-04-04T09:58:01.823Z</time></trkpt><trkpt lat="41.938155" lon="-8.0088733"><ele>732.6666666666666</ele><time>2026-04-04T09:58:02.823Z</time></trkpt><trkpt lat="41.93807" lon="-8.00888"><ele>731.8333333333333</ele><time>2026-04-04T09:58:03.822Z</time></trkpt><trkpt lat="41.937995" lon="-8.0088867"><ele>731.0</ele><time>2026-04-04T09:58:04.823Z</time></trkpt><trkpt lat="41.9379233" lon="-8.0088867"><ele>731.0</ele><time>2026-04-04T09:58:05.824Z</time></trkpt><trkpt lat="41.93786" lon="-8.0088767"><ele>731.0</ele><time>2026-04-04T09:58:06.823Z</time></trkpt><trkpt lat="41.9377517" lon="-8.0088383"><ele>731.0</ele><time>2026-04-04T09:58:08.824Z</time></trkpt><trkpt lat="41.9376417" lon="-8.008775"><ele>731.0</ele><time>2026-04-04T09:58:10.823Z</time></trkpt><trkpt lat="41.9375717" lon="-8.0087217"><ele>731.0</ele><time>2026-04-04T09:58:11.823Z</time></trkpt><trkpt lat="41.937485" lon="-8.0086567"><ele>731.4</ele><time>2026-04-04T09:58:12.823Z</time></trkpt><trkpt lat="41.9373933" lon="-8.0085867"><ele>731.8</ele><time>2026-04-04T09:58:13.823Z</time></trkpt><trkpt lat="41.9373083" lon="-8.0085283"><ele>732.1999999999999</ele><time>2026-04-04T09:58:14.825Z</time></trkpt><trkpt lat="41.937215" lon="-8.0084883"><ele>732.5999999999999</ele><time>2026-04-04T09:58:15.822Z</time></trkpt><trkpt lat="41.9371083" lon="-8.0084383"><ele>733.0</ele><time>2026-04-04T09:58:16.822Z</time></trkpt><trkpt lat="41.937005" lon="-8.008395"><ele>733.0</ele><time>2026-04-04T09:58:17.824Z</time></trkpt><trkpt lat="41.936895" lon="-8.008355"><ele>733.0</ele><time>2026-04-04T09:58:18.822Z</time></trkpt><trkpt lat="41.93678" lon="-8.0083067"><ele>733.0</ele><time>2026-04-04T09:58:19.823Z</time></trkpt><trkpt lat="41.93668" lon="-8.0082433"><ele>733.0</ele><time>2026-04-04T09:58:20.823Z</time></trkpt><trkpt lat="41.9365867" lon="-8.0081583"><ele>729.5</ele><time>2026-04-04T09:58:21.822Z</time></trkpt><trkpt lat="41.9365183" lon="-8.00805"><ele>726.0</ele><time>2026-04-04T09:58:22.822Z</time></trkpt><trkpt lat="41.9364583" lon="-8.0079183"><ele>722.5</ele><time>2026-04-04T09:58:23.823Z</time></trkpt><trkpt lat="41.9364133" lon="-8.0077767"><ele>719.0</ele><time>2026-04-04T09:58:24.823Z</time></trkpt><trkpt lat="41.9363867" lon="-8.0076233"><ele>718.25</ele><time>2026-04-04T09:58:25.822Z</time></trkpt><trkpt lat="41.93638" lon="-8.0074567"><ele>717.5</ele><time>2026-04-04T09:58:26.823Z</time></trkpt><trkpt lat="41.936385" lon="-8.0072933"><ele>716.75</ele><time>2026-04-04T09:58:27.823Z</time></trkpt><trkpt lat="41.9363933" lon="-8.0071483"><ele>716.0</ele><time>2026-04-04T09:58:28.823Z</time></trkpt><trkpt lat="41.9364" lon="-8.0070033"><ele>716.0</ele><time>2026-04-04T09:58:29.824Z</time></trkpt><trkpt lat="41.9364133" lon="-8.0068617"><ele>716.0</ele><time>2026-04-04T09:58:30.823Z</time></trkpt><trkpt lat="41.936425" lon="-8.0067017"><ele>716.0</ele><time>2026-04-04T09:58:31.823Z</time></trkpt><trkpt lat="41.9364317" lon="-8.0065433"><ele>716.0</ele><time>2026-04-04T09:58:32.823Z</time></trkpt><trkpt lat="41.936425" lon="-8.00639"><ele>716.0</ele><time>2026-04-04T09:58:33.822Z</time></trkpt><trkpt lat="41.936415" lon="-8.0062383"><ele>716.0</ele><time>2026-04-04T09:58:34.822Z</time></trkpt><trkpt lat="41.9363933" lon="-8.006115"><ele>716.0</ele><time>2026-04-04T09:58:35.823Z</time></trkpt><trkpt lat="41.936365" lon="-8.0060183"><ele>716.0</ele><time>2026-04-04T09:58:36.823Z</time></trkpt><trkpt lat="41.9362667" lon="-8.0059267"><ele>716.0</ele><time>2026-04-04T09:58:38.823Z</time></trkpt><trkpt lat="41.9361467" lon="-8.0059433"><ele>716.0</ele><time>2026-04-04T09:58:40.823Z</time></trkpt><trkpt lat="41.9360817" lon="-8.0059533"><ele>716.0</ele><time>2026-04-04T09:58:41.823Z</time></trkpt><trkpt lat="41.9359533" lon="-8.005935"><ele>716.0</ele><time>2026-04-04T09:58:43.822Z</time></trkpt><trkpt lat="41.9358767" lon="-8.0059317"><ele>716.0</ele><time>2026-04-04T09:58:44.824Z</time></trkpt><trkpt lat="41.9357317" lon="-8.00597"><ele>716.0</ele><time>2026-04-04T09:58:45.823Z</time></trkpt><trkpt lat="41.9356333" lon="-8.005925"><ele>716.1428571428572</ele><time>2026-04-04T09:58:47.824Z</time></trkpt><trkpt lat="41.9355817" lon="-8.005865"><ele>716.2857142857143</ele><time>2026-04-04T09:58:49.824Z</time></trkpt><trkpt lat="41.9355167" lon="-8.0057983"><ele>716.4285714285714</ele><time>2026-04-04T09:58:52.823Z</time></trkpt><trkpt lat="41.9354883" lon="-8.00572"><ele>716.5714285714287</ele><time>2026-04-04T09:58:54.824Z</time></trkpt><trkpt lat="41.9354733" lon="-8.0056317"><ele>716.7142857142857</ele><time>2026-04-04T09:58:56.823Z</time></trkpt><trkpt lat="41.9355283" lon="-8.0055883"><ele>716.8571428571429</ele><time>2026-04-04T09:58:59.823Z</time></trkpt><trkpt lat="41.9355867" lon="-8.00568"><ele>717.0</ele><time>2026-04-04T09:59:02.822Z</time></trkpt><trkpt lat="41.935665" lon="-8.0058083"><ele>717.0</ele><time>2026-04-04T09:59:04.824Z</time></trkpt><trkpt lat="41.935735" lon="-8.00589"><ele>717.0</ele><time>2026-04-04T09:59:05.823Z</time></trkpt><trkpt lat="41.9357967" lon="-8.0059583"><ele>717.0</ele><time>2026-04-04T09:59:06.823Z</time></trkpt><trkpt lat="41.9358533" lon="-8.00601"><ele>717.0</ele><time>2026-04-04T09:59:07.825Z</time></trkpt><trkpt lat="41.9359533" lon="-8.0060767"><ele>717.0</ele><time>2026-04-04T09:59:09.822Z</time></trkpt><trkpt lat="41.936035" lon="-8.006105"><ele>717.0</ele><time>2026-04-04T09:59:11.822Z</time></trkpt><trkpt lat="41.9360967" lon="-8.0061367"><ele>717.0</ele><time>2026-04-04T09:59:13.822Z</time></trkpt><trkpt lat="41.9361467" lon="-8.00621"><ele>717.0</ele><time>2026-04-04T09:59:16.824Z</time></trkpt><trkpt lat="41.9361033" lon="-8.006285"><ele>717.0</ele><time>2026-04-04T09:59:20.823Z</time></trkpt><trkpt lat="41.9360317" lon="-8.0062933"><ele>717.0</ele><time>2026-04-04T09:59:22.823Z</time></trkpt><trkpt lat="41.935915" lon="-8.0062917"><ele>717.0</ele><time>2026-04-04T09:59:24.823Z</time></trkpt><trkpt lat="41.9357983" lon="-8.0062833"><ele>717.0</ele><time>2026-04-04T09:59:26.822Z</time></trkpt><trkpt lat="41.9356933" lon="-8.00628"><ele>717.0</ele><time>2026-04-04T09:59:28.823Z</time></trkpt><trkpt lat="41.9355833" lon="-8.00627"><ele>717.0</ele><time>2026-04-04T09:59:30.825Z</time></trkpt><trkpt lat="41.9354683" lon="-8.006255"><ele>717.0</ele><time>2026-04-04T09:59:32.823Z</time></trkpt><trkpt lat="41.9353733" lon="-8.0062267"><ele>717.0</ele><time>2026-04-04T09:59:34.824Z</time></trkpt><trkpt lat="41.9352867" lon="-8.0062183"><ele>717.0</ele><time>2026-04-04T09:59:36.823Z</time></trkpt><trkpt lat="41.9352083" lon="-8.006205"><ele>717.0</ele><time>2026-04-04T09:59:39.823Z</time></trkpt><trkpt lat="41.93513" lon="-8.00623"><ele>717.0</ele><time>2026-04-04T09:59:51.823Z</time></trkpt><trkpt lat="41.9350683" lon="-8.0062667"><ele>717.0</ele><time>2026-04-04T09:59:56.824Z</time></trkpt><trkpt lat="41.93502" lon="-8.006335"><ele>717.0</ele><time>2026-04-04T10:00:00.823Z</time></trkpt><trkpt lat="41.9349667" lon="-8.006385"><ele>717.0</ele><time>2026-04-04T10:00:03.823Z</time></trkpt><trkpt lat="41.9349017" lon="-8.00643"><ele>717.0</ele><time>2026-04-04T10:00:07.824Z</time></trkpt><trkpt lat="41.93477" lon="-8.0064983"><ele>717.0</ele><time>2026-04-04T10:00:53.822Z</time></trkpt><trkpt lat="41.93485" lon="-8.006485"><ele>717.0</ele><time>2026-04-04T10:01:18.823Z</time></trkpt><trkpt lat="41.9349183" lon="-8.0064483"><ele>717.0</ele><time>2026-04-04T10:01:22.823Z</time></trkpt><trkpt lat="41.9349867" lon="-8.0063883"><ele>717.0</ele><time>2026-04-04T10:01:25.822Z</time></trkpt><trkpt lat="41.935045" lon="-8.0063083"><ele>717.0</ele><time>2026-04-04T10:01:28.823Z</time></trkpt><trkpt lat="41.9351033" lon="-8.0062467"><ele>717.0</ele><time>2026-04-04T10:01:31.823Z</time></trkpt><trkpt lat="41.935185" lon="-8.0062167"><ele>717.0</ele><time>2026-04-04T10:01:33.822Z</time></trkpt><trkpt lat="41.9353033" lon="-8.006235"><ele>717.0</ele><time>2026-04-04T10:01:35.823Z</time></trkpt><trkpt lat="41.93541" lon="-8.0062567"><ele>717.0</ele><time>2026-04-04T10:01:37.824Z</time></trkpt><trkpt lat="41.93551" lon="-8.0062533"><ele>717.0</ele><time>2026-04-04T10:01:39.823Z</time></trkpt><trkpt lat="41.9356017" lon="-8.0062317"><ele>717.0</ele><time>2026-04-04T10:01:41.823Z</time></trkpt><trkpt lat="41.9357283" lon="-8.006235"><ele>717.0</ele><time>2026-04-04T10:01:43.823Z</time></trkpt><trkpt lat="41.9357967" lon="-8.00625"><ele>717.0</ele><time>2026-04-04T10:01:44.823Z</time></trkpt><trkpt lat="41.9358833" lon="-8.00625"><ele>717.0</ele><time>2026-04-04T10:01:45.822Z</time></trkpt><trkpt lat="41.9359583" lon="-8.0062467"><ele>717.0</ele><time>2026-04-04T10:01:46.823Z</time></trkpt><trkpt lat="41.9360533" lon="-8.00625"><ele>717.0</ele><time>2026-04-04T10:01:48.823Z</time></trkpt><trkpt lat="41.93612" lon="-8.00623"><ele>717.0</ele><time>2026-04-04T10:01:50.823Z</time></trkpt><trkpt lat="41.936065" lon="-8.0061483"><ele>717.0</ele><time>2026-04-04T10:01:54.822Z</time></trkpt><trkpt lat="41.9359333" lon="-8.0061017"><ele>717.0</ele><time>2026-04-04T10:01:56.824Z</time></trkpt><trkpt lat="41.9358517" lon="-8.0060717"><ele>717.0</ele><time>2026-04-04T10:01:57.822Z</time></trkpt><trkpt lat="41.9357583" lon="-8.00602"><ele>717.0</ele><time>2026-04-04T10:01:58.823Z</time></trkpt><trkpt lat="41.9356917" lon="-8.005945"><ele>717.0</ele><time>2026-04-04T10:01:59.823Z</time></trkpt><trkpt lat="41.9356433" lon="-8.0058633"><ele>718.0</ele><time>2026-04-04T10:02:00.823Z</time></trkpt><trkpt lat="41.9356" lon="-8.0057583"><ele>719.0</ele><time>2026-04-04T10:02:01.825Z</time></trkpt><trkpt lat="41.93557" lon="-8.0056483"><ele>720.0</ele><time>2026-04-04T10:02:02.822Z</time></trkpt><trkpt lat="41.93555" lon="-8.00553"><ele>721.0</ele><time>2026-04-04T10:02:03.823Z</time></trkpt><trkpt lat="41.9355383" lon="-8.0054033"><ele>722.0</ele><time>2026-04-04T10:02:04.823Z</time></trkpt><trkpt lat="41.9355333" lon="-8.005275"><ele>722.0</ele><time>2026-04-04T10:02:05.823Z</time></trkpt><trkpt lat="41.935535" lon="-8.0051483"><ele>722.0</ele><time>2026-04-04T10:02:06.823Z</time></trkpt><trkpt lat="41.9355317" lon="-8.005025"><ele>722.0</ele><time>2026-04-04T10:02:07.824Z</time></trkpt><trkpt lat="41.93552" lon="-8.00491"><ele>722.0</ele><time>2026-04-04T10:02:08.823Z</time></trkpt><trkpt lat="41.93551" lon="-8.0048117"><ele>722.0</ele><time>2026-04-04T10:02:09.822Z</time></trkpt><trkpt lat="41.9354933" lon="-8.004695"><ele>722.0</ele><time>2026-04-04T10:02:11.823Z</time></trkpt><trkpt lat="41.9354183" lon="-8.0046433"><ele>722.4000000000001</ele><time>2026-04-04T10:02:13.825Z</time></trkpt><trkpt lat="41.9353333" lon="-8.0046517"><ele>722.8000000000001</ele><time>2026-04-04T10:02:14.823Z</time></trkpt><trkpt lat="41.9352683" lon="-8.0046833"><ele>723.2</ele><time>2026-04-04T10:02:15.822Z</time></trkpt><trkpt lat="41.93518" lon="-8.004725"><ele>723.6</ele><time>2026-04-04T10:02:16.823Z</time></trkpt><trkpt lat="41.935075" lon="-8.0047917"><ele>724.0</ele><time>2026-04-04T10:02:17.823Z</time></trkpt><trkpt lat="41.934965" lon="-8.00488"><ele>724.0</ele><time>2026-04-04T10:02:18.823Z</time></trkpt><trkpt lat="41.934845" lon="-8.00497"><ele>724.0</ele><time>2026-04-04T10:02:19.823Z</time></trkpt><trkpt lat="41.9347417" lon="-8.0050467"><ele>724.0</ele><time>2026-04-04T10:02:20.823Z</time></trkpt><trkpt lat="41.9346417" lon="-8.0051183"><ele>724.0</ele><time>2026-04-04T10:02:21.823Z</time></trkpt><trkpt lat="41.93454" lon="-8.0051883"><ele>723.3333333333334</ele><time>2026-04-04T10:02:22.823Z</time></trkpt><trkpt lat="41.9344433" lon="-8.0052567"><ele>722.6666666666667</ele><time>2026-04-04T10:02:23.823Z</time></trkpt><trkpt lat="41.934355" lon="-8.00532"><ele>722.0</ele><time>2026-04-04T10:02:24.823Z</time></trkpt><trkpt lat="41.9342783" lon="-8.0053733"><ele>721.3333333333334</ele><time>2026-04-04T10:02:25.823Z</time></trkpt><trkpt lat="41.9342117" lon="-8.00542"><ele>720.6666666666666</ele><time>2026-04-04T10:02:26.823Z</time></trkpt><trkpt lat="41.934145" lon="-8.0054633"><ele>720.0</ele><time>2026-04-04T10:02:27.822Z</time></trkpt><trkpt lat="41.9340367" lon="-8.0055283"><ele>720.0</ele><time>2026-04-04T10:02:29.823Z</time></trkpt><trkpt lat="41.9339433" lon="-8.005585"><ele>720.0</ele><time>2026-04-04T10:02:31.823Z</time></trkpt><trkpt lat="41.93384" lon="-8.0056533"><ele>720.0</ele><time>2026-04-04T10:02:33.822Z</time></trkpt><trkpt lat="41.9337767" lon="-8.0056933"><ele>720.0</ele><time>2026-04-04T10:02:34.823Z</time></trkpt><trkpt lat="41.93371" lon="-8.0057383"><ele>720.0</ele><time>2026-04-04T10:02:35.825Z</time></trkpt><trkpt lat="41.93365" lon="-8.0057817"><ele>720.0</ele><time>2026-04-04T10:02:36.824Z</time></trkpt><trkpt lat="41.93359" lon="-8.0058183"><ele>718.6</ele><time>2026-04-04T10:02:37.824Z</time></trkpt><trkpt lat="41.93349" lon="-8.00588"><ele>717.2</ele><time>2026-04-04T10:02:39.823Z</time></trkpt><trkpt lat="41.9334133" lon="-8.005945"><ele>715.8</ele><time>2026-04-04T10:02:41.824Z</time></trkpt><trkpt lat="41.9333333" lon="-8.0060083"><ele>714.4</ele><time>2026-04-04T10:02:43.823Z</time></trkpt><trkpt lat="41.9332567" lon="-8.0060667"><ele>713.0</ele><time>2026-04-04T10:02:45.823Z</time></trkpt><trkpt lat="41.9331817" lon="-8.0061117"><ele>713.0</ele><time>2026-04-04T10:02:47.823Z</time></trkpt><trkpt lat="41.93312" lon="-8.006145"><ele>713.0</ele><time>2026-04-04T10:02:49.826Z</time></trkpt><trkpt lat="41.9330617" lon="-8.0061883"><ele>713.0</ele><time>2026-04-04T10:02:52.823Z</time></trkpt><trkpt lat="41.9330033" lon="-8.0062467"><ele>713.0</ele><time>2026-04-04T10:03:12.823Z</time></trkpt><trkpt lat="41.9329983" lon="-8.006155"><ele>713.0</ele><time>2026-04-04T10:03:16.823Z</time></trkpt><trkpt lat="41.933095" lon="-8.0060533"><ele>713.0</ele><time>2026-04-04T10:03:18.823Z</time></trkpt><trkpt lat="41.9331583" lon="-8.0060033"><ele>713.0</ele><time>2026-04-04T10:03:19.823Z</time></trkpt><trkpt lat="41.933245" lon="-8.00594"><ele>713.0</ele><time>2026-04-04T10:03:20.825Z</time></trkpt><trkpt lat="41.9333533" lon="-8.0058683"><ele>713.0</ele><time>2026-04-04T10:03:21.824Z</time></trkpt><trkpt lat="41.9334783" lon="-8.005795"><ele>713.0</ele><time>2026-04-04T10:03:22.822Z</time></trkpt><trkpt lat="41.9336033" lon="-8.0057167"><ele>715.3333333333333</ele><time>2026-04-04T10:03:23.824Z</time></trkpt><trkpt lat="41.9337417" lon="-8.0056467"><ele>717.6666666666666</ele><time>2026-04-04T10:03:24.823Z</time></trkpt><trkpt lat="41.9338817" lon="-8.005555"><ele>720.0</ele><time>2026-04-04T10:03:25.825Z</time></trkpt><trkpt lat="41.9340317" lon="-8.0054667"><ele>720.0</ele><time>2026-04-04T10:03:26.824Z</time></trkpt><trkpt lat="41.93418" lon="-8.00538"><ele>720.0</ele><time>2026-04-04T10:03:27.823Z</time></trkpt><trkpt lat="41.9343267" lon="-8.0052967"><ele>720.0</ele><time>2026-04-04T10:03:28.823Z</time></trkpt><trkpt lat="41.9344633" lon="-8.0052067"><ele>720.0</ele><time>2026-04-04T10:03:29.825Z</time></trkpt><trkpt lat="41.9345967" lon="-8.0051133"><ele>720.0</ele><time>2026-04-04T10:03:30.824Z</time></trkpt><trkpt lat="41.9347283" lon="-8.0050233"><ele>720.0</ele><time>2026-04-04T10:03:31.823Z</time></trkpt><trkpt lat="41.9348633" lon="-8.0049367"><ele>720.0</ele><time>2026-04-04T10:03:32.824Z</time></trkpt><trkpt lat="41.9349967" lon="-8.0048633"><ele>720.8</ele><time>2026-04-04T10:03:33.823Z</time></trkpt><trkpt lat="41.9351033" lon="-8.0047833"><ele>721.6</ele><time>2026-04-04T10:03:34.823Z</time></trkpt><trkpt lat="41.9351967" lon="-8.0047183"><ele>722.4000000000001</ele><time>2026-04-04T10:03:35.827Z</time></trkpt><trkpt lat="41.935275" lon="-8.0046667"><ele>723.2</ele><time>2026-04-04T10:03:36.826Z</time></trkpt><trkpt lat="41.9353433" lon="-8.0046283"><ele>724.0</ele><time>2026-04-04T10:03:37.824Z</time></trkpt><trkpt lat="41.935425" lon="-8.004595"><ele>724.0</ele><time>2026-04-04T10:03:39.824Z</time></trkpt><trkpt lat="41.93549" lon="-8.0046267"><ele>724.0</ele><time>2026-04-04T10:03:41.823Z</time></trkpt><trkpt lat="41.9355217" lon="-8.0047283"><ele>724.0</ele><time>2026-04-04T10:03:44.825Z</time></trkpt><trkpt lat="41.9355233" lon="-8.0048883"><ele>724.0</ele><time>2026-04-04T10:03:46.825Z</time></trkpt><trkpt lat="41.9355267" lon="-8.004985"><ele>724.0</ele><time>2026-04-04T10:03:47.825Z</time></trkpt><trkpt lat="41.935525" lon="-8.00512"><ele>724.0</ele><time>2026-04-04T10:03:48.824Z</time></trkpt><trkpt lat="41.9355333" lon="-8.005335"><ele>723.5</ele><time>2026-04-04T10:03:49.824Z</time></trkpt><trkpt lat="41.9355683" lon="-8.0055333"><ele>723.0</ele><time>2026-04-04T10:03:50.825Z</time></trkpt><trkpt lat="41.935605" lon="-8.00569"><ele>722.5</ele><time>2026-04-04T10:03:51.823Z</time></trkpt><trkpt lat="41.9356717" lon="-8.00584"><ele>722.0</ele><time>2026-04-04T10:03:52.823Z</time></trkpt><trkpt lat="41.9357567" lon="-8.0059817"><ele>721.0</ele><time>2026-04-04T10:03:53.823Z</time></trkpt><trkpt lat="41.9358567" lon="-8.00608"><ele>720.0</ele><time>2026-04-04T10:03:54.824Z</time></trkpt><trkpt lat="41.935955" lon="-8.00615"><ele>719.0</ele><time>2026-04-04T10:03:55.824Z</time></trkpt><trkpt lat="41.9360483" lon="-8.006195"><ele>718.0</ele><time>2026-04-04T10:03:56.823Z</time></trkpt><trkpt lat="41.9361217" lon="-8.0062417"><ele>717.0</ele><time>2026-04-04T10:03:57.823Z</time></trkpt><trkpt lat="41.9361833" lon="-8.00628"><ele>716.8</ele><time>2026-04-04T10:03:58.824Z</time></trkpt><trkpt lat="41.9362533" lon="-8.0063183"><ele>716.6</ele><time>2026-04-04T10:04:00.826Z</time></trkpt><trkpt lat="41.9361783" lon="-8.00639"><ele>716.4</ele><time>2026-04-04T10:04:03.824Z</time></trkpt><trkpt lat="41.9360583" lon="-8.0064067"><ele>716.1999999999999</ele><time>2026-04-04T10:04:05.823Z</time></trkpt><trkpt lat="41.9359783" lon="-8.0064017"><ele>716.0</ele><time>2026-04-04T10:04:06.824Z</time></trkpt><trkpt lat="41.9358917" lon="-8.0063883"><ele>716.1666666666666</ele><time>2026-04-04T10:04:07.822Z</time></trkpt><trkpt lat="41.93582" lon="-8.0063683"><ele>716.3333333333333</ele><time>2026-04-04T10:04:08.823Z</time></trkpt><trkpt lat="41.9357567" lon="-8.0063383"><ele>716.5</ele><time>2026-04-04T10:04:09.823Z</time></trkpt><trkpt lat="41.93569" lon="-8.00631"><ele>716.6666666666666</ele><time>2026-04-04T10:04:10.823Z</time></trkpt><trkpt lat="41.93563" lon="-8.0062717"><ele>716.8333333333334</ele><time>2026-04-04T10:04:11.822Z</time></trkpt><trkpt lat="41.9355283" lon="-8.0062167"><ele>717.0</ele><time>2026-04-04T10:04:13.823Z</time></trkpt><trkpt lat="41.93547" lon="-8.0061783"><ele>717.0</ele><time>2026-04-04T10:04:14.823Z</time></trkpt><trkpt lat="41.9354017" lon="-8.0061417"><ele>717.0</ele><time>2026-04-04T10:04:15.822Z</time></trkpt><trkpt lat="41.9353233" lon="-8.0061117"><ele>717.0</ele><time>2026-04-04T10:04:16.823Z</time></trkpt><trkpt lat="41.935235" lon="-8.0060867"><ele>717.0</ele><time>2026-04-04T10:04:17.822Z</time></trkpt><trkpt lat="41.935145" lon="-8.006055"><ele>717.0</ele><time>2026-04-04T10:04:18.823Z</time></trkpt><trkpt lat="41.9350483" lon="-8.0060083"><ele>717.0</ele><time>2026-04-04T10:04:19.822Z</time></trkpt><trkpt lat="41.934955" lon="-8.00596"><ele>716.6</ele><time>2026-04-04T10:04:20.823Z</time></trkpt><trkpt lat="41.9348667" lon="-8.0059283"><ele>716.2</ele><time>2026-04-04T10:04:21.822Z</time></trkpt><trkpt lat="41.934785" lon="-8.0059133"><ele>715.8</ele><time>2026-04-04T10:04:22.823Z</time></trkpt><trkpt lat="41.9347" lon="-8.005905"><ele>715.4</ele><time>2026-04-04T10:04:23.823Z</time></trkpt><trkpt lat="41.934615" lon="-8.0059117"><ele>715.0</ele><time>2026-04-04T10:04:24.823Z</time></trkpt><trkpt lat="41.9345083" lon="-8.00591"><ele>715.0</ele><time>2026-04-04T10:04:25.823Z</time></trkpt><trkpt lat="41.93443" lon="-8.0059183"><ele>715.0</ele><time>2026-04-04T10:04:26.824Z</time></trkpt><trkpt lat="41.934345" lon="-8.0059233"><ele>715.0</ele><time>2026-04-04T10:04:27.822Z</time></trkpt><trkpt lat="41.9342667" lon="-8.0059283"><ele>715.0</ele><time>2026-04-04T10:04:28.822Z</time></trkpt><trkpt lat="41.9341317" lon="-8.005975"><ele>715.0</ele><time>2026-04-04T10:04:30.823Z</time></trkpt><trkpt lat="41.9340483" lon="-8.006005"><ele>714.6666666666667</ele><time>2026-04-04T10:04:31.823Z</time></trkpt><trkpt lat="41.933965" lon="-8.006045"><ele>714.3333333333334</ele><time>2026-04-04T10:04:32.825Z</time></trkpt><trkpt lat="41.9338883" lon="-8.006095"><ele>714.0</ele><time>2026-04-04T10:04:33.822Z</time></trkpt><trkpt lat="41.93381" lon="-8.0061467"><ele>713.6666666666666</ele><time>2026-04-04T10:04:34.822Z</time></trkpt><trkpt lat="41.9337367" lon="-8.0062"><ele>713.3333333333333</ele><time>2026-04-04T10:04:35.822Z</time></trkpt><trkpt lat="41.9336667" lon="-8.0062467"><ele>713.0</ele><time>2026-04-04T10:04:36.822Z</time></trkpt><trkpt lat="41.9336017" lon="-8.0062983"><ele>713.0</ele><time>2026-04-04T10:04:37.825Z</time></trkpt><trkpt lat="41.933545" lon="-8.0063533"><ele>713.0</ele><time>2026-04-04T10:04:38.824Z</time></trkpt><trkpt lat="41.93349" lon="-8.006405"><ele>713.0</ele><time>2026-04-04T10:04:39.822Z</time></trkpt><trkpt lat="41.93343" lon="-8.0064583"><ele>713.0</ele><time>2026-04-04T10:04:40.823Z</time></trkpt><trkpt lat="41.93337" lon="-8.00651"><ele>713.0</ele><time>2026-04-04T10:04:41.823Z</time></trkpt><trkpt lat="41.9333017" lon="-8.0065667"><ele>713.0</ele><time>2026-04-04T10:04:42.822Z</time></trkpt><trkpt lat="41.9332283" lon="-8.0066217"><ele>713.0</ele><time>2026-04-04T10:04:43.823Z</time></trkpt><trkpt lat="41.9331533" lon="-8.0066733"><ele>711.6666666666666</ele><time>2026-04-04T10:04:44.823Z</time></trkpt><trkpt lat="41.93308" lon="-8.0067217"><ele>710.3333333333333</ele><time>2026-04-04T10:04:45.822Z</time></trkpt><trkpt lat="41.9330167" lon="-8.0067583"><ele>709.0</ele><time>2026-04-04T10:04:46.822Z</time></trkpt><trkpt lat="41.9329267" lon="-8.0067867"><ele>707.6666666666666</ele><time>2026-04-04T10:04:48.823Z</time></trkpt><trkpt lat="41.93286" lon="-8.006805"><ele>706.3333333333334</ele><time>2026-04-04T10:04:51.822Z</time></trkpt><trkpt lat="41.932835" lon="-8.0069333"><ele>705.0</ele><time>2026-04-04T10:05:48.825Z</time></trkpt><trkpt lat="41.9327167" lon="-8.0069217"><ele>705.0</ele><time>2026-04-04T10:06:24.823Z</time></trkpt><trkpt lat="41.93264" lon="-8.0068867"><ele>705.0</ele><time>2026-04-04T10:06:27.823Z</time></trkpt><trkpt lat="41.9325733" lon="-8.0068683"><ele>705.0</ele><time>2026-04-04T10:06:30.824Z</time></trkpt><trkpt lat="41.932495" lon="-8.00685"><ele>705.0</ele><time>2026-04-04T10:06:39.823Z</time></trkpt><trkpt lat="41.9324233" lon="-8.00682"><ele>705.0</ele><time>2026-04-04T10:06:41.824Z</time></trkpt><trkpt lat="41.9323367" lon="-8.0067817"><ele>705.0</ele><time>2026-04-04T10:06:43.823Z</time></trkpt><trkpt lat="41.93223" lon="-8.0067517"><ele>704.8333333333334</ele><time>2026-04-04T10:06:45.823Z</time></trkpt><trkpt lat="41.932115" lon="-8.006695"><ele>704.6666666666666</ele><time>2026-04-04T10:06:47.824Z</time></trkpt><trkpt lat="41.93205" lon="-8.0066667"><ele>704.5</ele><time>2026-04-04T10:06:48.823Z</time></trkpt><trkpt lat="41.9319883" lon="-8.0066367"><ele>704.3333333333333</ele><time>2026-04-04T10:06:49.826Z</time></trkpt><trkpt lat="41.931925" lon="-8.006605"><ele>704.1666666666666</ele><time>2026-04-04T10:06:50.825Z</time></trkpt><trkpt lat="41.9318117" lon="-8.0065433"><ele>704.0</ele><time>2026-04-04T10:06:52.824Z</time></trkpt><trkpt lat="41.9317633" lon="-8.006485"><ele>703.1666666666666</ele><time>2026-04-04T10:06:54.823Z</time></trkpt><trkpt lat="41.9316767" lon="-8.0065317"><ele>702.3333333333333</ele><time>2026-04-04T10:07:02.823Z</time></trkpt><trkpt lat="41.931605" lon="-8.0066017"><ele>701.5</ele><time>2026-04-04T10:07:05.825Z</time></trkpt><trkpt lat="41.93153" lon="-8.00658"><ele>700.6666666666666</ele><time>2026-04-04T10:07:08.825Z</time></trkpt><trkpt lat="41.931475" lon="-8.0065067"><ele>699.8333333333334</ele><time>2026-04-04T10:07:10.823Z</time></trkpt><trkpt lat="41.9314467" lon="-8.006415"><ele>699.0</ele><time>2026-04-04T10:07:12.823Z</time></trkpt><trkpt lat="41.9314283" lon="-8.0062717"><ele>699.0</ele><time>2026-04-04T10:07:14.823Z</time></trkpt><trkpt lat="41.9313983" lon="-8.0061433"><ele>699.0</ele><time>2026-04-04T10:07:16.823Z</time></trkpt><trkpt lat="41.9313817" lon="-8.0060467"><ele>699.0</ele><time>2026-04-04T10:07:17.823Z</time></trkpt><trkpt lat="41.9313517" lon="-8.0059367"><ele>699.0</ele><time>2026-04-04T10:07:19.823Z</time></trkpt><trkpt lat="41.9313133" lon="-8.0058267"><ele>699.0</ele><time>2026-04-04T10:07:21.822Z</time></trkpt><trkpt lat="41.9312667" lon="-8.0057017"><ele>699.7142857142857</ele><time>2026-04-04T10:07:23.823Z</time></trkpt><trkpt lat="41.9312367" lon="-8.0056083"><ele>700.4285714285714</ele><time>2026-04-04T10:07:24.823Z</time></trkpt><trkpt lat="41.931205" lon="-8.0055233"><ele>701.1428571428571</ele><time>2026-04-04T10:07:25.825Z</time></trkpt><trkpt lat="41.93117" lon="-8.0054483"><ele>701.8571428571429</ele><time>2026-04-04T10:07:26.824Z</time></trkpt><trkpt lat="41.9311283" lon="-8.0053783"><ele>702.5714285714286</ele><time>2026-04-04T10:07:27.823Z</time></trkpt><trkpt lat="41.93108" lon="-8.00532"><ele>703.2857142857143</ele><time>2026-04-04T10:07:28.824Z</time></trkpt><trkpt lat="41.9310133" lon="-8.00521"><ele>704.0</ele><time>2026-04-04T10:07:30.823Z</time></trkpt><trkpt lat="41.930945" lon="-8.0051167"><ele>702.4000000000001</ele><time>2026-04-04T10:07:32.822Z</time></trkpt><trkpt lat="41.93087" lon="-8.0049883"><ele>700.8</ele><time>2026-04-04T10:07:34.822Z</time></trkpt><trkpt lat="41.93082" lon="-8.0048917"><ele>699.2</ele><time>2026-04-04T10:07:35.822Z</time></trkpt><trkpt lat="41.9307667" lon="-8.004795"><ele>697.5999999999999</ele><time>2026-04-04T10:07:36.822Z</time></trkpt><trkpt lat="41.9307167" lon="-8.0047117"><ele>696.0</ele><time>2026-04-04T10:07:37.822Z</time></trkpt><trkpt lat="41.9306667" lon="-8.0046417"><ele>696.0</ele><time>2026-04-04T10:07:38.823Z</time></trkpt><trkpt lat="41.930585" lon="-8.00454"><ele>696.0</ele><time>2026-04-04T10:07:40.824Z</time></trkpt><trkpt lat="41.9305317" lon="-8.0044683"><ele>696.0</ele><time>2026-04-04T10:07:42.823Z</time></trkpt><trkpt lat="41.9304817" lon="-8.0043833"><ele>696.0</ele><time>2026-04-04T10:07:45.822Z</time></trkpt><trkpt lat="41.93042" lon="-8.0043233"><ele>696.0</ele><time>2026-04-04T10:07:47.822Z</time></trkpt><trkpt lat="41.930345" lon="-8.004285"><ele>696.0</ele><time>2026-04-04T10:07:50.823Z</time></trkpt><trkpt lat="41.93028" lon="-8.00423"><ele>696.0</ele><time>2026-04-04T10:07:53.822Z</time></trkpt><trkpt lat="41.9302117" lon="-8.00418"><ele>696.0</ele><time>2026-04-04T10:07:56.822Z</time></trkpt><trkpt lat="41.9301517" lon="-8.0041533"><ele>696.0</ele><time>2026-04-04T10:07:58.822Z</time></trkpt><trkpt lat="41.9300867" lon="-8.004145"><ele>696.0</ele><time>2026-04-04T10:08:00.823Z</time></trkpt><trkpt lat="41.9300233" lon="-8.0041183"><ele>696.0</ele><time>2026-04-04T10:08:02.823Z</time></trkpt><trkpt lat="41.9299417" lon="-8.0040817"><ele>696.0</ele><time>2026-04-04T10:08:04.823Z</time></trkpt><trkpt lat="41.9298683" lon="-8.00402"><ele>696.0</ele><time>2026-04-04T10:08:07.822Z</time></trkpt><trkpt lat="41.92975" lon="-8.0040033"><ele>697.0</ele><time>2026-04-04T10:11:43.823Z</time></trkpt><trkpt lat="41.9298217" lon="-8.00399"><ele>698.0</ele><time>2026-04-04T10:14:01.826Z</time></trkpt><trkpt lat="41.9299167" lon="-8.0040183"><ele>699.0</ele><time>2026-04-04T10:14:04.826Z</time></trkpt><trkpt lat="41.9299967" lon="-8.0040467"><ele>700.0</ele><time>2026-04-04T10:14:06.824Z</time></trkpt><trkpt lat="41.9300683" lon="-8.0040533"><ele>701.0</ele><time>2026-04-04T10:14:08.825Z</time></trkpt><trkpt lat="41.9301417" lon="-8.0040717"><ele>702.0</ele><time>2026-04-04T10:14:10.826Z</time></trkpt><trkpt lat="41.9302083" lon="-8.004125"><ele>701.0</ele><time>2026-04-04T10:14:12.826Z</time></trkpt><trkpt lat="41.93028" lon="-8.0041683"><ele>700.0</ele><time>2026-04-04T10:14:14.826Z</time></trkpt><trkpt lat="41.9303483" lon="-8.0042083"><ele>699.0</ele><time>2026-04-04T10:14:16.825Z</time></trkpt><trkpt lat="41.9304217" lon="-8.0042683"><ele>698.0</ele><time>2026-04-04T10:14:18.826Z</time></trkpt><trkpt lat="41.9304833" lon="-8.0043433"><ele>697.0</ele><time>2026-04-04T10:14:20.826Z</time></trkpt><trkpt lat="41.9305383" lon="-8.0044133"><ele>696.0</ele><time>2026-04-04T10:14:22.826Z</time></trkpt><trkpt lat="41.9305917" lon="-8.0044933"><ele>696.0</ele><time>2026-04-04T10:14:25.825Z</time></trkpt><trkpt lat="41.9306417" lon="-8.0045767"><ele>696.0</ele><time>2026-04-04T10:14:28.824Z</time></trkpt><trkpt lat="41.9306983" lon="-8.004665"><ele>696.0</ele><time>2026-04-04T10:14:31.824Z</time></trkpt><trkpt lat="41.930755" lon="-8.0047383"><ele>696.0</ele><time>2026-04-04T10:14:35.826Z</time></trkpt><trkpt lat="41.9308133" lon="-8.0048267"><ele>696.0</ele><time>2026-04-04T10:14:39.826Z</time></trkpt><trkpt lat="41.9308333" lon="-8.00491"><ele>696.0</ele><time>2026-04-04T10:14:58.827Z</time></trkpt><trkpt lat="41.9308817" lon="-8.004975"><ele>697.3333333333334</ele><time>2026-04-04T10:15:01.826Z</time></trkpt><trkpt lat="41.93095" lon="-8.0050533"><ele>698.6666666666666</ele><time>2026-04-04T10:15:13.825Z</time></trkpt><trkpt lat="41.9309967" lon="-8.0051467"><ele>700.0</ele><time>2026-04-04T10:15:16.828Z</time></trkpt><trkpt lat="41.9310433" lon="-8.0052183"><ele>701.3333333333333</ele><time>2026-04-04T10:15:19.824Z</time></trkpt><trkpt lat="41.931095" lon="-8.0052967"><ele>702.6666666666666</ele><time>2026-04-04T10:15:23.826Z</time></trkpt><trkpt lat="41.9311617" lon="-8.00537"><ele>704.0</ele><time>2026-04-04T10:15:26.825Z</time></trkpt><trkpt lat="41.9312167" lon="-8.0054417"><ele>704.0</ele><time>2026-04-04T10:15:29.827Z</time></trkpt><trkpt lat="41.9312583" lon="-8.0055167"><ele>704.0</ele><time>2026-04-04T10:15:32.827Z</time></trkpt><trkpt lat="41.931295" lon="-8.00561"><ele>704.0</ele><time>2026-04-04T10:15:35.826Z</time></trkpt><trkpt lat="41.9313233" lon="-8.0057"><ele>704.0</ele><time>2026-04-04T10:15:37.827Z</time></trkpt><trkpt lat="41.9313717" lon="-8.0057933"><ele>704.0</ele><time>2026-04-04T10:15:40.827Z</time></trkpt><trkpt lat="41.9313933" lon="-8.0058783"><ele>704.0</ele><time>2026-04-04T10:15:42.828Z</time></trkpt><trkpt lat="41.9314117" lon="-8.0059817"><ele>703.2857142857143</ele><time>2026-04-04T10:15:44.826Z</time></trkpt><trkpt lat="41.9314117" lon="-8.00607"><ele>702.5714285714286</ele><time>2026-04-04T10:15:46.827Z</time></trkpt><trkpt lat="41.9314183" lon="-8.00617"><ele>701.8571428571429</ele><time>2026-04-04T10:15:48.825Z</time></trkpt><trkpt lat="41.9314083" lon="-8.0062917"><ele>701.1428571428571</ele><time>2026-04-04T10:16:11.827Z</time></trkpt><trkpt lat="41.9314067" lon="-8.0063767"><ele>700.4285714285714</ele><time>2026-04-04T10:16:14.825Z</time></trkpt><trkpt lat="41.9314333" lon="-8.006465"><ele>699.7142857142857</ele><time>2026-04-04T10:16:17.827Z</time></trkpt><trkpt lat="41.9315083" lon="-8.0064933"><ele>699.0</ele><time>2026-04-04T10:16:21.826Z</time></trkpt><trkpt lat="41.9315783" lon="-8.0065033"><ele>699.0</ele><time>2026-04-04T10:16:25.826Z</time></trkpt><trkpt lat="41.9316567" lon="-8.0064333"><ele>699.0</ele><time>2026-04-04T10:16:28.825Z</time></trkpt><trkpt lat="41.9317483" lon="-8.006365"><ele>699.0</ele><time>2026-04-04T10:16:30.826Z</time></trkpt><trkpt lat="41.9318383" lon="-8.0063117"><ele>699.0</ele><time>2026-04-04T10:16:32.825Z</time></trkpt><trkpt lat="41.9319217" lon="-8.00624"><ele>699.0</ele><time>2026-04-04T10:16:34.827Z</time></trkpt><trkpt lat="41.9320017" lon="-8.00614"><ele>699.8333333333334</ele><time>2026-04-04T10:16:36.827Z</time></trkpt><trkpt lat="41.9319817" lon="-8.00605"><ele>700.6666666666666</ele><time>2026-04-04T10:16:39.824Z</time></trkpt><trkpt lat="41.93192" lon="-8.0059617"><ele>701.5</ele><time>2026-04-04T10:16:41.827Z</time></trkpt><trkpt lat="41.9318717" lon="-8.0058983"><ele>702.3333333333333</ele><time>2026-04-04T10:16:42.825Z</time></trkpt><trkpt lat="41.9318067" lon="-8.0058083"><ele>703.1666666666666</ele><time>2026-04-04T10:16:43.829Z</time></trkpt><trkpt lat="41.9317367" lon="-8.0057033"><ele>704.0</ele><time>2026-04-04T10:16:44.828Z</time></trkpt><trkpt lat="41.931675" lon="-8.0055983"><ele>704.0</ele><time>2026-04-04T10:16:45.828Z</time></trkpt><trkpt lat="41.93162" lon="-8.0055"><ele>704.0</ele><time>2026-04-04T10:16:46.826Z</time></trkpt><trkpt lat="41.93155" lon="-8.0053867"><ele>704.0</ele><time>2026-04-04T10:16:47.827Z</time></trkpt><trkpt lat="41.9314817" lon="-8.0052783"><ele>704.0</ele><time>2026-04-04T10:16:48.825Z</time></trkpt><trkpt lat="41.9314033" lon="-8.0051767"><ele>704.0</ele><time>2026-04-04T10:16:49.826Z</time></trkpt><trkpt lat="41.9313233" lon="-8.0050767"><ele>706.4000000000001</ele><time>2026-04-04T10:16:50.825Z</time></trkpt><trkpt lat="41.9312467" lon="-8.00498"><ele>708.8</ele><time>2026-04-04T10:16:51.825Z</time></trkpt><trkpt lat="41.93117" lon="-8.00488"><ele>711.2</ele><time>2026-04-04T10:16:52.827Z</time></trkpt><trkpt lat="41.9311" lon="-8.004785"><ele>713.5999999999999</ele><time>2026-04-04T10:16:53.826Z</time></trkpt><trkpt lat="41.9310283" lon="-8.0046917"><ele>716.0</ele><time>2026-04-04T10:16:54.825Z</time></trkpt><trkpt lat="41.9309567" lon="-8.0045983"><ele>713.1999999999999</ele><time>2026-04-04T10:16:55.825Z</time></trkpt><trkpt lat="41.9308867" lon="-8.004505"><ele>710.4</ele><time>2026-04-04T10:16:56.825Z</time></trkpt><trkpt lat="41.930815" lon="-8.004415"><ele>707.6</ele><time>2026-04-04T10:16:57.826Z</time></trkpt><trkpt lat="41.9307417" lon="-8.004325"><ele>704.8</ele><time>2026-04-04T10:16:58.824Z</time></trkpt><trkpt lat="41.93067" lon="-8.004235"><ele>702.0</ele><time>2026-04-04T10:16:59.827Z</time></trkpt><trkpt lat="41.9305967" lon="-8.0041517"><ele>702.0</ele><time>2026-04-04T10:17:00.827Z</time></trkpt><trkpt lat="41.9305233" lon="-8.0040733"><ele>702.0</ele><time>2026-04-04T10:17:01.825Z</time></trkpt><trkpt lat="41.9304483" lon="-8.0040033"><ele>702.0</ele><time>2026-04-04T10:17:02.824Z</time></trkpt><trkpt lat="41.9303733" lon="-8.0039417"><ele>702.0</ele><time>2026-04-04T10:17:03.826Z</time></trkpt><trkpt lat="41.9302983" lon="-8.0038817"><ele>702.0</ele><time>2026-04-04T10:17:04.823Z</time></trkpt><trkpt lat="41.930155" lon="-8.0038"><ele>702.0</ele><time>2026-04-04T10:17:06.825Z</time></trkpt><trkpt lat="41.930075" lon="-8.003735"><ele>702.0</ele><time>2026-04-04T10:17:07.824Z</time></trkpt><trkpt lat="41.93" lon="-8.0036867"><ele>702.0</ele><time>2026-04-04T10:17:08.823Z</time></trkpt><trkpt lat="41.9299417" lon="-8.0036183"><ele>702.0</ele><time>2026-04-04T10:17:09.824Z</time></trkpt><trkpt lat="41.9298917" lon="-8.003535"><ele>702.0</ele><time>2026-04-04T10:17:10.823Z</time></trkpt><trkpt lat="41.92984" lon="-8.0034383"><ele>702.0</ele><time>2026-04-04T10:17:11.824Z</time></trkpt><trkpt lat="41.9297983" lon="-8.0033383"><ele>698.8333333333334</ele><time>2026-04-04T10:17:12.823Z</time></trkpt><trkpt lat="41.929765" lon="-8.00323"><ele>695.6666666666666</ele><time>2026-04-04T10:17:13.823Z</time></trkpt><trkpt lat="41.9297333" lon="-8.0031183"><ele>692.5</ele><time>2026-04-04T10:17:14.825Z</time></trkpt><trkpt lat="41.9297017" lon="-8.0030067"><ele>689.3333333333333</ele><time>2026-04-04T10:17:15.823Z</time></trkpt><trkpt lat="41.9296733" lon="-8.00291"><ele>686.1666666666666</ele><time>2026-04-04T10:17:16.823Z</time></trkpt><trkpt lat="41.9296417" lon="-8.0028117"><ele>683.0</ele><time>2026-04-04T10:17:17.825Z</time></trkpt><trkpt lat="41.929605" lon="-8.0027117"><ele>683.0</ele><time>2026-04-04T10:17:18.823Z</time></trkpt><trkpt lat="41.9295633" lon="-8.002615"><ele>683.0</ele><time>2026-04-04T10:17:19.823Z</time></trkpt><trkpt lat="41.929515" lon="-8.0025117"><ele>683.0</ele><time>2026-04-04T10:17:20.823Z</time></trkpt><trkpt lat="41.9294667" lon="-8.0024167"><ele>683.0</ele><time>2026-04-04T10:17:21.823Z</time></trkpt><trkpt lat="41.9294267" lon="-8.00233"><ele>683.0</ele><time>2026-04-04T10:17:22.822Z</time></trkpt><trkpt lat="41.9293883" lon="-8.00225"><ele>683.0</ele><time>2026-04-04T10:17:23.822Z</time></trkpt><trkpt lat="41.9293367" lon="-8.00212"><ele>682.8333333333333</ele><time>2026-04-04T10:17:25.824Z</time></trkpt><trkpt lat="41.9293067" lon="-8.0019967"><ele>682.6666666666666</ele><time>2026-04-04T10:18:23.824Z</time></trkpt><trkpt lat="41.9292833" lon="-8.0018917"><ele>682.5</ele><time>2026-04-04T10:18:25.823Z</time></trkpt><trkpt lat="41.92926" lon="-8.0018083"><ele>682.3333333333334</ele><time>2026-04-04T10:18:27.823Z</time></trkpt><trkpt lat="41.92922" lon="-8.0017417"><ele>682.1666666666667</ele><time>2026-04-04T10:18:29.823Z</time></trkpt><trkpt lat="41.929155" lon="-8.0017033"><ele>682.0</ele><time>2026-04-04T10:18:31.824Z</time></trkpt><trkpt lat="41.929075" lon="-8.0016783"><ele>683.5</ele><time>2026-04-04T10:18:33.824Z</time></trkpt><trkpt lat="41.9290033" lon="-8.0016533"><ele>685.0</ele><time>2026-04-04T10:18:35.826Z</time></trkpt><trkpt lat="41.928925" lon="-8.001625"><ele>686.5</ele><time>2026-04-04T10:18:37.823Z</time></trkpt><trkpt lat="41.9288267" lon="-8.0015667"><ele>688.0</ele><time>2026-04-04T10:18:39.823Z</time></trkpt><trkpt lat="41.9287617" lon="-8.0015367"><ele>689.5</ele><time>2026-04-04T10:18:40.824Z</time></trkpt><trkpt lat="41.9286817" lon="-8.0015117"><ele>691.0</ele><time>2026-04-04T10:18:41.823Z</time></trkpt><trkpt lat="41.9285983" lon="-8.00149"><ele>691.0</ele><time>2026-04-04T10:18:42.825Z</time></trkpt><trkpt lat="41.9285117" lon="-8.0014583"><ele>691.0</ele><time>2026-04-04T10:18:43.824Z</time></trkpt><trkpt lat="41.9284267" lon="-8.0014117"><ele>691.0</ele><time>2026-04-04T10:18:44.825Z</time></trkpt><trkpt lat="41.928335" lon="-8.0013267"><ele>691.0</ele><time>2026-04-04T10:18:45.823Z</time></trkpt><trkpt lat="41.928255" lon="-8.0012467"><ele>691.0</ele><time>2026-04-04T10:18:46.823Z</time></trkpt><trkpt lat="41.9281833" lon="-8.0011833"><ele>692.1666666666667</ele><time>2026-04-04T10:18:47.824Z</time></trkpt><trkpt lat="41.9281167" lon="-8.0011317"><ele>693.3333333333334</ele><time>2026-04-04T10:18:48.823Z</time></trkpt><trkpt lat="41.9280533" lon="-8.0011017"><ele>694.5</ele><time>2026-04-04T10:18:49.823Z</time></trkpt><trkpt lat="41.92799" lon="-8.0011033"><ele>695.6666666666666</ele><time>2026-04-04T10:18:50.824Z</time></trkpt><trkpt lat="41.9279333" lon="-8.0011467"><ele>696.8333333333333</ele><time>2026-04-04T10:18:51.825Z</time></trkpt><trkpt lat="41.9278967" lon="-8.0012167"><ele>698.0</ele><time>2026-04-04T10:18:52.824Z</time></trkpt><trkpt lat="41.9278067" lon="-8.00131"><ele>698.0</ele><time>2026-04-04T10:18:54.823Z</time></trkpt><trkpt lat="41.92771" lon="-8.0013433"><ele>698.0</ele><time>2026-04-04T10:18:56.824Z</time></trkpt><trkpt lat="41.9276033" lon="-8.0013233"><ele>698.0</ele><time>2026-04-04T10:18:58.823Z</time></trkpt><trkpt lat="41.9275067" lon="-8.00131"><ele>698.0</ele><time>2026-04-04T10:19:00.824Z</time></trkpt><trkpt lat="41.9274233" lon="-8.001255"><ele>698.0</ele><time>2026-04-04T10:19:02.824Z</time></trkpt><trkpt lat="41.9273967" lon="-8.001175"><ele>699.3333333333333</ele><time>2026-04-04T10:19:04.823Z</time></trkpt><trkpt lat="41.9274283" lon="-8.00106"><ele>700.6666666666666</ele><time>2026-04-04T10:19:06.824Z</time></trkpt><trkpt lat="41.9275067" lon="-8.0009517"><ele>702.0</ele><time>2026-04-04T10:19:08.824Z</time></trkpt><trkpt lat="41.9275567" lon="-8.0008917"><ele>703.3333333333334</ele><time>2026-04-04T10:19:09.823Z</time></trkpt><trkpt lat="41.9276067" lon="-8.00082"><ele>704.6666666666667</ele><time>2026-04-04T10:19:10.825Z</time></trkpt><trkpt lat="41.92766" lon="-8.0007317"><ele>706.0</ele><time>2026-04-04T10:19:11.824Z</time></trkpt><trkpt lat="41.92772" lon="-8.00064"><ele>707.1999999999999</ele><time>2026-04-04T10:19:12.823Z</time></trkpt><trkpt lat="41.92778" lon="-8.0005467"><ele>708.4</ele><time>2026-04-04T10:19:13.825Z</time></trkpt><trkpt lat="41.9278483" lon="-8.000475"><ele>709.6</ele><time>2026-04-04T10:19:14.826Z</time></trkpt><trkpt lat="41.92792" lon="-8.0004183"><ele>710.8</ele><time>2026-04-04T10:19:15.822Z</time></trkpt><trkpt lat="41.9280183" lon="-8.00038"><ele>712.0</ele><time>2026-04-04T10:19:16.823Z</time></trkpt><trkpt lat="41.928135" lon="-8.00033"><ele>712.0</ele><time>2026-04-04T10:19:17.824Z</time></trkpt><trkpt lat="41.928255" lon="-8.0002633"><ele>712.0</ele><time>2026-04-04T10:19:18.823Z</time></trkpt><trkpt lat="41.9283617" lon="-8.0001767"><ele>712.0</ele><time>2026-04-04T10:19:19.824Z</time></trkpt><trkpt lat="41.9284617" lon="-8.0000867"><ele>712.0</ele><time>2026-04-04T10:19:20.824Z</time></trkpt><trkpt lat="41.928555" lon="-7.9999817"><ele>710.25</ele><time>2026-04-04T10:19:21.823Z</time></trkpt><trkpt lat="41.928645" lon="-7.9998667"><ele>708.5</ele><time>2026-04-04T10:19:22.824Z</time></trkpt><trkpt lat="41.9287433" lon="-7.9997617"><ele>706.75</ele><time>2026-04-04T10:19:23.824Z</time></trkpt><trkpt lat="41.9288467" lon="-7.999665"><ele>705.0</ele><time>2026-04-04T10:19:24.823Z</time></trkpt><trkpt lat="41.928965" lon="-7.99959"><ele>705.0</ele><time>2026-04-04T10:19:25.823Z</time></trkpt><trkpt lat="41.92908" lon="-7.9995183"><ele>705.0</ele><time>2026-04-04T10:19:26.824Z</time></trkpt><trkpt lat="41.9291817" lon="-7.9994617"><ele>705.0</ele><time>2026-04-04T10:19:27.823Z</time></trkpt><trkpt lat="41.9292767" lon="-7.9994233"><ele>705.0</ele><time>2026-04-04T10:19:28.823Z</time></trkpt><trkpt lat="41.9293533" lon="-7.9993967"><ele>705.0</ele><time>2026-04-04T10:19:29.823Z</time></trkpt><trkpt lat="41.9294533" lon="-7.9993533"><ele>705.5</ele><time>2026-04-04T10:19:31.824Z</time></trkpt><trkpt lat="41.9295233" lon="-7.99929"><ele>706.0</ele><time>2026-04-04T10:19:33.823Z</time></trkpt><trkpt lat="41.929555" lon="-7.99915"><ele>706.5</ele><time>2026-04-04T10:19:35.824Z</time></trkpt><trkpt lat="41.92958" lon="-7.9990683"><ele>707.0</ele><time>2026-04-04T10:19:36.825Z</time></trkpt><trkpt lat="41.9296133" lon="-7.99897"><ele>707.5</ele><time>2026-04-04T10:19:37.823Z</time></trkpt><trkpt lat="41.929645" lon="-7.9988783"><ele>708.0</ele><time>2026-04-04T10:19:38.824Z</time></trkpt><trkpt lat="41.9296517" lon="-7.99875"><ele>708.0</ele><time>2026-04-04T10:19:39.823Z</time></trkpt><trkpt lat="41.92966" lon="-7.998625"><ele>708.0</ele><time>2026-04-04T10:19:40.826Z</time></trkpt><trkpt lat="41.9296733" lon="-7.998495"><ele>708.0</ele><time>2026-04-04T10:19:41.824Z</time></trkpt><trkpt lat="41.9296717" lon="-7.9983133"><ele>708.0</ele><time>2026-04-04T10:19:42.823Z</time></trkpt><trkpt lat="41.9296733" lon="-7.9981483"><ele>708.0</ele><time>2026-04-04T10:19:43.824Z</time></trkpt><trkpt lat="41.9296717" lon="-7.9979583"><ele>709.8</ele><time>2026-04-04T10:19:44.824Z</time></trkpt><trkpt lat="41.92968" lon="-7.997795"><ele>711.5999999999999</ele><time>2026-04-04T10:19:45.824Z</time></trkpt><trkpt lat="41.929685" lon="-7.9976567"><ele>713.4000000000001</ele><time>2026-04-04T10:19:46.823Z</time></trkpt><trkpt lat="41.929695" lon="-7.9975383"><ele>715.2</ele><time>2026-04-04T10:19:47.824Z</time></trkpt><trkpt lat="41.9296933" lon="-7.997405"><ele>717.0</ele><time>2026-04-04T10:19:49.823Z</time></trkpt><trkpt lat="41.92962" lon="-7.9974617"><ele>717.0</ele><time>2026-04-04T10:19:52.823Z</time></trkpt><trkpt lat="41.9295117" lon="-7.9975683"><ele>717.0</ele><time>2026-04-04T10:19:54.825Z</time></trkpt><trkpt lat="41.9294467" lon="-7.9976117"><ele>717.0</ele><time>2026-04-04T10:19:55.825Z</time></trkpt><trkpt lat="41.9293767" lon="-7.9976467"><ele>717.0</ele><time>2026-04-04T10:19:56.825Z</time></trkpt><trkpt lat="41.9293067" lon="-7.9976583"><ele>717.0</ele><time>2026-04-04T10:19:57.824Z</time></trkpt><trkpt lat="41.929195" lon="-7.997605"><ele>718.0</ele><time>2026-04-04T10:19:59.825Z</time></trkpt><trkpt lat="41.9291383" lon="-7.9975517"><ele>719.0</ele><time>2026-04-04T10:20:00.825Z</time></trkpt><trkpt lat="41.929075" lon="-7.99746"><ele>720.0</ele><time>2026-04-04T10:20:01.824Z</time></trkpt><trkpt lat="41.9290017" lon="-7.9973833"><ele>721.0</ele><time>2026-04-04T10:20:02.824Z</time></trkpt><trkpt lat="41.9289267" lon="-7.9973267"><ele>722.0</ele><time>2026-04-04T10:20:03.823Z</time></trkpt><trkpt lat="41.9288467" lon="-7.99729"><ele>723.0</ele><time>2026-04-04T10:20:04.823Z</time></trkpt><trkpt lat="41.9287717" lon="-7.9972883"><ele>723.4</ele><time>2026-04-04T10:20:05.825Z</time></trkpt><trkpt lat="41.9286967" lon="-7.9973133"><ele>723.8</ele><time>2026-04-04T10:20:06.824Z</time></trkpt><trkpt lat="41.9286167" lon="-7.9973617"><ele>724.2</ele><time>2026-04-04T10:20:07.823Z</time></trkpt><trkpt lat="41.9285217" lon="-7.9974033"><ele>724.6</ele><time>2026-04-04T10:20:08.824Z</time></trkpt><trkpt lat="41.928415" lon="-7.9974167"><ele>725.0</ele><time>2026-04-04T10:20:09.824Z</time></trkpt><trkpt lat="41.928275" lon="-7.997415"><ele>726.75</ele><time>2026-04-04T10:20:10.824Z</time></trkpt><trkpt lat="41.928135" lon="-7.99741"><ele>728.5</ele><time>2026-04-04T10:20:11.824Z</time></trkpt><trkpt lat="41.9279983" lon="-7.9974083"><ele>730.25</ele><time>2026-04-04T10:20:12.823Z</time></trkpt><trkpt lat="41.9278817" lon="-7.9973983"><ele>732.0</ele><time>2026-04-04T10:20:13.824Z</time></trkpt><trkpt lat="41.9277833" lon="-7.997375"><ele>732.0</ele><time>2026-04-04T10:20:14.824Z</time></trkpt><trkpt lat="41.9277017" lon="-7.99733"><ele>732.0</ele><time>2026-04-04T10:20:15.823Z</time></trkpt><trkpt lat="41.92765" lon="-7.9972783"><ele>732.0</ele><time>2026-04-04T10:20:16.824Z</time></trkpt><trkpt lat="41.9276167" lon="-7.9972017"><ele>732.0</ele><time>2026-04-04T10:20:17.824Z</time></trkpt><trkpt lat="41.9276183" lon="-7.9970867"><ele>732.0</ele><time>2026-04-04T10:20:18.825Z</time></trkpt><trkpt lat="41.92764" lon="-7.9969333"><ele>732.0</ele><time>2026-04-04T10:20:19.823Z</time></trkpt><trkpt lat="41.927665" lon="-7.9967533"><ele>731.8</ele><time>2026-04-04T10:20:20.824Z</time></trkpt><trkpt lat="41.92768" lon="-7.99658"><ele>731.6</ele><time>2026-04-04T10:20:21.823Z</time></trkpt><trkpt lat="41.9276867" lon="-7.99643"><ele>731.4</ele><time>2026-04-04T10:20:22.823Z</time></trkpt><trkpt lat="41.927685" lon="-7.9963117"><ele>731.1999999999999</ele><time>2026-04-04T10:20:23.826Z</time></trkpt><trkpt lat="41.9276717" lon="-7.9962233"><ele>731.0</ele><time>2026-04-04T10:20:24.823Z</time></trkpt><trkpt lat="41.92762" lon="-7.9961283"><ele>732.3333333333333</ele><time>2026-04-04T10:20:26.823Z</time></trkpt><trkpt lat="41.9275533" lon="-7.9961333"><ele>733.6666666666666</ele><time>2026-04-04T10:20:28.823Z</time></trkpt><trkpt lat="41.9275183" lon="-7.9962917"><ele>735.0</ele><time>2026-04-04T10:20:30.826Z</time></trkpt><trkpt lat="41.9275317" lon="-7.9964217"><ele>736.3333333333334</ele><time>2026-04-04T10:20:31.824Z</time></trkpt><trkpt lat="41.927525" lon="-7.9965283"><ele>737.6666666666667</ele><time>2026-04-04T10:20:32.824Z</time></trkpt><trkpt lat="41.9275117" lon="-7.9966367"><ele>739.0</ele><time>2026-04-04T10:20:33.823Z</time></trkpt><trkpt lat="41.9274733" lon="-7.99675"><ele>740.25</ele><time>2026-04-04T10:20:34.822Z</time></trkpt><trkpt lat="41.92742" lon="-7.996875"><ele>741.5</ele><time>2026-04-04T10:20:35.824Z</time></trkpt><trkpt lat="41.9273617" lon="-7.9970117"><ele>742.75</ele><time>2026-04-04T10:20:36.823Z</time></trkpt><trkpt lat="41.9273117" lon="-7.9971617"><ele>744.0</ele><time>2026-04-04T10:20:37.824Z</time></trkpt><trkpt lat="41.9272817" lon="-7.997315"><ele>744.0</ele><time>2026-04-04T10:20:38.826Z</time></trkpt><trkpt lat="41.92726" lon="-7.9974783"><ele>744.0</ele><time>2026-04-04T10:20:39.825Z</time></trkpt><trkpt lat="41.92725" lon="-7.9976383"><ele>744.0</ele><time>2026-04-04T10:20:40.824Z</time></trkpt><trkpt lat="41.9272417" lon="-7.9977767"><ele>744.0</ele><time>2026-04-04T10:20:41.825Z</time></trkpt><trkpt lat="41.9272283" lon="-7.997885"><ele>744.0</ele><time>2026-04-04T10:20:42.825Z</time></trkpt><trkpt lat="41.9272117" lon="-7.997985"><ele>744.3333333333334</ele><time>2026-04-04T10:20:43.822Z</time></trkpt><trkpt lat="41.9271783" lon="-7.9980683"><ele>744.6666666666666</ele><time>2026-04-04T10:20:44.823Z</time></trkpt><trkpt lat="41.92712" lon="-7.99813"><ele>745.0</ele><time>2026-04-04T10:20:45.823Z</time></trkpt><trkpt lat="41.92705" lon="-7.998185"><ele>745.3333333333333</ele><time>2026-04-04T10:20:46.822Z</time></trkpt><trkpt lat="41.92694" lon="-7.9982083"><ele>745.6666666666666</ele><time>2026-04-04T10:20:47.823Z</time></trkpt><trkpt lat="41.92684" lon="-7.9982567"><ele>746.0</ele><time>2026-04-04T10:20:48.824Z</time></trkpt><trkpt lat="41.926735" lon="-7.9983167"><ele>745.25</ele><time>2026-04-04T10:20:49.823Z</time></trkpt><trkpt lat="41.9266267" lon="-7.9983917"><ele>744.5</ele><time>2026-04-04T10:20:50.824Z</time></trkpt><trkpt lat="41.9265133" lon="-7.9984733"><ele>743.75</ele><time>2026-04-04T10:20:51.822Z</time></trkpt><trkpt lat="41.9263883" lon="-7.9985483"><ele>743.0</ele><time>2026-04-04T10:20:52.824Z</time></trkpt><trkpt lat="41.926265" lon="-7.9986183"><ele>743.0</ele><time>2026-04-04T10:20:53.823Z</time></trkpt><trkpt lat="41.92614" lon="-7.998675"><ele>743.0</ele><time>2026-04-04T10:20:54.823Z</time></trkpt><trkpt lat="41.92602" lon="-7.9987"><ele>743.0</ele><time>2026-04-04T10:20:55.825Z</time></trkpt><trkpt lat="41.9258917" lon="-7.9987183"><ele>743.0</ele><time>2026-04-04T10:20:56.827Z</time></trkpt><trkpt lat="41.925755" lon="-7.998735"><ele>743.25</ele><time>2026-04-04T10:20:57.825Z</time></trkpt><trkpt lat="41.9256083" lon="-7.9987517"><ele>743.5</ele><time>2026-04-04T10:20:58.823Z</time></trkpt><trkpt lat="41.925475" lon="-7.9987667"><ele>743.75</ele><time>2026-04-04T10:20:59.823Z</time></trkpt><trkpt lat="41.92536" lon="-7.9987967"><ele>744.0</ele><time>2026-04-04T10:21:00.823Z</time></trkpt><trkpt lat="41.9252667" lon="-7.9988317"><ele>744.0</ele><time>2026-04-04T10:21:01.824Z</time></trkpt><trkpt lat="41.9251883" lon="-7.9988517"><ele>744.0</ele><time>2026-04-04T10:21:02.823Z</time></trkpt><trkpt lat="41.9251233" lon="-7.9988617"><ele>744.0</ele><time>2026-04-04T10:21:03.823Z</time></trkpt><trkpt lat="41.9250567" lon="-7.9988533"><ele>744.0</ele><time>2026-04-04T10:21:05.824Z</time></trkpt><trkpt lat="41.9251017" lon="-7.9987083"><ele>744.0</ele><time>2026-04-04T10:21:07.823Z</time></trkpt><trkpt lat="41.9252" lon="-7.9985367"><ele>744.0</ele><time>2026-04-04T10:21:08.824Z</time></trkpt><trkpt lat="41.92527" lon="-7.99841"><ele>744.0</ele><time>2026-04-04T10:21:09.823Z</time></trkpt><trkpt lat="41.9253433" lon="-7.998235"><ele>744.0</ele><time>2026-04-04T10:21:10.824Z</time></trkpt><trkpt lat="41.925415" lon="-7.9980483"><ele>744.0</ele><time>2026-04-04T10:21:11.825Z</time></trkpt><trkpt lat="41.9254867" lon="-7.9978767"><ele>744.0</ele><time>2026-04-04T10:21:12.823Z</time></trkpt><trkpt lat="41.925555" lon="-7.997715"><ele>744.0</ele><time>2026-04-04T10:21:13.824Z</time></trkpt><trkpt lat="41.925605" lon="-7.9975483"><ele>744.0</ele><time>2026-04-04T10:21:14.823Z</time></trkpt><trkpt lat="41.9256317" lon="-7.99737"><ele>744.0</ele><time>2026-04-04T10:21:15.823Z</time></trkpt><trkpt lat="41.9256567" lon="-7.9971933"><ele>745.0</ele><time>2026-04-04T10:21:16.824Z</time></trkpt><trkpt lat="41.9256733" lon="-7.9970083"><ele>746.0</ele><time>2026-04-04T10:21:17.824Z</time></trkpt><trkpt lat="41.9256783" lon="-7.9968167"><ele>747.0</ele><time>2026-04-04T10:21:18.823Z</time></trkpt><trkpt lat="41.9256717" lon="-7.996635"><ele>748.0</ele><time>2026-04-04T10:21:19.823Z</time></trkpt><trkpt lat="41.925655" lon="-7.99646"><ele>749.0</ele><time>2026-04-04T10:21:20.823Z</time></trkpt><trkpt lat="41.9256167" lon="-7.996315"><ele>750.0</ele><time>2026-04-04T10:21:21.823Z</time></trkpt><trkpt lat="41.9255633" lon="-7.9962017"><ele>751.0</ele><time>2026-04-04T10:21:22.824Z</time></trkpt><trkpt lat="41.9255" lon="-7.99613"><ele>752.0</ele><time>2026-04-04T10:21:23.823Z</time></trkpt><trkpt lat="41.925425" lon="-7.996075"><ele>753.0</ele><time>2026-04-04T10:21:24.824Z</time></trkpt><trkpt lat="41.92534" lon="-7.996055"><ele>753.0</ele><time>2026-04-04T10:21:25.824Z</time></trkpt><trkpt lat="41.925235" lon="-7.996055"><ele>753.0</ele><time>2026-04-04T10:21:26.825Z</time></trkpt><trkpt lat="41.9251233" lon="-7.9960567"><ele>753.0</ele><time>2026-04-04T10:21:27.823Z</time></trkpt><trkpt lat="41.9250117" lon="-7.9960433"><ele>753.0</ele><time>2026-04-04T10:21:28.823Z</time></trkpt><trkpt lat="41.92492" lon="-7.99601"><ele>753.0</ele><time>2026-04-04T10:21:29.826Z</time></trkpt><trkpt lat="41.9248467" lon="-7.9959517"><ele>754.0</ele><time>2026-04-04T10:21:30.822Z</time></trkpt><trkpt lat="41.92478" lon="-7.9958733"><ele>755.0</ele><time>2026-04-04T10:21:31.823Z</time></trkpt><trkpt lat="41.9247317" lon="-7.9957633"><ele>756.0</ele><time>2026-04-04T10:21:32.824Z</time></trkpt><trkpt lat="41.9246817" lon="-7.995665"><ele>757.0</ele><time>2026-04-04T10:21:33.823Z</time></trkpt><trkpt lat="41.9246233" lon="-7.9955883"><ele>758.0</ele><time>2026-04-04T10:21:34.823Z</time></trkpt><trkpt lat="41.9245633" lon="-7.9955467"><ele>759.0</ele><time>2026-04-04T10:21:35.824Z</time></trkpt><trkpt lat="41.9244967" lon="-7.995545"><ele>759.0</ele><time>2026-04-04T10:21:36.823Z</time></trkpt><trkpt lat="41.9244283" lon="-7.99555"><ele>759.0</ele><time>2026-04-04T10:21:37.823Z</time></trkpt><trkpt lat="41.9243483" lon="-7.9956083"><ele>759.0</ele><time>2026-04-04T10:21:38.824Z</time></trkpt><trkpt lat="41.9242733" lon="-7.995655"><ele>759.0</ele><time>2026-04-04T10:21:39.823Z</time></trkpt><trkpt lat="41.9242" lon="-7.9957367"><ele>759.0</ele><time>2026-04-04T10:21:40.824Z</time></trkpt><trkpt lat="41.9241217" lon="-7.9958233"><ele>759.0</ele><time>2026-04-04T10:21:41.823Z</time></trkpt><trkpt lat="41.9240333" lon="-7.995925"><ele>763.75</ele><time>2026-04-04T10:21:42.823Z</time></trkpt><trkpt lat="41.92393" lon="-7.996045"><ele>768.5</ele><time>2026-04-04T10:21:43.827Z</time></trkpt><trkpt lat="41.9238167" lon="-7.99617"><ele>773.25</ele><time>2026-04-04T10:21:44.823Z</time></trkpt><trkpt lat="41.923725" lon="-7.9962667"><ele>778.0</ele><time>2026-04-04T10:21:45.823Z</time></trkpt><trkpt lat="41.9236583" lon="-7.9963517"><ele>778.0</ele><time>2026-04-04T10:21:46.825Z</time></trkpt><trkpt lat="41.9236067" lon="-7.9964333"><ele>778.0</ele><time>2026-04-04T10:21:47.823Z</time></trkpt><trkpt lat="41.9236" lon="-7.99657"><ele>778.0</ele><time>2026-04-04T10:21:49.823Z</time></trkpt><trkpt lat="41.9236533" lon="-7.996725"><ele>778.0</ele><time>2026-04-04T10:21:51.825Z</time></trkpt><trkpt lat="41.92371" lon="-7.9968067"><ele>778.0</ele><time>2026-04-04T10:21:52.824Z</time></trkpt><trkpt lat="41.9238" lon="-7.9969083"><ele>777.8333333333333</ele><time>2026-04-04T10:21:53.823Z</time></trkpt><trkpt lat="41.9238567" lon="-7.996995"><ele>777.6666666666666</ele><time>2026-04-04T10:21:54.823Z</time></trkpt><trkpt lat="41.9239083" lon="-7.99709"><ele>777.5</ele><time>2026-04-04T10:21:55.823Z</time></trkpt><trkpt lat="41.9239417" lon="-7.9971833"><ele>777.3333333333333</ele><time>2026-04-04T10:21:56.825Z</time></trkpt><trkpt lat="41.923945" lon="-7.99727"><ele>777.1666666666666</ele><time>2026-04-04T10:21:57.823Z</time></trkpt><trkpt lat="41.9239233" lon="-7.9973617"><ele>777.0</ele><time>2026-04-04T10:21:58.823Z</time></trkpt><trkpt lat="41.92387" lon="-7.9974333"><ele>777.0</ele><time>2026-04-04T10:21:59.824Z</time></trkpt><trkpt lat="41.92382" lon="-7.997495"><ele>777.0</ele><time>2026-04-04T10:22:00.823Z</time></trkpt><trkpt lat="41.9237333" lon="-7.997505"><ele>777.0</ele><time>2026-04-04T10:22:01.823Z</time></trkpt><trkpt lat="41.9236533" lon="-7.9974917"><ele>777.0</ele><time>2026-04-04T10:22:02.823Z</time></trkpt><trkpt lat="41.9235767" lon="-7.9974633"><ele>777.0</ele><time>2026-04-04T10:22:03.823Z</time></trkpt><trkpt lat="41.9234933" lon="-7.9973533"><ele>777.0</ele><time>2026-04-04T10:22:04.824Z</time></trkpt><trkpt lat="41.92341" lon="-7.99717"><ele>778.25</ele><time>2026-04-04T10:22:05.823Z</time></trkpt><trkpt lat="41.9233383" lon="-7.9970233"><ele>779.5</ele><time>2026-04-04T10:22:06.823Z</time></trkpt><trkpt lat="41.92326" lon="-7.9968683"><ele>780.75</ele><time>2026-04-04T10:22:07.824Z</time></trkpt><trkpt lat="41.9231667" lon="-7.9967283"><ele>782.0</ele><time>2026-04-04T10:22:08.823Z</time></trkpt><trkpt lat="41.9230567" lon="-7.9965967"><ele>782.0</ele><time>2026-04-04T10:22:09.823Z</time></trkpt><trkpt lat="41.9229467" lon="-7.99647"><ele>782.0</ele><time>2026-04-04T10:22:10.823Z</time></trkpt><trkpt lat="41.9228417" lon="-7.9963433"><ele>782.0</ele><time>2026-04-04T10:22:11.826Z</time></trkpt><trkpt lat="41.92274" lon="-7.9962167"><ele>782.0</ele><time>2026-04-04T10:22:12.823Z</time></trkpt><trkpt lat="41.92265" lon="-7.99609"><ele>782.0</ele><time>2026-04-04T10:22:13.823Z</time></trkpt><trkpt lat="41.9225733" lon="-7.9959417"><ele>782.0</ele><time>2026-04-04T10:22:14.824Z</time></trkpt><trkpt lat="41.9225183" lon="-7.9958083"><ele>782.0</ele><time>2026-04-04T10:22:15.823Z</time></trkpt><trkpt lat="41.92248" lon="-7.9956933"><ele>782.0</ele><time>2026-04-04T10:22:16.823Z</time></trkpt><trkpt lat="41.9224617" lon="-7.995565"><ele>782.0</ele><time>2026-04-04T10:22:17.823Z</time></trkpt><trkpt lat="41.9224633" lon="-7.9954217"><ele>784.6</ele><time>2026-04-04T10:22:18.823Z</time></trkpt><trkpt lat="41.9224717" lon="-7.9952767"><ele>787.2</ele><time>2026-04-04T10:22:19.823Z</time></trkpt><trkpt lat="41.9224617" lon="-7.9951467"><ele>789.8</ele><time>2026-04-04T10:22:20.823Z</time></trkpt><trkpt lat="41.9224333" lon="-7.9950367"><ele>792.4</ele><time>2026-04-04T10:22:21.823Z</time></trkpt><trkpt lat="41.922385" lon="-7.9949383"><ele>795.0</ele><time>2026-04-04T10:22:22.824Z</time></trkpt><trkpt lat="41.9223233" lon="-7.99486"><ele>795.0</ele><time>2026-04-04T10:22:23.823Z</time></trkpt><trkpt lat="41.9222467" lon="-7.994825"><ele>795.0</ele><time>2026-04-04T10:22:24.823Z</time></trkpt><trkpt lat="41.9221733" lon="-7.99479"><ele>795.0</ele><time>2026-04-04T10:22:25.826Z</time></trkpt><trkpt lat="41.9221033" lon="-7.994795"><ele>795.0</ele><time>2026-04-04T10:22:26.825Z</time></trkpt><trkpt lat="41.9220217" lon="-7.99482"><ele>795.0</ele><time>2026-04-04T10:22:27.823Z</time></trkpt><trkpt lat="41.9219617" lon="-7.9949117"><ele>795.0</ele><time>2026-04-04T10:22:28.824Z</time></trkpt><trkpt lat="41.9219083" lon="-7.9949733"><ele>795.3333333333334</ele><time>2026-04-04T10:22:29.824Z</time></trkpt><trkpt lat="41.9218333" lon="-7.99506"><ele>795.6666666666667</ele><time>2026-04-04T10:22:31.826Z</time></trkpt><trkpt lat="41.9218033" lon="-7.9951633"><ele>796.0</ele><time>2026-04-04T10:22:34.823Z</time></trkpt><trkpt lat="41.921825" lon="-7.9952833"><ele>796.3333333333334</ele><time>2026-04-04T10:22:37.824Z</time></trkpt><trkpt lat="41.921855" lon="-7.9953583"><ele>796.6666666666667</ele><time>2026-04-04T10:22:39.822Z</time></trkpt><trkpt lat="41.9219133" lon="-7.9954667"><ele>797.0</ele><time>2026-04-04T10:22:42.822Z</time></trkpt><trkpt lat="41.92196" lon="-7.9955483"><ele>797.0</ele><time>2026-04-04T10:22:44.826Z</time></trkpt><trkpt lat="41.9220133" lon="-7.995625"><ele>797.0</ele><time>2026-04-04T10:22:46.823Z</time></trkpt><trkpt lat="41.922065" lon="-7.995695"><ele>797.0</ele><time>2026-04-04T10:22:48.823Z</time></trkpt><trkpt lat="41.922135" lon="-7.9957833"><ele>797.0</ele><time>2026-04-04T10:22:50.824Z</time></trkpt><trkpt lat="41.9222033" lon="-7.9958817"><ele>797.0</ele><time>2026-04-04T10:22:52.825Z</time></trkpt><trkpt lat="41.92226" lon="-7.9959967"><ele>799.0</ele><time>2026-04-04T10:22:54.823Z</time></trkpt><trkpt lat="41.9222983" lon="-7.9961183"><ele>801.0</ele><time>2026-04-04T10:22:56.823Z</time></trkpt><trkpt lat="41.9223267" lon="-7.9962367"><ele>803.0</ele><time>2026-04-04T10:22:58.823Z</time></trkpt><trkpt lat="41.9223517" lon="-7.9963583"><ele>805.0</ele><time>2026-04-04T10:23:00.823Z</time></trkpt><trkpt lat="41.92238" lon="-7.9964683"><ele>807.0</ele><time>2026-04-04T10:23:02.826Z</time></trkpt><trkpt lat="41.92241" lon="-7.996585"><ele>808.0</ele><time>2026-04-04T10:23:04.824Z</time></trkpt><trkpt lat="41.9224267" lon="-7.99671"><ele>809.0</ele><time>2026-04-04T10:23:06.824Z</time></trkpt><trkpt lat="41.9224317" lon="-7.9968733"><ele>810.0</ele><time>2026-04-04T10:23:08.825Z</time></trkpt><trkpt lat="41.9224467" lon="-7.99704"><ele>811.0</ele><time>2026-04-04T10:23:10.825Z</time></trkpt><trkpt lat="41.9224683" lon="-7.9971267"><ele>812.0</ele><time>2026-04-04T10:23:11.825Z</time></trkpt><trkpt lat="41.9224817" lon="-7.99721"><ele>812.0</ele><time>2026-04-04T10:23:12.827Z</time></trkpt><trkpt lat="41.9224867" lon="-7.997295"><ele>812.0</ele><time>2026-04-04T10:23:13.824Z</time></trkpt><trkpt lat="41.92249" lon="-7.9974617"><ele>812.0</ele><time>2026-04-04T10:23:15.822Z</time></trkpt><trkpt lat="41.922495" lon="-7.9975483"><ele>812.0</ele><time>2026-04-04T10:23:16.822Z</time></trkpt><trkpt lat="41.9225067" lon="-7.9977233"><ele>812.0</ele><time>2026-04-04T10:23:18.822Z</time></trkpt><trkpt lat="41.9225183" lon="-7.997815"><ele>813.4285714285714</ele><time>2026-04-04T10:23:19.823Z</time></trkpt><trkpt lat="41.922535" lon="-7.9979033"><ele>814.8571428571429</ele><time>2026-04-04T10:23:20.824Z</time></trkpt><trkpt lat="41.9225583" lon="-7.99799"><ele>816.2857142857142</ele><time>2026-04-04T10:23:21.825Z</time></trkpt><trkpt lat="41.9225817" lon="-7.99808"><ele>817.7142857142858</ele><time>2026-04-04T10:23:22.823Z</time></trkpt><trkpt lat="41.9226083" lon="-7.998165"><ele>819.1428571428571</ele><time>2026-04-04T10:23:23.824Z</time></trkpt><trkpt lat="41.922635" lon="-7.9982483"><ele>820.5714285714286</ele><time>2026-04-04T10:23:24.823Z</time></trkpt><trkpt lat="41.9226617" lon="-7.99834"><ele>822.0</ele><time>2026-04-04T10:23:25.825Z</time></trkpt><trkpt lat="41.9226867" lon="-7.9984383"><ele>816.8</ele><time>2026-04-04T10:23:26.826Z</time></trkpt><trkpt lat="41.9227083" lon="-7.9985317"><ele>811.6</ele><time>2026-04-04T10:23:27.823Z</time></trkpt><trkpt lat="41.922745" lon="-7.9986933"><ele>806.4</ele><time>2026-04-04T10:23:29.826Z</time></trkpt><trkpt lat="41.9227583" lon="-7.9987767"><ele>801.1999999999999</ele><time>2026-04-04T10:23:30.823Z</time></trkpt><trkpt lat="41.9227617" lon="-7.99892"><ele>796.0</ele><time>2026-04-04T10:23:32.826Z</time></trkpt><trkpt lat="41.92275" lon="-7.9990633"><ele>796.6666666666666</ele><time>2026-04-04T10:23:34.822Z</time></trkpt><trkpt lat="41.9227033" lon="-7.9992"><ele>797.3333333333333</ele><time>2026-04-04T10:23:36.823Z</time></trkpt><trkpt lat="41.9226617" lon="-7.9992733"><ele>798.0</ele><time>2026-04-04T10:23:37.825Z</time></trkpt><trkpt lat="41.92261" lon="-7.9993483"><ele>798.6666666666667</ele><time>2026-04-04T10:23:38.823Z</time></trkpt><trkpt lat="41.9225517" lon="-7.9994217"><ele>799.3333333333334</ele><time>2026-04-04T10:23:39.822Z</time></trkpt><trkpt lat="41.9224883" lon="-7.9994933"><ele>800.0</ele><time>2026-04-04T10:23:40.822Z</time></trkpt><trkpt lat="41.9224183" lon="-7.9995767"><ele>804.2</ele><time>2026-04-04T10:23:41.822Z</time></trkpt><trkpt lat="41.9223483" lon="-7.9996583"><ele>808.4</ele><time>2026-04-04T10:23:42.822Z</time></trkpt><trkpt lat="41.92228" lon="-7.9997383"><ele>812.5999999999999</ele><time>2026-04-04T10:23:43.823Z</time></trkpt><trkpt lat="41.9222083" lon="-7.9998133"><ele>816.8</ele><time>2026-04-04T10:23:44.823Z</time></trkpt><trkpt lat="41.9221367" lon="-7.9998883"><ele>821.0</ele><time>2026-04-04T10:23:45.822Z</time></trkpt><trkpt lat="41.922065" lon="-7.9999667"><ele>821.0</ele><time>2026-04-04T10:23:46.823Z</time></trkpt><trkpt lat="41.9219983" lon="-8.00005"><ele>821.0</ele><time>2026-04-04T10:23:47.824Z</time></trkpt><trkpt lat="41.9219317" lon="-8.0001267"><ele>821.0</ele><time>2026-04-04T10:23:48.823Z</time></trkpt><trkpt lat="41.9218633" lon="-8.000205"><ele>821.0</ele><time>2026-04-04T10:23:49.823Z</time></trkpt><trkpt lat="41.9217867" lon="-8.00028"><ele>821.0</ele><time>2026-04-04T10:23:50.822Z</time></trkpt><trkpt lat="41.9217083" lon="-8.0003417"><ele>822.8</ele><time>2026-04-04T10:23:51.822Z</time></trkpt><trkpt lat="41.9216233" lon="-8.0003817"><ele>824.5999999999999</ele><time>2026-04-04T10:23:52.823Z</time></trkpt><trkpt lat="41.9215283" lon="-8.00042"><ele>826.4</ele><time>2026-04-04T10:23:53.824Z</time></trkpt><trkpt lat="41.9214333" lon="-8.0004567"><ele>828.2</ele><time>2026-04-04T10:23:54.827Z</time></trkpt><trkpt lat="41.9213383" lon="-8.0005"><ele>830.0</ele><time>2026-04-04T10:23:55.825Z</time></trkpt><trkpt lat="41.9212433" lon="-8.0005433"><ele>830.0</ele><time>2026-04-04T10:23:56.824Z</time></trkpt><trkpt lat="41.9211483" lon="-8.00059"><ele>830.0</ele><time>2026-04-04T10:23:57.823Z</time></trkpt><trkpt lat="41.9210533" lon="-8.0006333"><ele>830.0</ele><time>2026-04-04T10:23:58.824Z</time></trkpt><trkpt lat="41.9209567" lon="-8.0006767"><ele>830.0</ele><time>2026-04-04T10:23:59.828Z</time></trkpt><trkpt lat="41.9208583" lon="-8.000725"><ele>830.0</ele><time>2026-04-04T10:24:00.823Z</time></trkpt><trkpt lat="41.9207567" lon="-8.000775"><ele>831.6</ele><time>2026-04-04T10:24:01.823Z</time></trkpt><trkpt lat="41.9206533" lon="-8.0008283"><ele>833.2</ele><time>2026-04-04T10:24:02.824Z</time></trkpt><trkpt lat="41.92055" lon="-8.0008883"><ele>834.8</ele><time>2026-04-04T10:24:03.823Z</time></trkpt><trkpt lat="41.9204517" lon="-8.000955"><ele>836.4</ele><time>2026-04-04T10:24:04.824Z</time></trkpt><trkpt lat="41.9203567" lon="-8.0010267"><ele>838.0</ele><time>2026-04-04T10:24:05.823Z</time></trkpt><trkpt lat="41.9202667" lon="-8.0010967"><ele>839.9999999999999</ele><time>2026-04-04T10:24:06.823Z</time></trkpt><trkpt lat="41.92018" lon="-8.001155"><ele>842.0</ele><time>2026-04-04T10:24:07.823Z</time></trkpt><trkpt lat="41.920095" lon="-8.001205"><ele>844.0</ele><time>2026-04-04T10:24:08.824Z</time></trkpt><trkpt lat="41.9200117" lon="-8.00123"><ele>846.0</ele><time>2026-04-04T10:24:09.823Z</time></trkpt><trkpt lat="41.9199283" lon="-8.001245"><ele>847.9999999999999</ele><time>2026-04-04T10:24:10.823Z</time></trkpt><trkpt lat="41.9198433" lon="-8.0012367"><ele>850.0</ele><time>2026-04-04T10:24:11.823Z</time></trkpt><trkpt lat="41.9197617" lon="-8.0012467"><ele>850.2</ele><time>2026-04-04T10:24:12.823Z</time></trkpt><trkpt lat="41.9196733" lon="-8.00127"><ele>850.4</ele><time>2026-04-04T10:24:13.823Z</time></trkpt><trkpt lat="41.9195967" lon="-8.0013233"><ele>850.5999999999999</ele><time>2026-04-04T10:24:14.823Z</time></trkpt><trkpt lat="41.9195117" lon="-8.0013833"><ele>850.8</ele><time>2026-04-04T10:24:15.823Z</time></trkpt><trkpt lat="41.9194283" lon="-8.0014517"><ele>851.0</ele><time>2026-04-04T10:24:16.824Z</time></trkpt><trkpt lat="41.919345" lon="-8.001525"><ele>851.0</ele><time>2026-04-04T10:24:17.823Z</time></trkpt><trkpt lat="41.919265" lon="-8.0016033"><ele>851.0</ele><time>2026-04-04T10:24:18.824Z</time></trkpt><trkpt lat="41.9191867" lon="-8.00168"><ele>851.0</ele><time>2026-04-04T10:24:19.823Z</time></trkpt><trkpt lat="41.9191067" lon="-8.0017567"><ele>851.0</ele><time>2026-04-04T10:24:20.823Z</time></trkpt><trkpt lat="41.9190317" lon="-8.0018417"><ele>851.0</ele><time>2026-04-04T10:24:21.823Z</time></trkpt><trkpt lat="41.9189617" lon="-8.0019267"><ele>853.0000000000001</ele><time>2026-04-04T10:24:22.824Z</time></trkpt><trkpt lat="41.9188983" lon="-8.0020133"><ele>855.0</ele><time>2026-04-04T10:24:23.823Z</time></trkpt><trkpt lat="41.9188417" lon="-8.0021033"><ele>857.0</ele><time>2026-04-04T10:24:24.823Z</time></trkpt><trkpt lat="41.918785" lon="-8.0021917"><ele>859.0</ele><time>2026-04-04T10:24:25.823Z</time></trkpt><trkpt lat="41.9187367" lon="-8.0022783"><ele>861.0000000000001</ele><time>2026-04-04T10:24:26.824Z</time></trkpt><trkpt lat="41.9186817" lon="-8.002365"><ele>863.0</ele><time>2026-04-04T10:24:27.823Z</time></trkpt><trkpt lat="41.9186267" lon="-8.0024467"><ele>863.6666666666667</ele><time>2026-04-04T10:24:28.824Z</time></trkpt><trkpt lat="41.9185667" lon="-8.0025317"><ele>864.3333333333334</ele><time>2026-04-04T10:24:29.824Z</time></trkpt><trkpt lat="41.9185083" lon="-8.0026067"><ele>865.0</ele><time>2026-04-04T10:24:30.823Z</time></trkpt><trkpt lat="41.9184433" lon="-8.002685"><ele>865.6666666666667</ele><time>2026-04-04T10:24:31.827Z</time></trkpt><trkpt lat="41.918375" lon="-8.0027617"><ele>866.3333333333334</ele><time>2026-04-04T10:24:32.824Z</time></trkpt><trkpt lat="41.9183" lon="-8.00284"><ele>867.0</ele><time>2026-04-04T10:24:33.824Z</time></trkpt><trkpt lat="41.9182167" lon="-8.0029167"><ele>867.0</ele><time>2026-04-04T10:24:34.824Z</time></trkpt><trkpt lat="41.91813" lon="-8.0029933"><ele>867.0</ele><time>2026-04-04T10:24:35.823Z</time></trkpt><trkpt lat="41.918045" lon="-8.0030717"><ele>867.0</ele><time>2026-04-04T10:24:36.825Z</time></trkpt><trkpt lat="41.91796" lon="-8.003155"><ele>867.0</ele><time>2026-04-04T10:24:37.824Z</time></trkpt><trkpt lat="41.9178667" lon="-8.00324"><ele>867.0</ele><time>2026-04-04T10:24:38.825Z</time></trkpt><trkpt lat="41.9177767" lon="-8.0033233"><ele>867.8</ele><time>2026-04-04T10:24:39.823Z</time></trkpt><trkpt lat="41.9176867" lon="-8.003405"><ele>868.6</ele><time>2026-04-04T10:24:40.824Z</time></trkpt><trkpt lat="41.9176" lon="-8.0034867"><ele>869.3999999999999</ele><time>2026-04-04T10:24:41.825Z</time></trkpt><trkpt lat="41.9175183" lon="-8.003565"><ele>870.1999999999999</ele><time>2026-04-04T10:24:42.823Z</time></trkpt><trkpt lat="41.9174367" lon="-8.0036417"><ele>871.0</ele><time>2026-04-04T10:24:43.823Z</time></trkpt><trkpt lat="41.9173583" lon="-8.0037183"><ele>871.0</ele><time>2026-04-04T10:24:44.823Z</time></trkpt><trkpt lat="41.9172833" lon="-8.0037967"><ele>870.9999999999999</ele><time>2026-04-04T10:24:45.824Z</time></trkpt><trkpt lat="41.9172" lon="-8.003875"><ele>870.9999999999999</ele><time>2026-04-04T10:24:46.825Z</time></trkpt><trkpt lat="41.9171183" lon="-8.0039517"><ele>871.0</ele><time>2026-04-04T10:24:47.823Z</time></trkpt><trkpt lat="41.9170367" lon="-8.0040267"><ele>871.0</ele><time>2026-04-04T10:24:48.824Z</time></trkpt><trkpt lat="41.9169583" lon="-8.0040983"><ele>871.1666666666666</ele><time>2026-04-04T10:24:49.824Z</time></trkpt><trkpt lat="41.9168833" lon="-8.0041667"><ele>871.3333333333333</ele><time>2026-04-04T10:24:50.824Z</time></trkpt><trkpt lat="41.9168117" lon="-8.0042333"><ele>871.5</ele><time>2026-04-04T10:24:51.825Z</time></trkpt><trkpt lat="41.91675" lon="-8.004295"><ele>871.6666666666667</ele><time>2026-04-04T10:24:52.823Z</time></trkpt><trkpt lat="41.916685" lon="-8.0043567"><ele>871.8333333333334</ele><time>2026-04-04T10:24:53.826Z</time></trkpt><trkpt lat="41.91662" lon="-8.0044183"><ele>872.0</ele><time>2026-04-04T10:24:54.823Z</time></trkpt><trkpt lat="41.9165617" lon="-8.0044733"><ele>873.0000000000001</ele><time>2026-04-04T10:24:55.823Z</time></trkpt><trkpt lat="41.9165083" lon="-8.0045233"><ele>874.0</ele><time>2026-04-04T10:24:56.826Z</time></trkpt><trkpt lat="41.9164583" lon="-8.004575"><ele>875.0</ele><time>2026-04-04T10:24:57.824Z</time></trkpt><trkpt lat="41.9164033" lon="-8.0046233"><ele>876.0</ele><time>2026-04-04T10:24:58.824Z</time></trkpt><trkpt lat="41.91635" lon="-8.004675"><ele>877.0000000000001</ele><time>2026-04-04T10:24:59.823Z</time></trkpt><trkpt lat="41.9162567" lon="-8.0047667"><ele>878.0</ele><time>2026-04-04T10:25:01.825Z</time></trkpt><trkpt lat="41.916175" lon="-8.0048483"><ele>878.0</ele><time>2026-04-04T10:25:03.83Z</time></trkpt><trkpt lat="41.9161067" lon="-8.0049233"><ele>878.0</ele><time>2026-04-04T10:25:05.826Z</time></trkpt><trkpt lat="41.916025" lon="-8.005"><ele>878.0</ele><time>2026-04-04T10:25:07.823Z</time></trkpt><trkpt lat="41.915925" lon="-8.0050883"><ele>878.0</ele><time>2026-04-04T10:25:09.823Z</time></trkpt><trkpt lat="41.9158167" lon="-8.0051833"><ele>878.0</ele><time>2026-04-04T10:25:11.824Z</time></trkpt><trkpt lat="41.9157633" lon="-8.0052317"><ele>876.8</ele><time>2026-04-04T10:25:12.823Z</time></trkpt><trkpt lat="41.9156667" lon="-8.005325"><ele>875.5999999999999</ele><time>2026-04-04T10:25:14.824Z</time></trkpt><trkpt lat="41.9155717" lon="-8.0054233"><ele>874.4000000000001</ele><time>2026-04-04T10:25:16.826Z</time></trkpt><trkpt lat="41.91552" lon="-8.0054767"><ele>873.2</ele><time>2026-04-04T10:25:17.824Z</time></trkpt><trkpt lat="41.91544" lon="-8.0056067"><ele>872.0</ele><time>2026-04-04T10:25:19.824Z</time></trkpt><trkpt lat="41.91539" lon="-8.0057283"><ele>870.6666666666667</ele><time>2026-04-04T10:25:21.823Z</time></trkpt><trkpt lat="41.9153433" lon="-8.0058433"><ele>869.3333333333334</ele><time>2026-04-04T10:25:23.824Z</time></trkpt><trkpt lat="41.915305" lon="-8.005935"><ele>868.0</ele><time>2026-04-04T10:25:25.827Z</time></trkpt><trkpt lat="41.9152683" lon="-8.0060283"><ele>866.6666666666667</ele><time>2026-04-04T10:25:27.823Z</time></trkpt><trkpt lat="41.9152333" lon="-8.0061067"><ele>865.3333333333334</ele><time>2026-04-04T10:25:29.823Z</time></trkpt><trkpt lat="41.9151867" lon="-8.0061867"><ele>864.0</ele><time>2026-04-04T10:25:31.825Z</time></trkpt><trkpt lat="41.9151017" lon="-8.006255"><ele>863.8000000000001</ele><time>2026-04-04T10:25:33.826Z</time></trkpt><trkpt lat="41.9150183" lon="-8.0062883"><ele>863.6000000000001</ele><time>2026-04-04T10:25:35.823Z</time></trkpt><trkpt lat="41.9149233" lon="-8.0063133"><ele>863.4</ele><time>2026-04-04T10:25:37.824Z</time></trkpt><trkpt lat="41.914825" lon="-8.00634"><ele>863.2</ele><time>2026-04-04T10:25:39.823Z</time></trkpt><trkpt lat="41.914695" lon="-8.0063517"><ele>863.0</ele><time>2026-04-04T10:25:41.823Z</time></trkpt><trkpt lat="41.91462" lon="-8.00635"><ele>863.0000000000001</ele><time>2026-04-04T10:25:42.825Z</time></trkpt><trkpt lat="41.9145467" lon="-8.0063533"><ele>863.0</ele><time>2026-04-04T10:25:43.824Z</time></trkpt><trkpt lat="41.9144767" lon="-8.0063483"><ele>863.0</ele><time>2026-04-04T10:25:44.824Z</time></trkpt><trkpt lat="41.9144133" lon="-8.0063483"><ele>863.0</ele><time>2026-04-04T10:25:45.823Z</time></trkpt><trkpt lat="41.9143083" lon="-8.0063483"><ele>863.0000000000001</ele><time>2026-04-04T10:25:47.824Z</time></trkpt><trkpt lat="41.9142167" lon="-8.0063483"><ele>863.0</ele><time>2026-04-04T10:25:49.823Z</time></trkpt><trkpt lat="41.914125" lon="-8.00636"><ele>864.5999999999999</ele><time>2026-04-04T10:25:51.825Z</time></trkpt><trkpt lat="41.914035" lon="-8.0063667"><ele>866.1999999999999</ele><time>2026-04-04T10:25:53.823Z</time></trkpt><trkpt lat="41.9139417" lon="-8.00639"><ele>867.8</ele><time>2026-04-04T10:25:55.824Z</time></trkpt><trkpt lat="41.91385" lon="-8.00643"><ele>869.4</ele><time>2026-04-04T10:25:57.825Z</time></trkpt><trkpt lat="41.9137533" lon="-8.0064733"><ele>871.0</ele><time>2026-04-04T10:25:59.823Z</time></trkpt><trkpt lat="41.913665" lon="-8.0065533"><ele>871.9999999999999</ele><time>2026-04-04T10:26:01.824Z</time></trkpt><trkpt lat="41.9135667" lon="-8.006665"><ele>873.0</ele><time>2026-04-04T10:26:03.823Z</time></trkpt><trkpt lat="41.9135133" lon="-8.0067317"><ele>874.0</ele><time>2026-04-04T10:26:04.825Z</time></trkpt><trkpt lat="41.9134583" lon="-8.0068067"><ele>875.0</ele><time>2026-04-04T10:26:05.825Z</time></trkpt><trkpt lat="41.9133983" lon="-8.00688"><ele>875.9999999999999</ele><time>2026-04-04T10:26:06.824Z</time></trkpt><trkpt lat="41.9133383" lon="-8.00695"><ele>877.0</ele><time>2026-04-04T10:26:07.824Z</time></trkpt><trkpt lat="41.913275" lon="-8.0070233"><ele>876.9999999999999</ele><time>2026-04-04T10:26:08.825Z</time></trkpt><trkpt lat="41.9132117" lon="-8.007105"><ele>877.0</ele><time>2026-04-04T10:26:09.824Z</time></trkpt><trkpt lat="41.913155" lon="-8.007195"><ele>877.0</ele><time>2026-04-04T10:26:10.823Z</time></trkpt><trkpt lat="41.9130983" lon="-8.0072867"><ele>877.0</ele><time>2026-04-04T10:26:11.824Z</time></trkpt><trkpt lat="41.9130367" lon="-8.007375"><ele>876.9999999999999</ele><time>2026-04-04T10:26:12.823Z</time></trkpt><trkpt lat="41.91297" lon="-8.0074483"><ele>877.0</ele><time>2026-04-04T10:26:13.825Z</time></trkpt><trkpt lat="41.9128933" lon="-8.0075083"><ele>876.1666666666666</ele><time>2026-04-04T10:26:14.824Z</time></trkpt><trkpt lat="41.91281" lon="-8.0075483"><ele>875.3333333333333</ele><time>2026-04-04T10:26:15.829Z</time></trkpt><trkpt lat="41.9127233" lon="-8.0075683"><ele>874.5</ele><time>2026-04-04T10:26:16.824Z</time></trkpt><trkpt lat="41.9126467" lon="-8.0075533"><ele>873.6666666666667</ele><time>2026-04-04T10:26:17.824Z</time></trkpt><trkpt lat="41.9125817" lon="-8.0075417"><ele>872.8333333333334</ele><time>2026-04-04T10:26:18.825Z</time></trkpt><trkpt lat="41.9124717" lon="-8.0074683"><ele>872.0</ele><time>2026-04-04T10:26:20.824Z</time></trkpt><trkpt lat="41.91241" lon="-8.0074217"><ele>874.0000000000001</ele><time>2026-04-04T10:26:21.824Z</time></trkpt><trkpt lat="41.9123533" lon="-8.0073783"><ele>876.0</ele><time>2026-04-04T10:26:22.826Z</time></trkpt><trkpt lat="41.91229" lon="-8.007335"><ele>878.0</ele><time>2026-04-04T10:26:23.823Z</time></trkpt><trkpt lat="41.9121767" lon="-8.0072783"><ele>880.0</ele><time>2026-04-04T10:26:25.823Z</time></trkpt><trkpt lat="41.9120867" lon="-8.0072483"><ele>882.0000000000001</ele><time>2026-04-04T10:26:27.823Z</time></trkpt><trkpt lat="41.912185" lon="-8.0072567"><ele>884.0</ele><time>2026-04-04T10:26:37.823Z</time></trkpt><trkpt lat="41.9123033" lon="-8.0073083"><ele>884.0000000000001</ele><time>2026-04-04T10:26:39.823Z</time></trkpt><trkpt lat="41.9123667" lon="-8.0073333"><ele>884.0</ele><time>2026-04-04T10:26:40.823Z</time></trkpt><trkpt lat="41.912475" lon="-8.0073783"><ele>884.0</ele><time>2026-04-04T10:26:42.823Z</time></trkpt><trkpt lat="41.9125583" lon="-8.0074283"><ele>884.0</ele><time>2026-04-04T10:26:44.826Z</time></trkpt><trkpt lat="41.9126217" lon="-8.0074917"><ele>884.0000000000001</ele><time>2026-04-04T10:26:46.823Z</time></trkpt><trkpt lat="41.9126267" lon="-8.0076067"><ele>884.0</ele><time>2026-04-04T10:26:49.823Z</time></trkpt><trkpt lat="41.912525" lon="-8.0077333"><ele>883.5000000000001</ele><time>2026-04-04T10:26:51.822Z</time></trkpt><trkpt lat="41.9124417" lon="-8.0078133"><ele>883.0</ele><time>2026-04-04T10:26:52.823Z</time></trkpt><trkpt lat="41.9123767" lon="-8.0078767"><ele>882.5</ele><time>2026-04-04T10:26:53.823Z</time></trkpt><trkpt lat="41.9123017" lon="-8.0079367"><ele>882.0</ele><time>2026-04-04T10:26:54.823Z</time></trkpt><trkpt lat="41.91225" lon="-8.0079867"><ele>881.5000000000001</ele><time>2026-04-04T10:26:55.822Z</time></trkpt><trkpt lat="41.91216" lon="-8.00806"><ele>881.0</ele><time>2026-04-04T10:26:57.822Z</time></trkpt><trkpt lat="41.9120917" lon="-8.0081133"><ele>881.0000000000001</ele><time>2026-04-04T10:26:59.822Z</time></trkpt><trkpt lat="41.91203" lon="-8.00816"><ele>881.0</ele><time>2026-04-04T10:27:01.825Z</time></trkpt><trkpt lat="41.91197" lon="-8.0082033"><ele>881.0</ele><time>2026-04-04T10:27:03.822Z</time></trkpt><trkpt lat="41.9119017" lon="-8.00825"><ele>881.0</ele><time>2026-04-04T10:27:05.825Z</time></trkpt><trkpt lat="41.911785" lon="-8.008335"><ele>881.0000000000001</ele><time>2026-04-04T10:27:07.822Z</time></trkpt><trkpt lat="41.9117067" lon="-8.0083783"><ele>881.0</ele><time>2026-04-04T10:27:08.823Z</time></trkpt><trkpt lat="41.911635" lon="-8.0084117"><ele>880.1666666666667</ele><time>2026-04-04T10:27:09.823Z</time></trkpt><trkpt lat="41.911565" lon="-8.00844"><ele>879.3333333333334</ele><time>2026-04-04T10:27:10.822Z</time></trkpt><trkpt lat="41.911455" lon="-8.0085117"><ele>878.5</ele><time>2026-04-04T10:27:12.824Z</time></trkpt><trkpt lat="41.91139" lon="-8.0086017"><ele>877.6666666666667</ele><time>2026-04-04T10:27:14.822Z</time></trkpt><trkpt lat="41.911325" lon="-8.00865"><ele>876.8333333333334</ele><time>2026-04-04T10:27:24.823Z</time></trkpt><trkpt lat="41.9112517" lon="-8.00865"><ele>876.0</ele><time>2026-04-04T10:27:26.823Z</time></trkpt><trkpt lat="41.9111633" lon="-8.0086517"><ele>876.0</ele><time>2026-04-04T10:27:28.822Z</time></trkpt><trkpt lat="41.9110867" lon="-8.0086467"><ele>876.0</ele><time>2026-04-04T10:27:30.823Z</time></trkpt><trkpt lat="41.9110167" lon="-8.00862"><ele>876.0</ele><time>2026-04-04T10:27:32.822Z</time></trkpt><trkpt lat="41.9109483" lon="-8.0085967"><ele>876.0</ele><time>2026-04-04T10:27:34.826Z</time></trkpt><trkpt lat="41.9108733" lon="-8.008605"><ele>876.0</ele><time>2026-04-04T10:27:37.824Z</time></trkpt><trkpt lat="41.910785" lon="-8.0086467"><ele>876.0</ele><time>2026-04-04T10:27:40.822Z</time></trkpt><trkpt lat="41.910695" lon="-8.0086483"><ele>876.0</ele><time>2026-04-04T10:27:43.822Z</time></trkpt><trkpt lat="41.9105983" lon="-8.008635"><ele>875.9999999999999</ele><time>2026-04-04T10:27:45.822Z</time></trkpt><trkpt lat="41.9104883" lon="-8.008625"><ele>875.9999999999999</ele><time>2026-04-04T10:27:47.823Z</time></trkpt><trkpt lat="41.9103817" lon="-8.0085833"><ele>876.0</ele><time>2026-04-04T10:27:49.825Z</time></trkpt><trkpt lat="41.9102567" lon="-8.0085317"><ele>876.0</ele><time>2026-04-04T10:27:51.824Z</time></trkpt><trkpt lat="41.9101483" lon="-8.008485"><ele>876.0</ele><time>2026-04-04T10:27:53.822Z</time></trkpt><trkpt lat="41.9100767" lon="-8.0084667"><ele>876.0</ele><time>2026-04-04T10:27:55.822Z</time></trkpt><trkpt lat="41.910055" lon="-8.0085783"><ele>876.0</ele><time>2026-04-04T10:28:00.822Z</time></trkpt><trkpt lat="41.91006" lon="-8.008665"><ele>876.0</ele><time>2026-04-04T10:28:02.823Z</time></trkpt><trkpt lat="41.91006" lon="-8.0087567"><ele>876.0</ele><time>2026-04-04T10:28:04.824Z</time></trkpt><trkpt lat="41.9100533" lon="-8.0088433"><ele>876.0</ele><time>2026-04-04T10:28:06.823Z</time></trkpt><trkpt lat="41.9100367" lon="-8.008925"><ele>876.0</ele><time>2026-04-04T10:28:08.823Z</time></trkpt><trkpt lat="41.90996" lon="-8.0090067"><ele>875.6666666666666</ele><time>2026-04-04T10:28:17.824Z</time></trkpt><trkpt lat="41.9098867" lon="-8.0090667"><ele>875.3333333333333</ele><time>2026-04-04T10:28:19.822Z</time></trkpt><trkpt lat="41.9098117" lon="-8.009115"><ele>875.0</ele><time>2026-04-04T10:28:21.823Z</time></trkpt><trkpt lat="41.9097433" lon="-8.0091333"><ele>874.6666666666666</ele><time>2026-04-04T10:28:23.824Z</time></trkpt><trkpt lat="41.90967" lon="-8.009155"><ele>874.3333333333333</ele><time>2026-04-04T10:28:25.823Z</time></trkpt><trkpt lat="41.9095983" lon="-8.009185"><ele>874.0</ele><time>2026-04-04T10:28:27.822Z</time></trkpt><trkpt lat="41.909515" lon="-8.0092183"><ele>874.0</ele><time>2026-04-04T10:28:30.823Z</time></trkpt><trkpt lat="41.9094267" lon="-8.00925"><ele>874.0000000000001</ele><time>2026-04-04T10:28:33.822Z</time></trkpt><trkpt lat="41.9093633" lon="-8.009275"><ele>874.0000000000001</ele><time>2026-04-04T10:28:35.824Z</time></trkpt><trkpt lat="41.9092833" lon="-8.009315"><ele>874.0</ele><time>2026-04-04T10:28:38.824Z</time></trkpt><trkpt lat="41.9091867" lon="-8.0093367"><ele>874.0</ele><time>2026-04-04T10:28:41.824Z</time></trkpt><trkpt lat="41.9090767" lon="-8.0093567"><ele>876.3333333333333</ele><time>2026-04-04T10:28:43.823Z</time></trkpt><trkpt lat="41.9089783" lon="-8.009345"><ele>878.6666666666666</ele><time>2026-04-04T10:28:45.822Z</time></trkpt><trkpt lat="41.908905" lon="-8.0093117"><ele>881.0</ele><time>2026-04-04T10:28:48.823Z</time></trkpt><trkpt lat="41.9088183" lon="-8.0093233"><ele>883.3333333333333</ele><time>2026-04-04T10:28:52.824Z</time></trkpt><trkpt lat="41.90876" lon="-8.0093867"><ele>885.6666666666666</ele><time>2026-04-04T10:28:54.823Z</time></trkpt><trkpt lat="41.9086983" lon="-8.0094417"><ele>888.0</ele><time>2026-04-04T10:28:56.824Z</time></trkpt><trkpt lat="41.9086117" lon="-8.0095317"><ele>888.0</ele><time>2026-04-04T10:28:58.824Z</time></trkpt><trkpt lat="41.9085317" lon="-8.0096217"><ele>888.0</ele><time>2026-04-04T10:29:00.823Z</time></trkpt><trkpt lat="41.9084633" lon="-8.0096933"><ele>888.0</ele><time>2026-04-04T10:29:02.825Z</time></trkpt><trkpt lat="41.9083933" lon="-8.009765"><ele>888.0</ele><time>2026-04-04T10:29:04.823Z</time></trkpt><trkpt lat="41.9083067" lon="-8.0098433"><ele>888.0</ele><time>2026-04-04T10:29:06.823Z</time></trkpt><trkpt lat="41.90822" lon="-8.0099117"><ele>888.0</ele><time>2026-04-04T10:29:08.824Z</time></trkpt><trkpt lat="41.9081633" lon="-8.00995"><ele>888.0</ele><time>2026-04-04T10:29:09.823Z</time></trkpt><trkpt lat="41.9080533" lon="-8.0100133"><ele>888.0</ele><time>2026-04-04T10:29:11.825Z</time></trkpt><trkpt lat="41.9079433" lon="-8.0100583"><ele>888.0</ele><time>2026-04-04T10:29:13.823Z</time></trkpt><trkpt lat="41.9078133" lon="-8.01014"><ele>888.0</ele><time>2026-04-04T10:29:16.824Z</time></trkpt><trkpt lat="41.9076983" lon="-8.0102017"><ele>888.0</ele><time>2026-04-04T10:29:18.823Z</time></trkpt><trkpt lat="41.90763" lon="-8.0102367"><ele>888.0</ele><time>2026-04-04T10:29:19.825Z</time></trkpt><trkpt lat="41.907555" lon="-8.01027"><ele>888.0</ele><time>2026-04-04T10:29:20.823Z</time></trkpt><trkpt lat="41.9074917" lon="-8.0102967"><ele>888.0</ele><time>2026-04-04T10:29:21.823Z</time></trkpt><trkpt lat="41.9074233" lon="-8.0103233"><ele>888.0</ele><time>2026-04-04T10:29:23.822Z</time></trkpt><trkpt lat="41.90736" lon="-8.010345"><ele>888.0</ele><time>2026-04-04T10:29:25.822Z</time></trkpt><trkpt lat="41.9072567" lon="-8.010385"><ele>889.1666666666666</ele><time>2026-04-04T10:29:27.822Z</time></trkpt><trkpt lat="41.907195" lon="-8.0104067"><ele>890.3333333333333</ele><time>2026-04-04T10:29:28.823Z</time></trkpt><trkpt lat="41.9070817" lon="-8.010455"><ele>891.5</ele><time>2026-04-04T10:29:30.824Z</time></trkpt><trkpt lat="41.9070217" lon="-8.0104817"><ele>892.6666666666666</ele><time>2026-04-04T10:29:31.823Z</time></trkpt><trkpt lat="41.9069167" lon="-8.0105017"><ele>893.8333333333333</ele><time>2026-04-04T10:29:33.822Z</time></trkpt><trkpt lat="41.90682" lon="-8.010505"><ele>895.0</ele><time>2026-04-04T10:29:35.823Z</time></trkpt><trkpt lat="41.9067333" lon="-8.010505"><ele>895.3333333333333</ele><time>2026-04-04T10:29:37.822Z</time></trkpt><trkpt lat="41.9066617" lon="-8.0105183"><ele>895.6666666666666</ele><time>2026-04-04T10:29:39.825Z</time></trkpt><trkpt lat="41.9065717" lon="-8.0105333"><ele>896.0</ele><time>2026-04-04T10:29:41.823Z</time></trkpt><trkpt lat="41.9064867" lon="-8.0105333"><ele>896.3333333333333</ele><time>2026-04-04T10:29:43.823Z</time></trkpt><trkpt lat="41.9064133" lon="-8.0105133"><ele>896.6666666666666</ele><time>2026-04-04T10:29:45.823Z</time></trkpt><trkpt lat="41.9063333" lon="-8.010475"><ele>897.0</ele><time>2026-04-04T10:29:47.822Z</time></trkpt><trkpt lat="41.90627" lon="-8.0104133"><ele>897.0</ele><time>2026-04-04T10:29:49.823Z</time></trkpt><trkpt lat="41.9062267" lon="-8.0103417"><ele>897.0</ele><time>2026-04-04T10:29:51.822Z</time></trkpt><trkpt lat="41.90619" lon="-8.0102433"><ele>897.0</ele><time>2026-04-04T10:29:54.822Z</time></trkpt><trkpt lat="41.9061233" lon="-8.0102017"><ele>897.0</ele><time>2026-04-04T10:29:57.822Z</time></trkpt><trkpt lat="41.9060567" lon="-8.0102467"><ele>897.0</ele><time>2026-04-04T10:29:59.823Z</time></trkpt><trkpt lat="41.90599" lon="-8.0103067"><ele>897.0</ele><time>2026-04-04T10:30:01.822Z</time></trkpt><trkpt lat="41.9059067" lon="-8.0103467"><ele>897.0</ele><time>2026-04-04T10:30:03.822Z</time></trkpt><trkpt lat="41.9058167" lon="-8.0103983"><ele>897.0</ele><time>2026-04-04T10:30:05.822Z</time></trkpt><trkpt lat="41.9057417" lon="-8.0104333"><ele>897.0</ele><time>2026-04-04T10:30:07.822Z</time></trkpt><trkpt lat="41.9056683" lon="-8.01047"><ele>897.0</ele><time>2026-04-04T10:30:10.822Z</time></trkpt><trkpt lat="41.9055983" lon="-8.01051"><ele>897.0</ele><time>2026-04-04T10:30:13.822Z</time></trkpt><trkpt lat="41.9055783" lon="-8.0105917"><ele>897.0</ele><time>2026-04-04T10:30:17.824Z</time></trkpt><trkpt lat="41.90558" lon="-8.0106917"><ele>897.0</ele><time>2026-04-04T10:30:20.822Z</time></trkpt><trkpt lat="41.905605" lon="-8.010785"><ele>897.0</ele><time>2026-04-04T10:30:24.822Z</time></trkpt><trkpt lat="41.9056433" lon="-8.010885"><ele>897.0</ele><time>2026-04-04T10:30:28.822Z</time></trkpt><trkpt lat="41.9056033" lon="-8.0109633"><ele>897.0</ele><time>2026-04-04T10:30:30.823Z</time></trkpt><trkpt lat="41.905535" lon="-8.0110267"><ele>897.0</ele><time>2026-04-04T10:30:32.823Z</time></trkpt><trkpt lat="41.9054667" lon="-8.01106"><ele>897.0</ele><time>2026-04-04T10:30:34.823Z</time></trkpt><trkpt lat="41.9054" lon="-8.011075"><ele>895.1666666666666</ele><time>2026-04-04T10:30:36.823Z</time></trkpt><trkpt lat="41.9053333" lon="-8.01108"><ele>893.3333333333333</ele><time>2026-04-04T10:30:38.822Z</time></trkpt><trkpt lat="41.90524" lon="-8.0110533"><ele>891.5</ele><time>2026-04-04T10:30:40.824Z</time></trkpt><trkpt lat="41.90516" lon="-8.011065"><ele>889.6666666666666</ele><time>2026-04-04T10:30:42.823Z</time></trkpt><trkpt lat="41.9050733" lon="-8.011105"><ele>887.8333333333333</ele><time>2026-04-04T10:30:45.823Z</time></trkpt><trkpt lat="41.9049933" lon="-8.0111567"><ele>886.0</ele><time>2026-04-04T10:30:48.824Z</time></trkpt><trkpt lat="41.9049283" lon="-8.01119"><ele>885.1999999999999</ele><time>2026-04-04T10:30:51.822Z</time></trkpt><trkpt lat="41.9048267" lon="-8.0112117"><ele>884.3999999999999</ele><time>2026-04-04T10:31:36.823Z</time></trkpt><trkpt lat="41.904755" lon="-8.0111633"><ele>883.6</ele><time>2026-04-04T10:31:40.824Z</time></trkpt><trkpt lat="41.9046733" lon="-8.0111933"><ele>882.8</ele><time>2026-04-04T10:31:42.823Z</time></trkpt><trkpt lat="41.9045767" lon="-8.0111533"><ele>882.0</ele><time>2026-04-04T10:31:45.824Z</time></trkpt><trkpt lat="41.90451" lon="-8.0110617"><ele>882.0</ele><time>2026-04-04T10:31:47.826Z</time></trkpt><trkpt lat="41.90446" lon="-8.0109417"><ele>882.0</ele><time>2026-04-04T10:31:49.824Z</time></trkpt><trkpt lat="41.9044117" lon="-8.0108517"><ele>882.0</ele><time>2026-04-04T10:31:51.823Z</time></trkpt><trkpt lat="41.9043567" lon="-8.01077"><ele>882.0</ele><time>2026-04-04T10:31:53.824Z</time></trkpt><trkpt lat="41.90429" lon="-8.010705"><ele>882.0</ele><time>2026-04-04T10:31:55.825Z</time></trkpt><trkpt lat="41.9042267" lon="-8.0106567"><ele>882.0</ele><time>2026-04-04T10:31:58.824Z</time></trkpt><trkpt lat="41.9041583" lon="-8.0105983"><ele>883.3333333333334</ele><time>2026-04-04T10:32:02.824Z</time></trkpt><trkpt lat="41.9041167" lon="-8.0107717"><ele>884.6666666666667</ele><time>2026-04-04T10:41:27.825Z</time></trkpt><trkpt lat="41.9040617" lon="-8.0107233"><ele>886.0</ele><time>2026-04-04T10:42:46.824Z</time></trkpt><trkpt lat="41.903975" lon="-8.010765"><ele>887.3333333333334</ele><time>2026-04-04T10:42:49.824Z</time></trkpt><trkpt lat="41.9039067" lon="-8.010785"><ele>888.6666666666667</ele><time>2026-04-04T10:42:51.823Z</time></trkpt><trkpt lat="41.90384" lon="-8.0107917"><ele>890.0</ele><time>2026-04-04T10:42:53.823Z</time></trkpt><trkpt lat="41.90375" lon="-8.0107983"><ele>890.0000000000001</ele><time>2026-04-04T10:42:55.824Z</time></trkpt><trkpt lat="41.9036517" lon="-8.010785"><ele>890.0</ele><time>2026-04-04T10:42:57.824Z</time></trkpt><trkpt lat="41.903545" lon="-8.0107483"><ele>890.0</ele><time>2026-04-04T10:42:59.823Z</time></trkpt><trkpt lat="41.903485" lon="-8.0107167"><ele>890.0</ele><time>2026-04-04T10:43:00.823Z</time></trkpt><trkpt lat="41.90342" lon="-8.0106867"><ele>890.0000000000001</ele><time>2026-04-04T10:43:01.823Z</time></trkpt><trkpt lat="41.903315" lon="-8.01067"><ele>890.0</ele><time>2026-04-04T10:43:03.824Z</time></trkpt><trkpt lat="41.9032233" lon="-8.0107267"><ele>890.2</ele><time>2026-04-04T10:43:05.824Z</time></trkpt><trkpt lat="41.903115" lon="-8.0107967"><ele>890.4</ele><time>2026-04-04T10:43:07.823Z</time></trkpt><trkpt lat="41.903025" lon="-8.0108233"><ele>890.5999999999999</ele><time>2026-04-04T10:43:08.823Z</time></trkpt><trkpt lat="41.9029333" lon="-8.0108567"><ele>890.8</ele><time>2026-04-04T10:43:09.823Z</time></trkpt><trkpt lat="41.9028417" lon="-8.01088"><ele>891.0</ele><time>2026-04-04T10:43:10.823Z</time></trkpt><trkpt lat="41.9027467" lon="-8.0109"><ele>888.1999999999999</ele><time>2026-04-04T10:43:11.824Z</time></trkpt><trkpt lat="41.9026383" lon="-8.010925"><ele>885.3999999999999</ele><time>2026-04-04T10:43:12.824Z</time></trkpt><trkpt lat="41.9025383" lon="-8.0109567"><ele>882.6</ele><time>2026-04-04T10:43:13.824Z</time></trkpt><trkpt lat="41.90245" lon="-8.0109867"><ele>879.8</ele><time>2026-04-04T10:43:14.828Z</time></trkpt><trkpt lat="41.902365" lon="-8.0110033"><ele>877.0</ele><time>2026-04-04T10:43:15.823Z</time></trkpt><trkpt lat="41.9022783" lon="-8.0109883"><ele>877.0000000000001</ele><time>2026-04-04T10:43:16.823Z</time></trkpt><trkpt lat="41.9021967" lon="-8.0109717"><ele>877.0</ele><time>2026-04-04T10:43:17.823Z</time></trkpt><trkpt lat="41.90212" lon="-8.0109633"><ele>877.0</ele><time>2026-04-04T10:43:18.825Z</time></trkpt><trkpt lat="41.9020583" lon="-8.0109817"><ele>877.0</ele><time>2026-04-04T10:43:19.824Z</time></trkpt><trkpt lat="41.9019933" lon="-8.0110133"><ele>877.0</ele><time>2026-04-04T10:43:20.825Z</time></trkpt><trkpt lat="41.9019283" lon="-8.011055"><ele>877.0000000000001</ele><time>2026-04-04T10:43:21.823Z</time></trkpt><trkpt lat="41.9018633" lon="-8.0110967"><ele>877.0</ele><time>2026-04-04T10:43:22.823Z</time></trkpt><trkpt lat="41.9017867" lon="-8.011125"><ele>877.6666666666666</ele><time>2026-04-04T10:43:23.823Z</time></trkpt><trkpt lat="41.9017083" lon="-8.0111583"><ele>878.3333333333333</ele><time>2026-04-04T10:43:24.824Z</time></trkpt><trkpt lat="41.9016283" lon="-8.0111883"><ele>879.0</ele><time>2026-04-04T10:43:25.824Z</time></trkpt><trkpt lat="41.9015483" lon="-8.01121"><ele>879.6666666666667</ele><time>2026-04-04T10:43:26.824Z</time></trkpt><trkpt lat="41.9014733" lon="-8.0112167"><ele>880.3333333333334</ele><time>2026-04-04T10:43:27.824Z</time></trkpt><trkpt lat="41.9014067" lon="-8.01121"><ele>881.0</ele><time>2026-04-04T10:43:28.824Z</time></trkpt><trkpt lat="41.901295" lon="-8.0111033"><ele>881.0</ele><time>2026-04-04T10:43:30.822Z</time></trkpt><trkpt lat="41.9012367" lon="-8.0110067"><ele>880.9999999999999</ele><time>2026-04-04T10:43:31.823Z</time></trkpt><trkpt lat="41.901165" lon="-8.0109"><ele>880.9999999999999</ele><time>2026-04-04T10:43:32.823Z</time></trkpt><trkpt lat="41.9011017" lon="-8.0108"><ele>881.0</ele><time>2026-04-04T10:43:33.822Z</time></trkpt><trkpt lat="41.90105" lon="-8.0107183"><ele>881.0</ele><time>2026-04-04T10:43:34.822Z</time></trkpt><trkpt lat="41.901" lon="-8.0106467"><ele>885.0000000000001</ele><time>2026-04-04T10:43:35.822Z</time></trkpt><trkpt lat="41.9009533" lon="-8.0105833"><ele>889.0</ele><time>2026-04-04T10:43:36.823Z</time></trkpt><trkpt lat="41.9008667" lon="-8.0105617"><ele>893.0</ele><time>2026-04-04T10:43:38.823Z</time></trkpt><trkpt lat="41.9007467" lon="-8.0105833"><ele>897.0</ele><time>2026-04-04T10:43:40.822Z</time></trkpt><trkpt lat="41.9006833" lon="-8.0105783"><ele>901.0000000000001</ele><time>2026-04-04T10:43:41.822Z</time></trkpt><trkpt lat="41.9006067" lon="-8.0105817"><ele>905.0</ele><time>2026-04-04T10:43:42.825Z</time></trkpt><trkpt lat="41.9005333" lon="-8.010595"><ele>905.3333333333334</ele><time>2026-04-04T10:43:43.822Z</time></trkpt><trkpt lat="41.9004567" lon="-8.0106117"><ele>905.6666666666667</ele><time>2026-04-04T10:43:44.823Z</time></trkpt><trkpt lat="41.9003867" lon="-8.0106083"><ele>906.0</ele><time>2026-04-04T10:43:45.822Z</time></trkpt><trkpt lat="41.90032" lon="-8.0105883"><ele>906.3333333333333</ele><time>2026-04-04T10:43:46.822Z</time></trkpt><trkpt lat="41.90025" lon="-8.010565"><ele>906.6666666666666</ele><time>2026-04-04T10:43:47.823Z</time></trkpt><trkpt lat="41.90016" lon="-8.01054"><ele>907.0</ele><time>2026-04-04T10:43:48.823Z</time></trkpt><trkpt lat="41.9000433" lon="-8.0105217"><ele>907.0</ele><time>2026-04-04T10:43:49.822Z</time></trkpt><trkpt lat="41.8999417" lon="-8.0105133"><ele>907.0</ele><time>2026-04-04T10:43:50.823Z</time></trkpt><trkpt lat="41.8998433" lon="-8.0105033"><ele>907.0</ele><time>2026-04-04T10:43:51.822Z</time></trkpt><trkpt lat="41.8997467" lon="-8.0105017"><ele>907.0</ele><time>2026-04-04T10:43:52.822Z</time></trkpt><trkpt lat="41.8996583" lon="-8.010505"><ele>907.0</ele><time>2026-04-04T10:43:53.824Z</time></trkpt><trkpt lat="41.899575" lon="-8.0105"><ele>906.9999999999999</ele><time>2026-04-04T10:43:54.824Z</time></trkpt><trkpt lat="41.8994917" lon="-8.01048"><ele>907.0</ele><time>2026-04-04T10:43:55.822Z</time></trkpt><trkpt lat="41.899405" lon="-8.01046"><ele>907.0</ele><time>2026-04-04T10:43:56.823Z</time></trkpt><trkpt lat="41.8993233" lon="-8.010445"><ele>907.0</ele><time>2026-04-04T10:43:57.823Z</time></trkpt><trkpt lat="41.899242" lon="-8.0104416"><ele>906.9999999999999</ele><time>2026-04-04T10:43:58.823Z</time></trkpt><trkpt lat="41.8991675" lon="-8.0104501"><ele>907.0</ele><time>2026-04-04T10:43:59.823Z</time></trkpt><trkpt lat="41.8990672" lon="-8.0105027"><ele>905.8</ele><time>2026-04-04T10:44:01.822Z</time></trkpt><trkpt lat="41.8989881" lon="-8.0105283"><ele>904.6</ele><time>2026-04-04T10:44:03.822Z</time></trkpt><trkpt lat="41.898858" lon="-8.0104744"><ele>903.3999999999999</ele><time>2026-04-04T10:44:05.822Z</time></trkpt><trkpt lat="41.8987676" lon="-8.0104527"><ele>902.1999999999999</ele><time>2026-04-04T10:44:06.823Z</time></trkpt><trkpt lat="41.8986699" lon="-8.0104405"><ele>901.0</ele><time>2026-04-04T10:44:07.823Z</time></trkpt><trkpt lat="41.8985805" lon="-8.010426"><ele>901.0</ele><time>2026-04-04T10:44:08.823Z</time></trkpt><trkpt lat="41.8985" lon="-8.0103999"><ele>901.0000000000001</ele><time>2026-04-04T10:44:09.822Z</time></trkpt><trkpt lat="41.8984287" lon="-8.0103693"><ele>901.0</ele><time>2026-04-04T10:44:10.823Z</time></trkpt><trkpt lat="41.8983688" lon="-8.0103376"><ele>901.0</ele><time>2026-04-04T10:44:11.825Z</time></trkpt><trkpt lat="41.8983157" lon="-8.0102914"><ele>901.0000000000001</ele><time>2026-04-04T10:44:12.823Z</time></trkpt><trkpt lat="41.8982624" lon="-8.0102216"><ele>901.0</ele><time>2026-04-04T10:44:13.823Z</time></trkpt><trkpt lat="41.8982059" lon="-8.0101346"><ele>901.0</ele><time>2026-04-04T10:44:14.823Z</time></trkpt><trkpt lat="41.8981503" lon="-8.0100539"><ele>901.0</ele><time>2026-04-04T10:44:15.822Z</time></trkpt><trkpt lat="41.8980935" lon="-8.0099946"><ele>900.9999999999999</ele><time>2026-04-04T10:44:16.823Z</time></trkpt><trkpt lat="41.8980376" lon="-8.0099536"><ele>900.9999999999999</ele><time>2026-04-04T10:44:17.823Z</time></trkpt><trkpt lat="41.8979351" lon="-8.0099312"><ele>901.0</ele><time>2026-04-04T10:44:19.823Z</time></trkpt><trkpt lat="41.8978294" lon="-8.0099438"><ele>901.0</ele><time>2026-04-04T10:44:21.822Z</time></trkpt><trkpt lat="41.8977056" lon="-8.0099035"><ele>900.9999999999999</ele><time>2026-04-04T10:44:23.822Z</time></trkpt><trkpt lat="41.8976319" lon="-8.0098777"><ele>901.0</ele><time>2026-04-04T10:44:24.822Z</time></trkpt><trkpt lat="41.8975526" lon="-8.0098535"><ele>901.0</ele><time>2026-04-04T10:44:25.824Z</time></trkpt><trkpt lat="41.8974577" lon="-8.009825"><ele>901.0</ele><time>2026-04-04T10:44:26.823Z</time></trkpt><trkpt lat="41.8973743" lon="-8.0098106"><ele>900.9999999999999</ele><time>2026-04-04T10:44:27.822Z</time></trkpt><trkpt lat="41.8972996" lon="-8.0098016"><ele>901.0</ele><time>2026-04-04T10:44:28.822Z</time></trkpt><trkpt lat="41.8971969" lon="-8.0097842"><ele>898.8571428571429</ele><time>2026-04-04T10:44:30.822Z</time></trkpt><trkpt lat="41.8971265" lon="-8.0097673"><ele>896.7142857142858</ele><time>2026-04-04T10:44:33.823Z</time></trkpt><trkpt lat="41.8970766" lon="-8.0097141"><ele>894.5714285714287</ele><time>2026-04-04T10:44:38.823Z</time></trkpt><trkpt lat="41.8970211" lon="-8.0096502"><ele>892.4285714285714</ele><time>2026-04-04T10:44:40.822Z</time></trkpt><trkpt lat="41.8969622" lon="-8.0095765"><ele>890.2857142857143</ele><time>2026-04-04T10:44:42.822Z</time></trkpt><trkpt lat="41.8968896" lon="-8.0095402"><ele>888.1428571428571</ele><time>2026-04-04T10:44:45.822Z</time></trkpt><trkpt lat="41.8968234" lon="-8.0095738"><ele>886.0</ele><time>2026-04-04T10:44:47.823Z</time></trkpt><trkpt lat="41.8967198" lon="-8.0095903"><ele>885.4</ele><time>2026-04-04T10:44:49.822Z</time></trkpt><trkpt lat="41.896641" lon="-8.0095996"><ele>884.8</ele><time>2026-04-04T10:44:50.822Z</time></trkpt><trkpt lat="41.8965468" lon="-8.0096235"><ele>884.1999999999999</ele><time>2026-04-04T10:44:51.822Z</time></trkpt><trkpt lat="41.8964494" lon="-8.0096598"><ele>883.5999999999999</ele><time>2026-04-04T10:44:52.822Z</time></trkpt><trkpt lat="41.8963432" lon="-8.0096998"><ele>883.0</ele><time>2026-04-04T10:44:53.822Z</time></trkpt><trkpt lat="41.8962452" lon="-8.0097307"><ele>883.0</ele><time>2026-04-04T10:44:54.823Z</time></trkpt><trkpt lat="41.8961528" lon="-8.0097481"><ele>883.0</ele><time>2026-04-04T10:44:55.822Z</time></trkpt><trkpt lat="41.8960649" lon="-8.0097405"><ele>883.0</ele><time>2026-04-04T10:44:56.824Z</time></trkpt><trkpt lat="41.8959809" lon="-8.0097083"><ele>883.0</ele><time>2026-04-04T10:44:57.822Z</time></trkpt><trkpt lat="41.8958941" lon="-8.0096536"><ele>883.0</ele><time>2026-04-04T10:44:58.823Z</time></trkpt><trkpt lat="41.8958052" lon="-8.0095783"><ele>884.0</ele><time>2026-04-04T10:44:59.823Z</time></trkpt><trkpt lat="41.8957093" lon="-8.0094545"><ele>885.0</ele><time>2026-04-04T10:45:00.823Z</time></trkpt><trkpt lat="41.8956214" lon="-8.009324"><ele>886.0</ele><time>2026-04-04T10:45:01.823Z</time></trkpt><trkpt lat="41.8955431" lon="-8.0091984"><ele>887.0</ele><time>2026-04-04T10:45:02.823Z</time></trkpt><trkpt lat="41.8954691" lon="-8.009084"><ele>889.4000000000001</ele><time>2026-04-04T10:45:03.823Z</time></trkpt><trkpt lat="41.8953933" lon="-8.0089667"><ele>891.8000000000001</ele><time>2026-04-04T10:45:04.822Z</time></trkpt><trkpt lat="41.8953117" lon="-8.0088533"><ele>894.2</ele><time>2026-04-04T10:45:05.823Z</time></trkpt><trkpt lat="41.895235" lon="-8.0087383"><ele>896.6</ele><time>2026-04-04T10:45:06.823Z</time></trkpt><trkpt lat="41.89517" lon="-8.0086367"><ele>899.0</ele><time>2026-04-04T10:45:07.822Z</time></trkpt><trkpt lat="41.8951167" lon="-8.0085417"><ele>898.5000000000001</ele><time>2026-04-04T10:45:08.823Z</time></trkpt><trkpt lat="41.895075" lon="-8.0084467"><ele>898.0</ele><time>2026-04-04T10:45:09.822Z</time></trkpt><trkpt lat="41.89504" lon="-8.0083517"><ele>897.5</ele><time>2026-04-04T10:45:10.823Z</time></trkpt><trkpt lat="41.8950167" lon="-8.0082483"><ele>897.0</ele><time>2026-04-04T10:45:11.823Z</time></trkpt><trkpt lat="41.8949883" lon="-8.0081483"><ele>896.5000000000001</ele><time>2026-04-04T10:45:12.823Z</time></trkpt><trkpt lat="41.8949517" lon="-8.008045"><ele>896.0</ele><time>2026-04-04T10:45:13.822Z</time></trkpt><trkpt lat="41.894915" lon="-8.0079433"><ele>897.8333333333334</ele><time>2026-04-04T10:45:14.823Z</time></trkpt><trkpt lat="41.8948783" lon="-8.007845"><ele>899.6666666666667</ele><time>2026-04-04T10:45:15.822Z</time></trkpt><trkpt lat="41.8948433" lon="-8.00774"><ele>901.5</ele><time>2026-04-04T10:45:16.822Z</time></trkpt><trkpt lat="41.8948133" lon="-8.0076317"><ele>903.3333333333333</ele><time>2026-04-04T10:45:17.823Z</time></trkpt><trkpt lat="41.894785" lon="-8.0075183"><ele>905.1666666666666</ele><time>2026-04-04T10:45:18.822Z</time></trkpt><trkpt lat="41.89476" lon="-8.0074017"><ele>907.0</ele><time>2026-04-04T10:45:19.823Z</time></trkpt><trkpt lat="41.8947267" lon="-8.007295"><ele>910.2</ele><time>2026-04-04T10:45:20.823Z</time></trkpt><trkpt lat="41.8946917" lon="-8.0071967"><ele>913.4000000000001</ele><time>2026-04-04T10:45:21.823Z</time></trkpt><trkpt lat="41.89466" lon="-8.007075"><ele>916.5999999999999</ele><time>2026-04-04T10:45:22.823Z</time></trkpt><trkpt lat="41.8946133" lon="-8.0069417"><ele>919.8</ele><time>2026-04-04T10:45:23.822Z</time></trkpt><trkpt lat="41.8945667" lon="-8.0068117"><ele>923.0</ele><time>2026-04-04T10:45:24.822Z</time></trkpt><trkpt lat="41.8945267" lon="-8.0067017"><ele>924.3333333333334</ele><time>2026-04-04T10:45:25.824Z</time></trkpt><trkpt lat="41.8944917" lon="-8.0065967"><ele>925.6666666666667</ele><time>2026-04-04T10:45:26.823Z</time></trkpt><trkpt lat="41.894465" lon="-8.006495"><ele>927.0</ele><time>2026-04-04T10:45:27.822Z</time></trkpt><trkpt lat="41.8944417" lon="-8.006395"><ele>928.3333333333333</ele><time>2026-04-04T10:45:28.823Z</time></trkpt><trkpt lat="41.894435" lon="-8.0063067"><ele>929.6666666666666</ele><time>2026-04-04T10:45:29.822Z</time></trkpt><trkpt lat="41.89444" lon="-8.0061883"><ele>931.0</ele><time>2026-04-04T10:45:31.824Z</time></trkpt><trkpt lat="41.8944517" lon="-8.0060983"><ele>930.9999999999999</ele><time>2026-04-04T10:45:58.823Z</time></trkpt><trkpt lat="41.8944433" lon="-8.0059967"><ele>931.0</ele><time>2026-04-04T10:46:01.823Z</time></trkpt><trkpt lat="41.89442" lon="-8.0058817"><ele>931.0</ele><time>2026-04-04T10:46:04.823Z</time></trkpt><trkpt lat="41.8943767" lon="-8.0057583"><ele>931.0</ele><time>2026-04-04T10:46:06.823Z</time></trkpt><trkpt lat="41.8943433" lon="-8.00568"><ele>930.9999999999999</ele><time>2026-04-04T10:46:07.822Z</time></trkpt><trkpt lat="41.894315" lon="-8.0055983"><ele>931.0</ele><time>2026-04-04T10:46:08.823Z</time></trkpt><trkpt lat="41.8942833" lon="-8.0054517"><ele>931.4999999999999</ele><time>2026-04-04T10:46:10.824Z</time></trkpt><trkpt lat="41.89428" lon="-8.0053533"><ele>932.0</ele><time>2026-04-04T10:46:12.825Z</time></trkpt><trkpt lat="41.8942883" lon="-8.0052683"><ele>932.5</ele><time>2026-04-04T10:46:18.824Z</time></trkpt><trkpt lat="41.8943183" lon="-8.0051467"><ele>933.0</ele><time>2026-04-04T10:46:20.824Z</time></trkpt><trkpt lat="41.8943633" lon="-8.004985"><ele>933.4999999999999</ele><time>2026-04-04T10:46:22.823Z</time></trkpt><trkpt lat="41.894385" lon="-8.0048933"><ele>934.0</ele><time>2026-04-04T10:46:23.824Z</time></trkpt><trkpt lat="41.8944017" lon="-8.0048067"><ele>935.1666666666666</ele><time>2026-04-04T10:46:24.823Z</time></trkpt><trkpt lat="41.894415" lon="-8.00471"><ele>936.3333333333333</ele><time>2026-04-04T10:46:25.824Z</time></trkpt><trkpt lat="41.8944283" lon="-8.0046117"><ele>937.5</ele><time>2026-04-04T10:46:26.823Z</time></trkpt><trkpt lat="41.89444" lon="-8.0045083"><ele>938.6666666666667</ele><time>2026-04-04T10:46:27.824Z</time></trkpt><trkpt lat="41.8944517" lon="-8.0043983"><ele>939.8333333333334</ele><time>2026-04-04T10:46:28.824Z</time></trkpt><trkpt lat="41.8944533" lon="-8.0042833"><ele>941.0</ele><time>2026-04-04T10:46:29.823Z</time></trkpt><trkpt lat="41.8944467" lon="-8.0041633"><ele>943.1999999999999</ele><time>2026-04-04T10:46:30.824Z</time></trkpt><trkpt lat="41.8944267" lon="-8.0040267"><ele>945.3999999999999</ele><time>2026-04-04T10:46:31.824Z</time></trkpt><trkpt lat="41.8944033" lon="-8.0038767"><ele>947.6</ele><time>2026-04-04T10:46:32.824Z</time></trkpt><trkpt lat="41.8943683" lon="-8.00374"><ele>949.8</ele><time>2026-04-04T10:46:33.824Z</time></trkpt><trkpt lat="41.894335" lon="-8.0036117"><ele>952.0</ele><time>2026-04-04T10:46:34.823Z</time></trkpt><trkpt lat="41.8943133" lon="-8.0034883"><ele>951.9999999999999</ele><time>2026-04-04T10:46:35.823Z</time></trkpt><trkpt lat="41.8943083" lon="-8.00336"><ele>952.0</ele><time>2026-04-04T10:46:36.823Z</time></trkpt><trkpt lat="41.8943133" lon="-8.0032367"><ele>952.0</ele><time>2026-04-04T10:46:37.825Z</time></trkpt><trkpt lat="41.894315" lon="-8.00313"><ele>952.0</ele><time>2026-04-04T10:46:38.824Z</time></trkpt><trkpt lat="41.8943067" lon="-8.0030133"><ele>951.9999999999999</ele><time>2026-04-04T10:46:39.824Z</time></trkpt><trkpt lat="41.89428" lon="-8.002895"><ele>952.0</ele><time>2026-04-04T10:46:40.823Z</time></trkpt><trkpt lat="41.8942517" lon="-8.00277"><ele>953.2</ele><time>2026-04-04T10:46:41.823Z</time></trkpt><trkpt lat="41.8942267" lon="-8.002635"><ele>954.4000000000001</ele><time>2026-04-04T10:46:42.824Z</time></trkpt><trkpt lat="41.8942117" lon="-8.002495"><ele>955.5999999999999</ele><time>2026-04-04T10:46:43.823Z</time></trkpt><trkpt lat="41.8942033" lon="-8.0023583"><ele>956.8</ele><time>2026-04-04T10:46:44.823Z</time></trkpt><trkpt lat="41.8942017" lon="-8.0022417"><ele>958.0</ele><time>2026-04-04T10:46:45.823Z</time></trkpt><trkpt lat="41.8942033" lon="-8.0021333"><ele>958.9999999999999</ele><time>2026-04-04T10:46:46.823Z</time></trkpt><trkpt lat="41.894205" lon="-8.0020283"><ele>960.0</ele><time>2026-04-04T10:46:47.823Z</time></trkpt><trkpt lat="41.894205" lon="-8.001935"><ele>961.0</ele><time>2026-04-04T10:46:48.823Z</time></trkpt><trkpt lat="41.89419" lon="-8.001805"><ele>962.0</ele><time>2026-04-04T10:46:50.823Z</time></trkpt><trkpt lat="41.89415" lon="-8.001665"><ele>962.9999999999999</ele><time>2026-04-04T10:46:52.824Z</time></trkpt><trkpt lat="41.89413" lon="-8.0015683"><ele>964.0</ele><time>2026-04-04T10:46:53.824Z</time></trkpt><trkpt lat="41.8940983" lon="-8.0014683"><ele>965.8333333333333</ele><time>2026-04-04T10:46:54.823Z</time></trkpt><trkpt lat="41.894055" lon="-8.001365"><ele>967.6666666666666</ele><time>2026-04-04T10:46:55.823Z</time></trkpt><trkpt lat="41.8940083" lon="-8.0012617"><ele>969.5</ele><time>2026-04-04T10:46:56.824Z</time></trkpt><trkpt lat="41.8939817" lon="-8.001145"><ele>971.3333333333333</ele><time>2026-04-04T10:46:57.826Z</time></trkpt><trkpt lat="41.893955" lon="-8.0010383"><ele>973.1666666666666</ele><time>2026-04-04T10:46:58.824Z</time></trkpt><trkpt lat="41.8939267" lon="-8.0009367"><ele>975.0</ele><time>2026-04-04T10:46:59.823Z</time></trkpt><trkpt lat="41.8938917" lon="-8.0008417"><ele>976.8</ele><time>2026-04-04T10:47:00.823Z</time></trkpt><trkpt lat="41.893855" lon="-8.0007367"><ele>978.6</ele><time>2026-04-04T10:47:01.823Z</time></trkpt><trkpt lat="41.8938183" lon="-8.0006167"><ele>980.4000000000001</ele><time>2026-04-04T10:47:02.825Z</time></trkpt><trkpt lat="41.893785" lon="-8.00049"><ele>982.2</ele><time>2026-04-04T10:47:03.824Z</time></trkpt><trkpt lat="41.89375" lon="-8.000365"><ele>984.0</ele><time>2026-04-04T10:47:04.824Z</time></trkpt><trkpt lat="41.8937133" lon="-8.00024"><ele>984.0</ele><time>2026-04-04T10:47:05.825Z</time></trkpt><trkpt lat="41.893665" lon="-8.00012"><ele>984.0</ele><time>2026-04-04T10:47:06.823Z</time></trkpt><trkpt lat="41.8936233" lon="-8.0000167"><ele>984.0</ele><time>2026-04-04T10:47:07.823Z</time></trkpt><trkpt lat="41.8935883" lon="-7.9999233"><ele>984.0</ele><time>2026-04-04T10:47:08.824Z</time></trkpt><trkpt lat="41.893565" lon="-7.999835"><ele>984.0</ele><time>2026-04-04T10:47:09.823Z</time></trkpt><trkpt lat="41.89355" lon="-7.9997167"><ele>984.0</ele><time>2026-04-04T10:47:11.824Z</time></trkpt><trkpt lat="41.8935567" lon="-7.999595"><ele>984.0000000000001</ele><time>2026-04-04T10:47:48.823Z</time></trkpt><trkpt lat="41.8935967" lon="-7.9994967"><ele>984.0</ele><time>2026-04-04T10:47:50.824Z</time></trkpt><trkpt lat="41.8936433" lon="-7.99943"><ele>984.0000000000001</ele><time>2026-04-04T10:47:51.823Z</time></trkpt><trkpt lat="41.8936883" lon="-7.99935"><ele>984.0000000000001</ele><time>2026-04-04T10:47:52.823Z</time></trkpt><trkpt lat="41.8937233" lon="-7.9992683"><ele>984.0</ele><time>2026-04-04T10:47:53.823Z</time></trkpt><trkpt lat="41.8937517" lon="-7.999185"><ele>984.0000000000001</ele><time>2026-04-04T10:47:54.824Z</time></trkpt><trkpt lat="41.8937633" lon="-7.9990783"><ele>984.0000000000001</ele><time>2026-04-04T10:47:55.825Z</time></trkpt><trkpt lat="41.8937733" lon="-7.9989933"><ele>985.3333333333334</ele><time>2026-04-04T10:47:56.824Z</time></trkpt><trkpt lat="41.8937867" lon="-7.99887"><ele>986.6666666666667</ele><time>2026-04-04T10:47:58.823Z</time></trkpt><trkpt lat="41.89382" lon="-7.9987867"><ele>988.0</ele><time>2026-04-04T10:48:01.824Z</time></trkpt><trkpt lat="41.89388" lon="-7.9986967"><ele>989.3333333333334</ele><time>2026-04-04T10:48:03.823Z</time></trkpt><trkpt lat="41.8939217" lon="-7.99862"><ele>990.6666666666667</ele><time>2026-04-04T10:48:04.823Z</time></trkpt><trkpt lat="41.893965" lon="-7.998555"><ele>992.0</ele><time>2026-04-04T10:48:05.823Z</time></trkpt><trkpt lat="41.89402" lon="-7.998495"><ele>992.0000000000001</ele><time>2026-04-04T10:48:06.824Z</time></trkpt><trkpt lat="41.8940933" lon="-7.99844"><ele>992.0</ele><time>2026-04-04T10:48:07.823Z</time></trkpt><trkpt lat="41.8941667" lon="-7.9983933"><ele>992.0</ele><time>2026-04-04T10:48:08.825Z</time></trkpt><trkpt lat="41.8942433" lon="-7.9983533"><ele>992.0</ele><time>2026-04-04T10:48:09.823Z</time></trkpt><trkpt lat="41.8943133" lon="-7.9983233"><ele>992.0000000000001</ele><time>2026-04-04T10:48:10.823Z</time></trkpt><trkpt lat="41.8943817" lon="-7.9982983"><ele>992.0</ele><time>2026-04-04T10:48:11.825Z</time></trkpt><trkpt lat="41.8944667" lon="-7.9983233"><ele>995.4000000000001</ele><time>2026-04-04T10:48:13.825Z</time></trkpt><trkpt lat="41.89451" lon="-7.9984517"><ele>998.8000000000001</ele><time>2026-04-04T10:48:15.825Z</time></trkpt><trkpt lat="41.8945383" lon="-7.9985433"><ele>1002.2</ele><time>2026-04-04T10:48:16.824Z</time></trkpt><trkpt lat="41.8945583" lon="-7.9986567"><ele>1005.6</ele><time>2026-04-04T10:48:17.824Z</time></trkpt><trkpt lat="41.8945733" lon="-7.998795"><ele>1009.0</ele><time>2026-04-04T10:48:18.826Z</time></trkpt><trkpt lat="41.89459" lon="-7.998925"><ele>1009.0</ele><time>2026-04-04T10:48:19.824Z</time></trkpt><trkpt lat="41.894615" lon="-7.9990333"><ele>1009.0000000000001</ele><time>2026-04-04T10:48:20.824Z</time></trkpt><trkpt lat="41.8946433" lon="-7.9991517"><ele>1009.0000000000001</ele><time>2026-04-04T10:48:21.823Z</time></trkpt><trkpt lat="41.8946733" lon="-7.999275"><ele>1009.0</ele><time>2026-04-04T10:48:22.824Z</time></trkpt><trkpt lat="41.8947033" lon="-7.9993883"><ele>1009.0</ele><time>2026-04-04T10:48:23.826Z</time></trkpt><trkpt lat="41.8947383" lon="-7.9995083"><ele>1009.1666666666666</ele><time>2026-04-04T10:48:24.823Z</time></trkpt><trkpt lat="41.8947683" lon="-7.9996267"><ele>1009.3333333333333</ele><time>2026-04-04T10:48:25.825Z</time></trkpt><trkpt lat="41.8948033" lon="-7.9997383"><ele>1009.5</ele><time>2026-04-04T10:48:26.824Z</time></trkpt><trkpt lat="41.8948417" lon="-7.9998367"><ele>1009.6666666666667</ele><time>2026-04-04T10:48:27.823Z</time></trkpt><trkpt lat="41.894895" lon="-7.9999333"><ele>1009.8333333333334</ele><time>2026-04-04T10:48:28.824Z</time></trkpt><trkpt lat="41.8949533" lon="-8.0000217"><ele>1010.0</ele><time>2026-04-04T10:48:29.824Z</time></trkpt><trkpt lat="41.8950133" lon="-8.0000817"><ele>1010.0</ele><time>2026-04-04T10:48:30.823Z</time></trkpt><trkpt lat="41.8950717" lon="-8.000115"><ele>1009.9999999999999</ele><time>2026-04-04T10:48:31.824Z</time></trkpt><trkpt lat="41.8951383" lon="-8.00013"><ele>1010.0</ele><time>2026-04-04T10:48:32.824Z</time></trkpt><trkpt lat="41.8952067" lon="-8.0001567"><ele>1010.0</ele><time>2026-04-04T10:48:33.824Z</time></trkpt><trkpt lat="41.895265" lon="-8.000195"><ele>1009.9999999999999</ele><time>2026-04-04T10:48:34.823Z</time></trkpt><trkpt lat="41.8953333" lon="-8.000245"><ele>1010.0</ele><time>2026-04-04T10:48:35.823Z</time></trkpt><trkpt lat="41.8954067" lon="-8.0002817"><ele>1010.0</ele><time>2026-04-04T10:48:36.824Z</time></trkpt><trkpt lat="41.8955017" lon="-8.0003233"><ele>1012.0</ele><time>2026-04-04T10:48:37.824Z</time></trkpt><trkpt lat="41.895605" lon="-8.000365"><ele>1014.0</ele><time>2026-04-04T10:48:38.824Z</time></trkpt><trkpt lat="41.8956983" lon="-8.000405"><ele>1016.0</ele><time>2026-04-04T10:48:39.824Z</time></trkpt><trkpt lat="41.8957767" lon="-8.000425"><ele>1018.0</ele><time>2026-04-04T10:48:40.825Z</time></trkpt><trkpt lat="41.8958483" lon="-8.00042"><ele>1020.0</ele><time>2026-04-04T10:48:41.824Z</time></trkpt><trkpt lat="41.8959467" lon="-8.00036"><ele>1021.8</ele><time>2026-04-04T10:48:43.824Z</time></trkpt><trkpt lat="41.8960133" lon="-8.0003133"><ele>1023.6</ele><time>2026-04-04T10:48:45.824Z</time></trkpt><trkpt lat="41.896025" lon="-8.0004"><ele>1025.4</ele><time>2026-04-04T10:48:57.823Z</time></trkpt><trkpt lat="41.8960567" lon="-8.0005483"><ele>1027.2</ele><time>2026-04-04T10:48:59.823Z</time></trkpt><trkpt lat="41.8961067" lon="-8.0006733"><ele>1029.0</ele><time>2026-04-04T10:49:01.824Z</time></trkpt><trkpt lat="41.8961483" lon="-8.0007833"><ele>1029.0</ele><time>2026-04-04T10:49:03.823Z</time></trkpt><trkpt lat="41.8961667" lon="-8.000865"><ele>1029.0</ele><time>2026-04-04T10:49:05.824Z</time></trkpt><trkpt lat="41.8962167" lon="-8.0009433"><ele>1029.0</ele><time>2026-04-04T10:49:08.824Z</time></trkpt><trkpt lat="41.89625" lon="-8.0008683"><ele>1029.0</ele><time>2026-04-04T10:49:12.825Z</time></trkpt><trkpt lat="41.89626" lon="-8.0007717"><ele>1029.0</ele><time>2026-04-04T10:49:15.824Z</time></trkpt><trkpt lat="41.8963267" lon="-8.0008"><ele>1029.0</ele><time>2026-04-04T10:49:19.824Z</time></trkpt><trkpt lat="41.896345" lon="-8.0008817"><ele>1029.0</ele><time>2026-04-04T10:49:22.823Z</time></trkpt><trkpt lat="41.8962867" lon="-8.0009483"><ele>1029.0</ele><time>2026-04-04T10:50:16.824Z</time></trkpt><trkpt lat="41.8962233" lon="-8.0009483"><ele>1029.0</ele><time>2026-04-04T10:50:20.824Z</time></trkpt><trkpt lat="41.896185" lon="-8.0008633"><ele>1029.0</ele><time>2026-04-04T11:02:28.824Z</time></trkpt><trkpt lat="41.896155" lon="-8.0007567"><ele>1029.0</ele><time>2026-04-04T11:02:31.822Z</time></trkpt><trkpt lat="41.8961183" lon="-8.0006733"><ele>1029.0</ele><time>2026-04-04T11:02:33.823Z</time></trkpt><trkpt lat="41.8960867" lon="-8.0005883"><ele>1029.0</ele><time>2026-04-04T11:02:35.823Z</time></trkpt><trkpt lat="41.8960667" lon="-8.0005067"><ele>1029.0</ele><time>2026-04-04T11:02:37.823Z</time></trkpt><trkpt lat="41.8960433" lon="-8.000385"><ele>1029.0</ele><time>2026-04-04T11:02:40.823Z</time></trkpt><trkpt lat="41.89603" lon="-8.0003"><ele>1029.0</ele><time>2026-04-04T11:02:42.824Z</time></trkpt><trkpt lat="41.8960667" lon="-8.0002183"><ele>1029.0</ele><time>2026-04-04T11:02:45.823Z</time></trkpt><trkpt lat="41.8961333" lon="-8.0002083"><ele>1029.0</ele><time>2026-04-04T11:02:48.823Z</time></trkpt><trkpt lat="41.8961967" lon="-8.000175"><ele>1029.0</ele><time>2026-04-04T11:02:58.823Z</time></trkpt><trkpt lat="41.8962817" lon="-8.0001083"><ele>1029.0</ele><time>2026-04-04T11:03:01.823Z</time></trkpt><trkpt lat="41.8963567" lon="-8.0000567"><ele>1029.0</ele><time>2026-04-04T11:03:03.823Z</time></trkpt><trkpt lat="41.896425" lon="-8.0000233"><ele>1029.0</ele><time>2026-04-04T11:03:05.823Z</time></trkpt><trkpt lat="41.8964867" lon="-7.99999"><ele>1029.0</ele><time>2026-04-04T11:03:07.823Z</time></trkpt><trkpt lat="41.8965567" lon="-7.9999317"><ele>1029.0</ele><time>2026-04-04T11:03:09.823Z</time></trkpt><trkpt lat="41.8966" lon="-7.9998533"><ele>1029.0</ele><time>2026-04-04T11:03:11.823Z</time></trkpt><trkpt lat="41.896625" lon="-7.999765"><ele>1029.0</ele><time>2026-04-04T11:03:13.823Z</time></trkpt><trkpt lat="41.89664" lon="-7.999675"><ele>1029.0</ele><time>2026-04-04T11:03:15.823Z</time></trkpt><trkpt lat="41.8966467" lon="-7.999555"><ele>1029.0</ele><time>2026-04-04T11:03:17.822Z</time></trkpt><trkpt lat="41.896635" lon="-7.9994333"><ele>1029.0</ele><time>2026-04-04T11:03:19.822Z</time></trkpt><trkpt lat="41.89662" lon="-7.9992883"><ele>1029.0</ele><time>2026-04-04T11:03:21.822Z</time></trkpt><trkpt lat="41.8965983" lon="-7.999135"><ele>1029.0</ele><time>2026-04-04T11:03:23.824Z</time></trkpt><trkpt lat="41.8965883" lon="-7.999005"><ele>1029.0</ele><time>2026-04-04T11:03:25.822Z</time></trkpt><trkpt lat="41.8966067" lon="-7.9988783"><ele>1029.8333333333333</ele><time>2026-04-04T11:03:27.822Z</time></trkpt><trkpt lat="41.8966383" lon="-7.9987367"><ele>1030.6666666666667</ele><time>2026-04-04T11:03:29.822Z</time></trkpt><trkpt lat="41.89667" lon="-7.9986183"><ele>1031.5</ele><time>2026-04-04T11:03:31.822Z</time></trkpt><trkpt lat="41.8967083" lon="-7.9985417"><ele>1032.3333333333335</ele><time>2026-04-04T11:03:33.822Z</time></trkpt><trkpt lat="41.8967667" lon="-7.998485"><ele>1033.1666666666667</ele><time>2026-04-04T11:03:35.823Z</time></trkpt><trkpt lat="41.8968533" lon="-7.99845"><ele>1034.0</ele><time>2026-04-04T11:03:37.822Z</time></trkpt><trkpt lat="41.896965" lon="-7.998395"><ele>1035.6666666666667</ele><time>2026-04-04T11:03:39.822Z</time></trkpt><trkpt lat="41.897025" lon="-7.9983683"><ele>1037.3333333333335</ele><time>2026-04-04T11:03:40.822Z</time></trkpt><trkpt lat="41.8971433" lon="-7.99834"><ele>1039.0</ele><time>2026-04-04T11:03:42.822Z</time></trkpt><trkpt lat="41.8972067" lon="-7.9983367"><ele>1040.6666666666667</ele><time>2026-04-04T11:03:43.823Z</time></trkpt><trkpt lat="41.89731" lon="-7.998355"><ele>1042.3333333333333</ele><time>2026-04-04T11:03:45.822Z</time></trkpt><trkpt lat="41.89739" lon="-7.9983383"><ele>1044.0</ele><time>2026-04-04T11:03:47.822Z</time></trkpt><trkpt lat="41.8974517" lon="-7.998255"><ele>1045.3333333333333</ele><time>2026-04-04T11:03:49.822Z</time></trkpt><trkpt lat="41.8975117" lon="-7.9981433"><ele>1046.6666666666667</ele><time>2026-04-04T11:03:51.822Z</time></trkpt><trkpt lat="41.897535" lon="-7.9980483"><ele>1048.0</ele><time>2026-04-04T11:03:53.823Z</time></trkpt><trkpt lat="41.89749" lon="-7.99797"><ele>1049.3333333333335</ele><time>2026-04-04T11:03:55.823Z</time></trkpt><trkpt lat="41.8974383" lon="-7.99787"><ele>1050.6666666666667</ele><time>2026-04-04T11:03:57.822Z</time></trkpt><trkpt lat="41.89742" lon="-7.9977467"><ele>1052.0</ele><time>2026-04-04T11:03:59.823Z</time></trkpt><trkpt lat="41.8974417" lon="-7.99762"><ele>1052.0</ele><time>2026-04-04T11:04:01.822Z</time></trkpt><trkpt lat="41.8974883" lon="-7.9975317"><ele>1052.0</ele><time>2026-04-04T11:04:03.823Z</time></trkpt><trkpt lat="41.89754" lon="-7.997435"><ele>1052.0</ele><time>2026-04-04T11:04:16.824Z</time></trkpt><trkpt lat="41.8974783" lon="-7.99738"><ele>1052.0</ele><time>2026-04-04T11:04:20.823Z</time></trkpt><trkpt lat="41.8974067" lon="-7.99742"><ele>1052.0</ele><time>2026-04-04T11:04:23.823Z</time></trkpt><trkpt lat="41.89734" lon="-7.997425"><ele>1052.0</ele><time>2026-04-04T11:04:25.823Z</time></trkpt><trkpt lat="41.8972733" lon="-7.9974067"><ele>1053.5</ele><time>2026-04-04T11:04:27.822Z</time></trkpt><trkpt lat="41.89722" lon="-7.99735"><ele>1055.0</ele><time>2026-04-04T11:04:29.823Z</time></trkpt><trkpt lat="41.897155" lon="-7.9972333"><ele>1056.5</ele><time>2026-04-04T11:04:31.823Z</time></trkpt><trkpt lat="41.8971117" lon="-7.9971633"><ele>1058.0</ele><time>2026-04-04T11:04:32.823Z</time></trkpt><trkpt lat="41.8970617" lon="-7.99709"><ele>1059.5</ele><time>2026-04-04T11:04:33.822Z</time></trkpt><trkpt lat="41.8970067" lon="-7.9970133"><ele>1061.0</ele><time>2026-04-04T11:04:34.822Z</time></trkpt><trkpt lat="41.8969467" lon="-7.9969283"><ele>1061.0</ele><time>2026-04-04T11:04:35.823Z</time></trkpt><trkpt lat="41.8968867" lon="-7.9968367"><ele>1061.0</ele><time>2026-04-04T11:04:36.823Z</time></trkpt><trkpt lat="41.8968333" lon="-7.9967483"><ele>1061.0</ele><time>2026-04-04T11:04:37.823Z</time></trkpt><trkpt lat="41.8967917" lon="-7.9966717"><ele>1061.0</ele><time>2026-04-04T11:04:38.823Z</time></trkpt><trkpt lat="41.89677" lon="-7.9965067"><ele>1061.0</ele><time>2026-04-04T11:04:40.823Z</time></trkpt><trkpt lat="41.8967817" lon="-7.9964033"><ele>1061.0</ele><time>2026-04-04T11:04:41.823Z</time></trkpt><trkpt lat="41.8967917" lon="-7.9962983"><ele>1063.6666666666667</ele><time>2026-04-04T11:04:42.823Z</time></trkpt><trkpt lat="41.8968017" lon="-7.9962033"><ele>1066.3333333333335</ele><time>2026-04-04T11:04:43.823Z</time></trkpt><trkpt lat="41.8968067" lon="-7.9961133"><ele>1069.0</ele><time>2026-04-04T11:04:44.823Z</time></trkpt><trkpt lat="41.8968067" lon="-7.9960267"><ele>1071.6666666666667</ele><time>2026-04-04T11:04:45.822Z</time></trkpt><trkpt lat="41.896805" lon="-7.99594"><ele>1074.3333333333333</ele><time>2026-04-04T11:04:46.825Z</time></trkpt><trkpt lat="41.8967867" lon="-7.9957883"><ele>1077.0</ele><time>2026-04-04T11:04:48.823Z</time></trkpt><trkpt lat="41.89676" lon="-7.9956533"><ele>1076.0</ele><time>2026-04-04T11:04:50.823Z</time></trkpt><trkpt lat="41.896725" lon="-7.99549"><ele>1075.0</ele><time>2026-04-04T11:04:52.822Z</time></trkpt><trkpt lat="41.8967033" lon="-7.9953917"><ele>1074.0</ele><time>2026-04-04T11:04:53.824Z</time></trkpt><trkpt lat="41.8966767" lon="-7.995305"><ele>1073.0</ele><time>2026-04-04T11:04:54.824Z</time></trkpt><trkpt lat="41.8966433" lon="-7.995215"><ele>1072.0</ele><time>2026-04-04T11:04:55.823Z</time></trkpt><trkpt lat="41.8966083" lon="-7.99508"><ele>1072.4</ele><time>2026-04-04T11:04:57.823Z</time></trkpt><trkpt lat="41.8966217" lon="-7.994955"><ele>1072.8000000000002</ele><time>2026-04-04T11:04:59.823Z</time></trkpt><trkpt lat="41.8966467" lon="-7.99481"><ele>1073.2</ele><time>2026-04-04T11:05:01.824Z</time></trkpt><trkpt lat="41.89666" lon="-7.99467"><ele>1073.6000000000001</ele><time>2026-04-04T11:05:03.822Z</time></trkpt><trkpt lat="41.8966817" lon="-7.99456"><ele>1074.0</ele><time>2026-04-04T11:05:05.823Z</time></trkpt><trkpt lat="41.8967083" lon="-7.994465"><ele>1074.0</ele><time>2026-04-04T11:05:07.824Z</time></trkpt><trkpt lat="41.896735" lon="-7.9943817"><ele>1074.0</ele><time>2026-04-04T11:05:09.822Z</time></trkpt><trkpt lat="41.89677" lon="-7.9943033"><ele>1074.0</ele><time>2026-04-04T11:05:11.824Z</time></trkpt><trkpt lat="41.89681" lon="-7.994235"><ele>1074.0</ele><time>2026-04-04T11:05:14.824Z</time></trkpt><trkpt lat="41.8968583" lon="-7.9941683"><ele>1074.0</ele><time>2026-04-04T11:08:57.824Z</time></trkpt><trkpt lat="41.8969" lon="-7.9940433"><ele>1074.0</ele><time>2026-04-04T11:09:00.825Z</time></trkpt><trkpt lat="41.8969383" lon="-7.99394"><ele>1078.6666666666667</ele><time>2026-04-04T11:09:02.825Z</time></trkpt><trkpt lat="41.8969633" lon="-7.9938517"><ele>1083.3333333333333</ele><time>2026-04-04T11:09:04.824Z</time></trkpt><trkpt lat="41.8969917" lon="-7.9937633"><ele>1088.0</ele><time>2026-04-04T11:09:06.824Z</time></trkpt><trkpt lat="41.897015" lon="-7.9936483"><ele>1092.6666666666665</ele><time>2026-04-04T11:09:09.823Z</time></trkpt><trkpt lat="41.8970183" lon="-7.9935633"><ele>1097.3333333333333</ele><time>2026-04-04T11:09:11.826Z</time></trkpt><trkpt lat="41.8970367" lon="-7.9934283"><ele>1102.0</ele><time>2026-04-04T11:10:39.823Z</time></trkpt><trkpt lat="41.89705" lon="-7.9933117"><ele>1102.0</ele><time>2026-04-04T11:10:41.823Z</time></trkpt><trkpt lat="41.897075" lon="-7.9932"><ele>1102.0</ele><time>2026-04-04T11:10:43.823Z</time></trkpt><trkpt lat="41.8970967" lon="-7.9930667"><ele>1102.0</ele><time>2026-04-04T11:10:45.824Z</time></trkpt><trkpt lat="41.897105" lon="-7.9929233"><ele>1102.0</ele><time>2026-04-04T11:10:47.824Z</time></trkpt><trkpt lat="41.89711" lon="-7.9927617"><ele>1102.0</ele><time>2026-04-04T11:10:49.823Z</time></trkpt><trkpt lat="41.8971117" lon="-7.9925983"><ele>1103.0</ele><time>2026-04-04T11:10:51.823Z</time></trkpt><trkpt lat="41.89712" lon="-7.9924517"><ele>1104.0</ele><time>2026-04-04T11:10:53.824Z</time></trkpt><trkpt lat="41.897135" lon="-7.9922967"><ele>1105.0</ele><time>2026-04-04T11:10:55.823Z</time></trkpt><trkpt lat="41.8971733" lon="-7.992135"><ele>1106.0</ele><time>2026-04-04T11:10:57.823Z</time></trkpt><trkpt lat="41.897225" lon="-7.9919883"><ele>1106.0</ele><time>2026-04-04T11:10:59.824Z</time></trkpt><trkpt lat="41.8972683" lon="-7.9918683"><ele>1106.0</ele><time>2026-04-04T11:11:01.824Z</time></trkpt><trkpt lat="41.8972933" lon="-7.9917867"><ele>1106.0</ele><time>2026-04-04T11:11:03.823Z</time></trkpt><trkpt lat="41.8973617" lon="-7.9918183"><ele>1106.0</ele><time>2026-04-04T11:11:28.826Z</time></trkpt><trkpt lat="41.897405" lon="-7.9917333"><ele>1106.0</ele><time>2026-04-04T11:11:31.824Z</time></trkpt><trkpt lat="41.8973833" lon="-7.9916317"><ele>1106.0</ele><time>2026-04-04T11:11:35.824Z</time></trkpt><trkpt lat="41.8973867" lon="-7.9915133"><ele>1107.6</ele><time>2026-04-04T11:11:38.827Z</time></trkpt><trkpt lat="41.8974317" lon="-7.99135"><ele>1109.1999999999998</ele><time>2026-04-04T11:11:40.823Z</time></trkpt><trkpt lat="41.8974533" lon="-7.9912517"><ele>1110.8000000000002</ele><time>2026-04-04T11:11:41.824Z</time></trkpt><trkpt lat="41.8974717" lon="-7.991155"><ele>1112.4</ele><time>2026-04-04T11:11:42.823Z</time></trkpt><trkpt lat="41.8974833" lon="-7.9910667"><ele>1114.0</ele><time>2026-04-04T11:11:43.824Z</time></trkpt><trkpt lat="41.8974917" lon="-7.9909283"><ele>1114.8333333333333</ele><time>2026-04-04T11:11:45.823Z</time></trkpt><trkpt lat="41.8974967" lon="-7.990815"><ele>1115.6666666666665</ele><time>2026-04-04T11:11:47.824Z</time></trkpt><trkpt lat="41.8975017" lon="-7.990725"><ele>1116.5</ele><time>2026-04-04T11:11:49.824Z</time></trkpt><trkpt lat="41.897515" lon="-7.990625"><ele>1117.3333333333333</ele><time>2026-04-04T11:11:51.823Z</time></trkpt><trkpt lat="41.8975283" lon="-7.99051"><ele>1118.1666666666667</ele><time>2026-04-04T11:11:53.823Z</time></trkpt><trkpt lat="41.897535" lon="-7.9904117"><ele>1119.0</ele><time>2026-04-04T11:11:55.824Z</time></trkpt><trkpt lat="41.897515" lon="-7.9902933"><ele>1119.0</ele><time>2026-04-04T11:11:58.823Z</time></trkpt><trkpt lat="41.8974967" lon="-7.9902033"><ele>1119.0</ele><time>2026-04-04T11:12:00.823Z</time></trkpt><trkpt lat="41.8974767" lon="-7.99011"><ele>1119.0</ele><time>2026-04-04T11:12:02.825Z</time></trkpt><trkpt lat="41.8974483" lon="-7.9900083"><ele>1119.0</ele><time>2026-04-04T11:12:04.824Z</time></trkpt><trkpt lat="41.8974267" lon="-7.98991"><ele>1119.0</ele><time>2026-04-04T11:12:06.824Z</time></trkpt><trkpt lat="41.8974083" lon="-7.9898217"><ele>1119.0</ele><time>2026-04-04T11:12:08.825Z</time></trkpt><trkpt lat="41.8973817" lon="-7.9897067"><ele>1117.8333333333333</ele><time>2026-04-04T11:12:11.824Z</time></trkpt><trkpt lat="41.8973567" lon="-7.9896217"><ele>1116.6666666666667</ele><time>2026-04-04T11:12:13.824Z</time></trkpt><trkpt lat="41.8973167" lon="-7.9895183"><ele>1115.5</ele><time>2026-04-04T11:12:15.823Z</time></trkpt><trkpt lat="41.8972733" lon="-7.9894133"><ele>1114.3333333333335</ele><time>2026-04-04T11:12:17.823Z</time></trkpt><trkpt lat="41.8972183" lon="-7.9893317"><ele>1113.1666666666667</ele><time>2026-04-04T11:12:19.824Z</time></trkpt><trkpt lat="41.897155" lon="-7.9892367"><ele>1112.0</ele><time>2026-04-04T11:12:21.824Z</time></trkpt><trkpt lat="41.8970933" lon="-7.9891267"><ele>1111.5</ele><time>2026-04-04T11:12:23.823Z</time></trkpt><trkpt lat="41.89706" lon="-7.989"><ele>1111.0</ele><time>2026-04-04T11:12:25.824Z</time></trkpt><trkpt lat="41.8970517" lon="-7.9888867"><ele>1110.5</ele><time>2026-04-04T11:12:27.825Z</time></trkpt><trkpt lat="41.89704" lon="-7.9887967"><ele>1110.0</ele><time>2026-04-04T11:12:29.825Z</time></trkpt><trkpt lat="41.8970183" lon="-7.9887117"><ele>1109.5</ele><time>2026-04-04T11:12:32.824Z</time></trkpt><trkpt lat="41.89697" lon="-7.988655"><ele>1109.0</ele><time>2026-04-04T11:12:35.824Z</time></trkpt><trkpt lat="41.8968983" lon="-7.98857"><ele>1109.0</ele><time>2026-04-04T11:12:39.824Z</time></trkpt><trkpt lat="41.896825" lon="-7.9884867"><ele>1109.0</ele><time>2026-04-04T11:12:41.824Z</time></trkpt><trkpt lat="41.896745" lon="-7.9884017"><ele>1109.0</ele><time>2026-04-04T11:12:43.825Z</time></trkpt><trkpt lat="41.8966933" lon="-7.98834"><ele>1109.0</ele><time>2026-04-04T11:12:45.823Z</time></trkpt><trkpt lat="41.8966433" lon="-7.9882783"><ele>1109.0</ele><time>2026-04-04T11:12:47.824Z</time></trkpt><trkpt lat="41.8965817" lon="-7.988215"><ele>1109.0</ele><time>2026-04-04T11:12:49.824Z</time></trkpt><trkpt lat="41.8965233" lon="-7.9881467"><ele>1110.0</ele><time>2026-04-04T11:12:51.823Z</time></trkpt><trkpt lat="41.8964467" lon="-7.988105"><ele>1111.0</ele><time>2026-04-04T11:12:54.824Z</time></trkpt><trkpt lat="41.89636" lon="-7.98815"><ele>1112.0</ele><time>2026-04-04T11:12:57.824Z</time></trkpt><trkpt lat="41.8962833" lon="-7.98819"><ele>1113.0</ele><time>2026-04-04T11:12:59.824Z</time></trkpt><trkpt lat="41.896205" lon="-7.9882467"><ele>1114.0</ele><time>2026-04-04T11:13:01.825Z</time></trkpt><trkpt lat="41.8961083" lon="-7.9883233"><ele>1114.1666666666665</ele><time>2026-04-04T11:13:03.825Z</time></trkpt><trkpt lat="41.896" lon="-7.9884067"><ele>1114.3333333333333</ele><time>2026-04-04T11:13:05.823Z</time></trkpt><trkpt lat="41.895945" lon="-7.988455"><ele>1114.5</ele><time>2026-04-04T11:13:06.824Z</time></trkpt><trkpt lat="41.89589" lon="-7.988505"><ele>1114.6666666666667</ele><time>2026-04-04T11:13:07.824Z</time></trkpt><trkpt lat="41.8958317" lon="-7.9885567"><ele>1114.8333333333335</ele><time>2026-04-04T11:13:08.825Z</time></trkpt><trkpt lat="41.89577" lon="-7.9886117"><ele>1115.0</ele><time>2026-04-04T11:13:09.823Z</time></trkpt><trkpt lat="41.895705" lon="-7.9886667"><ele>1115.1666666666667</ele><time>2026-04-04T11:13:10.824Z</time></trkpt><trkpt lat="41.8956367" lon="-7.9887217"><ele>1115.3333333333335</ele><time>2026-04-04T11:13:11.824Z</time></trkpt><trkpt lat="41.8955667" lon="-7.9887783"><ele>1115.5</ele><time>2026-04-04T11:13:12.824Z</time></trkpt><trkpt lat="41.895495" lon="-7.9888367"><ele>1115.6666666666667</ele><time>2026-04-04T11:13:13.823Z</time></trkpt><trkpt lat="41.8954233" lon="-7.9888983"><ele>1115.8333333333333</ele><time>2026-04-04T11:13:14.824Z</time></trkpt><trkpt lat="41.8953483" lon="-7.98896"><ele>1116.0</ele><time>2026-04-04T11:13:15.824Z</time></trkpt><trkpt lat="41.89527" lon="-7.9890233"><ele>1116.0</ele><time>2026-04-04T11:13:16.823Z</time></trkpt><trkpt lat="41.89519" lon="-7.9890883"><ele>1116.0</ele><time>2026-04-04T11:13:17.824Z</time></trkpt><trkpt lat="41.8951083" lon="-7.989155"><ele>1116.0</ele><time>2026-04-04T11:13:18.825Z</time></trkpt><trkpt lat="41.89503" lon="-7.98922"><ele>1116.0</ele><time>2026-04-04T11:13:19.824Z</time></trkpt><trkpt lat="41.8949483" lon="-7.98929"><ele>1116.0</ele><time>2026-04-04T11:13:20.823Z</time></trkpt><trkpt lat="41.894865" lon="-7.9893567"><ele>1117.0</ele><time>2026-04-04T11:13:21.825Z</time></trkpt><trkpt lat="41.8947783" lon="-7.989425"><ele>1118.0</ele><time>2026-04-04T11:13:22.824Z</time></trkpt><trkpt lat="41.8946883" lon="-7.9894933"><ele>1119.0</ele><time>2026-04-04T11:13:23.825Z</time></trkpt><trkpt lat="41.8945933" lon="-7.98956"><ele>1120.0</ele><time>2026-04-04T11:13:24.824Z</time></trkpt><trkpt lat="41.894495" lon="-7.9896167"><ele>1121.0</ele><time>2026-04-04T11:13:25.824Z</time></trkpt><trkpt lat="41.8943933" lon="-7.9896667"><ele>1121.0</ele><time>2026-04-04T11:13:26.824Z</time></trkpt><trkpt lat="41.8942933" lon="-7.98971"><ele>1121.0</ele><time>2026-04-04T11:13:27.823Z</time></trkpt><trkpt lat="41.8942" lon="-7.989745"><ele>1121.0</ele><time>2026-04-04T11:13:28.825Z</time></trkpt><trkpt lat="41.8940983" lon="-7.9897617"><ele>1121.0</ele><time>2026-04-04T11:13:29.826Z</time></trkpt><trkpt lat="41.894" lon="-7.9897717"><ele>1121.0</ele><time>2026-04-04T11:13:30.823Z</time></trkpt><trkpt lat="41.8939067" lon="-7.989785"><ele>1121.3333333333335</ele><time>2026-04-04T11:13:31.823Z</time></trkpt><trkpt lat="41.8938233" lon="-7.9898017"><ele>1121.6666666666667</ele><time>2026-04-04T11:13:32.825Z</time></trkpt><trkpt lat="41.8937433" lon="-7.9898067"><ele>1122.0</ele><time>2026-04-04T11:13:33.824Z</time></trkpt><trkpt lat="41.8936617" lon="-7.9897917"><ele>1122.3333333333333</ele><time>2026-04-04T11:13:34.823Z</time></trkpt><trkpt lat="41.89358" lon="-7.98976"><ele>1122.6666666666665</ele><time>2026-04-04T11:13:35.824Z</time></trkpt><trkpt lat="41.8934967" lon="-7.9897217"><ele>1123.0</ele><time>2026-04-04T11:13:36.824Z</time></trkpt><trkpt lat="41.8934117" lon="-7.98968"><ele>1124.6</ele><time>2026-04-04T11:13:37.824Z</time></trkpt><trkpt lat="41.8933233" lon="-7.98963"><ele>1126.1999999999998</ele><time>2026-04-04T11:13:38.825Z</time></trkpt><trkpt lat="41.89324" lon="-7.9895833"><ele>1127.8</ele><time>2026-04-04T11:13:39.824Z</time></trkpt><trkpt lat="41.8931533" lon="-7.98954"><ele>1129.3999999999999</ele><time>2026-04-04T11:13:40.824Z</time></trkpt><trkpt lat="41.89307" lon="-7.9895"><ele>1131.0</ele><time>2026-04-04T11:13:41.824Z</time></trkpt><trkpt lat="41.892985" lon="-7.9894617"><ele>1131.0</ele><time>2026-04-04T11:13:42.824Z</time></trkpt><trkpt lat="41.892895" lon="-7.9894333"><ele>1131.0</ele><time>2026-04-04T11:13:43.824Z</time></trkpt><trkpt lat="41.8927983" lon="-7.98941"><ele>1131.0</ele><time>2026-04-04T11:13:44.824Z</time></trkpt><trkpt lat="41.892695" lon="-7.9893883"><ele>1131.0</ele><time>2026-04-04T11:13:45.824Z</time></trkpt><trkpt lat="41.8925983" lon="-7.989385"><ele>1131.0</ele><time>2026-04-04T11:13:46.823Z</time></trkpt><trkpt lat="41.8925067" lon="-7.9893733"><ele>1132.6666666666667</ele><time>2026-04-04T11:13:47.824Z</time></trkpt><trkpt lat="41.89242" lon="-7.9893567"><ele>1134.3333333333333</ele><time>2026-04-04T11:13:48.824Z</time></trkpt><trkpt lat="41.892335" lon="-7.989335"><ele>1136.0</ele><time>2026-04-04T11:13:49.824Z</time></trkpt><trkpt lat="41.8922467" lon="-7.98931"><ele>1137.6666666666665</ele><time>2026-04-04T11:13:50.824Z</time></trkpt><trkpt lat="41.8921617" lon="-7.98929"><ele>1139.3333333333333</ele><time>2026-04-04T11:13:51.823Z</time></trkpt><trkpt lat="41.8920767" lon="-7.98928"><ele>1141.0</ele><time>2026-04-04T11:13:52.823Z</time></trkpt><trkpt lat="41.8919917" lon="-7.9892717"><ele>1141.0</ele><time>2026-04-04T11:13:53.824Z</time></trkpt><trkpt lat="41.8919067" lon="-7.989265"><ele>1141.0</ele><time>2026-04-04T11:13:54.824Z</time></trkpt><trkpt lat="41.8918217" lon="-7.989255"><ele>1141.0</ele><time>2026-04-04T11:13:55.824Z</time></trkpt><trkpt lat="41.8917383" lon="-7.9892483"><ele>1141.0</ele><time>2026-04-04T11:13:56.824Z</time></trkpt><trkpt lat="41.8916567" lon="-7.9892383"><ele>1141.0</ele><time>2026-04-04T11:13:57.824Z</time></trkpt><trkpt lat="41.8915783" lon="-7.98922"><ele>1141.0</ele><time>2026-04-04T11:13:58.825Z</time></trkpt><trkpt lat="41.8914983" lon="-7.9892033"><ele>1143.8</ele><time>2026-04-04T11:13:59.824Z</time></trkpt><trkpt lat="41.89142" lon="-7.9892017"><ele>1146.6</ele><time>2026-04-04T11:14:00.824Z</time></trkpt><trkpt lat="41.8913517" lon="-7.989205"><ele>1149.4</ele><time>2026-04-04T11:14:01.825Z</time></trkpt><trkpt lat="41.8912733" lon="-7.98931"><ele>1152.2</ele><time>2026-04-04T11:14:03.824Z</time></trkpt><trkpt lat="41.8912067" lon="-7.9894233"><ele>1155.0</ele><time>2026-04-04T11:14:05.824Z</time></trkpt><trkpt lat="41.89111" lon="-7.9894717"><ele>1155.0</ele><time>2026-04-04T11:14:07.824Z</time></trkpt><trkpt lat="41.8910033" lon="-7.9894783"><ele>1155.0</ele><time>2026-04-04T11:14:09.824Z</time></trkpt><trkpt lat="41.8909133" lon="-7.9894633"><ele>1155.0</ele><time>2026-04-04T11:14:11.824Z</time></trkpt><trkpt lat="41.8908533" lon="-7.989405"><ele>1155.0</ele><time>2026-04-04T11:14:13.824Z</time></trkpt><trkpt lat="41.8908467" lon="-7.9892867"><ele>1155.0</ele><time>2026-04-04T11:14:16.824Z</time></trkpt><trkpt lat="41.8908317" lon="-7.9891817"><ele>1155.0</ele><time>2026-04-04T11:14:20.824Z</time></trkpt><trkpt lat="41.8907783" lon="-7.9891283"><ele>1155.2857142857142</ele><time>2026-04-04T11:14:25.825Z</time></trkpt><trkpt lat="41.89071" lon="-7.9890767"><ele>1155.5714285714284</ele><time>2026-04-04T11:14:31.826Z</time></trkpt><trkpt lat="41.8906567" lon="-7.9890317"><ele>1155.857142857143</ele><time>2026-04-04T11:14:56.827Z</time></trkpt><trkpt lat="41.8905767" lon="-7.9890433"><ele>1156.142857142857</ele><time>2026-04-04T11:15:00.825Z</time></trkpt><trkpt lat="41.8904933" lon="-7.9890267"><ele>1156.4285714285713</ele><time>2026-04-04T11:15:03.824Z</time></trkpt><trkpt lat="41.89043" lon="-7.9890067"><ele>1156.7142857142858</ele><time>2026-04-04T11:15:05.824Z</time></trkpt><trkpt lat="41.8903617" lon="-7.9889817"><ele>1157.0</ele><time>2026-04-04T11:15:07.825Z</time></trkpt><trkpt lat="41.89029" lon="-7.98895"><ele>1157.0</ele><time>2026-04-04T11:15:09.824Z</time></trkpt><trkpt lat="41.8902067" lon="-7.988925"><ele>1157.0</ele><time>2026-04-04T11:15:11.825Z</time></trkpt><trkpt lat="41.8901133" lon="-7.9889"><ele>1157.0</ele><time>2026-04-04T11:15:13.824Z</time></trkpt><trkpt lat="41.890015" lon="-7.988875"><ele>1157.0</ele><time>2026-04-04T11:15:15.824Z</time></trkpt><trkpt lat="41.88992" lon="-7.9888183"><ele>1157.0</ele><time>2026-04-04T11:15:17.826Z</time></trkpt><trkpt lat="41.8898817" lon="-7.98874"><ele>1154.0</ele><time>2026-04-04T11:15:19.824Z</time></trkpt><trkpt lat="41.8898667" lon="-7.9886367"><ele>1151.0</ele><time>2026-04-04T11:15:21.824Z</time></trkpt><trkpt lat="41.8898617" lon="-7.9884633"><ele>1148.0</ele><time>2026-04-04T11:15:23.824Z</time></trkpt><trkpt lat="41.889855" lon="-7.9883567"><ele>1145.0</ele><time>2026-04-04T11:15:24.825Z</time></trkpt><trkpt lat="41.8898417" lon="-7.9882467"><ele>1142.0</ele><time>2026-04-04T11:15:25.824Z</time></trkpt><trkpt lat="41.8898133" lon="-7.98813"><ele>1141.8</ele><time>2026-04-04T11:15:26.825Z</time></trkpt><trkpt lat="41.8897867" lon="-7.98801"><ele>1141.6</ele><time>2026-04-04T11:15:27.824Z</time></trkpt><trkpt lat="41.8897667" lon="-7.98789"><ele>1141.3999999999999</ele><time>2026-04-04T11:15:28.826Z</time></trkpt><trkpt lat="41.8897483" lon="-7.987775"><ele>1141.2</ele><time>2026-04-04T11:15:29.824Z</time></trkpt><trkpt lat="41.8897283" lon="-7.9876617"><ele>1141.0</ele><time>2026-04-04T11:15:30.823Z</time></trkpt><trkpt lat="41.8897083" lon="-7.9875417"><ele>1140.3999999999999</ele><time>2026-04-04T11:15:31.824Z</time></trkpt><trkpt lat="41.88968" lon="-7.98742"><ele>1139.8</ele><time>2026-04-04T11:15:32.823Z</time></trkpt><trkpt lat="41.8896517" lon="-7.9873"><ele>1139.1999999999998</ele><time>2026-04-04T11:15:33.823Z</time></trkpt><trkpt lat="41.889625" lon="-7.98718"><ele>1138.6</ele><time>2026-04-04T11:15:34.823Z</time></trkpt><trkpt lat="41.8896083" lon="-7.9870567"><ele>1138.0</ele><time>2026-04-04T11:15:35.823Z</time></trkpt><trkpt lat="41.8895933" lon="-7.9869433"><ele>1138.0</ele><time>2026-04-04T11:15:36.823Z</time></trkpt><trkpt lat="41.889585" lon="-7.9868383"><ele>1138.0</ele><time>2026-04-04T11:15:37.824Z</time></trkpt><trkpt lat="41.8895767" lon="-7.9867417"><ele>1138.0</ele><time>2026-04-04T11:15:38.823Z</time></trkpt><trkpt lat="41.8895533" lon="-7.9865983"><ele>1138.0</ele><time>2026-04-04T11:15:40.823Z</time></trkpt><trkpt lat="41.8894917" lon="-7.98653"><ele>1138.0</ele><time>2026-04-04T11:15:49.825Z</time></trkpt><trkpt lat="41.88941" lon="-7.9865483"><ele>1138.0</ele><time>2026-04-04T11:15:51.822Z</time></trkpt><trkpt lat="41.8893283" lon="-7.9865533"><ele>1138.0</ele><time>2026-04-04T11:15:53.823Z</time></trkpt><trkpt lat="41.889255" lon="-7.9865467"><ele>1138.0</ele><time>2026-04-04T11:15:55.823Z</time></trkpt><trkpt lat="41.88918" lon="-7.9865367"><ele>1138.0</ele><time>2026-04-04T11:15:57.824Z</time></trkpt><trkpt lat="41.8890917" lon="-7.9865067"><ele>1138.0</ele><time>2026-04-04T11:15:59.823Z</time></trkpt><trkpt lat="41.8889917" lon="-7.9864767"><ele>1138.0</ele><time>2026-04-04T11:16:01.823Z</time></trkpt><trkpt lat="41.8888983" lon="-7.9864467"><ele>1138.0</ele><time>2026-04-04T11:16:03.822Z</time></trkpt><trkpt lat="41.8888" lon="-7.9864183"><ele>1138.0</ele><time>2026-04-04T11:16:05.823Z</time></trkpt><trkpt lat="41.8886933" lon="-7.98639"><ele>1138.0</ele><time>2026-04-04T11:16:07.823Z</time></trkpt><trkpt lat="41.888595" lon="-7.9863583"><ele>1138.0</ele><time>2026-04-04T11:16:09.822Z</time></trkpt><trkpt lat="41.8884867" lon="-7.9863233"><ele>1138.0</ele><time>2026-04-04T11:16:11.823Z</time></trkpt><trkpt lat="41.888365" lon="-7.9862867"><ele>1138.0</ele><time>2026-04-04T11:16:13.823Z</time></trkpt><trkpt lat="41.8882817" lon="-7.98626"><ele>1136.8</ele><time>2026-04-04T11:16:14.823Z</time></trkpt><trkpt lat="41.88818" lon="-7.9862233"><ele>1135.6</ele><time>2026-04-04T11:16:15.822Z</time></trkpt><trkpt lat="41.8880683" lon="-7.9861833"><ele>1134.4</ele><time>2026-04-04T11:16:16.823Z</time></trkpt><trkpt lat="41.88796" lon="-7.9861433"><ele>1133.2</ele><time>2026-04-04T11:16:17.822Z</time></trkpt><trkpt lat="41.8878617" lon="-7.9860983"><ele>1132.0</ele><time>2026-04-04T11:16:18.823Z</time></trkpt><trkpt lat="41.8877733" lon="-7.9860417"><ele>1132.0</ele><time>2026-04-04T11:16:19.823Z</time></trkpt><trkpt lat="41.8876917" lon="-7.9859783"><ele>1132.0</ele><time>2026-04-04T11:16:20.823Z</time></trkpt><trkpt lat="41.88762" lon="-7.9859133"><ele>1132.0</ele><time>2026-04-04T11:16:21.822Z</time></trkpt><trkpt lat="41.8875633" lon="-7.9858467"><ele>1132.0</ele><time>2026-04-04T11:16:22.823Z</time></trkpt><trkpt lat="41.8875033" lon="-7.985765"><ele>1132.0</ele><time>2026-04-04T11:16:23.823Z</time></trkpt><trkpt lat="41.8874333" lon="-7.9856683"><ele>1132.0</ele><time>2026-04-04T11:16:24.823Z</time></trkpt><trkpt lat="41.8873583" lon="-7.9855733"><ele>1134.3333333333333</ele><time>2026-04-04T11:16:25.823Z</time></trkpt><trkpt lat="41.887285" lon="-7.9854917"><ele>1136.6666666666665</ele><time>2026-04-04T11:16:26.823Z</time></trkpt><trkpt lat="41.8872217" lon="-7.9854217"><ele>1139.0</ele><time>2026-04-04T11:16:27.822Z</time></trkpt><trkpt lat="41.887165" lon="-7.9853583"><ele>1141.3333333333333</ele><time>2026-04-04T11:16:28.822Z</time></trkpt><trkpt lat="41.8871033" lon="-7.9852967"><ele>1143.6666666666667</ele><time>2026-04-04T11:16:29.823Z</time></trkpt><trkpt lat="41.88703" lon="-7.9852367"><ele>1146.0</ele><time>2026-04-04T11:16:30.823Z</time></trkpt><trkpt lat="41.8869567" lon="-7.9851917"><ele>1146.0</ele><time>2026-04-04T11:16:31.823Z</time></trkpt><trkpt lat="41.8868833" lon="-7.9851633"><ele>1146.0</ele><time>2026-04-04T11:16:32.823Z</time></trkpt><trkpt lat="41.8868117" lon="-7.9851317"><ele>1146.0</ele><time>2026-04-04T11:16:33.822Z</time></trkpt><trkpt lat="41.886745" lon="-7.9850883"><ele>1146.0</ele><time>2026-04-04T11:16:34.822Z</time></trkpt><trkpt lat="41.8866867" lon="-7.9850433"><ele>1146.0</ele><time>2026-04-04T11:16:35.823Z</time></trkpt><trkpt lat="41.8866267" lon="-7.984985"><ele>1146.0</ele><time>2026-04-04T11:16:36.824Z</time></trkpt><trkpt lat="41.8865733" lon="-7.9849233"><ele>1146.0</ele><time>2026-04-04T11:16:37.823Z</time></trkpt><trkpt lat="41.886525" lon="-7.9848667"><ele>1149.3999999999999</ele><time>2026-04-04T11:16:38.823Z</time></trkpt><trkpt lat="41.8864333" lon="-7.9848033"><ele>1152.8</ele><time>2026-04-04T11:16:40.823Z</time></trkpt><trkpt lat="41.8863217" lon="-7.98476"><ele>1156.1999999999998</ele><time>2026-04-04T11:16:42.823Z</time></trkpt><trkpt lat="41.8862467" lon="-7.9846967"><ele>1159.6</ele><time>2026-04-04T11:16:44.823Z</time></trkpt><trkpt lat="41.8861467" lon="-7.984645"><ele>1163.0</ele><time>2026-04-04T11:16:46.823Z</time></trkpt><trkpt lat="41.8860833" lon="-7.9846533"><ele>1163.0</ele><time>2026-04-04T11:16:47.823Z</time></trkpt><trkpt lat="41.8860083" lon="-7.98469"><ele>1163.0</ele><time>2026-04-04T11:16:48.823Z</time></trkpt><trkpt lat="41.8859167" lon="-7.984725"><ele>1163.0</ele><time>2026-04-04T11:16:49.823Z</time></trkpt><trkpt lat="41.885825" lon="-7.984745"><ele>1163.0</ele><time>2026-04-04T11:16:50.823Z</time></trkpt><trkpt lat="41.8857317" lon="-7.9847567"><ele>1163.0</ele><time>2026-04-04T11:16:51.822Z</time></trkpt><trkpt lat="41.8856417" lon="-7.984765"><ele>1164.0</ele><time>2026-04-04T11:16:52.824Z</time></trkpt><trkpt lat="41.8855533" lon="-7.9847617"><ele>1165.0</ele><time>2026-04-04T11:16:53.823Z</time></trkpt><trkpt lat="41.8854733" lon="-7.9847283"><ele>1166.0</ele><time>2026-04-04T11:16:54.824Z</time></trkpt><trkpt lat="41.8853833" lon="-7.984695"><ele>1167.0</ele><time>2026-04-04T11:16:55.823Z</time></trkpt><trkpt lat="41.8852883" lon="-7.98466"><ele>1168.0</ele><time>2026-04-04T11:16:56.824Z</time></trkpt><trkpt lat="41.8851983" lon="-7.9846233"><ele>1168.0</ele><time>2026-04-04T11:16:57.823Z</time></trkpt><trkpt lat="41.88511" lon="-7.9845883"><ele>1168.0</ele><time>2026-04-04T11:16:58.823Z</time></trkpt><trkpt lat="41.8850217" lon="-7.9845633"><ele>1168.0</ele><time>2026-04-04T11:16:59.823Z</time></trkpt><trkpt lat="41.8849367" lon="-7.9845483"><ele>1168.0</ele><time>2026-04-04T11:17:00.824Z</time></trkpt><trkpt lat="41.8848533" lon="-7.9845333"><ele>1168.0</ele><time>2026-04-04T11:17:01.822Z</time></trkpt><trkpt lat="41.88477" lon="-7.98451"><ele>1168.0</ele><time>2026-04-04T11:17:02.824Z</time></trkpt><trkpt lat="41.884685" lon="-7.98448"><ele>1169.8</ele><time>2026-04-04T11:17:03.823Z</time></trkpt><trkpt lat="41.8846" lon="-7.9844517"><ele>1171.6</ele><time>2026-04-04T11:17:04.823Z</time></trkpt><trkpt lat="41.8845067" lon="-7.9844283"><ele>1173.4</ele><time>2026-04-04T11:17:05.824Z</time></trkpt><trkpt lat="41.8844133" lon="-7.9844017"><ele>1175.2</ele><time>2026-04-04T11:17:06.823Z</time></trkpt><trkpt lat="41.884325" lon="-7.98437"><ele>1177.0</ele><time>2026-04-04T11:17:07.823Z</time></trkpt><trkpt lat="41.8842367" lon="-7.9843367"><ele>1177.8333333333333</ele><time>2026-04-04T11:17:08.824Z</time></trkpt><trkpt lat="41.8841467" lon="-7.9843"><ele>1178.6666666666665</ele><time>2026-04-04T11:17:09.823Z</time></trkpt><trkpt lat="41.8840633" lon="-7.9842667"><ele>1179.5</ele><time>2026-04-04T11:17:10.823Z</time></trkpt><trkpt lat="41.8839767" lon="-7.9842383"><ele>1180.3333333333333</ele><time>2026-04-04T11:17:11.824Z</time></trkpt><trkpt lat="41.8838917" lon="-7.9842167"><ele>1181.1666666666667</ele><time>2026-04-04T11:17:12.823Z</time></trkpt><trkpt lat="41.883815" lon="-7.9841983"><ele>1182.0</ele><time>2026-04-04T11:17:13.823Z</time></trkpt><trkpt lat="41.8837467" lon="-7.9841767"><ele>1182.0</ele><time>2026-04-04T11:17:14.823Z</time></trkpt><trkpt lat="41.883685" lon="-7.9841533"><ele>1182.0</ele><time>2026-04-04T11:17:15.822Z</time></trkpt><trkpt lat="41.8835683" lon="-7.9841233"><ele>1182.0</ele><time>2026-04-04T11:17:17.823Z</time></trkpt><trkpt lat="41.8834683" lon="-7.9841033"><ele>1182.0</ele><time>2026-04-04T11:17:19.824Z</time></trkpt><trkpt lat="41.8833917" lon="-7.9840817"><ele>1182.0</ele><time>2026-04-04T11:17:21.823Z</time></trkpt><trkpt lat="41.8833133" lon="-7.9840617"><ele>1182.0</ele><time>2026-04-04T11:17:24.823Z</time></trkpt><trkpt lat="41.88324" lon="-7.9840083"><ele>1182.0</ele><time>2026-04-04T11:17:28.824Z</time></trkpt><trkpt lat="41.883315" lon="-7.9840417"><ele>1182.0</ele><time>2026-04-04T11:17:37.823Z</time></trkpt><trkpt lat="41.8833983" lon="-7.9840633"><ele>1182.0</ele><time>2026-04-04T11:17:40.823Z</time></trkpt><trkpt lat="41.8834617" lon="-7.9840467"><ele>1182.0</ele><time>2026-04-04T11:17:43.823Z</time></trkpt><trkpt lat="41.8835267" lon="-7.9839767"><ele>1182.0</ele><time>2026-04-04T11:17:46.823Z</time></trkpt><trkpt lat="41.883555" lon="-7.9839"><ele>1182.0</ele><time>2026-04-04T11:17:48.823Z</time></trkpt><trkpt lat="41.8835733" lon="-7.98379"><ele>1182.0</ele><time>2026-04-04T11:17:51.823Z</time></trkpt><trkpt lat="41.8835533" lon="-7.9836983"><ele>1182.0</ele><time>2026-04-04T11:17:55.823Z</time></trkpt><trkpt lat="41.8834767" lon="-7.9836067"><ele>1182.0</ele><time>2026-04-04T11:17:57.823Z</time></trkpt><trkpt lat="41.8834283" lon="-7.9835333"><ele>1182.0</ele><time>2026-04-04T11:17:58.823Z</time></trkpt><trkpt lat="41.8833817" lon="-7.983455"><ele>1182.0</ele><time>2026-04-04T11:17:59.824Z</time></trkpt><trkpt lat="41.8833317" lon="-7.9833717"><ele>1182.0</ele><time>2026-04-04T11:18:00.823Z</time></trkpt><trkpt lat="41.88328" lon="-7.9832883"><ele>1182.6666666666667</ele><time>2026-04-04T11:18:01.824Z</time></trkpt><trkpt lat="41.883225" lon="-7.9831933"><ele>1183.3333333333333</ele><time>2026-04-04T11:18:02.824Z</time></trkpt><trkpt lat="41.8831817" lon="-7.9831083"><ele>1184.0</ele><time>2026-04-04T11:18:03.823Z</time></trkpt><trkpt lat="41.8831433" lon="-7.9830333"><ele>1184.6666666666665</ele><time>2026-04-04T11:18:04.823Z</time></trkpt><trkpt lat="41.88309" lon="-7.982925"><ele>1185.3333333333333</ele><time>2026-04-04T11:18:06.824Z</time></trkpt><trkpt lat="41.88308" lon="-7.9828067"><ele>1186.0</ele><time>2026-04-04T11:18:08.823Z</time></trkpt><trkpt lat="41.8831133" lon="-7.98264"><ele>1186.0</ele><time>2026-04-04T11:18:10.823Z</time></trkpt><trkpt lat="41.8831417" lon="-7.9825617"><ele>1186.0</ele><time>2026-04-04T11:18:11.823Z</time></trkpt><trkpt lat="41.8831767" lon="-7.9824867"><ele>1186.0</ele><time>2026-04-04T11:18:12.825Z</time></trkpt><trkpt lat="41.8832383" lon="-7.9823483"><ele>1186.0</ele><time>2026-04-04T11:18:14.824Z</time></trkpt><trkpt lat="41.8832733" lon="-7.9822267"><ele>1186.0</ele><time>2026-04-04T11:18:16.823Z</time></trkpt><trkpt lat="41.8832883" lon="-7.9821"><ele>1186.0</ele><time>2026-04-04T11:18:18.823Z</time></trkpt><trkpt lat="41.88329" lon="-7.982005"><ele>1186.8333333333333</ele><time>2026-04-04T11:18:20.823Z</time></trkpt><trkpt lat="41.8832583" lon="-7.98192"><ele>1187.6666666666665</ele><time>2026-04-04T11:18:22.824Z</time></trkpt><trkpt lat="41.8831817" lon="-7.9818567"><ele>1188.5</ele><time>2026-04-04T11:18:24.823Z</time></trkpt><trkpt lat="41.8830917" lon="-7.9818083"><ele>1189.3333333333333</ele><time>2026-04-04T11:18:26.824Z</time></trkpt><trkpt lat="41.8829967" lon="-7.98175"><ele>1190.1666666666667</ele><time>2026-04-04T11:18:28.824Z</time></trkpt><trkpt lat="41.8829367" lon="-7.981665"><ele>1191.0</ele><time>2026-04-04T11:18:30.824Z</time></trkpt><trkpt lat="41.8828983" lon="-7.9815567"><ele>1191.6666666666667</ele><time>2026-04-04T11:18:32.824Z</time></trkpt><trkpt lat="41.88287" lon="-7.9814533"><ele>1192.3333333333333</ele><time>2026-04-04T11:18:34.824Z</time></trkpt><trkpt lat="41.882835" lon="-7.981335"><ele>1193.0</ele><time>2026-04-04T11:18:36.822Z</time></trkpt><trkpt lat="41.88278" lon="-7.9812"><ele>1193.6666666666665</ele><time>2026-04-04T11:18:38.823Z</time></trkpt><trkpt lat="41.88275" lon="-7.9811167"><ele>1194.3333333333333</ele><time>2026-04-04T11:18:39.823Z</time></trkpt><trkpt lat="41.8827217" lon="-7.9810283"><ele>1195.0</ele><time>2026-04-04T11:18:40.823Z</time></trkpt><trkpt lat="41.8826917" lon="-7.9809517"><ele>1195.0</ele><time>2026-04-04T11:18:41.825Z</time></trkpt><trkpt lat="41.8826383" lon="-7.980805"><ele>1195.0</ele><time>2026-04-04T11:18:43.823Z</time></trkpt><trkpt lat="41.8825983" lon="-7.9806683"><ele>1195.0</ele><time>2026-04-04T11:18:45.824Z</time></trkpt><trkpt lat="41.8825633" lon="-7.9805133"><ele>1195.0</ele><time>2026-04-04T11:18:47.823Z</time></trkpt><trkpt lat="41.88255" lon="-7.98043"><ele>1195.0</ele><time>2026-04-04T11:18:48.824Z</time></trkpt><trkpt lat="41.8825333" lon="-7.9802967"><ele>1195.0</ele><time>2026-04-04T11:18:50.825Z</time></trkpt><trkpt lat="41.8825767" lon="-7.9801983"><ele>1195.0</ele><time>2026-04-04T11:18:53.823Z</time></trkpt><trkpt lat="41.882645" lon="-7.9801717"><ele>1195.0</ele><time>2026-04-04T11:18:55.823Z</time></trkpt><trkpt lat="41.882725" lon="-7.9801417"><ele>1195.0</ele><time>2026-04-04T11:18:57.822Z</time></trkpt><trkpt lat="41.8827633" lon="-7.9800467"><ele>1195.0</ele><time>2026-04-04T11:18:59.822Z</time></trkpt><trkpt lat="41.8827567" lon="-7.9799617"><ele>1195.0</ele><time>2026-04-04T11:19:00.823Z</time></trkpt><trkpt lat="41.88274" lon="-7.9797983"><ele>1196.1666666666665</ele><time>2026-04-04T11:19:02.824Z</time></trkpt><trkpt lat="41.882735" lon="-7.9797117"><ele>1197.3333333333333</ele><time>2026-04-04T11:19:03.822Z</time></trkpt><trkpt lat="41.882735" lon="-7.9796217"><ele>1198.5</ele><time>2026-04-04T11:19:04.822Z</time></trkpt><trkpt lat="41.8827383" lon="-7.97949"><ele>1199.6666666666667</ele><time>2026-04-04T11:19:06.823Z</time></trkpt><trkpt lat="41.8827317" lon="-7.9793917"><ele>1200.8333333333335</ele><time>2026-04-04T11:19:08.824Z</time></trkpt><trkpt lat="41.882715" lon="-7.9792717"><ele>1202.0</ele><time>2026-04-04T11:19:10.823Z</time></trkpt><trkpt lat="41.8826917" lon="-7.9791683"><ele>1202.0</ele><time>2026-04-04T11:19:12.822Z</time></trkpt><trkpt lat="41.88265" lon="-7.9790833"><ele>1202.0</ele><time>2026-04-04T11:19:14.823Z</time></trkpt><trkpt lat="41.8825833" lon="-7.97902"><ele>1202.0</ele><time>2026-04-04T11:19:16.822Z</time></trkpt><trkpt lat="41.8825083" lon="-7.978955"><ele>1202.0</ele><time>2026-04-04T11:19:18.823Z</time></trkpt><trkpt lat="41.8824467" lon="-7.9788883"><ele>1202.0</ele><time>2026-04-04T11:19:20.823Z</time></trkpt><trkpt lat="41.882395" lon="-7.9788383"><ele>1202.0</ele><time>2026-04-04T11:19:22.823Z</time></trkpt><trkpt lat="41.8823267" lon="-7.9787567"><ele>1202.4</ele><time>2026-04-04T11:19:26.823Z</time></trkpt><trkpt lat="41.8822533" lon="-7.9786867"><ele>1202.8000000000002</ele><time>2026-04-04T11:19:28.823Z</time></trkpt><trkpt lat="41.8821683" lon="-7.978595"><ele>1203.2</ele><time>2026-04-04T11:19:30.823Z</time></trkpt><trkpt lat="41.8820883" lon="-7.9785183"><ele>1203.6000000000001</ele><time>2026-04-04T11:19:32.824Z</time></trkpt><trkpt lat="41.8820283" lon="-7.9784583"><ele>1204.0</ele><time>2026-04-04T11:19:34.824Z</time></trkpt><trkpt lat="41.8819533" lon="-7.9783567"><ele>1204.1666666666665</ele><time>2026-04-04T11:19:36.824Z</time></trkpt><trkpt lat="41.881895" lon="-7.9782583"><ele>1204.3333333333333</ele><time>2026-04-04T11:19:38.825Z</time></trkpt><trkpt lat="41.8818717" lon="-7.978175"><ele>1204.5</ele><time>2026-04-04T11:19:40.823Z</time></trkpt><trkpt lat="41.8818683" lon="-7.9780633"><ele>1204.6666666666667</ele><time>2026-04-04T11:19:42.825Z</time></trkpt><trkpt lat="41.8818483" lon="-7.9779617"><ele>1204.8333333333335</ele><time>2026-04-04T11:19:44.824Z</time></trkpt><trkpt lat="41.88181" lon="-7.9778517"><ele>1205.0</ele><time>2026-04-04T11:19:46.824Z</time></trkpt><trkpt lat="41.8817967" lon="-7.9777183"><ele>1205.0</ele><time>2026-04-04T11:19:48.824Z</time></trkpt><trkpt lat="41.88181" lon="-7.9775817"><ele>1205.0</ele><time>2026-04-04T11:19:50.824Z</time></trkpt><trkpt lat="41.8818333" lon="-7.97749"><ele>1205.0</ele><time>2026-04-04T11:19:52.825Z</time></trkpt><trkpt lat="41.8818233" lon="-7.977595"><ele>1205.0</ele><time>2026-04-04T11:28:16.823Z</time></trkpt><trkpt lat="41.881805" lon="-7.97769"><ele>1205.0</ele><time>2026-04-04T11:28:18.823Z</time></trkpt><trkpt lat="41.881805" lon="-7.9777933"><ele>1205.0</ele><time>2026-04-04T11:28:20.823Z</time></trkpt><trkpt lat="41.8818083" lon="-7.9778917"><ele>1205.0</ele><time>2026-04-04T11:28:22.823Z</time></trkpt><trkpt lat="41.881835" lon="-7.97798"><ele>1205.0</ele><time>2026-04-04T11:28:24.823Z</time></trkpt><trkpt lat="41.881865" lon="-7.9780583"><ele>1205.0</ele><time>2026-04-04T11:28:26.825Z</time></trkpt><trkpt lat="41.881875" lon="-7.9781467"><ele>1205.0</ele><time>2026-04-04T11:28:28.823Z</time></trkpt><trkpt lat="41.8818883" lon="-7.978265"><ele>1205.0</ele><time>2026-04-04T11:28:31.823Z</time></trkpt><trkpt lat="41.8819717" lon="-7.97843"><ele>1205.0</ele><time>2026-04-04T11:28:36.824Z</time></trkpt><trkpt lat="41.882035" lon="-7.9784917"><ele>1204.8333333333335</ele><time>2026-04-04T11:28:38.823Z</time></trkpt><trkpt lat="41.8820967" lon="-7.9785517"><ele>1204.6666666666667</ele><time>2026-04-04T11:28:40.824Z</time></trkpt><trkpt lat="41.8821517" lon="-7.978655"><ele>1204.5</ele><time>2026-04-04T11:28:43.823Z</time></trkpt><trkpt lat="41.8822017" lon="-7.97872"><ele>1204.3333333333333</ele><time>2026-04-04T11:28:45.823Z</time></trkpt><trkpt lat="41.8822667" lon="-7.97877"><ele>1204.1666666666665</ele><time>2026-04-04T11:28:47.823Z</time></trkpt><trkpt lat="41.88234" lon="-7.9788167"><ele>1204.0</ele><time>2026-04-04T11:28:49.823Z</time></trkpt><trkpt lat="41.8823983" lon="-7.978875"><ele>1204.0</ele><time>2026-04-04T11:28:51.823Z</time></trkpt><trkpt lat="41.8824617" lon="-7.978925"><ele>1204.0</ele><time>2026-04-04T11:28:53.825Z</time></trkpt><trkpt lat="41.8825133" lon="-7.9789783"><ele>1204.0</ele><time>2026-04-04T11:28:55.824Z</time></trkpt><trkpt lat="41.8825617" lon="-7.979045"><ele>1204.0</ele><time>2026-04-04T11:28:58.824Z</time></trkpt><trkpt lat="41.8826383" lon="-7.9791133"><ele>1204.0</ele><time>2026-04-04T11:29:01.825Z</time></trkpt><trkpt lat="41.8826883" lon="-7.9791883"><ele>1204.0</ele><time>2026-04-04T11:29:03.824Z</time></trkpt><trkpt lat="41.88272" lon="-7.97927"><ele>1204.0</ele><time>2026-04-04T11:29:05.824Z</time></trkpt><trkpt lat="41.8827283" lon="-7.9793733"><ele>1204.5</ele><time>2026-04-04T11:29:07.823Z</time></trkpt><trkpt lat="41.8827433" lon="-7.97951"><ele>1205.0</ele><time>2026-04-04T11:29:09.823Z</time></trkpt><trkpt lat="41.8827483" lon="-7.9796217"><ele>1205.5</ele><time>2026-04-04T11:29:11.825Z</time></trkpt><trkpt lat="41.8827483" lon="-7.9797167"><ele>1206.0</ele><time>2026-04-04T11:29:13.825Z</time></trkpt><trkpt lat="41.8827533" lon="-7.9798317"><ele>1206.5</ele><time>2026-04-04T11:29:15.823Z</time></trkpt><trkpt lat="41.8827533" lon="-7.9799683"><ele>1207.0</ele><time>2026-04-04T11:29:17.824Z</time></trkpt><trkpt lat="41.88275" lon="-7.9801083"><ele>1205.8333333333333</ele><time>2026-04-04T11:29:19.826Z</time></trkpt><trkpt lat="41.8827167" lon="-7.98022"><ele>1204.6666666666665</ele><time>2026-04-04T11:29:21.824Z</time></trkpt><trkpt lat="41.8826933" lon="-7.9803067"><ele>1203.5</ele><time>2026-04-04T11:29:23.824Z</time></trkpt><trkpt lat="41.8826933" lon="-7.98041"><ele>1202.3333333333333</ele><time>2026-04-04T11:29:26.824Z</time></trkpt><trkpt lat="41.8826917" lon="-7.9805017"><ele>1201.1666666666667</ele><time>2026-04-04T11:29:29.823Z</time></trkpt><trkpt lat="41.8826533" lon="-7.9805783"><ele>1200.0</ele><time>2026-04-04T11:29:33.822Z</time></trkpt><trkpt lat="41.8826317" lon="-7.9806933"><ele>1200.0</ele><time>2026-04-04T11:29:44.823Z</time></trkpt><trkpt lat="41.8826583" lon="-7.9807967"><ele>1200.0</ele><time>2026-04-04T11:29:46.823Z</time></trkpt><trkpt lat="41.8826933" lon="-7.9809117"><ele>1200.0</ele><time>2026-04-04T11:29:48.823Z</time></trkpt><trkpt lat="41.8827283" lon="-7.98101"><ele>1200.0</ele><time>2026-04-04T11:29:50.824Z</time></trkpt><trkpt lat="41.8827567" lon="-7.9810967"><ele>1200.0</ele><time>2026-04-04T11:29:52.822Z</time></trkpt><trkpt lat="41.882795" lon="-7.9812133"><ele>1200.0</ele><time>2026-04-04T11:29:54.822Z</time></trkpt><trkpt lat="41.8828417" lon="-7.981335"><ele>1199.1666666666667</ele><time>2026-04-04T11:29:56.823Z</time></trkpt><trkpt lat="41.8828767" lon="-7.9814383"><ele>1198.3333333333333</ele><time>2026-04-04T11:29:58.822Z</time></trkpt><trkpt lat="41.8828983" lon="-7.9815417"><ele>1197.5</ele><time>2026-04-04T11:30:00.822Z</time></trkpt><trkpt lat="41.8829217" lon="-7.9816383"><ele>1196.6666666666665</ele><time>2026-04-04T11:30:02.823Z</time></trkpt><trkpt lat="41.8829667" lon="-7.9817117"><ele>1195.8333333333333</ele><time>2026-04-04T11:30:10.823Z</time></trkpt><trkpt lat="41.88307" lon="-7.98175"><ele>1195.0</ele><time>2026-04-04T11:30:13.822Z</time></trkpt><trkpt lat="41.883175" lon="-7.9817967"><ele>1194.2</ele><time>2026-04-04T11:30:15.823Z</time></trkpt><trkpt lat="41.8832583" lon="-7.9819083"><ele>1193.4</ele><time>2026-04-04T11:30:17.823Z</time></trkpt><trkpt lat="41.8832967" lon="-7.9820467"><ele>1192.6</ele><time>2026-04-04T11:30:19.823Z</time></trkpt><trkpt lat="41.8832833" lon="-7.98217"><ele>1191.8</ele><time>2026-04-04T11:30:21.822Z</time></trkpt><trkpt lat="41.88325" lon="-7.9822967"><ele>1191.0</ele><time>2026-04-04T11:30:23.823Z</time></trkpt><trkpt lat="41.8832283" lon="-7.9824283"><ele>1190.1666666666667</ele><time>2026-04-04T11:30:25.823Z</time></trkpt><trkpt lat="41.8831817" lon="-7.982575"><ele>1189.3333333333333</ele><time>2026-04-04T11:30:27.823Z</time></trkpt><trkpt lat="41.8831567" lon="-7.982655"><ele>1188.5</ele><time>2026-04-04T11:30:28.822Z</time></trkpt><trkpt lat="41.883125" lon="-7.98281"><ele>1187.6666666666665</ele><time>2026-04-04T11:30:30.823Z</time></trkpt><trkpt lat="41.8831133" lon="-7.982915"><ele>1186.8333333333333</ele><time>2026-04-04T11:30:32.824Z</time></trkpt><trkpt lat="41.8831383" lon="-7.9829967"><ele>1186.0</ele><time>2026-04-04T11:30:34.823Z</time></trkpt><trkpt lat="41.8831983" lon="-7.9831017"><ele>1186.0</ele><time>2026-04-04T11:30:36.823Z</time></trkpt><trkpt lat="41.8832367" lon="-7.9831733"><ele>1186.0</ele><time>2026-04-04T11:30:37.823Z</time></trkpt><trkpt lat="41.883275" lon="-7.9832483"><ele>1186.0</ele><time>2026-04-04T11:30:38.824Z</time></trkpt><trkpt lat="41.883315" lon="-7.983335"><ele>1186.0</ele><time>2026-04-04T11:30:39.823Z</time></trkpt><trkpt lat="41.88336" lon="-7.9834183"><ele>1186.0</ele><time>2026-04-04T11:30:40.822Z</time></trkpt><trkpt lat="41.8834117" lon="-7.9835067"><ele>1186.0</ele><time>2026-04-04T11:30:41.823Z</time></trkpt><trkpt lat="41.8834683" lon="-7.9835933"><ele>1185.3333333333333</ele><time>2026-04-04T11:30:42.823Z</time></trkpt><trkpt lat="41.8835267" lon="-7.9836767"><ele>1184.6666666666665</ele><time>2026-04-04T11:30:43.823Z</time></trkpt><trkpt lat="41.8835867" lon="-7.9837567"><ele>1184.0</ele><time>2026-04-04T11:30:44.823Z</time></trkpt><trkpt lat="41.8836417" lon="-7.9838417"><ele>1183.3333333333333</ele><time>2026-04-04T11:30:45.822Z</time></trkpt><trkpt lat="41.883695" lon="-7.98392"><ele>1182.6666666666667</ele><time>2026-04-04T11:30:46.823Z</time></trkpt><trkpt lat="41.88374" lon="-7.9839883"><ele>1182.0</ele><time>2026-04-04T11:30:47.823Z</time></trkpt><trkpt lat="41.8838083" lon="-7.9840933"><ele>1182.0</ele><time>2026-04-04T11:30:49.824Z</time></trkpt><trkpt lat="41.8838583" lon="-7.9841667"><ele>1182.0</ele><time>2026-04-04T11:30:51.822Z</time></trkpt><trkpt lat="41.8839317" lon="-7.9842317"><ele>1182.0</ele><time>2026-04-04T11:31:06.823Z</time></trkpt><trkpt lat="41.884025" lon="-7.9842517"><ele>1182.0</ele><time>2026-04-04T11:31:08.825Z</time></trkpt><trkpt lat="41.88414" lon="-7.984265"><ele>1182.0</ele><time>2026-04-04T11:31:10.822Z</time></trkpt><trkpt lat="41.8842583" lon="-7.9843183"><ele>1181.0</ele><time>2026-04-04T11:31:12.824Z</time></trkpt><trkpt lat="41.8843717" lon="-7.984375"><ele>1180.0</ele><time>2026-04-04T11:31:14.824Z</time></trkpt><trkpt lat="41.8844333" lon="-7.9844"><ele>1179.0</ele><time>2026-04-04T11:31:15.823Z</time></trkpt><trkpt lat="41.8845483" lon="-7.9844567"><ele>1178.0</ele><time>2026-04-04T11:31:17.824Z</time></trkpt><trkpt lat="41.884625" lon="-7.9844817"><ele>1177.0</ele><time>2026-04-04T11:31:18.825Z</time></trkpt><trkpt lat="41.8846983" lon="-7.9844983"><ele>1177.0</ele><time>2026-04-04T11:31:19.824Z</time></trkpt><trkpt lat="41.8847733" lon="-7.9845"><ele>1177.0</ele><time>2026-04-04T11:31:20.823Z</time></trkpt><trkpt lat="41.88484" lon="-7.984525"><ele>1177.0</ele><time>2026-04-04T11:31:21.823Z</time></trkpt><trkpt lat="41.884915" lon="-7.984555"><ele>1177.0</ele><time>2026-04-04T11:31:22.822Z</time></trkpt><trkpt lat="41.884995" lon="-7.9845733"><ele>1177.0</ele><time>2026-04-04T11:31:23.824Z</time></trkpt><trkpt lat="41.8850783" lon="-7.98458"><ele>1177.0</ele><time>2026-04-04T11:31:24.823Z</time></trkpt><trkpt lat="41.8851617" lon="-7.9845883"><ele>1175.5</ele><time>2026-04-04T11:31:25.823Z</time></trkpt><trkpt lat="41.885245" lon="-7.984605"><ele>1174.0</ele><time>2026-04-04T11:31:26.824Z</time></trkpt><trkpt lat="41.885335" lon="-7.9846283"><ele>1172.5</ele><time>2026-04-04T11:31:27.823Z</time></trkpt><trkpt lat="41.8854283" lon="-7.9846567"><ele>1171.0</ele><time>2026-04-04T11:31:28.823Z</time></trkpt><trkpt lat="41.8855133" lon="-7.9846917"><ele>1169.5</ele><time>2026-04-04T11:31:29.823Z</time></trkpt><trkpt lat="41.8855917" lon="-7.9847267"><ele>1168.0</ele><time>2026-04-04T11:31:30.823Z</time></trkpt><trkpt lat="41.8856667" lon="-7.984755"><ele>1168.0</ele><time>2026-04-04T11:31:31.823Z</time></trkpt><trkpt lat="41.8857333" lon="-7.9847717"><ele>1168.0</ele><time>2026-04-04T11:31:32.824Z</time></trkpt><trkpt lat="41.88582" lon="-7.98477"><ele>1168.0</ele><time>2026-04-04T11:31:33.824Z</time></trkpt><trkpt lat="41.885905" lon="-7.9847733"><ele>1168.0</ele><time>2026-04-04T11:31:34.824Z</time></trkpt><trkpt lat="41.8859883" lon="-7.98478"><ele>1168.0</ele><time>2026-04-04T11:31:35.823Z</time></trkpt><trkpt lat="41.8860933" lon="-7.98471"><ele>1168.0</ele><time>2026-04-04T11:31:36.824Z</time></trkpt><trkpt lat="41.8861683" lon="-7.9846617"><ele>1167.0</ele><time>2026-04-04T11:31:37.823Z</time></trkpt><trkpt lat="41.8862733" lon="-7.98466"><ele>1166.0</ele><time>2026-04-04T11:31:39.823Z</time></trkpt><trkpt lat="41.88634" lon="-7.9847133"><ele>1165.0</ele><time>2026-04-04T11:31:41.826Z</time></trkpt><trkpt lat="41.8864233" lon="-7.9847567"><ele>1164.0</ele><time>2026-04-04T11:31:43.824Z</time></trkpt><trkpt lat="41.8865217" lon="-7.9848067"><ele>1163.0</ele><time>2026-04-04T11:31:45.824Z</time></trkpt><trkpt lat="41.8865967" lon="-7.9848767"><ele>1163.0</ele><time>2026-04-04T11:31:47.824Z</time></trkpt><trkpt lat="41.8867017" lon="-7.9849983"><ele>1163.0</ele><time>2026-04-04T11:31:49.825Z</time></trkpt><trkpt lat="41.886765" lon="-7.985065"><ele>1163.0</ele><time>2026-04-04T11:31:50.825Z</time></trkpt><trkpt lat="41.8868283" lon="-7.9851167"><ele>1163.0</ele><time>2026-04-04T11:31:51.825Z</time></trkpt><trkpt lat="41.8868917" lon="-7.9851517"><ele>1163.0</ele><time>2026-04-04T11:31:52.824Z</time></trkpt><trkpt lat="41.8869667" lon="-7.98518"><ele>1163.0</ele><time>2026-04-04T11:31:53.827Z</time></trkpt><trkpt lat="41.8870417" lon="-7.9852067"><ele>1160.5714285714287</ele><time>2026-04-04T11:31:54.822Z</time></trkpt><trkpt lat="41.887115" lon="-7.98525"><ele>1158.142857142857</ele><time>2026-04-04T11:31:55.825Z</time></trkpt><trkpt lat="41.8871817" lon="-7.9853017"><ele>1155.7142857142858</ele><time>2026-04-04T11:31:56.825Z</time></trkpt><trkpt lat="41.88724" lon="-7.9853667"><ele>1153.2857142857142</ele><time>2026-04-04T11:31:57.825Z</time></trkpt><trkpt lat="41.8872883" lon="-7.9854333"><ele>1150.857142857143</ele><time>2026-04-04T11:31:58.825Z</time></trkpt><trkpt lat="41.8873417" lon="-7.9854967"><ele>1148.4285714285716</ele><time>2026-04-04T11:31:59.825Z</time></trkpt><trkpt lat="41.8873967" lon="-7.985555"><ele>1146.0</ele><time>2026-04-04T11:32:00.824Z</time></trkpt><trkpt lat="41.8874517" lon="-7.9856167"><ele>1146.0</ele><time>2026-04-04T11:32:01.825Z</time></trkpt><trkpt lat="41.8875083" lon="-7.98568"><ele>1146.0</ele><time>2026-04-04T11:32:02.826Z</time></trkpt><trkpt lat="41.8875567" lon="-7.9857483"><ele>1146.0</ele><time>2026-04-04T11:32:03.824Z</time></trkpt><trkpt lat="41.8876" lon="-7.98582"><ele>1146.0</ele><time>2026-04-04T11:32:04.824Z</time></trkpt><trkpt lat="41.88764" lon="-7.9858867"><ele>1146.0</ele><time>2026-04-04T11:32:05.826Z</time></trkpt><trkpt lat="41.8877133" lon="-7.985965"><ele>1146.0</ele><time>2026-04-04T11:32:07.824Z</time></trkpt><trkpt lat="41.8878117" lon="-7.9860567"><ele>1143.6666666666667</ele><time>2026-04-04T11:32:09.825Z</time></trkpt><trkpt lat="41.8878683" lon="-7.9861"><ele>1141.3333333333333</ele><time>2026-04-04T11:32:10.825Z</time></trkpt><trkpt lat="41.887935" lon="-7.9861367"><ele>1139.0</ele><time>2026-04-04T11:32:11.825Z</time></trkpt><trkpt lat="41.8880183" lon="-7.9861617"><ele>1136.6666666666665</ele><time>2026-04-04T11:32:12.824Z</time></trkpt><trkpt lat="41.8881167" lon="-7.9861917"><ele>1134.3333333333333</ele><time>2026-04-04T11:32:13.825Z</time></trkpt><trkpt lat="41.888235" lon="-7.9862333"><ele>1132.0</ele><time>2026-04-04T11:32:14.827Z</time></trkpt><trkpt lat="41.8883567" lon="-7.9862733"><ele>1133.5</ele><time>2026-04-04T11:32:15.825Z</time></trkpt><trkpt lat="41.88848" lon="-7.9863033"><ele>1135.0</ele><time>2026-04-04T11:32:16.824Z</time></trkpt><trkpt lat="41.8886" lon="-7.9863367"><ele>1136.5</ele><time>2026-04-04T11:32:17.824Z</time></trkpt><trkpt lat="41.888725" lon="-7.986375"><ele>1138.0</ele><time>2026-04-04T11:32:18.825Z</time></trkpt><trkpt lat="41.888855" lon="-7.9864183"><ele>1138.0</ele><time>2026-04-04T11:32:19.824Z</time></trkpt><trkpt lat="41.8889833" lon="-7.9864567"><ele>1138.0</ele><time>2026-04-04T11:32:20.826Z</time></trkpt><trkpt lat="41.8891067" lon="-7.9864917"><ele>1138.0</ele><time>2026-04-04T11:32:21.823Z</time></trkpt><trkpt lat="41.889225" lon="-7.9865217"><ele>1138.0</ele><time>2026-04-04T11:32:22.823Z</time></trkpt><trkpt lat="41.8893417" lon="-7.986545"><ele>1137.6</ele><time>2026-04-04T11:32:23.824Z</time></trkpt><trkpt lat="41.8894367" lon="-7.9865633"><ele>1137.1999999999998</ele><time>2026-04-04T11:32:24.823Z</time></trkpt><trkpt lat="41.8895117" lon="-7.98657"><ele>1136.8</ele><time>2026-04-04T11:32:25.824Z</time></trkpt><trkpt lat="41.889615" lon="-7.9865683"><ele>1136.3999999999999</ele><time>2026-04-04T11:32:27.828Z</time></trkpt><trkpt lat="41.8896433" lon="-7.9864717"><ele>1136.0</ele><time>2026-04-04T11:32:38.823Z</time></trkpt><trkpt lat="41.889665" lon="-7.9862733"><ele>1136.0</ele><time>2026-04-04T11:32:40.823Z</time></trkpt><trkpt lat="41.88967" lon="-7.9861517"><ele>1136.0</ele><time>2026-04-04T11:32:41.824Z</time></trkpt><trkpt lat="41.8896783" lon="-7.9860183"><ele>1136.0</ele><time>2026-04-04T11:32:42.823Z</time></trkpt><trkpt lat="41.8896867" lon="-7.9858733"><ele>1136.0</ele><time>2026-04-04T11:32:43.824Z</time></trkpt><trkpt lat="41.8896983" lon="-7.9857233"><ele>1136.0</ele><time>2026-04-04T11:32:44.824Z</time></trkpt><trkpt lat="41.8897067" lon="-7.9855767"><ele>1136.0</ele><time>2026-04-04T11:32:45.823Z</time></trkpt><trkpt lat="41.8897117" lon="-7.9854383"><ele>1136.0</ele><time>2026-04-04T11:32:46.823Z</time></trkpt><trkpt lat="41.8897233" lon="-7.9853083"><ele>1136.0</ele><time>2026-04-04T11:32:47.824Z</time></trkpt><trkpt lat="41.8897333" lon="-7.9851867"><ele>1136.0</ele><time>2026-04-04T11:32:48.824Z</time></trkpt><trkpt lat="41.8897383" lon="-7.9850633"><ele>1136.0</ele><time>2026-04-04T11:32:49.824Z</time></trkpt><trkpt lat="41.8897383" lon="-7.9849367"><ele>1136.0</ele><time>2026-04-04T11:32:50.824Z</time></trkpt><trkpt lat="41.8897367" lon="-7.9848133"><ele>1136.0</ele><time>2026-04-04T11:32:51.823Z</time></trkpt><trkpt lat="41.8897367" lon="-7.98469"><ele>1136.0</ele><time>2026-04-04T11:32:52.825Z</time></trkpt><trkpt lat="41.88974" lon="-7.9845617"><ele>1136.0</ele><time>2026-04-04T11:32:53.825Z</time></trkpt><trkpt lat="41.8897433" lon="-7.9844367"><ele>1136.0</ele><time>2026-04-04T11:32:54.823Z</time></trkpt><trkpt lat="41.88974" lon="-7.9843117"><ele>1136.0</ele><time>2026-04-04T11:32:55.824Z</time></trkpt><trkpt lat="41.8897417" lon="-7.9841933"><ele>1136.0</ele><time>2026-04-04T11:32:56.824Z</time></trkpt><trkpt lat="41.8897533" lon="-7.9840733"><ele>1136.0</ele><time>2026-04-04T11:32:57.823Z</time></trkpt><trkpt lat="41.88977" lon="-7.9839517"><ele>1136.0</ele><time>2026-04-04T11:32:58.823Z</time></trkpt><trkpt lat="41.889785" lon="-7.983835"><ele>1136.0</ele><time>2026-04-04T11:32:59.824Z</time></trkpt><trkpt lat="41.8898" lon="-7.98372"><ele>1136.0</ele><time>2026-04-04T11:33:00.823Z</time></trkpt><trkpt lat="41.8898083" lon="-7.98361"><ele>1138.2</ele><time>2026-04-04T11:33:01.822Z</time></trkpt><trkpt lat="41.889815" lon="-7.983515"><ele>1140.3999999999999</ele><time>2026-04-04T11:33:02.822Z</time></trkpt><trkpt lat="41.88979" lon="-7.9833517"><ele>1142.6</ele><time>2026-04-04T11:33:04.822Z</time></trkpt><trkpt lat="41.8897704" lon="-7.9832663"><ele>1144.8</ele><time>2026-04-04T11:33:05.822Z</time></trkpt><trkpt lat="41.889749" lon="-7.9831808"><ele>1147.0</ele><time>2026-04-04T11:33:06.822Z</time></trkpt><trkpt lat="41.8897282" lon="-7.9830135"><ele>1149.1666666666665</ele><time>2026-04-04T11:33:08.823Z</time></trkpt><trkpt lat="41.8897291" lon="-7.982913"><ele>1151.3333333333333</ele><time>2026-04-04T11:33:09.822Z</time></trkpt><trkpt lat="41.8897297" lon="-7.9828073"><ele>1153.5</ele><time>2026-04-04T11:33:10.823Z</time></trkpt><trkpt lat="41.8897284" lon="-7.9827088"><ele>1155.6666666666667</ele><time>2026-04-04T11:33:11.822Z</time></trkpt><trkpt lat="41.8897245" lon="-7.9825567"><ele>1157.8333333333335</ele><time>2026-04-04T11:33:13.822Z</time></trkpt><trkpt lat="41.8897133" lon="-7.9824703"><ele>1160.0</ele><time>2026-04-04T11:33:15.822Z</time></trkpt><trkpt lat="41.8896575" lon="-7.9824289"><ele>1160.0</ele><time>2026-04-04T11:33:19.823Z</time></trkpt><trkpt lat="41.8895733" lon="-7.98254"><ele>1160.0</ele><time>2026-04-04T11:34:23.823Z</time></trkpt><trkpt lat="41.8895017" lon="-7.9825017"><ele>1160.0</ele><time>2026-04-04T11:34:50.823Z</time></trkpt><trkpt lat="41.8894417" lon="-7.9824717"><ele>1160.0</ele><time>2026-04-04T11:34:53.823Z</time></trkpt><trkpt lat="41.8893883" lon="-7.9824233"><ele>1160.0</ele><time>2026-04-04T11:34:56.823Z</time></trkpt><trkpt lat="41.88931" lon="-7.9823633"><ele>1160.0</ele><time>2026-04-04T11:36:26.823Z</time></trkpt><trkpt lat="41.8893933" lon="-7.9824067"><ele>1160.0</ele><time>2026-04-04T11:38:20.824Z</time></trkpt><trkpt lat="41.8894617" lon="-7.9824533"><ele>1160.0</ele><time>2026-04-04T11:38:22.823Z</time></trkpt><trkpt lat="41.8895383" lon="-7.982505"><ele>1160.0</ele><time>2026-04-04T11:38:24.823Z</time></trkpt><trkpt lat="41.8896017" lon="-7.9825183"><ele>1160.0</ele><time>2026-04-04T11:38:26.823Z</time></trkpt><trkpt lat="41.8896683" lon="-7.9825217"><ele>1160.0</ele><time>2026-04-04T11:38:29.824Z</time></trkpt><trkpt lat="41.8897017" lon="-7.9826367"><ele>1160.0</ele><time>2026-04-04T11:38:32.823Z</time></trkpt><trkpt lat="41.889705" lon="-7.982805"><ele>1160.3333333333335</ele><time>2026-04-04T11:38:34.822Z</time></trkpt><trkpt lat="41.8897083" lon="-7.9829"><ele>1160.6666666666667</ele><time>2026-04-04T11:38:35.824Z</time></trkpt><trkpt lat="41.88971" lon="-7.9829883"><ele>1161.0</ele><time>2026-04-04T11:38:36.823Z</time></trkpt><trkpt lat="41.8897117" lon="-7.9831433"><ele>1161.3333333333333</ele><time>2026-04-04T11:38:38.823Z</time></trkpt><trkpt lat="41.8897167" lon="-7.9832483"><ele>1161.6666666666665</ele><time>2026-04-04T11:38:40.823Z</time></trkpt><trkpt lat="41.8897283" lon="-7.9833467"><ele>1162.0</ele><time>2026-04-04T11:38:42.823Z</time></trkpt><trkpt lat="41.88975" lon="-7.98343"><ele>1159.857142857143</ele><time>2026-04-04T11:38:44.823Z</time></trkpt><trkpt lat="41.8897767" lon="-7.983515"><ele>1157.7142857142858</ele><time>2026-04-04T11:38:46.823Z</time></trkpt><trkpt lat="41.8897817" lon="-7.9836067"><ele>1155.5714285714284</ele><time>2026-04-04T11:38:48.823Z</time></trkpt><trkpt lat="41.8897783" lon="-7.9836983"><ele>1153.4285714285716</ele><time>2026-04-04T11:38:50.823Z</time></trkpt><trkpt lat="41.88977" lon="-7.9837917"><ele>1151.2857142857142</ele><time>2026-04-04T11:38:52.823Z</time></trkpt><trkpt lat="41.8897617" lon="-7.9838917"><ele>1149.142857142857</ele><time>2026-04-04T11:38:54.824Z</time></trkpt><trkpt lat="41.8897467" lon="-7.9840133"><ele>1147.0</ele><time>2026-04-04T11:38:56.823Z</time></trkpt><trkpt lat="41.8897217" lon="-7.9841567"><ele>1144.8</ele><time>2026-04-04T11:38:58.823Z</time></trkpt><trkpt lat="41.88971" lon="-7.98431"><ele>1142.6</ele><time>2026-04-04T11:39:00.823Z</time></trkpt><trkpt lat="41.889715" lon="-7.9844583"><ele>1140.3999999999999</ele><time>2026-04-04T11:39:02.824Z</time></trkpt><trkpt lat="41.88971" lon="-7.9846267"><ele>1138.2</ele><time>2026-04-04T11:39:04.823Z</time></trkpt><trkpt lat="41.8897067" lon="-7.984715"><ele>1136.0</ele><time>2026-04-04T11:39:05.824Z</time></trkpt><trkpt lat="41.8897033" lon="-7.9848067"><ele>1136.0</ele><time>2026-04-04T11:39:06.823Z</time></trkpt><trkpt lat="41.8897017" lon="-7.9849017"><ele>1136.0</ele><time>2026-04-04T11:39:07.823Z</time></trkpt><trkpt lat="41.8897" lon="-7.9849983"><ele>1136.0</ele><time>2026-04-04T11:39:08.824Z</time></trkpt><trkpt lat="41.889695" lon="-7.985085"><ele>1136.0</ele><time>2026-04-04T11:39:09.824Z</time></trkpt><trkpt lat="41.8896917" lon="-7.985175"><ele>1136.0</ele><time>2026-04-04T11:39:10.824Z</time></trkpt><trkpt lat="41.889685" lon="-7.9852717"><ele>1136.0</ele><time>2026-04-04T11:39:11.823Z</time></trkpt><trkpt lat="41.8896767" lon="-7.985365"><ele>1136.0</ele><time>2026-04-04T11:39:12.824Z</time></trkpt><trkpt lat="41.8896767" lon="-7.9854717"><ele>1136.0</ele><time>2026-04-04T11:39:13.825Z</time></trkpt><trkpt lat="41.8896717" lon="-7.985585"><ele>1136.0</ele><time>2026-04-04T11:39:14.824Z</time></trkpt><trkpt lat="41.889665" lon="-7.98571"><ele>1136.0</ele><time>2026-04-04T11:39:15.824Z</time></trkpt><trkpt lat="41.8896533" lon="-7.9858517"><ele>1136.0</ele><time>2026-04-04T11:39:16.823Z</time></trkpt><trkpt lat="41.889645" lon="-7.986"><ele>1136.0</ele><time>2026-04-04T11:39:17.823Z</time></trkpt><trkpt lat="41.889635" lon="-7.9861417"><ele>1136.0</ele><time>2026-04-04T11:39:18.823Z</time></trkpt><trkpt lat="41.8896183" lon="-7.9862817"><ele>1136.0</ele><time>2026-04-04T11:39:19.823Z</time></trkpt><trkpt lat="41.8895983" lon="-7.9864217"><ele>1136.0</ele><time>2026-04-04T11:39:20.824Z</time></trkpt><trkpt lat="41.8895883" lon="-7.9865517"><ele>1136.0</ele><time>2026-04-04T11:39:21.823Z</time></trkpt><trkpt lat="41.8895883" lon="-7.9866667"><ele>1136.0</ele><time>2026-04-04T11:39:22.826Z</time></trkpt><trkpt lat="41.889595" lon="-7.9867567"><ele>1136.3999999999999</ele><time>2026-04-04T11:39:23.823Z</time></trkpt><trkpt lat="41.8896067" lon="-7.98686"><ele>1136.8</ele><time>2026-04-04T11:39:25.823Z</time></trkpt><trkpt lat="41.88962" lon="-7.9870017"><ele>1137.1999999999998</ele><time>2026-04-04T11:39:32.824Z</time></trkpt><trkpt lat="41.889625" lon="-7.98709"><ele>1137.6</ele><time>2026-04-04T11:39:33.824Z</time></trkpt><trkpt lat="41.889645" lon="-7.9871817"><ele>1138.0</ele><time>2026-04-04T11:39:34.824Z</time></trkpt><trkpt lat="41.8896817" lon="-7.98735"><ele>1138.0</ele><time>2026-04-04T11:39:36.824Z</time></trkpt><trkpt lat="41.889705" lon="-7.9874383"><ele>1138.0</ele><time>2026-04-04T11:39:37.825Z</time></trkpt><trkpt lat="41.88973" lon="-7.9875333"><ele>1138.0</ele><time>2026-04-04T11:39:38.824Z</time></trkpt><trkpt lat="41.88975" lon="-7.9876383"><ele>1138.0</ele><time>2026-04-04T11:39:39.823Z</time></trkpt><trkpt lat="41.889765" lon="-7.9877567"><ele>1138.0</ele><time>2026-04-04T11:39:40.823Z</time></trkpt><trkpt lat="41.889785" lon="-7.9878833"><ele>1138.0</ele><time>2026-04-04T11:39:41.824Z</time></trkpt><trkpt lat="41.8898133" lon="-7.9880367"><ele>1138.6</ele><time>2026-04-04T11:39:42.823Z</time></trkpt><trkpt lat="41.8898433" lon="-7.9881883"><ele>1139.1999999999998</ele><time>2026-04-04T11:39:43.823Z</time></trkpt><trkpt lat="41.8898767" lon="-7.9883333"><ele>1139.8</ele><time>2026-04-04T11:39:44.826Z</time></trkpt><trkpt lat="41.8899033" lon="-7.98848"><ele>1140.3999999999999</ele><time>2026-04-04T11:39:45.823Z</time></trkpt><trkpt lat="41.8899183" lon="-7.9886167"><ele>1141.0</ele><time>2026-04-04T11:39:46.824Z</time></trkpt><trkpt lat="41.8899367" lon="-7.9887333"><ele>1141.2</ele><time>2026-04-04T11:39:47.822Z</time></trkpt><trkpt lat="41.8899583" lon="-7.9888167"><ele>1141.3999999999999</ele><time>2026-04-04T11:39:48.822Z</time></trkpt><trkpt lat="41.8900333" lon="-7.9889233"><ele>1141.6</ele><time>2026-04-04T11:39:50.823Z</time></trkpt><trkpt lat="41.8901667" lon="-7.9889183"><ele>1141.8</ele><time>2026-04-04T11:39:52.824Z</time></trkpt><trkpt lat="41.89024" lon="-7.98892"><ele>1142.0</ele><time>2026-04-04T11:39:53.822Z</time></trkpt><trkpt lat="41.8903067" lon="-7.9889367"><ele>1144.142857142857</ele><time>2026-04-04T11:39:54.822Z</time></trkpt><trkpt lat="41.89037" lon="-7.9889533"><ele>1146.2857142857142</ele><time>2026-04-04T11:39:55.822Z</time></trkpt><trkpt lat="41.8904333" lon="-7.9889733"><ele>1148.4285714285713</ele><time>2026-04-04T11:39:56.822Z</time></trkpt><trkpt lat="41.8905" lon="-7.98899"><ele>1150.5714285714284</ele><time>2026-04-04T11:39:57.822Z</time></trkpt><trkpt lat="41.8905633" lon="-7.9889983"><ele>1152.7142857142856</ele><time>2026-04-04T11:39:58.822Z</time></trkpt><trkpt lat="41.8906283" lon="-7.989"><ele>1154.857142857143</ele><time>2026-04-04T11:39:59.823Z</time></trkpt><trkpt lat="41.89074" lon="-7.98903"><ele>1157.0</ele><time>2026-04-04T11:40:01.823Z</time></trkpt><trkpt lat="41.890835" lon="-7.9891067"><ele>1157.0</ele><time>2026-04-04T11:40:03.822Z</time></trkpt><trkpt lat="41.890895" lon="-7.9892417"><ele>1157.0</ele><time>2026-04-04T11:40:05.823Z</time></trkpt><trkpt lat="41.890915" lon="-7.9893833"><ele>1157.0</ele><time>2026-04-04T11:40:07.823Z</time></trkpt><trkpt lat="41.8909583" lon="-7.9894717"><ele>1157.0</ele><time>2026-04-04T11:40:09.823Z</time></trkpt><trkpt lat="41.8910367" lon="-7.9895317"><ele>1157.0</ele><time>2026-04-04T11:40:11.823Z</time></trkpt><trkpt lat="41.891145" lon="-7.9895267"><ele>1156.6</ele><time>2026-04-04T11:40:13.822Z</time></trkpt><trkpt lat="41.8912383" lon="-7.9894867"><ele>1156.2</ele><time>2026-04-04T11:40:15.822Z</time></trkpt><trkpt lat="41.8913183" lon="-7.98942"><ele>1155.8</ele><time>2026-04-04T11:40:17.823Z</time></trkpt><trkpt lat="41.8913833" lon="-7.989315"><ele>1155.4</ele><time>2026-04-04T11:40:19.823Z</time></trkpt><trkpt lat="41.8914617" lon="-7.98923"><ele>1155.0</ele><time>2026-04-04T11:40:21.822Z</time></trkpt><trkpt lat="41.891555" lon="-7.9892167"><ele>1155.0</ele><time>2026-04-04T11:40:23.823Z</time></trkpt><trkpt lat="41.8916217" lon="-7.9892317"><ele>1155.0</ele><time>2026-04-04T11:40:24.823Z</time></trkpt><trkpt lat="41.8917017" lon="-7.9892483"><ele>1155.0</ele><time>2026-04-04T11:40:25.823Z</time></trkpt><trkpt lat="41.8917867" lon="-7.98926"><ele>1155.0</ele><time>2026-04-04T11:40:26.823Z</time></trkpt><trkpt lat="41.89188" lon="-7.9892717"><ele>1155.0</ele><time>2026-04-04T11:40:27.822Z</time></trkpt><trkpt lat="41.8919783" lon="-7.98928"><ele>1155.0</ele><time>2026-04-04T11:40:28.823Z</time></trkpt><trkpt lat="41.8920733" lon="-7.9892917"><ele>1152.2</ele><time>2026-04-04T11:40:29.823Z</time></trkpt><trkpt lat="41.8921733" lon="-7.9893033"><ele>1149.4</ele><time>2026-04-04T11:40:30.823Z</time></trkpt><trkpt lat="41.89228" lon="-7.9893233"><ele>1146.6</ele><time>2026-04-04T11:40:31.825Z</time></trkpt><trkpt lat="41.8923833" lon="-7.9893517"><ele>1143.8</ele><time>2026-04-04T11:40:32.825Z</time></trkpt><trkpt lat="41.8924833" lon="-7.989375"><ele>1141.0</ele><time>2026-04-04T11:40:33.823Z</time></trkpt><trkpt lat="41.892585" lon="-7.9893967"><ele>1139.0</ele><time>2026-04-04T11:40:34.823Z</time></trkpt><trkpt lat="41.89269" lon="-7.9894133"><ele>1137.0</ele><time>2026-04-04T11:40:35.823Z</time></trkpt><trkpt lat="41.892785" lon="-7.9894267"><ele>1135.0</ele><time>2026-04-04T11:40:36.824Z</time></trkpt><trkpt lat="41.8928783" lon="-7.989435"><ele>1133.0</ele><time>2026-04-04T11:40:37.823Z</time></trkpt><trkpt lat="41.8929733" lon="-7.98945"><ele>1131.0</ele><time>2026-04-04T11:40:38.823Z</time></trkpt><trkpt lat="41.893075" lon="-7.9894783"><ele>1131.0</ele><time>2026-04-04T11:40:39.823Z</time></trkpt><trkpt lat="41.8931883" lon="-7.98952"><ele>1131.0</ele><time>2026-04-04T11:40:40.823Z</time></trkpt><trkpt lat="41.8933083" lon="-7.9895733"><ele>1131.0</ele><time>2026-04-04T11:40:41.823Z</time></trkpt><trkpt lat="41.8934317" lon="-7.9896283"><ele>1131.0</ele><time>2026-04-04T11:40:42.824Z</time></trkpt><trkpt lat="41.8935633" lon="-7.9896883"><ele>1129.3999999999999</ele><time>2026-04-04T11:40:43.823Z</time></trkpt><trkpt lat="41.893685" lon="-7.9897467"><ele>1127.8</ele><time>2026-04-04T11:40:44.823Z</time></trkpt><trkpt lat="41.8937917" lon="-7.98978"><ele>1126.1999999999998</ele><time>2026-04-04T11:40:45.823Z</time></trkpt><trkpt lat="41.8938983" lon="-7.98979"><ele>1124.6</ele><time>2026-04-04T11:40:46.823Z</time></trkpt><trkpt lat="41.8940017" lon="-7.9897833"><ele>1123.0</ele><time>2026-04-04T11:40:47.826Z</time></trkpt><trkpt lat="41.89411" lon="-7.98976"><ele>1123.0</ele><time>2026-04-04T11:40:48.822Z</time></trkpt><trkpt lat="41.8942283" lon="-7.9897317"><ele>1123.0</ele><time>2026-04-04T11:40:49.825Z</time></trkpt><trkpt lat="41.8943583" lon="-7.9896867"><ele>1123.0</ele><time>2026-04-04T11:40:50.822Z</time></trkpt><trkpt lat="41.8944933" lon="-7.9896233"><ele>1123.0</ele><time>2026-04-04T11:40:51.823Z</time></trkpt><trkpt lat="41.894625" lon="-7.9895433"><ele>1122.5</ele><time>2026-04-04T11:40:52.822Z</time></trkpt><trkpt lat="41.894755" lon="-7.9894417"><ele>1122.0</ele><time>2026-04-04T11:40:53.824Z</time></trkpt><trkpt lat="41.8948717" lon="-7.9893417"><ele>1121.5</ele><time>2026-04-04T11:40:54.822Z</time></trkpt><trkpt lat="41.8949883" lon="-7.98924"><ele>1121.0</ele><time>2026-04-04T11:40:55.824Z</time></trkpt><trkpt lat="41.8951067" lon="-7.989135"><ele>1119.75</ele><time>2026-04-04T11:40:56.823Z</time></trkpt><trkpt lat="41.8952283" lon="-7.989035"><ele>1118.5</ele><time>2026-04-04T11:40:57.826Z</time></trkpt><trkpt lat="41.8953483" lon="-7.988935"><ele>1117.25</ele><time>2026-04-04T11:40:58.822Z</time></trkpt><trkpt lat="41.895465" lon="-7.9888367"><ele>1116.0</ele><time>2026-04-04T11:40:59.823Z</time></trkpt><trkpt lat="41.8955817" lon="-7.98874"><ele>1116.0</ele><time>2026-04-04T11:41:00.822Z</time></trkpt><trkpt lat="41.8956933" lon="-7.9886483"><ele>1116.0</ele><time>2026-04-04T11:41:01.822Z</time></trkpt><trkpt lat="41.895805" lon="-7.9885567"><ele>1116.0</ele><time>2026-04-04T11:41:02.823Z</time></trkpt><trkpt lat="41.8959167" lon="-7.98847"><ele>1116.0</ele><time>2026-04-04T11:41:03.824Z</time></trkpt><trkpt lat="41.896025" lon="-7.9883783"><ele>1115.6</ele><time>2026-04-04T11:41:04.823Z</time></trkpt><trkpt lat="41.8961233" lon="-7.9883"><ele>1115.1999999999998</ele><time>2026-04-04T11:41:05.825Z</time></trkpt><trkpt lat="41.896215" lon="-7.9882317"><ele>1114.8000000000002</ele><time>2026-04-04T11:41:06.823Z</time></trkpt><trkpt lat="41.8963" lon="-7.9881717"><ele>1114.4</ele><time>2026-04-04T11:41:07.823Z</time></trkpt><trkpt lat="41.896375" lon="-7.98812"><ele>1114.0</ele><time>2026-04-04T11:41:08.823Z</time></trkpt><trkpt lat="41.8964333" lon="-7.9880817"><ele>1114.0</ele><time>2026-04-04T11:41:09.823Z</time></trkpt><trkpt lat="41.896515" lon="-7.988015"><ele>1114.0</ele><time>2026-04-04T11:41:11.823Z</time></trkpt><trkpt lat="41.8965617" lon="-7.987955"><ele>1114.0</ele><time>2026-04-04T11:41:14.823Z</time></trkpt><trkpt lat="41.89658" lon="-7.9880417"><ele>1114.0</ele><time>2026-04-04T11:41:18.822Z</time></trkpt><trkpt lat="41.8965567" lon="-7.98813"><ele>1114.0</ele><time>2026-04-04T11:41:21.823Z</time></trkpt><trkpt lat="41.8965317" lon="-7.9880483"><ele>1114.0</ele><time>2026-04-04T11:41:27.823Z</time></trkpt><trkpt lat="41.8965517" lon="-7.98794"><ele>1114.0</ele><time>2026-04-04T11:41:28.823Z</time></trkpt><trkpt lat="41.8965667" lon="-7.9878417"><ele>1114.0</ele><time>2026-04-04T11:41:29.823Z</time></trkpt><trkpt lat="41.89657" lon="-7.9877383"><ele>1114.0</ele><time>2026-04-04T11:41:30.824Z</time></trkpt><trkpt lat="41.8965717" lon="-7.987635"><ele>1114.0</ele><time>2026-04-04T11:41:31.823Z</time></trkpt><trkpt lat="41.8965583" lon="-7.987545"><ele>1114.0</ele><time>2026-04-04T11:41:32.825Z</time></trkpt><trkpt lat="41.8965517" lon="-7.9874367"><ele>1114.0</ele><time>2026-04-04T11:41:33.823Z</time></trkpt><trkpt lat="41.8965617" lon="-7.98733"><ele>1114.0</ele><time>2026-04-04T11:41:34.827Z</time></trkpt><trkpt lat="41.896585" lon="-7.987225"><ele>1114.3333333333333</ele><time>2026-04-04T11:41:35.823Z</time></trkpt><trkpt lat="41.8966167" lon="-7.9871167"><ele>1114.6666666666665</ele><time>2026-04-04T11:41:36.823Z</time></trkpt><trkpt lat="41.8966483" lon="-7.9870133"><ele>1115.0</ele><time>2026-04-04T11:41:37.823Z</time></trkpt><trkpt lat="41.896675" lon="-7.9869067"><ele>1115.3333333333333</ele><time>2026-04-04T11:41:38.823Z</time></trkpt><trkpt lat="41.89669" lon="-7.9867867"><ele>1115.6666666666667</ele><time>2026-04-04T11:41:39.823Z</time></trkpt><trkpt lat="41.896685" lon="-7.9866667"><ele>1116.0</ele><time>2026-04-04T11:41:40.823Z</time></trkpt><trkpt lat="41.8966633" lon="-7.9865333"><ele>1116.3333333333333</ele><time>2026-04-04T11:41:41.824Z</time></trkpt><trkpt lat="41.8966483" lon="-7.9864217"><ele>1116.6666666666667</ele><time>2026-04-04T11:41:42.824Z</time></trkpt><trkpt lat="41.89664" lon="-7.986315"><ele>1117.0</ele><time>2026-04-04T11:41:43.823Z</time></trkpt><trkpt lat="41.8966383" lon="-7.9862117"><ele>1117.3333333333335</ele><time>2026-04-04T11:41:44.823Z</time></trkpt><trkpt lat="41.8966417" lon="-7.9861167"><ele>1117.6666666666667</ele><time>2026-04-04T11:41:45.824Z</time></trkpt><trkpt lat="41.896655" lon="-7.9859733"><ele>1118.0</ele><time>2026-04-04T11:41:47.823Z</time></trkpt><trkpt lat="41.89668" lon="-7.9858567"><ele>1117.3333333333335</ele><time>2026-04-04T11:41:49.825Z</time></trkpt><trkpt lat="41.8967183" lon="-7.985705"><ele>1116.6666666666667</ele><time>2026-04-04T11:41:51.823Z</time></trkpt><trkpt lat="41.8967483" lon="-7.9856167"><ele>1116.0</ele><time>2026-04-04T11:41:52.823Z</time></trkpt><trkpt lat="41.89677" lon="-7.985525"><ele>1115.3333333333333</ele><time>2026-04-04T11:41:53.825Z</time></trkpt><trkpt lat="41.8967817" lon="-7.985435"><ele>1114.6666666666665</ele><time>2026-04-04T11:41:54.824Z</time></trkpt><trkpt lat="41.896785" lon="-7.9853467"><ele>1114.0</ele><time>2026-04-04T11:41:55.823Z</time></trkpt><trkpt lat="41.89676" lon="-7.9852517"><ele>1114.0</ele><time>2026-04-04T11:41:56.824Z</time></trkpt><trkpt lat="41.8967333" lon="-7.98516"><ele>1114.0</ele><time>2026-04-04T11:41:57.824Z</time></trkpt><trkpt lat="41.8967183" lon="-7.9850733"><ele>1114.0</ele><time>2026-04-04T11:41:58.825Z</time></trkpt><trkpt lat="41.89671" lon="-7.984985"><ele>1114.0</ele><time>2026-04-04T11:41:59.824Z</time></trkpt><trkpt lat="41.8967033" lon="-7.9848967"><ele>1114.0</ele><time>2026-04-04T11:42:00.824Z</time></trkpt><trkpt lat="41.8967" lon="-7.9848033"><ele>1114.0</ele><time>2026-04-04T11:42:01.825Z</time></trkpt><trkpt lat="41.896705" lon="-7.9846967"><ele>1114.0</ele><time>2026-04-04T11:42:02.825Z</time></trkpt><trkpt lat="41.8967133" lon="-7.98458"><ele>1113.2</ele><time>2026-04-04T11:42:03.824Z</time></trkpt><trkpt lat="41.8967133" lon="-7.984485"><ele>1112.4</ele><time>2026-04-04T11:42:04.823Z</time></trkpt><trkpt lat="41.8966667" lon="-7.98435"><ele>1111.6</ele><time>2026-04-04T11:42:06.824Z</time></trkpt><trkpt lat="41.89656" lon="-7.9842683"><ele>1110.8</ele><time>2026-04-04T11:42:08.824Z</time></trkpt><trkpt lat="41.8964983" lon="-7.9842183"><ele>1110.0</ele><time>2026-04-04T11:42:09.824Z</time></trkpt><trkpt lat="41.8964133" lon="-7.9841517"><ele>1108.6</ele><time>2026-04-04T11:42:10.824Z</time></trkpt><trkpt lat="41.8963317" lon="-7.9840517"><ele>1107.2</ele><time>2026-04-04T11:42:11.823Z</time></trkpt><trkpt lat="41.8962667" lon="-7.9839483"><ele>1105.8</ele><time>2026-04-04T11:42:12.824Z</time></trkpt><trkpt lat="41.8962167" lon="-7.9838433"><ele>1104.4</ele><time>2026-04-04T11:42:13.824Z</time></trkpt><trkpt lat="41.8961833" lon="-7.9837333"><ele>1103.0</ele><time>2026-04-04T11:42:14.824Z</time></trkpt><trkpt lat="41.8961733" lon="-7.98363"><ele>1103.0</ele><time>2026-04-04T11:42:15.825Z</time></trkpt><trkpt lat="41.89619" lon="-7.9835183"><ele>1103.0</ele><time>2026-04-04T11:42:16.824Z</time></trkpt><trkpt lat="41.8962217" lon="-7.9834017"><ele>1103.0</ele><time>2026-04-04T11:42:17.824Z</time></trkpt><trkpt lat="41.896255" lon="-7.98327"><ele>1103.0</ele><time>2026-04-04T11:42:18.824Z</time></trkpt><trkpt lat="41.8962883" lon="-7.9831333"><ele>1103.0</ele><time>2026-04-04T11:42:19.825Z</time></trkpt><trkpt lat="41.8963217" lon="-7.983"><ele>1101.8</ele><time>2026-04-04T11:42:20.824Z</time></trkpt><trkpt lat="41.8963617" lon="-7.9828783"><ele>1100.6</ele><time>2026-04-04T11:42:21.824Z</time></trkpt><trkpt lat="41.8964267" lon="-7.98277"><ele>1099.4</ele><time>2026-04-04T11:42:22.823Z</time></trkpt><trkpt lat="41.8964983" lon="-7.9826717"><ele>1098.2</ele><time>2026-04-04T11:42:23.824Z</time></trkpt><trkpt lat="41.89657" lon="-7.9825883"><ele>1097.0</ele><time>2026-04-04T11:42:24.824Z</time></trkpt><trkpt lat="41.896645" lon="-7.9825067"><ele>1095.1666666666667</ele><time>2026-04-04T11:42:25.824Z</time></trkpt><trkpt lat="41.8967283" lon="-7.9824367"><ele>1093.3333333333335</ele><time>2026-04-04T11:42:26.824Z</time></trkpt><trkpt lat="41.8968083" lon="-7.9823767"><ele>1091.5</ele><time>2026-04-04T11:42:27.824Z</time></trkpt><trkpt lat="41.896885" lon="-7.982335"><ele>1089.6666666666667</ele><time>2026-04-04T11:42:28.823Z</time></trkpt><trkpt lat="41.89696" lon="-7.982315"><ele>1087.8333333333333</ele><time>2026-04-04T11:42:29.825Z</time></trkpt><trkpt lat="41.8970517" lon="-7.9823067"><ele>1086.0</ele><time>2026-04-04T11:42:30.825Z</time></trkpt><trkpt lat="41.8971517" lon="-7.982315"><ele>1085.3999999999999</ele><time>2026-04-04T11:42:31.824Z</time></trkpt><trkpt lat="41.8972533" lon="-7.9823333"><ele>1084.8</ele><time>2026-04-04T11:42:32.824Z</time></trkpt><trkpt lat="41.8973483" lon="-7.9823433"><ele>1084.1999999999998</ele><time>2026-04-04T11:42:33.825Z</time></trkpt><trkpt lat="41.89744" lon="-7.98234"><ele>1083.6</ele><time>2026-04-04T11:42:34.824Z</time></trkpt><trkpt lat="41.8975317" lon="-7.9823333"><ele>1083.0</ele><time>2026-04-04T11:42:35.824Z</time></trkpt><trkpt lat="41.8976117" lon="-7.98232"><ele>1079.0</ele><time>2026-04-04T11:42:36.825Z</time></trkpt><trkpt lat="41.897675" lon="-7.9823083"><ele>1075.0</ele><time>2026-04-04T11:42:37.825Z</time></trkpt><trkpt lat="41.897785" lon="-7.982295"><ele>1071.0</ele><time>2026-04-04T11:42:39.824Z</time></trkpt><trkpt lat="41.89785" lon="-7.9822717"><ele>1067.0</ele><time>2026-04-04T11:42:41.824Z</time></trkpt><trkpt lat="41.89786" lon="-7.98214"><ele>1063.0</ele><time>2026-04-04T11:42:44.824Z</time></trkpt><trkpt lat="41.89784" lon="-7.9820517"><ele>1059.0</ele><time>2026-04-04T11:42:45.824Z</time></trkpt><trkpt lat="41.89782" lon="-7.981965"><ele>1059.0</ele><time>2026-04-04T11:42:46.824Z</time></trkpt><trkpt lat="41.8978067" lon="-7.9818817"><ele>1059.0</ele><time>2026-04-04T11:42:47.827Z</time></trkpt><trkpt lat="41.8978033" lon="-7.981775"><ele>1059.0</ele><time>2026-04-04T11:42:49.824Z</time></trkpt><trkpt lat="41.897865" lon="-7.98171"><ele>1059.0</ele><time>2026-04-04T11:42:52.825Z</time></trkpt><trkpt lat="41.897925" lon="-7.981755"><ele>1059.0</ele><time>2026-04-04T11:42:54.824Z</time></trkpt><trkpt lat="41.8980067" lon="-7.98183"><ele>1059.0</ele><time>2026-04-04T11:42:56.824Z</time></trkpt><trkpt lat="41.8980967" lon="-7.9818933"><ele>1059.0</ele><time>2026-04-04T11:42:58.824Z</time></trkpt><trkpt lat="41.8981817" lon="-7.9819433"><ele>1059.0</ele><time>2026-04-04T11:43:00.824Z</time></trkpt><trkpt lat="41.8982717" lon="-7.9820083"><ele>1059.0</ele><time>2026-04-04T11:43:02.824Z</time></trkpt><trkpt lat="41.898345" lon="-7.98212"><ele>1059.0</ele><time>2026-04-04T11:43:04.824Z</time></trkpt><trkpt lat="41.898375" lon="-7.9822017"><ele>1059.0</ele><time>2026-04-04T11:43:05.824Z</time></trkpt><trkpt lat="41.898395" lon="-7.9823"><ele>1059.0</ele><time>2026-04-04T11:43:06.825Z</time></trkpt><trkpt lat="41.8984017" lon="-7.9824017"><ele>1059.0</ele><time>2026-04-04T11:43:07.824Z</time></trkpt><trkpt lat="41.8984017" lon="-7.98251"><ele>1059.0</ele><time>2026-04-04T11:43:08.825Z</time></trkpt><trkpt lat="41.8983867" lon="-7.98263"><ele>1059.0</ele><time>2026-04-04T11:43:09.825Z</time></trkpt><trkpt lat="41.8983733" lon="-7.982775"><ele>1059.0</ele><time>2026-04-04T11:43:10.824Z</time></trkpt><trkpt lat="41.89836" lon="-7.9829433"><ele>1059.0</ele><time>2026-04-04T11:43:11.824Z</time></trkpt><trkpt lat="41.8983517" lon="-7.9831117"><ele>1058.6000000000001</ele><time>2026-04-04T11:43:12.824Z</time></trkpt><trkpt lat="41.8983533" lon="-7.983265"><ele>1058.2</ele><time>2026-04-04T11:43:13.826Z</time></trkpt><trkpt lat="41.89836" lon="-7.9833967"><ele>1057.8000000000002</ele><time>2026-04-04T11:43:14.823Z</time></trkpt><trkpt lat="41.8983667" lon="-7.9834983"><ele>1057.4</ele><time>2026-04-04T11:43:15.823Z</time></trkpt><trkpt lat="41.8983783" lon="-7.9835917"><ele>1057.0</ele><time>2026-04-04T11:43:16.823Z</time></trkpt><trkpt lat="41.898415" lon="-7.9837167"><ele>1050.6</ele><time>2026-04-04T11:43:18.823Z</time></trkpt><trkpt lat="41.8984917" lon="-7.9837133"><ele>1044.2</ele><time>2026-04-04T11:43:21.822Z</time></trkpt><trkpt lat="41.898555" lon="-7.9836267"><ele>1037.8</ele><time>2026-04-04T11:43:23.823Z</time></trkpt><trkpt lat="41.8985967" lon="-7.9835333"><ele>1031.4</ele><time>2026-04-04T11:43:24.824Z</time></trkpt><trkpt lat="41.8986583" lon="-7.98341"><ele>1025.0</ele><time>2026-04-04T11:43:25.824Z</time></trkpt><trkpt lat="41.898735" lon="-7.98327"><ele>1025.0</ele><time>2026-04-04T11:43:26.823Z</time></trkpt><trkpt lat="41.89883" lon="-7.9831217"><ele>1025.0</ele><time>2026-04-04T11:43:27.823Z</time></trkpt><trkpt lat="41.89893" lon="-7.982985"><ele>1025.0</ele><time>2026-04-04T11:43:28.823Z</time></trkpt><trkpt lat="41.8990183" lon="-7.9828583"><ele>1025.0</ele><time>2026-04-04T11:43:29.823Z</time></trkpt><trkpt lat="41.8990917" lon="-7.98274"><ele>1025.0</ele><time>2026-04-04T11:43:30.823Z</time></trkpt><trkpt lat="41.8991517" lon="-7.9826183"><ele>1025.0</ele><time>2026-04-04T11:43:31.823Z</time></trkpt><trkpt lat="41.8991867" lon="-7.9824817"><ele>1025.0</ele><time>2026-04-04T11:43:32.823Z</time></trkpt><trkpt lat="41.8992117" lon="-7.9823483"><ele>1025.0</ele><time>2026-04-04T11:43:33.823Z</time></trkpt><trkpt lat="41.8992367" lon="-7.9822417"><ele>1025.0</ele><time>2026-04-04T11:43:34.823Z</time></trkpt><trkpt lat="41.8992667" lon="-7.982155"><ele>1023.0</ele><time>2026-04-04T11:43:35.823Z</time></trkpt><trkpt lat="41.89934" lon="-7.982045"><ele>1021.0</ele><time>2026-04-04T11:43:37.823Z</time></trkpt><trkpt lat="41.8994583" lon="-7.9820467"><ele>1019.0</ele><time>2026-04-04T11:43:39.824Z</time></trkpt><trkpt lat="41.8995333" lon="-7.9820983"><ele>1017.0</ele><time>2026-04-04T11:43:40.823Z</time></trkpt><trkpt lat="41.89962" lon="-7.9821667"><ele>1015.0</ele><time>2026-04-04T11:43:41.823Z</time></trkpt><trkpt lat="41.8996867" lon="-7.982215"><ele>1014.9999999999999</ele><time>2026-04-04T11:43:42.824Z</time></trkpt><trkpt lat="41.8997567" lon="-7.9822517"><ele>1015.0</ele><time>2026-04-04T11:43:43.823Z</time></trkpt><trkpt lat="41.8998317" lon="-7.9822733"><ele>1015.0</ele><time>2026-04-04T11:43:44.823Z</time></trkpt><trkpt lat="41.899905" lon="-7.9822667"><ele>1015.0</ele><time>2026-04-04T11:43:45.822Z</time></trkpt><trkpt lat="41.89997" lon="-7.9822167"><ele>1014.9999999999999</ele><time>2026-04-04T11:43:46.823Z</time></trkpt><trkpt lat="41.9000317" lon="-7.982125"><ele>1015.0</ele><time>2026-04-04T11:43:47.823Z</time></trkpt><trkpt lat="41.9000917" lon="-7.982015"><ele>1015.3333333333333</ele><time>2026-04-04T11:43:48.823Z</time></trkpt><trkpt lat="41.9001433" lon="-7.98193"><ele>1015.6666666666666</ele><time>2026-04-04T11:43:49.823Z</time></trkpt><trkpt lat="41.9001583" lon="-7.981815"><ele>1016.0</ele><time>2026-04-04T11:43:50.824Z</time></trkpt><trkpt lat="41.9001817" lon="-7.9817267"><ele>1016.3333333333333</ele><time>2026-04-04T11:43:51.824Z</time></trkpt><trkpt lat="41.9001167" lon="-7.98161"><ele>1016.6666666666666</ele><time>2026-04-04T11:43:53.823Z</time></trkpt><trkpt lat="41.9000233" lon="-7.9816183"><ele>1017.0</ele><time>2026-04-04T11:43:54.823Z</time></trkpt><trkpt lat="41.8999433" lon="-7.981605"><ele>1017.0</ele><time>2026-04-04T11:43:55.824Z</time></trkpt><trkpt lat="41.89984" lon="-7.9816017"><ele>1017.0</ele><time>2026-04-04T11:43:56.824Z</time></trkpt><trkpt lat="41.899755" lon="-7.9815783"><ele>1017.0</ele><time>2026-04-04T11:43:57.824Z</time></trkpt><trkpt lat="41.899685" lon="-7.9815383"><ele>1017.0</ele><time>2026-04-04T11:43:58.824Z</time></trkpt><trkpt lat="41.8996033" lon="-7.9814683"><ele>1017.0</ele><time>2026-04-04T11:43:59.823Z</time></trkpt><trkpt lat="41.8995133" lon="-7.98138"><ele>1017.0</ele><time>2026-04-04T11:44:00.823Z</time></trkpt><trkpt lat="41.8994233" lon="-7.98128"><ele>1017.0</ele><time>2026-04-04T11:44:01.823Z</time></trkpt><trkpt lat="41.8993267" lon="-7.9811567"><ele>1017.0</ele><time>2026-04-04T11:44:02.824Z</time></trkpt><trkpt lat="41.8992333" lon="-7.9810367"><ele>1017.0</ele><time>2026-04-04T11:44:03.823Z</time></trkpt><trkpt lat="41.8991483" lon="-7.9809267"><ele>1016.0</ele><time>2026-04-04T11:44:04.824Z</time></trkpt><trkpt lat="41.8990733" lon="-7.98084"><ele>1015.0</ele><time>2026-04-04T11:44:05.823Z</time></trkpt><trkpt lat="41.8990183" lon="-7.980775"><ele>1014.0</ele><time>2026-04-04T11:44:06.823Z</time></trkpt><trkpt lat="41.8989517" lon="-7.9806717"><ele>1013.0</ele><time>2026-04-04T11:44:08.823Z</time></trkpt><trkpt lat="41.898915" lon="-7.9805867"><ele>1012.0</ele><time>2026-04-04T11:44:11.823Z</time></trkpt><trkpt lat="41.898885" lon="-7.9805017"><ele>1011.0</ele><time>2026-04-04T11:44:15.822Z</time></trkpt><trkpt lat="41.8988083" lon="-7.9804267"><ele>1010.9999999999999</ele><time>2026-04-04T11:44:47.823Z</time></trkpt><trkpt lat="41.8987567" lon="-7.9803533"><ele>1011.0</ele><time>2026-04-04T11:44:49.824Z</time></trkpt><trkpt lat="41.8987133" lon="-7.9802833"><ele>1010.9999999999999</ele><time>2026-04-04T11:44:51.823Z</time></trkpt><trkpt lat="41.8986733" lon="-7.9801883"><ele>1010.9999999999999</ele><time>2026-04-04T11:44:53.824Z</time></trkpt><trkpt lat="41.89865" lon="-7.9800883"><ele>1011.0</ele><time>2026-04-04T11:44:56.823Z</time></trkpt><trkpt lat="41.8985933" lon="-7.98014"><ele>1010.9999999999999</ele><time>2026-04-04T11:46:01.824Z</time></trkpt><trkpt lat="41.8985217" lon="-7.9801033"><ele>1010.9999999999999</ele><time>2026-04-04T11:46:05.824Z</time></trkpt><trkpt lat="41.8984467" lon="-7.98007"><ele>1011.0</ele><time>2026-04-04T11:46:08.826Z</time></trkpt><trkpt lat="41.898375" lon="-7.98002"><ele>1011.0</ele><time>2026-04-04T11:46:11.823Z</time></trkpt><trkpt lat="41.8982833" lon="-7.9799733"><ele>1011.0</ele><time>2026-04-04T11:46:14.824Z</time></trkpt><trkpt lat="41.89819" lon="-7.9799517"><ele>1011.0</ele><time>2026-04-04T11:46:16.823Z</time></trkpt><trkpt lat="41.8981033" lon="-7.9799433"><ele>1011.0</ele><time>2026-04-04T11:46:18.823Z</time></trkpt><trkpt lat="41.898025" lon="-7.97993"><ele>1011.0</ele><time>2026-04-04T11:46:20.824Z</time></trkpt><trkpt lat="41.89794" lon="-7.9799267"><ele>1011.0</ele><time>2026-04-04T11:46:22.824Z</time></trkpt><trkpt lat="41.89785" lon="-7.9799317"><ele>1011.0</ele><time>2026-04-04T11:46:25.823Z</time></trkpt><trkpt lat="41.89776" lon="-7.9799383"><ele>1011.0</ele><time>2026-04-04T11:46:28.823Z</time></trkpt><trkpt lat="41.8976733" lon="-7.9799217"><ele>1011.0</ele><time>2026-04-04T11:46:31.823Z</time></trkpt><trkpt lat="41.8975983" lon="-7.9799133"><ele>1011.0</ele><time>2026-04-04T11:46:33.823Z</time></trkpt><trkpt lat="41.8975333" lon="-7.979925"><ele>1011.0</ele><time>2026-04-04T11:46:35.822Z</time></trkpt><trkpt lat="41.8974567" lon="-7.9799217"><ele>1010.8333333333334</ele><time>2026-04-04T11:46:38.823Z</time></trkpt><trkpt lat="41.8973767" lon="-7.979905"><ele>1010.6666666666667</ele><time>2026-04-04T11:46:41.823Z</time></trkpt><trkpt lat="41.8973133" lon="-7.97989"><ele>1010.5</ele><time>2026-04-04T11:46:43.822Z</time></trkpt><trkpt lat="41.89722" lon="-7.979855"><ele>1010.3333333333334</ele><time>2026-04-04T11:46:46.822Z</time></trkpt><trkpt lat="41.897135" lon="-7.979835"><ele>1010.1666666666667</ele><time>2026-04-04T11:46:49.823Z</time></trkpt><trkpt lat="41.8970633" lon="-7.97981"><ele>1010.0</ele><time>2026-04-04T11:46:53.823Z</time></trkpt><trkpt lat="41.8969817" lon="-7.97978"><ele>1010.0</ele><time>2026-04-04T11:46:57.822Z</time></trkpt><trkpt lat="41.8969067" lon="-7.97975"><ele>1009.9999999999999</ele><time>2026-04-04T11:47:01.823Z</time></trkpt><trkpt lat="41.8968417" lon="-7.9797517"><ele>1010.0</ele><time>2026-04-04T11:47:04.823Z</time></trkpt><trkpt lat="41.8967583" lon="-7.97974"><ele>1010.0</ele><time>2026-04-04T11:47:07.823Z</time></trkpt><trkpt lat="41.89668" lon="-7.9797467"><ele>1009.9999999999999</ele><time>2026-04-04T11:47:10.822Z</time></trkpt><trkpt lat="41.8966117" lon="-7.9797167"><ele>1010.0</ele><time>2026-04-04T11:47:13.823Z</time></trkpt><trkpt lat="41.89656" lon="-7.979665"><ele>1010.0</ele><time>2026-04-04T11:47:16.822Z</time></trkpt><trkpt lat="41.8965083" lon="-7.9795917"><ele>1010.0000000000001</ele><time>2026-04-04T11:47:19.823Z</time></trkpt><trkpt lat="41.8964833" lon="-7.9794883"><ele>1010.0</ele><time>2026-04-04T11:47:21.822Z</time></trkpt><trkpt lat="41.8964783" lon="-7.9793917"><ele>1010.0</ele><time>2026-04-04T11:47:23.822Z</time></trkpt><trkpt lat="41.8964933" lon="-7.979475"><ele>1010.0</ele><time>2026-04-04T11:47:31.823Z</time></trkpt><trkpt lat="41.89652" lon="-7.9795667"><ele>1010.0000000000001</ele><time>2026-04-04T11:47:33.822Z</time></trkpt><trkpt lat="41.8965267" lon="-7.979665"><ele>1010.0</ele><time>2026-04-04T11:47:35.822Z</time></trkpt><trkpt lat="41.8964933" lon="-7.9797833"><ele>1010.0000000000001</ele><time>2026-04-04T11:47:37.823Z</time></trkpt><trkpt lat="41.896465" lon="-7.9798767"><ele>1010.0</ele><time>2026-04-04T11:47:39.822Z</time></trkpt><trkpt lat="41.8965183" lon="-7.979785"><ele>1010.0</ele><time>2026-04-04T11:47:48.823Z</time></trkpt><trkpt lat="41.8965283" lon="-7.9796883"><ele>1010.0</ele><time>2026-04-04T11:47:50.824Z</time></trkpt><trkpt lat="41.89652" lon="-7.9795733"><ele>1010.0000000000001</ele><time>2026-04-04T11:47:53.824Z</time></trkpt><trkpt lat="41.896485" lon="-7.979465"><ele>1010.0</ele><time>2026-04-04T11:47:57.823Z</time></trkpt><trkpt lat="41.8964733" lon="-7.9793767"><ele>1010.0000000000001</ele><time>2026-04-04T11:48:00.822Z</time></trkpt><trkpt lat="41.8964483" lon="-7.9792833"><ele>1010.0</ele><time>2026-04-04T11:48:03.822Z</time></trkpt><trkpt lat="41.8964" lon="-7.9792"><ele>1010.0</ele><time>2026-04-04T11:48:05.823Z</time></trkpt><trkpt lat="41.8963167" lon="-7.9791117"><ele>1010.0</ele><time>2026-04-04T11:48:07.824Z</time></trkpt><trkpt lat="41.8962567" lon="-7.9790583"><ele>1010.0000000000001</ele><time>2026-04-04T11:48:08.823Z</time></trkpt><trkpt lat="41.89619" lon="-7.979005"><ele>1010.0</ele><time>2026-04-04T11:48:09.822Z</time></trkpt><trkpt lat="41.8961183" lon="-7.978945"><ele>1010.3333333333334</ele><time>2026-04-04T11:48:10.823Z</time></trkpt><trkpt lat="41.896035" lon="-7.97888"><ele>1010.6666666666667</ele><time>2026-04-04T11:48:11.823Z</time></trkpt><trkpt lat="41.8959467" lon="-7.97882"><ele>1011.0</ele><time>2026-04-04T11:48:12.822Z</time></trkpt><trkpt lat="41.8958667" lon="-7.9787767"><ele>1011.3333333333333</ele><time>2026-04-04T11:48:13.823Z</time></trkpt><trkpt lat="41.8957883" lon="-7.9787517"><ele>1011.6666666666666</ele><time>2026-04-04T11:48:14.823Z</time></trkpt><trkpt lat="41.8957133" lon="-7.9787433"><ele>1012.0</ele><time>2026-04-04T11:48:15.822Z</time></trkpt><trkpt lat="41.8956433" lon="-7.978765"><ele>1011.9999999999999</ele><time>2026-04-04T11:48:16.822Z</time></trkpt><trkpt lat="41.895585" lon="-7.9788367"><ele>1012.0</ele><time>2026-04-04T11:48:17.823Z</time></trkpt><trkpt lat="41.8955417" lon="-7.9789083"><ele>1012.0</ele><time>2026-04-04T11:48:18.823Z</time></trkpt><trkpt lat="41.89553" lon="-7.9790117"><ele>1012.0</ele><time>2026-04-04T11:48:19.824Z</time></trkpt><trkpt lat="41.8954983" lon="-7.97909"><ele>1011.9999999999999</ele><time>2026-04-04T11:48:20.823Z</time></trkpt><trkpt lat="41.8954583" lon="-7.9791567"><ele>1012.0</ele><time>2026-04-04T11:48:21.823Z</time></trkpt><trkpt lat="41.89537" lon="-7.97925"><ele>1011.9999999999999</ele><time>2026-04-04T11:48:23.824Z</time></trkpt><trkpt lat="41.8953083" lon="-7.9792967"><ele>1012.0</ele><time>2026-04-04T11:48:25.823Z</time></trkpt><trkpt lat="41.8952817" lon="-7.979205"><ele>1012.0</ele><time>2026-04-04T11:48:31.823Z</time></trkpt><trkpt lat="41.895275" lon="-7.9790983"><ele>1012.0</ele><time>2026-04-04T11:48:33.824Z</time></trkpt><trkpt lat="41.8952783" lon="-7.978965"><ele>1011.9999999999999</ele><time>2026-04-04T11:48:35.823Z</time></trkpt><trkpt lat="41.895275" lon="-7.978815"><ele>1012.0</ele><time>2026-04-04T11:48:37.823Z</time></trkpt><trkpt lat="41.89526" lon="-7.97865"><ele>1012.0</ele><time>2026-04-04T11:48:39.823Z</time></trkpt><trkpt lat="41.8952433" lon="-7.978565"><ele>1012.0</ele><time>2026-04-04T11:48:40.822Z</time></trkpt><trkpt lat="41.8952333" lon="-7.9784017"><ele>1012.0</ele><time>2026-04-04T11:48:42.826Z</time></trkpt><trkpt lat="41.89525" lon="-7.978255"><ele>1012.0</ele><time>2026-04-04T11:48:44.823Z</time></trkpt><trkpt lat="41.895285" lon="-7.9781033"><ele>1012.0</ele><time>2026-04-04T11:48:46.824Z</time></trkpt><trkpt lat="41.8953767" lon="-7.9780083"><ele>1013.8333333333333</ele><time>2026-04-04T11:48:48.824Z</time></trkpt><trkpt lat="41.895475" lon="-7.9779267"><ele>1015.6666666666666</ele><time>2026-04-04T11:48:50.823Z</time></trkpt><trkpt lat="41.8955233" lon="-7.9778333"><ele>1017.5</ele><time>2026-04-04T11:48:52.824Z</time></trkpt><trkpt lat="41.8954767" lon="-7.97775"><ele>1019.3333333333333</ele><time>2026-04-04T11:48:55.823Z</time></trkpt><trkpt lat="41.8953767" lon="-7.9777333"><ele>1021.1666666666666</ele><time>2026-04-04T11:48:57.822Z</time></trkpt><trkpt lat="41.8953117" lon="-7.977735"><ele>1023.0</ele><time>2026-04-04T11:48:58.823Z</time></trkpt><trkpt lat="41.89524" lon="-7.977755"><ele>1023.0</ele><time>2026-04-04T11:48:59.824Z</time></trkpt><trkpt lat="41.8951733" lon="-7.9777883"><ele>1023.0</ele><time>2026-04-04T11:49:00.823Z</time></trkpt><trkpt lat="41.895105" lon="-7.9778117"><ele>1023.0</ele><time>2026-04-04T11:49:01.823Z</time></trkpt><trkpt lat="41.8950367" lon="-7.9778217"><ele>1023.0</ele><time>2026-04-04T11:49:02.823Z</time></trkpt><trkpt lat="41.89497" lon="-7.97781"><ele>1023.0</ele><time>2026-04-04T11:49:03.824Z</time></trkpt><trkpt lat="41.89491" lon="-7.9777683"><ele>1023.0</ele><time>2026-04-04T11:49:04.824Z</time></trkpt><trkpt lat="41.89485" lon="-7.9777"><ele>1023.0</ele><time>2026-04-04T11:49:05.823Z</time></trkpt><trkpt lat="41.89481" lon="-7.9776117"><ele>1025.3333333333333</ele><time>2026-04-04T11:49:06.823Z</time></trkpt><trkpt lat="41.8947683" lon="-7.9775283"><ele>1027.6666666666667</ele><time>2026-04-04T11:49:07.824Z</time></trkpt><trkpt lat="41.8947283" lon="-7.9774383"><ele>1030.0</ele><time>2026-04-04T11:49:09.824Z</time></trkpt><trkpt lat="41.89465" lon="-7.9774033"><ele>1032.3333333333335</ele><time>2026-04-04T11:49:25.824Z</time></trkpt><trkpt lat="41.8945717" lon="-7.977395"><ele>1034.6666666666667</ele><time>2026-04-04T11:49:27.825Z</time></trkpt><trkpt lat="41.894495" lon="-7.97741"><ele>1037.0</ele><time>2026-04-04T11:49:29.825Z</time></trkpt><trkpt lat="41.8944033" lon="-7.9774167"><ele>1039.5</ele><time>2026-04-04T11:49:31.826Z</time></trkpt><trkpt lat="41.894315" lon="-7.9774217"><ele>1042.0</ele><time>2026-04-04T11:49:33.824Z</time></trkpt><trkpt lat="41.8942433" lon="-7.9774217"><ele>1044.5</ele><time>2026-04-04T11:49:35.825Z</time></trkpt><trkpt lat="41.89416" lon="-7.977425"><ele>1047.0</ele><time>2026-04-04T11:49:38.826Z</time></trkpt><trkpt lat="41.8940733" lon="-7.977435"><ele>1049.5</ele><time>2026-04-04T11:50:06.823Z</time></trkpt><trkpt lat="41.894005" lon="-7.9774317"><ele>1052.0</ele><time>2026-04-04T11:50:08.823Z</time></trkpt><trkpt lat="41.893915" lon="-7.977445"><ele>1053.0</ele><time>2026-04-04T11:50:11.823Z</time></trkpt><trkpt lat="41.8938417" lon="-7.9774517"><ele>1054.0</ele><time>2026-04-04T11:50:13.823Z</time></trkpt><trkpt lat="41.8937733" lon="-7.977475"><ele>1055.0</ele><time>2026-04-04T11:50:15.823Z</time></trkpt><trkpt lat="41.89371" lon="-7.9774933"><ele>1056.0</ele><time>2026-04-04T11:50:17.824Z</time></trkpt><trkpt lat="41.89364" lon="-7.977505"><ele>1057.0</ele><time>2026-04-04T11:50:19.827Z</time></trkpt><trkpt lat="41.8935517" lon="-7.9775033"><ele>1058.0</ele><time>2026-04-04T11:50:22.823Z</time></trkpt><trkpt lat="41.89347" lon="-7.9775283"><ele>1058.5</ele><time>2026-04-04T11:50:25.825Z</time></trkpt><trkpt lat="41.893395" lon="-7.9775683"><ele>1059.0</ele><time>2026-04-04T11:50:29.823Z</time></trkpt><trkpt lat="41.8933333" lon="-7.9775867"><ele>1059.5</ele><time>2026-04-04T11:50:31.823Z</time></trkpt><trkpt lat="41.89326" lon="-7.977585"><ele>1060.0</ele><time>2026-04-04T11:50:34.824Z</time></trkpt><trkpt lat="41.8931817" lon="-7.9775817"><ele>1060.5</ele><time>2026-04-04T11:50:37.823Z</time></trkpt><trkpt lat="41.893115" lon="-7.977615"><ele>1061.0</ele><time>2026-04-04T11:50:41.823Z</time></trkpt><trkpt lat="41.893015" lon="-7.97759"><ele>1061.0</ele><time>2026-04-04T11:53:09.822Z</time></trkpt><trkpt lat="41.89294" lon="-7.9776083"><ele>1061.0</ele><time>2026-04-04T11:53:30.823Z</time></trkpt><trkpt lat="41.8928567" lon="-7.9775967"><ele>1061.0</ele><time>2026-04-04T11:53:33.823Z</time></trkpt><trkpt lat="41.89279" lon="-7.9775433"><ele>1061.0</ele><time>2026-04-04T11:53:36.823Z</time></trkpt><trkpt lat="41.8926983" lon="-7.9775583"><ele>1061.0</ele><time>2026-04-04T11:53:39.822Z</time></trkpt><trkpt lat="41.892625" lon="-7.97761"><ele>1061.0</ele><time>2026-04-04T11:53:42.822Z</time></trkpt><trkpt lat="41.8925533" lon="-7.9776167"><ele>1064.8333333333335</ele><time>2026-04-04T11:54:15.822Z</time></trkpt><trkpt lat="41.8924667" lon="-7.97757"><ele>1068.6666666666667</ele><time>2026-04-04T11:54:18.823Z</time></trkpt><trkpt lat="41.8923667" lon="-7.9775717"><ele>1072.5</ele><time>2026-04-04T11:54:21.822Z</time></trkpt><trkpt lat="41.8922967" lon="-7.977565"><ele>1076.3333333333333</ele><time>2026-04-04T11:54:23.823Z</time></trkpt><trkpt lat="41.8922" lon="-7.977585"><ele>1080.1666666666665</ele><time>2026-04-04T11:54:26.824Z</time></trkpt><trkpt lat="41.892135" lon="-7.977615"><ele>1084.0</ele><time>2026-04-04T11:54:28.823Z</time></trkpt><trkpt lat="41.8920617" lon="-7.9776433"><ele>1084.0</ele><time>2026-04-04T11:54:30.823Z</time></trkpt><trkpt lat="41.8919933" lon="-7.9776667"><ele>1084.0</ele><time>2026-04-04T11:54:32.823Z</time></trkpt><trkpt lat="41.8919267" lon="-7.9776667"><ele>1084.0</ele><time>2026-04-04T11:54:34.824Z</time></trkpt><trkpt lat="41.89185" lon="-7.9776583"><ele>1084.0</ele><time>2026-04-04T11:54:36.826Z</time></trkpt><trkpt lat="41.8917683" lon="-7.9776367"><ele>1084.0</ele><time>2026-04-04T11:54:38.823Z</time></trkpt><trkpt lat="41.8917017" lon="-7.9776383"><ele>1084.0</ele><time>2026-04-04T11:54:40.823Z</time></trkpt><trkpt lat="41.891645" lon="-7.9775983"><ele>1084.0</ele><time>2026-04-04T11:55:48.824Z</time></trkpt><trkpt lat="41.89158" lon="-7.9775433"><ele>1085.8333333333333</ele><time>2026-04-04T11:55:51.822Z</time></trkpt><trkpt lat="41.8915183" lon="-7.9774967"><ele>1087.6666666666665</ele><time>2026-04-04T11:55:53.824Z</time></trkpt><trkpt lat="41.891435" lon="-7.9774683"><ele>1089.5</ele><time>2026-04-04T11:55:55.822Z</time></trkpt><trkpt lat="41.8913567" lon="-7.97742"><ele>1091.3333333333333</ele><time>2026-04-04T11:55:57.822Z</time></trkpt><trkpt lat="41.8912733" lon="-7.977365"><ele>1093.1666666666667</ele><time>2026-04-04T11:55:59.822Z</time></trkpt><trkpt lat="41.89118" lon="-7.977295"><ele>1095.0</ele><time>2026-04-04T11:56:01.822Z</time></trkpt><trkpt lat="41.8911217" lon="-7.9772033"><ele>1095.0</ele><time>2026-04-04T11:56:03.822Z</time></trkpt><trkpt lat="41.8910533" lon="-7.9771383"><ele>1095.0</ele><time>2026-04-04T11:56:05.822Z</time></trkpt><trkpt lat="41.890955" lon="-7.9771217"><ele>1095.0</ele><time>2026-04-04T11:56:07.824Z</time></trkpt><trkpt lat="41.89089" lon="-7.9771133"><ele>1095.0</ele><time>2026-04-04T11:56:08.823Z</time></trkpt><trkpt lat="41.8907817" lon="-7.9770767"><ele>1095.0</ele><time>2026-04-04T11:56:10.823Z</time></trkpt><trkpt lat="41.8906933" lon="-7.97702"><ele>1095.1666666666667</ele><time>2026-04-04T11:56:12.822Z</time></trkpt><trkpt lat="41.8906133" lon="-7.97696"><ele>1095.3333333333333</ele><time>2026-04-04T11:56:14.823Z</time></trkpt><trkpt lat="41.8905433" lon="-7.9768883"><ele>1095.5</ele><time>2026-04-04T11:56:16.822Z</time></trkpt><trkpt lat="41.8904683" lon="-7.976855"><ele>1095.6666666666665</ele><time>2026-04-04T11:56:18.823Z</time></trkpt><trkpt lat="41.8903967" lon="-7.9768217"><ele>1095.8333333333333</ele><time>2026-04-04T11:56:20.823Z</time></trkpt><trkpt lat="41.8903267" lon="-7.9767733"><ele>1096.0</ele><time>2026-04-04T11:56:22.824Z</time></trkpt><trkpt lat="41.8902367" lon="-7.9767183"><ele>1098.0</ele><time>2026-04-04T11:56:24.822Z</time></trkpt><trkpt lat="41.8901933" lon="-7.976645"><ele>1100.0</ele><time>2026-04-04T11:56:26.823Z</time></trkpt><trkpt lat="41.8901867" lon="-7.9765533"><ele>1102.0</ele><time>2026-04-04T11:56:28.822Z</time></trkpt><trkpt lat="41.8902033" lon="-7.9764483"><ele>1104.0</ele><time>2026-04-04T11:56:30.822Z</time></trkpt><trkpt lat="41.8902317" lon="-7.9763417"><ele>1106.0</ele><time>2026-04-04T11:56:32.823Z</time></trkpt><trkpt lat="41.8902717" lon="-7.97624"><ele>1108.0</ele><time>2026-04-04T11:56:34.823Z</time></trkpt><trkpt lat="41.8902867" lon="-7.97613"><ele>1108.0</ele><time>2026-04-04T11:56:36.822Z</time></trkpt><trkpt lat="41.8902817" lon="-7.9760183"><ele>1108.0</ele><time>2026-04-04T11:56:38.822Z</time></trkpt><trkpt lat="41.8902583" lon="-7.9758917"><ele>1108.0</ele><time>2026-04-04T11:56:40.822Z</time></trkpt><trkpt lat="41.8902317" lon="-7.9757683"><ele>1108.0</ele><time>2026-04-04T11:56:42.822Z</time></trkpt><trkpt lat="41.8902033" lon="-7.9756917"><ele>1108.0</ele><time>2026-04-04T11:56:44.825Z</time></trkpt><trkpt lat="41.890195" lon="-7.9755567"><ele>1108.0</ele><time>2026-04-04T11:56:47.822Z</time></trkpt><trkpt lat="41.8901933" lon="-7.9754467"><ele>1110.0</ele><time>2026-04-04T11:56:49.822Z</time></trkpt><trkpt lat="41.8901917" lon="-7.9753"><ele>1112.0</ele><time>2026-04-04T11:56:51.822Z</time></trkpt><trkpt lat="41.8901867" lon="-7.975215"><ele>1114.0</ele><time>2026-04-04T11:56:52.822Z</time></trkpt><trkpt lat="41.8901667" lon="-7.9750533"><ele>1116.0</ele><time>2026-04-04T11:56:54.822Z</time></trkpt><trkpt lat="41.89014" lon="-7.9749"><ele>1118.0</ele><time>2026-04-04T11:56:56.823Z</time></trkpt><trkpt lat="41.8901033" lon="-7.9747517"><ele>1117.8333333333335</ele><time>2026-04-04T11:56:58.822Z</time></trkpt><trkpt lat="41.8900917" lon="-7.9745883"><ele>1117.6666666666667</ele><time>2026-04-04T11:57:00.823Z</time></trkpt><trkpt lat="41.8900933" lon="-7.9744933"><ele>1117.5</ele><time>2026-04-04T11:57:01.823Z</time></trkpt><trkpt lat="41.8900917" lon="-7.9744"><ele>1117.3333333333333</ele><time>2026-04-04T11:57:02.824Z</time></trkpt><trkpt lat="41.8900867" lon="-7.9743133"><ele>1117.1666666666665</ele><time>2026-04-04T11:57:03.822Z</time></trkpt><trkpt lat="41.8900883" lon="-7.974165"><ele>1117.0</ele><time>2026-04-04T11:57:05.822Z</time></trkpt><trkpt lat="41.89009" lon="-7.9740633"><ele>1117.0</ele><time>2026-04-04T11:57:07.824Z</time></trkpt><trkpt lat="41.890145" lon="-7.9740033"><ele>1117.0</ele><time>2026-04-04T11:58:23.823Z</time></trkpt><trkpt lat="41.8901267" lon="-7.9739017"><ele>1117.0</ele><time>2026-04-04T11:58:26.824Z</time></trkpt><trkpt lat="41.8900867" lon="-7.9738033"><ele>1117.0</ele><time>2026-04-04T11:58:28.823Z</time></trkpt><trkpt lat="41.890025" lon="-7.973725"><ele>1117.0</ele><time>2026-04-04T11:58:30.823Z</time></trkpt><trkpt lat="41.8899517" lon="-7.9736633"><ele>1117.0</ele><time>2026-04-04T11:58:32.825Z</time></trkpt><trkpt lat="41.889855" lon="-7.9736017"><ele>1117.0</ele><time>2026-04-04T11:58:34.823Z</time></trkpt><trkpt lat="41.8897583" lon="-7.9735467"><ele>1117.0</ele><time>2026-04-04T11:58:36.824Z</time></trkpt><trkpt lat="41.8896683" lon="-7.9735"><ele>1117.0</ele><time>2026-04-04T11:58:38.824Z</time></trkpt><trkpt lat="41.8895883" lon="-7.97345"><ele>1117.0</ele><time>2026-04-04T11:58:40.824Z</time></trkpt><trkpt lat="41.8895267" lon="-7.973365"><ele>1117.0</ele><time>2026-04-04T11:58:42.823Z</time></trkpt><trkpt lat="41.88947" lon="-7.9732717"><ele>1118.1666666666665</ele><time>2026-04-04T11:58:44.822Z</time></trkpt><trkpt lat="41.8894217" lon="-7.973145"><ele>1119.3333333333333</ele><time>2026-04-04T11:58:46.824Z</time></trkpt><trkpt lat="41.8894033" lon="-7.97306"><ele>1120.5</ele><time>2026-04-04T11:58:47.822Z</time></trkpt><trkpt lat="41.889395" lon="-7.97297"><ele>1121.6666666666667</ele><time>2026-04-04T11:58:48.822Z</time></trkpt><trkpt lat="41.889405" lon="-7.972865"><ele>1122.8333333333335</ele><time>2026-04-04T11:58:49.823Z</time></trkpt><trkpt lat="41.889415" lon="-7.9727083"><ele>1124.0</ele><time>2026-04-04T11:58:51.822Z</time></trkpt><trkpt lat="41.88939" lon="-7.97256"><ele>1124.1666666666667</ele><time>2026-04-04T11:58:53.823Z</time></trkpt><trkpt lat="41.889355" lon="-7.9724783"><ele>1124.3333333333335</ele><time>2026-04-04T11:58:54.823Z</time></trkpt><trkpt lat="41.8893133" lon="-7.972395"><ele>1124.5</ele><time>2026-04-04T11:58:55.822Z</time></trkpt><trkpt lat="41.889265" lon="-7.9722983"><ele>1124.6666666666667</ele><time>2026-04-04T11:58:56.823Z</time></trkpt><trkpt lat="41.88922" lon="-7.9721917"><ele>1124.8333333333333</ele><time>2026-04-04T11:58:57.822Z</time></trkpt><trkpt lat="41.889175" lon="-7.9720867"><ele>1125.0</ele><time>2026-04-04T11:58:58.823Z</time></trkpt><trkpt lat="41.8891433" lon="-7.9719917"><ele>1125.0</ele><time>2026-04-04T11:58:59.822Z</time></trkpt><trkpt lat="41.8891283" lon="-7.9719083"><ele>1125.0</ele><time>2026-04-04T11:59:00.822Z</time></trkpt><trkpt lat="41.8891483" lon="-7.9717317"><ele>1125.0</ele><time>2026-04-04T11:59:02.823Z</time></trkpt><trkpt lat="41.889205" lon="-7.9716517"><ele>1125.0</ele><time>2026-04-04T11:59:03.824Z</time></trkpt><trkpt lat="41.88927" lon="-7.97154"><ele>1125.0</ele><time>2026-04-04T11:59:05.823Z</time></trkpt><trkpt lat="41.8893267" lon="-7.9714683"><ele>1125.857142857143</ele><time>2026-04-04T11:59:08.823Z</time></trkpt><trkpt lat="41.8893383" lon="-7.971555"><ele>1126.7142857142858</ele><time>2026-04-04T11:59:13.822Z</time></trkpt><trkpt lat="41.889285" lon="-7.9716167"><ele>1127.5714285714287</ele><time>2026-04-04T11:59:16.822Z</time></trkpt><trkpt lat="41.889235" lon="-7.9715217"><ele>1128.4285714285716</ele><time>2026-04-04T11:59:18.975Z</time></trkpt><trkpt lat="41.8892333" lon="-7.97161"><ele>1129.2857142857142</ele><time>2026-04-04T11:59:23.828Z</time></trkpt><trkpt lat="41.88918" lon="-7.9715517"><ele>1130.1428571428573</ele><time>2026-04-04T11:59:34.823Z</time></trkpt><trkpt lat="41.88912" lon="-7.97148"><ele>1131.0</ele><time>2026-04-04T11:59:37.825Z</time></trkpt><trkpt lat="41.8890333" lon="-7.9714817"><ele>1131.0</ele><time>2026-04-04T11:59:40.823Z</time></trkpt><trkpt lat="41.88897" lon="-7.9715217"><ele>1131.0</ele><time>2026-04-04T11:59:42.822Z</time></trkpt><trkpt lat="41.8889067" lon="-7.9715383"><ele>1131.0</ele><time>2026-04-04T11:59:44.824Z</time></trkpt><trkpt lat="41.8888433" lon="-7.9714883"><ele>1131.0</ele><time>2026-04-04T11:59:47.823Z</time></trkpt><trkpt lat="41.888765" lon="-7.971425"><ele>1131.0</ele><time>2026-04-04T11:59:50.823Z</time></trkpt><trkpt lat="41.888685" lon="-7.9713533"><ele>1131.0</ele><time>2026-04-04T12:01:41.822Z</time></trkpt><trkpt lat="41.8886067" lon="-7.97129"><ele>1131.0</ele><time>2026-04-04T12:02:05.824Z</time></trkpt><trkpt lat="41.8885383" lon="-7.9712"><ele>1131.0</ele><time>2026-04-04T12:02:08.825Z</time></trkpt><trkpt lat="41.8884767" lon="-7.9711"><ele>1131.0</ele><time>2026-04-04T12:02:11.823Z</time></trkpt><trkpt lat="41.8884283" lon="-7.9710433"><ele>1131.0</ele><time>2026-04-04T12:02:13.824Z</time></trkpt><trkpt lat="41.8883783" lon="-7.9709583"><ele>1131.0</ele><time>2026-04-04T12:02:16.823Z</time></trkpt><trkpt lat="41.8883417" lon="-7.9708733"><ele>1131.0</ele><time>2026-04-04T12:02:19.823Z</time></trkpt><trkpt lat="41.8883" lon="-7.9707633"><ele>1134.0</ele><time>2026-04-04T12:02:22.824Z</time></trkpt><trkpt lat="41.88827" lon="-7.97066"><ele>1137.0</ele><time>2026-04-04T12:02:24.824Z</time></trkpt><trkpt lat="41.8882283" lon="-7.97057"><ele>1140.0</ele><time>2026-04-04T12:02:26.824Z</time></trkpt><trkpt lat="41.8881517" lon="-7.9705133"><ele>1143.0</ele><time>2026-04-04T12:02:28.823Z</time></trkpt><trkpt lat="41.8880433" lon="-7.970485"><ele>1146.0</ele><time>2026-04-04T12:02:30.825Z</time></trkpt><trkpt lat="41.8879767" lon="-7.970475"><ele>1149.0</ele><time>2026-04-04T12:02:31.824Z</time></trkpt><trkpt lat="41.8878567" lon="-7.9704633"><ele>1149.0</ele><time>2026-04-04T12:02:33.825Z</time></trkpt><trkpt lat="41.887755" lon="-7.9705"><ele>1149.0</ele><time>2026-04-04T12:02:35.824Z</time></trkpt><trkpt lat="41.8876717" lon="-7.9705617"><ele>1149.0</ele><time>2026-04-04T12:02:37.824Z</time></trkpt><trkpt lat="41.8876017" lon="-7.9705933"><ele>1149.0</ele><time>2026-04-04T12:02:39.824Z</time></trkpt><trkpt lat="41.8875283" lon="-7.970565"><ele>1149.0</ele><time>2026-04-04T12:02:41.824Z</time></trkpt><trkpt lat="41.8874517" lon="-7.9705067"><ele>1149.0</ele><time>2026-04-04T12:02:43.826Z</time></trkpt><trkpt lat="41.8873917" lon="-7.9704233"><ele>1150.2</ele><time>2026-04-04T12:02:45.826Z</time></trkpt><trkpt lat="41.8873233" lon="-7.9703417"><ele>1151.4</ele><time>2026-04-04T12:02:47.824Z</time></trkpt><trkpt lat="41.887225" lon="-7.970275"><ele>1152.6</ele><time>2026-04-04T12:02:49.824Z</time></trkpt><trkpt lat="41.8871433" lon="-7.9701967"><ele>1153.8</ele><time>2026-04-04T12:02:51.824Z</time></trkpt><trkpt lat="41.8870567" lon="-7.9701367"><ele>1155.0</ele><time>2026-04-04T12:02:53.824Z</time></trkpt><trkpt lat="41.8869467" lon="-7.97008"><ele>1155.0</ele><time>2026-04-04T12:02:55.824Z</time></trkpt><trkpt lat="41.8868917" lon="-7.9700333"><ele>1155.0</ele><time>2026-04-04T12:02:56.824Z</time></trkpt><trkpt lat="41.8868367" lon="-7.9699783"><ele>1155.0</ele><time>2026-04-04T12:02:57.826Z</time></trkpt><trkpt lat="41.8867467" lon="-7.96987"><ele>1155.0</ele><time>2026-04-04T12:02:59.824Z</time></trkpt><trkpt lat="41.8866617" lon="-7.9697683"><ele>1155.0</ele><time>2026-04-04T12:03:01.825Z</time></trkpt><trkpt lat="41.886535" lon="-7.9697167"><ele>1156.1666666666667</ele><time>2026-04-04T12:03:03.823Z</time></trkpt><trkpt lat="41.8864683" lon="-7.969695"><ele>1157.3333333333333</ele><time>2026-04-04T12:03:04.824Z</time></trkpt><trkpt lat="41.88635" lon="-7.969635"><ele>1158.5</ele><time>2026-04-04T12:03:06.824Z</time></trkpt><trkpt lat="41.886295" lon="-7.9695817"><ele>1159.6666666666665</ele><time>2026-04-04T12:03:07.824Z</time></trkpt><trkpt lat="41.8862433" lon="-7.9695283"><ele>1160.8333333333333</ele><time>2026-04-04T12:03:08.825Z</time></trkpt><trkpt lat="41.886195" lon="-7.9694667"><ele>1162.0</ele><time>2026-04-04T12:03:09.824Z</time></trkpt><trkpt lat="41.8861217" lon="-7.9693667"><ele>1162.0</ele><time>2026-04-04T12:03:11.825Z</time></trkpt><trkpt lat="41.8860617" lon="-7.9693083"><ele>1162.0</ele><time>2026-04-04T12:03:14.825Z</time></trkpt><trkpt lat="41.8860067" lon="-7.9692467"><ele>1162.0</ele><time>2026-04-04T12:03:17.824Z</time></trkpt><trkpt lat="41.885945" lon="-7.9691883"><ele>1162.0</ele><time>2026-04-04T12:03:22.824Z</time></trkpt><trkpt lat="41.8858983" lon="-7.9691283"><ele>1162.0</ele><time>2026-04-04T12:03:31.824Z</time></trkpt><trkpt lat="41.885845" lon="-7.969065"><ele>1162.0</ele><time>2026-04-04T12:03:34.827Z</time></trkpt><trkpt lat="41.8857717" lon="-7.9690217"><ele>1162.0</ele><time>2026-04-04T12:03:37.824Z</time></trkpt><trkpt lat="41.8857167" lon="-7.96898"><ele>1161.5</ele><time>2026-04-04T12:03:39.824Z</time></trkpt><trkpt lat="41.885655" lon="-7.9688883"><ele>1161.0</ele><time>2026-04-04T12:03:41.824Z</time></trkpt><trkpt lat="41.8856" lon="-7.9687867"><ele>1160.5</ele><time>2026-04-04T12:03:43.826Z</time></trkpt><trkpt lat="41.8855517" lon="-7.9686967"><ele>1160.0</ele><time>2026-04-04T12:03:45.824Z</time></trkpt><trkpt lat="41.88551" lon="-7.9686083"><ele>1159.5</ele><time>2026-04-04T12:03:47.825Z</time></trkpt><trkpt lat="41.88548" lon="-7.96849"><ele>1159.0</ele><time>2026-04-04T12:03:49.824Z</time></trkpt><trkpt lat="41.8854383" lon="-7.9683717"><ele>1158.0</ele><time>2026-04-04T12:03:51.825Z</time></trkpt><trkpt lat="41.8853783" lon="-7.968245"><ele>1157.0</ele><time>2026-04-04T12:03:53.824Z</time></trkpt><trkpt lat="41.8853467" lon="-7.9681633"><ele>1156.0</ele><time>2026-04-04T12:03:54.825Z</time></trkpt><trkpt lat="41.8853183" lon="-7.9680833"><ele>1155.0</ele><time>2026-04-04T12:03:55.824Z</time></trkpt><trkpt lat="41.8852683" lon="-7.9679583"><ele>1154.0</ele><time>2026-04-04T12:03:57.824Z</time></trkpt><trkpt lat="41.885225" lon="-7.9678683"><ele>1153.0</ele><time>2026-04-04T12:03:59.824Z</time></trkpt><trkpt lat="41.8851767" lon="-7.9677833"><ele>1153.0</ele><time>2026-04-04T12:04:02.825Z</time></trkpt><trkpt lat="41.88511" lon="-7.9677217"><ele>1153.0</ele><time>2026-04-04T12:04:27.825Z</time></trkpt><trkpt lat="41.88505" lon="-7.9676533"><ele>1153.0</ele><time>2026-04-04T12:04:30.824Z</time></trkpt><trkpt lat="41.8849817" lon="-7.967575"><ele>1153.0</ele><time>2026-04-04T12:04:33.825Z</time></trkpt><trkpt lat="41.8849267" lon="-7.9674917"><ele>1153.0</ele><time>2026-04-04T12:04:36.823Z</time></trkpt><trkpt lat="41.88487" lon="-7.9674"><ele>1153.0</ele><time>2026-04-04T12:04:39.823Z</time></trkpt><trkpt lat="41.8847983" lon="-7.967345"><ele>1153.1666666666665</ele><time>2026-04-04T12:04:42.824Z</time></trkpt><trkpt lat="41.8847117" lon="-7.96731"><ele>1153.3333333333333</ele><time>2026-04-04T12:04:45.823Z</time></trkpt><trkpt lat="41.8846217" lon="-7.9673017"><ele>1153.5</ele><time>2026-04-04T12:04:49.823Z</time></trkpt><trkpt lat="41.8845433" lon="-7.9672583"><ele>1153.6666666666667</ele><time>2026-04-04T12:04:53.823Z</time></trkpt><trkpt lat="41.8844767" lon="-7.96722"><ele>1153.8333333333335</ele><time>2026-04-04T12:04:55.823Z</time></trkpt><trkpt lat="41.8844233" lon="-7.9671667"><ele>1154.0</ele><time>2026-04-04T12:04:57.823Z</time></trkpt><trkpt lat="41.8844167" lon="-7.967055"><ele>1154.0</ele><time>2026-04-04T12:05:01.823Z</time></trkpt><trkpt lat="41.8844017" lon="-7.96697"><ele>1154.0</ele><time>2026-04-04T12:05:03.823Z</time></trkpt><trkpt lat="41.8843217" lon="-7.966895"><ele>1154.0</ele><time>2026-04-04T12:05:06.824Z</time></trkpt><trkpt lat="41.88426" lon="-7.966875"><ele>1154.0</ele><time>2026-04-04T12:05:08.823Z</time></trkpt><trkpt lat="41.8841917" lon="-7.9668483"><ele>1154.0</ele><time>2026-04-04T12:05:12.824Z</time></trkpt><trkpt lat="41.8841433" lon="-7.9667933"><ele>1154.0</ele><time>2026-04-04T12:05:16.825Z</time></trkpt><trkpt lat="41.8840683" lon="-7.9667617"><ele>1154.0</ele><time>2026-04-04T12:05:21.823Z</time></trkpt><trkpt lat="41.8839817" lon="-7.96676"><ele>1154.8333333333335</ele><time>2026-04-04T12:05:24.823Z</time></trkpt><trkpt lat="41.8838983" lon="-7.9668017"><ele>1155.6666666666667</ele><time>2026-04-04T12:05:27.824Z</time></trkpt><trkpt lat="41.883835" lon="-7.9668367"><ele>1156.5</ele><time>2026-04-04T12:05:30.823Z</time></trkpt><trkpt lat="41.8839017" lon="-7.96679"><ele>1157.3333333333333</ele><time>2026-04-04T12:10:52.826Z</time></trkpt><trkpt lat="41.88397" lon="-7.96676"><ele>1158.1666666666665</ele><time>2026-04-04T12:10:54.823Z</time></trkpt><trkpt lat="41.884055" lon="-7.9667433"><ele>1159.0</ele><time>2026-04-04T12:10:57.823Z</time></trkpt><trkpt lat="41.88412" lon="-7.9667467"><ele>1159.0</ele><time>2026-04-04T12:10:59.823Z</time></trkpt><trkpt lat="41.8841867" lon="-7.9668033"><ele>1159.0</ele><time>2026-04-04T12:11:02.823Z</time></trkpt><trkpt lat="41.88426" lon="-7.9668667"><ele>1159.0</ele><time>2026-04-04T12:11:05.822Z</time></trkpt><trkpt lat="41.8843367" lon="-7.966875"><ele>1159.0</ele><time>2026-04-04T12:11:07.822Z</time></trkpt><trkpt lat="41.8843933" lon="-7.966915"><ele>1159.0</ele><time>2026-04-04T12:11:09.824Z</time></trkpt><trkpt lat="41.88442" lon="-7.9669967"><ele>1159.0</ele><time>2026-04-04T12:11:11.823Z</time></trkpt><trkpt lat="41.8844317" lon="-7.9671017"><ele>1158.2857142857144</ele><time>2026-04-04T12:11:13.823Z</time></trkpt><trkpt lat="41.88447" lon="-7.9672033"><ele>1157.5714285714287</ele><time>2026-04-04T12:11:16.824Z</time></trkpt><trkpt lat="41.8845333" lon="-7.96725"><ele>1156.857142857143</ele><time>2026-04-04T12:11:18.824Z</time></trkpt><trkpt lat="41.8845933" lon="-7.967285"><ele>1156.1428571428573</ele><time>2026-04-04T12:11:21.825Z</time></trkpt><trkpt lat="41.8846583" lon="-7.96729"><ele>1155.4285714285716</ele><time>2026-04-04T12:11:23.825Z</time></trkpt><trkpt lat="41.884735" lon="-7.967325"><ele>1154.7142857142858</ele><time>2026-04-04T12:11:25.824Z</time></trkpt><trkpt lat="41.8847967" lon="-7.96736"><ele>1154.0</ele><time>2026-04-04T12:11:27.825Z</time></trkpt><trkpt lat="41.88489" lon="-7.9674333"><ele>1154.0</ele><time>2026-04-04T12:11:30.823Z</time></trkpt><trkpt lat="41.88497" lon="-7.9675167"><ele>1154.0</ele><time>2026-04-04T12:11:32.823Z</time></trkpt><trkpt lat="41.8850367" lon="-7.967595"><ele>1154.0</ele><time>2026-04-04T12:11:34.823Z</time></trkpt><trkpt lat="41.8851117" lon="-7.9676917"><ele>1154.0</ele><time>2026-04-04T12:11:36.824Z</time></trkpt><trkpt lat="41.8851767" lon="-7.9677967"><ele>1154.0</ele><time>2026-04-04T12:11:38.824Z</time></trkpt><trkpt lat="41.8852317" lon="-7.9678817"><ele>1153.8333333333335</ele><time>2026-04-04T12:11:40.823Z</time></trkpt><trkpt lat="41.885275" lon="-7.9679567"><ele>1153.6666666666667</ele><time>2026-04-04T12:11:42.824Z</time></trkpt><trkpt lat="41.885325" lon="-7.96808"><ele>1153.5</ele><time>2026-04-04T12:11:44.825Z</time></trkpt><trkpt lat="41.8853517" lon="-7.9681633"><ele>1153.3333333333333</ele><time>2026-04-04T12:11:45.824Z</time></trkpt><trkpt lat="41.8853967" lon="-7.9682683"><ele>1153.1666666666665</ele><time>2026-04-04T12:11:46.823Z</time></trkpt><trkpt lat="41.885435" lon="-7.9683567"><ele>1153.0</ele><time>2026-04-04T12:11:47.824Z</time></trkpt><trkpt lat="41.8854717" lon="-7.9684317"><ele>1154.2</ele><time>2026-04-04T12:11:48.825Z</time></trkpt><trkpt lat="41.8855167" lon="-7.9685667"><ele>1155.4</ele><time>2026-04-04T12:11:50.824Z</time></trkpt><trkpt lat="41.8855517" lon="-7.968675"><ele>1156.6000000000001</ele><time>2026-04-04T12:11:52.823Z</time></trkpt><trkpt lat="41.88562" lon="-7.9688083"><ele>1157.8</ele><time>2026-04-04T12:11:54.826Z</time></trkpt><trkpt lat="41.8856833" lon="-7.9689417"><ele>1159.0</ele><time>2026-04-04T12:11:56.824Z</time></trkpt><trkpt lat="41.8857533" lon="-7.9690367"><ele>1159.0</ele><time>2026-04-04T12:11:58.826Z</time></trkpt><trkpt lat="41.8858333" lon="-7.969085"><ele>1159.0</ele><time>2026-04-04T12:12:00.825Z</time></trkpt><trkpt lat="41.885905" lon="-7.9691467"><ele>1159.0</ele><time>2026-04-04T12:12:03.824Z</time></trkpt><trkpt lat="41.8859633" lon="-7.969185"><ele>1159.0</ele><time>2026-04-04T12:12:06.826Z</time></trkpt><trkpt lat="41.8860633" lon="-7.9692967"><ele>1159.0</ele><time>2026-04-04T12:12:15.823Z</time></trkpt><trkpt lat="41.8861483" lon="-7.9693767"><ele>1159.5</ele><time>2026-04-04T12:12:17.824Z</time></trkpt><trkpt lat="41.8862417" lon="-7.96948"><ele>1160.0</ele><time>2026-04-04T12:12:19.823Z</time></trkpt><trkpt lat="41.886305" lon="-7.9695417"><ele>1160.5</ele><time>2026-04-04T12:12:20.823Z</time></trkpt><trkpt lat="41.8863783" lon="-7.9696083"><ele>1161.0</ele><time>2026-04-04T12:12:21.824Z</time></trkpt><trkpt lat="41.88644" lon="-7.969665"><ele>1161.5</ele><time>2026-04-04T12:12:22.823Z</time></trkpt><trkpt lat="41.886505" lon="-7.9697083"><ele>1162.0</ele><time>2026-04-04T12:12:23.822Z</time></trkpt><trkpt lat="41.8866167" lon="-7.969735"><ele>1162.0</ele><time>2026-04-04T12:12:25.823Z</time></trkpt><trkpt lat="41.8867267" lon="-7.9697767"><ele>1162.0</ele><time>2026-04-04T12:12:27.825Z</time></trkpt><trkpt lat="41.8867817" lon="-7.9698417"><ele>1162.0</ele><time>2026-04-04T12:12:28.823Z</time></trkpt><trkpt lat="41.8868317" lon="-7.969925"><ele>1162.0</ele><time>2026-04-04T12:12:29.823Z</time></trkpt><trkpt lat="41.8868867" lon="-7.969995"><ele>1162.0</ele><time>2026-04-04T12:12:30.826Z</time></trkpt><trkpt lat="41.8869367" lon="-7.97005"><ele>1162.0</ele><time>2026-04-04T12:12:31.823Z</time></trkpt><trkpt lat="41.8870433" lon="-7.9701367"><ele>1160.6</ele><time>2026-04-04T12:12:33.823Z</time></trkpt><trkpt lat="41.887145" lon="-7.970195"><ele>1159.2</ele><time>2026-04-04T12:12:35.823Z</time></trkpt><trkpt lat="41.8872117" lon="-7.9702667"><ele>1157.8</ele><time>2026-04-04T12:12:37.823Z</time></trkpt><trkpt lat="41.8873017" lon="-7.970335"><ele>1156.4</ele><time>2026-04-04T12:12:39.823Z</time></trkpt><trkpt lat="41.8874" lon="-7.9704083"><ele>1155.0</ele><time>2026-04-04T12:12:41.823Z</time></trkpt><trkpt lat="41.887485" lon="-7.9704783"><ele>1155.0</ele><time>2026-04-04T12:12:43.823Z</time></trkpt><trkpt lat="41.8875483" lon="-7.9705583"><ele>1155.0</ele><time>2026-04-04T12:12:46.825Z</time></trkpt><trkpt lat="41.88762" lon="-7.9705967"><ele>1155.0</ele><time>2026-04-04T12:12:48.824Z</time></trkpt><trkpt lat="41.8876867" lon="-7.9706367"><ele>1155.0</ele><time>2026-04-04T12:12:50.823Z</time></trkpt><trkpt lat="41.8877483" lon="-7.9706017"><ele>1155.0</ele><time>2026-04-04T12:12:52.825Z</time></trkpt><trkpt lat="41.8878317" lon="-7.970545"><ele>1155.0</ele><time>2026-04-04T12:12:54.824Z</time></trkpt><trkpt lat="41.8879383" lon="-7.9704983"><ele>1154.0</ele><time>2026-04-04T12:12:56.824Z</time></trkpt><trkpt lat="41.8880017" lon="-7.9704917"><ele>1153.0</ele><time>2026-04-04T12:12:57.824Z</time></trkpt><trkpt lat="41.88807" lon="-7.970495"><ele>1152.0</ele><time>2026-04-04T12:12:58.823Z</time></trkpt><trkpt lat="41.8881767" lon="-7.9705233"><ele>1151.0</ele><time>2026-04-04T12:13:00.824Z</time></trkpt><trkpt lat="41.8882567" lon="-7.9705767"><ele>1150.0</ele><time>2026-04-04T12:13:02.825Z</time></trkpt><trkpt lat="41.888305" lon="-7.9706583"><ele>1149.0</ele><time>2026-04-04T12:13:04.823Z</time></trkpt><trkpt lat="41.8883367" lon="-7.9707567"><ele>1147.5714285714287</ele><time>2026-04-04T12:13:06.825Z</time></trkpt><trkpt lat="41.88836" lon="-7.9708583"><ele>1146.142857142857</ele><time>2026-04-04T12:13:08.823Z</time></trkpt><trkpt lat="41.8884033" lon="-7.9709483"><ele>1144.7142857142858</ele><time>2026-04-04T12:13:11.824Z</time></trkpt><trkpt lat="41.8884433" lon="-7.9710267"><ele>1143.2857142857142</ele><time>2026-04-04T12:13:15.823Z</time></trkpt><trkpt lat="41.8884917" lon="-7.9710983"><ele>1141.857142857143</ele><time>2026-04-04T12:13:18.824Z</time></trkpt><trkpt lat="41.8885333" lon="-7.971175"><ele>1140.4285714285716</ele><time>2026-04-04T12:13:22.822Z</time></trkpt><trkpt lat="41.8885833" lon="-7.9712433"><ele>1139.0</ele><time>2026-04-04T12:13:25.826Z</time></trkpt><trkpt lat="41.888635" lon="-7.9712983"><ele>1137.6666666666667</ele><time>2026-04-04T12:13:27.822Z</time></trkpt><trkpt lat="41.88871" lon="-7.9713517"><ele>1136.3333333333335</ele><time>2026-04-04T12:13:30.823Z</time></trkpt><trkpt lat="41.8887883" lon="-7.9713967"><ele>1135.0</ele><time>2026-04-04T12:13:33.822Z</time></trkpt><trkpt lat="41.8888483" lon="-7.9714433"><ele>1133.6666666666667</ele><time>2026-04-04T12:13:36.823Z</time></trkpt><trkpt lat="41.88892" lon="-7.9714883"><ele>1132.3333333333333</ele><time>2026-04-04T12:13:39.823Z</time></trkpt><trkpt lat="41.889" lon="-7.9715033"><ele>1131.0</ele><time>2026-04-04T12:13:42.823Z</time></trkpt><trkpt lat="41.889095" lon="-7.97147"><ele>1131.0</ele><time>2026-04-04T12:13:45.824Z</time></trkpt><trkpt lat="41.8891667" lon="-7.971475"><ele>1131.0</ele><time>2026-04-04T12:13:47.823Z</time></trkpt><trkpt lat="41.8892233" lon="-7.9715567"><ele>1131.0</ele><time>2026-04-04T12:13:50.824Z</time></trkpt><trkpt lat="41.8892767" lon="-7.9716217"><ele>1131.0</ele><time>2026-04-04T12:13:53.825Z</time></trkpt><trkpt lat="41.8893217" lon="-7.97155"><ele>1131.0</ele><time>2026-04-04T12:13:56.824Z</time></trkpt><trkpt lat="41.8893967" lon="-7.97148"><ele>1131.0</ele><time>2026-04-04T12:13:58.823Z</time></trkpt><trkpt lat="41.8894533" lon="-7.9714367"><ele>1132.0</ele><time>2026-04-04T12:13:59.824Z</time></trkpt><trkpt lat="41.88953" lon="-7.9713767"><ele>1133.0</ele><time>2026-04-04T12:14:00.824Z</time></trkpt><trkpt lat="41.8896067" lon="-7.9713083"><ele>1134.0</ele><time>2026-04-04T12:14:01.823Z</time></trkpt><trkpt lat="41.8896783" lon="-7.971245"><ele>1135.0</ele><time>2026-04-04T12:14:02.824Z</time></trkpt><trkpt lat="41.8897467" lon="-7.97118"><ele>1136.0</ele><time>2026-04-04T12:14:03.823Z</time></trkpt><trkpt lat="41.8898167" lon="-7.9711067"><ele>1137.0</ele><time>2026-04-04T12:14:04.825Z</time></trkpt><trkpt lat="41.88989" lon="-7.97102"><ele>1137.0</ele><time>2026-04-04T12:14:05.824Z</time></trkpt><trkpt lat="41.88996" lon="-7.97093"><ele>1137.0</ele><time>2026-04-04T12:14:06.825Z</time></trkpt><trkpt lat="41.8900283" lon="-7.9708467"><ele>1137.0</ele><time>2026-04-04T12:14:07.824Z</time></trkpt><trkpt lat="41.8900933" lon="-7.97077"><ele>1137.0</ele><time>2026-04-04T12:14:08.824Z</time></trkpt><trkpt lat="41.8901517" lon="-7.9706983"><ele>1137.0</ele><time>2026-04-04T12:14:09.825Z</time></trkpt><trkpt lat="41.8902" lon="-7.9706267"><ele>1137.0</ele><time>2026-04-04T12:14:10.823Z</time></trkpt><trkpt lat="41.8902467" lon="-7.9705483"><ele>1137.2857142857142</ele><time>2026-04-04T12:14:11.824Z</time></trkpt><trkpt lat="41.89029" lon="-7.9704617"><ele>1137.5714285714284</ele><time>2026-04-04T12:14:12.825Z</time></trkpt><trkpt lat="41.8903367" lon="-7.97038"><ele>1137.857142857143</ele><time>2026-04-04T12:14:13.823Z</time></trkpt><trkpt lat="41.8903767" lon="-7.9703"><ele>1138.142857142857</ele><time>2026-04-04T12:14:14.824Z</time></trkpt><trkpt lat="41.8904117" lon="-7.9702233"><ele>1138.4285714285716</ele><time>2026-04-04T12:14:15.824Z</time></trkpt><trkpt lat="41.89045" lon="-7.9701417"><ele>1138.7142857142858</ele><time>2026-04-04T12:14:16.823Z</time></trkpt><trkpt lat="41.8904933" lon="-7.9700617"><ele>1139.0</ele><time>2026-04-04T12:14:17.824Z</time></trkpt><trkpt lat="41.8905333" lon="-7.969995"><ele>1135.4</ele><time>2026-04-04T12:14:18.825Z</time></trkpt><trkpt lat="41.8906067" lon="-7.9699017"><ele>1131.8000000000002</ele><time>2026-04-04T12:14:20.826Z</time></trkpt><trkpt lat="41.890685" lon="-7.9698317"><ele>1128.1999999999998</ele><time>2026-04-04T12:14:22.826Z</time></trkpt><trkpt lat="41.8907833" lon="-7.9697817"><ele>1124.6</ele><time>2026-04-04T12:14:24.824Z</time></trkpt><trkpt lat="41.8908733" lon="-7.9697383"><ele>1121.0</ele><time>2026-04-04T12:14:26.824Z</time></trkpt><trkpt lat="41.8909583" lon="-7.9697067"><ele>1121.0</ele><time>2026-04-04T12:14:28.823Z</time></trkpt><trkpt lat="41.8910467" lon="-7.96966"><ele>1121.0</ele><time>2026-04-04T12:14:30.824Z</time></trkpt><trkpt lat="41.891115" lon="-7.9696317"><ele>1121.0</ele><time>2026-04-04T12:14:32.824Z</time></trkpt><trkpt lat="41.8911833" lon="-7.9696017"><ele>1121.0</ele><time>2026-04-04T12:14:35.824Z</time></trkpt><trkpt lat="41.8912783" lon="-7.9695733"><ele>1121.0</ele><time>2026-04-04T12:14:38.824Z</time></trkpt><trkpt lat="41.89138" lon="-7.969535"><ele>1121.0</ele><time>2026-04-04T12:14:40.824Z</time></trkpt><trkpt lat="41.89149" lon="-7.9694633"><ele>1121.0</ele><time>2026-04-04T12:14:42.826Z</time></trkpt><trkpt lat="41.891555" lon="-7.9694217"><ele>1121.0</ele><time>2026-04-04T12:14:43.824Z</time></trkpt><trkpt lat="41.8916183" lon="-7.969375"><ele>1121.0</ele><time>2026-04-04T12:14:44.824Z</time></trkpt><trkpt lat="41.8916733" lon="-7.9693317"><ele>1121.0</ele><time>2026-04-04T12:14:45.825Z</time></trkpt><trkpt lat="41.89177" lon="-7.969265"><ele>1121.0</ele><time>2026-04-04T12:14:47.823Z</time></trkpt><trkpt lat="41.891865" lon="-7.969245"><ele>1121.0</ele><time>2026-04-04T12:14:49.824Z</time></trkpt><trkpt lat="41.891975" lon="-7.9692883"><ele>1121.8333333333335</ele><time>2026-04-04T12:14:51.824Z</time></trkpt><trkpt lat="41.892035" lon="-7.9693217"><ele>1122.6666666666667</ele><time>2026-04-04T12:14:52.824Z</time></trkpt><trkpt lat="41.892155" lon="-7.969365"><ele>1123.5</ele><time>2026-04-04T12:14:54.824Z</time></trkpt><trkpt lat="41.8922733" lon="-7.9693433"><ele>1124.3333333333333</ele><time>2026-04-04T12:14:56.824Z</time></trkpt><trkpt lat="41.8923417" lon="-7.969335"><ele>1125.1666666666665</ele><time>2026-04-04T12:14:57.824Z</time></trkpt><trkpt lat="41.89241" lon="-7.9693317"><ele>1126.0</ele><time>2026-04-04T12:14:58.823Z</time></trkpt><trkpt lat="41.8924783" lon="-7.9693217"><ele>1126.0</ele><time>2026-04-04T12:14:59.826Z</time></trkpt><trkpt lat="41.8925817" lon="-7.96927"><ele>1126.0</ele><time>2026-04-04T12:15:01.824Z</time></trkpt><trkpt lat="41.89266" lon="-7.9692517"><ele>1126.0</ele><time>2026-04-04T12:15:03.825Z</time></trkpt><trkpt lat="41.8927267" lon="-7.9692617"><ele>1126.0</ele><time>2026-04-04T12:15:05.826Z</time></trkpt><trkpt lat="41.892805" lon="-7.9692767"><ele>1126.0</ele><time>2026-04-04T12:15:07.824Z</time></trkpt><trkpt lat="41.89289" lon="-7.96928"><ele>1126.0</ele><time>2026-04-04T12:15:09.824Z</time></trkpt><trkpt lat="41.8930033" lon="-7.969235"><ele>1126.8333333333333</ele><time>2026-04-04T12:15:11.825Z</time></trkpt><trkpt lat="41.8930717" lon="-7.9692033"><ele>1127.6666666666665</ele><time>2026-04-04T12:15:12.824Z</time></trkpt><trkpt lat="41.8931567" lon="-7.96917"><ele>1128.5</ele><time>2026-04-04T12:15:13.826Z</time></trkpt><trkpt lat="41.89324" lon="-7.9691383"><ele>1129.3333333333333</ele><time>2026-04-04T12:15:14.824Z</time></trkpt><trkpt lat="41.893315" lon="-7.969115"><ele>1130.1666666666667</ele><time>2026-04-04T12:15:15.825Z</time></trkpt><trkpt lat="41.8933883" lon="-7.96909"><ele>1131.0</ele><time>2026-04-04T12:15:16.824Z</time></trkpt><trkpt lat="41.893465" lon="-7.969065"><ele>1131.0</ele><time>2026-04-04T12:15:17.825Z</time></trkpt><trkpt lat="41.8935433" lon="-7.96905"><ele>1131.0</ele><time>2026-04-04T12:15:18.824Z</time></trkpt><trkpt lat="41.89363" lon="-7.9690383"><ele>1131.0</ele><time>2026-04-04T12:15:19.827Z</time></trkpt><trkpt lat="41.8937183" lon="-7.9690333"><ele>1131.0</ele><time>2026-04-04T12:15:20.825Z</time></trkpt><trkpt lat="41.8938083" lon="-7.969035"><ele>1131.0</ele><time>2026-04-04T12:15:21.825Z</time></trkpt><trkpt lat="41.8938917" lon="-7.969025"><ele>1131.0</ele><time>2026-04-04T12:15:22.824Z</time></trkpt><trkpt lat="41.8939717" lon="-7.9690083"><ele>1131.0</ele><time>2026-04-04T12:15:23.824Z</time></trkpt><trkpt lat="41.8940617" lon="-7.9689867"><ele>1131.0</ele><time>2026-04-04T12:15:24.824Z</time></trkpt><trkpt lat="41.8941583" lon="-7.96898"><ele>1131.0</ele><time>2026-04-04T12:15:25.824Z</time></trkpt><trkpt lat="41.8942567" lon="-7.96897"><ele>1131.0</ele><time>2026-04-04T12:15:26.827Z</time></trkpt><trkpt lat="41.8943567" lon="-7.9689567"><ele>1131.0</ele><time>2026-04-04T12:15:27.825Z</time></trkpt><trkpt lat="41.89446" lon="-7.9689383"><ele>1130.6</ele><time>2026-04-04T12:15:28.824Z</time></trkpt><trkpt lat="41.8945667" lon="-7.9689167"><ele>1130.1999999999998</ele><time>2026-04-04T12:15:29.825Z</time></trkpt><trkpt lat="41.8946733" lon="-7.9689017"><ele>1129.8000000000002</ele><time>2026-04-04T12:15:30.825Z</time></trkpt><trkpt lat="41.8947717" lon="-7.9688933"><ele>1129.4</ele><time>2026-04-04T12:15:31.825Z</time></trkpt><trkpt lat="41.8948717" lon="-7.9688817"><ele>1129.0</ele><time>2026-04-04T12:15:32.824Z</time></trkpt><trkpt lat="41.8949783" lon="-7.96887"><ele>1129.0</ele><time>2026-04-04T12:15:33.827Z</time></trkpt><trkpt lat="41.89508" lon="-7.968855"><ele>1129.0</ele><time>2026-04-04T12:15:34.825Z</time></trkpt><trkpt lat="41.8951733" lon="-7.9688333"><ele>1129.0</ele><time>2026-04-04T12:15:35.825Z</time></trkpt><trkpt lat="41.895255" lon="-7.96881"><ele>1129.0</ele><time>2026-04-04T12:15:36.825Z</time></trkpt><trkpt lat="41.895335" lon="-7.96879"><ele>1129.0</ele><time>2026-04-04T12:15:37.824Z</time></trkpt><trkpt lat="41.89543" lon="-7.9687617"><ele>1128.0</ele><time>2026-04-04T12:15:39.824Z</time></trkpt><trkpt lat="41.8955217" lon="-7.9687117"><ele>1127.0</ele><time>2026-04-04T12:15:42.828Z</time></trkpt><trkpt lat="41.8956283" lon="-7.968675"><ele>1126.0</ele><time>2026-04-04T12:15:44.825Z</time></trkpt><trkpt lat="41.8956933" lon="-7.9686633"><ele>1125.0</ele><time>2026-04-04T12:15:45.824Z</time></trkpt><trkpt lat="41.8957683" lon="-7.968655"><ele>1124.0</ele><time>2026-04-04T12:15:46.824Z</time></trkpt><trkpt lat="41.8958417" lon="-7.9686417"><ele>1123.0</ele><time>2026-04-04T12:15:47.824Z</time></trkpt><trkpt lat="41.89592" lon="-7.968625"><ele>1121.6666666666665</ele><time>2026-04-04T12:15:48.825Z</time></trkpt><trkpt lat="41.896005" lon="-7.9686167"><ele>1120.3333333333333</ele><time>2026-04-04T12:15:49.824Z</time></trkpt><trkpt lat="41.8960817" lon="-7.9686117"><ele>1119.0</ele><time>2026-04-04T12:15:50.824Z</time></trkpt><trkpt lat="41.8962067" lon="-7.9686383"><ele>1117.6666666666667</ele><time>2026-04-04T12:15:52.824Z</time></trkpt><trkpt lat="41.8962767" lon="-7.9686733"><ele>1116.3333333333335</ele><time>2026-04-04T12:15:53.825Z</time></trkpt><trkpt lat="41.896355" lon="-7.9687167"><ele>1115.0</ele><time>2026-04-04T12:15:54.825Z</time></trkpt><trkpt lat="41.8964467" lon="-7.9687683"><ele>1115.0</ele><time>2026-04-04T12:15:55.824Z</time></trkpt><trkpt lat="41.896535" lon="-7.9688217"><ele>1115.0</ele><time>2026-04-04T12:15:56.826Z</time></trkpt><trkpt lat="41.8966183" lon="-7.9688667"><ele>1115.0</ele><time>2026-04-04T12:15:57.824Z</time></trkpt><trkpt lat="41.8966983" lon="-7.968895"><ele>1115.0</ele><time>2026-04-04T12:15:58.824Z</time></trkpt><trkpt lat="41.8967733" lon="-7.968905"><ele>1115.0</ele><time>2026-04-04T12:15:59.825Z</time></trkpt><trkpt lat="41.8968483" lon="-7.9689017"><ele>1115.0</ele><time>2026-04-04T12:16:00.825Z</time></trkpt><trkpt lat="41.896915" lon="-7.968895"><ele>1113.2</ele><time>2026-04-04T12:16:01.824Z</time></trkpt><trkpt lat="41.8970283" lon="-7.9688783"><ele>1111.4</ele><time>2026-04-04T12:16:03.824Z</time></trkpt><trkpt lat="41.8970983" lon="-7.9688683"><ele>1109.6</ele><time>2026-04-04T12:16:04.824Z</time></trkpt><trkpt lat="41.897185" lon="-7.96886"><ele>1107.8</ele><time>2026-04-04T12:16:05.825Z</time></trkpt><trkpt lat="41.89727" lon="-7.96884"><ele>1106.0</ele><time>2026-04-04T12:16:06.825Z</time></trkpt><trkpt lat="41.897365" lon="-7.9688167"><ele>1106.0</ele><time>2026-04-04T12:16:07.825Z</time></trkpt><trkpt lat="41.897475" lon="-7.96878"><ele>1106.0</ele><time>2026-04-04T12:16:08.825Z</time></trkpt><trkpt lat="41.8975917" lon="-7.9687267"><ele>1106.0</ele><time>2026-04-04T12:16:09.826Z</time></trkpt><trkpt lat="41.8976883" lon="-7.96867"><ele>1106.0</ele><time>2026-04-04T12:16:10.823Z</time></trkpt><trkpt lat="41.8977783" lon="-7.9685967"><ele>1106.0</ele><time>2026-04-04T12:16:11.823Z</time></trkpt><trkpt lat="41.8978533" lon="-7.96851"><ele>1105.8333333333335</ele><time>2026-04-04T12:16:12.824Z</time></trkpt><trkpt lat="41.897915" lon="-7.9684283"><ele>1105.6666666666667</ele><time>2026-04-04T12:16:13.824Z</time></trkpt><trkpt lat="41.8979683" lon="-7.9683517"><ele>1105.5</ele><time>2026-04-04T12:16:14.823Z</time></trkpt><trkpt lat="41.89802" lon="-7.9682767"><ele>1105.3333333333333</ele><time>2026-04-04T12:16:15.823Z</time></trkpt><trkpt lat="41.8980617" lon="-7.9681983"><ele>1105.1666666666665</ele><time>2026-04-04T12:16:16.823Z</time></trkpt><trkpt lat="41.8981" lon="-7.9681233"><ele>1105.0</ele><time>2026-04-04T12:16:17.824Z</time></trkpt><trkpt lat="41.8981667" lon="-7.968"><ele>1104.8</ele><time>2026-04-04T12:16:19.823Z</time></trkpt><trkpt lat="41.8982633" lon="-7.9679317"><ele>1104.6</ele><time>2026-04-04T12:16:21.823Z</time></trkpt><trkpt lat="41.8983333" lon="-7.967905"><ele>1104.4</ele><time>2026-04-04T12:16:22.823Z</time></trkpt><trkpt lat="41.8984033" lon="-7.9678717"><ele>1104.2</ele><time>2026-04-04T12:16:23.823Z</time></trkpt><trkpt lat="41.8985083" lon="-7.967825"><ele>1104.0</ele><time>2026-04-04T12:16:24.823Z</time></trkpt><trkpt lat="41.8986" lon="-7.9677767"><ele>1104.0</ele><time>2026-04-04T12:16:25.823Z</time></trkpt><trkpt lat="41.8986817" lon="-7.9677383"><ele>1104.0</ele><time>2026-04-04T12:16:26.824Z</time></trkpt><trkpt lat="41.898755" lon="-7.9677183"><ele>1104.0</ele><time>2026-04-04T12:16:27.824Z</time></trkpt><trkpt lat="41.8988317" lon="-7.967715"><ele>1104.0</ele><time>2026-04-04T12:16:28.823Z</time></trkpt><trkpt lat="41.8989067" lon="-7.9677283"><ele>1104.0</ele><time>2026-04-04T12:16:29.823Z</time></trkpt><trkpt lat="41.8989817" lon="-7.96773"><ele>1104.0</ele><time>2026-04-04T12:16:30.823Z</time></trkpt><trkpt lat="41.8990667" lon="-7.9677133"><ele>1104.0</ele><time>2026-04-04T12:16:31.823Z</time></trkpt><trkpt lat="41.8991567" lon="-7.9676817"><ele>1104.0</ele><time>2026-04-04T12:16:32.824Z</time></trkpt><trkpt lat="41.8992383" lon="-7.9676417"><ele>1104.0</ele><time>2026-04-04T12:16:33.823Z</time></trkpt><trkpt lat="41.89931" lon="-7.967605"><ele>1104.0</ele><time>2026-04-04T12:16:34.823Z</time></trkpt><trkpt lat="41.89937" lon="-7.9675783"><ele>1104.0</ele><time>2026-04-04T12:16:35.823Z</time></trkpt><trkpt lat="41.899475" lon="-7.9675467"><ele>1104.0</ele><time>2026-04-04T12:16:37.823Z</time></trkpt><trkpt lat="41.89954" lon="-7.9675317"><ele>1100.4</ele><time>2026-04-04T12:16:38.823Z</time></trkpt><trkpt lat="41.8996133" lon="-7.9675083"><ele>1096.8000000000002</ele><time>2026-04-04T12:16:39.823Z</time></trkpt><trkpt lat="41.8997" lon="-7.96748"><ele>1093.1999999999998</ele><time>2026-04-04T12:16:40.823Z</time></trkpt><trkpt lat="41.899795" lon="-7.9674517"><ele>1089.6</ele><time>2026-04-04T12:16:41.823Z</time></trkpt><trkpt lat="41.8998967" lon="-7.9674283"><ele>1086.0</ele><time>2026-04-04T12:16:42.823Z</time></trkpt><trkpt lat="41.8999867" lon="-7.9674183"><ele>1086.0</ele><time>2026-04-04T12:16:43.823Z</time></trkpt><trkpt lat="41.9000567" lon="-7.9674133"><ele>1086.0</ele><time>2026-04-04T12:16:44.823Z</time></trkpt><trkpt lat="41.9001267" lon="-7.9674183"><ele>1086.0</ele><time>2026-04-04T12:16:45.823Z</time></trkpt><trkpt lat="41.9001983" lon="-7.96743"><ele>1086.0</ele><time>2026-04-04T12:16:46.824Z</time></trkpt><trkpt lat="41.9002783" lon="-7.9674533"><ele>1086.0</ele><time>2026-04-04T12:16:47.823Z</time></trkpt><trkpt lat="41.900375" lon="-7.9675017"><ele>1086.0</ele><time>2026-04-04T12:16:48.824Z</time></trkpt><trkpt lat="41.9004833" lon="-7.9675583"><ele>1085.0</ele><time>2026-04-04T12:16:49.823Z</time></trkpt><trkpt lat="41.9005883" lon="-7.9676017"><ele>1084.0</ele><time>2026-04-04T12:16:50.823Z</time></trkpt><trkpt lat="41.9006933" lon="-7.9676483"><ele>1083.0</ele><time>2026-04-04T12:16:51.823Z</time></trkpt><trkpt lat="41.900795" lon="-7.9676883"><ele>1082.0</ele><time>2026-04-04T12:16:52.823Z</time></trkpt><trkpt lat="41.900905" lon="-7.9677267"><ele>1081.0</ele><time>2026-04-04T12:16:53.823Z</time></trkpt><trkpt lat="41.9010083" lon="-7.967765"><ele>1078.5</ele><time>2026-04-04T12:16:54.823Z</time></trkpt><trkpt lat="41.9010933" lon="-7.9678083"><ele>1076.0</ele><time>2026-04-04T12:16:55.823Z</time></trkpt><trkpt lat="41.90117" lon="-7.96785"><ele>1073.5</ele><time>2026-04-04T12:16:56.823Z</time></trkpt><trkpt lat="41.9012417" lon="-7.96788"><ele>1071.0</ele><time>2026-04-04T12:16:57.824Z</time></trkpt><trkpt lat="41.9013067" lon="-7.9678933"><ele>1068.5</ele><time>2026-04-04T12:16:58.823Z</time></trkpt><trkpt lat="41.9013733" lon="-7.967885"><ele>1066.0</ele><time>2026-04-04T12:16:59.827Z</time></trkpt><trkpt lat="41.9014417" lon="-7.9678567"><ele>1066.0</ele><time>2026-04-04T12:17:00.825Z</time></trkpt><trkpt lat="41.9015" lon="-7.9678067"><ele>1066.0</ele><time>2026-04-04T12:17:01.825Z</time></trkpt><trkpt lat="41.9015567" lon="-7.96774"><ele>1066.0</ele><time>2026-04-04T12:17:02.823Z</time></trkpt><trkpt lat="41.9016183" lon="-7.9676667"><ele>1066.0</ele><time>2026-04-04T12:17:03.824Z</time></trkpt><trkpt lat="41.9016817" lon="-7.9675817"><ele>1066.0</ele><time>2026-04-04T12:17:04.823Z</time></trkpt><trkpt lat="41.9017317" lon="-7.9675017"><ele>1066.0</ele><time>2026-04-04T12:17:05.825Z</time></trkpt><trkpt lat="41.9017767" lon="-7.9674233"><ele>1065.5</ele><time>2026-04-04T12:17:06.827Z</time></trkpt><trkpt lat="41.9018383" lon="-7.967295"><ele>1065.0</ele><time>2026-04-04T12:17:08.824Z</time></trkpt><trkpt lat="41.90189" lon="-7.96718"><ele>1064.5</ele><time>2026-04-04T12:17:10.823Z</time></trkpt><trkpt lat="41.9019317" lon="-7.9670817"><ele>1064.0</ele><time>2026-04-04T12:17:12.826Z</time></trkpt><trkpt lat="41.90198" lon="-7.967005"><ele>1063.5</ele><time>2026-04-04T12:17:15.827Z</time></trkpt><trkpt lat="41.9020483" lon="-7.9669633"><ele>1063.0</ele><time>2026-04-04T12:17:19.823Z</time></trkpt><trkpt lat="41.90214" lon="-7.9669283"><ele>1063.0</ele><time>2026-04-04T12:17:56.824Z</time></trkpt><trkpt lat="41.902245" lon="-7.9669117"><ele>1063.0</ele><time>2026-04-04T12:17:58.824Z</time></trkpt><trkpt lat="41.9023567" lon="-7.9668633"><ele>1063.0</ele><time>2026-04-04T12:18:00.823Z</time></trkpt><trkpt lat="41.902425" lon="-7.966825"><ele>1063.0</ele><time>2026-04-04T12:18:01.823Z</time></trkpt><trkpt lat="41.9025083" lon="-7.9667983"><ele>1063.0</ele><time>2026-04-04T12:18:02.823Z</time></trkpt><trkpt lat="41.9025917" lon="-7.96677"><ele>1060.2</ele><time>2026-04-04T12:18:03.824Z</time></trkpt><trkpt lat="41.9026767" lon="-7.9667467"><ele>1057.4</ele><time>2026-04-04T12:18:04.823Z</time></trkpt><trkpt lat="41.902755" lon="-7.9667183"><ele>1054.6000000000001</ele><time>2026-04-04T12:18:05.823Z</time></trkpt><trkpt lat="41.9028283" lon="-7.9667033"><ele>1051.8</ele><time>2026-04-04T12:18:06.829Z</time></trkpt><trkpt lat="41.9029367" lon="-7.9667267"><ele>1049.0</ele><time>2026-04-04T12:18:08.823Z</time></trkpt><trkpt lat="41.9030133" lon="-7.9668333"><ele>1049.0</ele><time>2026-04-04T12:18:10.822Z</time></trkpt><trkpt lat="41.9030617" lon="-7.96698"><ele>1049.0</ele><time>2026-04-04T12:18:12.823Z</time></trkpt><trkpt lat="41.9031217" lon="-7.9671017"><ele>1049.0</ele><time>2026-04-04T12:18:14.823Z</time></trkpt><trkpt lat="41.9031817" lon="-7.967225"><ele>1049.0</ele><time>2026-04-04T12:18:16.827Z</time></trkpt><trkpt lat="41.9032367" lon="-7.9673267"><ele>1049.0</ele><time>2026-04-04T12:18:18.824Z</time></trkpt><trkpt lat="41.903285" lon="-7.9674067"><ele>1049.0</ele><time>2026-04-04T12:18:20.822Z</time></trkpt><trkpt lat="41.9033333" lon="-7.9674867"><ele>1049.0</ele><time>2026-04-04T12:18:23.823Z</time></trkpt><trkpt lat="41.9033833" lon="-7.96757"><ele>1049.0</ele><time>2026-04-04T12:18:26.824Z</time></trkpt><trkpt lat="41.9034217" lon="-7.96764"><ele>1049.0</ele><time>2026-04-04T12:18:28.823Z</time></trkpt><trkpt lat="41.9034567" lon="-7.9677233"><ele>1049.0</ele><time>2026-04-04T12:18:30.825Z</time></trkpt><trkpt lat="41.90348" lon="-7.9678233"><ele>1049.0</ele><time>2026-04-04T12:18:32.824Z</time></trkpt><trkpt lat="41.903495" lon="-7.9679467"><ele>1047.6666666666667</ele><time>2026-04-04T12:18:34.825Z</time></trkpt><trkpt lat="41.9034883" lon="-7.96808"><ele>1046.3333333333335</ele><time>2026-04-04T12:18:36.824Z</time></trkpt><trkpt lat="41.903455" lon="-7.968205"><ele>1045.0</ele><time>2026-04-04T12:18:38.823Z</time></trkpt><trkpt lat="41.9034183" lon="-7.96831"><ele>1043.6666666666667</ele><time>2026-04-04T12:18:40.823Z</time></trkpt><trkpt lat="41.90339" lon="-7.968405"><ele>1042.3333333333333</ele><time>2026-04-04T12:18:42.824Z</time></trkpt><trkpt lat="41.90337" lon="-7.96849"><ele>1041.0</ele><time>2026-04-04T12:18:44.825Z</time></trkpt><trkpt lat="41.9033567" lon="-7.9684067"><ele>1041.1666666666667</ele><time>2026-04-04T12:18:50.824Z</time></trkpt><trkpt lat="41.9033883" lon="-7.96833"><ele>1041.3333333333333</ele><time>2026-04-04T12:18:51.824Z</time></trkpt><trkpt lat="41.903425" lon="-7.9682417"><ele>1041.5</ele><time>2026-04-04T12:18:52.823Z</time></trkpt><trkpt lat="41.903455" lon="-7.9681467"><ele>1041.6666666666665</ele><time>2026-04-04T12:18:53.823Z</time></trkpt><trkpt lat="41.9034783" lon="-7.9680433"><ele>1041.8333333333333</ele><time>2026-04-04T12:18:54.823Z</time></trkpt><trkpt lat="41.9034917" lon="-7.967935"><ele>1042.0</ele><time>2026-04-04T12:18:55.823Z</time></trkpt><trkpt lat="41.9034883" lon="-7.967835"><ele>1042.0</ele><time>2026-04-04T12:18:56.824Z</time></trkpt><trkpt lat="41.9034667" lon="-7.9677367"><ele>1042.0</ele><time>2026-04-04T12:18:57.823Z</time></trkpt><trkpt lat="41.903435" lon="-7.9676417"><ele>1042.0</ele><time>2026-04-04T12:18:58.825Z</time></trkpt><trkpt lat="41.9033883" lon="-7.967555"><ele>1042.0</ele><time>2026-04-04T12:18:59.823Z</time></trkpt><trkpt lat="41.9033217" lon="-7.9674717"><ele>1042.0</ele><time>2026-04-04T12:19:00.824Z</time></trkpt><trkpt lat="41.903255" lon="-7.96739"><ele>1042.0</ele><time>2026-04-04T12:19:01.823Z</time></trkpt><trkpt lat="41.9032067" lon="-7.9673233"><ele>1043.0</ele><time>2026-04-04T12:19:02.823Z</time></trkpt><trkpt lat="41.9031617" lon="-7.9672617"><ele>1044.0</ele><time>2026-04-04T12:19:03.823Z</time></trkpt><trkpt lat="41.9031317" lon="-7.9671783"><ele>1045.0</ele><time>2026-04-04T12:19:05.824Z</time></trkpt><trkpt lat="41.9031617" lon="-7.9671033"><ele>1046.0</ele><time>2026-04-04T12:19:07.823Z</time></trkpt><trkpt lat="41.9031933" lon="-7.9670017"><ele>1047.0</ele><time>2026-04-04T12:19:09.823Z</time></trkpt><trkpt lat="41.9032367" lon="-7.96692"><ele>1048.0</ele><time>2026-04-04T12:19:11.823Z</time></trkpt><trkpt lat="41.9032817" lon="-7.9668583"><ele>1049.0</ele><time>2026-04-04T12:19:13.823Z</time></trkpt><trkpt lat="41.9033467" lon="-7.96679"><ele>1049.1666666666667</ele><time>2026-04-04T12:19:17.824Z</time></trkpt><trkpt lat="41.9033783" lon="-7.966685"><ele>1049.3333333333335</ele><time>2026-04-04T12:19:21.824Z</time></trkpt><trkpt lat="41.903395" lon="-7.9666033"><ele>1049.5</ele><time>2026-04-04T12:19:25.824Z</time></trkpt><trkpt lat="41.903455" lon="-7.9665483"><ele>1049.6666666666667</ele><time>2026-04-04T12:19:31.825Z</time></trkpt><trkpt lat="41.90351" lon="-7.9665067"><ele>1049.8333333333333</ele><time>2026-04-04T12:19:34.824Z</time></trkpt><trkpt lat="41.9035967" lon="-7.9664817"><ele>1050.0</ele><time>2026-04-04T12:19:37.824Z</time></trkpt><trkpt lat="41.903685" lon="-7.9664967"><ele>1046.2</ele><time>2026-04-04T12:19:39.824Z</time></trkpt><trkpt lat="41.9037867" lon="-7.966515"><ele>1042.4</ele><time>2026-04-04T12:19:41.824Z</time></trkpt><trkpt lat="41.9038883" lon="-7.966505"><ele>1038.6</ele><time>2026-04-04T12:19:43.825Z</time></trkpt><trkpt lat="41.904" lon="-7.9664567"><ele>1034.8</ele><time>2026-04-04T12:19:45.823Z</time></trkpt><trkpt lat="41.9040667" lon="-7.966425"><ele>1031.0</ele><time>2026-04-04T12:19:46.824Z</time></trkpt><trkpt lat="41.9041317" lon="-7.9664017"><ele>1031.0</ele><time>2026-04-04T12:19:47.825Z</time></trkpt><trkpt lat="41.9042067" lon="-7.9663833"><ele>1031.0</ele><time>2026-04-04T12:19:48.824Z</time></trkpt><trkpt lat="41.9042983" lon="-7.9663733"><ele>1031.0</ele><time>2026-04-04T12:19:49.824Z</time></trkpt><trkpt lat="41.9044" lon="-7.966365"><ele>1031.0</ele><time>2026-04-04T12:19:50.825Z</time></trkpt><trkpt lat="41.9044883" lon="-7.9663567"><ele>1031.0</ele><time>2026-04-04T12:19:51.824Z</time></trkpt><trkpt lat="41.9045617" lon="-7.966355"><ele>1031.0</ele><time>2026-04-04T12:19:52.823Z</time></trkpt><trkpt lat="41.9046617" lon="-7.9663917"><ele>1031.0</ele><time>2026-04-04T12:19:54.824Z</time></trkpt><trkpt lat="41.9047317" lon="-7.966435"><ele>1031.0</ele><time>2026-04-04T12:19:56.824Z</time></trkpt><trkpt lat="41.9047967" lon="-7.96645"><ele>1031.0</ele><time>2026-04-04T12:19:58.823Z</time></trkpt><trkpt lat="41.9048483" lon="-7.9663833"><ele>1031.0</ele><time>2026-04-04T12:20:00.824Z</time></trkpt><trkpt lat="41.9048933" lon="-7.966305"><ele>1031.0</ele><time>2026-04-04T12:20:02.823Z</time></trkpt><trkpt lat="41.9049483" lon="-7.9662433"><ele>1031.0</ele><time>2026-04-04T12:20:05.824Z</time></trkpt><trkpt lat="41.905005" lon="-7.9661983"><ele>1031.0</ele><time>2026-04-04T12:20:08.828Z</time></trkpt><trkpt lat="41.9050583" lon="-7.9661417"><ele>1030.0</ele><time>2026-04-04T12:20:11.824Z</time></trkpt><trkpt lat="41.9051183" lon="-7.9660683"><ele>1029.0</ele><time>2026-04-04T12:20:14.825Z</time></trkpt><trkpt lat="41.9051833" lon="-7.9660167"><ele>1028.0</ele><time>2026-04-04T12:20:17.824Z</time></trkpt><trkpt lat="41.9052667" lon="-7.9659867"><ele>1027.0</ele><time>2026-04-04T12:20:20.825Z</time></trkpt><trkpt lat="41.9053433" lon="-7.965985"><ele>1026.0</ele><time>2026-04-04T12:20:23.824Z</time></trkpt><trkpt lat="41.9054167" lon="-7.9659867"><ele>1025.0</ele><time>2026-04-04T12:20:26.824Z</time></trkpt><trkpt lat="41.905485" lon="-7.965995"><ele>1025.0</ele><time>2026-04-04T12:20:29.825Z</time></trkpt><trkpt lat="41.9055583" lon="-7.9660233"><ele>1025.0</ele><time>2026-04-04T12:20:33.824Z</time></trkpt><trkpt lat="41.9056267" lon="-7.9660283"><ele>1025.0</ele><time>2026-04-04T12:20:36.824Z</time></trkpt><trkpt lat="41.9057033" lon="-7.9660117"><ele>1025.0</ele><time>2026-04-04T12:20:40.824Z</time></trkpt><trkpt lat="41.9057617" lon="-7.9659417"><ele>1025.0</ele><time>2026-04-04T12:20:43.824Z</time></trkpt><trkpt lat="41.9057717" lon="-7.9658517"><ele>1025.0</ele><time>2026-04-04T12:20:46.824Z</time></trkpt><trkpt lat="41.9057317" lon="-7.965735"><ele>1024.2</ele><time>2026-04-04T12:20:49.825Z</time></trkpt><trkpt lat="41.90569" lon="-7.96565"><ele>1023.4</ele><time>2026-04-04T12:20:51.824Z</time></trkpt><trkpt lat="41.9056683" lon="-7.965535"><ele>1022.5999999999999</ele><time>2026-04-04T12:20:53.824Z</time></trkpt><trkpt lat="41.9056717" lon="-7.9654383"><ele>1021.8</ele><time>2026-04-04T12:20:55.824Z</time></trkpt><trkpt lat="41.9057383" lon="-7.9653433"><ele>1021.0</ele><time>2026-04-04T12:20:58.825Z</time></trkpt><trkpt lat="41.9058533" lon="-7.9652783"><ele>1020.1999999999999</ele><time>2026-04-04T12:21:00.824Z</time></trkpt><trkpt lat="41.90594" lon="-7.9652417"><ele>1019.3999999999999</ele><time>2026-04-04T12:21:01.824Z</time></trkpt><trkpt lat="41.9060333" lon="-7.9651967"><ele>1018.6</ele><time>2026-04-04T12:21:02.824Z</time></trkpt><trkpt lat="41.9061133" lon="-7.965155"><ele>1017.8</ele><time>2026-04-04T12:21:03.824Z</time></trkpt><trkpt lat="41.9061967" lon="-7.9651133"><ele>1017.0</ele><time>2026-04-04T12:21:04.825Z</time></trkpt><trkpt lat="41.9062783" lon="-7.9650783"><ele>1017.0</ele><time>2026-04-04T12:21:05.824Z</time></trkpt><trkpt lat="41.9063517" lon="-7.9650417"><ele>1016.9999999999999</ele><time>2026-04-04T12:21:06.824Z</time></trkpt><trkpt lat="41.90642" lon="-7.9650117"><ele>1017.0</ele><time>2026-04-04T12:21:07.825Z</time></trkpt><trkpt lat="41.9064833" lon="-7.9649933"><ele>1017.0</ele><time>2026-04-04T12:21:08.825Z</time></trkpt><trkpt lat="41.9065517" lon="-7.9649667"><ele>1016.9999999999999</ele><time>2026-04-04T12:21:09.824Z</time></trkpt><trkpt lat="41.9066233" lon="-7.9649417"><ele>1017.0</ele><time>2026-04-04T12:21:10.825Z</time></trkpt><trkpt lat="41.9066967" lon="-7.96492"><ele>1017.0</ele><time>2026-04-04T12:21:11.824Z</time></trkpt><trkpt lat="41.9067733" lon="-7.9649033"><ele>1016.0</ele><time>2026-04-04T12:21:12.824Z</time></trkpt><trkpt lat="41.906845" lon="-7.9648833"><ele>1015.0</ele><time>2026-04-04T12:21:13.825Z</time></trkpt><trkpt lat="41.9069183" lon="-7.96485"><ele>1014.0</ele><time>2026-04-04T12:21:14.825Z</time></trkpt><trkpt lat="41.9070117" lon="-7.9648067"><ele>1013.0</ele><time>2026-04-04T12:21:15.826Z</time></trkpt><trkpt lat="41.9071333" lon="-7.964745"><ele>1012.0</ele><time>2026-04-04T12:21:16.824Z</time></trkpt><trkpt lat="41.90724" lon="-7.9646883"><ele>1012.0</ele><time>2026-04-04T12:21:17.824Z</time></trkpt><trkpt lat="41.9073417" lon="-7.9646483"><ele>1012.0</ele><time>2026-04-04T12:21:18.825Z</time></trkpt><trkpt lat="41.90744" lon="-7.9646333"><ele>1012.0</ele><time>2026-04-04T12:21:19.824Z</time></trkpt><trkpt lat="41.90755" lon="-7.96464"><ele>1012.0</ele><time>2026-04-04T12:21:20.828Z</time></trkpt><trkpt lat="41.907655" lon="-7.9646633"><ele>1012.0</ele><time>2026-04-04T12:21:21.824Z</time></trkpt><trkpt lat="41.9077483" lon="-7.96468"><ele>1010.8333333333333</ele><time>2026-04-04T12:21:22.824Z</time></trkpt><trkpt lat="41.907835" lon="-7.9646867"><ele>1009.6666666666666</ele><time>2026-04-04T12:21:23.824Z</time></trkpt><trkpt lat="41.9079167" lon="-7.9646717"><ele>1008.5</ele><time>2026-04-04T12:21:24.825Z</time></trkpt><trkpt lat="41.9079817" lon="-7.9646233"><ele>1007.3333333333333</ele><time>2026-04-04T12:21:25.824Z</time></trkpt><trkpt lat="41.9080317" lon="-7.9645433"><ele>1006.1666666666666</ele><time>2026-04-04T12:21:26.825Z</time></trkpt><trkpt lat="41.90808" lon="-7.9644683"><ele>1005.0</ele><time>2026-04-04T12:21:27.826Z</time></trkpt><trkpt lat="41.9081133" lon="-7.9643717"><ele>1005.0</ele><time>2026-04-04T12:21:28.824Z</time></trkpt><trkpt lat="41.9081533" lon="-7.96429"><ele>1005.0</ele><time>2026-04-04T12:21:29.825Z</time></trkpt><trkpt lat="41.908175" lon="-7.9641533"><ele>1005.0</ele><time>2026-04-04T12:21:31.825Z</time></trkpt><trkpt lat="41.9082017" lon="-7.9640667"><ele>1005.0</ele><time>2026-04-04T12:21:33.825Z</time></trkpt><trkpt lat="41.9082767" lon="-7.96402"><ele>1005.0</ele><time>2026-04-04T12:21:35.824Z</time></trkpt><trkpt lat="41.908415" lon="-7.9639817"><ele>1004.0000000000001</ele><time>2026-04-04T12:21:37.825Z</time></trkpt><trkpt lat="41.90849" lon="-7.9639617"><ele>1003.0</ele><time>2026-04-04T12:21:38.824Z</time></trkpt><trkpt lat="41.9085617" lon="-7.9639417"><ele>1002.0000000000001</ele><time>2026-04-04T12:21:39.824Z</time></trkpt><trkpt lat="41.90863" lon="-7.9639217"><ele>1001.0000000000001</ele><time>2026-04-04T12:21:40.825Z</time></trkpt><trkpt lat="41.908705" lon="-7.9638933"><ele>1000.0</ele><time>2026-04-04T12:21:41.827Z</time></trkpt><trkpt lat="41.90877" lon="-7.963855"><ele>999.0000000000001</ele><time>2026-04-04T12:21:42.826Z</time></trkpt><trkpt lat="41.9088317" lon="-7.963805"><ele>998.0000000000001</ele><time>2026-04-04T12:21:43.824Z</time></trkpt><trkpt lat="41.9089367" lon="-7.9637333"><ele>998.0</ele><time>2026-04-04T12:21:45.826Z</time></trkpt><trkpt lat="41.9090267" lon="-7.96374"><ele>998.0</ele><time>2026-04-04T12:21:47.826Z</time></trkpt><trkpt lat="41.90909" lon="-7.9637933"><ele>998.0</ele><time>2026-04-04T12:21:49.824Z</time></trkpt><trkpt lat="41.9092017" lon="-7.96376"><ele>998.0</ele><time>2026-04-04T12:21:52.824Z</time></trkpt><trkpt lat="41.9092933" lon="-7.9636767"><ele>998.0</ele><time>2026-04-04T12:21:54.826Z</time></trkpt><trkpt lat="41.909365" lon="-7.9636433"><ele>995.5000000000001</ele><time>2026-04-04T12:21:56.825Z</time></trkpt><trkpt lat="41.909425" lon="-7.963695"><ele>993.0</ele><time>2026-04-04T12:21:59.823Z</time></trkpt><trkpt lat="41.909485" lon="-7.9637517"><ele>990.5</ele><time>2026-04-04T12:22:10.823Z</time></trkpt><trkpt lat="41.9095567" lon="-7.963815"><ele>988.0</ele><time>2026-04-04T12:22:12.824Z</time></trkpt><trkpt lat="41.9096283" lon="-7.9639217"><ele>985.5000000000001</ele><time>2026-04-04T12:22:14.824Z</time></trkpt><trkpt lat="41.9096783" lon="-7.9640233"><ele>983.0</ele><time>2026-04-04T12:22:16.823Z</time></trkpt><trkpt lat="41.9097217" lon="-7.9641283"><ele>982.8</ele><time>2026-04-04T12:22:18.825Z</time></trkpt><trkpt lat="41.9097817" lon="-7.96425"><ele>982.5999999999999</ele><time>2026-04-04T12:22:20.824Z</time></trkpt><trkpt lat="41.9098217" lon="-7.9643233"><ele>982.4000000000001</ele><time>2026-04-04T12:22:21.823Z</time></trkpt><trkpt lat="41.9098767" lon="-7.9644567"><ele>982.2</ele><time>2026-04-04T12:22:23.824Z</time></trkpt><trkpt lat="41.9099383" lon="-7.96457"><ele>982.0</ele><time>2026-04-04T12:22:25.825Z</time></trkpt><trkpt lat="41.9100183" lon="-7.9646517"><ele>981.9999999999999</ele><time>2026-04-04T12:22:27.825Z</time></trkpt><trkpt lat="41.9100717" lon="-7.96471"><ele>982.0</ele><time>2026-04-04T12:22:28.825Z</time></trkpt><trkpt lat="41.91014" lon="-7.9647767"><ele>982.0</ele><time>2026-04-04T12:22:29.824Z</time></trkpt><trkpt lat="41.9102017" lon="-7.9648317"><ele>982.0</ele><time>2026-04-04T12:22:30.824Z</time></trkpt><trkpt lat="41.9103" lon="-7.9649233"><ele>981.9999999999999</ele><time>2026-04-04T12:22:32.824Z</time></trkpt><trkpt lat="41.9103417" lon="-7.9649917"><ele>982.0</ele><time>2026-04-04T12:22:33.823Z</time></trkpt><trkpt lat="41.91042" lon="-7.9651333"><ele>978.4000000000001</ele><time>2026-04-04T12:22:35.823Z</time></trkpt><trkpt lat="41.9104817" lon="-7.9652717"><ele>974.8000000000001</ele><time>2026-04-04T12:22:37.824Z</time></trkpt><trkpt lat="41.9105083" lon="-7.9653567"><ele>971.2</ele><time>2026-04-04T12:22:38.825Z</time></trkpt><trkpt lat="41.9105367" lon="-7.9655"><ele>967.6</ele><time>2026-04-04T12:22:40.824Z</time></trkpt><trkpt lat="41.910545" lon="-7.9656417"><ele>964.0</ele><time>2026-04-04T12:22:42.826Z</time></trkpt><trkpt lat="41.91052" lon="-7.96576"><ele>962.4999999999999</ele><time>2026-04-04T12:22:44.824Z</time></trkpt><trkpt lat="41.9104733" lon="-7.96592"><ele>961.0</ele><time>2026-04-04T12:22:46.824Z</time></trkpt><trkpt lat="41.910445" lon="-7.9659967"><ele>959.5</ele><time>2026-04-04T12:22:47.823Z</time></trkpt><trkpt lat="41.910405" lon="-7.9660667"><ele>958.0</ele><time>2026-04-04T12:22:48.824Z</time></trkpt><trkpt lat="41.9103617" lon="-7.96614"><ele>956.4999999999999</ele><time>2026-04-04T12:22:49.823Z</time></trkpt><trkpt lat="41.9103017" lon="-7.966195"><ele>955.0</ele><time>2026-04-04T12:22:50.825Z</time></trkpt><trkpt lat="41.91021" lon="-7.9662967"><ele>954.9999999999999</ele><time>2026-04-04T12:22:52.826Z</time></trkpt><trkpt lat="41.9101467" lon="-7.9664083"><ele>955.0</ele><time>2026-04-04T12:22:54.825Z</time></trkpt><trkpt lat="41.9100883" lon="-7.96649"><ele>955.0</ele><time>2026-04-04T12:22:56.824Z</time></trkpt><trkpt lat="41.910025" lon="-7.96655"><ele>955.0</ele><time>2026-04-04T12:22:58.824Z</time></trkpt><trkpt lat="41.9099533" lon="-7.9666217"><ele>954.9999999999999</ele><time>2026-04-04T12:23:00.824Z</time></trkpt><trkpt lat="41.9098817" lon="-7.9667"><ele>955.0</ele><time>2026-04-04T12:23:02.824Z</time></trkpt><trkpt lat="41.9097933" lon="-7.9667933"><ele>956.0</ele><time>2026-04-04T12:23:04.824Z</time></trkpt><trkpt lat="41.9096883" lon="-7.966895"><ele>957.0</ele><time>2026-04-04T12:23:06.825Z</time></trkpt><trkpt lat="41.9096333" lon="-7.9669567"><ele>958.0</ele><time>2026-04-04T12:23:07.824Z</time></trkpt><trkpt lat="41.9095883" lon="-7.96702"><ele>959.0</ele><time>2026-04-04T12:23:08.824Z</time></trkpt><trkpt lat="41.9095517" lon="-7.96709"><ele>960.0</ele><time>2026-04-04T12:23:09.823Z</time></trkpt><trkpt lat="41.9095" lon="-7.96724"><ele>960.0</ele><time>2026-04-04T12:23:11.825Z</time></trkpt><trkpt lat="41.9095067" lon="-7.96733"><ele>960.0</ele><time>2026-04-04T12:23:12.824Z</time></trkpt><trkpt lat="41.909525" lon="-7.9674183"><ele>960.0</ele><time>2026-04-04T12:23:13.825Z</time></trkpt><trkpt lat="41.9095583" lon="-7.9674983"><ele>960.0</ele><time>2026-04-04T12:23:14.824Z</time></trkpt><trkpt lat="41.909605" lon="-7.9675567"><ele>960.0</ele><time>2026-04-04T12:23:15.823Z</time></trkpt><trkpt lat="41.909675" lon="-7.9675917"><ele>960.0</ele><time>2026-04-04T12:23:16.824Z</time></trkpt><trkpt lat="41.909755" lon="-7.9676083"><ele>960.0</ele><time>2026-04-04T12:23:17.826Z</time></trkpt><trkpt lat="41.9098417" lon="-7.96763"><ele>960.6666666666666</ele><time>2026-04-04T12:23:18.825Z</time></trkpt><trkpt lat="41.9099433" lon="-7.9676367"><ele>961.3333333333333</ele><time>2026-04-04T12:23:19.824Z</time></trkpt><trkpt lat="41.910025" lon="-7.9676383"><ele>962.0</ele><time>2026-04-04T12:23:20.824Z</time></trkpt><trkpt lat="41.910105" lon="-7.967625"><ele>962.6666666666666</ele><time>2026-04-04T12:23:21.824Z</time></trkpt><trkpt lat="41.9101783" lon="-7.9676083"><ele>963.3333333333333</ele><time>2026-04-04T12:23:22.824Z</time></trkpt><trkpt lat="41.9102583" lon="-7.9675983"><ele>964.0</ele><time>2026-04-04T12:23:23.824Z</time></trkpt><trkpt lat="41.9103333" lon="-7.9676183"><ele>962.6666666666666</ele><time>2026-04-04T12:23:24.826Z</time></trkpt><trkpt lat="41.91042" lon="-7.9676283"><ele>961.3333333333333</ele><time>2026-04-04T12:23:25.824Z</time></trkpt><trkpt lat="41.9105067" lon="-7.9675833"><ele>960.0</ele><time>2026-04-04T12:23:26.824Z</time></trkpt><trkpt lat="41.9105767" lon="-7.9675583"><ele>958.6666666666667</ele><time>2026-04-04T12:23:27.824Z</time></trkpt><trkpt lat="41.9106517" lon="-7.96754"><ele>957.3333333333334</ele><time>2026-04-04T12:23:28.823Z</time></trkpt><trkpt lat="41.91075" lon="-7.967515"><ele>956.0</ele><time>2026-04-04T12:23:29.824Z</time></trkpt><trkpt lat="41.91082" lon="-7.9675017"><ele>954.8333333333334</ele><time>2026-04-04T12:23:30.824Z</time></trkpt><trkpt lat="41.910915" lon="-7.967545"><ele>953.6666666666667</ele><time>2026-04-04T12:23:32.824Z</time></trkpt><trkpt lat="41.91099" lon="-7.9675483"><ele>952.5</ele><time>2026-04-04T12:23:33.825Z</time></trkpt><trkpt lat="41.91106" lon="-7.96764"><ele>951.3333333333333</ele><time>2026-04-04T12:23:35.825Z</time></trkpt><trkpt lat="41.9110867" lon="-7.96775"><ele>950.1666666666666</ele><time>2026-04-04T12:23:36.824Z</time></trkpt><trkpt lat="41.9111517" lon="-7.9678217"><ele>949.0</ele><time>2026-04-04T12:23:37.825Z</time></trkpt><trkpt lat="41.9112183" lon="-7.9679017"><ele>949.0</ele><time>2026-04-04T12:23:38.824Z</time></trkpt><trkpt lat="41.91128" lon="-7.96798"><ele>949.0000000000001</ele><time>2026-04-04T12:23:39.825Z</time></trkpt><trkpt lat="41.91137" lon="-7.9680333"><ele>949.0000000000001</ele><time>2026-04-04T12:23:40.824Z</time></trkpt><trkpt lat="41.9114617" lon="-7.96808"><ele>949.0</ele><time>2026-04-04T12:23:41.825Z</time></trkpt><trkpt lat="41.9115983" lon="-7.9680783"><ele>949.0</ele><time>2026-04-04T12:23:42.824Z</time></trkpt><trkpt lat="41.91173" lon="-7.968065"><ele>947.6</ele><time>2026-04-04T12:23:43.824Z</time></trkpt><trkpt lat="41.9118367" lon="-7.9680817"><ele>946.2</ele><time>2026-04-04T12:23:44.824Z</time></trkpt><trkpt lat="41.9119333" lon="-7.9681017"><ele>944.8000000000001</ele><time>2026-04-04T12:23:45.824Z</time></trkpt><trkpt lat="41.912025" lon="-7.9681367"><ele>943.4000000000001</ele><time>2026-04-04T12:23:46.824Z</time></trkpt><trkpt lat="41.912105" lon="-7.9681667"><ele>942.0</ele><time>2026-04-04T12:23:47.824Z</time></trkpt><trkpt lat="41.9121817" lon="-7.9681967"><ele>942.0</ele><time>2026-04-04T12:23:48.825Z</time></trkpt><trkpt lat="41.912245" lon="-7.9682283"><ele>942.0</ele><time>2026-04-04T12:23:49.824Z</time></trkpt><trkpt lat="41.9123283" lon="-7.9682767"><ele>942.0</ele><time>2026-04-04T12:23:51.824Z</time></trkpt><trkpt lat="41.9123917" lon="-7.9682517"><ele>942.0</ele><time>2026-04-04T12:23:53.825Z</time></trkpt><trkpt lat="41.9124017" lon="-7.9681333"><ele>942.0</ele><time>2026-04-04T12:23:56.824Z</time></trkpt><trkpt lat="41.9123383" lon="-7.96809"><ele>942.0</ele><time>2026-04-04T12:23:58.823Z</time></trkpt><trkpt lat="41.912225" lon="-7.96805"><ele>942.0</ele><time>2026-04-04T12:24:00.824Z</time></trkpt><trkpt lat="41.9121467" lon="-7.968015"><ele>942.0</ele><time>2026-04-04T12:24:01.824Z</time></trkpt><trkpt lat="41.91206" lon="-7.9679717"><ele>942.0</ele><time>2026-04-04T12:24:02.824Z</time></trkpt><trkpt lat="41.9119833" lon="-7.9679183"><ele>942.0</ele><time>2026-04-04T12:24:03.824Z</time></trkpt><trkpt lat="41.91191" lon="-7.96785"><ele>942.0</ele><time>2026-04-04T12:24:04.825Z</time></trkpt><trkpt lat="41.9118383" lon="-7.9677667"><ele>942.0</ele><time>2026-04-04T12:24:05.825Z</time></trkpt><trkpt lat="41.911755" lon="-7.96765"><ele>941.2</ele><time>2026-04-04T12:24:06.826Z</time></trkpt><trkpt lat="41.9116667" lon="-7.967515"><ele>940.4000000000001</ele><time>2026-04-04T12:24:07.825Z</time></trkpt><trkpt lat="41.9115967" lon="-7.9673933"><ele>939.5999999999999</ele><time>2026-04-04T12:24:08.825Z</time></trkpt><trkpt lat="41.9115333" lon="-7.9672883"><ele>938.8</ele><time>2026-04-04T12:24:09.824Z</time></trkpt><trkpt lat="41.911495" lon="-7.9671883"><ele>938.0</ele><time>2026-04-04T12:24:10.824Z</time></trkpt><trkpt lat="41.911465" lon="-7.9669983"><ele>938.0</ele><time>2026-04-04T12:24:12.825Z</time></trkpt><trkpt lat="41.9114633" lon="-7.96689"><ele>938.0</ele><time>2026-04-04T12:24:13.825Z</time></trkpt><trkpt lat="41.91148" lon="-7.9667817"><ele>938.0</ele><time>2026-04-04T12:24:14.825Z</time></trkpt><trkpt lat="41.911525" lon="-7.966645"><ele>938.0</ele><time>2026-04-04T12:24:15.824Z</time></trkpt><trkpt lat="41.9115867" lon="-7.9664917"><ele>938.0</ele><time>2026-04-04T12:24:16.823Z</time></trkpt><trkpt lat="41.91163" lon="-7.9663567"><ele>938.0</ele><time>2026-04-04T12:24:17.824Z</time></trkpt><trkpt lat="41.91167" lon="-7.966235"><ele>938.0</ele><time>2026-04-04T12:24:18.823Z</time></trkpt><trkpt lat="41.9117033" lon="-7.9661233"><ele>938.0</ele><time>2026-04-04T12:24:19.823Z</time></trkpt><trkpt lat="41.9117467" lon="-7.9660167"><ele>938.0</ele><time>2026-04-04T12:24:20.823Z</time></trkpt><trkpt lat="41.9117933" lon="-7.9658983"><ele>938.0</ele><time>2026-04-04T12:24:21.823Z</time></trkpt><trkpt lat="41.9118333" lon="-7.9657733"><ele>938.75</ele><time>2026-04-04T12:24:22.824Z</time></trkpt><trkpt lat="41.911865" lon="-7.9656383"><ele>939.5</ele><time>2026-04-04T12:24:23.823Z</time></trkpt><trkpt lat="41.9118967" lon="-7.965475"><ele>940.25</ele><time>2026-04-04T12:24:24.823Z</time></trkpt><trkpt lat="41.9119333" lon="-7.9652917"><ele>941.0</ele><time>2026-04-04T12:24:25.824Z</time></trkpt><trkpt lat="41.911975" lon="-7.965105"><ele>940.75</ele><time>2026-04-04T12:24:26.823Z</time></trkpt><trkpt lat="41.91201" lon="-7.9649167"><ele>940.5</ele><time>2026-04-04T12:24:27.823Z</time></trkpt><trkpt lat="41.9120383" lon="-7.9647333"><ele>940.25</ele><time>2026-04-04T12:24:28.823Z</time></trkpt><trkpt lat="41.912055" lon="-7.964555"><ele>940.0</ele><time>2026-04-04T12:24:29.823Z</time></trkpt><trkpt lat="41.9120667" lon="-7.9643683"><ele>939.5</ele><time>2026-04-04T12:24:30.824Z</time></trkpt><trkpt lat="41.9120733" lon="-7.9641883"><ele>939.0</ele><time>2026-04-04T12:24:31.823Z</time></trkpt><trkpt lat="41.91207" lon="-7.9640167"><ele>938.5</ele><time>2026-04-04T12:24:32.823Z</time></trkpt><trkpt lat="41.91206" lon="-7.96385"><ele>938.0</ele><time>2026-04-04T12:24:33.822Z</time></trkpt><trkpt lat="41.9120367" lon="-7.9637083"><ele>938.0000000000001</ele><time>2026-04-04T12:24:34.823Z</time></trkpt><trkpt lat="41.9120017" lon="-7.96358"><ele>938.0</ele><time>2026-04-04T12:24:35.824Z</time></trkpt><trkpt lat="41.9119533" lon="-7.9634717"><ele>938.0</ele><time>2026-04-04T12:24:36.825Z</time></trkpt><trkpt lat="41.911915" lon="-7.96336"><ele>938.0</ele><time>2026-04-04T12:24:37.824Z</time></trkpt><trkpt lat="41.9118917" lon="-7.9632583"><ele>938.0000000000001</ele><time>2026-04-04T12:24:38.823Z</time></trkpt><trkpt lat="41.91188" lon="-7.9631583"><ele>938.0</ele><time>2026-04-04T12:24:39.823Z</time></trkpt><trkpt lat="41.911895" lon="-7.9630433"><ele>937.4</ele><time>2026-04-04T12:24:40.823Z</time></trkpt><trkpt lat="41.9119617" lon="-7.9629017"><ele>936.8</ele><time>2026-04-04T12:24:41.823Z</time></trkpt><trkpt lat="41.9119933" lon="-7.9627733"><ele>936.2</ele><time>2026-04-04T12:24:42.823Z</time></trkpt><trkpt lat="41.912025" lon="-7.9626383"><ele>935.6</ele><time>2026-04-04T12:24:43.824Z</time></trkpt><trkpt lat="41.9120367" lon="-7.9625283"><ele>935.0</ele><time>2026-04-04T12:24:44.823Z</time></trkpt><trkpt lat="41.9120367" lon="-7.9624217"><ele>934.6</ele><time>2026-04-04T12:24:45.823Z</time></trkpt><trkpt lat="41.9120183" lon="-7.9623033"><ele>934.2</ele><time>2026-04-04T12:24:46.824Z</time></trkpt><trkpt lat="41.9119817" lon="-7.9621867"><ele>933.8</ele><time>2026-04-04T12:24:47.826Z</time></trkpt><trkpt lat="41.91193" lon="-7.96206"><ele>933.4</ele><time>2026-04-04T12:24:48.822Z</time></trkpt><trkpt lat="41.9118617" lon="-7.9619433"><ele>933.0</ele><time>2026-04-04T12:24:49.823Z</time></trkpt><trkpt lat="41.9117817" lon="-7.961865"><ele>933.0</ele><time>2026-04-04T12:24:50.824Z</time></trkpt><trkpt lat="41.911675" lon="-7.9617933"><ele>933.0</ele><time>2026-04-04T12:24:51.822Z</time></trkpt><trkpt lat="41.911585" lon="-7.9617433"><ele>933.0</ele><time>2026-04-04T12:24:52.822Z</time></trkpt><trkpt lat="41.9114867" lon="-7.961695"><ele>933.0</ele><time>2026-04-04T12:24:53.823Z</time></trkpt><trkpt lat="41.91139" lon="-7.9616483"><ele>933.0</ele><time>2026-04-04T12:24:54.823Z</time></trkpt><trkpt lat="41.9112967" lon="-7.961575"><ele>933.0</ele><time>2026-04-04T12:24:55.822Z</time></trkpt><trkpt lat="41.911225" lon="-7.9614883"><ele>933.0</ele><time>2026-04-04T12:24:56.822Z</time></trkpt><trkpt lat="41.9111733" lon="-7.9613783"><ele>933.0</ele><time>2026-04-04T12:24:57.824Z</time></trkpt><trkpt lat="41.9111417" lon="-7.9612467"><ele>933.0</ele><time>2026-04-04T12:24:58.822Z</time></trkpt><trkpt lat="41.91111" lon="-7.9611167"><ele>933.0</ele><time>2026-04-04T12:24:59.823Z</time></trkpt><trkpt lat="41.9110567" lon="-7.960995"><ele>933.0</ele><time>2026-04-04T12:25:00.823Z</time></trkpt><trkpt lat="41.910985" lon="-7.96089"><ele>933.0</ele><time>2026-04-04T12:25:01.823Z</time></trkpt><trkpt lat="41.9108983" lon="-7.960825"><ele>933.0</ele><time>2026-04-04T12:25:02.823Z</time></trkpt><trkpt lat="41.9108183" lon="-7.9607733"><ele>933.0</ele><time>2026-04-04T12:25:03.822Z</time></trkpt><trkpt lat="41.9107367" lon="-7.9607367"><ele>933.0</ele><time>2026-04-04T12:25:04.822Z</time></trkpt><trkpt lat="41.9106333" lon="-7.9607067"><ele>935.25</ele><time>2026-04-04T12:25:05.822Z</time></trkpt><trkpt lat="41.91052" lon="-7.96069"><ele>937.5</ele><time>2026-04-04T12:25:06.823Z</time></trkpt><trkpt lat="41.910405" lon="-7.9606633"><ele>939.75</ele><time>2026-04-04T12:25:07.823Z</time></trkpt><trkpt lat="41.9102917" lon="-7.9605983"><ele>942.0</ele><time>2026-04-04T12:25:08.822Z</time></trkpt><trkpt lat="41.9101867" lon="-7.9605317"><ele>942.0</ele><time>2026-04-04T12:25:09.823Z</time></trkpt><trkpt lat="41.9100833" lon="-7.9604617"><ele>942.0</ele><time>2026-04-04T12:25:10.822Z</time></trkpt><trkpt lat="41.909975" lon="-7.9604033"><ele>942.0</ele><time>2026-04-04T12:25:11.823Z</time></trkpt><trkpt lat="41.9098717" lon="-7.960365"><ele>942.0</ele><time>2026-04-04T12:25:12.823Z</time></trkpt><trkpt lat="41.9097717" lon="-7.9603467"><ele>942.0</ele><time>2026-04-04T12:25:13.822Z</time></trkpt><trkpt lat="41.9096783" lon="-7.960355"><ele>942.0</ele><time>2026-04-04T12:25:14.824Z</time></trkpt><trkpt lat="41.9095833" lon="-7.9603883"><ele>942.0</ele><time>2026-04-04T12:25:15.822Z</time></trkpt><trkpt lat="41.9094817" lon="-7.9604333"><ele>942.0</ele><time>2026-04-04T12:25:16.823Z</time></trkpt><trkpt lat="41.9093933" lon="-7.9604767"><ele>942.0</ele><time>2026-04-04T12:25:17.822Z</time></trkpt><trkpt lat="41.909315" lon="-7.9605117"><ele>942.0</ele><time>2026-04-04T12:25:18.823Z</time></trkpt><trkpt lat="41.9092433" lon="-7.960525"><ele>940.2</ele><time>2026-04-04T12:25:19.822Z</time></trkpt><trkpt lat="41.9091617" lon="-7.9605233"><ele>938.4000000000001</ele><time>2026-04-04T12:25:20.823Z</time></trkpt><trkpt lat="41.909075" lon="-7.9604967"><ele>936.5999999999999</ele><time>2026-04-04T12:25:21.822Z</time></trkpt><trkpt lat="41.9089933" lon="-7.96043"><ele>934.8</ele><time>2026-04-04T12:25:22.822Z</time></trkpt><trkpt lat="41.908905" lon="-7.96037"><ele>933.0</ele><time>2026-04-04T12:25:23.824Z</time></trkpt><trkpt lat="41.90881" lon="-7.9603233"><ele>933.0</ele><time>2026-04-04T12:25:24.823Z</time></trkpt><trkpt lat="41.9087067" lon="-7.96026"><ele>933.0</ele><time>2026-04-04T12:25:25.823Z</time></trkpt><trkpt lat="41.9085933" lon="-7.960205"><ele>933.0</ele><time>2026-04-04T12:25:26.824Z</time></trkpt><trkpt lat="41.90847" lon="-7.9601683"><ele>933.0</ele><time>2026-04-04T12:25:27.823Z</time></trkpt><trkpt lat="41.908355" lon="-7.9601333"><ele>931.8</ele><time>2026-04-04T12:25:28.822Z</time></trkpt><trkpt lat="41.9082467" lon="-7.9600783"><ele>930.5999999999999</ele><time>2026-04-04T12:25:29.823Z</time></trkpt><trkpt lat="41.908145" lon="-7.9600083"><ele>929.4000000000001</ele><time>2026-04-04T12:25:30.824Z</time></trkpt><trkpt lat="41.9080483" lon="-7.9599383"><ele>928.2</ele><time>2026-04-04T12:25:31.823Z</time></trkpt><trkpt lat="41.9079517" lon="-7.95987"><ele>927.0</ele><time>2026-04-04T12:25:32.823Z</time></trkpt><trkpt lat="41.9078633" lon="-7.9598133"><ele>924.1666666666666</ele><time>2026-04-04T12:25:33.823Z</time></trkpt><trkpt lat="41.9077833" lon="-7.9597717"><ele>921.3333333333333</ele><time>2026-04-04T12:25:34.823Z</time></trkpt><trkpt lat="41.90771" lon="-7.9597467"><ele>918.5</ele><time>2026-04-04T12:25:35.822Z</time></trkpt><trkpt lat="41.907645" lon="-7.9596933"><ele>915.6666666666666</ele><time>2026-04-04T12:25:36.823Z</time></trkpt><trkpt lat="41.9075833" lon="-7.959635"><ele>912.8333333333333</ele><time>2026-04-04T12:25:37.823Z</time></trkpt><trkpt lat="41.9075317" lon="-7.95956"><ele>910.0</ele><time>2026-04-04T12:25:38.823Z</time></trkpt><trkpt lat="41.9074867" lon="-7.9594867"><ele>909.4999999999999</ele><time>2026-04-04T12:25:39.822Z</time></trkpt><trkpt lat="41.9074383" lon="-7.9594283"><ele>909.0</ele><time>2026-04-04T12:25:40.823Z</time></trkpt><trkpt lat="41.907385" lon="-7.9593817"><ele>908.5</ele><time>2026-04-04T12:25:41.823Z</time></trkpt><trkpt lat="41.9072867" lon="-7.9593433"><ele>908.0</ele><time>2026-04-04T12:25:43.823Z</time></trkpt><trkpt lat="41.90723" lon="-7.9592717"><ele>907.4999999999999</ele><time>2026-04-04T12:25:46.823Z</time></trkpt><trkpt lat="41.90722" lon="-7.9591783"><ele>907.0</ele><time>2026-04-04T12:25:48.824Z</time></trkpt><trkpt lat="41.9072517" lon="-7.9590333"><ele>905.4999999999999</ele><time>2026-04-04T12:25:50.823Z</time></trkpt><trkpt lat="41.9072683" lon="-7.9589483"><ele>904.0</ele><time>2026-04-04T12:25:51.823Z</time></trkpt><trkpt lat="41.9072917" lon="-7.9588467"><ele>902.5</ele><time>2026-04-04T12:25:52.823Z</time></trkpt><trkpt lat="41.907315" lon="-7.9587167"><ele>901.0</ele><time>2026-04-04T12:25:53.823Z</time></trkpt><trkpt lat="41.9073517" lon="-7.9586083"><ele>899.4999999999999</ele><time>2026-04-04T12:25:54.823Z</time></trkpt><trkpt lat="41.907395" lon="-7.9585083"><ele>898.0</ele><time>2026-04-04T12:25:55.822Z</time></trkpt><trkpt lat="41.9074433" lon="-7.95843"><ele>898.5999999999999</ele><time>2026-04-04T12:25:56.823Z</time></trkpt><trkpt lat="41.9075133" lon="-7.95836"><ele>899.1999999999999</ele><time>2026-04-04T12:25:57.823Z</time></trkpt><trkpt lat="41.9076" lon="-7.95828"><ele>899.8</ele><time>2026-04-04T12:25:58.822Z</time></trkpt><trkpt lat="41.9076933" lon="-7.9581583"><ele>900.4</ele><time>2026-04-04T12:25:59.823Z</time></trkpt><trkpt lat="41.9077633" lon="-7.9580333"><ele>901.0</ele><time>2026-04-04T12:26:00.823Z</time></trkpt><trkpt lat="41.90781" lon="-7.9579167"><ele>897.5999999999999</ele><time>2026-04-04T12:26:01.823Z</time></trkpt><trkpt lat="41.90785" lon="-7.9578017"><ele>894.1999999999999</ele><time>2026-04-04T12:26:02.824Z</time></trkpt><trkpt lat="41.9078733" lon="-7.957695"><ele>890.8000000000001</ele><time>2026-04-04T12:26:03.822Z</time></trkpt><trkpt lat="41.9079" lon="-7.9575833"><ele>887.4000000000001</ele><time>2026-04-04T12:26:04.823Z</time></trkpt><trkpt lat="41.9079067" lon="-7.9574567"><ele>884.0</ele><time>2026-04-04T12:26:05.823Z</time></trkpt><trkpt lat="41.9078933" lon="-7.9573033"><ele>882.0</ele><time>2026-04-04T12:26:06.824Z</time></trkpt><trkpt lat="41.9078883" lon="-7.9571667"><ele>880.0000000000001</ele><time>2026-04-04T12:26:07.823Z</time></trkpt><trkpt lat="41.9079133" lon="-7.95704"><ele>878.0000000000001</ele><time>2026-04-04T12:26:08.824Z</time></trkpt><trkpt lat="41.907945" lon="-7.9569133"><ele>876.0</ele><time>2026-04-04T12:26:09.823Z</time></trkpt><trkpt lat="41.9079967" lon="-7.956785"><ele>874.0</ele><time>2026-04-04T12:26:10.822Z</time></trkpt><trkpt lat="41.9080333" lon="-7.9566683"><ele>873.4999999999999</ele><time>2026-04-04T12:26:11.823Z</time></trkpt><trkpt lat="41.9080733" lon="-7.9565533"><ele>873.0</ele><time>2026-04-04T12:26:12.824Z</time></trkpt><trkpt lat="41.908085" lon="-7.95645"><ele>872.5</ele><time>2026-04-04T12:26:13.823Z</time></trkpt><trkpt lat="41.9080867" lon="-7.9563583"><ele>872.0</ele><time>2026-04-04T12:26:14.823Z</time></trkpt><trkpt lat="41.908075" lon="-7.9562333"><ele>871.4999999999999</ele><time>2026-04-04T12:26:15.824Z</time></trkpt><trkpt lat="41.90807" lon="-7.9561183"><ele>871.0</ele><time>2026-04-04T12:26:16.822Z</time></trkpt><trkpt lat="41.9080733" lon="-7.9559867"><ele>871.4</ele><time>2026-04-04T12:26:17.823Z</time></trkpt><trkpt lat="41.908095" lon="-7.955845"><ele>871.8</ele><time>2026-04-04T12:26:18.824Z</time></trkpt><trkpt lat="41.908095" lon="-7.9556883"><ele>872.1999999999999</ele><time>2026-04-04T12:26:19.823Z</time></trkpt><trkpt lat="41.9080717" lon="-7.95556"><ele>872.5999999999999</ele><time>2026-04-04T12:26:20.824Z</time></trkpt><trkpt lat="41.9080217" lon="-7.9554533"><ele>873.0</ele><time>2026-04-04T12:26:21.823Z</time></trkpt><trkpt lat="41.90795" lon="-7.95537"><ele>873.0</ele><time>2026-04-04T12:26:22.823Z</time></trkpt><trkpt lat="41.9078667" lon="-7.9552933"><ele>873.0</ele><time>2026-04-04T12:26:23.822Z</time></trkpt><trkpt lat="41.9077533" lon="-7.95528"><ele>873.0</ele><time>2026-04-04T12:26:25.823Z</time></trkpt><trkpt lat="41.90769" lon="-7.95524"><ele>873.0</ele><time>2026-04-04T12:26:26.823Z</time></trkpt><trkpt lat="41.907635" lon="-7.955195"><ele>873.0</ele><time>2026-04-04T12:26:27.823Z</time></trkpt><trkpt lat="41.907575" lon="-7.9551483"><ele>873.0</ele><time>2026-04-04T12:26:28.823Z</time></trkpt><trkpt lat="41.9074517" lon="-7.95507"><ele>874.5999999999999</ele><time>2026-04-04T12:26:29.823Z</time></trkpt><trkpt lat="41.9074" lon="-7.955015"><ele>876.1999999999999</ele><time>2026-04-04T12:26:30.823Z</time></trkpt><trkpt lat="41.907425" lon="-7.9549133"><ele>877.8</ele><time>2026-04-04T12:26:32.829Z</time></trkpt><trkpt lat="41.9075167" lon="-7.954795"><ele>879.4</ele><time>2026-04-04T12:26:34.823Z</time></trkpt><trkpt lat="41.90761" lon="-7.954685"><ele>881.0</ele><time>2026-04-04T12:26:35.823Z</time></trkpt><trkpt lat="41.907785" lon="-7.9544683"><ele>881.0</ele><time>2026-04-04T12:26:36.824Z</time></trkpt><trkpt lat="41.9078467" lon="-7.954325"><ele>880.9999999999999</ele><time>2026-04-04T12:26:37.824Z</time></trkpt><trkpt lat="41.9079" lon="-7.9542167"><ele>880.9999999999999</ele><time>2026-04-04T12:26:38.824Z</time></trkpt><trkpt lat="41.9079583" lon="-7.9541133"><ele>881.0</ele><time>2026-04-04T12:26:39.823Z</time></trkpt><trkpt lat="41.90804" lon="-7.954025"><ele>881.0</ele><time>2026-04-04T12:26:40.823Z</time></trkpt><trkpt lat="41.908125" lon="-7.9539333"><ele>883.1999999999999</ele><time>2026-04-04T12:26:41.823Z</time></trkpt><trkpt lat="41.9081933" lon="-7.9538233"><ele>885.3999999999999</ele><time>2026-04-04T12:26:42.823Z</time></trkpt><trkpt lat="41.9082617" lon="-7.9537133"><ele>887.6</ele><time>2026-04-04T12:26:43.824Z</time></trkpt><trkpt lat="41.90834" lon="-7.9536117"><ele>889.8</ele><time>2026-04-04T12:26:44.823Z</time></trkpt><trkpt lat="41.908435" lon="-7.9535417"><ele>892.0</ele><time>2026-04-04T12:26:45.824Z</time></trkpt><trkpt lat="41.9085533" lon="-7.9534967"><ele>892.75</ele><time>2026-04-04T12:26:46.823Z</time></trkpt><trkpt lat="41.9086917" lon="-7.9534633"><ele>893.5</ele><time>2026-04-04T12:26:47.823Z</time></trkpt><trkpt lat="41.9088383" lon="-7.9534317"><ele>894.25</ele><time>2026-04-04T12:26:48.823Z</time></trkpt><trkpt lat="41.9089717" lon="-7.9533967"><ele>895.0</ele><time>2026-04-04T12:26:49.823Z</time></trkpt><trkpt lat="41.9090633" lon="-7.9533583"><ele>895.3333333333333</ele><time>2026-04-04T12:26:50.824Z</time></trkpt><trkpt lat="41.909125" lon="-7.9533"><ele>895.6666666666666</ele><time>2026-04-04T12:26:51.823Z</time></trkpt><trkpt lat="41.9091733" lon="-7.9532317"><ele>896.0</ele><time>2026-04-04T12:26:52.823Z</time></trkpt><trkpt lat="41.9092267" lon="-7.953145"><ele>896.3333333333333</ele><time>2026-04-04T12:26:53.826Z</time></trkpt><trkpt lat="41.9092617" lon="-7.953035"><ele>896.6666666666666</ele><time>2026-04-04T12:26:54.824Z</time></trkpt><trkpt lat="41.9092933" lon="-7.952925"><ele>897.0</ele><time>2026-04-04T12:26:55.823Z</time></trkpt><trkpt lat="41.90932" lon="-7.9528033"><ele>897.0</ele><time>2026-04-04T12:26:56.823Z</time></trkpt><trkpt lat="41.9093317" lon="-7.9526517"><ele>897.0</ele><time>2026-04-04T12:26:57.824Z</time></trkpt><trkpt lat="41.9093367" lon="-7.9524867"><ele>897.0</ele><time>2026-04-04T12:26:58.823Z</time></trkpt><trkpt lat="41.9093483" lon="-7.9523433"><ele>897.0</ele><time>2026-04-04T12:26:59.823Z</time></trkpt><trkpt lat="41.9093517" lon="-7.9522217"><ele>897.0</ele><time>2026-04-04T12:27:00.824Z</time></trkpt><trkpt lat="41.909345" lon="-7.9521067"><ele>897.6</ele><time>2026-04-04T12:27:01.823Z</time></trkpt><trkpt lat="41.9093183" lon="-7.9520017"><ele>898.2</ele><time>2026-04-04T12:27:02.823Z</time></trkpt><trkpt lat="41.90925" lon="-7.9519017"><ele>898.8</ele><time>2026-04-04T12:27:03.823Z</time></trkpt><trkpt lat="41.9091717" lon="-7.9517917"><ele>899.4</ele><time>2026-04-04T12:27:04.823Z</time></trkpt><trkpt lat="41.909115" lon="-7.95168"><ele>900.0</ele><time>2026-04-04T12:27:05.823Z</time></trkpt><trkpt lat="41.9090733" lon="-7.9515767"><ele>900.0</ele><time>2026-04-04T12:27:06.824Z</time></trkpt><trkpt lat="41.90903" lon="-7.9514667"><ele>900.0</ele><time>2026-04-04T12:27:07.826Z</time></trkpt><trkpt lat="41.9090183" lon="-7.95135"><ele>900.0</ele><time>2026-04-04T12:27:08.823Z</time></trkpt><trkpt lat="41.9090383" lon="-7.9512533"><ele>900.0</ele><time>2026-04-04T12:27:09.823Z</time></trkpt><trkpt lat="41.90907" lon="-7.9511533"><ele>900.0</ele><time>2026-04-04T12:27:10.823Z</time></trkpt><trkpt lat="41.9090917" lon="-7.9510567"><ele>900.0</ele><time>2026-04-04T12:27:11.823Z</time></trkpt><trkpt lat="41.909105" lon="-7.9509517"><ele>898.25</ele><time>2026-04-04T12:27:12.824Z</time></trkpt><trkpt lat="41.909105" lon="-7.950795"><ele>896.5</ele><time>2026-04-04T12:27:14.824Z</time></trkpt><trkpt lat="41.9091033" lon="-7.9506983"><ele>894.75</ele><time>2026-04-04T12:27:15.823Z</time></trkpt><trkpt lat="41.9090833" lon="-7.9506117"><ele>893.0</ele><time>2026-04-04T12:27:16.823Z</time></trkpt><trkpt lat="41.9088217" lon="-7.9507017"><ele>893.0000000000001</ele><time>2026-04-04T12:27:17.824Z</time></trkpt><trkpt lat="41.9087367" lon="-7.9506483"><ele>893.0</ele><time>2026-04-04T12:27:18.823Z</time></trkpt><trkpt lat="41.908675" lon="-7.9505933"><ele>893.0</ele><time>2026-04-04T12:27:19.823Z</time></trkpt><trkpt lat="41.9085783" lon="-7.9505567"><ele>893.0</ele><time>2026-04-04T12:27:20.823Z</time></trkpt><trkpt lat="41.908505" lon="-7.9505233"><ele>893.0000000000001</ele><time>2026-04-04T12:27:21.824Z</time></trkpt><trkpt lat="41.908575" lon="-7.9505383"><ele>893.0</ele><time>2026-04-04T12:27:23.823Z</time></trkpt><trkpt lat="41.9085533" lon="-7.9506517"><ele>893.0000000000001</ele><time>2026-04-04T12:27:26.823Z</time></trkpt><trkpt lat="41.9084783" lon="-7.9506783"><ele>893.0</ele><time>2026-04-04T12:27:28.823Z</time></trkpt><trkpt lat="41.908385" lon="-7.9507117"><ele>893.0</ele><time>2026-04-04T12:27:32.824Z</time></trkpt><trkpt lat="41.9083183" lon="-7.9507133"><ele>893.0</ele><time>2026-04-04T12:27:34.823Z</time></trkpt><trkpt lat="41.9082417" lon="-7.9507133"><ele>893.0000000000001</ele><time>2026-04-04T12:27:36.824Z</time></trkpt><trkpt lat="41.9081283" lon="-7.95072"><ele>893.0</ele><time>2026-04-04T12:27:38.823Z</time></trkpt><trkpt lat="41.9080183" lon="-7.95075"><ele>892.4</ele><time>2026-04-04T12:27:40.822Z</time></trkpt><trkpt lat="41.9079133" lon="-7.95077"><ele>891.8</ele><time>2026-04-04T12:27:42.822Z</time></trkpt><trkpt lat="41.9077983" lon="-7.9507917"><ele>891.2</ele><time>2026-04-04T12:27:44.823Z</time></trkpt><trkpt lat="41.9077033" lon="-7.9508133"><ele>890.6</ele><time>2026-04-04T12:27:46.822Z</time></trkpt><trkpt lat="41.9076183" lon="-7.95085"><ele>890.0</ele><time>2026-04-04T12:27:49.823Z</time></trkpt><trkpt lat="41.907555" lon="-7.9508933"><ele>892.4</ele><time>2026-04-04T12:27:52.823Z</time></trkpt><trkpt lat="41.90748" lon="-7.9509183"><ele>894.8</ele><time>2026-04-04T12:30:46.825Z</time></trkpt><trkpt lat="41.90735" lon="-7.9509517"><ele>897.2</ele><time>2026-04-04T12:30:48.826Z</time></trkpt><trkpt lat="41.9072767" lon="-7.950985"><ele>899.6</ele><time>2026-04-04T12:30:49.824Z</time></trkpt><trkpt lat="41.9072167" lon="-7.9510117"><ele>902.0</ele><time>2026-04-04T12:30:50.825Z</time></trkpt><trkpt lat="41.9071017" lon="-7.95106"><ele>902.0</ele><time>2026-04-04T12:30:52.823Z</time></trkpt><trkpt lat="41.9069983" lon="-7.9511033"><ele>902.0</ele><time>2026-04-04T12:30:54.825Z</time></trkpt><trkpt lat="41.9068767" lon="-7.9511683"><ele>902.0</ele><time>2026-04-04T12:30:56.824Z</time></trkpt><trkpt lat="41.9068117" lon="-7.9512217"><ele>902.0</ele><time>2026-04-04T12:30:57.824Z</time></trkpt><trkpt lat="41.9067617" lon="-7.951295"><ele>902.0</ele><time>2026-04-04T12:30:58.824Z</time></trkpt><trkpt lat="41.9067283" lon="-7.9513717"><ele>902.6666666666667</ele><time>2026-04-04T12:30:59.825Z</time></trkpt><trkpt lat="41.9066933" lon="-7.9514433"><ele>903.3333333333334</ele><time>2026-04-04T12:31:00.824Z</time></trkpt><trkpt lat="41.9066167" lon="-7.9515733"><ele>904.0</ele><time>2026-04-04T12:31:02.824Z</time></trkpt><trkpt lat="41.9065667" lon="-7.95163"><ele>904.6666666666667</ele><time>2026-04-04T12:31:03.825Z</time></trkpt><trkpt lat="41.90651" lon="-7.9516783"><ele>905.3333333333334</ele><time>2026-04-04T12:31:04.824Z</time></trkpt><trkpt lat="41.9064483" lon="-7.9517083"><ele>906.0</ele><time>2026-04-04T12:31:05.823Z</time></trkpt><trkpt lat="41.906385" lon="-7.951725"><ele>905.9999999999999</ele><time>2026-04-04T12:31:06.826Z</time></trkpt><trkpt lat="41.9063183" lon="-7.9517267"><ele>906.0</ele><time>2026-04-04T12:31:07.825Z</time></trkpt><trkpt lat="41.9062533" lon="-7.9517283"><ele>905.9999999999999</ele><time>2026-04-04T12:31:08.823Z</time></trkpt><trkpt lat="41.9061883" lon="-7.9517283"><ele>905.9999999999999</ele><time>2026-04-04T12:31:09.823Z</time></trkpt><trkpt lat="41.906125" lon="-7.9517283"><ele>906.0</ele><time>2026-04-04T12:31:10.823Z</time></trkpt><trkpt lat="41.9060567" lon="-7.951715"><ele>905.9999999999999</ele><time>2026-04-04T12:31:11.823Z</time></trkpt><trkpt lat="41.905955" lon="-7.9516417"><ele>905.9999999999999</ele><time>2026-04-04T12:31:13.824Z</time></trkpt><trkpt lat="41.9059567" lon="-7.951465"><ele>902.0</ele><time>2026-04-04T12:31:15.827Z</time></trkpt><trkpt lat="41.9059833" lon="-7.9513533"><ele>897.9999999999999</ele><time>2026-04-04T12:31:16.825Z</time></trkpt><trkpt lat="41.906035" lon="-7.9512367"><ele>893.9999999999999</ele><time>2026-04-04T12:31:17.825Z</time></trkpt><trkpt lat="41.906105" lon="-7.9511217"><ele>890.0</ele><time>2026-04-04T12:31:18.824Z</time></trkpt><trkpt lat="41.9061767" lon="-7.9509983"><ele>886.0</ele><time>2026-04-04T12:31:19.824Z</time></trkpt><trkpt lat="41.9062483" lon="-7.9509017"><ele>884.4999999999999</ele><time>2026-04-04T12:31:20.825Z</time></trkpt><trkpt lat="41.9062967" lon="-7.95081"><ele>883.0</ele><time>2026-04-04T12:31:21.825Z</time></trkpt><trkpt lat="41.9063483" lon="-7.95072"><ele>881.5</ele><time>2026-04-04T12:31:22.823Z</time></trkpt><trkpt lat="41.906385" lon="-7.9506333"><ele>880.0</ele><time>2026-04-04T12:31:23.824Z</time></trkpt><trkpt lat="41.906405" lon="-7.9505433"><ele>878.4999999999999</ele><time>2026-04-04T12:31:24.824Z</time></trkpt><trkpt lat="41.9064117" lon="-7.9504583"><ele>877.0</ele><time>2026-04-04T12:31:25.825Z</time></trkpt><trkpt lat="41.906385" lon="-7.95033"><ele>877.0</ele><time>2026-04-04T12:31:27.825Z</time></trkpt><trkpt lat="41.906325" lon="-7.9502067"><ele>877.0</ele><time>2026-04-04T12:31:29.824Z</time></trkpt><trkpt lat="41.9062583" lon="-7.9501083"><ele>877.0</ele><time>2026-04-04T12:31:31.825Z</time></trkpt><trkpt lat="41.906185" lon="-7.950015"><ele>877.0</ele><time>2026-04-04T12:31:33.824Z</time></trkpt><trkpt lat="41.9061183" lon="-7.9499167"><ele>877.0</ele><time>2026-04-04T12:31:35.825Z</time></trkpt><trkpt lat="41.9060717" lon="-7.9497617"><ele>876.4000000000001</ele><time>2026-04-04T12:31:37.824Z</time></trkpt><trkpt lat="41.9060467" lon="-7.949675"><ele>875.8000000000001</ele><time>2026-04-04T12:31:38.824Z</time></trkpt><trkpt lat="41.906015" lon="-7.9495217"><ele>875.2</ele><time>2026-04-04T12:31:40.823Z</time></trkpt><trkpt lat="41.90599" lon="-7.9493617"><ele>874.6</ele><time>2026-04-04T12:31:42.825Z</time></trkpt><trkpt lat="41.9059783" lon="-7.94927"><ele>874.0</ele><time>2026-04-04T12:31:43.825Z</time></trkpt><trkpt lat="41.9059633" lon="-7.9491767"><ele>873.6666666666666</ele><time>2026-04-04T12:31:44.824Z</time></trkpt><trkpt lat="41.9059433" lon="-7.9490917"><ele>873.3333333333333</ele><time>2026-04-04T12:31:45.824Z</time></trkpt><trkpt lat="41.9058833" lon="-7.948975"><ele>873.0</ele><time>2026-04-04T12:31:47.829Z</time></trkpt><trkpt lat="41.9058017" lon="-7.9489767"><ele>872.6666666666667</ele><time>2026-04-04T12:31:50.826Z</time></trkpt><trkpt lat="41.9057717" lon="-7.9490617"><ele>872.3333333333334</ele><time>2026-04-04T12:31:52.824Z</time></trkpt><trkpt lat="41.905795" lon="-7.9491867"><ele>872.0</ele><time>2026-04-04T12:31:54.824Z</time></trkpt><trkpt lat="41.9058017" lon="-7.949335"><ele>876.3333333333334</ele><time>2026-04-04T12:31:56.824Z</time></trkpt><trkpt lat="41.9057817" lon="-7.949505"><ele>880.6666666666667</ele><time>2026-04-04T12:31:58.824Z</time></trkpt><trkpt lat="41.905765" lon="-7.949595"><ele>885.0</ele><time>2026-04-04T12:31:59.824Z</time></trkpt><trkpt lat="41.905745" lon="-7.949685"><ele>889.3333333333333</ele><time>2026-04-04T12:32:00.824Z</time></trkpt><trkpt lat="41.90572" lon="-7.9497767"><ele>893.6666666666666</ele><time>2026-04-04T12:32:01.825Z</time></trkpt><trkpt lat="41.9056967" lon="-7.949865"><ele>898.0</ele><time>2026-04-04T12:32:02.825Z</time></trkpt><trkpt lat="41.9056683" lon="-7.9499483"><ele>898.0</ele><time>2026-04-04T12:32:03.825Z</time></trkpt><trkpt lat="41.9056317" lon="-7.9500283"><ele>897.9999999999999</ele><time>2026-04-04T12:32:04.826Z</time></trkpt><trkpt lat="41.905605" lon="-7.9501133"><ele>898.0</ele><time>2026-04-04T12:32:05.826Z</time></trkpt><trkpt lat="41.9055883" lon="-7.9501983"><ele>898.0</ele><time>2026-04-04T12:32:06.825Z</time></trkpt><trkpt lat="41.9055733" lon="-7.9502833"><ele>897.9999999999999</ele><time>2026-04-04T12:32:07.823Z</time></trkpt><trkpt lat="41.90557" lon="-7.95037"><ele>898.0</ele><time>2026-04-04T12:32:08.824Z</time></trkpt><trkpt lat="41.9055717" lon="-7.9505217"><ele>898.0</ele><time>2026-04-04T12:32:10.822Z</time></trkpt><trkpt lat="41.9055133" lon="-7.9505983"><ele>898.8333333333333</ele><time>2026-04-04T12:32:13.823Z</time></trkpt><trkpt lat="41.90539" lon="-7.9505267"><ele>899.6666666666666</ele><time>2026-04-04T12:32:15.823Z</time></trkpt><trkpt lat="41.90533" lon="-7.9504867"><ele>900.5</ele><time>2026-04-04T12:32:16.824Z</time></trkpt><trkpt lat="41.9052683" lon="-7.9504383"><ele>901.3333333333333</ele><time>2026-04-04T12:32:17.822Z</time></trkpt><trkpt lat="41.9052133" lon="-7.9503867"><ele>902.1666666666666</ele><time>2026-04-04T12:32:18.823Z</time></trkpt><trkpt lat="41.90517" lon="-7.9503217"><ele>903.0</ele><time>2026-04-04T12:32:19.825Z</time></trkpt><trkpt lat="41.90513" lon="-7.9502367"><ele>903.0</ele><time>2026-04-04T12:32:20.825Z</time></trkpt><trkpt lat="41.9051017" lon="-7.9501233"><ele>903.0</ele><time>2026-04-04T12:32:21.823Z</time></trkpt><trkpt lat="41.9050933" lon="-7.9499983"><ele>903.0</ele><time>2026-04-04T12:32:22.823Z</time></trkpt><trkpt lat="41.9050683" lon="-7.9499017"><ele>903.0</ele><time>2026-04-04T12:32:23.824Z</time></trkpt><trkpt lat="41.9050467" lon="-7.9498133"><ele>903.0</ele><time>2026-04-04T12:32:24.823Z</time></trkpt><trkpt lat="41.9049617" lon="-7.949725"><ele>903.0</ele><time>2026-04-04T12:32:26.823Z</time></trkpt><trkpt lat="41.90485" lon="-7.9496683"><ele>905.5</ele><time>2026-04-04T12:32:28.823Z</time></trkpt><trkpt lat="41.9047733" lon="-7.949655"><ele>908.0</ele><time>2026-04-04T12:32:29.823Z</time></trkpt><trkpt lat="41.9046867" lon="-7.9496467"><ele>910.5</ele><time>2026-04-04T12:32:30.823Z</time></trkpt><trkpt lat="41.9046017" lon="-7.9496517"><ele>913.0</ele><time>2026-04-04T12:32:31.825Z</time></trkpt><trkpt lat="41.904515" lon="-7.9496717"><ele>915.5</ele><time>2026-04-04T12:32:32.824Z</time></trkpt><trkpt lat="41.9044433" lon="-7.9497"><ele>918.0</ele><time>2026-04-04T12:32:33.823Z</time></trkpt><trkpt lat="41.904385" lon="-7.94975"><ele>918.0</ele><time>2026-04-04T12:32:34.823Z</time></trkpt><trkpt lat="41.9043317" lon="-7.949815"><ele>918.0</ele><time>2026-04-04T12:32:35.823Z</time></trkpt><trkpt lat="41.904285" lon="-7.9499"><ele>918.0</ele><time>2026-04-04T12:32:36.826Z</time></trkpt><trkpt lat="41.904235" lon="-7.949985"><ele>918.0</ele><time>2026-04-04T12:32:37.823Z</time></trkpt><trkpt lat="41.9041783" lon="-7.9500733"><ele>918.0</ele><time>2026-04-04T12:32:38.824Z</time></trkpt><trkpt lat="41.9041233" lon="-7.950165"><ele>918.0</ele><time>2026-04-04T12:32:39.823Z</time></trkpt><trkpt lat="41.904075" lon="-7.95027"><ele>921.1666666666666</ele><time>2026-04-04T12:32:40.823Z</time></trkpt><trkpt lat="41.9040283" lon="-7.9503883"><ele>924.3333333333333</ele><time>2026-04-04T12:32:41.823Z</time></trkpt><trkpt lat="41.9039867" lon="-7.9505017"><ele>927.5</ele><time>2026-04-04T12:32:42.823Z</time></trkpt><trkpt lat="41.9039467" lon="-7.9505983"><ele>930.6666666666666</ele><time>2026-04-04T12:32:43.824Z</time></trkpt><trkpt lat="41.9039" lon="-7.9506683"><ele>933.8333333333333</ele><time>2026-04-04T12:32:44.824Z</time></trkpt><trkpt lat="41.9038417" lon="-7.9507133"><ele>937.0</ele><time>2026-04-04T12:32:45.824Z</time></trkpt><trkpt lat="41.90376" lon="-7.9507317"><ele>937.0</ele><time>2026-04-04T12:32:46.823Z</time></trkpt><trkpt lat="41.9036667" lon="-7.9507467"><ele>937.0</ele><time>2026-04-04T12:32:47.823Z</time></trkpt><trkpt lat="41.90358" lon="-7.9507733"><ele>937.0</ele><time>2026-04-04T12:32:48.823Z</time></trkpt><trkpt lat="41.903505" lon="-7.950825"><ele>937.0</ele><time>2026-04-04T12:32:49.823Z</time></trkpt><trkpt lat="41.9034267" lon="-7.9509"><ele>937.0</ele><time>2026-04-04T12:32:50.823Z</time></trkpt><trkpt lat="41.90335" lon="-7.95098"><ele>941.4000000000001</ele><time>2026-04-04T12:32:51.823Z</time></trkpt><trkpt lat="41.903285" lon="-7.9510767"><ele>945.8000000000001</ele><time>2026-04-04T12:32:52.823Z</time></trkpt><trkpt lat="41.90322" lon="-7.9511883"><ele>950.2</ele><time>2026-04-04T12:32:53.823Z</time></trkpt><trkpt lat="41.9031567" lon="-7.95129"><ele>954.6</ele><time>2026-04-04T12:32:54.825Z</time></trkpt><trkpt lat="41.9030933" lon="-7.9513683"><ele>959.0</ele><time>2026-04-04T12:32:55.823Z</time></trkpt><trkpt lat="41.903025" lon="-7.9514167"><ele>959.0000000000001</ele><time>2026-04-04T12:32:56.826Z</time></trkpt><trkpt lat="41.90295" lon="-7.9514433"><ele>959.0</ele><time>2026-04-04T12:32:57.824Z</time></trkpt><trkpt lat="41.9028667" lon="-7.9514533"><ele>959.0</ele><time>2026-04-04T12:32:58.823Z</time></trkpt><trkpt lat="41.902785" lon="-7.9514633"><ele>959.0</ele><time>2026-04-04T12:32:59.823Z</time></trkpt><trkpt lat="41.9027033" lon="-7.9514817"><ele>959.0000000000001</ele><time>2026-04-04T12:33:00.823Z</time></trkpt><trkpt lat="41.902625" lon="-7.951505"><ele>959.0</ele><time>2026-04-04T12:33:01.823Z</time></trkpt><trkpt lat="41.9025517" lon="-7.9515317"><ele>958.6666666666667</ele><time>2026-04-04T12:33:02.826Z</time></trkpt><trkpt lat="41.90249" lon="-7.9515633"><ele>958.3333333333334</ele><time>2026-04-04T12:33:03.825Z</time></trkpt><trkpt lat="41.9024283" lon="-7.9515967"><ele>958.0</ele><time>2026-04-04T12:33:04.823Z</time></trkpt><trkpt lat="41.90237" lon="-7.95164"><ele>957.6666666666667</ele><time>2026-04-04T12:33:05.826Z</time></trkpt><trkpt lat="41.9023117" lon="-7.9516967"><ele>957.3333333333334</ele><time>2026-04-04T12:33:06.823Z</time></trkpt><trkpt lat="41.90225" lon="-7.9517733"><ele>957.0</ele><time>2026-04-04T12:33:07.824Z</time></trkpt><trkpt lat="41.9021833" lon="-7.9518683"><ele>959.5</ele><time>2026-04-04T12:33:08.826Z</time></trkpt><trkpt lat="41.9021167" lon="-7.95199"><ele>962.0</ele><time>2026-04-04T12:33:09.825Z</time></trkpt><trkpt lat="41.90205" lon="-7.9521233"><ele>964.5</ele><time>2026-04-04T12:33:10.823Z</time></trkpt><trkpt lat="41.9019783" lon="-7.95227"><ele>967.0</ele><time>2026-04-04T12:33:11.823Z</time></trkpt><trkpt lat="41.9019083" lon="-7.9524233"><ele>967.0</ele><time>2026-04-04T12:33:12.826Z</time></trkpt><trkpt lat="41.9018367" lon="-7.9525867"><ele>967.0</ele><time>2026-04-04T12:33:13.823Z</time></trkpt><trkpt lat="41.9017683" lon="-7.9527467"><ele>967.0</ele><time>2026-04-04T12:33:14.823Z</time></trkpt><trkpt lat="41.9017067" lon="-7.9529033"><ele>967.0</ele><time>2026-04-04T12:33:15.822Z</time></trkpt><trkpt lat="41.9016383" lon="-7.9530533"><ele>966.0</ele><time>2026-04-04T12:33:16.822Z</time></trkpt><trkpt lat="41.9014867" lon="-7.953385"><ele>965.0</ele><time>2026-04-04T12:33:18.01Z</time></trkpt><trkpt lat="41.9014367" lon="-7.9534783"><ele>964.0</ele><time>2026-04-04T12:33:19.217Z</time></trkpt><trkpt lat="41.9013833" lon="-7.953575"><ele>964.0</ele><time>2026-04-04T12:33:20.822Z</time></trkpt><trkpt lat="41.9013117" lon="-7.9536767"><ele>964.0000000000001</ele><time>2026-04-04T12:33:21.822Z</time></trkpt><trkpt lat="41.9012583" lon="-7.9537767"><ele>964.0000000000001</ele><time>2026-04-04T12:33:22.822Z</time></trkpt><trkpt lat="41.90115" lon="-7.9538667"><ele>964.0</ele><time>2026-04-04T12:33:23.822Z</time></trkpt><trkpt lat="41.9010683" lon="-7.9539317"><ele>964.0</ele><time>2026-04-04T12:33:24.822Z</time></trkpt><trkpt lat="41.90098" lon="-7.9539783"><ele>964.4000000000001</ele><time>2026-04-04T12:33:25.822Z</time></trkpt><trkpt lat="41.9008733" lon="-7.9540267"><ele>964.8000000000001</ele><time>2026-04-04T12:33:26.822Z</time></trkpt><trkpt lat="41.900775" lon="-7.9540683"><ele>965.1999999999999</ele><time>2026-04-04T12:33:27.823Z</time></trkpt><trkpt lat="41.9006733" lon="-7.95411"><ele>965.5999999999999</ele><time>2026-04-04T12:33:28.822Z</time></trkpt><trkpt lat="41.9005633" lon="-7.9541717"><ele>966.0</ele><time>2026-04-04T12:33:29.822Z</time></trkpt><trkpt lat="41.9004483" lon="-7.954225"><ele>966.0</ele><time>2026-04-04T12:33:30.823Z</time></trkpt><trkpt lat="41.9002117" lon="-7.95436"><ele>966.0</ele><time>2026-04-04T12:33:32.822Z</time></trkpt><trkpt lat="41.9000933" lon="-7.9544367"><ele>966.0</ele><time>2026-04-04T12:33:33.822Z</time></trkpt><trkpt lat="41.89998" lon="-7.9545167"><ele>967.75</ele><time>2026-04-04T12:33:34.822Z</time></trkpt><trkpt lat="41.8998733" lon="-7.95459"><ele>969.5</ele><time>2026-04-04T12:33:35.823Z</time></trkpt><trkpt lat="41.8997167" lon="-7.9546867"><ele>971.25</ele><time>2026-04-04T12:33:37.822Z</time></trkpt><trkpt lat="41.89963" lon="-7.9547267"><ele>973.0</ele><time>2026-04-04T12:33:39.822Z</time></trkpt><trkpt lat="41.8997017" lon="-7.9547033"><ele>972.9999999999999</ele><time>2026-04-04T12:34:18.823Z</time></trkpt><trkpt lat="41.8996417" lon="-7.95478"><ele>973.0</ele><time>2026-04-04T12:34:20.823Z</time></trkpt><trkpt lat="41.8995967" lon="-7.9548467"><ele>973.0</ele><time>2026-04-04T12:34:21.823Z</time></trkpt><trkpt lat="41.899545" lon="-7.954925"><ele>973.0</ele><time>2026-04-04T12:34:22.823Z</time></trkpt><trkpt lat="41.899485" lon="-7.9550167"><ele>972.9999999999999</ele><time>2026-04-04T12:34:23.823Z</time></trkpt><trkpt lat="41.8994133" lon="-7.95511"><ele>973.0</ele><time>2026-04-04T12:34:24.823Z</time></trkpt><trkpt lat="41.8993317" lon="-7.9552083"><ele>973.0</ele><time>2026-04-04T12:34:25.823Z</time></trkpt><trkpt lat="41.8992433" lon="-7.9552933"><ele>973.0</ele><time>2026-04-04T12:34:26.824Z</time></trkpt><trkpt lat="41.89915" lon="-7.9553583"><ele>973.0</ele><time>2026-04-04T12:34:27.822Z</time></trkpt><trkpt lat="41.89905" lon="-7.95541"><ele>973.0</ele><time>2026-04-04T12:34:28.824Z</time></trkpt><trkpt lat="41.8989467" lon="-7.9554617"><ele>973.0</ele><time>2026-04-04T12:34:29.824Z</time></trkpt><trkpt lat="41.898835" lon="-7.955515"><ele>973.0</ele><time>2026-04-04T12:34:30.823Z</time></trkpt><trkpt lat="41.89872" lon="-7.9555717"><ele>973.0</ele><time>2026-04-04T12:34:31.824Z</time></trkpt><trkpt lat="41.8986017" lon="-7.9556417"><ele>973.0</ele><time>2026-04-04T12:34:32.823Z</time></trkpt><trkpt lat="41.8984883" lon="-7.9557183"><ele>973.0</ele><time>2026-04-04T12:34:33.823Z</time></trkpt><trkpt lat="41.8983817" lon="-7.9558"><ele>974.25</ele><time>2026-04-04T12:34:34.823Z</time></trkpt><trkpt lat="41.8982767" lon="-7.9558683"><ele>975.5</ele><time>2026-04-04T12:34:35.823Z</time></trkpt><trkpt lat="41.8981633" lon="-7.955915"><ele>976.75</ele><time>2026-04-04T12:34:36.823Z</time></trkpt><trkpt lat="41.89804" lon="-7.9559483"><ele>978.0</ele><time>2026-04-04T12:34:37.823Z</time></trkpt><trkpt lat="41.89791" lon="-7.9559717"><ele>976.25</ele><time>2026-04-04T12:34:38.823Z</time></trkpt><trkpt lat="41.8977783" lon="-7.9559933"><ele>974.5</ele><time>2026-04-04T12:34:39.823Z</time></trkpt><trkpt lat="41.8976433" lon="-7.9560267"><ele>972.75</ele><time>2026-04-04T12:34:40.823Z</time></trkpt><trkpt lat="41.89751" lon="-7.9560633"><ele>971.0</ele><time>2026-04-04T12:34:41.828Z</time></trkpt><trkpt lat="41.8973817" lon="-7.9560933"><ele>971.0</ele><time>2026-04-04T12:34:42.822Z</time></trkpt><trkpt lat="41.89725" lon="-7.9561233"><ele>971.0</ele><time>2026-04-04T12:34:43.824Z</time></trkpt><trkpt lat="41.8971217" lon="-7.9561533"><ele>971.0</ele><time>2026-04-04T12:34:44.823Z</time></trkpt><trkpt lat="41.897" lon="-7.9561833"><ele>971.0</ele><time>2026-04-04T12:34:45.823Z</time></trkpt><trkpt lat="41.8968767" lon="-7.9562083"><ele>972.25</ele><time>2026-04-04T12:34:46.824Z</time></trkpt><trkpt lat="41.89675" lon="-7.95623"><ele>973.5</ele><time>2026-04-04T12:34:47.824Z</time></trkpt><trkpt lat="41.8966167" lon="-7.956255"><ele>974.75</ele><time>2026-04-04T12:34:48.824Z</time></trkpt><trkpt lat="41.896485" lon="-7.9562817"><ele>976.0</ele><time>2026-04-04T12:34:49.823Z</time></trkpt><trkpt lat="41.89635" lon="-7.9563067"><ele>976.0</ele><time>2026-04-04T12:34:50.824Z</time></trkpt><trkpt lat="41.8962117" lon="-7.95633"><ele>976.0</ele><time>2026-04-04T12:34:51.823Z</time></trkpt><trkpt lat="41.8960767" lon="-7.9563583"><ele>976.0</ele><time>2026-04-04T12:34:52.823Z</time></trkpt><trkpt lat="41.89595" lon="-7.9563883"><ele>976.0</ele><time>2026-04-04T12:34:53.824Z</time></trkpt><trkpt lat="41.8958167" lon="-7.9564017"><ele>976.5999999999999</ele><time>2026-04-04T12:34:54.823Z</time></trkpt><trkpt lat="41.8956867" lon="-7.956395"><ele>977.1999999999999</ele><time>2026-04-04T12:34:55.823Z</time></trkpt><trkpt lat="41.8955633" lon="-7.9563967"><ele>977.8000000000001</ele><time>2026-04-04T12:34:56.823Z</time></trkpt><trkpt lat="41.8954583" lon="-7.956405"><ele>978.4000000000001</ele><time>2026-04-04T12:34:57.823Z</time></trkpt><trkpt lat="41.8953833" lon="-7.9564067"><ele>979.0</ele><time>2026-04-04T12:34:58.823Z</time></trkpt><trkpt lat="41.89529" lon="-7.9563717"><ele>979.0</ele><time>2026-04-04T12:35:00.823Z</time></trkpt><trkpt lat="41.895225" lon="-7.9562417"><ele>979.0000000000001</ele><time>2026-04-04T12:35:02.823Z</time></trkpt><trkpt lat="41.8951983" lon="-7.95612"><ele>979.0000000000001</ele><time>2026-04-04T12:35:03.823Z</time></trkpt><trkpt lat="41.8952" lon="-7.9559767"><ele>979.0</ele><time>2026-04-04T12:35:04.824Z</time></trkpt><trkpt lat="41.89521" lon="-7.955815"><ele>979.0</ele><time>2026-04-04T12:35:05.824Z</time></trkpt><trkpt lat="41.8952417" lon="-7.9556383"><ele>979.0</ele><time>2026-04-04T12:35:06.823Z</time></trkpt><trkpt lat="41.8952633" lon="-7.955475"><ele>979.0000000000001</ele><time>2026-04-04T12:35:07.823Z</time></trkpt><trkpt lat="41.89527" lon="-7.9553333"><ele>979.0000000000001</ele><time>2026-04-04T12:35:08.825Z</time></trkpt><trkpt lat="41.89526" lon="-7.9552017"><ele>979.0</ele><time>2026-04-04T12:35:09.824Z</time></trkpt><trkpt lat="41.8952283" lon="-7.95507"><ele>979.0</ele><time>2026-04-04T12:35:10.823Z</time></trkpt><trkpt lat="41.8952117" lon="-7.9549233"><ele>977.75</ele><time>2026-04-04T12:35:11.823Z</time></trkpt><trkpt lat="41.8951983" lon="-7.954765"><ele>976.5</ele><time>2026-04-04T12:35:12.823Z</time></trkpt><trkpt lat="41.89518" lon="-7.9546017"><ele>975.25</ele><time>2026-04-04T12:35:13.823Z</time></trkpt><trkpt lat="41.895145" lon="-7.9544333"><ele>974.0</ele><time>2026-04-04T12:35:14.823Z</time></trkpt><trkpt lat="41.8951033" lon="-7.9542733"><ele>977.75</ele><time>2026-04-04T12:35:15.823Z</time></trkpt><trkpt lat="41.895055" lon="-7.954115"><ele>981.5</ele><time>2026-04-04T12:35:16.823Z</time></trkpt><trkpt lat="41.8950033" lon="-7.953965"><ele>985.25</ele><time>2026-04-04T12:35:17.823Z</time></trkpt><trkpt lat="41.8949333" lon="-7.9538217"><ele>989.0</ele><time>2026-04-04T12:35:18.824Z</time></trkpt><trkpt lat="41.8948567" lon="-7.9536833"><ele>989.0</ele><time>2026-04-04T12:35:19.824Z</time></trkpt><trkpt lat="41.894795" lon="-7.9535433"><ele>989.0</ele><time>2026-04-04T12:35:20.823Z</time></trkpt><trkpt lat="41.8947217" lon="-7.9534067"><ele>989.0</ele><time>2026-04-04T12:35:21.823Z</time></trkpt><trkpt lat="41.8946783" lon="-7.953265"><ele>989.0</ele><time>2026-04-04T12:35:22.824Z</time></trkpt><trkpt lat="41.8946467" lon="-7.95311"><ele>989.75</ele><time>2026-04-04T12:35:23.823Z</time></trkpt><trkpt lat="41.89462" lon="-7.9529433"><ele>990.5</ele><time>2026-04-04T12:35:24.824Z</time></trkpt><trkpt lat="41.89461" lon="-7.9527817"><ele>991.25</ele><time>2026-04-04T12:35:25.823Z</time></trkpt><trkpt lat="41.89462" lon="-7.952645"><ele>992.0</ele><time>2026-04-04T12:35:26.824Z</time></trkpt><trkpt lat="41.8946483" lon="-7.9525017"><ele>992.0</ele><time>2026-04-04T12:35:27.823Z</time></trkpt><trkpt lat="41.8946833" lon="-7.952355"><ele>992.0</ele><time>2026-04-04T12:35:28.823Z</time></trkpt><trkpt lat="41.8947283" lon="-7.9522033"><ele>992.0</ele><time>2026-04-04T12:35:29.825Z</time></trkpt><trkpt lat="41.8947833" lon="-7.9520567"><ele>992.0</ele><time>2026-04-04T12:35:30.824Z</time></trkpt><trkpt lat="41.8948467" lon="-7.9519033"><ele>992.0</ele><time>2026-04-04T12:35:31.823Z</time></trkpt><trkpt lat="41.8949083" lon="-7.951735"><ele>992.0</ele><time>2026-04-04T12:35:32.824Z</time></trkpt><trkpt lat="41.894955" lon="-7.9515717"><ele>992.0</ele><time>2026-04-04T12:35:33.823Z</time></trkpt><trkpt lat="41.894985" lon="-7.951415"><ele>992.0</ele><time>2026-04-04T12:35:34.823Z</time></trkpt><trkpt lat="41.894995" lon="-7.9512583"><ele>992.0000000000001</ele><time>2026-04-04T12:35:35.824Z</time></trkpt><trkpt lat="41.8949983" lon="-7.95112"><ele>992.0</ele><time>2026-04-04T12:35:36.823Z</time></trkpt><trkpt lat="41.8950183" lon="-7.9510233"><ele>992.0</ele><time>2026-04-04T12:35:37.823Z</time></trkpt><trkpt lat="41.8950683" lon="-7.9509417"><ele>992.0</ele><time>2026-04-04T12:35:39.823Z</time></trkpt><trkpt lat="41.8951467" lon="-7.9509633"><ele>992.0000000000001</ele><time>2026-04-04T12:35:41.823Z</time></trkpt><trkpt lat="41.8952133" lon="-7.9509883"><ele>992.0</ele><time>2026-04-04T12:35:42.823Z</time></trkpt><trkpt lat="41.8952967" lon="-7.95102"><ele>992.0</ele><time>2026-04-04T12:35:43.824Z</time></trkpt><trkpt lat="41.89539" lon="-7.9510583"><ele>992.0</ele><time>2026-04-04T12:35:44.824Z</time></trkpt><trkpt lat="41.8955117" lon="-7.9511033"><ele>992.0</ele><time>2026-04-04T12:35:45.823Z</time></trkpt><trkpt lat="41.8956267" lon="-7.95112"><ele>992.0</ele><time>2026-04-04T12:35:46.823Z</time></trkpt><trkpt lat="41.8957533" lon="-7.9511233"><ele>992.0</ele><time>2026-04-04T12:35:47.824Z</time></trkpt><trkpt lat="41.8958767" lon="-7.9510983"><ele>992.0</ele><time>2026-04-04T12:35:48.823Z</time></trkpt><trkpt lat="41.8959967" lon="-7.9510467"><ele>992.0</ele><time>2026-04-04T12:35:49.823Z</time></trkpt><trkpt lat="41.896115" lon="-7.9509817"><ele>992.0</ele><time>2026-04-04T12:35:50.824Z</time></trkpt><trkpt lat="41.8962117" lon="-7.9509083"><ele>993.6</ele><time>2026-04-04T12:35:51.823Z</time></trkpt><trkpt lat="41.89628" lon="-7.9508233"><ele>995.2</ele><time>2026-04-04T12:35:52.824Z</time></trkpt><trkpt lat="41.8963267" lon="-7.950725"><ele>996.8</ele><time>2026-04-04T12:35:53.823Z</time></trkpt><trkpt lat="41.8963633" lon="-7.950605"><ele>998.4</ele><time>2026-04-04T12:35:54.826Z</time></trkpt><trkpt lat="41.89639" lon="-7.95045"><ele>1000.0</ele><time>2026-04-04T12:35:55.824Z</time></trkpt><trkpt lat="41.8964167" lon="-7.9502833"><ele>1000.0</ele><time>2026-04-04T12:35:56.824Z</time></trkpt><trkpt lat="41.89644" lon="-7.9501"><ele>1000.0</ele><time>2026-04-04T12:35:57.826Z</time></trkpt><trkpt lat="41.896465" lon="-7.9499133"><ele>1000.0</ele><time>2026-04-04T12:35:58.824Z</time></trkpt><trkpt lat="41.896475" lon="-7.9497267"><ele>1000.0</ele><time>2026-04-04T12:35:59.824Z</time></trkpt><trkpt lat="41.8964667" lon="-7.94957"><ele>1001.4</ele><time>2026-04-04T12:36:00.825Z</time></trkpt><trkpt lat="41.896445" lon="-7.9494433"><ele>1002.8</ele><time>2026-04-04T12:36:01.826Z</time></trkpt><trkpt lat="41.8964167" lon="-7.9493433"><ele>1004.2</ele><time>2026-04-04T12:36:02.825Z</time></trkpt><trkpt lat="41.8963767" lon="-7.9492717"><ele>1005.6</ele><time>2026-04-04T12:36:03.823Z</time></trkpt><trkpt lat="41.8962583" lon="-7.949255"><ele>1007.0</ele><time>2026-04-04T12:36:05.823Z</time></trkpt><trkpt lat="41.896165" lon="-7.9492567"><ele>1007.0000000000001</ele><time>2026-04-04T12:36:06.823Z</time></trkpt><trkpt lat="41.89608" lon="-7.949235"><ele>1007.0</ele><time>2026-04-04T12:36:07.823Z</time></trkpt><trkpt lat="41.895995" lon="-7.9492183"><ele>1007.0</ele><time>2026-04-04T12:36:08.825Z</time></trkpt><trkpt lat="41.8959317" lon="-7.9491783"><ele>1007.0</ele><time>2026-04-04T12:36:09.824Z</time></trkpt><trkpt lat="41.895885" lon="-7.9490967"><ele>1007.0000000000001</ele><time>2026-04-04T12:36:10.824Z</time></trkpt><trkpt lat="41.8958417" lon="-7.948995"><ele>1007.0</ele><time>2026-04-04T12:36:11.823Z</time></trkpt><trkpt lat="41.8958083" lon="-7.9488467"><ele>1010.0</ele><time>2026-04-04T12:36:12.823Z</time></trkpt><trkpt lat="41.895785" lon="-7.9486583"><ele>1013.0</ele><time>2026-04-04T12:36:13.823Z</time></trkpt><trkpt lat="41.8957617" lon="-7.9484717"><ele>1016.0</ele><time>2026-04-04T12:36:14.824Z</time></trkpt><trkpt lat="41.89575" lon="-7.94829"><ele>1019.0</ele><time>2026-04-04T12:36:15.823Z</time></trkpt><trkpt lat="41.8957567" lon="-7.9481"><ele>1021.0</ele><time>2026-04-04T12:36:16.823Z</time></trkpt><trkpt lat="41.8957667" lon="-7.9479283"><ele>1023.0000000000001</ele><time>2026-04-04T12:36:17.824Z</time></trkpt><trkpt lat="41.895775" lon="-7.94778"><ele>1025.0</ele><time>2026-04-04T12:36:18.823Z</time></trkpt><trkpt lat="41.8957733" lon="-7.9476617"><ele>1027.0</ele><time>2026-04-04T12:36:19.824Z</time></trkpt><trkpt lat="41.8957667" lon="-7.9475583"><ele>1029.0</ele><time>2026-04-04T12:36:20.823Z</time></trkpt><trkpt lat="41.8957317" lon="-7.9474167"><ele>1029.5714285714287</ele><time>2026-04-04T12:36:22.823Z</time></trkpt><trkpt lat="41.8956733" lon="-7.9473517"><ele>1030.142857142857</ele><time>2026-04-04T12:36:24.823Z</time></trkpt><trkpt lat="41.8955883" lon="-7.9473417"><ele>1030.7142857142858</ele><time>2026-04-04T12:36:26.826Z</time></trkpt><trkpt lat="41.8955233" lon="-7.9473367"><ele>1031.2857142857142</ele><time>2026-04-04T12:36:27.825Z</time></trkpt><trkpt lat="41.8954567" lon="-7.9473217"><ele>1031.857142857143</ele><time>2026-04-04T12:36:28.825Z</time></trkpt><trkpt lat="41.89539" lon="-7.9472883"><ele>1032.4285714285716</ele><time>2026-04-04T12:36:29.822Z</time></trkpt><trkpt lat="41.89532" lon="-7.947275"><ele>1033.0</ele><time>2026-04-04T12:36:30.823Z</time></trkpt><trkpt lat="41.8951917" lon="-7.9473183"><ele>1033.0</ele><time>2026-04-04T12:36:32.823Z</time></trkpt><trkpt lat="41.8951217" lon="-7.9473917"><ele>1033.0</ele><time>2026-04-04T12:36:33.823Z</time></trkpt><trkpt lat="41.8950567" lon="-7.94746"><ele>1033.0</ele><time>2026-04-04T12:36:34.825Z</time></trkpt><trkpt lat="41.894995" lon="-7.947555"><ele>1033.0</ele><time>2026-04-04T12:36:35.824Z</time></trkpt><trkpt lat="41.894935" lon="-7.94768"><ele>1033.0</ele><time>2026-04-04T12:36:36.824Z</time></trkpt><trkpt lat="41.8948667" lon="-7.9477783"><ele>1034.6</ele><time>2026-04-04T12:36:37.823Z</time></trkpt><trkpt lat="41.8947867" lon="-7.94786"><ele>1036.1999999999998</ele><time>2026-04-04T12:36:38.824Z</time></trkpt><trkpt lat="41.894705" lon="-7.9479167"><ele>1037.8</ele><time>2026-04-04T12:36:39.823Z</time></trkpt><trkpt lat="41.8946117" lon="-7.947955"><ele>1039.3999999999999</ele><time>2026-04-04T12:36:40.822Z</time></trkpt><trkpt lat="41.89451" lon="-7.9479767"><ele>1041.0</ele><time>2026-04-04T12:36:41.823Z</time></trkpt><trkpt lat="41.894395" lon="-7.9479817"><ele>1041.0</ele><time>2026-04-04T12:36:42.823Z</time></trkpt><trkpt lat="41.894275" lon="-7.9479717"><ele>1041.0</ele><time>2026-04-04T12:36:43.823Z</time></trkpt><trkpt lat="41.89415" lon="-7.94794"><ele>1041.0</ele><time>2026-04-04T12:36:44.823Z</time></trkpt><trkpt lat="41.8940167" lon="-7.94789"><ele>1041.0</ele><time>2026-04-04T12:36:45.826Z</time></trkpt><trkpt lat="41.8938833" lon="-7.9478367"><ele>1043.25</ele><time>2026-04-04T12:36:46.826Z</time></trkpt><trkpt lat="41.8937467" lon="-7.94778"><ele>1045.5</ele><time>2026-04-04T12:36:47.823Z</time></trkpt><trkpt lat="41.8936117" lon="-7.9477233"><ele>1047.75</ele><time>2026-04-04T12:36:48.825Z</time></trkpt><trkpt lat="41.8934833" lon="-7.94767"><ele>1050.0</ele><time>2026-04-04T12:36:49.823Z</time></trkpt><trkpt lat="41.8933633" lon="-7.9476133"><ele>1050.75</ele><time>2026-04-04T12:36:50.823Z</time></trkpt><trkpt lat="41.8932467" lon="-7.9475717"><ele>1051.5</ele><time>2026-04-04T12:36:51.824Z</time></trkpt><trkpt lat="41.8931317" lon="-7.9475467"><ele>1052.25</ele><time>2026-04-04T12:36:52.823Z</time></trkpt><trkpt lat="41.8930117" lon="-7.9475117"><ele>1053.0</ele><time>2026-04-04T12:36:53.824Z</time></trkpt><trkpt lat="41.8928883" lon="-7.9474617"><ele>1053.75</ele><time>2026-04-04T12:36:54.824Z</time></trkpt><trkpt lat="41.8927633" lon="-7.9474067"><ele>1054.5</ele><time>2026-04-04T12:36:55.823Z</time></trkpt><trkpt lat="41.8926417" lon="-7.9473667"><ele>1055.25</ele><time>2026-04-04T12:36:56.823Z</time></trkpt><trkpt lat="41.8925283" lon="-7.94733"><ele>1056.0</ele><time>2026-04-04T12:36:57.823Z</time></trkpt><trkpt lat="41.89244" lon="-7.9472967"><ele>1056.1666666666667</ele><time>2026-04-04T12:36:58.823Z</time></trkpt><trkpt lat="41.8923683" lon="-7.94727"><ele>1056.3333333333333</ele><time>2026-04-04T12:36:59.824Z</time></trkpt><trkpt lat="41.8923817" lon="-7.9471683"><ele>1056.5</ele><time>2026-04-04T12:37:03.823Z</time></trkpt><trkpt lat="41.8923817" lon="-7.9470333"><ele>1056.6666666666665</ele><time>2026-04-04T12:37:06.824Z</time></trkpt><trkpt lat="41.8923" lon="-7.9469317"><ele>1056.8333333333333</ele><time>2026-04-04T12:37:08.824Z</time></trkpt><trkpt lat="41.8922333" lon="-7.9468833"><ele>1057.0</ele><time>2026-04-04T12:37:09.824Z</time></trkpt><trkpt lat="41.892155" lon="-7.9468467"><ele>1057.0</ele><time>2026-04-04T12:37:10.823Z</time></trkpt><trkpt lat="41.892055" lon="-7.94682"><ele>1057.0</ele><time>2026-04-04T12:37:11.823Z</time></trkpt><trkpt lat="41.8919467" lon="-7.9467917"><ele>1057.0</ele><time>2026-04-04T12:37:12.826Z</time></trkpt><trkpt lat="41.891815" lon="-7.9467617"><ele>1057.0</ele><time>2026-04-04T12:37:13.826Z</time></trkpt><trkpt lat="41.8916833" lon="-7.9467317"><ele>1059.25</ele><time>2026-04-04T12:37:14.824Z</time></trkpt><trkpt lat="41.89155" lon="-7.946695"><ele>1061.5</ele><time>2026-04-04T12:37:15.823Z</time></trkpt><trkpt lat="41.8914233" lon="-7.946655"><ele>1063.75</ele><time>2026-04-04T12:37:16.823Z</time></trkpt><trkpt lat="41.8912983" lon="-7.9466067"><ele>1066.0</ele><time>2026-04-04T12:37:17.823Z</time></trkpt><trkpt lat="41.891175" lon="-7.9465567"><ele>1066.0</ele><time>2026-04-04T12:37:18.823Z</time></trkpt><trkpt lat="41.8910567" lon="-7.9465017"><ele>1066.0</ele><time>2026-04-04T12:37:19.823Z</time></trkpt><trkpt lat="41.8909333" lon="-7.9464467"><ele>1066.0</ele><time>2026-04-04T12:37:20.824Z</time></trkpt><trkpt lat="41.8908133" lon="-7.9463867"><ele>1066.0</ele><time>2026-04-04T12:37:21.823Z</time></trkpt><trkpt lat="41.890705" lon="-7.946325"><ele>1066.2</ele><time>2026-04-04T12:37:22.823Z</time></trkpt><trkpt lat="41.8906217" lon="-7.9462617"><ele>1066.3999999999999</ele><time>2026-04-04T12:37:23.823Z</time></trkpt><trkpt lat="41.8905467" lon="-7.94618"><ele>1066.6</ele><time>2026-04-04T12:37:24.824Z</time></trkpt><trkpt lat="41.890475" lon="-7.9460783"><ele>1066.8</ele><time>2026-04-04T12:37:25.823Z</time></trkpt><trkpt lat="41.890395" lon="-7.945965"><ele>1067.0</ele><time>2026-04-04T12:37:26.823Z</time></trkpt><trkpt lat="41.890305" lon="-7.9458633"><ele>1069.25</ele><time>2026-04-04T12:37:27.823Z</time></trkpt><trkpt lat="41.8902017" lon="-7.94579"><ele>1071.5</ele><time>2026-04-04T12:37:28.822Z</time></trkpt><trkpt lat="41.89008" lon="-7.94574"><ele>1073.75</ele><time>2026-04-04T12:37:29.823Z</time></trkpt><trkpt lat="41.8899433" lon="-7.9457"><ele>1076.0</ele><time>2026-04-04T12:37:30.823Z</time></trkpt><trkpt lat="41.889795" lon="-7.9456667"><ele>1076.0</ele><time>2026-04-04T12:37:31.823Z</time></trkpt><trkpt lat="41.8896517" lon="-7.945635"><ele>1076.0</ele><time>2026-04-04T12:37:32.824Z</time></trkpt><trkpt lat="41.8895083" lon="-7.9455967"><ele>1076.0</ele><time>2026-04-04T12:37:33.822Z</time></trkpt><trkpt lat="41.8893667" lon="-7.945545"><ele>1076.0</ele><time>2026-04-04T12:37:34.823Z</time></trkpt><trkpt lat="41.88922" lon="-7.9454917"><ele>1076.0</ele><time>2026-04-04T12:37:35.824Z</time></trkpt><trkpt lat="41.8890817" lon="-7.9454333"><ele>1076.0</ele><time>2026-04-04T12:37:36.823Z</time></trkpt><trkpt lat="41.888945" lon="-7.9453717"><ele>1076.0</ele><time>2026-04-04T12:37:37.824Z</time></trkpt><trkpt lat="41.88881" lon="-7.945315"><ele>1076.0</ele><time>2026-04-04T12:37:38.823Z</time></trkpt><trkpt lat="41.8886833" lon="-7.9452517"><ele>1076.0</ele><time>2026-04-04T12:37:39.824Z</time></trkpt><trkpt lat="41.888555" lon="-7.9451767"><ele>1076.0</ele><time>2026-04-04T12:37:40.822Z</time></trkpt><trkpt lat="41.8884267" lon="-7.94508"><ele>1076.0</ele><time>2026-04-04T12:37:41.823Z</time></trkpt><trkpt lat="41.8882983" lon="-7.9449667"><ele>1076.0</ele><time>2026-04-04T12:37:42.823Z</time></trkpt><trkpt lat="41.8881717" lon="-7.9448483"><ele>1079.5</ele><time>2026-04-04T12:37:43.823Z</time></trkpt><trkpt lat="41.8880467" lon="-7.9447267"><ele>1083.0</ele><time>2026-04-04T12:37:44.823Z</time></trkpt><trkpt lat="41.8879333" lon="-7.9446183"><ele>1086.5</ele><time>2026-04-04T12:37:45.826Z</time></trkpt><trkpt lat="41.88783" lon="-7.9445133"><ele>1090.0</ele><time>2026-04-04T12:37:46.823Z</time></trkpt><trkpt lat="41.887745" lon="-7.944435"><ele>1090.0</ele><time>2026-04-04T12:37:47.823Z</time></trkpt><trkpt lat="41.8876783" lon="-7.9443817"><ele>1090.0</ele><time>2026-04-04T12:37:48.823Z</time></trkpt><trkpt lat="41.8875933" lon="-7.9443"><ele>1090.0</ele><time>2026-04-04T12:37:50.823Z</time></trkpt><trkpt lat="41.8875967" lon="-7.944205"><ele>1090.0</ele><time>2026-04-04T12:37:52.823Z</time></trkpt><trkpt lat="41.887645" lon="-7.9440633"><ele>1090.0</ele><time>2026-04-04T12:37:54.823Z</time></trkpt><trkpt lat="41.88768" lon="-7.9439333"><ele>1090.0</ele><time>2026-04-04T12:37:56.824Z</time></trkpt><trkpt lat="41.88773" lon="-7.94385"><ele>1090.0</ele><time>2026-04-04T12:37:58.823Z</time></trkpt><trkpt lat="41.8877867" lon="-7.9439033"><ele>1090.0</ele><time>2026-04-04T12:38:01.824Z</time></trkpt><trkpt lat="41.88779" lon="-7.9440133"><ele>1090.0</ele><time>2026-04-04T12:38:04.823Z</time></trkpt><trkpt lat="41.8877467" lon="-7.944145"><ele>1090.0</ele><time>2026-04-04T12:38:07.823Z</time></trkpt><trkpt lat="41.8876917" lon="-7.944275"><ele>1090.0</ele><time>2026-04-04T12:38:09.824Z</time></trkpt><trkpt lat="41.8876817" lon="-7.9443967"><ele>1090.0</ele><time>2026-04-04T12:38:11.824Z</time></trkpt><trkpt lat="41.8876617" lon="-7.9445367"><ele>1090.0</ele><time>2026-04-04T12:38:13.824Z</time></trkpt><trkpt lat="41.8876133" lon="-7.9446917"><ele>1090.0</ele><time>2026-04-04T12:38:15.825Z</time></trkpt><trkpt lat="41.8875733" lon="-7.9447883"><ele>1090.0</ele><time>2026-04-04T12:38:16.824Z</time></trkpt><trkpt lat="41.88753" lon="-7.9449"><ele>1090.0</ele><time>2026-04-04T12:38:17.825Z</time></trkpt><trkpt lat="41.8874833" lon="-7.9450233"><ele>1091.0</ele><time>2026-04-04T12:38:18.824Z</time></trkpt><trkpt lat="41.887425" lon="-7.9451717"><ele>1092.0</ele><time>2026-04-04T12:38:19.824Z</time></trkpt><trkpt lat="41.887365" lon="-7.9453133"><ele>1093.0</ele><time>2026-04-04T12:38:20.824Z</time></trkpt><trkpt lat="41.8872933" lon="-7.9454383"><ele>1094.0</ele><time>2026-04-04T12:38:21.824Z</time></trkpt><trkpt lat="41.8871967" lon="-7.945555"><ele>1094.0</ele><time>2026-04-04T12:38:22.824Z</time></trkpt><trkpt lat="41.887085" lon="-7.945655"><ele>1094.0</ele><time>2026-04-04T12:38:23.824Z</time></trkpt><trkpt lat="41.88695" lon="-7.9457517"><ele>1094.0</ele><time>2026-04-04T12:38:24.825Z</time></trkpt><trkpt lat="41.886805" lon="-7.9458517"><ele>1097.5</ele><time>2026-04-04T12:38:25.824Z</time></trkpt><trkpt lat="41.88668" lon="-7.945955"><ele>1101.0</ele><time>2026-04-04T12:38:26.825Z</time></trkpt><trkpt lat="41.8865967" lon="-7.9460533"><ele>1104.5</ele><time>2026-04-04T12:38:27.824Z</time></trkpt><trkpt lat="41.8865367" lon="-7.9461617"><ele>1108.0</ele><time>2026-04-04T12:38:28.825Z</time></trkpt><trkpt lat="41.8864983" lon="-7.9462817"><ele>1108.0</ele><time>2026-04-04T12:38:29.824Z</time></trkpt><trkpt lat="41.8864917" lon="-7.9464133"><ele>1108.0</ele><time>2026-04-04T12:38:30.826Z</time></trkpt><trkpt lat="41.8864883" lon="-7.9465517"><ele>1108.0</ele><time>2026-04-04T12:38:31.826Z</time></trkpt><trkpt lat="41.8864817" lon="-7.9466833"><ele>1108.0</ele><time>2026-04-04T12:38:32.824Z</time></trkpt><trkpt lat="41.88647" lon="-7.94681"><ele>1108.0</ele><time>2026-04-04T12:38:33.826Z</time></trkpt><trkpt lat="41.8864433" lon="-7.94691"><ele>1107.5</ele><time>2026-04-04T12:38:34.824Z</time></trkpt><trkpt lat="41.8864083" lon="-7.9469917"><ele>1107.0</ele><time>2026-04-04T12:38:35.825Z</time></trkpt><trkpt lat="41.886315" lon="-7.9470733"><ele>1106.5</ele><time>2026-04-04T12:38:37.825Z</time></trkpt><trkpt lat="41.8862533" lon="-7.9471133"><ele>1106.0</ele><time>2026-04-04T12:38:38.824Z</time></trkpt><trkpt lat="41.8861967" lon="-7.9471633"><ele>1105.5</ele><time>2026-04-04T12:38:39.825Z</time></trkpt><trkpt lat="41.8861417" lon="-7.9472167"><ele>1105.0</ele><time>2026-04-04T12:38:40.829Z</time></trkpt><trkpt lat="41.8860883" lon="-7.94727"><ele>1105.0</ele><time>2026-04-04T12:38:41.825Z</time></trkpt><trkpt lat="41.8860333" lon="-7.947325"><ele>1105.0</ele><time>2026-04-04T12:38:42.826Z</time></trkpt><trkpt lat="41.8859383" lon="-7.9474367"><ele>1105.0</ele><time>2026-04-04T12:38:44.825Z</time></trkpt><trkpt lat="41.8858883" lon="-7.9474933"><ele>1105.0</ele><time>2026-04-04T12:38:45.825Z</time></trkpt><trkpt lat="41.88584" lon="-7.9475483"><ele>1105.0</ele><time>2026-04-04T12:38:46.825Z</time></trkpt><trkpt lat="41.8857867" lon="-7.9476017"><ele>1105.0</ele><time>2026-04-04T12:38:47.826Z</time></trkpt><trkpt lat="41.8857317" lon="-7.947655"><ele>1106.6666666666665</ele><time>2026-04-04T12:38:48.825Z</time></trkpt><trkpt lat="41.885675" lon="-7.94771"><ele>1108.3333333333333</ele><time>2026-04-04T12:38:49.825Z</time></trkpt><trkpt lat="41.8856183" lon="-7.9477667"><ele>1110.0</ele><time>2026-04-04T12:38:50.825Z</time></trkpt><trkpt lat="41.8855533" lon="-7.9478283"><ele>1111.6666666666667</ele><time>2026-04-04T12:38:51.825Z</time></trkpt><trkpt lat="41.885485" lon="-7.94789"><ele>1113.3333333333335</ele><time>2026-04-04T12:38:52.825Z</time></trkpt><trkpt lat="41.8854217" lon="-7.9479583"><ele>1115.0</ele><time>2026-04-04T12:38:53.824Z</time></trkpt><trkpt lat="41.8853583" lon="-7.9480283"><ele>1115.0</ele><time>2026-04-04T12:38:54.825Z</time></trkpt><trkpt lat="41.885295" lon="-7.9481"><ele>1115.0</ele><time>2026-04-04T12:38:55.824Z</time></trkpt><trkpt lat="41.8852283" lon="-7.94817"><ele>1115.0</ele><time>2026-04-04T12:38:56.825Z</time></trkpt><trkpt lat="41.8851583" lon="-7.9482433"><ele>1115.0</ele><time>2026-04-04T12:38:57.825Z</time></trkpt><trkpt lat="41.885085" lon="-7.948325"><ele>1115.0</ele><time>2026-04-04T12:38:58.824Z</time></trkpt><trkpt lat="41.8849967" lon="-7.9484233"><ele>1117.25</ele><time>2026-04-04T12:38:59.824Z</time></trkpt><trkpt lat="41.8849083" lon="-7.948535"><ele>1119.5</ele><time>2026-04-04T12:39:00.825Z</time></trkpt><trkpt lat="41.8848167" lon="-7.9486483"><ele>1121.75</ele><time>2026-04-04T12:39:01.823Z</time></trkpt><trkpt lat="41.8847217" lon="-7.948755"><ele>1124.0</ele><time>2026-04-04T12:39:02.824Z</time></trkpt><trkpt lat="41.88462" lon="-7.948855"><ele>1124.0</ele><time>2026-04-04T12:39:03.823Z</time></trkpt><trkpt lat="41.8845133" lon="-7.9489483"><ele>1124.0</ele><time>2026-04-04T12:39:04.823Z</time></trkpt><trkpt lat="41.884395" lon="-7.9490283"><ele>1124.0</ele><time>2026-04-04T12:39:05.824Z</time></trkpt><trkpt lat="41.8842517" lon="-7.9490983"><ele>1124.0</ele><time>2026-04-04T12:39:06.825Z</time></trkpt><trkpt lat="41.8840883" lon="-7.9491717"><ele>1126.6666666666667</ele><time>2026-04-04T12:39:07.823Z</time></trkpt><trkpt lat="41.8839317" lon="-7.9492533"><ele>1129.3333333333333</ele><time>2026-04-04T12:39:08.823Z</time></trkpt><trkpt lat="41.88378" lon="-7.94935"><ele>1132.0</ele><time>2026-04-04T12:39:09.822Z</time></trkpt><trkpt lat="41.8836367" lon="-7.9494533"><ele>1132.0</ele><time>2026-04-04T12:39:10.822Z</time></trkpt><trkpt lat="41.8835" lon="-7.9495517"><ele>1132.0</ele><time>2026-04-04T12:39:11.823Z</time></trkpt><trkpt lat="41.883365" lon="-7.9496483"><ele>1132.0</ele><time>2026-04-04T12:39:12.823Z</time></trkpt><trkpt lat="41.883225" lon="-7.9497383"><ele>1135.3333333333333</ele><time>2026-04-04T12:39:13.823Z</time></trkpt><trkpt lat="41.8830817" lon="-7.9498217"><ele>1138.6666666666667</ele><time>2026-04-04T12:39:14.823Z</time></trkpt><trkpt lat="41.88294" lon="-7.949905"><ele>1142.0</ele><time>2026-04-04T12:39:15.826Z</time></trkpt><trkpt lat="41.8828" lon="-7.9499817"><ele>1142.0</ele><time>2026-04-04T12:39:16.822Z</time></trkpt><trkpt lat="41.88266" lon="-7.950055"><ele>1142.0</ele><time>2026-04-04T12:39:17.823Z</time></trkpt><trkpt lat="41.8825183" lon="-7.950125"><ele>1142.0</ele><time>2026-04-04T12:39:18.824Z</time></trkpt><trkpt lat="41.8823767" lon="-7.9502"><ele>1142.0</ele><time>2026-04-04T12:39:19.825Z</time></trkpt><trkpt lat="41.8822317" lon="-7.9502817"><ele>1142.0</ele><time>2026-04-04T12:39:20.824Z</time></trkpt><trkpt lat="41.882085" lon="-7.950365"><ele>1142.0</ele><time>2026-04-04T12:39:21.823Z</time></trkpt><trkpt lat="41.8819367" lon="-7.9504467"><ele>1142.0</ele><time>2026-04-04T12:39:22.824Z</time></trkpt><trkpt lat="41.8817883" lon="-7.9505333"><ele>1142.0</ele><time>2026-04-04T12:39:23.823Z</time></trkpt><trkpt lat="41.8816483" lon="-7.95062"><ele>1142.0</ele><time>2026-04-04T12:39:24.823Z</time></trkpt><trkpt lat="41.8815167" lon="-7.9507067"><ele>1141.8</ele><time>2026-04-04T12:39:25.823Z</time></trkpt><trkpt lat="41.8814067" lon="-7.9507917"><ele>1141.6</ele><time>2026-04-04T12:39:26.823Z</time></trkpt><trkpt lat="41.8813083" lon="-7.950875"><ele>1141.3999999999999</ele><time>2026-04-04T12:39:27.823Z</time></trkpt><trkpt lat="41.8812267" lon="-7.950965"><ele>1141.2</ele><time>2026-04-04T12:39:28.823Z</time></trkpt><trkpt lat="41.881155" lon="-7.9510433"><ele>1141.0</ele><time>2026-04-04T12:39:29.823Z</time></trkpt><trkpt lat="41.8810867" lon="-7.9511083"><ele>1141.0</ele><time>2026-04-04T12:39:30.823Z</time></trkpt><trkpt lat="41.8810167" lon="-7.9511483"><ele>1141.0</ele><time>2026-04-04T12:39:31.823Z</time></trkpt><trkpt lat="41.8809433" lon="-7.9511567"><ele>1141.0</ele><time>2026-04-04T12:39:32.823Z</time></trkpt><trkpt lat="41.8808567" lon="-7.951155"><ele>1141.0</ele><time>2026-04-04T12:39:33.823Z</time></trkpt><trkpt lat="41.8807483" lon="-7.9511583"><ele>1141.0</ele><time>2026-04-04T12:39:34.822Z</time></trkpt><trkpt lat="41.8806133" lon="-7.9511717"><ele>1145.75</ele><time>2026-04-04T12:39:35.822Z</time></trkpt><trkpt lat="41.8804617" lon="-7.9511933"><ele>1150.5</ele><time>2026-04-04T12:39:36.823Z</time></trkpt><trkpt lat="41.8803217" lon="-7.951225"><ele>1155.25</ele><time>2026-04-04T12:39:37.822Z</time></trkpt><trkpt lat="41.8801967" lon="-7.9512717"><ele>1160.0</ele><time>2026-04-04T12:39:38.823Z</time></trkpt><trkpt lat="41.8800833" lon="-7.9513317"><ele>1162.0</ele><time>2026-04-04T12:39:39.823Z</time></trkpt><trkpt lat="41.8799833" lon="-7.9514083"><ele>1164.0</ele><time>2026-04-04T12:39:40.823Z</time></trkpt><trkpt lat="41.8798833" lon="-7.9515"><ele>1166.0</ele><time>2026-04-04T12:39:41.823Z</time></trkpt><trkpt lat="41.8797883" lon="-7.9516083"><ele>1168.0</ele><time>2026-04-04T12:39:42.823Z</time></trkpt><trkpt lat="41.8796967" lon="-7.9517483"><ele>1170.0</ele><time>2026-04-04T12:39:43.823Z</time></trkpt><trkpt lat="41.8796067" lon="-7.9518967"><ele>1172.0</ele><time>2026-04-04T12:39:44.825Z</time></trkpt><trkpt lat="41.8795133" lon="-7.9520317"><ele>1174.0</ele><time>2026-04-04T12:39:45.822Z</time></trkpt><trkpt lat="41.8794017" lon="-7.9521417"><ele>1176.0</ele><time>2026-04-04T12:39:46.822Z</time></trkpt><trkpt lat="41.8792717" lon="-7.9522317"><ele>1177.5</ele><time>2026-04-04T12:39:47.823Z</time></trkpt><trkpt lat="41.8791417" lon="-7.9523"><ele>1179.0</ele><time>2026-04-04T12:39:48.824Z</time></trkpt><trkpt lat="41.8790267" lon="-7.9523617"><ele>1180.5</ele><time>2026-04-04T12:39:49.823Z</time></trkpt><trkpt lat="41.8789183" lon="-7.9524317"><ele>1182.0</ele><time>2026-04-04T12:39:50.823Z</time></trkpt><trkpt lat="41.8788117" lon="-7.9525183"><ele>1186.25</ele><time>2026-04-04T12:39:51.823Z</time></trkpt><trkpt lat="41.8786967" lon="-7.9526167"><ele>1190.5</ele><time>2026-04-04T12:39:52.822Z</time></trkpt><trkpt lat="41.878585" lon="-7.9527117"><ele>1194.75</ele><time>2026-04-04T12:39:53.824Z</time></trkpt><trkpt lat="41.87848" lon="-7.9527817"><ele>1199.0</ele><time>2026-04-04T12:39:54.823Z</time></trkpt><trkpt lat="41.87837" lon="-7.952825"><ele>1199.0</ele><time>2026-04-04T12:39:55.823Z</time></trkpt><trkpt lat="41.8782467" lon="-7.9528467"><ele>1199.0</ele><time>2026-04-04T12:39:56.824Z</time></trkpt><trkpt lat="41.87813" lon="-7.9528583"><ele>1199.0</ele><time>2026-04-04T12:39:57.823Z</time></trkpt><trkpt lat="41.8780283" lon="-7.9528767"><ele>1199.0</ele><time>2026-04-04T12:39:58.822Z</time></trkpt><trkpt lat="41.87794" lon="-7.952915"><ele>1199.0</ele><time>2026-04-04T12:39:59.823Z</time></trkpt><trkpt lat="41.877855" lon="-7.9529867"><ele>1199.0</ele><time>2026-04-04T12:40:00.824Z</time></trkpt><trkpt lat="41.877775" lon="-7.95308"><ele>1199.0</ele><time>2026-04-04T12:40:01.823Z</time></trkpt><trkpt lat="41.877705" lon="-7.953165"><ele>1199.0</ele><time>2026-04-04T12:40:02.824Z</time></trkpt><trkpt lat="41.8776483" lon="-7.95323"><ele>1199.0</ele><time>2026-04-04T12:40:03.822Z</time></trkpt><trkpt lat="41.8775717" lon="-7.9532517"><ele>1199.0</ele><time>2026-04-04T12:40:05.823Z</time></trkpt><trkpt lat="41.8775267" lon="-7.95313"><ele>1198.6666666666667</ele><time>2026-04-04T12:40:07.823Z</time></trkpt><trkpt lat="41.8775167" lon="-7.9529983"><ele>1198.3333333333335</ele><time>2026-04-04T12:40:08.824Z</time></trkpt><trkpt lat="41.8775017" lon="-7.9528733"><ele>1198.0</ele><time>2026-04-04T12:40:09.824Z</time></trkpt><trkpt lat="41.8774783" lon="-7.952765"><ele>1197.6666666666667</ele><time>2026-04-04T12:40:10.822Z</time></trkpt><trkpt lat="41.8774467" lon="-7.9526783"><ele>1197.3333333333333</ele><time>2026-04-04T12:40:11.823Z</time></trkpt><trkpt lat="41.87741" lon="-7.9526083"><ele>1197.0</ele><time>2026-04-04T12:40:12.823Z</time></trkpt><trkpt lat="41.87734" lon="-7.9525517"><ele>1194.75</ele><time>2026-04-04T12:40:13.822Z</time></trkpt><trkpt lat="41.8772233" lon="-7.9525083"><ele>1192.5</ele><time>2026-04-04T12:40:14.823Z</time></trkpt><trkpt lat="41.877095" lon="-7.9524617"><ele>1190.25</ele><time>2026-04-04T12:40:15.823Z</time></trkpt><trkpt lat="41.8769467" lon="-7.9524"><ele>1188.0</ele><time>2026-04-04T12:40:16.826Z</time></trkpt><trkpt lat="41.876795" lon="-7.95233"><ele>1190.25</ele><time>2026-04-04T12:40:17.824Z</time></trkpt><trkpt lat="41.8766517" lon="-7.952275"><ele>1192.5</ele><time>2026-04-04T12:40:18.824Z</time></trkpt><trkpt lat="41.8765433" lon="-7.952265"><ele>1194.75</ele><time>2026-04-04T12:40:19.823Z</time></trkpt><trkpt lat="41.876445" lon="-7.95228"><ele>1197.0</ele><time>2026-04-04T12:40:20.823Z</time></trkpt><trkpt lat="41.8763533" lon="-7.9523183"><ele>1197.0</ele><time>2026-04-04T12:40:21.823Z</time></trkpt><trkpt lat="41.87626" lon="-7.952365"><ele>1197.0</ele><time>2026-04-04T12:40:22.823Z</time></trkpt><trkpt lat="41.8761667" lon="-7.9524217"><ele>1197.0</ele><time>2026-04-04T12:40:23.823Z</time></trkpt><trkpt lat="41.8760717" lon="-7.9524833"><ele>1197.0</ele><time>2026-04-04T12:40:24.823Z</time></trkpt><trkpt lat="41.875975" lon="-7.9525433"><ele>1197.0</ele><time>2026-04-04T12:40:25.823Z</time></trkpt><trkpt lat="41.87588" lon="-7.9526033"><ele>1200.0</ele><time>2026-04-04T12:40:26.823Z</time></trkpt><trkpt lat="41.87579" lon="-7.9526583"><ele>1203.0</ele><time>2026-04-04T12:40:27.823Z</time></trkpt><trkpt lat="41.8757183" lon="-7.95271"><ele>1206.0</ele><time>2026-04-04T12:40:28.823Z</time></trkpt><trkpt lat="41.875655" lon="-7.952755"><ele>1209.0</ele><time>2026-04-04T12:40:29.823Z</time></trkpt><trkpt lat="41.8755517" lon="-7.9527933"><ele>1212.0</ele><time>2026-04-04T12:40:31.823Z</time></trkpt><trkpt lat="41.87547" lon="-7.9527583"><ele>1215.0</ele><time>2026-04-04T12:40:33.824Z</time></trkpt><trkpt lat="41.8753683" lon="-7.9526683"><ele>1215.0</ele><time>2026-04-04T12:40:35.824Z</time></trkpt><trkpt lat="41.8753117" lon="-7.9526183"><ele>1215.0</ele><time>2026-04-04T12:40:36.824Z</time></trkpt><trkpt lat="41.8752217" lon="-7.9525317"><ele>1215.0</ele><time>2026-04-04T12:40:38.824Z</time></trkpt><trkpt lat="41.8751517" lon="-7.9524433"><ele>1215.0</ele><time>2026-04-04T12:40:40.823Z</time></trkpt><trkpt lat="41.8751083" lon="-7.9523667"><ele>1215.0</ele><time>2026-04-04T12:40:41.824Z</time></trkpt><trkpt lat="41.87506" lon="-7.9522867"><ele>1215.0</ele><time>2026-04-04T12:40:42.823Z</time></trkpt><trkpt lat="41.87501" lon="-7.9521983"><ele>1213.5</ele><time>2026-04-04T12:40:43.823Z</time></trkpt><trkpt lat="41.87496" lon="-7.9521"><ele>1212.0</ele><time>2026-04-04T12:40:44.823Z</time></trkpt><trkpt lat="41.8749033" lon="-7.9519933"><ele>1210.5</ele><time>2026-04-04T12:40:45.823Z</time></trkpt><trkpt lat="41.87485" lon="-7.9519"><ele>1209.0</ele><time>2026-04-04T12:40:46.822Z</time></trkpt><trkpt lat="41.874785" lon="-7.9518217"><ele>1207.5</ele><time>2026-04-04T12:40:47.823Z</time></trkpt><trkpt lat="41.8747133" lon="-7.9517567"><ele>1206.0</ele><time>2026-04-04T12:40:48.823Z</time></trkpt><trkpt lat="41.8746317" lon="-7.9516983"><ele>1206.0</ele><time>2026-04-04T12:40:49.823Z</time></trkpt><trkpt lat="41.8745383" lon="-7.95165"><ele>1206.0</ele><time>2026-04-04T12:40:50.823Z</time></trkpt><trkpt lat="41.8744383" lon="-7.951625"><ele>1206.0</ele><time>2026-04-04T12:40:51.823Z</time></trkpt><trkpt lat="41.8743433" lon="-7.9516267"><ele>1206.0</ele><time>2026-04-04T12:40:52.823Z</time></trkpt><trkpt lat="41.8742417" lon="-7.9516533"><ele>1206.0</ele><time>2026-04-04T12:40:53.823Z</time></trkpt><trkpt lat="41.8741433" lon="-7.951705"><ele>1208.25</ele><time>2026-04-04T12:40:54.824Z</time></trkpt><trkpt lat="41.8740383" lon="-7.9517733"><ele>1210.5</ele><time>2026-04-04T12:40:55.824Z</time></trkpt><trkpt lat="41.8739167" lon="-7.9518833"><ele>1212.75</ele><time>2026-04-04T12:40:56.823Z</time></trkpt><trkpt lat="41.87378" lon="-7.9520267"><ele>1215.0</ele><time>2026-04-04T12:40:57.823Z</time></trkpt><trkpt lat="41.8736567" lon="-7.9521667"><ele>1215.0</ele><time>2026-04-04T12:40:58.823Z</time></trkpt><trkpt lat="41.8735467" lon="-7.952295"><ele>1215.0</ele><time>2026-04-04T12:40:59.824Z</time></trkpt><trkpt lat="41.87345" lon="-7.9524083"><ele>1215.0</ele><time>2026-04-04T12:41:00.823Z</time></trkpt><trkpt lat="41.8733733" lon="-7.9525"><ele>1215.0</ele><time>2026-04-04T12:41:01.823Z</time></trkpt><trkpt lat="41.87331" lon="-7.9525583"><ele>1214.1666666666667</ele><time>2026-04-04T12:41:02.823Z</time></trkpt><trkpt lat="41.8732533" lon="-7.9525983"><ele>1213.3333333333333</ele><time>2026-04-04T12:41:03.824Z</time></trkpt><trkpt lat="41.87318" lon="-7.9525867"><ele>1212.5</ele><time>2026-04-04T12:41:05.824Z</time></trkpt><trkpt lat="41.8731433" lon="-7.9524983"><ele>1211.6666666666665</ele><time>2026-04-04T12:41:06.824Z</time></trkpt><trkpt lat="41.87311" lon="-7.9524"><ele>1210.8333333333333</ele><time>2026-04-04T12:41:07.823Z</time></trkpt><trkpt lat="41.873075" lon="-7.9522783"><ele>1210.0</ele><time>2026-04-04T12:41:08.824Z</time></trkpt><trkpt lat="41.873035" lon="-7.951965"><ele>1210.0</ele><time>2026-04-04T12:41:09.823Z</time></trkpt><trkpt lat="41.8729967" lon="-7.95183"><ele>1210.0</ele><time>2026-04-04T12:41:10.823Z</time></trkpt><trkpt lat="41.87292" lon="-7.9516867"><ele>1210.0</ele><time>2026-04-04T12:41:11.824Z</time></trkpt><trkpt lat="41.8728333" lon="-7.9515483"><ele>1210.0</ele><time>2026-04-04T12:41:12.824Z</time></trkpt><trkpt lat="41.87273" lon="-7.9513817"><ele>1210.6666666666665</ele><time>2026-04-04T12:41:13.823Z</time></trkpt><trkpt lat="41.8726133" lon="-7.9511933"><ele>1211.3333333333333</ele><time>2026-04-04T12:41:14.823Z</time></trkpt><trkpt lat="41.8725017" lon="-7.95099"><ele>1212.0</ele><time>2026-04-04T12:41:15.823Z</time></trkpt><trkpt lat="41.8723917" lon="-7.9507967"><ele>1208.75</ele><time>2026-04-04T12:41:16.824Z</time></trkpt><trkpt lat="41.8722983" lon="-7.9506267"><ele>1205.5</ele><time>2026-04-04T12:41:17.824Z</time></trkpt><trkpt lat="41.8722133" lon="-7.95047"><ele>1202.25</ele><time>2026-04-04T12:41:18.823Z</time></trkpt><trkpt lat="41.8721283" lon="-7.9503283"><ele>1199.0</ele><time>2026-04-04T12:41:19.824Z</time></trkpt><trkpt lat="41.872045" lon="-7.95019"><ele>1199.0</ele><time>2026-04-04T12:41:20.824Z</time></trkpt><trkpt lat="41.871955" lon="-7.9500567"><ele>1199.0</ele><time>2026-04-04T12:41:21.823Z</time></trkpt><trkpt lat="41.8718633" lon="-7.949925"><ele>1199.0</ele><time>2026-04-04T12:41:22.823Z</time></trkpt><trkpt lat="41.8717767" lon="-7.949795"><ele>1199.0</ele><time>2026-04-04T12:41:23.824Z</time></trkpt><trkpt lat="41.8716883" lon="-7.9496633"><ele>1199.25</ele><time>2026-04-04T12:41:24.824Z</time></trkpt><trkpt lat="41.8716067" lon="-7.9495433"><ele>1199.5</ele><time>2026-04-04T12:41:25.824Z</time></trkpt><trkpt lat="41.8715283" lon="-7.94943"><ele>1199.75</ele><time>2026-04-04T12:41:26.824Z</time></trkpt><trkpt lat="41.8714533" lon="-7.9493183"><ele>1200.0</ele><time>2026-04-04T12:41:27.823Z</time></trkpt><trkpt lat="41.8713817" lon="-7.9492117"><ele>1198.3333333333333</ele><time>2026-04-04T12:41:28.825Z</time></trkpt><trkpt lat="41.87132" lon="-7.949115"><ele>1196.6666666666667</ele><time>2026-04-04T12:41:29.825Z</time></trkpt><trkpt lat="41.871265" lon="-7.949045"><ele>1195.0</ele><time>2026-04-04T12:41:30.824Z</time></trkpt><trkpt lat="41.8711817" lon="-7.9489583"><ele>1193.3333333333335</ele><time>2026-04-04T12:41:32.824Z</time></trkpt><trkpt lat="41.8711267" lon="-7.9489083"><ele>1191.6666666666667</ele><time>2026-04-04T12:41:34.824Z</time></trkpt><trkpt lat="41.8710967" lon="-7.94882"><ele>1190.0</ele><time>2026-04-04T12:43:11.823Z</time></trkpt><trkpt lat="41.8710583" lon="-7.9486933"><ele>1190.0</ele><time>2026-04-04T12:43:13.823Z</time></trkpt><trkpt lat="41.8709917" lon="-7.9486167"><ele>1190.0</ele><time>2026-04-04T12:43:15.824Z</time></trkpt><trkpt lat="41.87089" lon="-7.948595"><ele>1190.0</ele><time>2026-04-04T12:43:17.823Z</time></trkpt><trkpt lat="41.8708183" lon="-7.9486283"><ele>1190.0</ele><time>2026-04-04T12:43:18.826Z</time></trkpt><trkpt lat="41.8707283" lon="-7.94868"><ele>1190.0</ele><time>2026-04-04T12:43:19.823Z</time></trkpt><trkpt lat="41.8706367" lon="-7.94871"><ele>1190.3333333333335</ele><time>2026-04-04T12:43:20.824Z</time></trkpt><trkpt lat="41.87054" lon="-7.9487217"><ele>1190.6666666666667</ele><time>2026-04-04T12:43:21.824Z</time></trkpt><trkpt lat="41.8704433" lon="-7.9487283"><ele>1191.0</ele><time>2026-04-04T12:43:22.824Z</time></trkpt><trkpt lat="41.8701733" lon="-7.9487967"><ele>1190.0</ele><time>2026-04-04T12:43:25.355Z</time></trkpt><trkpt lat="41.8700483" lon="-7.94886"><ele>1189.0</ele><time>2026-04-04T12:43:26.323Z</time></trkpt><trkpt lat="41.8699183" lon="-7.9489133"><ele>1188.0</ele><time>2026-04-04T12:43:27.822Z</time></trkpt><trkpt lat="41.8698433" lon="-7.9489517"><ele>1187.0</ele><time>2026-04-04T12:43:28.822Z</time></trkpt><trkpt lat="41.869765" lon="-7.9489867"><ele>1186.0</ele><time>2026-04-04T12:43:29.822Z</time></trkpt><trkpt lat="41.86968" lon="-7.9490267"><ele>1186.0</ele><time>2026-04-04T12:43:30.824Z</time></trkpt><trkpt lat="41.8696" lon="-7.949075"><ele>1186.0</ele><time>2026-04-04T12:43:31.823Z</time></trkpt><trkpt lat="41.8695183" lon="-7.9491283"><ele>1186.0</ele><time>2026-04-04T12:43:32.823Z</time></trkpt><trkpt lat="41.8694333" lon="-7.94919"><ele>1186.0</ele><time>2026-04-04T12:43:33.823Z</time></trkpt><trkpt lat="41.8693483" lon="-7.9492567"><ele>1186.0</ele><time>2026-04-04T12:43:34.824Z</time></trkpt><trkpt lat="41.8692667" lon="-7.949325"><ele>1184.2</ele><time>2026-04-04T12:43:35.824Z</time></trkpt><trkpt lat="41.8691933" lon="-7.9494017"><ele>1182.3999999999999</ele><time>2026-04-04T12:43:36.822Z</time></trkpt><trkpt lat="41.8691267" lon="-7.9494817"><ele>1180.6</ele><time>2026-04-04T12:43:37.822Z</time></trkpt><trkpt lat="41.8690617" lon="-7.9495733"><ele>1178.8</ele><time>2026-04-04T12:43:38.823Z</time></trkpt><trkpt lat="41.8689983" lon="-7.949675"><ele>1177.0</ele><time>2026-04-04T12:43:39.822Z</time></trkpt><trkpt lat="41.8689417" lon="-7.949765"><ele>1177.0</ele><time>2026-04-04T12:43:40.824Z</time></trkpt><trkpt lat="41.8690883" lon="-7.94981"><ele>1177.0</ele><time>2026-04-04T12:43:41.739Z</time></trkpt><trkpt lat="41.8689617" lon="-7.9498317"><ele>1177.0</ele><time>2026-04-04T12:43:42.824Z</time></trkpt><trkpt lat="41.86889" lon="-7.9498583"><ele>1177.0</ele><time>2026-04-04T12:43:43.822Z</time></trkpt><trkpt lat="41.8688083" lon="-7.949865"><ele>1177.0</ele><time>2026-04-04T12:43:44.825Z</time></trkpt><trkpt lat="41.8687117" lon="-7.94987"><ele>1177.0</ele><time>2026-04-04T12:43:45.823Z</time></trkpt><trkpt lat="41.8686017" lon="-7.9498833"><ele>1177.0</ele><time>2026-04-04T12:43:46.823Z</time></trkpt><trkpt lat="41.8684867" lon="-7.9498983"><ele>1177.0</ele><time>2026-04-04T12:43:47.823Z</time></trkpt><trkpt lat="41.8683633" lon="-7.949915"><ele>1177.0</ele><time>2026-04-04T12:43:48.823Z</time></trkpt><trkpt lat="41.8682333" lon="-7.9499333"><ele>1176.25</ele><time>2026-04-04T12:43:49.822Z</time></trkpt><trkpt lat="41.8681117" lon="-7.9499383"><ele>1175.5</ele><time>2026-04-04T12:43:50.823Z</time></trkpt><trkpt lat="41.8679783" lon="-7.9499467"><ele>1174.75</ele><time>2026-04-04T12:43:51.823Z</time></trkpt><trkpt lat="41.8678633" lon="-7.9499733"><ele>1174.0</ele><time>2026-04-04T12:43:52.822Z</time></trkpt><trkpt lat="41.8677567" lon="-7.9500167"><ele>1175.75</ele><time>2026-04-04T12:43:53.823Z</time></trkpt><trkpt lat="41.86765" lon="-7.9500867"><ele>1177.5</ele><time>2026-04-04T12:43:54.824Z</time></trkpt><trkpt lat="41.8675417" lon="-7.950175"><ele>1179.25</ele><time>2026-04-04T12:43:55.825Z</time></trkpt><trkpt lat="41.867435" lon="-7.9502767"><ele>1181.0</ele><time>2026-04-04T12:43:56.823Z</time></trkpt><trkpt lat="41.867325" lon="-7.950385"><ele>1181.0</ele><time>2026-04-04T12:43:57.822Z</time></trkpt><trkpt lat="41.8672183" lon="-7.9504917"><ele>1181.0</ele><time>2026-04-04T12:43:58.822Z</time></trkpt><trkpt lat="41.8671333" lon="-7.9505867"><ele>1181.0</ele><time>2026-04-04T12:43:59.823Z</time></trkpt><trkpt lat="41.8670733" lon="-7.95066"><ele>1181.0</ele><time>2026-04-04T12:44:00.823Z</time></trkpt><trkpt lat="41.8670267" lon="-7.9507217"><ele>1181.0</ele><time>2026-04-04T12:44:01.823Z</time></trkpt><trkpt lat="41.8669767" lon="-7.9507733"><ele>1181.0</ele><time>2026-04-04T12:44:02.823Z</time></trkpt><trkpt lat="41.8668717" lon="-7.9508533"><ele>1181.0</ele><time>2026-04-04T12:44:04.823Z</time></trkpt><trkpt lat="41.8667717" lon="-7.9509017"><ele>1181.0</ele><time>2026-04-04T12:44:06.823Z</time></trkpt><trkpt lat="41.866645" lon="-7.95093"><ele>1181.0</ele><time>2026-04-04T12:44:08.823Z</time></trkpt><trkpt lat="41.8665583" lon="-7.95094"><ele>1181.0</ele><time>2026-04-04T12:44:09.823Z</time></trkpt><trkpt lat="41.86648" lon="-7.95095"><ele>1181.5</ele><time>2026-04-04T12:44:10.822Z</time></trkpt><trkpt lat="41.8664167" lon="-7.9509617"><ele>1182.0</ele><time>2026-04-04T12:44:11.823Z</time></trkpt><trkpt lat="41.866325" lon="-7.9509817"><ele>1182.5</ele><time>2026-04-04T12:44:13.823Z</time></trkpt><trkpt lat="41.866245" lon="-7.950985"><ele>1183.0</ele><time>2026-04-04T12:44:47.823Z</time></trkpt><trkpt lat="41.866145" lon="-7.9509567"><ele>1183.5</ele><time>2026-04-04T12:44:49.823Z</time></trkpt><trkpt lat="41.8660683" lon="-7.9509333"><ele>1184.0</ele><time>2026-04-04T12:44:50.823Z</time></trkpt><trkpt lat="41.8659817" lon="-7.95091"><ele>1183.3333333333335</ele><time>2026-04-04T12:44:51.823Z</time></trkpt><trkpt lat="41.86588" lon="-7.9508817"><ele>1182.6666666666667</ele><time>2026-04-04T12:44:52.823Z</time></trkpt><trkpt lat="41.86579" lon="-7.9508583"><ele>1182.0</ele><time>2026-04-04T12:44:53.823Z</time></trkpt><trkpt lat="41.8657067" lon="-7.9508267"><ele>1181.3333333333333</ele><time>2026-04-04T12:44:54.826Z</time></trkpt><trkpt lat="41.8656333" lon="-7.9507883"><ele>1180.6666666666665</ele><time>2026-04-04T12:44:55.824Z</time></trkpt><trkpt lat="41.865565" lon="-7.9507467"><ele>1180.0</ele><time>2026-04-04T12:44:56.823Z</time></trkpt><trkpt lat="41.8655" lon="-7.9506967"><ele>1178.1666666666665</ele><time>2026-04-04T12:44:57.823Z</time></trkpt><trkpt lat="41.865435" lon="-7.950645"><ele>1176.3333333333333</ele><time>2026-04-04T12:44:58.823Z</time></trkpt><trkpt lat="41.865385" lon="-7.9505917"><ele>1174.5</ele><time>2026-04-04T12:44:59.824Z</time></trkpt><trkpt lat="41.8652933" lon="-7.95049"><ele>1172.6666666666667</ele><time>2026-04-04T12:45:01.823Z</time></trkpt><trkpt lat="41.8651833" lon="-7.9504233"><ele>1170.8333333333335</ele><time>2026-04-04T12:45:03.824Z</time></trkpt><trkpt lat="41.8651183" lon="-7.9504167"><ele>1169.0</ele><time>2026-04-04T12:45:04.824Z</time></trkpt><trkpt lat="41.8650433" lon="-7.9504117"><ele>1168.8</ele><time>2026-04-04T12:45:05.824Z</time></trkpt><trkpt lat="41.8649717" lon="-7.9504167"><ele>1168.6000000000001</ele><time>2026-04-04T12:45:06.824Z</time></trkpt><trkpt lat="41.8648833" lon="-7.9504267"><ele>1168.4</ele><time>2026-04-04T12:45:07.823Z</time></trkpt><trkpt lat="41.864785" lon="-7.9504383"><ele>1168.2</ele><time>2026-04-04T12:45:08.824Z</time></trkpt><trkpt lat="41.8646867" lon="-7.9504533"><ele>1168.0</ele><time>2026-04-04T12:45:09.823Z</time></trkpt><trkpt lat="41.8645933" lon="-7.9504683"><ele>1168.0</ele><time>2026-04-04T12:45:10.823Z</time></trkpt><trkpt lat="41.8645167" lon="-7.950475"><ele>1168.0</ele><time>2026-04-04T12:45:11.824Z</time></trkpt><trkpt lat="41.8644533" lon="-7.95048"><ele>1168.0</ele><time>2026-04-04T12:45:12.824Z</time></trkpt><trkpt lat="41.86437" lon="-7.9504783"><ele>1168.0</ele><time>2026-04-04T12:45:14.824Z</time></trkpt><trkpt lat="41.8642683" lon="-7.9504567"><ele>1168.0</ele><time>2026-04-04T12:45:16.823Z</time></trkpt><trkpt lat="41.8641967" lon="-7.9504383"><ele>1168.0</ele><time>2026-04-04T12:45:17.823Z</time></trkpt><trkpt lat="41.8641217" lon="-7.95042"><ele>1166.1666666666665</ele><time>2026-04-04T12:45:18.826Z</time></trkpt><trkpt lat="41.8640517" lon="-7.950405"><ele>1164.3333333333333</ele><time>2026-04-04T12:45:19.822Z</time></trkpt><trkpt lat="41.8639867" lon="-7.95039"><ele>1162.5</ele><time>2026-04-04T12:45:20.822Z</time></trkpt><trkpt lat="41.8638833" lon="-7.950355"><ele>1160.6666666666667</ele><time>2026-04-04T12:45:22.823Z</time></trkpt><trkpt lat="41.863815" lon="-7.9503167"><ele>1158.8333333333335</ele><time>2026-04-04T12:45:24.823Z</time></trkpt><trkpt lat="41.8637267" lon="-7.9502567"><ele>1157.0</ele><time>2026-04-04T12:45:27.826Z</time></trkpt><trkpt lat="41.8636417" lon="-7.9502083"><ele>1157.0</ele><time>2026-04-04T12:45:29.823Z</time></trkpt><trkpt lat="41.8635617" lon="-7.9501783"><ele>1157.0</ele><time>2026-04-04T12:45:31.827Z</time></trkpt><trkpt lat="41.8634917" lon="-7.9501683"><ele>1157.0</ele><time>2026-04-04T12:45:33.824Z</time></trkpt><trkpt lat="41.8634267" lon="-7.950175"><ele>1157.0</ele><time>2026-04-04T12:45:35.823Z</time></trkpt><trkpt lat="41.8633267" lon="-7.950195"><ele>1157.0</ele><time>2026-04-04T12:45:37.825Z</time></trkpt><trkpt lat="41.86325" lon="-7.9502033"><ele>1157.0</ele><time>2026-04-04T12:45:38.826Z</time></trkpt><trkpt lat="41.863155" lon="-7.9502067"><ele>1157.0</ele><time>2026-04-04T12:45:39.825Z</time></trkpt><trkpt lat="41.8630417" lon="-7.9502183"><ele>1157.0</ele><time>2026-04-04T12:45:40.824Z</time></trkpt><trkpt lat="41.8629133" lon="-7.9502317"><ele>1157.0</ele><time>2026-04-04T12:45:41.823Z</time></trkpt><trkpt lat="41.8628117" lon="-7.9502433"><ele>1157.0</ele><time>2026-04-04T12:45:42.825Z</time></trkpt><trkpt lat="41.8627183" lon="-7.9502583"><ele>1157.0</ele><time>2026-04-04T12:45:43.824Z</time></trkpt><trkpt lat="41.8626183" lon="-7.95027"><ele>1157.5</ele><time>2026-04-04T12:45:44.824Z</time></trkpt><trkpt lat="41.862495" lon="-7.950285"><ele>1158.0</ele><time>2026-04-04T12:45:45.826Z</time></trkpt><trkpt lat="41.8623383" lon="-7.9503"><ele>1158.5</ele><time>2026-04-04T12:45:46.822Z</time></trkpt><trkpt lat="41.8621867" lon="-7.95033"><ele>1159.0</ele><time>2026-04-04T12:45:47.823Z</time></trkpt><trkpt lat="41.8620467" lon="-7.9503667"><ele>1159.0</ele><time>2026-04-04T12:45:48.823Z</time></trkpt><trkpt lat="41.8619267" lon="-7.9503983"><ele>1159.0</ele><time>2026-04-04T12:45:49.824Z</time></trkpt><trkpt lat="41.8618417" lon="-7.9504167"><ele>1159.0</ele><time>2026-04-04T12:45:50.825Z</time></trkpt><trkpt lat="41.861735" lon="-7.9504567"><ele>1159.0</ele><time>2026-04-04T12:45:52.823Z</time></trkpt><trkpt lat="41.86166" lon="-7.950495"><ele>1159.0</ele><time>2026-04-04T12:45:54.826Z</time></trkpt><trkpt lat="41.8615517" lon="-7.95054"><ele>1158.6000000000001</ele><time>2026-04-04T12:45:56.823Z</time></trkpt><trkpt lat="41.8614833" lon="-7.9505633"><ele>1158.2</ele><time>2026-04-04T12:45:57.823Z</time></trkpt><trkpt lat="41.86141" lon="-7.9505733"><ele>1157.8000000000002</ele><time>2026-04-04T12:45:58.823Z</time></trkpt><trkpt lat="41.8613267" lon="-7.9505617"><ele>1157.4</ele><time>2026-04-04T12:45:59.826Z</time></trkpt><trkpt lat="41.8612233" lon="-7.95051"><ele>1157.0</ele><time>2026-04-04T12:46:00.826Z</time></trkpt><trkpt lat="41.8610917" lon="-7.95042"><ele>1157.0</ele><time>2026-04-04T12:46:01.826Z</time></trkpt><trkpt lat="41.860965" lon="-7.9503367"><ele>1157.0</ele><time>2026-04-04T12:46:02.823Z</time></trkpt><trkpt lat="41.86085" lon="-7.9502683"><ele>1157.0</ele><time>2026-04-04T12:46:03.823Z</time></trkpt><trkpt lat="41.8607267" lon="-7.9502233"><ele>1157.0</ele><time>2026-04-04T12:46:04.822Z</time></trkpt><trkpt lat="41.8606" lon="-7.9501883"><ele>1158.0</ele><time>2026-04-04T12:46:05.823Z</time></trkpt><trkpt lat="41.8604733" lon="-7.95016"><ele>1159.0</ele><time>2026-04-04T12:46:06.823Z</time></trkpt><trkpt lat="41.860345" lon="-7.950135"><ele>1160.0</ele><time>2026-04-04T12:46:07.822Z</time></trkpt><trkpt lat="41.860215" lon="-7.9501167"><ele>1161.0</ele><time>2026-04-04T12:46:08.823Z</time></trkpt><trkpt lat="41.860085" lon="-7.950105"><ele>1161.0</ele><time>2026-04-04T12:46:09.822Z</time></trkpt><trkpt lat="41.859965" lon="-7.950085"><ele>1161.0</ele><time>2026-04-04T12:46:10.822Z</time></trkpt><trkpt lat="41.8598467" lon="-7.950045"><ele>1161.0</ele><time>2026-04-04T12:46:11.824Z</time></trkpt><trkpt lat="41.8597233" lon="-7.9499883"><ele>1161.0</ele><time>2026-04-04T12:46:12.823Z</time></trkpt><trkpt lat="41.8596017" lon="-7.9499283"><ele>1159.5</ele><time>2026-04-04T12:46:13.824Z</time></trkpt><trkpt lat="41.8594833" lon="-7.9498683"><ele>1158.0</ele><time>2026-04-04T12:46:14.822Z</time></trkpt><trkpt lat="41.8593633" lon="-7.94981"><ele>1156.5</ele><time>2026-04-04T12:46:15.823Z</time></trkpt><trkpt lat="41.8592417" lon="-7.9497517"><ele>1155.0</ele><time>2026-04-04T12:46:16.823Z</time></trkpt><trkpt lat="41.8591183" lon="-7.9496967"><ele>1155.0</ele><time>2026-04-04T12:46:17.823Z</time></trkpt><trkpt lat="41.859" lon="-7.9496483"><ele>1155.0</ele><time>2026-04-04T12:46:18.823Z</time></trkpt><trkpt lat="41.8588883" lon="-7.94961"><ele>1155.0</ele><time>2026-04-04T12:46:19.823Z</time></trkpt><trkpt lat="41.8587817" lon="-7.949585"><ele>1155.0</ele><time>2026-04-04T12:46:20.823Z</time></trkpt><trkpt lat="41.8586733" lon="-7.9495667"><ele>1155.0</ele><time>2026-04-04T12:46:21.823Z</time></trkpt><trkpt lat="41.858555" lon="-7.9495533"><ele>1155.0</ele><time>2026-04-04T12:46:22.822Z</time></trkpt><trkpt lat="41.8584383" lon="-7.9495633"><ele>1155.0</ele><time>2026-04-04T12:46:23.823Z</time></trkpt><trkpt lat="41.8583217" lon="-7.9495817"><ele>1155.0</ele><time>2026-04-04T12:46:24.823Z</time></trkpt><trkpt lat="41.8582083" lon="-7.949635"><ele>1155.0</ele><time>2026-04-04T12:46:25.823Z</time></trkpt><trkpt lat="41.8580967" lon="-7.9496917"><ele>1155.0</ele><time>2026-04-04T12:46:26.823Z</time></trkpt><trkpt lat="41.8579933" lon="-7.949745"><ele>1155.0</ele><time>2026-04-04T12:46:27.822Z</time></trkpt><trkpt lat="41.8578867" lon="-7.9497917"><ele>1155.0</ele><time>2026-04-04T12:46:28.822Z</time></trkpt><trkpt lat="41.8577767" lon="-7.9498433"><ele>1155.0</ele><time>2026-04-04T12:46:29.824Z</time></trkpt><trkpt lat="41.85766" lon="-7.9498867"><ele>1155.0</ele><time>2026-04-04T12:46:30.823Z</time></trkpt><trkpt lat="41.8575367" lon="-7.9499067"><ele>1155.0</ele><time>2026-04-04T12:46:31.822Z</time></trkpt><trkpt lat="41.8574033" lon="-7.9498933"><ele>1155.0</ele><time>2026-04-04T12:46:32.823Z</time></trkpt><trkpt lat="41.8572783" lon="-7.949855"><ele>1153.8</ele><time>2026-04-04T12:46:33.823Z</time></trkpt><trkpt lat="41.8571717" lon="-7.9498083"><ele>1152.6</ele><time>2026-04-04T12:46:34.822Z</time></trkpt><trkpt lat="41.857075" lon="-7.9497633"><ele>1151.4</ele><time>2026-04-04T12:46:35.823Z</time></trkpt><trkpt lat="41.85698" lon="-7.9497333"><ele>1150.2</ele><time>2026-04-04T12:46:36.823Z</time></trkpt><trkpt lat="41.8568767" lon="-7.949715"><ele>1149.0</ele><time>2026-04-04T12:46:37.823Z</time></trkpt><trkpt lat="41.856765" lon="-7.9497083"><ele>1148.0</ele><time>2026-04-04T12:46:38.824Z</time></trkpt><trkpt lat="41.85665" lon="-7.9496983"><ele>1147.0</ele><time>2026-04-04T12:46:39.823Z</time></trkpt><trkpt lat="41.856545" lon="-7.9497067"><ele>1146.0</ele><time>2026-04-04T12:46:40.824Z</time></trkpt><trkpt lat="41.8564433" lon="-7.9497217"><ele>1145.0</ele><time>2026-04-04T12:46:41.823Z</time></trkpt><trkpt lat="41.8563467" lon="-7.9497517"><ele>1144.0</ele><time>2026-04-04T12:46:42.825Z</time></trkpt><trkpt lat="41.8562583" lon="-7.9498"><ele>1144.0</ele><time>2026-04-04T12:46:43.823Z</time></trkpt><trkpt lat="41.85617" lon="-7.9498717"><ele>1144.0</ele><time>2026-04-04T12:46:44.823Z</time></trkpt><trkpt lat="41.856085" lon="-7.949955"><ele>1144.0</ele><time>2026-04-04T12:46:45.823Z</time></trkpt><trkpt lat="41.856" lon="-7.9500467"><ele>1144.0</ele><time>2026-04-04T12:46:46.822Z</time></trkpt><trkpt lat="41.85592" lon="-7.9501483"><ele>1144.0</ele><time>2026-04-04T12:46:47.824Z</time></trkpt><trkpt lat="41.8558467" lon="-7.95026"><ele>1143.6000000000001</ele><time>2026-04-04T12:46:48.823Z</time></trkpt><trkpt lat="41.855775" lon="-7.95037"><ele>1143.2</ele><time>2026-04-04T12:46:49.823Z</time></trkpt><trkpt lat="41.8557083" lon="-7.95047"><ele>1142.8000000000002</ele><time>2026-04-04T12:46:50.823Z</time></trkpt><trkpt lat="41.855645" lon="-7.950555"><ele>1142.4</ele><time>2026-04-04T12:46:51.823Z</time></trkpt><trkpt lat="41.855575" lon="-7.95063"><ele>1142.0</ele><time>2026-04-04T12:46:52.822Z</time></trkpt><trkpt lat="41.8555" lon="-7.95069"><ele>1142.0</ele><time>2026-04-04T12:46:53.823Z</time></trkpt><trkpt lat="41.8554117" lon="-7.950735"><ele>1142.0</ele><time>2026-04-04T12:46:54.824Z</time></trkpt><trkpt lat="41.855305" lon="-7.9507783"><ele>1142.0</ele><time>2026-04-04T12:46:55.823Z</time></trkpt><trkpt lat="41.8551983" lon="-7.9508133"><ele>1142.0</ele><time>2026-04-04T12:46:56.824Z</time></trkpt><trkpt lat="41.85508" lon="-7.9508367"><ele>1142.0</ele><time>2026-04-04T12:46:57.823Z</time></trkpt><trkpt lat="41.8549633" lon="-7.9508617"><ele>1139.8</ele><time>2026-04-04T12:46:58.825Z</time></trkpt><trkpt lat="41.8548433" lon="-7.9508967"><ele>1137.6</ele><time>2026-04-04T12:46:59.823Z</time></trkpt><trkpt lat="41.85473" lon="-7.9509367"><ele>1135.3999999999999</ele><time>2026-04-04T12:47:00.824Z</time></trkpt><trkpt lat="41.8546283" lon="-7.9509783"><ele>1133.2</ele><time>2026-04-04T12:47:01.826Z</time></trkpt><trkpt lat="41.85456" lon="-7.9510133"><ele>1131.0</ele><time>2026-04-04T12:47:02.826Z</time></trkpt><trkpt lat="41.8544817" lon="-7.9510917"><ele>1131.0</ele><time>2026-04-04T12:47:04.823Z</time></trkpt><trkpt lat="41.8544217" lon="-7.9511833"><ele>1131.0</ele><time>2026-04-04T12:47:06.824Z</time></trkpt><trkpt lat="41.8543733" lon="-7.95129"><ele>1131.0</ele><time>2026-04-04T12:47:08.823Z</time></trkpt><trkpt lat="41.85433" lon="-7.95138"><ele>1131.0</ele><time>2026-04-04T12:47:10.826Z</time></trkpt><trkpt lat="41.8542983" lon="-7.9514567"><ele>1131.0</ele><time>2026-04-04T12:47:12.823Z</time></trkpt><trkpt lat="41.8542817" lon="-7.95156"><ele>1131.0</ele><time>2026-04-04T12:47:15.823Z</time></trkpt><trkpt lat="41.85431" lon="-7.9516417"><ele>1127.2</ele><time>2026-04-04T12:47:19.824Z</time></trkpt><trkpt lat="41.8542483" lon="-7.951565"><ele>1123.3999999999999</ele><time>2026-04-04T12:47:24.823Z</time></trkpt><trkpt lat="41.8542233" lon="-7.9513917"><ele>1119.6</ele><time>2026-04-04T12:47:26.823Z</time></trkpt><trkpt lat="41.8542117" lon="-7.9512817"><ele>1115.8</ele><time>2026-04-04T12:47:27.823Z</time></trkpt><trkpt lat="41.8541967" lon="-7.951175"><ele>1112.0</ele><time>2026-04-04T12:47:28.823Z</time></trkpt><trkpt lat="41.8541783" lon="-7.9510633"><ele>1112.0</ele><time>2026-04-04T12:47:29.823Z</time></trkpt><trkpt lat="41.854165" lon="-7.950955"><ele>1112.0</ele><time>2026-04-04T12:47:30.823Z</time></trkpt><trkpt lat="41.85415" lon="-7.9508483"><ele>1112.0</ele><time>2026-04-04T12:47:31.823Z</time></trkpt><trkpt lat="41.8541317" lon="-7.9507483"><ele>1112.0</ele><time>2026-04-04T12:47:32.823Z</time></trkpt><trkpt lat="41.8541133" lon="-7.9506417"><ele>1112.0</ele><time>2026-04-04T12:47:33.823Z</time></trkpt><trkpt lat="41.854095" lon="-7.95054"><ele>1112.0</ele><time>2026-04-04T12:47:34.823Z</time></trkpt><trkpt lat="41.854075" lon="-7.9504483"><ele>1112.0</ele><time>2026-04-04T12:47:35.824Z</time></trkpt><trkpt lat="41.854045" lon="-7.9502983"><ele>1112.0</ele><time>2026-04-04T12:47:37.823Z</time></trkpt><trkpt lat="41.85402" lon="-7.9501933"><ele>1112.0</ele><time>2026-04-04T12:47:39.823Z</time></trkpt><trkpt lat="41.8540017" lon="-7.9501017"><ele>1112.0</ele><time>2026-04-04T12:47:41.824Z</time></trkpt><trkpt lat="41.8539817" lon="-7.9500167"><ele>1112.0</ele><time>2026-04-04T12:47:44.823Z</time></trkpt><trkpt lat="41.85394" lon="-7.95012"><ele>1112.0</ele><time>2026-04-04T12:48:02.823Z</time></trkpt><trkpt lat="41.8538883" lon="-7.95017"><ele>1112.2</ele><time>2026-04-04T12:48:03.824Z</time></trkpt><trkpt lat="41.8538333" lon="-7.9502117"><ele>1112.4</ele><time>2026-04-04T12:48:04.826Z</time></trkpt><trkpt lat="41.853705" lon="-7.9502783"><ele>1112.6</ele><time>2026-04-04T12:48:06.826Z</time></trkpt><trkpt lat="41.8536267" lon="-7.9503083"><ele>1112.8</ele><time>2026-04-04T12:48:07.824Z</time></trkpt><trkpt lat="41.8535367" lon="-7.9503333"><ele>1113.0</ele><time>2026-04-04T12:48:08.824Z</time></trkpt><trkpt lat="41.853435" lon="-7.9503483"><ele>1113.1666666666667</ele><time>2026-04-04T12:48:09.823Z</time></trkpt><trkpt lat="41.8533467" lon="-7.95036"><ele>1113.3333333333333</ele><time>2026-04-04T12:48:10.823Z</time></trkpt><trkpt lat="41.8532617" lon="-7.9503683"><ele>1113.5</ele><time>2026-04-04T12:48:11.824Z</time></trkpt><trkpt lat="41.8531933" lon="-7.9503817"><ele>1113.6666666666665</ele><time>2026-04-04T12:48:12.824Z</time></trkpt><trkpt lat="41.853125" lon="-7.95043"><ele>1113.8333333333333</ele><time>2026-04-04T12:48:14.823Z</time></trkpt><trkpt lat="41.8531167" lon="-7.9505417"><ele>1114.0</ele><time>2026-04-04T12:48:26.824Z</time></trkpt><trkpt lat="41.85313" lon="-7.9506383"><ele>1114.0</ele><time>2026-04-04T12:48:28.823Z</time></trkpt><trkpt lat="41.8531717" lon="-7.9507333"><ele>1114.0</ele><time>2026-04-04T12:48:30.824Z</time></trkpt><trkpt lat="41.853225" lon="-7.95087"><ele>1114.0</ele><time>2026-04-04T12:48:32.824Z</time></trkpt><trkpt lat="41.8532483" lon="-7.9509783"><ele>1114.0</ele><time>2026-04-04T12:48:33.823Z</time></trkpt><trkpt lat="41.8532717" lon="-7.9510683"><ele>1114.0</ele><time>2026-04-04T12:48:34.823Z</time></trkpt><trkpt lat="41.85329" lon="-7.95119"><ele>1114.0</ele><time>2026-04-04T12:48:36.824Z</time></trkpt><trkpt lat="41.8532183" lon="-7.9512317"><ele>1115.6000000000001</ele><time>2026-04-04T12:48:39.823Z</time></trkpt><trkpt lat="41.8531017" lon="-7.9512033"><ele>1117.2</ele><time>2026-04-04T12:48:41.822Z</time></trkpt><trkpt lat="41.853035" lon="-7.9512033"><ele>1118.8000000000002</ele><time>2026-04-04T12:48:42.823Z</time></trkpt><trkpt lat="41.8529417" lon="-7.95121"><ele>1120.4</ele><time>2026-04-04T12:48:43.823Z</time></trkpt><trkpt lat="41.8528083" lon="-7.9512333"><ele>1122.0</ele><time>2026-04-04T12:48:44.823Z</time></trkpt><trkpt lat="41.852675" lon="-7.9512717"><ele>1128.3333333333333</ele><time>2026-04-04T12:48:45.823Z</time></trkpt><trkpt lat="41.8525283" lon="-7.9513033"><ele>1134.6666666666665</ele><time>2026-04-04T12:48:46.823Z</time></trkpt><trkpt lat="41.8523733" lon="-7.951325"><ele>1141.0</ele><time>2026-04-04T12:48:47.822Z</time></trkpt><trkpt lat="41.8522217" lon="-7.9513467"><ele>1141.0</ele><time>2026-04-04T12:48:48.824Z</time></trkpt><trkpt lat="41.852095" lon="-7.9513733"><ele>1141.0</ele><time>2026-04-04T12:48:49.823Z</time></trkpt><trkpt lat="41.8519683" lon="-7.9513983"><ele>1141.0</ele><time>2026-04-04T12:48:50.822Z</time></trkpt><trkpt lat="41.851835" lon="-7.9514233"><ele>1141.0</ele><time>2026-04-04T12:48:51.823Z</time></trkpt><trkpt lat="41.8516983" lon="-7.95144"><ele>1142.75</ele><time>2026-04-04T12:48:52.823Z</time></trkpt><trkpt lat="41.8515617" lon="-7.9514417"><ele>1144.5</ele><time>2026-04-04T12:48:53.823Z</time></trkpt><trkpt lat="41.8514238" lon="-7.9514287"><ele>1146.25</ele><time>2026-04-04T12:48:54.823Z</time></trkpt><trkpt lat="41.8512871" lon="-7.9514"><ele>1148.0</ele><time>2026-04-04T12:48:55.822Z</time></trkpt><trkpt lat="41.8511526" lon="-7.951359"><ele>1148.0</ele><time>2026-04-04T12:48:56.822Z</time></trkpt><trkpt lat="41.8510209" lon="-7.9513003"><ele>1148.0</ele><time>2026-04-04T12:48:57.823Z</time></trkpt><trkpt lat="41.8508774" lon="-7.9512107"><ele>1148.0</ele><time>2026-04-04T12:48:58.822Z</time></trkpt><trkpt lat="41.8507427" lon="-7.9511144"><ele>1148.0</ele><time>2026-04-04T12:48:59.822Z</time></trkpt><trkpt lat="41.8506311" lon="-7.9510316"><ele>1148.0</ele><time>2026-04-04T12:49:00.824Z</time></trkpt><trkpt lat="41.850538" lon="-7.9509616"><ele>1148.0</ele><time>2026-04-04T12:49:01.822Z</time></trkpt><trkpt lat="41.8504511" lon="-7.9508995"><ele>1148.0</ele><time>2026-04-04T12:49:02.823Z</time></trkpt><trkpt lat="41.8503655" lon="-7.9508358"><ele>1148.0</ele><time>2026-04-04T12:49:03.823Z</time></trkpt><trkpt lat="41.8502805" lon="-7.9507695"><ele>1147.8</ele><time>2026-04-04T12:49:04.823Z</time></trkpt><trkpt lat="41.8501934" lon="-7.9507054"><ele>1147.6</ele><time>2026-04-04T12:49:05.824Z</time></trkpt><trkpt lat="41.8501096" lon="-7.950637"><ele>1147.4</ele><time>2026-04-04T12:49:06.824Z</time></trkpt><trkpt lat="41.8500321" lon="-7.9505611"><ele>1147.2</ele><time>2026-04-04T12:49:07.823Z</time></trkpt><trkpt lat="41.8499564" lon="-7.9504781"><ele>1147.0</ele><time>2026-04-04T12:49:08.824Z</time></trkpt><trkpt lat="41.8498847" lon="-7.950384"><ele>1147.0</ele><time>2026-04-04T12:49:09.823Z</time></trkpt><trkpt lat="41.8498216" lon="-7.9502915"><ele>1147.0</ele><time>2026-04-04T12:49:10.822Z</time></trkpt><trkpt lat="41.8497611" lon="-7.9502056"><ele>1147.0</ele><time>2026-04-04T12:49:11.823Z</time></trkpt><trkpt lat="41.8497025" lon="-7.9501154"><ele>1147.0</ele><time>2026-04-04T12:49:12.824Z</time></trkpt><trkpt lat="41.8496418" lon="-7.9500207"><ele>1147.0</ele><time>2026-04-04T12:49:13.823Z</time></trkpt><trkpt lat="41.8495701" lon="-7.9499251"><ele>1147.4</ele><time>2026-04-04T12:49:14.823Z</time></trkpt><trkpt lat="41.849489" lon="-7.9498338"><ele>1147.8000000000002</ele><time>2026-04-04T12:49:15.823Z</time></trkpt><trkpt lat="41.849406" lon="-7.9497439"><ele>1148.2</ele><time>2026-04-04T12:49:16.822Z</time></trkpt><trkpt lat="41.8493246" lon="-7.9496604"><ele>1148.6000000000001</ele><time>2026-04-04T12:49:17.822Z</time></trkpt><trkpt lat="41.8492475" lon="-7.9495842"><ele>1149.0</ele><time>2026-04-04T12:49:18.823Z</time></trkpt><trkpt lat="41.8491767" lon="-7.9495086"><ele>1149.0</ele><time>2026-04-04T12:49:19.822Z</time></trkpt><trkpt lat="41.8491056" lon="-7.9494409"><ele>1149.0</ele><time>2026-04-04T12:49:20.823Z</time></trkpt><trkpt lat="41.8490274" lon="-7.9493825"><ele>1149.0</ele><time>2026-04-04T12:49:21.824Z</time></trkpt><trkpt lat="41.8489394" lon="-7.9493364"><ele>1149.0</ele><time>2026-04-04T12:49:22.822Z</time></trkpt><trkpt lat="41.8488486" lon="-7.9492967"><ele>1149.0</ele><time>2026-04-04T12:49:23.822Z</time></trkpt><trkpt lat="41.8487576" lon="-7.9492605"><ele>1149.0</ele><time>2026-04-04T12:49:24.823Z</time></trkpt><trkpt lat="41.8486683" lon="-7.9492227"><ele>1149.0</ele><time>2026-04-04T12:49:25.824Z</time></trkpt><trkpt lat="41.8485787" lon="-7.9491806"><ele>1149.0</ele><time>2026-04-04T12:49:26.823Z</time></trkpt><trkpt lat="41.8484942" lon="-7.9491415"><ele>1149.0</ele><time>2026-04-04T12:49:27.822Z</time></trkpt><trkpt lat="41.8484147" lon="-7.9491064"><ele>1149.0</ele><time>2026-04-04T12:49:28.826Z</time></trkpt><trkpt lat="41.8483326" lon="-7.9490778"><ele>1149.0</ele><time>2026-04-04T12:49:29.822Z</time></trkpt><trkpt lat="41.8482497" lon="-7.9490567"><ele>1147.8333333333333</ele><time>2026-04-04T12:49:30.823Z</time></trkpt><trkpt lat="41.8481668" lon="-7.9490348"><ele>1146.6666666666667</ele><time>2026-04-04T12:49:31.822Z</time></trkpt><trkpt lat="41.8480918" lon="-7.9490158"><ele>1145.5</ele><time>2026-04-04T12:49:32.823Z</time></trkpt><trkpt lat="41.848023" lon="-7.9489952"><ele>1144.3333333333335</ele><time>2026-04-04T12:49:33.823Z</time></trkpt><trkpt lat="41.8479579" lon="-7.948974"><ele>1143.1666666666667</ele><time>2026-04-04T12:49:34.823Z</time></trkpt><trkpt lat="41.8478935" lon="-7.9489541"><ele>1142.0</ele><time>2026-04-04T12:49:35.824Z</time></trkpt><trkpt lat="41.8477734" lon="-7.9489518"><ele>1142.0</ele><time>2026-04-04T12:49:37.824Z</time></trkpt><trkpt lat="41.8477109" lon="-7.9489724"><ele>1142.0</ele><time>2026-04-04T12:49:38.826Z</time></trkpt><trkpt lat="41.8476476" lon="-7.9490019"><ele>1142.0</ele><time>2026-04-04T12:49:39.825Z</time></trkpt><trkpt lat="41.8475777" lon="-7.949035"><ele>1142.0</ele><time>2026-04-04T12:49:40.822Z</time></trkpt><trkpt lat="41.8475029" lon="-7.9490735"><ele>1142.0</ele><time>2026-04-04T12:49:41.823Z</time></trkpt><trkpt lat="41.8474235" lon="-7.9491118"><ele>1142.0</ele><time>2026-04-04T12:49:42.824Z</time></trkpt><trkpt lat="41.847343" lon="-7.9491518"><ele>1142.0</ele><time>2026-04-04T12:49:43.823Z</time></trkpt><trkpt lat="41.847262" lon="-7.9491922"><ele>1142.0</ele><time>2026-04-04T12:49:44.826Z</time></trkpt><trkpt lat="41.8471761" lon="-7.9492323"><ele>1142.0</ele><time>2026-04-04T12:49:45.825Z</time></trkpt><trkpt lat="41.8470891" lon="-7.9492695"><ele>1142.0</ele><time>2026-04-04T12:49:46.825Z</time></trkpt><trkpt lat="41.8470049" lon="-7.9493089"><ele>1142.0</ele><time>2026-04-04T12:49:47.822Z</time></trkpt><trkpt lat="41.8469254" lon="-7.9493545"><ele>1142.0</ele><time>2026-04-04T12:49:48.823Z</time></trkpt><trkpt lat="41.8468497" lon="-7.9494056"><ele>1142.0</ele><time>2026-04-04T12:49:49.824Z</time></trkpt><trkpt lat="41.846779" lon="-7.9494674"><ele>1142.0</ele><time>2026-04-04T12:49:50.825Z</time></trkpt><trkpt lat="41.8467084" lon="-7.9495381"><ele>1142.0</ele><time>2026-04-04T12:49:51.822Z</time></trkpt><trkpt lat="41.8466418" lon="-7.9496169"><ele>1142.0</ele><time>2026-04-04T12:49:52.824Z</time></trkpt><trkpt lat="41.8465785" lon="-7.9497038"><ele>1142.0</ele><time>2026-04-04T12:49:53.823Z</time></trkpt><trkpt lat="41.8465168" lon="-7.9497969"><ele>1142.0</ele><time>2026-04-04T12:49:54.823Z</time></trkpt><trkpt lat="41.84645" lon="-7.9498903"><ele>1142.0</ele><time>2026-04-04T12:49:55.823Z</time></trkpt><trkpt lat="41.8463781" lon="-7.9499831"><ele>1142.0</ele><time>2026-04-04T12:49:56.824Z</time></trkpt><trkpt lat="41.8463062" lon="-7.9500766"><ele>1142.0</ele><time>2026-04-04T12:49:57.823Z</time></trkpt><trkpt lat="41.8462289" lon="-7.9501688"><ele>1142.0</ele><time>2026-04-04T12:49:58.823Z</time></trkpt><trkpt lat="41.8461509" lon="-7.9502566"><ele>1142.0</ele><time>2026-04-04T12:49:59.826Z</time></trkpt><trkpt lat="41.8460681" lon="-7.9503415"><ele>1142.4</ele><time>2026-04-04T12:50:00.823Z</time></trkpt><trkpt lat="41.8459852" lon="-7.9504236"><ele>1142.8000000000002</ele><time>2026-04-04T12:50:01.823Z</time></trkpt><trkpt lat="41.8458976" lon="-7.9505051"><ele>1143.2</ele><time>2026-04-04T12:50:02.826Z</time></trkpt><trkpt lat="41.8458104" lon="-7.9505847"><ele>1143.6000000000001</ele><time>2026-04-04T12:50:03.823Z</time></trkpt><trkpt lat="41.8457234" lon="-7.9506627"><ele>1144.0</ele><time>2026-04-04T12:50:04.823Z</time></trkpt><trkpt lat="41.8456381" lon="-7.950734"><ele>1141.8</ele><time>2026-04-04T12:50:05.824Z</time></trkpt><trkpt lat="41.8455505" lon="-7.9508024"><ele>1139.6000000000001</ele><time>2026-04-04T12:50:06.823Z</time></trkpt><trkpt lat="41.8454596" lon="-7.9508661"><ele>1137.4</ele><time>2026-04-04T12:50:07.827Z</time></trkpt><trkpt lat="41.8453667" lon="-7.9509217"><ele>1135.2</ele><time>2026-04-04T12:50:08.827Z</time></trkpt><trkpt lat="41.845275" lon="-7.9509767"><ele>1133.0</ele><time>2026-04-04T12:50:09.823Z</time></trkpt><trkpt lat="41.8451833" lon="-7.9510283"><ele>1131.8333333333335</ele><time>2026-04-04T12:50:10.822Z</time></trkpt><trkpt lat="41.8450967" lon="-7.9510733"><ele>1130.6666666666667</ele><time>2026-04-04T12:50:11.825Z</time></trkpt><trkpt lat="41.8450117" lon="-7.95111"><ele>1129.5</ele><time>2026-04-04T12:50:12.823Z</time></trkpt><trkpt lat="41.8449317" lon="-7.9511433"><ele>1128.3333333333333</ele><time>2026-04-04T12:50:13.824Z</time></trkpt><trkpt lat="41.8448433" lon="-7.9511733"><ele>1127.1666666666665</ele><time>2026-04-04T12:50:14.823Z</time></trkpt><trkpt lat="41.84476" lon="-7.9512"><ele>1126.0</ele><time>2026-04-04T12:50:15.823Z</time></trkpt><trkpt lat="41.8446767" lon="-7.9512217"><ele>1126.0</ele><time>2026-04-04T12:50:16.823Z</time></trkpt><trkpt lat="41.844595" lon="-7.9512467"><ele>1126.0</ele><time>2026-04-04T12:50:17.826Z</time></trkpt><trkpt lat="41.84452" lon="-7.951265"><ele>1126.0</ele><time>2026-04-04T12:50:18.822Z</time></trkpt><trkpt lat="41.8444533" lon="-7.9512783"><ele>1126.0</ele><time>2026-04-04T12:50:19.823Z</time></trkpt><trkpt lat="41.84434" lon="-7.9512867"><ele>1126.0</ele><time>2026-04-04T12:50:21.822Z</time></trkpt><trkpt lat="41.8442367" lon="-7.9512733"><ele>1126.0</ele><time>2026-04-04T12:50:23.825Z</time></trkpt><trkpt lat="41.8441483" lon="-7.9512517"><ele>1124.5</ele><time>2026-04-04T12:50:25.823Z</time></trkpt><trkpt lat="41.844075" lon="-7.9512417"><ele>1123.0</ele><time>2026-04-04T12:50:27.826Z</time></trkpt><trkpt lat="41.843985" lon="-7.9512333"><ele>1121.5</ele><time>2026-04-04T12:50:30.823Z</time></trkpt><trkpt lat="41.8439183" lon="-7.95122"><ele>1120.0</ele><time>2026-04-04T12:50:32.822Z</time></trkpt><trkpt lat="41.8438267" lon="-7.95118"><ele>1118.5</ele><time>2026-04-04T12:50:34.823Z</time></trkpt><trkpt lat="41.8437233" lon="-7.9511533"><ele>1117.0</ele><time>2026-04-04T12:50:36.823Z</time></trkpt><trkpt lat="41.8436267" lon="-7.951105"><ele>1117.0</ele><time>2026-04-04T12:50:38.823Z</time></trkpt><trkpt lat="41.8435333" lon="-7.9510483"><ele>1117.0</ele><time>2026-04-04T12:50:40.825Z</time></trkpt><trkpt lat="41.8434617" lon="-7.9509683"><ele>1117.0</ele><time>2026-04-04T12:50:42.824Z</time></trkpt><trkpt lat="41.8434017" lon="-7.9509017"><ele>1117.0</ele><time>2026-04-04T12:50:44.823Z</time></trkpt><trkpt lat="41.8433367" lon="-7.9508433"><ele>1117.0</ele><time>2026-04-04T12:50:47.823Z</time></trkpt><trkpt lat="41.8432467" lon="-7.9507933"><ele>1117.0</ele><time>2026-04-04T12:50:50.822Z</time></trkpt><trkpt lat="41.84317" lon="-7.9507583"><ele>1118.1666666666665</ele><time>2026-04-04T12:50:52.823Z</time></trkpt><trkpt lat="41.8430983" lon="-7.9507183"><ele>1119.3333333333333</ele><time>2026-04-04T12:50:54.826Z</time></trkpt><trkpt lat="41.843025" lon="-7.9506817"><ele>1120.5</ele><time>2026-04-04T12:50:56.823Z</time></trkpt><trkpt lat="41.8429533" lon="-7.9506417"><ele>1121.6666666666667</ele><time>2026-04-04T12:50:58.823Z</time></trkpt><trkpt lat="41.84289" lon="-7.9505917"><ele>1122.8333333333335</ele><time>2026-04-04T12:51:00.824Z</time></trkpt><trkpt lat="41.8428317" lon="-7.9505133"><ele>1124.0</ele><time>2026-04-04T12:51:02.824Z</time></trkpt><trkpt lat="41.8427583" lon="-7.9504233"><ele>1124.0</ele><time>2026-04-04T12:51:04.824Z</time></trkpt><trkpt lat="41.8426633" lon="-7.950395"><ele>1124.0</ele><time>2026-04-04T12:51:06.824Z</time></trkpt><trkpt lat="41.8425633" lon="-7.950415"><ele>1124.0</ele><time>2026-04-04T12:51:08.823Z</time></trkpt><trkpt lat="41.8424683" lon="-7.950445"><ele>1124.0</ele><time>2026-04-04T12:51:10.823Z</time></trkpt><trkpt lat="41.842385" lon="-7.9504417"><ele>1124.0</ele><time>2026-04-04T12:51:12.823Z</time></trkpt><trkpt lat="41.842305" lon="-7.95043"><ele>1122.8333333333335</ele><time>2026-04-04T12:51:15.824Z</time></trkpt><trkpt lat="41.84225" lon="-7.9505133"><ele>1121.6666666666667</ele><time>2026-04-04T12:51:22.824Z</time></trkpt><trkpt lat="41.8422183" lon="-7.9506017"><ele>1120.5</ele><time>2026-04-04T12:51:25.823Z</time></trkpt><trkpt lat="41.8421483" lon="-7.95065"><ele>1119.3333333333333</ele><time>2026-04-04T12:51:28.824Z</time></trkpt><trkpt lat="41.8420833" lon="-7.9506383"><ele>1118.1666666666665</ele><time>2026-04-04T12:51:30.824Z</time></trkpt><trkpt lat="41.84199" lon="-7.9505833"><ele>1117.0</ele><time>2026-04-04T12:51:32.824Z</time></trkpt><trkpt lat="41.8419" lon="-7.9505267"><ele>1117.0</ele><time>2026-04-04T12:51:34.824Z</time></trkpt><trkpt lat="41.8418233" lon="-7.95048"><ele>1117.0</ele><time>2026-04-04T12:51:36.823Z</time></trkpt><trkpt lat="41.8417433" lon="-7.9504617"><ele>1117.0</ele><time>2026-04-04T12:51:38.824Z</time></trkpt><trkpt lat="41.8416683" lon="-7.95046"><ele>1117.0</ele><time>2026-04-04T12:51:40.824Z</time></trkpt><trkpt lat="41.8416" lon="-7.950465"><ele>1117.0</ele><time>2026-04-04T12:51:43.823Z</time></trkpt><trkpt lat="41.84162" lon="-7.9503717"><ele>1117.0</ele><time>2026-04-04T12:51:45.823Z</time></trkpt><trkpt lat="41.8416767" lon="-7.9502667"><ele>1117.0</ele><time>2026-04-04T12:51:48.824Z</time></trkpt><trkpt lat="41.8417533" lon="-7.9501783"><ele>1117.0</ele><time>2026-04-04T12:51:50.823Z</time></trkpt><trkpt lat="41.8418317" lon="-7.950065"><ele>1117.0</ele><time>2026-04-04T12:51:52.825Z</time></trkpt><trkpt lat="41.84192" lon="-7.9499483"><ele>1117.0</ele><time>2026-04-04T12:51:54.825Z</time></trkpt><trkpt lat="41.841955" lon="-7.949835"><ele>1117.0</ele><time>2026-04-04T12:51:56.824Z</time></trkpt><trkpt lat="41.8419933" lon="-7.9497"><ele>1115.8</ele><time>2026-04-04T12:51:58.823Z</time></trkpt><trkpt lat="41.8420067" lon="-7.94958"><ele>1114.6</ele><time>2026-04-04T12:52:00.823Z</time></trkpt><trkpt lat="41.8419683" lon="-7.949475"><ele>1113.3999999999999</ele><time>2026-04-04T12:52:02.824Z</time></trkpt><trkpt lat="41.8418983" lon="-7.9493367"><ele>1112.2</ele><time>2026-04-04T12:52:04.823Z</time></trkpt><trkpt lat="41.8418533" lon="-7.9492733"><ele>1111.0</ele><time>2026-04-04T12:52:05.824Z</time></trkpt><trkpt lat="41.8417667" lon="-7.9491833"><ele>1109.3999999999999</ele><time>2026-04-04T12:52:07.822Z</time></trkpt><trkpt lat="41.8416717" lon="-7.9490933"><ele>1107.8</ele><time>2026-04-04T12:52:09.823Z</time></trkpt><trkpt lat="41.8415933" lon="-7.9490367"><ele>1106.1999999999998</ele><time>2026-04-04T12:52:10.825Z</time></trkpt><trkpt lat="41.8415367" lon="-7.94899"><ele>1104.6</ele><time>2026-04-04T12:52:11.825Z</time></trkpt><trkpt lat="41.841435" lon="-7.9489183"><ele>1103.0</ele><time>2026-04-04T12:52:13.822Z</time></trkpt><trkpt lat="41.8413233" lon="-7.94893"><ele>1103.0</ele><time>2026-04-04T12:52:15.822Z</time></trkpt><trkpt lat="41.8412167" lon="-7.9489883"><ele>1103.0</ele><time>2026-04-04T12:52:17.823Z</time></trkpt><trkpt lat="41.8411733" lon="-7.949055"><ele>1103.0</ele><time>2026-04-04T12:52:18.824Z</time></trkpt><trkpt lat="41.8411367" lon="-7.9491933"><ele>1103.0</ele><time>2026-04-04T12:52:20.823Z</time></trkpt><trkpt lat="41.8411" lon="-7.9493083"><ele>1103.0</ele><time>2026-04-04T12:52:22.822Z</time></trkpt><trkpt lat="41.8410683" lon="-7.9494167"><ele>1102.4</ele><time>2026-04-04T12:52:24.823Z</time></trkpt><trkpt lat="41.8410383" lon="-7.9495067"><ele>1101.8</ele><time>2026-04-04T12:52:26.823Z</time></trkpt><trkpt lat="41.841005" lon="-7.9495933"><ele>1101.2</ele><time>2026-04-04T12:52:28.822Z</time></trkpt><trkpt lat="41.8409667" lon="-7.949705"><ele>1100.6</ele><time>2026-04-04T12:52:31.822Z</time></trkpt><trkpt lat="41.8409083" lon="-7.94981"><ele>1100.0</ele><time>2026-04-04T12:52:33.823Z</time></trkpt><trkpt lat="41.84083" lon="-7.949935"><ele>1099.5</ele><time>2026-04-04T12:52:35.823Z</time></trkpt><trkpt lat="41.8407367" lon="-7.9500317"><ele>1099.0</ele><time>2026-04-04T12:52:37.823Z</time></trkpt><trkpt lat="41.8406533" lon="-7.9500967"><ele>1098.5</ele><time>2026-04-04T12:52:39.823Z</time></trkpt><trkpt lat="41.840595" lon="-7.9501367"><ele>1098.0</ele><time>2026-04-04T12:52:41.823Z</time></trkpt><trkpt lat="41.8406033" lon="-7.9500433"><ele>1097.5</ele><time>2026-04-04T12:55:56.825Z</time></trkpt><trkpt lat="41.8406917" lon="-7.9499817"><ele>1097.0</ele><time>2026-04-04T12:55:58.823Z</time></trkpt><trkpt lat="41.840785" lon="-7.9499317"><ele>1096.8</ele><time>2026-04-04T12:56:00.823Z</time></trkpt><trkpt lat="41.84087" lon="-7.9498733"><ele>1096.6</ele><time>2026-04-04T12:56:02.823Z</time></trkpt><trkpt lat="41.8409483" lon="-7.9497583"><ele>1096.3999999999999</ele><time>2026-04-04T12:56:04.823Z</time></trkpt><trkpt lat="41.8409883" lon="-7.9496717"><ele>1096.2</ele><time>2026-04-04T12:56:05.824Z</time></trkpt><trkpt lat="41.84103" lon="-7.949565"><ele>1096.0</ele><time>2026-04-04T12:56:06.823Z</time></trkpt><trkpt lat="41.84107" lon="-7.949445"><ele>1096.8</ele><time>2026-04-04T12:56:07.823Z</time></trkpt><trkpt lat="41.8411133" lon="-7.9493217"><ele>1097.6</ele><time>2026-04-04T12:56:08.824Z</time></trkpt><trkpt lat="41.84116" lon="-7.9491933"><ele>1098.4</ele><time>2026-04-04T12:56:09.826Z</time></trkpt><trkpt lat="41.8412033" lon="-7.9490783"><ele>1099.2</ele><time>2026-04-04T12:56:10.826Z</time></trkpt><trkpt lat="41.841245" lon="-7.948975"><ele>1100.0</ele><time>2026-04-04T12:56:11.825Z</time></trkpt><trkpt lat="41.84128" lon="-7.9488883"><ele>1100.6</ele><time>2026-04-04T12:56:12.822Z</time></trkpt><trkpt lat="41.841315" lon="-7.948755"><ele>1101.2</ele><time>2026-04-04T12:56:14.823Z</time></trkpt><trkpt lat="41.8413117" lon="-7.9486467"><ele>1101.8</ele><time>2026-04-04T12:56:18.823Z</time></trkpt><trkpt lat="41.8412517" lon="-7.9485583"><ele>1102.4</ele><time>2026-04-04T12:56:20.823Z</time></trkpt><trkpt lat="41.8411583" lon="-7.9484483"><ele>1103.0</ele><time>2026-04-04T12:56:22.822Z</time></trkpt><trkpt lat="41.8411067" lon="-7.94839"><ele>1102.8333333333335</ele><time>2026-04-04T12:56:23.823Z</time></trkpt><trkpt lat="41.8410533" lon="-7.948325"><ele>1102.6666666666667</ele><time>2026-04-04T12:56:24.823Z</time></trkpt><trkpt lat="41.8409967" lon="-7.9482483"><ele>1102.5</ele><time>2026-04-04T12:56:25.824Z</time></trkpt><trkpt lat="41.8409567" lon="-7.94817"><ele>1102.3333333333333</ele><time>2026-04-04T12:56:26.823Z</time></trkpt><trkpt lat="41.840935" lon="-7.9480867"><ele>1102.1666666666665</ele><time>2026-04-04T12:56:27.823Z</time></trkpt><trkpt lat="41.8409117" lon="-7.9480033"><ele>1102.0</ele><time>2026-04-04T12:56:28.822Z</time></trkpt><trkpt lat="41.840865" lon="-7.9478517"><ele>1102.0</ele><time>2026-04-04T12:56:30.823Z</time></trkpt><trkpt lat="41.8408167" lon="-7.94773"><ele>1102.0</ele><time>2026-04-04T12:56:32.823Z</time></trkpt><trkpt lat="41.84076" lon="-7.9476067"><ele>1102.0</ele><time>2026-04-04T12:56:34.824Z</time></trkpt><trkpt lat="41.8407233" lon="-7.9474783"><ele>1102.0</ele><time>2026-04-04T12:56:36.823Z</time></trkpt><trkpt lat="41.8407833" lon="-7.9475483"><ele>1102.0</ele><time>2026-04-04T12:56:41.823Z</time></trkpt><trkpt lat="41.84082" lon="-7.94767"><ele>1102.0</ele><time>2026-04-04T12:56:43.824Z</time></trkpt><trkpt lat="41.8409" lon="-7.9477667"><ele>1102.0</ele><time>2026-04-04T12:56:45.824Z</time></trkpt><trkpt lat="41.84101" lon="-7.9478383"><ele>1102.0</ele><time>2026-04-04T12:56:47.825Z</time></trkpt><trkpt lat="41.8411017" lon="-7.9479117"><ele>1102.0</ele><time>2026-04-04T12:56:49.823Z</time></trkpt><trkpt lat="41.8411783" lon="-7.947925"><ele>1102.0</ele><time>2026-04-04T12:56:52.823Z</time></trkpt><trkpt lat="41.84122" lon="-7.947805"><ele>1104.3333333333333</ele><time>2026-04-04T12:56:55.823Z</time></trkpt><trkpt lat="41.8412567" lon="-7.9477233"><ele>1106.6666666666665</ele><time>2026-04-04T12:56:58.823Z</time></trkpt><trkpt lat="41.841325" lon="-7.9477133"><ele>1109.0</ele><time>2026-04-04T12:57:01.823Z</time></trkpt><trkpt lat="41.8413733" lon="-7.9475933"><ele>1111.3333333333333</ele><time>2026-04-04T13:06:52.828Z</time></trkpt><trkpt lat="41.841335" lon="-7.9477067"><ele>1113.6666666666667</ele><time>2026-04-04T13:29:01.828Z</time></trkpt><trkpt lat="41.8413033" lon="-7.9476283"><ele>1116.0</ele><time>2026-04-04T14:19:06.823Z</time></trkpt><trkpt lat="41.8412733" lon="-7.9477567"><ele>1116.0</ele><time>2026-04-04T14:22:21.822Z</time></trkpt><trkpt lat="41.841235" lon="-7.9478533"><ele>1116.0</ele><time>2026-04-04T14:22:25.823Z</time></trkpt><trkpt lat="41.84118" lon="-7.94791"><ele>1116.0</ele><time>2026-04-04T14:22:28.823Z</time></trkpt><trkpt lat="41.841105" lon="-7.9478917"><ele>1116.0</ele><time>2026-04-04T14:22:30.823Z</time></trkpt><trkpt lat="41.84102" lon="-7.9478883"><ele>1116.0</ele><time>2026-04-04T14:22:32.823Z</time></trkpt><trkpt lat="41.8409567" lon="-7.9478883"><ele>1116.0</ele><time>2026-04-04T14:22:34.823Z</time></trkpt><trkpt lat="41.8408817" lon="-7.947895"><ele>1113.2</ele><time>2026-04-04T14:22:36.825Z</time></trkpt><trkpt lat="41.8408133" lon="-7.9479517"><ele>1110.3999999999999</ele><time>2026-04-04T14:22:39.823Z</time></trkpt><trkpt lat="41.8407783" lon="-7.9480583"><ele>1107.6</ele><time>2026-04-04T14:22:41.823Z</time></trkpt><trkpt lat="41.8407767" lon="-7.9481967"><ele>1104.8</ele><time>2026-04-04T14:22:43.824Z</time></trkpt><trkpt lat="41.8408233" lon="-7.9483383"><ele>1102.0</ele><time>2026-04-04T14:22:45.824Z</time></trkpt><trkpt lat="41.8408867" lon="-7.9484133"><ele>1102.2</ele><time>2026-04-04T14:22:47.824Z</time></trkpt><trkpt lat="41.8409567" lon="-7.9484933"><ele>1102.4</ele><time>2026-04-04T14:22:49.823Z</time></trkpt><trkpt lat="41.8410383" lon="-7.9485583"><ele>1102.6</ele><time>2026-04-04T14:22:51.825Z</time></trkpt><trkpt lat="41.8410983" lon="-7.9486567"><ele>1102.8</ele><time>2026-04-04T14:22:53.823Z</time></trkpt><trkpt lat="41.84119" lon="-7.9487367"><ele>1103.0</ele><time>2026-04-04T14:22:55.824Z</time></trkpt><trkpt lat="41.8412267" lon="-7.9488483"><ele>1103.0</ele><time>2026-04-04T14:22:57.823Z</time></trkpt><trkpt lat="41.84128" lon="-7.9489417"><ele>1103.0</ele><time>2026-04-04T14:22:59.823Z</time></trkpt><trkpt lat="41.8413517" lon="-7.94903"><ele>1103.0</ele><time>2026-04-04T14:23:01.823Z</time></trkpt><trkpt lat="41.8414317" lon="-7.94911"><ele>1103.0</ele><time>2026-04-04T14:23:03.823Z</time></trkpt><trkpt lat="41.841485" lon="-7.9491833"><ele>1103.0</ele><time>2026-04-04T14:23:05.823Z</time></trkpt><trkpt lat="41.84155" lon="-7.9492183"><ele>1103.0</ele><time>2026-04-04T14:23:07.83Z</time></trkpt><trkpt lat="41.8416183" lon="-7.9492683"><ele>1102.5714285714287</ele><time>2026-04-04T14:23:09.824Z</time></trkpt><trkpt lat="41.8416983" lon="-7.9493383"><ele>1102.142857142857</ele><time>2026-04-04T14:23:11.823Z</time></trkpt><trkpt lat="41.8417533" lon="-7.949415"><ele>1101.7142857142858</ele><time>2026-04-04T14:23:13.823Z</time></trkpt><trkpt lat="41.8418117" lon="-7.949455"><ele>1101.2857142857142</ele><time>2026-04-04T14:23:15.824Z</time></trkpt><trkpt lat="41.8418617" lon="-7.9495133"><ele>1100.857142857143</ele><time>2026-04-04T14:23:18.823Z</time></trkpt><trkpt lat="41.8418767" lon="-7.9496067"><ele>1100.4285714285716</ele><time>2026-04-04T14:23:38.823Z</time></trkpt><trkpt lat="41.8418983" lon="-7.9496917"><ele>1100.0</ele><time>2026-04-04T14:23:41.823Z</time></trkpt><trkpt lat="41.841905" lon="-7.949785"><ele>1100.8333333333335</ele><time>2026-04-04T14:23:43.823Z</time></trkpt><trkpt lat="41.8418867" lon="-7.9498667"><ele>1101.6666666666667</ele><time>2026-04-04T14:23:45.823Z</time></trkpt><trkpt lat="41.841855" lon="-7.94995"><ele>1102.5</ele><time>2026-04-04T14:23:47.823Z</time></trkpt><trkpt lat="41.84178" lon="-7.950045"><ele>1103.3333333333333</ele><time>2026-04-04T14:23:49.823Z</time></trkpt><trkpt lat="41.8417283" lon="-7.9501483"><ele>1104.1666666666665</ele><time>2026-04-04T14:23:51.824Z</time></trkpt><trkpt lat="41.84169" lon="-7.9502233"><ele>1105.0</ele><time>2026-04-04T14:23:53.824Z</time></trkpt><trkpt lat="41.8416617" lon="-7.9503017"><ele>1105.0</ele><time>2026-04-04T14:23:55.825Z</time></trkpt><trkpt lat="41.8416417" lon="-7.9503967"><ele>1105.0</ele><time>2026-04-04T14:23:59.824Z</time></trkpt><trkpt lat="41.8416267" lon="-7.95049"><ele>1105.0</ele><time>2026-04-04T14:24:02.825Z</time></trkpt><trkpt lat="41.8416283" lon="-7.9505767"><ele>1105.0</ele><time>2026-04-04T14:24:05.825Z</time></trkpt><trkpt lat="41.8416117" lon="-7.9506817"><ele>1105.0</ele><time>2026-04-04T14:24:07.825Z</time></trkpt><trkpt lat="41.84157" lon="-7.9507833"><ele>1105.0</ele><time>2026-04-04T14:24:10.828Z</time></trkpt><trkpt lat="41.8415567" lon="-7.9508933"><ele>1104.0</ele><time>2026-04-04T14:24:13.823Z</time></trkpt><trkpt lat="41.841525" lon="-7.951"><ele>1103.0</ele><time>2026-04-04T14:24:16.822Z</time></trkpt><trkpt lat="41.8415133" lon="-7.9511017"><ele>1102.0</ele><time>2026-04-04T14:24:19.824Z</time></trkpt><trkpt lat="41.84153" lon="-7.95121"><ele>1101.0</ele><time>2026-04-04T14:24:22.823Z</time></trkpt><trkpt lat="41.8414767" lon="-7.9512967"><ele>1100.0</ele><time>2026-04-04T14:24:34.823Z</time></trkpt><trkpt lat="41.8414167" lon="-7.9512267"><ele>1099.0</ele><time>2026-04-04T14:24:37.823Z</time></trkpt><trkpt lat="41.8414233" lon="-7.9511283"><ele>1099.0</ele><time>2026-04-04T14:24:40.823Z</time></trkpt><trkpt lat="41.8415017" lon="-7.9510733"><ele>1099.0</ele><time>2026-04-04T14:24:49.823Z</time></trkpt><trkpt lat="41.84157" lon="-7.95112"><ele>1099.0</ele><time>2026-04-04T14:24:51.823Z</time></trkpt><trkpt lat="41.8416433" lon="-7.9511583"><ele>1099.0</ele><time>2026-04-04T14:24:53.823Z</time></trkpt><trkpt lat="41.8417317" lon="-7.9511733"><ele>1099.0</ele><time>2026-04-04T14:24:55.823Z</time></trkpt><trkpt lat="41.8418117" lon="-7.9512067"><ele>1099.0</ele><time>2026-04-04T14:24:57.823Z</time></trkpt><trkpt lat="41.841885" lon="-7.951255"><ele>1101.0</ele><time>2026-04-04T14:24:59.824Z</time></trkpt><trkpt lat="41.84198" lon="-7.9513333"><ele>1103.0</ele><time>2026-04-04T14:25:01.824Z</time></trkpt><trkpt lat="41.8420833" lon="-7.9513633"><ele>1105.0</ele><time>2026-04-04T14:25:03.823Z</time></trkpt><trkpt lat="41.84218" lon="-7.9514"><ele>1107.0</ele><time>2026-04-04T14:25:05.823Z</time></trkpt><trkpt lat="41.842265" lon="-7.9514167"><ele>1109.0</ele><time>2026-04-04T14:25:07.823Z</time></trkpt><trkpt lat="41.84235" lon="-7.9514067"><ele>1109.0</ele><time>2026-04-04T14:25:09.823Z</time></trkpt><trkpt lat="41.8424283" lon="-7.9514"><ele>1109.0</ele><time>2026-04-04T14:25:11.823Z</time></trkpt><trkpt lat="41.8425167" lon="-7.9513983"><ele>1109.0</ele><time>2026-04-04T14:25:14.824Z</time></trkpt><trkpt lat="41.8426017" lon="-7.9514"><ele>1109.0</ele><time>2026-04-04T14:25:16.824Z</time></trkpt><trkpt lat="41.8426783" lon="-7.9514033"><ele>1109.0</ele><time>2026-04-04T14:25:18.823Z</time></trkpt><trkpt lat="41.8427717" lon="-7.9514183"><ele>1109.0</ele><time>2026-04-04T14:25:20.823Z</time></trkpt><trkpt lat="41.8429633" lon="-7.951415"><ele>1110.3333333333335</ele><time>2026-04-04T14:25:24.822Z</time></trkpt><trkpt lat="41.8430583" lon="-7.951415"><ele>1111.6666666666667</ele><time>2026-04-04T14:25:26.823Z</time></trkpt><trkpt lat="41.843145" lon="-7.95142"><ele>1113.0</ele><time>2026-04-04T14:25:28.823Z</time></trkpt><trkpt lat="41.8432367" lon="-7.9514333"><ele>1114.3333333333333</ele><time>2026-04-04T14:25:30.824Z</time></trkpt><trkpt lat="41.8433267" lon="-7.95146"><ele>1115.6666666666665</ele><time>2026-04-04T14:25:32.824Z</time></trkpt><trkpt lat="41.8434033" lon="-7.951465"><ele>1117.0</ele><time>2026-04-04T14:25:34.823Z</time></trkpt><trkpt lat="41.843475" lon="-7.9514167"><ele>1117.0</ele><time>2026-04-04T14:25:36.823Z</time></trkpt><trkpt lat="41.8435433" lon="-7.9513533"><ele>1117.0</ele><time>2026-04-04T14:25:38.824Z</time></trkpt><trkpt lat="41.843615" lon="-7.9512917"><ele>1117.0</ele><time>2026-04-04T14:25:40.823Z</time></trkpt><trkpt lat="41.8436767" lon="-7.9512483"><ele>1117.0</ele><time>2026-04-04T14:25:42.824Z</time></trkpt><trkpt lat="41.8437433" lon="-7.9512333"><ele>1117.0</ele><time>2026-04-04T14:25:44.824Z</time></trkpt><trkpt lat="41.8438333" lon="-7.951225"><ele>1117.0</ele><time>2026-04-04T14:25:46.824Z</time></trkpt><trkpt lat="41.8439217" lon="-7.9512233"><ele>1117.0</ele><time>2026-04-04T14:25:48.823Z</time></trkpt><trkpt lat="41.84402" lon="-7.9512283"><ele>1117.0</ele><time>2026-04-04T14:25:50.824Z</time></trkpt><trkpt lat="41.84412" lon="-7.9512467"><ele>1117.0</ele><time>2026-04-04T14:25:52.823Z</time></trkpt><trkpt lat="41.8442133" lon="-7.9512583"><ele>1117.0</ele><time>2026-04-04T14:25:54.823Z</time></trkpt><trkpt lat="41.8443233" lon="-7.9512667"><ele>1117.0</ele><time>2026-04-04T14:25:56.825Z</time></trkpt><trkpt lat="41.844435" lon="-7.9512583"><ele>1118.8</ele><time>2026-04-04T14:25:58.823Z</time></trkpt><trkpt lat="41.84455" lon="-7.9512433"><ele>1120.6</ele><time>2026-04-04T14:26:00.827Z</time></trkpt><trkpt lat="41.8446617" lon="-7.95122"><ele>1122.3999999999999</ele><time>2026-04-04T14:26:02.823Z</time></trkpt><trkpt lat="41.8447717" lon="-7.951195"><ele>1124.2</ele><time>2026-04-04T14:26:04.823Z</time></trkpt><trkpt lat="41.8448567" lon="-7.95117"><ele>1126.0</ele><time>2026-04-04T14:26:06.823Z</time></trkpt><trkpt lat="41.844925" lon="-7.9511467"><ele>1126.0</ele><time>2026-04-04T14:26:08.824Z</time></trkpt><trkpt lat="41.8450167" lon="-7.95112"><ele>1126.0</ele><time>2026-04-04T14:26:10.823Z</time></trkpt><trkpt lat="41.8451117" lon="-7.951085"><ele>1126.0</ele><time>2026-04-04T14:26:12.823Z</time></trkpt><trkpt lat="41.845195" lon="-7.9510433"><ele>1126.0</ele><time>2026-04-04T14:26:14.824Z</time></trkpt><trkpt lat="41.84529" lon="-7.951"><ele>1126.0</ele><time>2026-04-04T14:26:16.824Z</time></trkpt><trkpt lat="41.8453867" lon="-7.9509467"><ele>1126.6</ele><time>2026-04-04T14:26:18.823Z</time></trkpt><trkpt lat="41.84549" lon="-7.950885"><ele>1127.1999999999998</ele><time>2026-04-04T14:26:20.824Z</time></trkpt><trkpt lat="41.8455983" lon="-7.9508267"><ele>1127.8000000000002</ele><time>2026-04-04T14:26:22.822Z</time></trkpt><trkpt lat="41.845655" lon="-7.950785"><ele>1128.4</ele><time>2026-04-04T14:26:23.824Z</time></trkpt><trkpt lat="41.8457083" lon="-7.950735"><ele>1129.0</ele><time>2026-04-04T14:26:24.823Z</time></trkpt><trkpt lat="41.8458133" lon="-7.9506267"><ele>1129.0</ele><time>2026-04-04T14:26:26.823Z</time></trkpt><trkpt lat="41.8458717" lon="-7.95058"><ele>1129.0</ele><time>2026-04-04T14:26:27.823Z</time></trkpt><trkpt lat="41.845935" lon="-7.95053"><ele>1129.0</ele><time>2026-04-04T14:26:28.823Z</time></trkpt><trkpt lat="41.845995" lon="-7.9504733"><ele>1129.0</ele><time>2026-04-04T14:26:29.825Z</time></trkpt><trkpt lat="41.846055" lon="-7.950415"><ele>1129.0</ele><time>2026-04-04T14:26:30.823Z</time></trkpt><trkpt lat="41.8461133" lon="-7.95035"><ele>1129.0</ele><time>2026-04-04T14:26:31.823Z</time></trkpt><trkpt lat="41.8461733" lon="-7.9502867"><ele>1129.0</ele><time>2026-04-04T14:26:32.824Z</time></trkpt><trkpt lat="41.8462317" lon="-7.95022"><ele>1131.1666666666665</ele><time>2026-04-04T14:26:33.824Z</time></trkpt><trkpt lat="41.8462883" lon="-7.9501483"><ele>1133.3333333333333</ele><time>2026-04-04T14:26:34.825Z</time></trkpt><trkpt lat="41.8463417" lon="-7.9500733"><ele>1135.5</ele><time>2026-04-04T14:26:35.823Z</time></trkpt><trkpt lat="41.8463983" lon="-7.9499967"><ele>1137.6666666666667</ele><time>2026-04-04T14:26:36.825Z</time></trkpt><trkpt lat="41.8464533" lon="-7.9499233"><ele>1139.8333333333335</ele><time>2026-04-04T14:26:37.823Z</time></trkpt><trkpt lat="41.84651" lon="-7.9498483"><ele>1142.0</ele><time>2026-04-04T14:26:38.823Z</time></trkpt><trkpt lat="41.84656" lon="-7.9497833"><ele>1142.0</ele><time>2026-04-04T14:26:39.823Z</time></trkpt><trkpt lat="41.846605" lon="-7.94972"><ele>1142.0</ele><time>2026-04-04T14:26:40.823Z</time></trkpt><trkpt lat="41.84669" lon="-7.9496033"><ele>1142.0</ele><time>2026-04-04T14:26:42.822Z</time></trkpt><trkpt lat="41.8467633" lon="-7.9494967"><ele>1142.0</ele><time>2026-04-04T14:26:44.823Z</time></trkpt><trkpt lat="41.8468167" lon="-7.94943"><ele>1142.0</ele><time>2026-04-04T14:26:46.823Z</time></trkpt><trkpt lat="41.84687" lon="-7.9493717"><ele>1142.0</ele><time>2026-04-04T14:26:49.824Z</time></trkpt><trkpt lat="41.8469383" lon="-7.9493183"><ele>1142.0</ele><time>2026-04-04T14:26:59.824Z</time></trkpt><trkpt lat="41.8468817" lon="-7.949425"><ele>1142.0</ele><time>2026-04-04T14:27:05.824Z</time></trkpt><trkpt lat="41.846815" lon="-7.9494567"><ele>1142.0</ele><time>2026-04-04T14:27:06.824Z</time></trkpt><trkpt lat="41.846735" lon="-7.94951"><ele>1142.0</ele><time>2026-04-04T14:27:07.824Z</time></trkpt><trkpt lat="41.84666" lon="-7.9495783"><ele>1142.0</ele><time>2026-04-04T14:27:08.823Z</time></trkpt><trkpt lat="41.84659" lon="-7.94966"><ele>1142.0</ele><time>2026-04-04T14:27:09.826Z</time></trkpt><trkpt lat="41.8465183" lon="-7.9497567"><ele>1142.0</ele><time>2026-04-04T14:27:10.825Z</time></trkpt><trkpt lat="41.8464483" lon="-7.9498467"><ele>1142.0</ele><time>2026-04-04T14:27:11.827Z</time></trkpt><trkpt lat="41.8463733" lon="-7.94994"><ele>1142.0</ele><time>2026-04-04T14:27:12.826Z</time></trkpt><trkpt lat="41.8463083" lon="-7.9500283"><ele>1142.0</ele><time>2026-04-04T14:27:13.827Z</time></trkpt><trkpt lat="41.84625" lon="-7.9501067"><ele>1142.0</ele><time>2026-04-04T14:27:14.826Z</time></trkpt><trkpt lat="41.8461867" lon="-7.9501833"><ele>1142.3333333333335</ele><time>2026-04-04T14:27:15.825Z</time></trkpt><trkpt lat="41.8461317" lon="-7.9502567"><ele>1142.6666666666667</ele><time>2026-04-04T14:27:16.825Z</time></trkpt><trkpt lat="41.8460767" lon="-7.9503233"><ele>1143.0</ele><time>2026-04-04T14:27:17.825Z</time></trkpt><trkpt lat="41.8460167" lon="-7.9503867"><ele>1143.3333333333333</ele><time>2026-04-04T14:27:18.828Z</time></trkpt><trkpt lat="41.845955" lon="-7.950455"><ele>1143.6666666666665</ele><time>2026-04-04T14:27:19.827Z</time></trkpt><trkpt lat="41.8458917" lon="-7.9505183"><ele>1144.0</ele><time>2026-04-04T14:27:20.825Z</time></trkpt><trkpt lat="41.845835" lon="-7.9505733"><ele>1141.0</ele><time>2026-04-04T14:27:21.825Z</time></trkpt><trkpt lat="41.8457783" lon="-7.9506233"><ele>1138.0</ele><time>2026-04-04T14:27:22.825Z</time></trkpt><trkpt lat="41.8456933" lon="-7.9507033"><ele>1135.0</ele><time>2026-04-04T14:27:24.826Z</time></trkpt><trkpt lat="41.845715" lon="-7.9506017"><ele>1132.0</ele><time>2026-04-04T14:28:44.823Z</time></trkpt><trkpt lat="41.8458083" lon="-7.950535"><ele>1129.0</ele><time>2026-04-04T14:28:46.823Z</time></trkpt><trkpt lat="41.8459083" lon="-7.9504617"><ele>1132.0</ele><time>2026-04-04T14:28:48.823Z</time></trkpt><trkpt lat="41.8459983" lon="-7.9503933"><ele>1135.0</ele><time>2026-04-04T14:28:50.823Z</time></trkpt><trkpt lat="41.8460917" lon="-7.9503117"><ele>1138.0</ele><time>2026-04-04T14:28:52.823Z</time></trkpt><trkpt lat="41.8461967" lon="-7.9502"><ele>1141.0</ele><time>2026-04-04T14:28:54.825Z</time></trkpt><trkpt lat="41.8462583" lon="-7.9501283"><ele>1144.0</ele><time>2026-04-04T14:28:55.824Z</time></trkpt><trkpt lat="41.8463217" lon="-7.9500433"><ele>1143.6666666666665</ele><time>2026-04-04T14:28:56.825Z</time></trkpt><trkpt lat="41.8463817" lon="-7.949965"><ele>1143.3333333333333</ele><time>2026-04-04T14:28:57.823Z</time></trkpt><trkpt lat="41.8464433" lon="-7.9498867"><ele>1143.0</ele><time>2026-04-04T14:28:58.822Z</time></trkpt><trkpt lat="41.8465" lon="-7.9498133"><ele>1142.6666666666667</ele><time>2026-04-04T14:28:59.823Z</time></trkpt><trkpt lat="41.8465567" lon="-7.9497383"><ele>1142.3333333333335</ele><time>2026-04-04T14:29:00.823Z</time></trkpt><trkpt lat="41.8466133" lon="-7.9496617"><ele>1142.0</ele><time>2026-04-04T14:29:01.822Z</time></trkpt><trkpt lat="41.8466717" lon="-7.9495833"><ele>1142.0</ele><time>2026-04-04T14:29:02.823Z</time></trkpt><trkpt lat="41.8467283" lon="-7.9495083"><ele>1142.0</ele><time>2026-04-04T14:29:03.826Z</time></trkpt><trkpt lat="41.8467933" lon="-7.949435"><ele>1142.0</ele><time>2026-04-04T14:29:04.823Z</time></trkpt><trkpt lat="41.8468667" lon="-7.949375"><ele>1142.0</ele><time>2026-04-04T14:29:05.823Z</time></trkpt><trkpt lat="41.846955" lon="-7.9493183"><ele>1142.0</ele><time>2026-04-04T14:29:06.824Z</time></trkpt><trkpt lat="41.8470467" lon="-7.9492733"><ele>1142.0</ele><time>2026-04-04T14:29:07.823Z</time></trkpt><trkpt lat="41.8471433" lon="-7.9492283"><ele>1142.0</ele><time>2026-04-04T14:29:08.823Z</time></trkpt><trkpt lat="41.847245" lon="-7.9491867"><ele>1142.0</ele><time>2026-04-04T14:29:09.822Z</time></trkpt><trkpt lat="41.847345" lon="-7.94914"><ele>1142.0</ele><time>2026-04-04T14:29:10.822Z</time></trkpt><trkpt lat="41.8474383" lon="-7.949095"><ele>1142.0</ele><time>2026-04-04T14:29:11.824Z</time></trkpt><trkpt lat="41.8475267" lon="-7.94905"><ele>1142.0</ele><time>2026-04-04T14:29:12.824Z</time></trkpt><trkpt lat="41.8476033" lon="-7.9490117"><ele>1142.0</ele><time>2026-04-04T14:29:13.823Z</time></trkpt><trkpt lat="41.8476833" lon="-7.9489767"><ele>1142.0</ele><time>2026-04-04T14:29:14.824Z</time></trkpt><trkpt lat="41.847765" lon="-7.94895"><ele>1142.0</ele><time>2026-04-04T14:29:15.823Z</time></trkpt><trkpt lat="41.8478483" lon="-7.9489417"><ele>1142.0</ele><time>2026-04-04T14:29:16.823Z</time></trkpt><trkpt lat="41.84793" lon="-7.9489583"><ele>1142.0</ele><time>2026-04-04T14:29:17.826Z</time></trkpt><trkpt lat="41.8480117" lon="-7.948985"><ele>1142.0</ele><time>2026-04-04T14:29:18.824Z</time></trkpt><trkpt lat="41.8480933" lon="-7.9490167"><ele>1142.0</ele><time>2026-04-04T14:29:19.823Z</time></trkpt><trkpt lat="41.8481717" lon="-7.9490467"><ele>1142.0</ele><time>2026-04-04T14:29:20.826Z</time></trkpt><trkpt lat="41.8482517" lon="-7.949075"><ele>1142.0</ele><time>2026-04-04T14:29:21.824Z</time></trkpt><trkpt lat="41.848335" lon="-7.9491"><ele>1142.0</ele><time>2026-04-04T14:29:22.823Z</time></trkpt><trkpt lat="41.84842" lon="-7.949125"><ele>1142.0</ele><time>2026-04-04T14:29:23.822Z</time></trkpt><trkpt lat="41.8485017" lon="-7.9491533"><ele>1142.0</ele><time>2026-04-04T14:29:24.823Z</time></trkpt><trkpt lat="41.848585" lon="-7.94919"><ele>1143.1666666666667</ele><time>2026-04-04T14:29:25.823Z</time></trkpt><trkpt lat="41.8486567" lon="-7.949225"><ele>1144.3333333333335</ele><time>2026-04-04T14:29:26.823Z</time></trkpt><trkpt lat="41.84872" lon="-7.9492583"><ele>1145.5</ele><time>2026-04-04T14:29:27.823Z</time></trkpt><trkpt lat="41.8488117" lon="-7.94931"><ele>1146.6666666666667</ele><time>2026-04-04T14:29:29.824Z</time></trkpt><trkpt lat="41.8488933" lon="-7.9493483"><ele>1147.8333333333333</ele><time>2026-04-04T14:29:31.824Z</time></trkpt><trkpt lat="41.848975" lon="-7.9493867"><ele>1149.0</ele><time>2026-04-04T14:29:33.823Z</time></trkpt><trkpt lat="41.84906" lon="-7.9494233"><ele>1149.0</ele><time>2026-04-04T14:29:35.823Z</time></trkpt><trkpt lat="41.8491683" lon="-7.949485"><ele>1149.0</ele><time>2026-04-04T14:29:37.823Z</time></trkpt><trkpt lat="41.8492267" lon="-7.9495233"><ele>1149.0</ele><time>2026-04-04T14:29:38.824Z</time></trkpt><trkpt lat="41.8492817" lon="-7.949575"><ele>1149.0</ele><time>2026-04-04T14:29:39.823Z</time></trkpt><trkpt lat="41.8493433" lon="-7.9496383"><ele>1149.0</ele><time>2026-04-04T14:29:40.823Z</time></trkpt><trkpt lat="41.84941" lon="-7.9497083"><ele>1149.0</ele><time>2026-04-04T14:29:41.823Z</time></trkpt><trkpt lat="41.84948" lon="-7.949785"><ele>1148.6666666666667</ele><time>2026-04-04T14:29:42.824Z</time></trkpt><trkpt lat="41.8495517" lon="-7.9498633"><ele>1148.3333333333333</ele><time>2026-04-04T14:29:43.823Z</time></trkpt><trkpt lat="41.84962" lon="-7.9499383"><ele>1148.0</ele><time>2026-04-04T14:29:44.823Z</time></trkpt><trkpt lat="41.849675" lon="-7.950005"><ele>1147.6666666666665</ele><time>2026-04-04T14:29:45.826Z</time></trkpt><trkpt lat="41.8497267" lon="-7.950065"><ele>1147.3333333333333</ele><time>2026-04-04T14:29:46.824Z</time></trkpt><trkpt lat="41.8497733" lon="-7.9501233"><ele>1147.0</ele><time>2026-04-04T14:29:47.824Z</time></trkpt><trkpt lat="41.8498233" lon="-7.95019"><ele>1147.0</ele><time>2026-04-04T14:29:48.823Z</time></trkpt><trkpt lat="41.8498767" lon="-7.950265"><ele>1147.0</ele><time>2026-04-04T14:29:49.827Z</time></trkpt><trkpt lat="41.8499267" lon="-7.9503483"><ele>1147.0</ele><time>2026-04-04T14:29:50.823Z</time></trkpt><trkpt lat="41.8499817" lon="-7.95043"><ele>1147.0</ele><time>2026-04-04T14:29:51.823Z</time></trkpt><trkpt lat="41.8500367" lon="-7.9505083"><ele>1147.0</ele><time>2026-04-04T14:29:52.823Z</time></trkpt><trkpt lat="41.8500983" lon="-7.95058"><ele>1147.0</ele><time>2026-04-04T14:29:53.823Z</time></trkpt><trkpt lat="41.850165" lon="-7.9506433"><ele>1147.1666666666665</ele><time>2026-04-04T14:29:54.823Z</time></trkpt><trkpt lat="41.8502333" lon="-7.9507017"><ele>1147.3333333333333</ele><time>2026-04-04T14:29:55.823Z</time></trkpt><trkpt lat="41.8503033" lon="-7.9507533"><ele>1147.5</ele><time>2026-04-04T14:29:56.823Z</time></trkpt><trkpt lat="41.85038" lon="-7.9508033"><ele>1147.6666666666667</ele><time>2026-04-04T14:29:57.823Z</time></trkpt><trkpt lat="41.8504633" lon="-7.950865"><ele>1147.8333333333335</ele><time>2026-04-04T14:29:58.823Z</time></trkpt><trkpt lat="41.8505567" lon="-7.950935"><ele>1148.0</ele><time>2026-04-04T14:29:59.822Z</time></trkpt><trkpt lat="41.8506567" lon="-7.9510083"><ele>1148.0</ele><time>2026-04-04T14:30:00.824Z</time></trkpt><trkpt lat="41.850765" lon="-7.95109"><ele>1148.0</ele><time>2026-04-04T14:30:01.823Z</time></trkpt><trkpt lat="41.8508783" lon="-7.95117"><ele>1148.0</ele><time>2026-04-04T14:30:02.823Z</time></trkpt><trkpt lat="41.85099" lon="-7.951245"><ele>1148.0</ele><time>2026-04-04T14:30:03.823Z</time></trkpt><trkpt lat="41.8511083" lon="-7.951305"><ele>1148.0</ele><time>2026-04-04T14:30:04.822Z</time></trkpt><trkpt lat="41.8512267" lon="-7.9513533"><ele>1148.0</ele><time>2026-04-04T14:30:05.822Z</time></trkpt><trkpt lat="41.8513433" lon="-7.9513933"><ele>1148.0</ele><time>2026-04-04T14:30:06.823Z</time></trkpt><trkpt lat="41.851455" lon="-7.95142"><ele>1148.0</ele><time>2026-04-04T14:30:07.823Z</time></trkpt><trkpt lat="41.851565" lon="-7.9514383"><ele>1148.0</ele><time>2026-04-04T14:30:08.823Z</time></trkpt><trkpt lat="41.8516683" lon="-7.951445"><ele>1148.0</ele><time>2026-04-04T14:30:09.823Z</time></trkpt><trkpt lat="41.85177" lon="-7.9514467"><ele>1148.0</ele><time>2026-04-04T14:30:10.822Z</time></trkpt><trkpt lat="41.8518667" lon="-7.9514383"><ele>1148.0</ele><time>2026-04-04T14:30:11.824Z</time></trkpt><trkpt lat="41.85196" lon="-7.9514267"><ele>1148.0</ele><time>2026-04-04T14:30:12.823Z</time></trkpt><trkpt lat="41.85206" lon="-7.95141"><ele>1146.6</ele><time>2026-04-04T14:30:13.823Z</time></trkpt><trkpt lat="41.8521633" lon="-7.951385"><ele>1145.1999999999998</ele><time>2026-04-04T14:30:14.823Z</time></trkpt><trkpt lat="41.8522633" lon="-7.9513633"><ele>1143.8</ele><time>2026-04-04T14:30:15.823Z</time></trkpt><trkpt lat="41.8523567" lon="-7.9513433"><ele>1142.3999999999999</ele><time>2026-04-04T14:30:16.824Z</time></trkpt><trkpt lat="41.85244" lon="-7.9513267"><ele>1141.0</ele><time>2026-04-04T14:30:17.823Z</time></trkpt><trkpt lat="41.852515" lon="-7.9513083"><ele>1141.0</ele><time>2026-04-04T14:30:18.823Z</time></trkpt><trkpt lat="41.85259" lon="-7.951285"><ele>1141.0</ele><time>2026-04-04T14:30:19.824Z</time></trkpt><trkpt lat="41.85267" lon="-7.9512567"><ele>1141.0</ele><time>2026-04-04T14:30:20.823Z</time></trkpt><trkpt lat="41.8527567" lon="-7.9512267"><ele>1141.0</ele><time>2026-04-04T14:30:21.823Z</time></trkpt><trkpt lat="41.85285" lon="-7.9511967"><ele>1141.0</ele><time>2026-04-04T14:30:22.823Z</time></trkpt><trkpt lat="41.852945" lon="-7.95118"><ele>1141.0</ele><time>2026-04-04T14:30:23.823Z</time></trkpt><trkpt lat="41.8530417" lon="-7.9511767"><ele>1137.8333333333333</ele><time>2026-04-04T14:30:24.823Z</time></trkpt><trkpt lat="41.8531317" lon="-7.951185"><ele>1134.6666666666665</ele><time>2026-04-04T14:30:25.823Z</time></trkpt><trkpt lat="41.8532083" lon="-7.9511983"><ele>1131.5</ele><time>2026-04-04T14:30:26.823Z</time></trkpt><trkpt lat="41.8532717" lon="-7.95121"><ele>1128.3333333333333</ele><time>2026-04-04T14:30:27.823Z</time></trkpt><trkpt lat="41.8533483" lon="-7.95122"><ele>1125.1666666666667</ele><time>2026-04-04T14:30:29.826Z</time></trkpt><trkpt lat="41.8533717" lon="-7.95114"><ele>1122.0</ele><time>2026-04-04T14:30:32.824Z</time></trkpt><trkpt lat="41.8533433" lon="-7.95101"><ele>1122.0</ele><time>2026-04-04T14:30:34.823Z</time></trkpt><trkpt lat="41.85331" lon="-7.95093"><ele>1122.0</ele><time>2026-04-04T14:30:35.822Z</time></trkpt><trkpt lat="41.8532817" lon="-7.9508483"><ele>1122.0</ele><time>2026-04-04T14:30:36.822Z</time></trkpt><trkpt lat="41.8532583" lon="-7.9507633"><ele>1122.0</ele><time>2026-04-04T14:30:37.823Z</time></trkpt><trkpt lat="41.8532283" lon="-7.9506767"><ele>1122.0</ele><time>2026-04-04T14:30:38.824Z</time></trkpt><trkpt lat="41.8532017" lon="-7.9505983"><ele>1122.0</ele><time>2026-04-04T14:30:39.824Z</time></trkpt><trkpt lat="41.8531867" lon="-7.9504617"><ele>1122.0</ele><time>2026-04-04T14:30:41.823Z</time></trkpt><trkpt lat="41.85323" lon="-7.950375"><ele>1120.6666666666667</ele><time>2026-04-04T14:30:43.825Z</time></trkpt><trkpt lat="41.8533217" lon="-7.95035"><ele>1119.3333333333333</ele><time>2026-04-04T14:30:45.822Z</time></trkpt><trkpt lat="41.85345" lon="-7.9503517"><ele>1118.0</ele><time>2026-04-04T14:30:47.824Z</time></trkpt><trkpt lat="41.8535217" lon="-7.9503467"><ele>1116.6666666666665</ele><time>2026-04-04T14:30:48.824Z</time></trkpt><trkpt lat="41.8535867" lon="-7.95034"><ele>1115.3333333333333</ele><time>2026-04-04T14:30:49.823Z</time></trkpt><trkpt lat="41.85365" lon="-7.9503283"><ele>1114.0</ele><time>2026-04-04T14:30:50.824Z</time></trkpt><trkpt lat="41.85376" lon="-7.950295"><ele>1113.8333333333333</ele><time>2026-04-04T14:30:52.823Z</time></trkpt><trkpt lat="41.853825" lon="-7.95028"><ele>1113.6666666666665</ele><time>2026-04-04T14:30:53.823Z</time></trkpt><trkpt lat="41.8538917" lon="-7.9502667"><ele>1113.5</ele><time>2026-04-04T14:30:54.824Z</time></trkpt><trkpt lat="41.85396" lon="-7.9502617"><ele>1113.3333333333333</ele><time>2026-04-04T14:30:55.827Z</time></trkpt><trkpt lat="41.8540233" lon="-7.9502717"><ele>1113.1666666666667</ele><time>2026-04-04T14:30:56.823Z</time></trkpt><trkpt lat="41.8541183" lon="-7.950345"><ele>1113.0</ele><time>2026-04-04T14:30:58.823Z</time></trkpt><trkpt lat="41.8541617" lon="-7.9505033"><ele>1113.0</ele><time>2026-04-04T14:31:00.824Z</time></trkpt><trkpt lat="41.8541817" lon="-7.9506"><ele>1113.0</ele><time>2026-04-04T14:31:01.824Z</time></trkpt><trkpt lat="41.8542017" lon="-7.9507083"><ele>1113.0</ele><time>2026-04-04T14:31:02.823Z</time></trkpt><trkpt lat="41.8542233" lon="-7.9508267"><ele>1113.0</ele><time>2026-04-04T14:31:03.823Z</time></trkpt><trkpt lat="41.8542417" lon="-7.950955"><ele>1113.0</ele><time>2026-04-04T14:31:04.823Z</time></trkpt><trkpt lat="41.8542583" lon="-7.9510783"><ele>1113.0</ele><time>2026-04-04T14:31:05.823Z</time></trkpt><trkpt lat="41.8542733" lon="-7.9511983"><ele>1112.8333333333333</ele><time>2026-04-04T14:31:06.824Z</time></trkpt><trkpt lat="41.8542867" lon="-7.9513067"><ele>1112.6666666666667</ele><time>2026-04-04T14:31:07.823Z</time></trkpt><trkpt lat="41.8543033" lon="-7.95141"><ele>1112.5</ele><time>2026-04-04T14:31:08.823Z</time></trkpt><trkpt lat="41.854325" lon="-7.9514917"><ele>1112.3333333333335</ele><time>2026-04-04T14:31:09.823Z</time></trkpt><trkpt lat="41.8543717" lon="-7.95157"><ele>1112.1666666666667</ele><time>2026-04-04T14:31:12.824Z</time></trkpt><trkpt lat="41.8544417" lon="-7.9514333"><ele>1112.0</ele><time>2026-04-04T14:31:15.824Z</time></trkpt><trkpt lat="41.8544733" lon="-7.9513367"><ele>1115.8</ele><time>2026-04-04T14:31:16.822Z</time></trkpt><trkpt lat="41.8545167" lon="-7.9512433"><ele>1119.6</ele><time>2026-04-04T14:31:17.823Z</time></trkpt><trkpt lat="41.8545733" lon="-7.95116"><ele>1123.3999999999999</ele><time>2026-04-04T14:31:18.825Z</time></trkpt><trkpt lat="41.8546417" lon="-7.951085"><ele>1127.2</ele><time>2026-04-04T14:31:19.824Z</time></trkpt><trkpt lat="41.854735" lon="-7.9510233"><ele>1131.0</ele><time>2026-04-04T14:31:20.824Z</time></trkpt><trkpt lat="41.8548533" lon="-7.9509617"><ele>1131.0</ele><time>2026-04-04T14:31:21.822Z</time></trkpt><trkpt lat="41.8549633" lon="-7.95092"><ele>1131.0</ele><time>2026-04-04T14:31:22.824Z</time></trkpt><trkpt lat="41.855075" lon="-7.9508867"><ele>1131.0</ele><time>2026-04-04T14:31:23.823Z</time></trkpt><trkpt lat="41.855185" lon="-7.950855"><ele>1131.0</ele><time>2026-04-04T14:31:24.823Z</time></trkpt><trkpt lat="41.8552933" lon="-7.9508267"><ele>1133.2</ele><time>2026-04-04T14:31:25.825Z</time></trkpt><trkpt lat="41.855395" lon="-7.9507883"><ele>1135.3999999999999</ele><time>2026-04-04T14:31:26.823Z</time></trkpt><trkpt lat="41.8554833" lon="-7.950745"><ele>1137.6</ele><time>2026-04-04T14:31:27.825Z</time></trkpt><trkpt lat="41.8555717" lon="-7.9506867"><ele>1139.8</ele><time>2026-04-04T14:31:28.822Z</time></trkpt><trkpt lat="41.85565" lon="-7.95061"><ele>1142.0</ele><time>2026-04-04T14:31:29.824Z</time></trkpt><trkpt lat="41.8557283" lon="-7.9505133"><ele>1142.0</ele><time>2026-04-04T14:31:30.823Z</time></trkpt><trkpt lat="41.8558067" lon="-7.9504133"><ele>1142.0</ele><time>2026-04-04T14:31:31.822Z</time></trkpt><trkpt lat="41.8558767" lon="-7.9503117"><ele>1142.0</ele><time>2026-04-04T14:31:32.823Z</time></trkpt><trkpt lat="41.8559483" lon="-7.9502117"><ele>1142.0</ele><time>2026-04-04T14:31:33.825Z</time></trkpt><trkpt lat="41.8560217" lon="-7.9501067"><ele>1142.0</ele><time>2026-04-04T14:31:34.823Z</time></trkpt><trkpt lat="41.856095" lon="-7.9500117"><ele>1142.4</ele><time>2026-04-04T14:31:35.824Z</time></trkpt><trkpt lat="41.8561733" lon="-7.9499233"><ele>1142.8000000000002</ele><time>2026-04-04T14:31:36.826Z</time></trkpt><trkpt lat="41.856265" lon="-7.9498367"><ele>1143.2</ele><time>2026-04-04T14:31:37.825Z</time></trkpt><trkpt lat="41.8563583" lon="-7.9497717"><ele>1143.6000000000001</ele><time>2026-04-04T14:31:38.825Z</time></trkpt><trkpt lat="41.8564583" lon="-7.9497333"><ele>1144.0</ele><time>2026-04-04T14:31:39.823Z</time></trkpt><trkpt lat="41.8565617" lon="-7.9497117"><ele>1144.0</ele><time>2026-04-04T14:31:40.826Z</time></trkpt><trkpt lat="41.8566733" lon="-7.949705"><ele>1144.0</ele><time>2026-04-04T14:31:41.825Z</time></trkpt><trkpt lat="41.8567883" lon="-7.94971"><ele>1144.0</ele><time>2026-04-04T14:31:42.824Z</time></trkpt><trkpt lat="41.8569" lon="-7.9497167"><ele>1144.0</ele><time>2026-04-04T14:31:43.823Z</time></trkpt><trkpt lat="41.857005" lon="-7.9497283"><ele>1144.0</ele><time>2026-04-04T14:31:44.826Z</time></trkpt><trkpt lat="41.8571017" lon="-7.9497433"><ele>1145.25</ele><time>2026-04-04T14:31:45.827Z</time></trkpt><trkpt lat="41.8572067" lon="-7.9497767"><ele>1146.5</ele><time>2026-04-04T14:31:46.823Z</time></trkpt><trkpt lat="41.8573117" lon="-7.9498217"><ele>1147.75</ele><time>2026-04-04T14:31:47.824Z</time></trkpt><trkpt lat="41.8574233" lon="-7.949865"><ele>1149.0</ele><time>2026-04-04T14:31:48.827Z</time></trkpt><trkpt lat="41.85754" lon="-7.94989"><ele>1150.5</ele><time>2026-04-04T14:31:49.824Z</time></trkpt><trkpt lat="41.8576567" lon="-7.9498933"><ele>1152.0</ele><time>2026-04-04T14:31:50.825Z</time></trkpt><trkpt lat="41.857775" lon="-7.9498683"><ele>1153.5</ele><time>2026-04-04T14:31:51.824Z</time></trkpt><trkpt lat="41.8578933" lon="-7.949825"><ele>1155.0</ele><time>2026-04-04T14:31:52.825Z</time></trkpt><trkpt lat="41.8580033" lon="-7.9497633"><ele>1155.0</ele><time>2026-04-04T14:31:53.825Z</time></trkpt><trkpt lat="41.8581167" lon="-7.9497"><ele>1155.0</ele><time>2026-04-04T14:31:54.825Z</time></trkpt><trkpt lat="41.8582283" lon="-7.94964"><ele>1155.0</ele><time>2026-04-04T14:31:55.824Z</time></trkpt><trkpt lat="41.8583383" lon="-7.94959"><ele>1155.0</ele><time>2026-04-04T14:31:56.823Z</time></trkpt><trkpt lat="41.8584567" lon="-7.9495617"><ele>1155.0</ele><time>2026-04-04T14:31:57.823Z</time></trkpt><trkpt lat="41.8585833" lon="-7.94955"><ele>1155.0</ele><time>2026-04-04T14:31:58.823Z</time></trkpt><trkpt lat="41.85871" lon="-7.9495517"><ele>1155.0</ele><time>2026-04-04T14:31:59.824Z</time></trkpt><trkpt lat="41.8588333" lon="-7.9495567"><ele>1155.0</ele><time>2026-04-04T14:32:00.824Z</time></trkpt><trkpt lat="41.858945" lon="-7.94958"><ele>1155.0</ele><time>2026-04-04T14:32:01.826Z</time></trkpt><trkpt lat="41.859055" lon="-7.9496233"><ele>1155.0</ele><time>2026-04-04T14:32:02.824Z</time></trkpt><trkpt lat="41.8591767" lon="-7.9496733"><ele>1155.0</ele><time>2026-04-04T14:32:03.822Z</time></trkpt><trkpt lat="41.8593133" lon="-7.9497333"><ele>1155.0</ele><time>2026-04-04T14:32:04.823Z</time></trkpt><trkpt lat="41.8594383" lon="-7.9497933"><ele>1153.75</ele><time>2026-04-04T14:32:05.823Z</time></trkpt><trkpt lat="41.859565" lon="-7.9498583"><ele>1152.5</ele><time>2026-04-04T14:32:06.826Z</time></trkpt><trkpt lat="41.85968" lon="-7.949925"><ele>1151.25</ele><time>2026-04-04T14:32:07.823Z</time></trkpt><trkpt lat="41.8597833" lon="-7.9499817"><ele>1150.0</ele><time>2026-04-04T14:32:08.824Z</time></trkpt><trkpt lat="41.8598767" lon="-7.9500333"><ele>1152.2</ele><time>2026-04-04T14:32:09.823Z</time></trkpt><trkpt lat="41.8599667" lon="-7.9500767"><ele>1154.4</ele><time>2026-04-04T14:32:10.823Z</time></trkpt><trkpt lat="41.8600667" lon="-7.9501067"><ele>1156.6</ele><time>2026-04-04T14:32:11.824Z</time></trkpt><trkpt lat="41.8601733" lon="-7.9501233"><ele>1158.8</ele><time>2026-04-04T14:32:12.826Z</time></trkpt><trkpt lat="41.8602867" lon="-7.9501333"><ele>1161.0</ele><time>2026-04-04T14:32:13.823Z</time></trkpt><trkpt lat="41.860405" lon="-7.9501483"><ele>1161.0</ele><time>2026-04-04T14:32:14.823Z</time></trkpt><trkpt lat="41.860525" lon="-7.95017"><ele>1161.0</ele><time>2026-04-04T14:32:15.823Z</time></trkpt><trkpt lat="41.8606433" lon="-7.950195"><ele>1161.0</ele><time>2026-04-04T14:32:16.823Z</time></trkpt><trkpt lat="41.8607617" lon="-7.9502217"><ele>1161.0</ele><time>2026-04-04T14:32:17.823Z</time></trkpt><trkpt lat="41.86088" lon="-7.95026"><ele>1160.0</ele><time>2026-04-04T14:32:18.823Z</time></trkpt><trkpt lat="41.861" lon="-7.95031"><ele>1159.0</ele><time>2026-04-04T14:32:19.823Z</time></trkpt><trkpt lat="41.86112" lon="-7.9503783"><ele>1158.0</ele><time>2026-04-04T14:32:20.826Z</time></trkpt><trkpt lat="41.8612367" lon="-7.95045"><ele>1157.0</ele><time>2026-04-04T14:32:21.826Z</time></trkpt><trkpt lat="41.8613483" lon="-7.9505183"><ele>1157.0</ele><time>2026-04-04T14:32:22.823Z</time></trkpt><trkpt lat="41.8614533" lon="-7.9505633"><ele>1157.0</ele><time>2026-04-04T14:32:23.825Z</time></trkpt><trkpt lat="41.8615417" lon="-7.950575"><ele>1157.0</ele><time>2026-04-04T14:32:24.824Z</time></trkpt><trkpt lat="41.86161" lon="-7.9505667"><ele>1157.0</ele><time>2026-04-04T14:32:25.823Z</time></trkpt><trkpt lat="41.86168" lon="-7.9505317"><ele>1157.0</ele><time>2026-04-04T14:32:26.825Z</time></trkpt><trkpt lat="41.86176" lon="-7.9504883"><ele>1157.0</ele><time>2026-04-04T14:32:27.825Z</time></trkpt><trkpt lat="41.8618483" lon="-7.9504433"><ele>1157.5</ele><time>2026-04-04T14:32:28.823Z</time></trkpt><trkpt lat="41.8619733" lon="-7.950395"><ele>1158.0</ele><time>2026-04-04T14:32:29.823Z</time></trkpt><trkpt lat="41.8621017" lon="-7.9503517"><ele>1158.5</ele><time>2026-04-04T14:32:30.826Z</time></trkpt><trkpt lat="41.8622283" lon="-7.9503133"><ele>1159.0</ele><time>2026-04-04T14:32:31.823Z</time></trkpt><trkpt lat="41.8623567" lon="-7.9502817"><ele>1159.0</ele><time>2026-04-04T14:32:32.823Z</time></trkpt><trkpt lat="41.8624867" lon="-7.9502567"><ele>1159.0</ele><time>2026-04-04T14:32:33.824Z</time></trkpt><trkpt lat="41.8626233" lon="-7.9502417"><ele>1159.0</ele><time>2026-04-04T14:32:34.825Z</time></trkpt><trkpt lat="41.8627733" lon="-7.9502283"><ele>1159.0</ele><time>2026-04-04T14:32:35.823Z</time></trkpt><trkpt lat="41.8629267" lon="-7.95021"><ele>1158.6000000000001</ele><time>2026-04-04T14:32:36.823Z</time></trkpt><trkpt lat="41.8630617" lon="-7.9501933"><ele>1158.2</ele><time>2026-04-04T14:32:37.823Z</time></trkpt><trkpt lat="41.8631767" lon="-7.9501817"><ele>1157.8000000000002</ele><time>2026-04-04T14:32:38.824Z</time></trkpt><trkpt lat="41.8632733" lon="-7.9501817"><ele>1157.4</ele><time>2026-04-04T14:32:39.826Z</time></trkpt><trkpt lat="41.8633617" lon="-7.9501867"><ele>1157.0</ele><time>2026-04-04T14:32:40.823Z</time></trkpt><trkpt lat="41.8634367" lon="-7.95019"><ele>1157.0</ele><time>2026-04-04T14:32:41.823Z</time></trkpt><trkpt lat="41.863535" lon="-7.9501817"><ele>1157.0</ele><time>2026-04-04T14:32:43.824Z</time></trkpt><trkpt lat="41.863615" lon="-7.9501733"><ele>1157.0</ele><time>2026-04-04T14:32:45.828Z</time></trkpt><trkpt lat="41.863705" lon="-7.9501983"><ele>1157.0</ele><time>2026-04-04T14:32:47.823Z</time></trkpt><trkpt lat="41.8638033" lon="-7.9502467"><ele>1157.0</ele><time>2026-04-04T14:32:49.824Z</time></trkpt><trkpt lat="41.8638883" lon="-7.9503117"><ele>1157.0</ele><time>2026-04-04T14:32:51.825Z</time></trkpt><trkpt lat="41.864" lon="-7.95036"><ele>1157.0</ele><time>2026-04-04T14:32:53.823Z</time></trkpt><trkpt lat="41.8640733" lon="-7.950375"><ele>1157.0</ele><time>2026-04-04T14:32:54.824Z</time></trkpt><trkpt lat="41.864155" lon="-7.95039"><ele>1157.0</ele><time>2026-04-04T14:32:55.823Z</time></trkpt><trkpt lat="41.8642483" lon="-7.95041"><ele>1157.0</ele><time>2026-04-04T14:32:56.825Z</time></trkpt><trkpt lat="41.8643533" lon="-7.9504383"><ele>1159.2</ele><time>2026-04-04T14:32:57.825Z</time></trkpt><trkpt lat="41.8644617" lon="-7.9504567"><ele>1161.4</ele><time>2026-04-04T14:32:58.823Z</time></trkpt><trkpt lat="41.8645633" lon="-7.950455"><ele>1163.6</ele><time>2026-04-04T14:32:59.823Z</time></trkpt><trkpt lat="41.8646667" lon="-7.9504433"><ele>1165.8</ele><time>2026-04-04T14:33:00.825Z</time></trkpt><trkpt lat="41.86477" lon="-7.950425"><ele>1168.0</ele><time>2026-04-04T14:33:01.824Z</time></trkpt><trkpt lat="41.8648733" lon="-7.9504083"><ele>1168.0</ele><time>2026-04-04T14:33:02.823Z</time></trkpt><trkpt lat="41.864975" lon="-7.9503917"><ele>1168.0</ele><time>2026-04-04T14:33:03.824Z</time></trkpt><trkpt lat="41.8650767" lon="-7.9503783"><ele>1168.0</ele><time>2026-04-04T14:33:04.823Z</time></trkpt><trkpt lat="41.8651717" lon="-7.9503683"><ele>1168.0</ele><time>2026-04-04T14:33:05.823Z</time></trkpt><trkpt lat="41.8652567" lon="-7.9503717"><ele>1168.0</ele><time>2026-04-04T14:33:06.825Z</time></trkpt><trkpt lat="41.86534" lon="-7.950385"><ele>1168.1666666666665</ele><time>2026-04-04T14:33:07.824Z</time></trkpt><trkpt lat="41.86541" lon="-7.9504167"><ele>1168.3333333333333</ele><time>2026-04-04T14:33:08.826Z</time></trkpt><trkpt lat="41.8654683" lon="-7.9504767"><ele>1168.5</ele><time>2026-04-04T14:33:09.825Z</time></trkpt><trkpt lat="41.8655217" lon="-7.9505517"><ele>1168.6666666666667</ele><time>2026-04-04T14:33:10.824Z</time></trkpt><trkpt lat="41.8655717" lon="-7.95064"><ele>1168.8333333333335</ele><time>2026-04-04T14:33:11.823Z</time></trkpt><trkpt lat="41.8656217" lon="-7.9507183"><ele>1169.0</ele><time>2026-04-04T14:33:12.826Z</time></trkpt><trkpt lat="41.8656783" lon="-7.9507783"><ele>1169.0</ele><time>2026-04-04T14:33:13.825Z</time></trkpt><trkpt lat="41.865745" lon="-7.950825"><ele>1169.0</ele><time>2026-04-04T14:33:14.824Z</time></trkpt><trkpt lat="41.8658183" lon="-7.950855"><ele>1169.0</ele><time>2026-04-04T14:33:15.825Z</time></trkpt><trkpt lat="41.8658967" lon="-7.950875"><ele>1169.0</ele><time>2026-04-04T14:33:16.823Z</time></trkpt><trkpt lat="41.8659817" lon="-7.9508983"><ele>1169.0</ele><time>2026-04-04T14:33:17.823Z</time></trkpt><trkpt lat="41.8660717" lon="-7.95092"><ele>1169.0</ele><time>2026-04-04T14:33:18.823Z</time></trkpt><trkpt lat="41.8661683" lon="-7.950935"><ele>1172.0</ele><time>2026-04-04T14:33:19.823Z</time></trkpt><trkpt lat="41.8662717" lon="-7.9509367"><ele>1175.0</ele><time>2026-04-04T14:33:20.823Z</time></trkpt><trkpt lat="41.86637" lon="-7.9509283"><ele>1178.0</ele><time>2026-04-04T14:33:21.823Z</time></trkpt><trkpt lat="41.8664633" lon="-7.950915"><ele>1181.0</ele><time>2026-04-04T14:33:22.825Z</time></trkpt><trkpt lat="41.8665483" lon="-7.9509067"><ele>1184.0</ele><time>2026-04-04T14:33:23.824Z</time></trkpt><trkpt lat="41.8666217" lon="-7.9509033"><ele>1184.0</ele><time>2026-04-04T14:33:24.825Z</time></trkpt><trkpt lat="41.8667017" lon="-7.9508933"><ele>1184.0</ele><time>2026-04-04T14:33:25.823Z</time></trkpt><trkpt lat="41.8667867" lon="-7.9508767"><ele>1184.0</ele><time>2026-04-04T14:33:26.824Z</time></trkpt><trkpt lat="41.866865" lon="-7.9508567"><ele>1184.0</ele><time>2026-04-04T14:33:27.823Z</time></trkpt><trkpt lat="41.8669367" lon="-7.9508283"><ele>1184.0</ele><time>2026-04-04T14:33:28.823Z</time></trkpt><trkpt lat="41.867005" lon="-7.95078"><ele>1184.0</ele><time>2026-04-04T14:33:29.823Z</time></trkpt><trkpt lat="41.867075" lon="-7.9507033"><ele>1183.4</ele><time>2026-04-04T14:33:30.826Z</time></trkpt><trkpt lat="41.867155" lon="-7.9506167"><ele>1182.8000000000002</ele><time>2026-04-04T14:33:31.822Z</time></trkpt><trkpt lat="41.8672383" lon="-7.95052"><ele>1182.1999999999998</ele><time>2026-04-04T14:33:32.824Z</time></trkpt><trkpt lat="41.8673283" lon="-7.9504233"><ele>1181.6</ele><time>2026-04-04T14:33:33.823Z</time></trkpt><trkpt lat="41.8674167" lon="-7.95033"><ele>1181.0</ele><time>2026-04-04T14:33:34.823Z</time></trkpt><trkpt lat="41.8675083" lon="-7.9502383"><ele>1181.0</ele><time>2026-04-04T14:33:35.826Z</time></trkpt><trkpt lat="41.8676067" lon="-7.9501467"><ele>1181.0</ele><time>2026-04-04T14:33:36.823Z</time></trkpt><trkpt lat="41.86771" lon="-7.950055"><ele>1181.0</ele><time>2026-04-04T14:33:37.823Z</time></trkpt><trkpt lat="41.8678133" lon="-7.94998"><ele>1181.0</ele><time>2026-04-04T14:33:38.824Z</time></trkpt><trkpt lat="41.8679133" lon="-7.94994"><ele>1179.25</ele><time>2026-04-04T14:33:39.823Z</time></trkpt><trkpt lat="41.8680167" lon="-7.949925"><ele>1177.5</ele><time>2026-04-04T14:33:40.822Z</time></trkpt><trkpt lat="41.8681267" lon="-7.9499267"><ele>1175.75</ele><time>2026-04-04T14:33:41.823Z</time></trkpt><trkpt lat="41.8682483" lon="-7.9499233"><ele>1174.0</ele><time>2026-04-04T14:33:42.824Z</time></trkpt><trkpt lat="41.868365" lon="-7.949915"><ele>1174.6000000000001</ele><time>2026-04-04T14:33:43.823Z</time></trkpt><trkpt lat="41.8684817" lon="-7.9499"><ele>1175.2</ele><time>2026-04-04T14:33:44.825Z</time></trkpt><trkpt lat="41.868595" lon="-7.949885"><ele>1175.8000000000002</ele><time>2026-04-04T14:33:45.822Z</time></trkpt><trkpt lat="41.8686967" lon="-7.9498667"><ele>1176.4</ele><time>2026-04-04T14:33:46.823Z</time></trkpt><trkpt lat="41.8687883" lon="-7.9498583"><ele>1177.0</ele><time>2026-04-04T14:33:47.823Z</time></trkpt><trkpt lat="41.86887" lon="-7.9498567"><ele>1177.0</ele><time>2026-04-04T14:33:48.824Z</time></trkpt><trkpt lat="41.8689333" lon="-7.9498517"><ele>1177.0</ele><time>2026-04-04T14:33:49.823Z</time></trkpt><trkpt lat="41.869005" lon="-7.9498117"><ele>1177.0</ele><time>2026-04-04T14:33:51.824Z</time></trkpt><trkpt lat="41.8690917" lon="-7.9496867"><ele>1177.0</ele><time>2026-04-04T14:33:53.823Z</time></trkpt><trkpt lat="41.86915" lon="-7.9495983"><ele>1177.0</ele><time>2026-04-04T14:33:54.823Z</time></trkpt><trkpt lat="41.8692067" lon="-7.949505"><ele>1177.0</ele><time>2026-04-04T14:33:55.823Z</time></trkpt><trkpt lat="41.869265" lon="-7.9494217"><ele>1178.8</ele><time>2026-04-04T14:33:56.825Z</time></trkpt><trkpt lat="41.869325" lon="-7.9493467"><ele>1180.6</ele><time>2026-04-04T14:33:57.824Z</time></trkpt><trkpt lat="41.8693917" lon="-7.9492783"><ele>1182.3999999999999</ele><time>2026-04-04T14:33:58.823Z</time></trkpt><trkpt lat="41.8694717" lon="-7.9492117"><ele>1184.2</ele><time>2026-04-04T14:33:59.823Z</time></trkpt><trkpt lat="41.8695633" lon="-7.9491417"><ele>1186.0</ele><time>2026-04-04T14:34:00.825Z</time></trkpt><trkpt lat="41.86967" lon="-7.9490667"><ele>1186.0</ele><time>2026-04-04T14:34:01.823Z</time></trkpt><trkpt lat="41.8697783" lon="-7.949"><ele>1186.0</ele><time>2026-04-04T14:34:02.823Z</time></trkpt><trkpt lat="41.8698867" lon="-7.94894"><ele>1186.0</ele><time>2026-04-04T14:34:03.823Z</time></trkpt><trkpt lat="41.8699917" lon="-7.9488817"><ele>1186.0</ele><time>2026-04-04T14:34:04.823Z</time></trkpt><trkpt lat="41.8701033" lon="-7.9488217"><ele>1187.0</ele><time>2026-04-04T14:34:05.822Z</time></trkpt><trkpt lat="41.87021" lon="-7.9487683"><ele>1188.0</ele><time>2026-04-04T14:34:06.823Z</time></trkpt><trkpt lat="41.8703083" lon="-7.94873"><ele>1189.0</ele><time>2026-04-04T14:34:07.822Z</time></trkpt><trkpt lat="41.870405" lon="-7.9487133"><ele>1190.0</ele><time>2026-04-04T14:34:08.824Z</time></trkpt><trkpt lat="41.870505" lon="-7.9487117"><ele>1191.0</ele><time>2026-04-04T14:34:09.823Z</time></trkpt><trkpt lat="41.870595" lon="-7.94871"><ele>1191.0</ele><time>2026-04-04T14:34:10.822Z</time></trkpt><trkpt lat="41.8706833" lon="-7.9487"><ele>1191.0</ele><time>2026-04-04T14:34:11.824Z</time></trkpt><trkpt lat="41.8707783" lon="-7.948675"><ele>1191.0</ele><time>2026-04-04T14:34:12.823Z</time></trkpt><trkpt lat="41.8708733" lon="-7.9486433"><ele>1191.0</ele><time>2026-04-04T14:34:13.824Z</time></trkpt><trkpt lat="41.87095" lon="-7.9486167"><ele>1191.0</ele><time>2026-04-04T14:34:14.822Z</time></trkpt><trkpt lat="41.87102" lon="-7.9485967"><ele>1191.0</ele><time>2026-04-04T14:34:15.824Z</time></trkpt><trkpt lat="41.8711167" lon="-7.9485983"><ele>1190.8</ele><time>2026-04-04T14:34:17.823Z</time></trkpt><trkpt lat="41.8711733" lon="-7.9487067"><ele>1190.6</ele><time>2026-04-04T14:34:20.823Z</time></trkpt><trkpt lat="41.87122" lon="-7.9488583"><ele>1190.4</ele><time>2026-04-04T14:34:22.822Z</time></trkpt><trkpt lat="41.8712667" lon="-7.948965"><ele>1190.2</ele><time>2026-04-04T14:34:23.823Z</time></trkpt><trkpt lat="41.87132" lon="-7.9490617"><ele>1190.0</ele><time>2026-04-04T14:34:24.823Z</time></trkpt><trkpt lat="41.8713717" lon="-7.9491433"><ele>1191.6666666666667</ele><time>2026-04-04T14:34:25.823Z</time></trkpt><trkpt lat="41.871425" lon="-7.9492217"><ele>1193.3333333333335</ele><time>2026-04-04T14:34:26.823Z</time></trkpt><trkpt lat="41.8714733" lon="-7.9493"><ele>1195.0</ele><time>2026-04-04T14:34:27.823Z</time></trkpt><trkpt lat="41.8715233" lon="-7.9493783"><ele>1196.6666666666667</ele><time>2026-04-04T14:34:28.823Z</time></trkpt><trkpt lat="41.8715767" lon="-7.94946"><ele>1198.3333333333333</ele><time>2026-04-04T14:34:29.823Z</time></trkpt><trkpt lat="41.871635" lon="-7.9495483"><ele>1200.0</ele><time>2026-04-04T14:34:30.823Z</time></trkpt><trkpt lat="41.8717" lon="-7.9496483"><ele>1200.0</ele><time>2026-04-04T14:34:31.823Z</time></trkpt><trkpt lat="41.8717683" lon="-7.9497533"><ele>1200.0</ele><time>2026-04-04T14:34:32.824Z</time></trkpt><trkpt lat="41.87184" lon="-7.9498617"><ele>1200.0</ele><time>2026-04-04T14:34:33.823Z</time></trkpt><trkpt lat="41.871915" lon="-7.94998"><ele>1200.0</ele><time>2026-04-04T14:34:34.822Z</time></trkpt><trkpt lat="41.8719933" lon="-7.9501067"><ele>1199.75</ele><time>2026-04-04T14:34:35.824Z</time></trkpt><trkpt lat="41.87207" lon="-7.9502267"><ele>1199.5</ele><time>2026-04-04T14:34:36.824Z</time></trkpt><trkpt lat="41.8721433" lon="-7.9503483"><ele>1199.25</ele><time>2026-04-04T14:34:37.823Z</time></trkpt><trkpt lat="41.8722117" lon="-7.9504667"><ele>1199.0</ele><time>2026-04-04T14:34:38.823Z</time></trkpt><trkpt lat="41.8722817" lon="-7.9505983"><ele>1199.0</ele><time>2026-04-04T14:34:39.824Z</time></trkpt><trkpt lat="41.87235" lon="-7.9507333"><ele>1199.0</ele><time>2026-04-04T14:34:40.823Z</time></trkpt><trkpt lat="41.87241" lon="-7.95086"><ele>1199.0</ele><time>2026-04-04T14:34:41.823Z</time></trkpt><trkpt lat="41.872465" lon="-7.9509767"><ele>1199.0</ele><time>2026-04-04T14:34:42.822Z</time></trkpt><trkpt lat="41.8725167" lon="-7.951085"><ele>1199.0</ele><time>2026-04-04T14:34:43.822Z</time></trkpt><trkpt lat="41.8725717" lon="-7.9511817"><ele>1198.6000000000001</ele><time>2026-04-04T14:34:44.823Z</time></trkpt><trkpt lat="41.8726233" lon="-7.9512783"><ele>1198.2</ele><time>2026-04-04T14:34:45.823Z</time></trkpt><trkpt lat="41.8726817" lon="-7.951375"><ele>1197.8000000000002</ele><time>2026-04-04T14:34:46.823Z</time></trkpt><trkpt lat="41.8727383" lon="-7.95147"><ele>1197.4</ele><time>2026-04-04T14:34:47.824Z</time></trkpt><trkpt lat="41.8727967" lon="-7.9515683"><ele>1197.0</ele><time>2026-04-04T14:34:48.823Z</time></trkpt><trkpt lat="41.8728633" lon="-7.95166"><ele>1199.1666666666667</ele><time>2026-04-04T14:34:49.823Z</time></trkpt><trkpt lat="41.8729283" lon="-7.9517433"><ele>1201.3333333333333</ele><time>2026-04-04T14:34:50.823Z</time></trkpt><trkpt lat="41.8729867" lon="-7.9518217"><ele>1203.5</ele><time>2026-04-04T14:34:51.823Z</time></trkpt><trkpt lat="41.8730383" lon="-7.9518983"><ele>1205.6666666666665</ele><time>2026-04-04T14:34:52.823Z</time></trkpt><trkpt lat="41.873085" lon="-7.9519867"><ele>1207.8333333333333</ele><time>2026-04-04T14:34:53.823Z</time></trkpt><trkpt lat="41.8731117" lon="-7.9520883"><ele>1210.0</ele><time>2026-04-04T14:34:54.823Z</time></trkpt><trkpt lat="41.873135" lon="-7.95219"><ele>1210.0</ele><time>2026-04-04T14:34:55.823Z</time></trkpt><trkpt lat="41.8731617" lon="-7.9522867"><ele>1210.0</ele><time>2026-04-04T14:34:56.823Z</time></trkpt><trkpt lat="41.8732" lon="-7.9523717"><ele>1210.0</ele><time>2026-04-04T14:34:57.823Z</time></trkpt><trkpt lat="41.873235" lon="-7.9524483"><ele>1210.0</ele><time>2026-04-04T14:34:58.823Z</time></trkpt><trkpt lat="41.87328" lon="-7.9525633"><ele>1210.0</ele><time>2026-04-04T14:35:00.824Z</time></trkpt><trkpt lat="41.8733333" lon="-7.9526217"><ele>1210.0</ele><time>2026-04-04T14:35:02.824Z</time></trkpt><trkpt lat="41.873435" lon="-7.95249"><ele>1210.0</ele><time>2026-04-04T14:35:06.824Z</time></trkpt><trkpt lat="41.8732967" lon="-7.952355"><ele>1210.0</ele><time>2026-04-04T14:35:08.823Z</time></trkpt><trkpt lat="41.8732667" lon="-7.952255"><ele>1210.0</ele><time>2026-04-04T14:35:09.823Z</time></trkpt><trkpt lat="41.8732267" lon="-7.9521717"><ele>1210.0</ele><time>2026-04-04T14:35:10.823Z</time></trkpt><trkpt lat="41.8734233" lon="-7.9519833"><ele>1208.6666666666665</ele><time>2026-04-04T14:35:12.823Z</time></trkpt><trkpt lat="41.873575" lon="-7.9518867"><ele>1207.3333333333333</ele><time>2026-04-04T14:35:13.822Z</time></trkpt><trkpt lat="41.8736683" lon="-7.9517683"><ele>1206.0</ele><time>2026-04-04T14:35:14.823Z</time></trkpt><trkpt lat="41.87379" lon="-7.9516417"><ele>1206.0</ele><time>2026-04-04T14:35:15.823Z</time></trkpt><trkpt lat="41.87391" lon="-7.9515467"><ele>1206.0</ele><time>2026-04-04T14:35:16.824Z</time></trkpt><trkpt lat="41.8740817" lon="-7.9514367"><ele>1206.0</ele><time>2026-04-04T14:35:17.823Z</time></trkpt><trkpt lat="41.874175" lon="-7.9514033"><ele>1206.0</ele><time>2026-04-04T14:35:18.823Z</time></trkpt><trkpt lat="41.8742767" lon="-7.951395"><ele>1204.75</ele><time>2026-04-04T14:35:19.824Z</time></trkpt><trkpt lat="41.874385" lon="-7.9514333"><ele>1203.5</ele><time>2026-04-04T14:35:20.823Z</time></trkpt><trkpt lat="41.874495" lon="-7.9515017"><ele>1202.25</ele><time>2026-04-04T14:35:21.822Z</time></trkpt><trkpt lat="41.8746017" lon="-7.9515683"><ele>1201.0</ele><time>2026-04-04T14:35:22.822Z</time></trkpt><trkpt lat="41.8746983" lon="-7.951615"><ele>1201.0</ele><time>2026-04-04T14:35:23.822Z</time></trkpt><trkpt lat="41.87479" lon="-7.9516683"><ele>1201.0</ele><time>2026-04-04T14:35:24.823Z</time></trkpt><trkpt lat="41.8748667" lon="-7.9517533"><ele>1201.0</ele><time>2026-04-04T14:35:25.822Z</time></trkpt><trkpt lat="41.874935" lon="-7.9518467"><ele>1201.0</ele><time>2026-04-04T14:35:26.823Z</time></trkpt><trkpt lat="41.87499" lon="-7.9519533"><ele>1201.0</ele><time>2026-04-04T14:35:27.824Z</time></trkpt><trkpt lat="41.8750417" lon="-7.95207"><ele>1202.0</ele><time>2026-04-04T14:35:28.823Z</time></trkpt><trkpt lat="41.8750933" lon="-7.95218"><ele>1203.0</ele><time>2026-04-04T14:35:29.823Z</time></trkpt><trkpt lat="41.87515" lon="-7.9522817"><ele>1204.0</ele><time>2026-04-04T14:35:30.825Z</time></trkpt><trkpt lat="41.8752233" lon="-7.9523733"><ele>1205.0</ele><time>2026-04-04T14:35:31.823Z</time></trkpt><trkpt lat="41.8753033" lon="-7.952465"><ele>1206.0</ele><time>2026-04-04T14:35:32.823Z</time></trkpt><trkpt lat="41.8753783" lon="-7.9525533"><ele>1207.5</ele><time>2026-04-04T14:35:33.825Z</time></trkpt><trkpt lat="41.875455" lon="-7.9526367"><ele>1209.0</ele><time>2026-04-04T14:35:34.823Z</time></trkpt><trkpt lat="41.87553" lon="-7.952705"><ele>1210.5</ele><time>2026-04-04T14:35:35.823Z</time></trkpt><trkpt lat="41.8756067" lon="-7.9527567"><ele>1212.0</ele><time>2026-04-04T14:35:36.823Z</time></trkpt><trkpt lat="41.875685" lon="-7.9527933"><ele>1213.5</ele><time>2026-04-04T14:35:37.822Z</time></trkpt><trkpt lat="41.8757583" lon="-7.952815"><ele>1215.0</ele><time>2026-04-04T14:35:38.824Z</time></trkpt><trkpt lat="41.87583" lon="-7.9528017"><ele>1215.0</ele><time>2026-04-04T14:35:39.824Z</time></trkpt><trkpt lat="41.8759033" lon="-7.9527367"><ele>1215.0</ele><time>2026-04-04T14:35:40.824Z</time></trkpt><trkpt lat="41.87597" lon="-7.9526483"><ele>1215.0</ele><time>2026-04-04T14:35:41.824Z</time></trkpt><trkpt lat="41.87607" lon="-7.952545"><ele>1215.0</ele><time>2026-04-04T14:35:42.823Z</time></trkpt><trkpt lat="41.876165" lon="-7.9524767"><ele>1215.0</ele><time>2026-04-04T14:35:43.823Z</time></trkpt><trkpt lat="41.8762583" lon="-7.9524083"><ele>1211.4</ele><time>2026-04-04T14:35:44.823Z</time></trkpt><trkpt lat="41.8763533" lon="-7.95235"><ele>1207.8</ele><time>2026-04-04T14:35:45.823Z</time></trkpt><trkpt lat="41.8764433" lon="-7.952305"><ele>1204.2</ele><time>2026-04-04T14:35:46.823Z</time></trkpt><trkpt lat="41.8765283" lon="-7.9522733"><ele>1200.6</ele><time>2026-04-04T14:35:47.822Z</time></trkpt><trkpt lat="41.876615" lon="-7.9522667"><ele>1197.0</ele><time>2026-04-04T14:35:48.824Z</time></trkpt><trkpt lat="41.8767017" lon="-7.9522833"><ele>1197.0</ele><time>2026-04-04T14:35:49.823Z</time></trkpt><trkpt lat="41.876795" lon="-7.9523183"><ele>1197.0</ele><time>2026-04-04T14:35:50.823Z</time></trkpt><trkpt lat="41.8768933" lon="-7.95237"><ele>1197.0</ele><time>2026-04-04T14:35:51.823Z</time></trkpt><trkpt lat="41.8770017" lon="-7.9524317"><ele>1197.0</ele><time>2026-04-04T14:35:52.823Z</time></trkpt><trkpt lat="41.877115" lon="-7.9524933"><ele>1197.0</ele><time>2026-04-04T14:35:54.005Z</time></trkpt><trkpt lat="41.8773033" lon="-7.9525633"><ele>1197.0</ele><time>2026-04-04T14:35:55.198Z</time></trkpt><trkpt lat="41.877465" lon="-7.9526483"><ele>1197.0</ele><time>2026-04-04T14:35:56.822Z</time></trkpt><trkpt lat="41.877505" lon="-7.9527283"><ele>1197.0</ele><time>2026-04-04T14:35:57.824Z</time></trkpt><trkpt lat="41.87755" lon="-7.95282"><ele>1197.0</ele><time>2026-04-04T14:35:58.822Z</time></trkpt><trkpt lat="41.87759" lon="-7.9529267"><ele>1197.0</ele><time>2026-04-04T14:35:59.824Z</time></trkpt><trkpt lat="41.8776133" lon="-7.95304"><ele>1197.4</ele><time>2026-04-04T14:36:00.822Z</time></trkpt><trkpt lat="41.8776417" lon="-7.9531433"><ele>1197.8000000000002</ele><time>2026-04-04T14:36:01.823Z</time></trkpt><trkpt lat="41.8776667" lon="-7.9532617"><ele>1198.2</ele><time>2026-04-04T14:36:03.823Z</time></trkpt><trkpt lat="41.877785" lon="-7.953205"><ele>1198.6000000000001</ele><time>2026-04-04T14:36:06.823Z</time></trkpt><trkpt lat="41.877855" lon="-7.9531117"><ele>1199.0</ele><time>2026-04-04T14:36:07.823Z</time></trkpt><trkpt lat="41.8779267" lon="-7.9530117"><ele>1199.0</ele><time>2026-04-04T14:36:08.823Z</time></trkpt><trkpt lat="41.8780067" lon="-7.9529333"><ele>1199.0</ele><time>2026-04-04T14:36:09.826Z</time></trkpt><trkpt lat="41.8780917" lon="-7.95288"><ele>1199.0</ele><time>2026-04-04T14:36:10.825Z</time></trkpt><trkpt lat="41.8781883" lon="-7.95285"><ele>1199.0</ele><time>2026-04-04T14:36:11.823Z</time></trkpt><trkpt lat="41.8782833" lon="-7.9528283"><ele>1199.0</ele><time>2026-04-04T14:36:12.824Z</time></trkpt><trkpt lat="41.8783833" lon="-7.95281"><ele>1199.4</ele><time>2026-04-04T14:36:13.824Z</time></trkpt><trkpt lat="41.87848" lon="-7.952785"><ele>1199.8000000000002</ele><time>2026-04-04T14:36:14.823Z</time></trkpt><trkpt lat="41.8785667" lon="-7.9527483"><ele>1200.1999999999998</ele><time>2026-04-04T14:36:15.823Z</time></trkpt><trkpt lat="41.8786533" lon="-7.9526917"><ele>1200.6</ele><time>2026-04-04T14:36:16.823Z</time></trkpt><trkpt lat="41.8787417" lon="-7.9526183"><ele>1201.0</ele><time>2026-04-04T14:36:17.825Z</time></trkpt><trkpt lat="41.87883" lon="-7.9525383"><ele>1197.2</ele><time>2026-04-04T14:36:18.823Z</time></trkpt><trkpt lat="41.8789183" lon="-7.9524567"><ele>1193.3999999999999</ele><time>2026-04-04T14:36:19.824Z</time></trkpt><trkpt lat="41.8790033" lon="-7.9523867"><ele>1189.6</ele><time>2026-04-04T14:36:20.824Z</time></trkpt><trkpt lat="41.8790817" lon="-7.952325"><ele>1185.8</ele><time>2026-04-04T14:36:21.823Z</time></trkpt><trkpt lat="41.8791483" lon="-7.95227"><ele>1182.0</ele><time>2026-04-04T14:36:22.823Z</time></trkpt><trkpt lat="41.879215" lon="-7.952225"><ele>1180.8</ele><time>2026-04-04T14:36:23.823Z</time></trkpt><trkpt lat="41.8792867" lon="-7.9521833"><ele>1179.6</ele><time>2026-04-04T14:36:24.825Z</time></trkpt><trkpt lat="41.8793683" lon="-7.95214"><ele>1178.3999999999999</ele><time>2026-04-04T14:36:25.824Z</time></trkpt><trkpt lat="41.8794517" lon="-7.9520867"><ele>1177.2</ele><time>2026-04-04T14:36:26.823Z</time></trkpt><trkpt lat="41.8795367" lon="-7.9520167"><ele>1176.0</ele><time>2026-04-04T14:36:27.824Z</time></trkpt><trkpt lat="41.87962" lon="-7.9519233"><ele>1176.0</ele><time>2026-04-04T14:36:28.823Z</time></trkpt><trkpt lat="41.8796983" lon="-7.951815"><ele>1176.0</ele><time>2026-04-04T14:36:29.824Z</time></trkpt><trkpt lat="41.8797683" lon="-7.951705"><ele>1176.0</ele><time>2026-04-04T14:36:30.823Z</time></trkpt><trkpt lat="41.8798383" lon="-7.951595"><ele>1176.0</ele><time>2026-04-04T14:36:31.824Z</time></trkpt><trkpt lat="41.87991" lon="-7.9514933"><ele>1176.0</ele><time>2026-04-04T14:36:32.824Z</time></trkpt><trkpt lat="41.8799933" lon="-7.9514033"><ele>1174.3999999999999</ele><time>2026-04-04T14:36:33.824Z</time></trkpt><trkpt lat="41.880085" lon="-7.9513217"><ele>1172.8</ele><time>2026-04-04T14:36:34.823Z</time></trkpt><trkpt lat="41.88018" lon="-7.95125"><ele>1171.1999999999998</ele><time>2026-04-04T14:36:35.824Z</time></trkpt><trkpt lat="41.880275" lon="-7.95119"><ele>1169.6</ele><time>2026-04-04T14:36:36.823Z</time></trkpt><trkpt lat="41.8803783" lon="-7.9511483"><ele>1168.0</ele><time>2026-04-04T14:36:37.823Z</time></trkpt><trkpt lat="41.8804867" lon="-7.9511167"><ele>1166.4</ele><time>2026-04-04T14:36:38.825Z</time></trkpt><trkpt lat="41.880595" lon="-7.951095"><ele>1164.8</ele><time>2026-04-04T14:36:39.823Z</time></trkpt><trkpt lat="41.880705" lon="-7.951075"><ele>1163.2</ele><time>2026-04-04T14:36:40.823Z</time></trkpt><trkpt lat="41.8808133" lon="-7.95106"><ele>1161.6</ele><time>2026-04-04T14:36:41.823Z</time></trkpt><trkpt lat="41.8809167" lon="-7.95105"><ele>1160.0</ele><time>2026-04-04T14:36:42.824Z</time></trkpt><trkpt lat="41.8810133" lon="-7.95105"><ele>1158.3333333333335</ele><time>2026-04-04T14:36:43.823Z</time></trkpt><trkpt lat="41.8811" lon="-7.9510533"><ele>1156.6666666666667</ele><time>2026-04-04T14:36:44.823Z</time></trkpt><trkpt lat="41.8811767" lon="-7.95104"><ele>1155.0</ele><time>2026-04-04T14:36:45.823Z</time></trkpt><trkpt lat="41.8812483" lon="-7.9510183"><ele>1153.3333333333333</ele><time>2026-04-04T14:36:46.823Z</time></trkpt><trkpt lat="41.8813217" lon="-7.9509917"><ele>1151.6666666666665</ele><time>2026-04-04T14:36:47.823Z</time></trkpt><trkpt lat="41.8813883" lon="-7.950905"><ele>1150.0</ele><time>2026-04-04T14:36:48.824Z</time></trkpt><trkpt lat="41.8814683" lon="-7.95082"><ele>1150.0</ele><time>2026-04-04T14:36:49.824Z</time></trkpt><trkpt lat="41.881575" lon="-7.9507233"><ele>1150.0</ele><time>2026-04-04T14:36:50.824Z</time></trkpt><trkpt lat="41.88169" lon="-7.950635"><ele>1150.0</ele><time>2026-04-04T14:36:51.824Z</time></trkpt><trkpt lat="41.8818167" lon="-7.9505483"><ele>1150.0</ele><time>2026-04-04T14:36:52.825Z</time></trkpt><trkpt lat="41.88195" lon="-7.950465"><ele>1148.0</ele><time>2026-04-04T14:36:53.823Z</time></trkpt><trkpt lat="41.88208" lon="-7.9503833"><ele>1146.0</ele><time>2026-04-04T14:36:54.823Z</time></trkpt><trkpt lat="41.8821983" lon="-7.9503133"><ele>1144.0</ele><time>2026-04-04T14:36:55.824Z</time></trkpt><trkpt lat="41.8823133" lon="-7.95025"><ele>1142.0</ele><time>2026-04-04T14:36:56.823Z</time></trkpt><trkpt lat="41.882425" lon="-7.950185"><ele>1142.0</ele><time>2026-04-04T14:36:57.823Z</time></trkpt><trkpt lat="41.8825367" lon="-7.950125"><ele>1142.0</ele><time>2026-04-04T14:36:58.823Z</time></trkpt><trkpt lat="41.88264" lon="-7.95007"><ele>1142.0</ele><time>2026-04-04T14:36:59.823Z</time></trkpt><trkpt lat="41.8827317" lon="-7.9500167"><ele>1142.0</ele><time>2026-04-04T14:37:00.825Z</time></trkpt><trkpt lat="41.88282" lon="-7.9499683"><ele>1142.0</ele><time>2026-04-04T14:37:01.823Z</time></trkpt><trkpt lat="41.8829067" lon="-7.9499217"><ele>1142.0</ele><time>2026-04-04T14:37:02.824Z</time></trkpt><trkpt lat="41.8829917" lon="-7.949875"><ele>1142.0</ele><time>2026-04-04T14:37:03.823Z</time></trkpt><trkpt lat="41.8830733" lon="-7.9498267"><ele>1142.0</ele><time>2026-04-04T14:37:04.823Z</time></trkpt><trkpt lat="41.8831583" lon="-7.9497833"><ele>1142.0</ele><time>2026-04-04T14:37:05.823Z</time></trkpt><trkpt lat="41.8832533" lon="-7.9497333"><ele>1142.0</ele><time>2026-04-04T14:37:06.824Z</time></trkpt><trkpt lat="41.88334" lon="-7.9496783"><ele>1142.0</ele><time>2026-04-04T14:37:07.824Z</time></trkpt><trkpt lat="41.8834217" lon="-7.949625"><ele>1142.0</ele><time>2026-04-04T14:37:08.823Z</time></trkpt><trkpt lat="41.883495" lon="-7.949575"><ele>1142.0</ele><time>2026-04-04T14:37:09.823Z</time></trkpt><trkpt lat="41.8835667" lon="-7.9495233"><ele>1142.0</ele><time>2026-04-04T14:37:10.825Z</time></trkpt><trkpt lat="41.88364" lon="-7.94947"><ele>1142.0</ele><time>2026-04-04T14:37:11.823Z</time></trkpt><trkpt lat="41.8837167" lon="-7.949415"><ele>1142.0</ele><time>2026-04-04T14:37:12.824Z</time></trkpt><trkpt lat="41.883795" lon="-7.9493583"><ele>1141.4</ele><time>2026-04-04T14:37:13.823Z</time></trkpt><trkpt lat="41.883875" lon="-7.949295"><ele>1140.8000000000002</ele><time>2026-04-04T14:37:14.824Z</time></trkpt><trkpt lat="41.88396" lon="-7.9492333"><ele>1140.2</ele><time>2026-04-04T14:37:15.823Z</time></trkpt><trkpt lat="41.8840533" lon="-7.949185"><ele>1139.6000000000001</ele><time>2026-04-04T14:37:16.823Z</time></trkpt><trkpt lat="41.8841517" lon="-7.949145"><ele>1139.0</ele><time>2026-04-04T14:37:17.823Z</time></trkpt><trkpt lat="41.8842533" lon="-7.9491083"><ele>1136.0</ele><time>2026-04-04T14:37:18.826Z</time></trkpt><trkpt lat="41.8843483" lon="-7.949065"><ele>1133.0</ele><time>2026-04-04T14:37:19.823Z</time></trkpt><trkpt lat="41.8844367" lon="-7.9490167"><ele>1130.0</ele><time>2026-04-04T14:37:20.824Z</time></trkpt><trkpt lat="41.88452" lon="-7.948965"><ele>1127.0</ele><time>2026-04-04T14:37:21.823Z</time></trkpt><trkpt lat="41.8845967" lon="-7.9489017"><ele>1124.0</ele><time>2026-04-04T14:37:22.823Z</time></trkpt><trkpt lat="41.8846733" lon="-7.9488267"><ele>1124.0</ele><time>2026-04-04T14:37:23.822Z</time></trkpt><trkpt lat="41.8847517" lon="-7.948745"><ele>1124.0</ele><time>2026-04-04T14:37:24.824Z</time></trkpt><trkpt lat="41.8848283" lon="-7.9486583"><ele>1124.0</ele><time>2026-04-04T14:37:25.823Z</time></trkpt><trkpt lat="41.8849067" lon="-7.948565"><ele>1124.0</ele><time>2026-04-04T14:37:26.824Z</time></trkpt><trkpt lat="41.88499" lon="-7.94846"><ele>1124.0</ele><time>2026-04-04T14:37:27.824Z</time></trkpt><trkpt lat="41.885075" lon="-7.9483533"><ele>1121.75</ele><time>2026-04-04T14:37:28.823Z</time></trkpt><trkpt lat="41.885165" lon="-7.9482533"><ele>1119.5</ele><time>2026-04-04T14:37:29.823Z</time></trkpt><trkpt lat="41.8852567" lon="-7.9481567"><ele>1117.25</ele><time>2026-04-04T14:37:30.825Z</time></trkpt><trkpt lat="41.88535" lon="-7.94806"><ele>1115.0</ele><time>2026-04-04T14:37:31.823Z</time></trkpt><trkpt lat="41.8854433" lon="-7.947955"><ele>1115.0</ele><time>2026-04-04T14:37:32.825Z</time></trkpt><trkpt lat="41.8855383" lon="-7.9478567"><ele>1115.0</ele><time>2026-04-04T14:37:33.823Z</time></trkpt><trkpt lat="41.8856483" lon="-7.9477567"><ele>1115.0</ele><time>2026-04-04T14:37:34.823Z</time></trkpt><trkpt lat="41.8857583" lon="-7.9476483"><ele>1115.0</ele><time>2026-04-04T14:37:35.824Z</time></trkpt><trkpt lat="41.8858667" lon="-7.9475433"><ele>1112.5</ele><time>2026-04-04T14:37:36.823Z</time></trkpt><trkpt lat="41.8859683" lon="-7.9474317"><ele>1110.0</ele><time>2026-04-04T14:37:37.823Z</time></trkpt><trkpt lat="41.886065" lon="-7.947325"><ele>1107.5</ele><time>2026-04-04T14:37:38.823Z</time></trkpt><trkpt lat="41.8861567" lon="-7.9472217"><ele>1105.0</ele><time>2026-04-04T14:37:39.822Z</time></trkpt><trkpt lat="41.8862467" lon="-7.9471183"><ele>1105.0</ele><time>2026-04-04T14:37:40.822Z</time></trkpt><trkpt lat="41.886335" lon="-7.947025"><ele>1105.0</ele><time>2026-04-04T14:37:41.823Z</time></trkpt><trkpt lat="41.886415" lon="-7.9469383"><ele>1105.0</ele><time>2026-04-04T14:37:42.823Z</time></trkpt><trkpt lat="41.8864767" lon="-7.9468467"><ele>1105.0</ele><time>2026-04-04T14:37:43.824Z</time></trkpt><trkpt lat="41.8865217" lon="-7.9467483"><ele>1105.0</ele><time>2026-04-04T14:37:44.823Z</time></trkpt><trkpt lat="41.8865533" lon="-7.9466433"><ele>1105.6</ele><time>2026-04-04T14:37:45.823Z</time></trkpt><trkpt lat="41.8865683" lon="-7.94652"><ele>1106.2</ele><time>2026-04-04T14:37:46.822Z</time></trkpt><trkpt lat="41.8865733" lon="-7.946375"><ele>1106.8</ele><time>2026-04-04T14:37:47.822Z</time></trkpt><trkpt lat="41.8865817" lon="-7.94624"><ele>1107.4</ele><time>2026-04-04T14:37:48.823Z</time></trkpt><trkpt lat="41.8866033" lon="-7.9461167"><ele>1108.0</ele><time>2026-04-04T14:37:49.822Z</time></trkpt><trkpt lat="41.8866417" lon="-7.9460067"><ele>1108.0</ele><time>2026-04-04T14:37:50.823Z</time></trkpt><trkpt lat="41.8866917" lon="-7.94591"><ele>1108.0</ele><time>2026-04-04T14:37:51.825Z</time></trkpt><trkpt lat="41.8867583" lon="-7.9458283"><ele>1108.0</ele><time>2026-04-04T14:37:52.823Z</time></trkpt><trkpt lat="41.88686" lon="-7.9457483"><ele>1108.0</ele><time>2026-04-04T14:37:53.823Z</time></trkpt><trkpt lat="41.886985" lon="-7.9456767"><ele>1108.0</ele><time>2026-04-04T14:37:54.823Z</time></trkpt><trkpt lat="41.8871" lon="-7.945605"><ele>1104.5</ele><time>2026-04-04T14:37:55.822Z</time></trkpt><trkpt lat="41.8871967" lon="-7.94553"><ele>1101.0</ele><time>2026-04-04T14:37:56.823Z</time></trkpt><trkpt lat="41.887275" lon="-7.9454317"><ele>1097.5</ele><time>2026-04-04T14:37:57.822Z</time></trkpt><trkpt lat="41.8873467" lon="-7.9453083"><ele>1094.0</ele><time>2026-04-04T14:37:58.822Z</time></trkpt><trkpt lat="41.887405" lon="-7.945175"><ele>1094.5</ele><time>2026-04-04T14:37:59.823Z</time></trkpt><trkpt lat="41.8874583" lon="-7.9450367"><ele>1095.0</ele><time>2026-04-04T14:38:00.823Z</time></trkpt><trkpt lat="41.88751" lon="-7.9448967"><ele>1095.5</ele><time>2026-04-04T14:38:01.822Z</time></trkpt><trkpt lat="41.8875617" lon="-7.944755"><ele>1096.0</ele><time>2026-04-04T14:38:02.823Z</time></trkpt><trkpt lat="41.8876" lon="-7.94463"><ele>1095.0</ele><time>2026-04-04T14:38:03.823Z</time></trkpt><trkpt lat="41.88763" lon="-7.9445183"><ele>1094.0</ele><time>2026-04-04T14:38:04.823Z</time></trkpt><trkpt lat="41.887655" lon="-7.94443"><ele>1093.0</ele><time>2026-04-04T14:38:05.822Z</time></trkpt><trkpt lat="41.887685" lon="-7.9443267"><ele>1092.0</ele><time>2026-04-04T14:38:07.823Z</time></trkpt><trkpt lat="41.8877717" lon="-7.944355"><ele>1091.0</ele><time>2026-04-04T14:38:11.823Z</time></trkpt><trkpt lat="41.887865" lon="-7.94445"><ele>1090.0</ele><time>2026-04-04T14:38:13.823Z</time></trkpt><trkpt lat="41.8879367" lon="-7.9445133"><ele>1090.0</ele><time>2026-04-04T14:38:14.824Z</time></trkpt><trkpt lat="41.8880117" lon="-7.9445883"><ele>1090.0</ele><time>2026-04-04T14:38:15.822Z</time></trkpt><trkpt lat="41.888095" lon="-7.94467"><ele>1090.0</ele><time>2026-04-04T14:38:16.822Z</time></trkpt><trkpt lat="41.8881933" lon="-7.9447817"><ele>1090.0</ele><time>2026-04-04T14:38:17.823Z</time></trkpt><trkpt lat="41.8882817" lon="-7.944875"><ele>1090.0</ele><time>2026-04-04T14:38:18.822Z</time></trkpt><trkpt lat="41.88837" lon="-7.9449733"><ele>1087.2</ele><time>2026-04-04T14:38:19.823Z</time></trkpt><trkpt lat="41.8884583" lon="-7.9450583"><ele>1084.4</ele><time>2026-04-04T14:38:20.822Z</time></trkpt><trkpt lat="41.888545" lon="-7.9451367"><ele>1081.6</ele><time>2026-04-04T14:38:21.823Z</time></trkpt><trkpt lat="41.8886267" lon="-7.9452067"><ele>1078.8</ele><time>2026-04-04T14:38:22.823Z</time></trkpt><trkpt lat="41.8887083" lon="-7.94526"><ele>1076.0</ele><time>2026-04-04T14:38:23.823Z</time></trkpt><trkpt lat="41.8887783" lon="-7.9452983"><ele>1076.0</ele><time>2026-04-04T14:38:24.825Z</time></trkpt><trkpt lat="41.8888517" lon="-7.945335"><ele>1076.0</ele><time>2026-04-04T14:38:25.824Z</time></trkpt><trkpt lat="41.8889217" lon="-7.9453567"><ele>1076.0</ele><time>2026-04-04T14:38:26.823Z</time></trkpt><trkpt lat="41.88899" lon="-7.94538"><ele>1076.0</ele><time>2026-04-04T14:38:27.822Z</time></trkpt><trkpt lat="41.88906" lon="-7.945405"><ele>1076.0</ele><time>2026-04-04T14:38:28.822Z</time></trkpt><trkpt lat="41.88913" lon="-7.945435"><ele>1076.0</ele><time>2026-04-04T14:38:29.823Z</time></trkpt><trkpt lat="41.8891967" lon="-7.9454633"><ele>1076.0</ele><time>2026-04-04T14:38:30.823Z</time></trkpt><trkpt lat="41.88926" lon="-7.9454917"><ele>1076.0</ele><time>2026-04-04T14:38:31.823Z</time></trkpt><trkpt lat="41.88938" lon="-7.9455417"><ele>1076.0</ele><time>2026-04-04T14:38:33.826Z</time></trkpt><trkpt lat="41.8894417" lon="-7.9455683"><ele>1076.0</ele><time>2026-04-04T14:38:34.822Z</time></trkpt><trkpt lat="41.8895167" lon="-7.9455983"><ele>1076.0</ele><time>2026-04-04T14:38:35.825Z</time></trkpt><trkpt lat="41.8896083" lon="-7.9456283"><ele>1076.0</ele><time>2026-04-04T14:38:36.823Z</time></trkpt><trkpt lat="41.8897133" lon="-7.9456583"><ele>1076.0</ele><time>2026-04-04T14:38:37.824Z</time></trkpt><trkpt lat="41.8898367" lon="-7.94569"><ele>1076.0</ele><time>2026-04-04T14:38:38.824Z</time></trkpt><trkpt lat="41.88997" lon="-7.9457217"><ele>1076.0</ele><time>2026-04-04T14:38:39.822Z</time></trkpt><trkpt lat="41.890105" lon="-7.9457583"><ele>1076.0</ele><time>2026-04-04T14:38:40.823Z</time></trkpt><trkpt lat="41.89023" lon="-7.9457983"><ele>1076.75</ele><time>2026-04-04T14:38:41.823Z</time></trkpt><trkpt lat="41.8903467" lon="-7.9458617"><ele>1077.5</ele><time>2026-04-04T14:38:42.822Z</time></trkpt><trkpt lat="41.89045" lon="-7.9459533"><ele>1078.25</ele><time>2026-04-04T14:38:43.823Z</time></trkpt><trkpt lat="41.8905383" lon="-7.9460517"><ele>1079.0</ele><time>2026-04-04T14:38:44.823Z</time></trkpt><trkpt lat="41.8906067" lon="-7.9461533"><ele>1077.0</ele><time>2026-04-04T14:38:45.823Z</time></trkpt><trkpt lat="41.890665" lon="-7.9462417"><ele>1075.0</ele><time>2026-04-04T14:38:46.823Z</time></trkpt><trkpt lat="41.8907333" lon="-7.946315"><ele>1073.0</ele><time>2026-04-04T14:38:47.823Z</time></trkpt><trkpt lat="41.8908117" lon="-7.946375"><ele>1071.0</ele><time>2026-04-04T14:38:48.823Z</time></trkpt><trkpt lat="41.8908967" lon="-7.94642"><ele>1069.0</ele><time>2026-04-04T14:38:49.823Z</time></trkpt><trkpt lat="41.8909733" lon="-7.946455"><ele>1067.0</ele><time>2026-04-04T14:38:50.823Z</time></trkpt><trkpt lat="41.8910517" lon="-7.9464867"><ele>1066.8333333333335</ele><time>2026-04-04T14:38:51.823Z</time></trkpt><trkpt lat="41.89112" lon="-7.9465233"><ele>1066.6666666666667</ele><time>2026-04-04T14:38:52.822Z</time></trkpt><trkpt lat="41.8911817" lon="-7.9465533"><ele>1066.5</ele><time>2026-04-04T14:38:53.823Z</time></trkpt><trkpt lat="41.8912967" lon="-7.9466"><ele>1066.3333333333333</ele><time>2026-04-04T14:38:55.823Z</time></trkpt><trkpt lat="41.89136" lon="-7.9466233"><ele>1066.1666666666665</ele><time>2026-04-04T14:38:56.823Z</time></trkpt><trkpt lat="41.8914283" lon="-7.9466517"><ele>1066.0</ele><time>2026-04-04T14:38:57.824Z</time></trkpt><trkpt lat="41.8914967" lon="-7.9466733"><ele>1066.0</ele><time>2026-04-04T14:38:58.823Z</time></trkpt><trkpt lat="41.89156" lon="-7.9466867"><ele>1066.0</ele><time>2026-04-04T14:38:59.823Z</time></trkpt><trkpt lat="41.8916233" lon="-7.946705"><ele>1066.0</ele><time>2026-04-04T14:39:00.823Z</time></trkpt><trkpt lat="41.8916933" lon="-7.9467217"><ele>1066.0</ele><time>2026-04-04T14:39:01.826Z</time></trkpt><trkpt lat="41.8917717" lon="-7.9467417"><ele>1066.0</ele><time>2026-04-04T14:39:02.823Z</time></trkpt><trkpt lat="41.891855" lon="-7.94676"><ele>1066.0</ele><time>2026-04-04T14:39:03.823Z</time></trkpt><trkpt lat="41.89195" lon="-7.9467767"><ele>1064.2</ele><time>2026-04-04T14:39:04.822Z</time></trkpt><trkpt lat="41.8920533" lon="-7.946795"><ele>1062.3999999999999</ele><time>2026-04-04T14:39:05.823Z</time></trkpt><trkpt lat="41.89216" lon="-7.94682"><ele>1060.6</ele><time>2026-04-04T14:39:06.822Z</time></trkpt><trkpt lat="41.8922583" lon="-7.9468517"><ele>1058.8</ele><time>2026-04-04T14:39:07.824Z</time></trkpt><trkpt lat="41.8923433" lon="-7.9468983"><ele>1057.0</ele><time>2026-04-04T14:39:08.823Z</time></trkpt><trkpt lat="41.892415" lon="-7.9469633"><ele>1057.0</ele><time>2026-04-04T14:39:09.823Z</time></trkpt><trkpt lat="41.892465" lon="-7.9470383"><ele>1057.0</ele><time>2026-04-04T14:39:10.823Z</time></trkpt><trkpt lat="41.8925" lon="-7.94712"><ele>1057.0</ele><time>2026-04-04T14:39:11.823Z</time></trkpt><trkpt lat="41.892525" lon="-7.9472633"><ele>1057.0</ele><time>2026-04-04T14:39:13.823Z</time></trkpt><trkpt lat="41.892565" lon="-7.94734"><ele>1057.0</ele><time>2026-04-04T14:39:15.826Z</time></trkpt><trkpt lat="41.8926417" lon="-7.9473717"><ele>1057.0</ele><time>2026-04-04T14:39:18.823Z</time></trkpt><trkpt lat="41.892705" lon="-7.947385"><ele>1056.8</ele><time>2026-04-04T14:39:20.823Z</time></trkpt><trkpt lat="41.892795" lon="-7.9474067"><ele>1056.6</ele><time>2026-04-04T14:39:22.822Z</time></trkpt><trkpt lat="41.8929217" lon="-7.947455"><ele>1056.3999999999999</ele><time>2026-04-04T14:39:24.823Z</time></trkpt><trkpt lat="41.8929917" lon="-7.9474867"><ele>1056.2</ele><time>2026-04-04T14:39:25.823Z</time></trkpt><trkpt lat="41.8930667" lon="-7.947525"><ele>1056.0</ele><time>2026-04-04T14:39:26.823Z</time></trkpt><trkpt lat="41.8931417" lon="-7.9475533"><ele>1055.3999999999999</ele><time>2026-04-04T14:39:27.824Z</time></trkpt><trkpt lat="41.89322" lon="-7.9475783"><ele>1054.8</ele><time>2026-04-04T14:39:28.822Z</time></trkpt><trkpt lat="41.8933117" lon="-7.9475967"><ele>1054.1999999999998</ele><time>2026-04-04T14:39:29.823Z</time></trkpt><trkpt lat="41.8934067" lon="-7.947615"><ele>1053.6</ele><time>2026-04-04T14:39:30.824Z</time></trkpt><trkpt lat="41.8935" lon="-7.9476483"><ele>1053.0</ele><time>2026-04-04T14:39:31.823Z</time></trkpt><trkpt lat="41.8936017" lon="-7.9476983"><ele>1052.25</ele><time>2026-04-04T14:39:32.823Z</time></trkpt><trkpt lat="41.8937067" lon="-7.9477433"><ele>1051.5</ele><time>2026-04-04T14:39:33.823Z</time></trkpt><trkpt lat="41.8938217" lon="-7.9477883"><ele>1050.75</ele><time>2026-04-04T14:39:34.823Z</time></trkpt><trkpt lat="41.8939367" lon="-7.94783"><ele>1050.0</ele><time>2026-04-04T14:39:35.823Z</time></trkpt><trkpt lat="41.8940533" lon="-7.9478783"><ele>1050.0</ele><time>2026-04-04T14:39:36.823Z</time></trkpt><trkpt lat="41.89416" lon="-7.9479183"><ele>1050.0</ele><time>2026-04-04T14:39:37.827Z</time></trkpt><trkpt lat="41.8942517" lon="-7.94795"><ele>1050.0</ele><time>2026-04-04T14:39:38.826Z</time></trkpt><trkpt lat="41.8943317" lon="-7.94797"><ele>1050.0</ele><time>2026-04-04T14:39:39.824Z</time></trkpt><trkpt lat="41.8943983" lon="-7.9479817"><ele>1050.0</ele><time>2026-04-04T14:39:40.822Z</time></trkpt><trkpt lat="41.894515" lon="-7.9479817"><ele>1048.2</ele><time>2026-04-04T14:39:42.823Z</time></trkpt><trkpt lat="41.8946233" lon="-7.94796"><ele>1046.4</ele><time>2026-04-04T14:39:44.824Z</time></trkpt><trkpt lat="41.894745" lon="-7.9479217"><ele>1044.6</ele><time>2026-04-04T14:39:46.823Z</time></trkpt><trkpt lat="41.894815" lon="-7.9478883"><ele>1042.8</ele><time>2026-04-04T14:39:47.823Z</time></trkpt><trkpt lat="41.8948833" lon="-7.9478383"><ele>1041.0</ele><time>2026-04-04T14:39:48.823Z</time></trkpt><trkpt lat="41.89495" lon="-7.9477667"><ele>1041.0</ele><time>2026-04-04T14:39:49.822Z</time></trkpt><trkpt lat="41.8950067" lon="-7.9476717"><ele>1041.0</ele><time>2026-04-04T14:39:50.823Z</time></trkpt><trkpt lat="41.89506" lon="-7.9475733"><ele>1041.0</ele><time>2026-04-04T14:39:51.823Z</time></trkpt><trkpt lat="41.8951183" lon="-7.947485"><ele>1041.0</ele><time>2026-04-04T14:39:52.823Z</time></trkpt><trkpt lat="41.895175" lon="-7.9474"><ele>1041.0</ele><time>2026-04-04T14:39:53.823Z</time></trkpt><trkpt lat="41.895235" lon="-7.947335"><ele>1041.0</ele><time>2026-04-04T14:39:54.823Z</time></trkpt><trkpt lat="41.895295" lon="-7.9472933"><ele>1039.3999999999999</ele><time>2026-04-04T14:39:55.823Z</time></trkpt><trkpt lat="41.89536" lon="-7.9472683"><ele>1037.8</ele><time>2026-04-04T14:39:56.824Z</time></trkpt><trkpt lat="41.89546" lon="-7.947285"><ele>1036.1999999999998</ele><time>2026-04-04T14:39:58.822Z</time></trkpt><trkpt lat="41.8955117" lon="-7.9473367"><ele>1034.6</ele><time>2026-04-04T14:39:59.823Z</time></trkpt><trkpt lat="41.8956317" lon="-7.9473767"><ele>1033.0</ele><time>2026-04-04T14:40:01.823Z</time></trkpt><trkpt lat="41.8957267" lon="-7.9474033"><ele>1033.0</ele><time>2026-04-04T14:40:03.823Z</time></trkpt><trkpt lat="41.895795" lon="-7.9474617"><ele>1033.0</ele><time>2026-04-04T14:40:06.823Z</time></trkpt><trkpt lat="41.8958117" lon="-7.947555"><ele>1033.0</ele><time>2026-04-04T14:40:09.823Z</time></trkpt><trkpt lat="41.89578" lon="-7.9476317"><ele>1033.0</ele><time>2026-04-04T14:40:13.826Z</time></trkpt><trkpt lat="41.8957717" lon="-7.9477183"><ele>1033.0</ele><time>2026-04-04T14:40:15.824Z</time></trkpt><trkpt lat="41.895795" lon="-7.94785"><ele>1033.0</ele><time>2026-04-04T14:40:17.823Z</time></trkpt><trkpt lat="41.8957983" lon="-7.947955"><ele>1032.2</ele><time>2026-04-04T14:40:18.823Z</time></trkpt><trkpt lat="41.8957917" lon="-7.9480833"><ele>1031.4</ele><time>2026-04-04T14:40:19.824Z</time></trkpt><trkpt lat="41.89578" lon="-7.9482417"><ele>1030.6000000000001</ele><time>2026-04-04T14:40:20.823Z</time></trkpt><trkpt lat="41.8957833" lon="-7.9483867"><ele>1029.8</ele><time>2026-04-04T14:40:21.823Z</time></trkpt><trkpt lat="41.8957883" lon="-7.9485433"><ele>1029.0</ele><time>2026-04-04T14:40:22.823Z</time></trkpt><trkpt lat="41.8958067" lon="-7.9486817"><ele>1027.0</ele><time>2026-04-04T14:40:23.824Z</time></trkpt><trkpt lat="41.8958317" lon="-7.94882"><ele>1025.0</ele><time>2026-04-04T14:40:24.824Z</time></trkpt><trkpt lat="41.8958617" lon="-7.9489567"><ele>1023.0000000000001</ele><time>2026-04-04T14:40:25.823Z</time></trkpt><trkpt lat="41.8958967" lon="-7.9490817"><ele>1021.0</ele><time>2026-04-04T14:40:26.823Z</time></trkpt><trkpt lat="41.8959333" lon="-7.94919"><ele>1019.0</ele><time>2026-04-04T14:40:27.824Z</time></trkpt><trkpt lat="41.8959767" lon="-7.9492783"><ele>1017.0000000000001</ele><time>2026-04-04T14:40:28.823Z</time></trkpt><trkpt lat="41.8960167" lon="-7.9493617"><ele>1015.0</ele><time>2026-04-04T14:40:29.826Z</time></trkpt><trkpt lat="41.8960767" lon="-7.9494183"><ele>1013.0</ele><time>2026-04-04T14:40:30.824Z</time></trkpt><trkpt lat="41.8961383" lon="-7.9494617"><ele>1011.0</ele><time>2026-04-04T14:40:31.823Z</time></trkpt><trkpt lat="41.8962317" lon="-7.9494717"><ele>1009.0000000000001</ele><time>2026-04-04T14:40:32.823Z</time></trkpt><trkpt lat="41.8963317" lon="-7.949475"><ele>1007.0</ele><time>2026-04-04T14:40:33.825Z</time></trkpt><trkpt lat="41.8964017" lon="-7.9494883"><ele>1007.0000000000001</ele><time>2026-04-04T14:40:34.823Z</time></trkpt><trkpt lat="41.8964917" lon="-7.949575"><ele>1007.0</ele><time>2026-04-04T14:40:36.823Z</time></trkpt><trkpt lat="41.8965133" lon="-7.9496583"><ele>1007.0</ele><time>2026-04-04T14:40:37.823Z</time></trkpt><trkpt lat="41.8965283" lon="-7.9497583"><ele>1007.0</ele><time>2026-04-04T14:40:38.824Z</time></trkpt><trkpt lat="41.896525" lon="-7.94987"><ele>1007.0000000000001</ele><time>2026-04-04T14:40:39.823Z</time></trkpt><trkpt lat="41.8965017" lon="-7.949995"><ele>1007.0</ele><time>2026-04-04T14:40:40.823Z</time></trkpt><trkpt lat="41.8964583" lon="-7.9501317"><ele>1005.6</ele><time>2026-04-04T14:40:41.824Z</time></trkpt><trkpt lat="41.89643" lon="-7.95027"><ele>1004.2</ele><time>2026-04-04T14:40:42.824Z</time></trkpt><trkpt lat="41.896395" lon="-7.950425"><ele>1002.8</ele><time>2026-04-04T14:40:43.823Z</time></trkpt><trkpt lat="41.896365" lon="-7.950575"><ele>1001.4</ele><time>2026-04-04T14:40:44.824Z</time></trkpt><trkpt lat="41.896335" lon="-7.95071"><ele>1000.0</ele><time>2026-04-04T14:40:45.824Z</time></trkpt><trkpt lat="41.8962983" lon="-7.9508283"><ele>998.4</ele><time>2026-04-04T14:40:46.825Z</time></trkpt><trkpt lat="41.896255" lon="-7.9509233"><ele>996.8</ele><time>2026-04-04T14:40:47.825Z</time></trkpt><trkpt lat="41.8962017" lon="-7.9510033"><ele>995.2</ele><time>2026-04-04T14:40:48.823Z</time></trkpt><trkpt lat="41.896115" lon="-7.95106"><ele>993.6</ele><time>2026-04-04T14:40:49.823Z</time></trkpt><trkpt lat="41.8960133" lon="-7.9511067"><ele>992.0</ele><time>2026-04-04T14:40:50.826Z</time></trkpt><trkpt lat="41.8959083" lon="-7.95115"><ele>992.0</ele><time>2026-04-04T14:40:51.823Z</time></trkpt><trkpt lat="41.8958" lon="-7.9511917"><ele>992.0</ele><time>2026-04-04T14:40:52.823Z</time></trkpt><trkpt lat="41.89569" lon="-7.9512217"><ele>992.0</ele><time>2026-04-04T14:40:53.824Z</time></trkpt><trkpt lat="41.8955783" lon="-7.9512283"><ele>992.0</ele><time>2026-04-04T14:40:54.825Z</time></trkpt><trkpt lat="41.8954667" lon="-7.9512033"><ele>992.0</ele><time>2026-04-04T14:40:55.823Z</time></trkpt><trkpt lat="41.895355" lon="-7.9511633"><ele>992.0</ele><time>2026-04-04T14:40:56.826Z</time></trkpt><trkpt lat="41.8952533" lon="-7.951125"><ele>992.0</ele><time>2026-04-04T14:40:57.823Z</time></trkpt><trkpt lat="41.8951617" lon="-7.951095"><ele>992.0</ele><time>2026-04-04T14:40:58.823Z</time></trkpt><trkpt lat="41.8950783" lon="-7.95108"><ele>992.0</ele><time>2026-04-04T14:40:59.824Z</time></trkpt><trkpt lat="41.8950083" lon="-7.9510883"><ele>993.0</ele><time>2026-04-04T14:41:00.823Z</time></trkpt><trkpt lat="41.8949317" lon="-7.9511583"><ele>994.0</ele><time>2026-04-04T14:41:02.824Z</time></trkpt><trkpt lat="41.894915" lon="-7.9512417"><ele>995.0</ele><time>2026-04-04T14:41:03.823Z</time></trkpt><trkpt lat="41.8949217" lon="-7.9513633"><ele>996.0</ele><time>2026-04-04T14:41:04.824Z</time></trkpt><trkpt lat="41.89494" lon="-7.951515"><ele>997.0</ele><time>2026-04-04T14:41:05.824Z</time></trkpt><trkpt lat="41.8949283" lon="-7.9516817"><ele>995.75</ele><time>2026-04-04T14:41:06.823Z</time></trkpt><trkpt lat="41.8948883" lon="-7.9518583"><ele>994.5</ele><time>2026-04-04T14:41:07.824Z</time></trkpt><trkpt lat="41.8948317" lon="-7.95203"><ele>993.25</ele><time>2026-04-04T14:41:08.824Z</time></trkpt><trkpt lat="41.8947783" lon="-7.9521933"><ele>992.0</ele><time>2026-04-04T14:41:09.824Z</time></trkpt><trkpt lat="41.8947383" lon="-7.9523583"><ele>992.0</ele><time>2026-04-04T14:41:10.824Z</time></trkpt><trkpt lat="41.8946983" lon="-7.9525183"><ele>992.0</ele><time>2026-04-04T14:41:11.825Z</time></trkpt><trkpt lat="41.8946667" lon="-7.9526733"><ele>992.0</ele><time>2026-04-04T14:41:12.824Z</time></trkpt><trkpt lat="41.8946517" lon="-7.95281"><ele>992.0</ele><time>2026-04-04T14:41:13.823Z</time></trkpt><trkpt lat="41.8946517" lon="-7.9529533"><ele>992.0</ele><time>2026-04-04T14:41:14.824Z</time></trkpt><trkpt lat="41.89466" lon="-7.953105"><ele>992.0</ele><time>2026-04-04T14:41:15.823Z</time></trkpt><trkpt lat="41.8946783" lon="-7.9532633"><ele>992.0</ele><time>2026-04-04T14:41:16.825Z</time></trkpt><trkpt lat="41.8947067" lon="-7.9534167"><ele>992.0</ele><time>2026-04-04T14:41:17.824Z</time></trkpt><trkpt lat="41.89475" lon="-7.953565"><ele>991.25</ele><time>2026-04-04T14:41:18.824Z</time></trkpt><trkpt lat="41.89482" lon="-7.9537067"><ele>990.5</ele><time>2026-04-04T14:41:19.823Z</time></trkpt><trkpt lat="41.8948983" lon="-7.9538483"><ele>989.75</ele><time>2026-04-04T14:41:20.823Z</time></trkpt><trkpt lat="41.8949783" lon="-7.9539817"><ele>989.0</ele><time>2026-04-04T14:41:21.824Z</time></trkpt><trkpt lat="41.8950467" lon="-7.95411"><ele>985.25</ele><time>2026-04-04T14:41:22.824Z</time></trkpt><trkpt lat="41.8950983" lon="-7.95425"><ele>981.5</ele><time>2026-04-04T14:41:23.824Z</time></trkpt><trkpt lat="41.8951367" lon="-7.9543867"><ele>977.75</ele><time>2026-04-04T14:41:24.824Z</time></trkpt><trkpt lat="41.8951683" lon="-7.9545383"><ele>974.0</ele><time>2026-04-04T14:41:25.823Z</time></trkpt><trkpt lat="41.8951917" lon="-7.9547"><ele>974.0</ele><time>2026-04-04T14:41:26.825Z</time></trkpt><trkpt lat="41.89521" lon="-7.9548617"><ele>974.0000000000001</ele><time>2026-04-04T14:41:27.824Z</time></trkpt><trkpt lat="41.895235" lon="-7.955005"><ele>974.0000000000001</ele><time>2026-04-04T14:41:28.823Z</time></trkpt><trkpt lat="41.8952667" lon="-7.9551267"><ele>974.0</ele><time>2026-04-04T14:41:29.823Z</time></trkpt><trkpt lat="41.895295" lon="-7.9552333"><ele>974.0</ele><time>2026-04-04T14:41:30.824Z</time></trkpt><trkpt lat="41.895325" lon="-7.9553367"><ele>975.0</ele><time>2026-04-04T14:41:31.824Z</time></trkpt><trkpt lat="41.8953583" lon="-7.955445"><ele>976.0000000000001</ele><time>2026-04-04T14:41:32.824Z</time></trkpt><trkpt lat="41.8953633" lon="-7.9555683"><ele>977.0000000000001</ele><time>2026-04-04T14:41:33.825Z</time></trkpt><trkpt lat="41.8953483" lon="-7.9557183"><ele>978.0</ele><time>2026-04-04T14:41:34.825Z</time></trkpt><trkpt lat="41.895335" lon="-7.955875"><ele>979.0</ele><time>2026-04-04T14:41:35.823Z</time></trkpt><trkpt lat="41.8953283" lon="-7.9560233"><ele>978.9999999999999</ele><time>2026-04-04T14:41:36.824Z</time></trkpt><trkpt lat="41.8953367" lon="-7.9561533"><ele>979.0</ele><time>2026-04-04T14:41:37.823Z</time></trkpt><trkpt lat="41.8953567" lon="-7.956265"><ele>979.0</ele><time>2026-04-04T14:41:38.824Z</time></trkpt><trkpt lat="41.8953833" lon="-7.95637"><ele>979.0</ele><time>2026-04-04T14:41:39.825Z</time></trkpt><trkpt lat="41.8954133" lon="-7.956445"><ele>978.9999999999999</ele><time>2026-04-04T14:41:40.823Z</time></trkpt><trkpt lat="41.895465" lon="-7.9565467"><ele>979.0</ele><time>2026-04-04T14:41:42.822Z</time></trkpt><trkpt lat="41.895525" lon="-7.9565183"><ele>979.0</ele><time>2026-04-04T14:41:43.822Z</time></trkpt><trkpt lat="41.895625" lon="-7.9564767"><ele>979.0000000000001</ele><time>2026-04-04T14:41:44.823Z</time></trkpt><trkpt lat="41.895725" lon="-7.9564733"><ele>979.0000000000001</ele><time>2026-04-04T14:41:45.822Z</time></trkpt><trkpt lat="41.8958367" lon="-7.956465"><ele>979.0</ele><time>2026-04-04T14:41:46.823Z</time></trkpt><trkpt lat="41.895955" lon="-7.95645"><ele>979.0</ele><time>2026-04-04T14:41:47.822Z</time></trkpt><trkpt lat="41.8961" lon="-7.95641"><ele>978.25</ele><time>2026-04-04T14:41:48.824Z</time></trkpt><trkpt lat="41.8962417" lon="-7.9563733"><ele>977.5</ele><time>2026-04-04T14:41:49.823Z</time></trkpt><trkpt lat="41.8963933" lon="-7.9563167"><ele>976.75</ele><time>2026-04-04T14:41:50.823Z</time></trkpt><trkpt lat="41.8965367" lon="-7.956275"><ele>976.0</ele><time>2026-04-04T14:41:51.824Z</time></trkpt><trkpt lat="41.89667" lon="-7.9562367"><ele>974.75</ele><time>2026-04-04T14:41:52.822Z</time></trkpt><trkpt lat="41.896795" lon="-7.9562067"><ele>973.5</ele><time>2026-04-04T14:41:53.824Z</time></trkpt><trkpt lat="41.8969183" lon="-7.9561717"><ele>972.25</ele><time>2026-04-04T14:41:54.823Z</time></trkpt><trkpt lat="41.8970333" lon="-7.9561467"><ele>971.0</ele><time>2026-04-04T14:41:55.823Z</time></trkpt><trkpt lat="41.8971583" lon="-7.9561267"><ele>971.0</ele><time>2026-04-04T14:41:56.823Z</time></trkpt><trkpt lat="41.8972917" lon="-7.9561083"><ele>971.0</ele><time>2026-04-04T14:41:57.822Z</time></trkpt><trkpt lat="41.8974383" lon="-7.95608"><ele>971.0</ele><time>2026-04-04T14:41:58.823Z</time></trkpt><trkpt lat="41.8975867" lon="-7.956045"><ele>971.0</ele><time>2026-04-04T14:41:59.823Z</time></trkpt><trkpt lat="41.897735" lon="-7.956"><ele>970.0</ele><time>2026-04-04T14:42:00.823Z</time></trkpt><trkpt lat="41.8978867" lon="-7.9559633"><ele>969.0</ele><time>2026-04-04T14:42:01.822Z</time></trkpt><trkpt lat="41.8980267" lon="-7.95594"><ele>968.0</ele><time>2026-04-04T14:42:02.824Z</time></trkpt><trkpt lat="41.8981517" lon="-7.9559117"><ele>967.0</ele><time>2026-04-04T14:42:03.824Z</time></trkpt><trkpt lat="41.8982683" lon="-7.9558733"><ele>968.5</ele><time>2026-04-04T14:42:04.823Z</time></trkpt><trkpt lat="41.89838" lon="-7.955815"><ele>970.0</ele><time>2026-04-04T14:42:05.823Z</time></trkpt><trkpt lat="41.8984967" lon="-7.955735"><ele>971.5</ele><time>2026-04-04T14:42:06.823Z</time></trkpt><trkpt lat="41.8986233" lon="-7.9556433"><ele>973.0</ele><time>2026-04-04T14:42:07.822Z</time></trkpt><trkpt lat="41.8987567" lon="-7.95556"><ele>973.0</ele><time>2026-04-04T14:42:08.824Z</time></trkpt><trkpt lat="41.8988967" lon="-7.9554867"><ele>973.0</ele><time>2026-04-04T14:42:09.822Z</time></trkpt><trkpt lat="41.8990333" lon="-7.9554167"><ele>973.0</ele><time>2026-04-04T14:42:10.822Z</time></trkpt><trkpt lat="41.8991583" lon="-7.9553433"><ele>973.0</ele><time>2026-04-04T14:42:11.824Z</time></trkpt><trkpt lat="41.899265" lon="-7.9552517"><ele>973.0</ele><time>2026-04-04T14:42:12.823Z</time></trkpt><trkpt lat="41.89937" lon="-7.955135"><ele>973.0</ele><time>2026-04-04T14:42:13.822Z</time></trkpt><trkpt lat="41.89947" lon="-7.955"><ele>973.0</ele><time>2026-04-04T14:42:14.823Z</time></trkpt><trkpt lat="41.8995717" lon="-7.9548617"><ele>973.0</ele><time>2026-04-04T14:42:15.823Z</time></trkpt><trkpt lat="41.8996683" lon="-7.9547417"><ele>973.0</ele><time>2026-04-04T14:42:16.824Z</time></trkpt><trkpt lat="41.8997533" lon="-7.9546533"><ele>973.0</ele><time>2026-04-04T14:42:17.822Z</time></trkpt><trkpt lat="41.8998483" lon="-7.95459"><ele>973.0</ele><time>2026-04-04T14:42:18.823Z</time></trkpt><trkpt lat="41.89996" lon="-7.954525"><ele>973.0</ele><time>2026-04-04T14:42:19.823Z</time></trkpt><trkpt lat="41.9000833" lon="-7.9544417"><ele>971.0</ele><time>2026-04-04T14:42:20.825Z</time></trkpt><trkpt lat="41.9002167" lon="-7.9543483"><ele>969.0</ele><time>2026-04-04T14:42:21.824Z</time></trkpt><trkpt lat="41.90036" lon="-7.954255"><ele>967.0</ele><time>2026-04-04T14:42:22.822Z</time></trkpt><trkpt lat="41.9005033" lon="-7.9541683"><ele>967.0</ele><time>2026-04-04T14:42:23.824Z</time></trkpt><trkpt lat="41.900645" lon="-7.9540867"><ele>967.0</ele><time>2026-04-04T14:42:24.823Z</time></trkpt><trkpt lat="41.900785" lon="-7.95401"><ele>967.0</ele><time>2026-04-04T14:42:25.822Z</time></trkpt><trkpt lat="41.9009217" lon="-7.9539433"><ele>966.25</ele><time>2026-04-04T14:42:26.823Z</time></trkpt><trkpt lat="41.9010483" lon="-7.953885"><ele>965.5</ele><time>2026-04-04T14:42:27.822Z</time></trkpt><trkpt lat="41.901165" lon="-7.95382"><ele>964.75</ele><time>2026-04-04T14:42:28.822Z</time></trkpt><trkpt lat="41.901265" lon="-7.9537433"><ele>964.0</ele><time>2026-04-04T14:42:29.824Z</time></trkpt><trkpt lat="41.9013433" lon="-7.95366"><ele>964.0</ele><time>2026-04-04T14:42:30.825Z</time></trkpt><trkpt lat="41.9013967" lon="-7.95358"><ele>964.0000000000001</ele><time>2026-04-04T14:42:31.823Z</time></trkpt><trkpt lat="41.90144" lon="-7.9535067"><ele>964.0000000000001</ele><time>2026-04-04T14:42:32.824Z</time></trkpt><trkpt lat="41.901515" lon="-7.9533783"><ele>964.0</ele><time>2026-04-04T14:42:34.823Z</time></trkpt><trkpt lat="41.9015733" lon="-7.9532633"><ele>964.0</ele><time>2026-04-04T14:42:36.823Z</time></trkpt><trkpt lat="41.90162" lon="-7.953165"><ele>964.0</ele><time>2026-04-04T14:42:38.824Z</time></trkpt><trkpt lat="41.901675" lon="-7.95306"><ele>964.0000000000001</ele><time>2026-04-04T14:42:40.823Z</time></trkpt><trkpt lat="41.9017167" lon="-7.9529417"><ele>964.0000000000001</ele><time>2026-04-04T14:42:42.822Z</time></trkpt><trkpt lat="41.9017617" lon="-7.9528283"><ele>964.0</ele><time>2026-04-04T14:42:44.823Z</time></trkpt><trkpt lat="41.9018083" lon="-7.9527233"><ele>964.0</ele><time>2026-04-04T14:42:46.822Z</time></trkpt><trkpt lat="41.9018417" lon="-7.9526167"><ele>964.0</ele><time>2026-04-04T14:42:48.823Z</time></trkpt><trkpt lat="41.9018617" lon="-7.9525283"><ele>964.0000000000001</ele><time>2026-04-04T14:42:50.823Z</time></trkpt><trkpt lat="41.9018267" lon="-7.95265"><ele>964.0000000000001</ele><time>2026-04-04T14:43:22.823Z</time></trkpt><trkpt lat="41.901775" lon="-7.9528017"><ele>964.0</ele><time>2026-04-04T14:43:24.824Z</time></trkpt><trkpt lat="41.901725" lon="-7.9529433"><ele>964.0</ele><time>2026-04-04T14:43:26.824Z</time></trkpt><trkpt lat="41.9017217" lon="-7.9530667"><ele>963.9999999999999</ele><time>2026-04-04T14:43:28.824Z</time></trkpt><trkpt lat="41.9017433" lon="-7.95322"><ele>964.0</ele><time>2026-04-04T14:43:30.824Z</time></trkpt><trkpt lat="41.901745" lon="-7.9533083"><ele>964.0</ele><time>2026-04-04T14:43:31.823Z</time></trkpt><trkpt lat="41.9017333" lon="-7.95341"><ele>964.0</ele><time>2026-04-04T14:43:32.824Z</time></trkpt><trkpt lat="41.90171" lon="-7.953515"><ele>963.9999999999999</ele><time>2026-04-04T14:43:33.823Z</time></trkpt><trkpt lat="41.9016867" lon="-7.953605"><ele>964.0</ele><time>2026-04-04T14:43:34.824Z</time></trkpt><trkpt lat="41.9016583" lon="-7.9536917"><ele>963.9999999999999</ele><time>2026-04-04T14:43:35.823Z</time></trkpt><trkpt lat="41.9016283" lon="-7.9537667"><ele>964.0</ele><time>2026-04-04T14:43:36.823Z</time></trkpt><trkpt lat="41.90158" lon="-7.9538933"><ele>964.0</ele><time>2026-04-04T14:43:38.826Z</time></trkpt><trkpt lat="41.9015317" lon="-7.953995"><ele>964.0</ele><time>2026-04-04T14:43:40.823Z</time></trkpt><trkpt lat="41.90151" lon="-7.954085"><ele>963.9999999999999</ele><time>2026-04-04T14:43:42.824Z</time></trkpt><trkpt lat="41.9015083" lon="-7.9541883"><ele>964.0</ele><time>2026-04-04T14:43:45.824Z</time></trkpt><trkpt lat="41.9015383" lon="-7.9542733"><ele>962.8333333333333</ele><time>2026-04-04T14:43:51.823Z</time></trkpt><trkpt lat="41.9015633" lon="-7.9543633"><ele>961.6666666666666</ele><time>2026-04-04T14:43:55.824Z</time></trkpt><trkpt lat="41.9015683" lon="-7.9544617"><ele>960.5</ele><time>2026-04-04T14:44:00.823Z</time></trkpt><trkpt lat="41.9015533" lon="-7.95459"><ele>959.3333333333333</ele><time>2026-04-04T14:44:04.823Z</time></trkpt><trkpt lat="41.9015383" lon="-7.9547"><ele>958.1666666666666</ele><time>2026-04-04T14:44:06.823Z</time></trkpt><trkpt lat="41.901525" lon="-7.954815"><ele>957.0</ele><time>2026-04-04T14:44:08.823Z</time></trkpt><trkpt lat="41.9015033" lon="-7.95497"><ele>957.0</ele><time>2026-04-04T14:44:10.823Z</time></trkpt><trkpt lat="41.901495" lon="-7.9550683"><ele>957.0</ele><time>2026-04-04T14:44:11.827Z</time></trkpt><trkpt lat="41.9014883" lon="-7.9551833"><ele>957.0</ele><time>2026-04-04T14:44:12.823Z</time></trkpt><trkpt lat="41.901485" lon="-7.9553133"><ele>957.0</ele><time>2026-04-04T14:44:13.823Z</time></trkpt><trkpt lat="41.9014867" lon="-7.9554383"><ele>957.0</ele><time>2026-04-04T14:44:14.824Z</time></trkpt><trkpt lat="41.9014883" lon="-7.9555583"><ele>957.0</ele><time>2026-04-04T14:44:15.824Z</time></trkpt><trkpt lat="41.901485" lon="-7.9556683"><ele>957.0</ele><time>2026-04-04T14:44:16.823Z</time></trkpt><trkpt lat="41.90148" lon="-7.955765"><ele>957.0</ele><time>2026-04-04T14:44:17.823Z</time></trkpt><trkpt lat="41.9014667" lon="-7.9559067"><ele>957.0</ele><time>2026-04-04T14:44:19.823Z</time></trkpt><trkpt lat="41.9014617" lon="-7.9560517"><ele>957.0</ele><time>2026-04-04T14:44:21.824Z</time></trkpt><trkpt lat="41.9014567" lon="-7.9561417"><ele>957.0</ele><time>2026-04-04T14:44:22.823Z</time></trkpt><trkpt lat="41.9014467" lon="-7.9562433"><ele>957.0</ele><time>2026-04-04T14:44:23.823Z</time></trkpt><trkpt lat="41.9014367" lon="-7.9563367"><ele>957.1666666666666</ele><time>2026-04-04T14:44:24.824Z</time></trkpt><trkpt lat="41.9014383" lon="-7.9564617"><ele>957.3333333333333</ele><time>2026-04-04T14:44:26.823Z</time></trkpt><trkpt lat="41.9014767" lon="-7.95656"><ele>957.5</ele><time>2026-04-04T14:44:47.827Z</time></trkpt><trkpt lat="41.9015533" lon="-7.9565333"><ele>957.6666666666666</ele><time>2026-04-04T14:44:51.823Z</time></trkpt><trkpt lat="41.9016033" lon="-7.9564717"><ele>957.8333333333333</ele><time>2026-04-04T14:44:54.824Z</time></trkpt><trkpt lat="41.9016633" lon="-7.9564083"><ele>958.0</ele><time>2026-04-04T14:44:57.824Z</time></trkpt><trkpt lat="41.901735" lon="-7.9563467"><ele>958.2</ele><time>2026-04-04T14:45:00.824Z</time></trkpt><trkpt lat="41.901805" lon="-7.9563117"><ele>958.4</ele><time>2026-04-04T14:45:02.824Z</time></trkpt><trkpt lat="41.9018833" lon="-7.9562917"><ele>958.6000000000001</ele><time>2026-04-04T14:45:04.824Z</time></trkpt><trkpt lat="41.9019767" lon="-7.9563583"><ele>958.8000000000001</ele><time>2026-04-04T14:45:06.823Z</time></trkpt><trkpt lat="41.90206" lon="-7.95644"><ele>959.0</ele><time>2026-04-04T14:45:08.823Z</time></trkpt><trkpt lat="41.9021533" lon="-7.9565117"><ele>959.0</ele><time>2026-04-04T14:45:10.823Z</time></trkpt><trkpt lat="41.9022133" lon="-7.9565517"><ele>959.0</ele><time>2026-04-04T14:45:11.825Z</time></trkpt><trkpt lat="41.90229" lon="-7.956595"><ele>959.0</ele><time>2026-04-04T14:45:12.825Z</time></trkpt><trkpt lat="41.9023617" lon="-7.956615"><ele>959.0</ele><time>2026-04-04T14:45:13.824Z</time></trkpt><trkpt lat="41.9024233" lon="-7.9566367"><ele>959.0</ele><time>2026-04-04T14:45:14.826Z</time></trkpt><trkpt lat="41.90249" lon="-7.956675"><ele>959.0</ele><time>2026-04-04T14:45:15.824Z</time></trkpt><trkpt lat="41.9025517" lon="-7.956705"><ele>959.0</ele><time>2026-04-04T14:45:16.824Z</time></trkpt><trkpt lat="41.9026167" lon="-7.9567333"><ele>958.0</ele><time>2026-04-04T14:45:17.824Z</time></trkpt><trkpt lat="41.90272" lon="-7.95679"><ele>957.0000000000001</ele><time>2026-04-04T14:45:19.824Z</time></trkpt><trkpt lat="41.9028267" lon="-7.9568633"><ele>956.0000000000001</ele><time>2026-04-04T14:45:21.824Z</time></trkpt><trkpt lat="41.902905" lon="-7.9569367"><ele>955.0</ele><time>2026-04-04T14:45:23.822Z</time></trkpt><trkpt lat="41.9029633" lon="-7.95702"><ele>954.0</ele><time>2026-04-04T14:45:25.824Z</time></trkpt><trkpt lat="41.9030133" lon="-7.9571117"><ele>954.0</ele><time>2026-04-04T14:45:27.824Z</time></trkpt><trkpt lat="41.9030567" lon="-7.95722"><ele>954.0</ele><time>2026-04-04T14:45:29.823Z</time></trkpt><trkpt lat="41.9030817" lon="-7.9573783"><ele>954.0</ele><time>2026-04-04T14:45:31.823Z</time></trkpt><trkpt lat="41.903095" lon="-7.9574867"><ele>954.0</ele><time>2026-04-04T14:45:32.823Z</time></trkpt><trkpt lat="41.9031033" lon="-7.9575833"><ele>954.0</ele><time>2026-04-04T14:45:33.823Z</time></trkpt><trkpt lat="41.9031167" lon="-7.9576683"><ele>954.0</ele><time>2026-04-04T14:45:34.823Z</time></trkpt><trkpt lat="41.9031417" lon="-7.9578283"><ele>953.1428571428571</ele><time>2026-04-04T14:45:36.824Z</time></trkpt><trkpt lat="41.9031567" lon="-7.9579117"><ele>952.2857142857142</ele><time>2026-04-04T14:45:37.823Z</time></trkpt><trkpt lat="41.9031733" lon="-7.9580017"><ele>951.4285714285713</ele><time>2026-04-04T14:45:38.824Z</time></trkpt><trkpt lat="41.9031867" lon="-7.9580933"><ele>950.5714285714284</ele><time>2026-04-04T14:45:39.823Z</time></trkpt><trkpt lat="41.9031967" lon="-7.95818"><ele>949.7142857142857</ele><time>2026-04-04T14:45:40.822Z</time></trkpt><trkpt lat="41.9032083" lon="-7.9582667"><ele>948.8571428571427</ele><time>2026-04-04T14:45:41.823Z</time></trkpt><trkpt lat="41.903225" lon="-7.9583533"><ele>947.9999999999999</ele><time>2026-04-04T14:45:42.822Z</time></trkpt><trkpt lat="41.9032383" lon="-7.9584383"><ele>948.0</ele><time>2026-04-04T14:45:43.823Z</time></trkpt><trkpt lat="41.903255" lon="-7.9586033"><ele>948.0</ele><time>2026-04-04T14:45:45.823Z</time></trkpt><trkpt lat="41.9032817" lon="-7.9587533"><ele>948.0</ele><time>2026-04-04T14:45:47.827Z</time></trkpt><trkpt lat="41.90332" lon="-7.9588917"><ele>948.0</ele><time>2026-04-04T14:45:49.823Z</time></trkpt><trkpt lat="41.903375" lon="-7.9590367"><ele>947.0</ele><time>2026-04-04T14:45:51.823Z</time></trkpt><trkpt lat="41.9034167" lon="-7.959105"><ele>946.0</ele><time>2026-04-04T14:45:52.824Z</time></trkpt><trkpt lat="41.903465" lon="-7.95917"><ele>945.0</ele><time>2026-04-04T14:45:53.823Z</time></trkpt><trkpt lat="41.903515" lon="-7.9592233"><ele>944.0</ele><time>2026-04-04T14:45:54.823Z</time></trkpt><trkpt lat="41.9036583" lon="-7.95927"><ele>943.0</ele><time>2026-04-04T14:45:56.823Z</time></trkpt><trkpt lat="41.903755" lon="-7.9592783"><ele>942.0</ele><time>2026-04-04T14:45:57.824Z</time></trkpt><trkpt lat="41.9038433" lon="-7.9592933"><ele>942.0</ele><time>2026-04-04T14:45:58.822Z</time></trkpt><trkpt lat="41.9039317" lon="-7.95931"><ele>942.0</ele><time>2026-04-04T14:45:59.823Z</time></trkpt><trkpt lat="41.9040217" lon="-7.9593267"><ele>942.0</ele><time>2026-04-04T14:46:00.824Z</time></trkpt><trkpt lat="41.9041033" lon="-7.9593533"><ele>942.0</ele><time>2026-04-04T14:46:01.824Z</time></trkpt><trkpt lat="41.9041817" lon="-7.959375"><ele>942.0</ele><time>2026-04-04T14:46:02.823Z</time></trkpt><trkpt lat="41.9042617" lon="-7.959395"><ele>942.0</ele><time>2026-04-04T14:46:03.822Z</time></trkpt><trkpt lat="41.9043433" lon="-7.9594117"><ele>939.8333333333334</ele><time>2026-04-04T14:46:04.823Z</time></trkpt><trkpt lat="41.9044267" lon="-7.95941"><ele>937.6666666666667</ele><time>2026-04-04T14:46:05.822Z</time></trkpt><trkpt lat="41.9045017" lon="-7.9593967"><ele>935.5</ele><time>2026-04-04T14:46:06.823Z</time></trkpt><trkpt lat="41.9045667" lon="-7.9593767"><ele>933.3333333333334</ele><time>2026-04-04T14:46:07.823Z</time></trkpt><trkpt lat="41.90464" lon="-7.9593633"><ele>931.1666666666667</ele><time>2026-04-04T14:46:08.823Z</time></trkpt><trkpt lat="41.9047183" lon="-7.95935"><ele>929.0</ele><time>2026-04-04T14:46:09.823Z</time></trkpt><trkpt lat="41.9048" lon="-7.95934"><ele>929.0000000000001</ele><time>2026-04-04T14:46:10.823Z</time></trkpt><trkpt lat="41.9048817" lon="-7.9593333"><ele>929.0</ele><time>2026-04-04T14:46:11.823Z</time></trkpt><trkpt lat="41.9049617" lon="-7.9593317"><ele>929.0</ele><time>2026-04-04T14:46:12.824Z</time></trkpt><trkpt lat="41.9050433" lon="-7.9593367"><ele>929.0</ele><time>2026-04-04T14:46:13.824Z</time></trkpt><trkpt lat="41.9051267" lon="-7.959345"><ele>929.0000000000001</ele><time>2026-04-04T14:46:14.824Z</time></trkpt><trkpt lat="41.90521" lon="-7.9593533"><ele>929.0</ele><time>2026-04-04T14:46:15.823Z</time></trkpt><trkpt lat="41.9052933" lon="-7.95936"><ele>927.5000000000001</ele><time>2026-04-04T14:46:16.822Z</time></trkpt><trkpt lat="41.9053733" lon="-7.95936"><ele>926.0</ele><time>2026-04-04T14:46:17.826Z</time></trkpt><trkpt lat="41.9054967" lon="-7.95936"><ele>924.5</ele><time>2026-04-04T14:46:19.823Z</time></trkpt><trkpt lat="41.9055783" lon="-7.9593983"><ele>923.0</ele><time>2026-04-04T14:46:22.823Z</time></trkpt><trkpt lat="41.905625" lon="-7.9594983"><ele>921.5000000000001</ele><time>2026-04-04T14:46:25.822Z</time></trkpt><trkpt lat="41.9056317" lon="-7.9595917"><ele>920.0</ele><time>2026-04-04T14:46:27.822Z</time></trkpt><trkpt lat="41.90565" lon="-7.9596883"><ele>919.9999999999999</ele><time>2026-04-04T14:46:29.824Z</time></trkpt><trkpt lat="41.9056817" lon="-7.9597733"><ele>920.0</ele><time>2026-04-04T14:46:31.822Z</time></trkpt><trkpt lat="41.9057317" lon="-7.959845"><ele>919.9999999999999</ele><time>2026-04-04T14:46:33.822Z</time></trkpt><trkpt lat="41.9057917" lon="-7.959915"><ele>919.9999999999999</ele><time>2026-04-04T14:46:35.823Z</time></trkpt><trkpt lat="41.9058717" lon="-7.95997"><ele>920.0</ele><time>2026-04-04T14:46:38.824Z</time></trkpt><trkpt lat="41.9059233" lon="-7.96002"><ele>919.9999999999999</ele><time>2026-04-04T14:46:40.823Z</time></trkpt><trkpt lat="41.9059733" lon="-7.9600883"><ele>919.9999999999999</ele><time>2026-04-04T14:46:42.823Z</time></trkpt><trkpt lat="41.9060417" lon="-7.9601433"><ele>919.6</ele><time>2026-04-04T14:46:44.823Z</time></trkpt><trkpt lat="41.9061167" lon="-7.9601233"><ele>919.2</ele><time>2026-04-04T14:46:46.823Z</time></trkpt><trkpt lat="41.9062183" lon="-7.9600567"><ele>918.8</ele><time>2026-04-04T14:46:48.824Z</time></trkpt><trkpt lat="41.9063383" lon="-7.9600117"><ele>918.4</ele><time>2026-04-04T14:46:50.824Z</time></trkpt><trkpt lat="41.9064533" lon="-7.9599883"><ele>918.0</ele><time>2026-04-04T14:46:52.822Z</time></trkpt><trkpt lat="41.9065717" lon="-7.959955"><ele>916.5</ele><time>2026-04-04T14:46:54.823Z</time></trkpt><trkpt lat="41.9066883" lon="-7.959915"><ele>915.0</ele><time>2026-04-04T14:46:56.823Z</time></trkpt><trkpt lat="41.90675" lon="-7.9598867"><ele>913.5</ele><time>2026-04-04T14:46:57.823Z</time></trkpt><trkpt lat="41.9068233" lon="-7.9598533"><ele>912.0</ele><time>2026-04-04T14:46:58.822Z</time></trkpt><trkpt lat="41.9068983" lon="-7.959825"><ele>910.5</ele><time>2026-04-04T14:46:59.823Z</time></trkpt><trkpt lat="41.9069683" lon="-7.9598083"><ele>909.0</ele><time>2026-04-04T14:47:00.823Z</time></trkpt><trkpt lat="41.9070417" lon="-7.9597917"><ele>908.6</ele><time>2026-04-04T14:47:01.823Z</time></trkpt><trkpt lat="41.9071083" lon="-7.9597733"><ele>908.2</ele><time>2026-04-04T14:47:02.823Z</time></trkpt><trkpt lat="41.9071733" lon="-7.9597583"><ele>907.8000000000001</ele><time>2026-04-04T14:47:03.822Z</time></trkpt><trkpt lat="41.9072917" lon="-7.959715"><ele>907.4000000000001</ele><time>2026-04-04T14:47:05.823Z</time></trkpt><trkpt lat="41.9074" lon="-7.9596917"><ele>907.0</ele><time>2026-04-04T14:47:07.824Z</time></trkpt><trkpt lat="41.9075" lon="-7.959715"><ele>907.6</ele><time>2026-04-04T14:47:09.822Z</time></trkpt><trkpt lat="41.9075983" lon="-7.9597867"><ele>908.2</ele><time>2026-04-04T14:47:11.823Z</time></trkpt><trkpt lat="41.9076617" lon="-7.9598967"><ele>908.8</ele><time>2026-04-04T14:47:13.823Z</time></trkpt><trkpt lat="41.9077167" lon="-7.9600217"><ele>909.4</ele><time>2026-04-04T14:47:15.823Z</time></trkpt><trkpt lat="41.9078017" lon="-7.9600933"><ele>910.0</ele><time>2026-04-04T14:47:17.823Z</time></trkpt><trkpt lat="41.9079183" lon="-7.960135"><ele>912.8333333333333</ele><time>2026-04-04T14:47:19.824Z</time></trkpt><trkpt lat="41.9079783" lon="-7.9601683"><ele>915.6666666666666</ele><time>2026-04-04T14:47:20.824Z</time></trkpt><trkpt lat="41.908045" lon="-7.9602083"><ele>918.5</ele><time>2026-04-04T14:47:21.822Z</time></trkpt><trkpt lat="41.90811" lon="-7.9602567"><ele>921.3333333333333</ele><time>2026-04-04T14:47:22.823Z</time></trkpt><trkpt lat="41.9081867" lon="-7.9603233"><ele>924.1666666666666</ele><time>2026-04-04T14:47:23.823Z</time></trkpt><trkpt lat="41.908265" lon="-7.96038"><ele>927.0</ele><time>2026-04-04T14:47:24.823Z</time></trkpt><trkpt lat="41.90835" lon="-7.9604183"><ele>928.2</ele><time>2026-04-04T14:47:25.823Z</time></trkpt><trkpt lat="41.9084367" lon="-7.9604467"><ele>929.4000000000001</ele><time>2026-04-04T14:47:26.823Z</time></trkpt><trkpt lat="41.9085233" lon="-7.9604733"><ele>930.5999999999999</ele><time>2026-04-04T14:47:27.822Z</time></trkpt><trkpt lat="41.90861" lon="-7.9605083"><ele>931.8</ele><time>2026-04-04T14:47:28.823Z</time></trkpt><trkpt lat="41.9086967" lon="-7.96054"><ele>933.0</ele><time>2026-04-04T14:47:29.824Z</time></trkpt><trkpt lat="41.9087867" lon="-7.9605733"><ele>933.0</ele><time>2026-04-04T14:47:30.823Z</time></trkpt><trkpt lat="41.9088733" lon="-7.960605"><ele>933.0</ele><time>2026-04-04T14:47:31.824Z</time></trkpt><trkpt lat="41.9089517" lon="-7.96065"><ele>933.0</ele><time>2026-04-04T14:47:32.823Z</time></trkpt><trkpt lat="41.9090333" lon="-7.96071"><ele>933.0</ele><time>2026-04-04T14:47:33.823Z</time></trkpt><trkpt lat="41.9091083" lon="-7.96079"><ele>933.0</ele><time>2026-04-04T14:47:34.823Z</time></trkpt><trkpt lat="41.9091717" lon="-7.9608683"><ele>934.5</ele><time>2026-04-04T14:47:35.823Z</time></trkpt><trkpt lat="41.909235" lon="-7.9609333"><ele>936.0</ele><time>2026-04-04T14:47:36.822Z</time></trkpt><trkpt lat="41.909295" lon="-7.9609817"><ele>937.5</ele><time>2026-04-04T14:47:37.826Z</time></trkpt><trkpt lat="41.9093567" lon="-7.961005"><ele>939.0</ele><time>2026-04-04T14:47:38.826Z</time></trkpt><trkpt lat="41.9094633" lon="-7.9609767"><ele>940.5</ele><time>2026-04-04T14:47:40.823Z</time></trkpt><trkpt lat="41.9095517" lon="-7.9608817"><ele>942.0</ele><time>2026-04-04T14:47:41.823Z</time></trkpt><trkpt lat="41.9096817" lon="-7.9607833"><ele>942.0</ele><time>2026-04-04T14:47:42.823Z</time></trkpt><trkpt lat="41.90978" lon="-7.9607467"><ele>942.0</ele><time>2026-04-04T14:47:43.824Z</time></trkpt><trkpt lat="41.9098833" lon="-7.96074"><ele>942.0</ele><time>2026-04-04T14:47:44.824Z</time></trkpt><trkpt lat="41.9099833" lon="-7.9607617"><ele>942.0</ele><time>2026-04-04T14:47:45.823Z</time></trkpt><trkpt lat="41.910085" lon="-7.9607983"><ele>942.0</ele><time>2026-04-04T14:47:46.823Z</time></trkpt><trkpt lat="41.910185" lon="-7.960845"><ele>942.6</ele><time>2026-04-04T14:47:47.822Z</time></trkpt><trkpt lat="41.9102767" lon="-7.9609067"><ele>943.2</ele><time>2026-04-04T14:47:48.822Z</time></trkpt><trkpt lat="41.9103683" lon="-7.96097"><ele>943.8</ele><time>2026-04-04T14:47:49.824Z</time></trkpt><trkpt lat="41.91047" lon="-7.9610167"><ele>944.4</ele><time>2026-04-04T14:47:50.825Z</time></trkpt><trkpt lat="41.910565" lon="-7.9610417"><ele>945.0</ele><time>2026-04-04T14:47:51.822Z</time></trkpt><trkpt lat="41.9106633" lon="-7.9610517"><ele>945.0</ele><time>2026-04-04T14:47:52.822Z</time></trkpt><trkpt lat="41.9107617" lon="-7.9610633"><ele>945.0</ele><time>2026-04-04T14:47:53.824Z</time></trkpt><trkpt lat="41.9108517" lon="-7.96108"><ele>945.0</ele><time>2026-04-04T14:47:54.823Z</time></trkpt><trkpt lat="41.910935" lon="-7.96111"><ele>945.0</ele><time>2026-04-04T14:47:55.827Z</time></trkpt><trkpt lat="41.911015" lon="-7.9611583"><ele>945.0</ele><time>2026-04-04T14:47:56.823Z</time></trkpt><trkpt lat="41.91109" lon="-7.9612233"><ele>944.5</ele><time>2026-04-04T14:47:57.822Z</time></trkpt><trkpt lat="41.9111417" lon="-7.9613117"><ele>944.0</ele><time>2026-04-04T14:47:58.824Z</time></trkpt><trkpt lat="41.9111833" lon="-7.9614117"><ele>943.5</ele><time>2026-04-04T14:47:59.823Z</time></trkpt><trkpt lat="41.9111983" lon="-7.9615167"><ele>943.0</ele><time>2026-04-04T14:48:00.823Z</time></trkpt><trkpt lat="41.91122" lon="-7.9616217"><ele>942.5</ele><time>2026-04-04T14:48:01.824Z</time></trkpt><trkpt lat="41.9112433" lon="-7.9617233"><ele>942.0</ele><time>2026-04-04T14:48:02.823Z</time></trkpt><trkpt lat="41.9112867" lon="-7.9618133"><ele>942.0</ele><time>2026-04-04T14:48:03.823Z</time></trkpt><trkpt lat="41.9113417" lon="-7.9618933"><ele>942.0</ele><time>2026-04-04T14:48:04.823Z</time></trkpt><trkpt lat="41.91141" lon="-7.96195"><ele>942.0</ele><time>2026-04-04T14:48:05.823Z</time></trkpt><trkpt lat="41.91149" lon="-7.9619983"><ele>942.0</ele><time>2026-04-04T14:48:06.823Z</time></trkpt><trkpt lat="41.9115817" lon="-7.9620283"><ele>942.0</ele><time>2026-04-04T14:48:07.825Z</time></trkpt><trkpt lat="41.91167" lon="-7.9620667"><ele>942.0</ele><time>2026-04-04T14:48:08.824Z</time></trkpt><trkpt lat="41.9117533" lon="-7.96212"><ele>940.8333333333334</ele><time>2026-04-04T14:48:09.822Z</time></trkpt><trkpt lat="41.9118217" lon="-7.9621783"><ele>939.6666666666667</ele><time>2026-04-04T14:48:10.823Z</time></trkpt><trkpt lat="41.911875" lon="-7.9622417"><ele>938.5</ele><time>2026-04-04T14:48:11.823Z</time></trkpt><trkpt lat="41.9119133" lon="-7.9623183"><ele>937.3333333333334</ele><time>2026-04-04T14:48:12.823Z</time></trkpt><trkpt lat="41.911945" lon="-7.9624133"><ele>936.1666666666667</ele><time>2026-04-04T14:48:13.823Z</time></trkpt><trkpt lat="41.9119767" lon="-7.9625133"><ele>935.0</ele><time>2026-04-04T14:48:14.824Z</time></trkpt><trkpt lat="41.9120083" lon="-7.962615"><ele>935.0</ele><time>2026-04-04T14:48:15.823Z</time></trkpt><trkpt lat="41.9120867" lon="-7.96294"><ele>935.0</ele><time>2026-04-04T14:48:18.823Z</time></trkpt><trkpt lat="41.912085" lon="-7.9630567"><ele>935.0</ele><time>2026-04-04T14:48:19.825Z</time></trkpt><trkpt lat="41.912065" lon="-7.9631767"><ele>935.0</ele><time>2026-04-04T14:48:20.823Z</time></trkpt><trkpt lat="41.912015" lon="-7.9633067"><ele>935.5000000000001</ele><time>2026-04-04T14:48:21.823Z</time></trkpt><trkpt lat="41.9119833" lon="-7.9634267"><ele>936.0</ele><time>2026-04-04T14:48:22.823Z</time></trkpt><trkpt lat="41.9119633" lon="-7.9635417"><ele>936.5</ele><time>2026-04-04T14:48:23.824Z</time></trkpt><trkpt lat="41.9119533" lon="-7.9636567"><ele>937.0</ele><time>2026-04-04T14:48:24.823Z</time></trkpt><trkpt lat="41.9119517" lon="-7.9637633"><ele>937.5000000000001</ele><time>2026-04-04T14:48:25.823Z</time></trkpt><trkpt lat="41.911975" lon="-7.9638483"><ele>938.0</ele><time>2026-04-04T14:48:26.824Z</time></trkpt><trkpt lat="41.91201" lon="-7.963935"><ele>938.0</ele><time>2026-04-04T14:48:27.822Z</time></trkpt><trkpt lat="41.9120467" lon="-7.9640367"><ele>938.0</ele><time>2026-04-04T14:48:28.826Z</time></trkpt><trkpt lat="41.912075" lon="-7.9641633"><ele>938.0</ele><time>2026-04-04T14:48:29.824Z</time></trkpt><trkpt lat="41.9120733" lon="-7.96431"><ele>938.0</ele><time>2026-04-04T14:48:30.824Z</time></trkpt><trkpt lat="41.9120783" lon="-7.96446"><ele>938.0</ele><time>2026-04-04T14:48:31.825Z</time></trkpt><trkpt lat="41.912075" lon="-7.964625"><ele>938.5</ele><time>2026-04-04T14:48:32.825Z</time></trkpt><trkpt lat="41.9120733" lon="-7.9648033"><ele>939.0</ele><time>2026-04-04T14:48:33.823Z</time></trkpt><trkpt lat="41.9120633" lon="-7.9649967"><ele>939.5</ele><time>2026-04-04T14:48:34.824Z</time></trkpt><trkpt lat="41.9120367" lon="-7.9651933"><ele>940.0</ele><time>2026-04-04T14:48:35.824Z</time></trkpt><trkpt lat="41.9120117" lon="-7.9653817"><ele>940.25</ele><time>2026-04-04T14:48:36.823Z</time></trkpt><trkpt lat="41.9119867" lon="-7.9655567"><ele>940.5</ele><time>2026-04-04T14:48:37.824Z</time></trkpt><trkpt lat="41.9119617" lon="-7.9657283"><ele>940.75</ele><time>2026-04-04T14:48:38.824Z</time></trkpt><trkpt lat="41.9119333" lon="-7.9658933"><ele>941.0</ele><time>2026-04-04T14:48:39.826Z</time></trkpt><trkpt lat="41.9119083" lon="-7.9660417"><ele>940.4</ele><time>2026-04-04T14:48:40.824Z</time></trkpt><trkpt lat="41.911875" lon="-7.9661683"><ele>939.8</ele><time>2026-04-04T14:48:41.823Z</time></trkpt><trkpt lat="41.911835" lon="-7.966285"><ele>939.1999999999999</ele><time>2026-04-04T14:48:42.823Z</time></trkpt><trkpt lat="41.911795" lon="-7.9664"><ele>938.5999999999999</ele><time>2026-04-04T14:48:43.824Z</time></trkpt><trkpt lat="41.9117567" lon="-7.9665083"><ele>938.0</ele><time>2026-04-04T14:48:44.823Z</time></trkpt><trkpt lat="41.9117217" lon="-7.96662"><ele>938.0</ele><time>2026-04-04T14:48:45.823Z</time></trkpt><trkpt lat="41.9116683" lon="-7.9667383"><ele>938.0</ele><time>2026-04-04T14:48:46.823Z</time></trkpt><trkpt lat="41.9116167" lon="-7.9668517"><ele>938.0</ele><time>2026-04-04T14:48:47.823Z</time></trkpt><trkpt lat="41.9115783" lon="-7.9669667"><ele>938.0</ele><time>2026-04-04T14:48:48.824Z</time></trkpt><trkpt lat="41.9115417" lon="-7.967075"><ele>938.0</ele><time>2026-04-04T14:48:49.825Z</time></trkpt><trkpt lat="41.9115233" lon="-7.96718"><ele>938.0000000000001</ele><time>2026-04-04T14:48:50.823Z</time></trkpt><trkpt lat="41.9115167" lon="-7.9672883"><ele>938.0</ele><time>2026-04-04T14:48:51.823Z</time></trkpt><trkpt lat="41.91153" lon="-7.9673933"><ele>938.0</ele><time>2026-04-04T14:48:52.824Z</time></trkpt><trkpt lat="41.9115567" lon="-7.9674983"><ele>938.0</ele><time>2026-04-04T14:48:53.823Z</time></trkpt><trkpt lat="41.9116" lon="-7.9676"><ele>938.0000000000001</ele><time>2026-04-04T14:48:54.824Z</time></trkpt><trkpt lat="41.9116617" lon="-7.9677083"><ele>938.0</ele><time>2026-04-04T14:48:55.823Z</time></trkpt><trkpt lat="41.9117317" lon="-7.9678167"><ele>938.8</ele><time>2026-04-04T14:48:56.824Z</time></trkpt><trkpt lat="41.9118033" lon="-7.9679333"><ele>939.5999999999999</ele><time>2026-04-04T14:48:57.823Z</time></trkpt><trkpt lat="41.9118833" lon="-7.9680467"><ele>940.4000000000001</ele><time>2026-04-04T14:48:58.823Z</time></trkpt><trkpt lat="41.911975" lon="-7.9681383"><ele>941.2</ele><time>2026-04-04T14:48:59.824Z</time></trkpt><trkpt lat="41.912065" lon="-7.9682067"><ele>942.0</ele><time>2026-04-04T14:49:00.823Z</time></trkpt><trkpt lat="41.9121567" lon="-7.9682617"><ele>942.0</ele><time>2026-04-04T14:49:01.825Z</time></trkpt><trkpt lat="41.9122433" lon="-7.9683"><ele>942.0</ele><time>2026-04-04T14:49:02.824Z</time></trkpt><trkpt lat="41.912325" lon="-7.9683333"><ele>942.0</ele><time>2026-04-04T14:49:03.823Z</time></trkpt><trkpt lat="41.9124033" lon="-7.9683717"><ele>942.0</ele><time>2026-04-04T14:49:04.822Z</time></trkpt><trkpt lat="41.912475" lon="-7.968415"><ele>942.0</ele><time>2026-04-04T14:49:05.822Z</time></trkpt><trkpt lat="41.91253" lon="-7.9684633"><ele>942.0</ele><time>2026-04-04T14:49:06.824Z</time></trkpt><trkpt lat="41.9125767" lon="-7.968545"><ele>941.6666666666666</ele><time>2026-04-04T14:49:08.822Z</time></trkpt><trkpt lat="41.91256" lon="-7.9686317"><ele>941.3333333333333</ele><time>2026-04-04T14:49:10.823Z</time></trkpt><trkpt lat="41.912515" lon="-7.96871"><ele>941.0</ele><time>2026-04-04T14:49:12.823Z</time></trkpt><trkpt lat="41.9124767" lon="-7.9687983"><ele>940.6666666666666</ele><time>2026-04-04T14:49:15.823Z</time></trkpt><trkpt lat="41.9124483" lon="-7.968705"><ele>940.3333333333333</ele><time>2026-04-04T14:49:19.823Z</time></trkpt><trkpt lat="41.9124517" lon="-7.9685917"><ele>940.0</ele><time>2026-04-04T14:49:21.822Z</time></trkpt><trkpt lat="41.9124067" lon="-7.96851"><ele>940.0</ele><time>2026-04-04T14:49:23.823Z</time></trkpt><trkpt lat="41.9122783" lon="-7.96845"><ele>940.0</ele><time>2026-04-04T14:49:25.823Z</time></trkpt><trkpt lat="41.9121767" lon="-7.9684267"><ele>940.0</ele><time>2026-04-04T14:49:26.824Z</time></trkpt><trkpt lat="41.9120733" lon="-7.9684017"><ele>940.0</ele><time>2026-04-04T14:49:27.822Z</time></trkpt><trkpt lat="41.9119667" lon="-7.9683683"><ele>940.4</ele><time>2026-04-04T14:49:28.824Z</time></trkpt><trkpt lat="41.9118617" lon="-7.9683317"><ele>940.8</ele><time>2026-04-04T14:49:29.823Z</time></trkpt><trkpt lat="41.9117533" lon="-7.9683017"><ele>941.2</ele><time>2026-04-04T14:49:30.823Z</time></trkpt><trkpt lat="41.9116433" lon="-7.9682733"><ele>941.6</ele><time>2026-04-04T14:49:31.823Z</time></trkpt><trkpt lat="41.9115283" lon="-7.96825"><ele>942.0</ele><time>2026-04-04T14:49:32.824Z</time></trkpt><trkpt lat="41.9114167" lon="-7.9682233"><ele>943.4000000000001</ele><time>2026-04-04T14:49:33.822Z</time></trkpt><trkpt lat="41.9113117" lon="-7.9681917"><ele>944.8000000000001</ele><time>2026-04-04T14:49:34.822Z</time></trkpt><trkpt lat="41.9112167" lon="-7.9681317"><ele>946.2</ele><time>2026-04-04T14:49:35.822Z</time></trkpt><trkpt lat="41.9111383" lon="-7.9680467"><ele>947.6</ele><time>2026-04-04T14:49:36.822Z</time></trkpt><trkpt lat="41.9110883" lon="-7.9679317"><ele>949.0</ele><time>2026-04-04T14:49:37.823Z</time></trkpt><trkpt lat="41.9110467" lon="-7.9678067"><ele>948.9999999999999</ele><time>2026-04-04T14:49:38.823Z</time></trkpt><trkpt lat="41.91102" lon="-7.967695"><ele>949.0</ele><time>2026-04-04T14:49:39.822Z</time></trkpt><trkpt lat="41.9109917" lon="-7.967585"><ele>949.0</ele><time>2026-04-04T14:49:40.822Z</time></trkpt><trkpt lat="41.9109583" lon="-7.9675"><ele>949.0</ele><time>2026-04-04T14:49:41.824Z</time></trkpt><trkpt lat="41.9108617" lon="-7.96746"><ele>948.9999999999999</ele><time>2026-04-04T14:49:43.823Z</time></trkpt><trkpt lat="41.9107767" lon="-7.9674733"><ele>949.0</ele><time>2026-04-04T14:49:44.826Z</time></trkpt><trkpt lat="41.91066" lon="-7.9675033"><ele>949.25</ele><time>2026-04-04T14:49:45.824Z</time></trkpt><trkpt lat="41.9105467" lon="-7.9675117"><ele>949.5</ele><time>2026-04-04T14:49:46.823Z</time></trkpt><trkpt lat="41.91041" lon="-7.9675433"><ele>949.75</ele><time>2026-04-04T14:49:47.823Z</time></trkpt><trkpt lat="41.910245" lon="-7.9675783"><ele>950.0</ele><time>2026-04-04T14:49:48.822Z</time></trkpt><trkpt lat="41.91009" lon="-7.96761"><ele>954.6666666666667</ele><time>2026-04-04T14:49:49.823Z</time></trkpt><trkpt lat="41.9099283" lon="-7.9676333"><ele>959.3333333333333</ele><time>2026-04-04T14:49:50.823Z</time></trkpt><trkpt lat="41.90977" lon="-7.9676367"><ele>964.0</ele><time>2026-04-04T14:49:51.823Z</time></trkpt><trkpt lat="41.90963" lon="-7.9676233"><ele>963.9999999999999</ele><time>2026-04-04T14:49:52.823Z</time></trkpt><trkpt lat="41.90952" lon="-7.96758"><ele>964.0</ele><time>2026-04-04T14:49:53.824Z</time></trkpt><trkpt lat="41.9094333" lon="-7.9675083"><ele>964.0</ele><time>2026-04-04T14:49:54.823Z</time></trkpt><trkpt lat="41.90938" lon="-7.96743"><ele>964.0</ele><time>2026-04-04T14:49:55.824Z</time></trkpt><trkpt lat="41.9093267" lon="-7.9673533"><ele>963.9999999999999</ele><time>2026-04-04T14:49:56.823Z</time></trkpt><trkpt lat="41.9093217" lon="-7.96726"><ele>964.0</ele><time>2026-04-04T14:49:57.822Z</time></trkpt><trkpt lat="41.9093683" lon="-7.96716"><ele>963.0</ele><time>2026-04-04T14:49:58.822Z</time></trkpt><trkpt lat="41.9094283" lon="-7.96706"><ele>962.0</ele><time>2026-04-04T14:49:59.823Z</time></trkpt><trkpt lat="41.90952" lon="-7.966965"><ele>961.0</ele><time>2026-04-04T14:50:00.822Z</time></trkpt><trkpt lat="41.909635" lon="-7.9668733"><ele>960.0</ele><time>2026-04-04T14:50:01.823Z</time></trkpt><trkpt lat="41.9097933" lon="-7.9667783"><ele>958.75</ele><time>2026-04-04T14:50:02.823Z</time></trkpt><trkpt lat="41.9099267" lon="-7.966675"><ele>957.5</ele><time>2026-04-04T14:50:03.822Z</time></trkpt><trkpt lat="41.9100133" lon="-7.966575"><ele>956.25</ele><time>2026-04-04T14:50:04.823Z</time></trkpt><trkpt lat="41.9101067" lon="-7.9664917"><ele>955.0</ele><time>2026-04-04T14:50:05.824Z</time></trkpt><trkpt lat="41.91015" lon="-7.9664017"><ele>955.0</ele><time>2026-04-04T14:50:06.823Z</time></trkpt><trkpt lat="41.9101467" lon="-7.9662717"><ele>955.0</ele><time>2026-04-04T14:50:08.824Z</time></trkpt><trkpt lat="41.9099983" lon="-7.9662883"><ele>955.0</ele><time>2026-04-04T14:50:10.823Z</time></trkpt><trkpt lat="41.90988" lon="-7.96636"><ele>955.0</ele><time>2026-04-04T14:50:11.824Z</time></trkpt><trkpt lat="41.9097733" lon="-7.966405"><ele>957.2</ele><time>2026-04-04T14:50:12.823Z</time></trkpt><trkpt lat="41.9096767" lon="-7.96642"><ele>959.4</ele><time>2026-04-04T14:50:13.824Z</time></trkpt><trkpt lat="41.9095633" lon="-7.9664267"><ele>961.5999999999999</ele><time>2026-04-04T14:50:14.825Z</time></trkpt><trkpt lat="41.9094683" lon="-7.9664083"><ele>963.8</ele><time>2026-04-04T14:50:15.822Z</time></trkpt><trkpt lat="41.9093683" lon="-7.966395"><ele>966.0</ele><time>2026-04-04T14:50:16.823Z</time></trkpt><trkpt lat="41.9092667" lon="-7.9663917"><ele>967.8</ele><time>2026-04-04T14:50:17.823Z</time></trkpt><trkpt lat="41.9091683" lon="-7.9663917"><ele>969.5999999999999</ele><time>2026-04-04T14:50:18.823Z</time></trkpt><trkpt lat="41.9090683" lon="-7.9663933"><ele>971.4</ele><time>2026-04-04T14:50:19.823Z</time></trkpt><trkpt lat="41.9089717" lon="-7.9663983"><ele>973.2</ele><time>2026-04-04T14:50:20.823Z</time></trkpt><trkpt lat="41.9088883" lon="-7.9664083"><ele>975.0</ele><time>2026-04-04T14:50:21.822Z</time></trkpt><trkpt lat="41.9088083" lon="-7.9664267"><ele>975.0</ele><time>2026-04-04T14:50:22.824Z</time></trkpt><trkpt lat="41.9087417" lon="-7.9664467"><ele>975.0</ele><time>2026-04-04T14:50:23.823Z</time></trkpt><trkpt lat="41.90866" lon="-7.9664867"><ele>975.0</ele><time>2026-04-04T14:50:25.823Z</time></trkpt><trkpt lat="41.9087667" lon="-7.9664883"><ele>975.0</ele><time>2026-04-04T14:50:34.822Z</time></trkpt><trkpt lat="41.9089217" lon="-7.966475"><ele>975.0</ele><time>2026-04-04T14:50:36.824Z</time></trkpt><trkpt lat="41.9090433" lon="-7.9664817"><ele>975.0</ele><time>2026-04-04T14:50:37.823Z</time></trkpt><trkpt lat="41.9091817" lon="-7.9664867"><ele>975.0</ele><time>2026-04-04T14:50:38.824Z</time></trkpt><trkpt lat="41.90931" lon="-7.9664933"><ele>975.0</ele><time>2026-04-04T14:50:39.822Z</time></trkpt><trkpt lat="41.9094233" lon="-7.9665033"><ele>975.0</ele><time>2026-04-04T14:50:40.824Z</time></trkpt><trkpt lat="41.909525" lon="-7.966515"><ele>973.2</ele><time>2026-04-04T14:50:41.823Z</time></trkpt><trkpt lat="41.9096117" lon="-7.9665083"><ele>971.4</ele><time>2026-04-04T14:50:42.822Z</time></trkpt><trkpt lat="41.9096917" lon="-7.9664933"><ele>969.5999999999999</ele><time>2026-04-04T14:50:43.822Z</time></trkpt><trkpt lat="41.9097617" lon="-7.96648"><ele>967.8</ele><time>2026-04-04T14:50:44.824Z</time></trkpt><trkpt lat="41.909875" lon="-7.96645"><ele>966.0</ele><time>2026-04-04T14:50:46.822Z</time></trkpt><trkpt lat="41.90998" lon="-7.9664233"><ele>966.0</ele><time>2026-04-04T14:50:48.823Z</time></trkpt><trkpt lat="41.9100683" lon="-7.96642"><ele>965.9999999999999</ele><time>2026-04-04T14:50:50.823Z</time></trkpt><trkpt lat="41.910155" lon="-7.966425"><ele>965.9999999999999</ele><time>2026-04-04T14:50:52.823Z</time></trkpt><trkpt lat="41.9102383" lon="-7.9664033"><ele>966.0</ele><time>2026-04-04T14:50:54.823Z</time></trkpt><trkpt lat="41.9103333" lon="-7.9662983"><ele>966.0</ele><time>2026-04-04T14:50:56.823Z</time></trkpt><trkpt lat="41.9103933" lon="-7.9662167"><ele>965.6666666666666</ele><time>2026-04-04T14:50:57.823Z</time></trkpt><trkpt lat="41.9104417" lon="-7.9661233"><ele>965.3333333333333</ele><time>2026-04-04T14:50:58.824Z</time></trkpt><trkpt lat="41.9104783" lon="-7.96602"><ele>965.0</ele><time>2026-04-04T14:50:59.824Z</time></trkpt><trkpt lat="41.9105" lon="-7.965925"><ele>964.6666666666666</ele><time>2026-04-04T14:51:00.823Z</time></trkpt><trkpt lat="41.9105167" lon="-7.9658367"><ele>964.3333333333333</ele><time>2026-04-04T14:51:01.823Z</time></trkpt><trkpt lat="41.9105367" lon="-7.9656767"><ele>964.0</ele><time>2026-04-04T14:51:03.823Z</time></trkpt><trkpt lat="41.9105083" lon="-7.965505"><ele>964.0</ele><time>2026-04-04T14:51:05.823Z</time></trkpt><trkpt lat="41.9104817" lon="-7.965415"><ele>964.0000000000001</ele><time>2026-04-04T14:51:06.823Z</time></trkpt><trkpt lat="41.91045" lon="-7.965335"><ele>964.0</ele><time>2026-04-04T14:51:07.823Z</time></trkpt><trkpt lat="41.9104117" lon="-7.9652583"><ele>964.0</ele><time>2026-04-04T14:51:08.823Z</time></trkpt><trkpt lat="41.91037" lon="-7.9651833"><ele>964.0000000000001</ele><time>2026-04-04T14:51:09.822Z</time></trkpt><trkpt lat="41.91032" lon="-7.9651067"><ele>964.0</ele><time>2026-04-04T14:51:10.824Z</time></trkpt><trkpt lat="41.9102683" lon="-7.965045"><ele>964.0</ele><time>2026-04-04T14:51:11.823Z</time></trkpt><trkpt lat="41.9102033" lon="-7.9649983"><ele>964.4999999999999</ele><time>2026-04-04T14:51:12.823Z</time></trkpt><trkpt lat="41.9101383" lon="-7.96494"><ele>965.0</ele><time>2026-04-04T14:51:13.824Z</time></trkpt><trkpt lat="41.9100717" lon="-7.9648767"><ele>965.5</ele><time>2026-04-04T14:51:14.824Z</time></trkpt><trkpt lat="41.91001" lon="-7.9648167"><ele>966.0</ele><time>2026-04-04T14:51:15.823Z</time></trkpt><trkpt lat="41.90995" lon="-7.96477"><ele>966.4999999999999</ele><time>2026-04-04T14:51:16.824Z</time></trkpt><trkpt lat="41.9098717" lon="-7.9646917"><ele>967.0</ele><time>2026-04-04T14:51:18.823Z</time></trkpt><trkpt lat="41.9098133" lon="-7.9645583"><ele>970.75</ele><time>2026-04-04T14:51:20.824Z</time></trkpt><trkpt lat="41.9097617" lon="-7.96441"><ele>974.5</ele><time>2026-04-04T14:51:22.823Z</time></trkpt><trkpt lat="41.909695" lon="-7.9642617"><ele>978.25</ele><time>2026-04-04T14:51:24.823Z</time></trkpt><trkpt lat="41.90965" lon="-7.9641283"><ele>982.0</ele><time>2026-04-04T14:51:26.824Z</time></trkpt><trkpt lat="41.9096" lon="-7.9640167"><ele>982.2</ele><time>2026-04-04T14:51:28.823Z</time></trkpt><trkpt lat="41.9095067" lon="-7.9639183"><ele>982.4000000000001</ele><time>2026-04-04T14:51:30.823Z</time></trkpt><trkpt lat="41.9094517" lon="-7.9638633"><ele>982.5999999999999</ele><time>2026-04-04T14:51:31.823Z</time></trkpt><trkpt lat="41.9093617" lon="-7.9637683"><ele>982.8</ele><time>2026-04-04T14:51:33.822Z</time></trkpt><trkpt lat="41.9092783" lon="-7.963735"><ele>983.0</ele><time>2026-04-04T14:51:35.824Z</time></trkpt><trkpt lat="41.9092017" lon="-7.9637883"><ele>985.5000000000001</ele><time>2026-04-04T14:51:37.824Z</time></trkpt><trkpt lat="41.9091483" lon="-7.9638367"><ele>988.0</ele><time>2026-04-04T14:51:38.824Z</time></trkpt><trkpt lat="41.9090483" lon="-7.9638983"><ele>990.5</ele><time>2026-04-04T14:51:40.823Z</time></trkpt><trkpt lat="41.908975" lon="-7.9638867"><ele>993.0</ele><time>2026-04-04T14:51:42.824Z</time></trkpt><trkpt lat="41.9089067" lon="-7.9638367"><ele>995.5000000000001</ele><time>2026-04-04T14:51:44.824Z</time></trkpt><trkpt lat="41.9088267" lon="-7.9638183"><ele>998.0</ele><time>2026-04-04T14:51:46.824Z</time></trkpt><trkpt lat="41.90875" lon="-7.963875"><ele>998.0000000000001</ele><time>2026-04-04T14:51:48.824Z</time></trkpt><trkpt lat="41.9086683" lon="-7.9639667"><ele>998.0</ele><time>2026-04-04T14:51:50.824Z</time></trkpt><trkpt lat="41.9085567" lon="-7.9640283"><ele>998.0</ele><time>2026-04-04T14:51:52.824Z</time></trkpt><trkpt lat="41.908495" lon="-7.9640517"><ele>998.0</ele><time>2026-04-04T14:51:53.824Z</time></trkpt><trkpt lat="41.9084267" lon="-7.96407"><ele>998.0000000000001</ele><time>2026-04-04T14:51:54.824Z</time></trkpt><trkpt lat="41.9083483" lon="-7.9640883"><ele>998.0</ele><time>2026-04-04T14:51:55.823Z</time></trkpt><trkpt lat="41.90827" lon="-7.9641083"><ele>999.4</ele><time>2026-04-04T14:51:56.824Z</time></trkpt><trkpt lat="41.9081883" lon="-7.9641333"><ele>1000.8</ele><time>2026-04-04T14:51:57.823Z</time></trkpt><trkpt lat="41.9081133" lon="-7.9641533"><ele>1002.2</ele><time>2026-04-04T14:51:58.823Z</time></trkpt><trkpt lat="41.908015" lon="-7.96419"><ele>1003.6</ele><time>2026-04-04T14:52:00.823Z</time></trkpt><trkpt lat="41.9080067" lon="-7.9643067"><ele>1005.0</ele><time>2026-04-04T14:52:03.823Z</time></trkpt><trkpt lat="41.9080017" lon="-7.9644717"><ele>1005.0</ele><time>2026-04-04T14:52:05.824Z</time></trkpt><trkpt lat="41.9079783" lon="-7.9645533"><ele>1005.0</ele><time>2026-04-04T14:52:06.824Z</time></trkpt><trkpt lat="41.9079383" lon="-7.964635"><ele>1005.0</ele><time>2026-04-04T14:52:07.823Z</time></trkpt><trkpt lat="41.9078817" lon="-7.964705"><ele>1005.0</ele><time>2026-04-04T14:52:08.824Z</time></trkpt><trkpt lat="41.9078133" lon="-7.96476"><ele>1005.0</ele><time>2026-04-04T14:52:09.823Z</time></trkpt><trkpt lat="41.9077383" lon="-7.9647883"><ele>1005.0</ele><time>2026-04-04T14:52:10.826Z</time></trkpt><trkpt lat="41.9076567" lon="-7.964785"><ele>1005.0</ele><time>2026-04-04T14:52:13.824Z</time></trkpt><trkpt lat="41.9075883" lon="-7.9647417"><ele>1005.0</ele><time>2026-04-04T14:52:15.823Z</time></trkpt><trkpt lat="41.9075017" lon="-7.9647017"><ele>1005.0</ele><time>2026-04-04T14:52:17.825Z</time></trkpt><trkpt lat="41.90741" lon="-7.9646883"><ele>1005.0</ele><time>2026-04-04T14:52:19.824Z</time></trkpt><trkpt lat="41.9073017" lon="-7.9647033"><ele>1005.0</ele><time>2026-04-04T14:52:21.823Z</time></trkpt><trkpt lat="41.90724" lon="-7.9647267"><ele>1005.0</ele><time>2026-04-04T14:52:22.823Z</time></trkpt><trkpt lat="41.9071783" lon="-7.964755"><ele>1006.4</ele><time>2026-04-04T14:52:23.824Z</time></trkpt><trkpt lat="41.9071183" lon="-7.9647867"><ele>1007.8</ele><time>2026-04-04T14:52:24.824Z</time></trkpt><trkpt lat="41.9070067" lon="-7.9648417"><ele>1009.2</ele><time>2026-04-04T14:52:26.824Z</time></trkpt><trkpt lat="41.906905" lon="-7.9648933"><ele>1010.6</ele><time>2026-04-04T14:52:28.823Z</time></trkpt><trkpt lat="41.9068167" lon="-7.9649267"><ele>1012.0</ele><time>2026-04-04T14:52:30.823Z</time></trkpt><trkpt lat="41.9067467" lon="-7.9649383"><ele>1012.6666666666666</ele><time>2026-04-04T14:52:33.823Z</time></trkpt><trkpt lat="41.9066667" lon="-7.964945"><ele>1013.3333333333333</ele><time>2026-04-04T14:52:36.822Z</time></trkpt><trkpt lat="41.906595" lon="-7.9649767"><ele>1014.0</ele><time>2026-04-04T14:52:46.823Z</time></trkpt><trkpt lat="41.906525" lon="-7.965015"><ele>1014.6666666666667</ele><time>2026-04-04T14:52:48.823Z</time></trkpt><trkpt lat="41.9064117" lon="-7.9650383"><ele>1015.3333333333334</ele><time>2026-04-04T14:52:50.824Z</time></trkpt><trkpt lat="41.9063517" lon="-7.9650683"><ele>1016.0</ele><time>2026-04-04T14:52:51.823Z</time></trkpt><trkpt lat="41.9062933" lon="-7.96511"><ele>1016.1666666666667</ele><time>2026-04-04T14:52:52.824Z</time></trkpt><trkpt lat="41.9062317" lon="-7.9651583"><ele>1016.3333333333334</ele><time>2026-04-04T14:52:53.822Z</time></trkpt><trkpt lat="41.9061617" lon="-7.9652083"><ele>1016.5</ele><time>2026-04-04T14:52:54.823Z</time></trkpt><trkpt lat="41.9060833" lon="-7.96526"><ele>1016.6666666666667</ele><time>2026-04-04T14:52:55.823Z</time></trkpt><trkpt lat="41.9059983" lon="-7.9653033"><ele>1016.8333333333334</ele><time>2026-04-04T14:52:56.825Z</time></trkpt><trkpt lat="41.905915" lon="-7.9653433"><ele>1017.0</ele><time>2026-04-04T14:52:57.822Z</time></trkpt><trkpt lat="41.90584" lon="-7.9653783"><ele>1017.6666666666666</ele><time>2026-04-04T14:52:58.822Z</time></trkpt><trkpt lat="41.90577" lon="-7.965405"><ele>1018.3333333333333</ele><time>2026-04-04T14:52:59.822Z</time></trkpt><trkpt lat="41.9056733" lon="-7.965445"><ele>1019.0</ele><time>2026-04-04T14:53:01.824Z</time></trkpt><trkpt lat="41.9056167" lon="-7.9655217"><ele>1019.6666666666666</ele><time>2026-04-04T14:53:03.825Z</time></trkpt><trkpt lat="41.9056117" lon="-7.9656267"><ele>1020.3333333333333</ele><time>2026-04-04T14:53:05.823Z</time></trkpt><trkpt lat="41.9056383" lon="-7.965705"><ele>1021.0</ele><time>2026-04-04T14:53:06.823Z</time></trkpt><trkpt lat="41.9056783" lon="-7.96587"><ele>1021.5714285714286</ele><time>2026-04-04T14:53:08.823Z</time></trkpt><trkpt lat="41.9057033" lon="-7.96596"><ele>1022.1428571428571</ele><time>2026-04-04T14:53:09.822Z</time></trkpt><trkpt lat="41.9057267" lon="-7.9660833"><ele>1022.7142857142857</ele><time>2026-04-04T14:53:11.822Z</time></trkpt><trkpt lat="41.90572" lon="-7.96617"><ele>1023.2857142857142</ele><time>2026-04-04T14:53:14.823Z</time></trkpt><trkpt lat="41.9056517" lon="-7.966155"><ele>1023.8571428571429</ele><time>2026-04-04T14:53:16.822Z</time></trkpt><trkpt lat="41.9055883" lon="-7.966115"><ele>1024.4285714285713</ele><time>2026-04-04T14:53:17.823Z</time></trkpt><trkpt lat="41.90552" lon="-7.9660833"><ele>1025.0</ele><time>2026-04-04T14:53:18.823Z</time></trkpt><trkpt lat="41.9054583" lon="-7.9660617"><ele>1025.0</ele><time>2026-04-04T14:53:19.823Z</time></trkpt><trkpt lat="41.9053467" lon="-7.966035"><ele>1025.0</ele><time>2026-04-04T14:53:21.822Z</time></trkpt><trkpt lat="41.9052833" lon="-7.9660367"><ele>1025.0</ele><time>2026-04-04T14:53:22.826Z</time></trkpt><trkpt lat="41.9052083" lon="-7.96605"><ele>1025.0</ele><time>2026-04-04T14:53:23.824Z</time></trkpt><trkpt lat="41.9051383" lon="-7.9660767"><ele>1025.0</ele><time>2026-04-04T14:53:24.826Z</time></trkpt><trkpt lat="41.9050783" lon="-7.9661233"><ele>1025.0</ele><time>2026-04-04T14:53:25.823Z</time></trkpt><trkpt lat="41.90502" lon="-7.9661767"><ele>1026.0</ele><time>2026-04-04T14:53:26.823Z</time></trkpt><trkpt lat="41.904965" lon="-7.9662317"><ele>1027.0</ele><time>2026-04-04T14:53:27.822Z</time></trkpt><trkpt lat="41.9049117" lon="-7.9663017"><ele>1028.0</ele><time>2026-04-04T14:53:28.822Z</time></trkpt><trkpt lat="41.9048583" lon="-7.96637"><ele>1029.0</ele><time>2026-04-04T14:53:29.823Z</time></trkpt><trkpt lat="41.90481" lon="-7.9664283"><ele>1030.0</ele><time>2026-04-04T14:53:30.823Z</time></trkpt><trkpt lat="41.9047233" lon="-7.9665017"><ele>1031.0</ele><time>2026-04-04T14:53:32.826Z</time></trkpt><trkpt lat="41.904635" lon="-7.96649"><ele>1031.0</ele><time>2026-04-04T14:53:34.823Z</time></trkpt><trkpt lat="41.9045767" lon="-7.9664517"><ele>1031.0</ele><time>2026-04-04T14:53:35.822Z</time></trkpt><trkpt lat="41.9044517" lon="-7.9664067"><ele>1031.0</ele><time>2026-04-04T14:53:37.825Z</time></trkpt><trkpt lat="41.9043767" lon="-7.9664017"><ele>1031.0</ele><time>2026-04-04T14:53:38.823Z</time></trkpt><trkpt lat="41.9042967" lon="-7.9664083"><ele>1031.0</ele><time>2026-04-04T14:53:39.822Z</time></trkpt><trkpt lat="41.904215" lon="-7.966415"><ele>1031.0</ele><time>2026-04-04T14:53:40.826Z</time></trkpt><trkpt lat="41.90413" lon="-7.9664183"><ele>1031.0</ele><time>2026-04-04T14:53:41.823Z</time></trkpt><trkpt lat="41.904045" lon="-7.966435"><ele>1031.0</ele><time>2026-04-04T14:53:42.822Z</time></trkpt><trkpt lat="41.9039617" lon="-7.9664667"><ele>1031.0</ele><time>2026-04-04T14:53:43.824Z</time></trkpt><trkpt lat="41.903885" lon="-7.9665117"><ele>1031.0</ele><time>2026-04-04T14:53:44.823Z</time></trkpt><trkpt lat="41.90381" lon="-7.9665467"><ele>1031.0</ele><time>2026-04-04T14:53:45.824Z</time></trkpt><trkpt lat="41.903735" lon="-7.966565"><ele>1031.0</ele><time>2026-04-04T14:53:46.823Z</time></trkpt><trkpt lat="41.90366" lon="-7.96656"><ele>1031.0</ele><time>2026-04-04T14:53:47.824Z</time></trkpt><trkpt lat="41.90359" lon="-7.9665467"><ele>1031.0</ele><time>2026-04-04T14:53:48.824Z</time></trkpt><trkpt lat="41.9035217" lon="-7.966535"><ele>1031.0</ele><time>2026-04-04T14:53:49.824Z</time></trkpt><trkpt lat="41.9034133" lon="-7.966545"><ele>1031.0</ele><time>2026-04-04T14:53:51.822Z</time></trkpt><trkpt lat="41.90333" lon="-7.9666033"><ele>1031.0</ele><time>2026-04-04T14:53:53.824Z</time></trkpt><trkpt lat="41.9032783" lon="-7.96674"><ele>1034.0</ele><time>2026-04-04T14:53:55.824Z</time></trkpt><trkpt lat="41.903255" lon="-7.9668283"><ele>1037.0</ele><time>2026-04-04T14:53:56.823Z</time></trkpt><trkpt lat="41.9032233" lon="-7.9669167"><ele>1040.0</ele><time>2026-04-04T14:53:57.823Z</time></trkpt><trkpt lat="41.9031817" lon="-7.9669917"><ele>1043.0</ele><time>2026-04-04T14:53:58.823Z</time></trkpt><trkpt lat="41.9031421" lon="-7.9670575"><ele>1046.0</ele><time>2026-04-04T14:53:59.822Z</time></trkpt><trkpt lat="41.9030481" lon="-7.9671149"><ele>1049.0</ele><time>2026-04-04T14:54:01.823Z</time></trkpt><trkpt lat="41.9029689" lon="-7.9670612"><ele>1049.0</ele><time>2026-04-04T14:54:03.823Z</time></trkpt><trkpt lat="41.9029154" lon="-7.966941"><ele>1049.0</ele><time>2026-04-04T14:54:05.823Z</time></trkpt><trkpt lat="41.9028957" lon="-7.9668497"><ele>1049.0</ele><time>2026-04-04T14:54:06.823Z</time></trkpt><trkpt lat="41.9028697" lon="-7.9667655"><ele>1049.0</ele><time>2026-04-04T14:54:07.823Z</time></trkpt><trkpt lat="41.9027987" lon="-7.9666871"><ele>1049.0</ele><time>2026-04-04T14:54:09.823Z</time></trkpt><trkpt lat="41.9026909" lon="-7.9667362"><ele>1049.0</ele><time>2026-04-04T14:54:11.827Z</time></trkpt><trkpt lat="41.9025503" lon="-7.9668096"><ele>1051.8</ele><time>2026-04-04T14:54:13.824Z</time></trkpt><trkpt lat="41.9024591" lon="-7.9668492"><ele>1054.6000000000001</ele><time>2026-04-04T14:54:14.823Z</time></trkpt><trkpt lat="41.9023599" lon="-7.966879"><ele>1057.4</ele><time>2026-04-04T14:54:15.823Z</time></trkpt><trkpt lat="41.9022599" lon="-7.9669124"><ele>1060.2</ele><time>2026-04-04T14:54:16.823Z</time></trkpt><trkpt lat="41.9021532" lon="-7.9669501"><ele>1063.0</ele><time>2026-04-04T14:54:17.826Z</time></trkpt><trkpt lat="41.9020507" lon="-7.9669967"><ele>1063.0</ele><time>2026-04-04T14:54:18.822Z</time></trkpt><trkpt lat="41.9019619" lon="-7.9670648"><ele>1063.0</ele><time>2026-04-04T14:54:19.826Z</time></trkpt><trkpt lat="41.901894" lon="-7.9671644"><ele>1063.0</ele><time>2026-04-04T14:54:20.823Z</time></trkpt><trkpt lat="41.9018374" lon="-7.9672826"><ele>1063.0</ele><time>2026-04-04T14:54:21.823Z</time></trkpt><trkpt lat="41.9017827" lon="-7.9674043"><ele>1063.0</ele><time>2026-04-04T14:54:22.823Z</time></trkpt><trkpt lat="41.9017333" lon="-7.967525"><ele>1063.6</ele><time>2026-04-04T14:54:23.824Z</time></trkpt><trkpt lat="41.9016783" lon="-7.9676283"><ele>1064.1999999999998</ele><time>2026-04-04T14:54:24.826Z</time></trkpt><trkpt lat="41.9016167" lon="-7.96772"><ele>1064.8</ele><time>2026-04-04T14:54:25.823Z</time></trkpt><trkpt lat="41.9015417" lon="-7.9678017"><ele>1065.3999999999999</ele><time>2026-04-04T14:54:26.823Z</time></trkpt><trkpt lat="41.901465" lon="-7.9678783"><ele>1066.0</ele><time>2026-04-04T14:54:27.823Z</time></trkpt><trkpt lat="41.9013933" lon="-7.967935"><ele>1066.0</ele><time>2026-04-04T14:54:28.824Z</time></trkpt><trkpt lat="41.9013217" lon="-7.967975"><ele>1066.0</ele><time>2026-04-04T14:54:29.824Z</time></trkpt><trkpt lat="41.90125" lon="-7.9679967"><ele>1066.0</ele><time>2026-04-04T14:54:30.827Z</time></trkpt><trkpt lat="41.9011833" lon="-7.9679817"><ele>1066.0</ele><time>2026-04-04T14:54:31.824Z</time></trkpt><trkpt lat="41.901105" lon="-7.9679683"><ele>1066.0</ele><time>2026-04-04T14:54:32.823Z</time></trkpt><trkpt lat="41.9010033" lon="-7.9679067"><ele>1066.0</ele><time>2026-04-04T14:54:33.822Z</time></trkpt><trkpt lat="41.9009" lon="-7.9678483"><ele>1069.75</ele><time>2026-04-04T14:54:34.827Z</time></trkpt><trkpt lat="41.9007833" lon="-7.967795"><ele>1073.5</ele><time>2026-04-04T14:54:35.823Z</time></trkpt><trkpt lat="41.900665" lon="-7.9677433"><ele>1077.25</ele><time>2026-04-04T14:54:36.823Z</time></trkpt><trkpt lat="41.9005583" lon="-7.9677"><ele>1081.0</ele><time>2026-04-04T14:54:37.823Z</time></trkpt><trkpt lat="41.9004617" lon="-7.967655"><ele>1081.0</ele><time>2026-04-04T14:54:38.825Z</time></trkpt><trkpt lat="41.900365" lon="-7.9676033"><ele>1081.0</ele><time>2026-04-04T14:54:39.823Z</time></trkpt><trkpt lat="41.9002667" lon="-7.9675533"><ele>1081.0</ele><time>2026-04-04T14:54:40.823Z</time></trkpt><trkpt lat="41.9001783" lon="-7.9675133"><ele>1081.0</ele><time>2026-04-04T14:54:41.823Z</time></trkpt><trkpt lat="41.9000983" lon="-7.967485"><ele>1081.0</ele><time>2026-04-04T14:54:42.823Z</time></trkpt><trkpt lat="41.9000167" lon="-7.96747"><ele>1082.0</ele><time>2026-04-04T14:54:43.823Z</time></trkpt><trkpt lat="41.8999317" lon="-7.96746"><ele>1083.0</ele><time>2026-04-04T14:54:44.824Z</time></trkpt><trkpt lat="41.899835" lon="-7.96746"><ele>1084.0</ele><time>2026-04-04T14:54:45.823Z</time></trkpt><trkpt lat="41.8997317" lon="-7.9674833"><ele>1085.0</ele><time>2026-04-04T14:54:46.823Z</time></trkpt><trkpt lat="41.8996333" lon="-7.96752"><ele>1086.0</ele><time>2026-04-04T14:54:47.823Z</time></trkpt><trkpt lat="41.8995333" lon="-7.9675583"><ele>1088.3333333333333</ele><time>2026-04-04T14:54:48.824Z</time></trkpt><trkpt lat="41.899445" lon="-7.9676017"><ele>1090.6666666666667</ele><time>2026-04-04T14:54:49.825Z</time></trkpt><trkpt lat="41.8993633" lon="-7.9676233"><ele>1093.0</ele><time>2026-04-04T14:54:50.824Z</time></trkpt><trkpt lat="41.8992883" lon="-7.9676333"><ele>1095.3333333333335</ele><time>2026-04-04T14:54:51.822Z</time></trkpt><trkpt lat="41.8992167" lon="-7.9676517"><ele>1097.6666666666667</ele><time>2026-04-04T14:54:52.823Z</time></trkpt><trkpt lat="41.8991517" lon="-7.9676883"><ele>1100.0</ele><time>2026-04-04T14:54:53.823Z</time></trkpt><trkpt lat="41.8990733" lon="-7.967745"><ele>1100.6666666666667</ele><time>2026-04-04T14:54:54.823Z</time></trkpt><trkpt lat="41.8989883" lon="-7.9677883"><ele>1101.3333333333335</ele><time>2026-04-04T14:54:55.823Z</time></trkpt><trkpt lat="41.8989017" lon="-7.9678167"><ele>1102.0</ele><time>2026-04-04T14:54:56.824Z</time></trkpt><trkpt lat="41.8988233" lon="-7.96781"><ele>1102.6666666666667</ele><time>2026-04-04T14:54:57.823Z</time></trkpt><trkpt lat="41.8987533" lon="-7.9677983"><ele>1103.3333333333333</ele><time>2026-04-04T14:54:58.823Z</time></trkpt><trkpt lat="41.8986867" lon="-7.96779"><ele>1104.0</ele><time>2026-04-04T14:54:59.824Z</time></trkpt><trkpt lat="41.8986167" lon="-7.9677933"><ele>1104.0</ele><time>2026-04-04T14:55:00.824Z</time></trkpt><trkpt lat="41.898535" lon="-7.9678117"><ele>1104.0</ele><time>2026-04-04T14:55:01.823Z</time></trkpt><trkpt lat="41.8984467" lon="-7.96785"><ele>1104.0</ele><time>2026-04-04T14:55:02.824Z</time></trkpt><trkpt lat="41.89836" lon="-7.9679017"><ele>1104.0</ele><time>2026-04-04T14:55:03.824Z</time></trkpt><trkpt lat="41.8982867" lon="-7.9679483"><ele>1104.0</ele><time>2026-04-04T14:55:04.826Z</time></trkpt><trkpt lat="41.8982133" lon="-7.96799"><ele>1104.0</ele><time>2026-04-04T14:55:05.823Z</time></trkpt><trkpt lat="41.8981383" lon="-7.96803"><ele>1104.2</ele><time>2026-04-04T14:55:06.825Z</time></trkpt><trkpt lat="41.898075" lon="-7.968065"><ele>1104.4</ele><time>2026-04-04T14:55:07.826Z</time></trkpt><trkpt lat="41.89801" lon="-7.9681633"><ele>1104.6</ele><time>2026-04-04T14:55:09.823Z</time></trkpt><trkpt lat="41.8979467" lon="-7.96832"><ele>1104.8</ele><time>2026-04-04T14:55:11.823Z</time></trkpt><trkpt lat="41.8978933" lon="-7.9684083"><ele>1105.0</ele><time>2026-04-04T14:55:12.823Z</time></trkpt><trkpt lat="41.8978267" lon="-7.9685033"><ele>1105.0</ele><time>2026-04-04T14:55:13.823Z</time></trkpt><trkpt lat="41.8977483" lon="-7.968605"><ele>1105.0</ele><time>2026-04-04T14:55:14.824Z</time></trkpt><trkpt lat="41.8976617" lon="-7.9686917"><ele>1105.0</ele><time>2026-04-04T14:55:15.824Z</time></trkpt><trkpt lat="41.89756" lon="-7.968765"><ele>1105.0</ele><time>2026-04-04T14:55:16.825Z</time></trkpt><trkpt lat="41.8974567" lon="-7.96883"><ele>1105.0</ele><time>2026-04-04T14:55:17.823Z</time></trkpt><trkpt lat="41.8973533" lon="-7.9688767"><ele>1105.2</ele><time>2026-04-04T14:55:18.823Z</time></trkpt><trkpt lat="41.897255" lon="-7.9689033"><ele>1105.4</ele><time>2026-04-04T14:55:19.826Z</time></trkpt><trkpt lat="41.89716" lon="-7.9689183"><ele>1105.6</ele><time>2026-04-04T14:55:20.824Z</time></trkpt><trkpt lat="41.8970717" lon="-7.9689233"><ele>1105.8</ele><time>2026-04-04T14:55:21.824Z</time></trkpt><trkpt lat="41.8969883" lon="-7.9689183"><ele>1106.0</ele><time>2026-04-04T14:55:22.824Z</time></trkpt><trkpt lat="41.896905" lon="-7.9689117"><ele>1106.0</ele><time>2026-04-04T14:55:23.823Z</time></trkpt><trkpt lat="41.89682" lon="-7.9689067"><ele>1106.0</ele><time>2026-04-04T14:55:24.824Z</time></trkpt><trkpt lat="41.896735" lon="-7.9689083"><ele>1106.0</ele><time>2026-04-04T14:55:25.824Z</time></trkpt><trkpt lat="41.8966467" lon="-7.9689167"><ele>1106.0</ele><time>2026-04-04T14:55:26.824Z</time></trkpt><trkpt lat="41.8965617" lon="-7.9689117"><ele>1106.0</ele><time>2026-04-04T14:55:27.823Z</time></trkpt><trkpt lat="41.89648" lon="-7.9688833"><ele>1106.0</ele><time>2026-04-04T14:55:28.823Z</time></trkpt><trkpt lat="41.8963967" lon="-7.968835"><ele>1107.5</ele><time>2026-04-04T14:55:29.825Z</time></trkpt><trkpt lat="41.8963083" lon="-7.96878"><ele>1109.0</ele><time>2026-04-04T14:55:30.824Z</time></trkpt><trkpt lat="41.89622" lon="-7.9687283"><ele>1110.5</ele><time>2026-04-04T14:55:31.824Z</time></trkpt><trkpt lat="41.8961417" lon="-7.9686833"><ele>1112.0</ele><time>2026-04-04T14:55:32.823Z</time></trkpt><trkpt lat="41.896075" lon="-7.9686433"><ele>1113.5</ele><time>2026-04-04T14:55:33.823Z</time></trkpt><trkpt lat="41.89601" lon="-7.9686283"><ele>1115.0</ele><time>2026-04-04T14:55:34.823Z</time></trkpt><trkpt lat="41.8959383" lon="-7.9686317"><ele>1116.6</ele><time>2026-04-04T14:55:35.823Z</time></trkpt><trkpt lat="41.8958467" lon="-7.968645"><ele>1118.2</ele><time>2026-04-04T14:55:36.823Z</time></trkpt><trkpt lat="41.89574" lon="-7.9686633"><ele>1119.8</ele><time>2026-04-04T14:55:37.824Z</time></trkpt><trkpt lat="41.8956317" lon="-7.9686867"><ele>1121.4</ele><time>2026-04-04T14:55:38.824Z</time></trkpt><trkpt lat="41.8955267" lon="-7.9687"><ele>1123.0</ele><time>2026-04-04T14:55:39.823Z</time></trkpt><trkpt lat="41.8954317" lon="-7.968735"><ele>1123.0</ele><time>2026-04-04T14:55:40.823Z</time></trkpt><trkpt lat="41.8953433" lon="-7.9687783"><ele>1123.0</ele><time>2026-04-04T14:55:41.823Z</time></trkpt><trkpt lat="41.8952467" lon="-7.9688167"><ele>1123.0</ele><time>2026-04-04T14:55:42.827Z</time></trkpt><trkpt lat="41.8951417" lon="-7.968845"><ele>1123.0</ele><time>2026-04-04T14:55:43.826Z</time></trkpt><trkpt lat="41.89503" lon="-7.96887"><ele>1123.0</ele><time>2026-04-04T14:55:44.824Z</time></trkpt><trkpt lat="41.8949083" lon="-7.9688883"><ele>1124.2</ele><time>2026-04-04T14:55:45.823Z</time></trkpt><trkpt lat="41.89479" lon="-7.9689"><ele>1125.4</ele><time>2026-04-04T14:55:46.827Z</time></trkpt><trkpt lat="41.8946833" lon="-7.9689067"><ele>1126.6000000000001</ele><time>2026-04-04T14:55:47.824Z</time></trkpt><trkpt lat="41.89458" lon="-7.9689167"><ele>1127.8</ele><time>2026-04-04T14:55:48.824Z</time></trkpt><trkpt lat="41.89447" lon="-7.9689367"><ele>1129.0</ele><time>2026-04-04T14:55:49.824Z</time></trkpt><trkpt lat="41.8943633" lon="-7.9689633"><ele>1129.0</ele><time>2026-04-04T14:55:50.825Z</time></trkpt><trkpt lat="41.89426" lon="-7.9689833"><ele>1129.0</ele><time>2026-04-04T14:55:51.823Z</time></trkpt><trkpt lat="41.894165" lon="-7.9690033"><ele>1129.0</ele><time>2026-04-04T14:55:52.823Z</time></trkpt><trkpt lat="41.894065" lon="-7.969015"><ele>1129.0</ele><time>2026-04-04T14:55:53.823Z</time></trkpt><trkpt lat="41.8939833" lon="-7.9690217"><ele>1129.0</ele><time>2026-04-04T14:55:54.826Z</time></trkpt><trkpt lat="41.893905" lon="-7.9690233"><ele>1129.3333333333333</ele><time>2026-04-04T14:55:55.823Z</time></trkpt><trkpt lat="41.8938283" lon="-7.9690317"><ele>1129.6666666666665</ele><time>2026-04-04T14:55:56.824Z</time></trkpt><trkpt lat="41.8937433" lon="-7.9690433"><ele>1130.0</ele><time>2026-04-04T14:55:57.823Z</time></trkpt><trkpt lat="41.8936533" lon="-7.9690517"><ele>1130.3333333333333</ele><time>2026-04-04T14:55:58.824Z</time></trkpt><trkpt lat="41.893565" lon="-7.9690617"><ele>1130.6666666666667</ele><time>2026-04-04T14:55:59.823Z</time></trkpt><trkpt lat="41.8934733" lon="-7.9690733"><ele>1131.0</ele><time>2026-04-04T14:56:00.824Z</time></trkpt><trkpt lat="41.89339" lon="-7.9690867"><ele>1131.1666666666667</ele><time>2026-04-04T14:56:01.823Z</time></trkpt><trkpt lat="41.8933083" lon="-7.969105"><ele>1131.3333333333333</ele><time>2026-04-04T14:56:02.823Z</time></trkpt><trkpt lat="41.89323" lon="-7.96913"><ele>1131.5</ele><time>2026-04-04T14:56:03.823Z</time></trkpt><trkpt lat="41.8931533" lon="-7.969155"><ele>1131.6666666666665</ele><time>2026-04-04T14:56:04.823Z</time></trkpt><trkpt lat="41.8930767" lon="-7.9691883"><ele>1131.8333333333333</ele><time>2026-04-04T14:56:05.823Z</time></trkpt><trkpt lat="41.8929867" lon="-7.9692267"><ele>1132.0</ele><time>2026-04-04T14:56:06.823Z</time></trkpt><trkpt lat="41.8929017" lon="-7.9692667"><ele>1132.0</ele><time>2026-04-04T14:56:07.823Z</time></trkpt><trkpt lat="41.89283" lon="-7.969295"><ele>1132.0</ele><time>2026-04-04T14:56:08.824Z</time></trkpt><trkpt lat="41.8927633" lon="-7.9693083"><ele>1132.0</ele><time>2026-04-04T14:56:09.822Z</time></trkpt><trkpt lat="41.8926933" lon="-7.9693"><ele>1132.0</ele><time>2026-04-04T14:56:10.822Z</time></trkpt><trkpt lat="41.8926283" lon="-7.9692833"><ele>1132.0</ele><time>2026-04-04T14:56:11.822Z</time></trkpt><trkpt lat="41.8925167" lon="-7.969285"><ele>1132.0</ele><time>2026-04-04T14:56:13.823Z</time></trkpt><trkpt lat="41.8924067" lon="-7.969315"><ele>1131.142857142857</ele><time>2026-04-04T14:56:15.822Z</time></trkpt><trkpt lat="41.8923383" lon="-7.9693233"><ele>1130.2857142857144</ele><time>2026-04-04T14:56:16.822Z</time></trkpt><trkpt lat="41.89226" lon="-7.9693317"><ele>1129.4285714285716</ele><time>2026-04-04T14:56:17.823Z</time></trkpt><trkpt lat="41.892185" lon="-7.9693467"><ele>1128.5714285714287</ele><time>2026-04-04T14:56:18.824Z</time></trkpt><trkpt lat="41.8921133" lon="-7.9693567"><ele>1127.7142857142858</ele><time>2026-04-04T14:56:19.824Z</time></trkpt><trkpt lat="41.8920433" lon="-7.9693567"><ele>1126.857142857143</ele><time>2026-04-04T14:56:20.824Z</time></trkpt><trkpt lat="41.891975" lon="-7.9693383"><ele>1126.0</ele><time>2026-04-04T14:56:21.822Z</time></trkpt><trkpt lat="41.8919067" lon="-7.9693083"><ele>1126.0</ele><time>2026-04-04T14:56:22.823Z</time></trkpt><trkpt lat="41.891845" lon="-7.9692883"><ele>1126.0</ele><time>2026-04-04T14:56:23.823Z</time></trkpt><trkpt lat="41.891735" lon="-7.96928"><ele>1126.0</ele><time>2026-04-04T14:56:25.822Z</time></trkpt><trkpt lat="41.891635" lon="-7.9693417"><ele>1126.0</ele><time>2026-04-04T14:56:27.823Z</time></trkpt><trkpt lat="41.8915783" lon="-7.9693883"><ele>1126.0</ele><time>2026-04-04T14:56:28.822Z</time></trkpt><trkpt lat="41.8915033" lon="-7.9694517"><ele>1126.0</ele><time>2026-04-04T14:56:29.822Z</time></trkpt><trkpt lat="41.8914383" lon="-7.969505"><ele>1125.0</ele><time>2026-04-04T14:56:30.822Z</time></trkpt><trkpt lat="41.8913733" lon="-7.96955"><ele>1124.0</ele><time>2026-04-04T14:56:31.822Z</time></trkpt><trkpt lat="41.8913133" lon="-7.96958"><ele>1123.0</ele><time>2026-04-04T14:56:32.823Z</time></trkpt><trkpt lat="41.8912083" lon="-7.9696167"><ele>1122.0</ele><time>2026-04-04T14:56:34.823Z</time></trkpt><trkpt lat="41.8911117" lon="-7.96966"><ele>1121.0</ele><time>2026-04-04T14:56:36.823Z</time></trkpt><trkpt lat="41.89101" lon="-7.969715"><ele>1121.0</ele><time>2026-04-04T14:56:38.824Z</time></trkpt><trkpt lat="41.8909483" lon="-7.9697517"><ele>1121.0</ele><time>2026-04-04T14:56:39.822Z</time></trkpt><trkpt lat="41.8908883" lon="-7.96979"><ele>1121.0</ele><time>2026-04-04T14:56:40.823Z</time></trkpt><trkpt lat="41.890825" lon="-7.9698233"><ele>1121.0</ele><time>2026-04-04T14:56:41.823Z</time></trkpt><trkpt lat="41.8907633" lon="-7.9698583"><ele>1121.0</ele><time>2026-04-04T14:56:42.822Z</time></trkpt><trkpt lat="41.8907" lon="-7.969895"><ele>1121.0</ele><time>2026-04-04T14:56:43.823Z</time></trkpt><trkpt lat="41.8905917" lon="-7.9699583"><ele>1124.0</ele><time>2026-04-04T14:56:45.824Z</time></trkpt><trkpt lat="41.8905017" lon="-7.9700483"><ele>1127.0</ele><time>2026-04-04T14:56:47.823Z</time></trkpt><trkpt lat="41.8904567" lon="-7.97012"><ele>1130.0</ele><time>2026-04-04T14:56:48.822Z</time></trkpt><trkpt lat="41.8904133" lon="-7.9702"><ele>1133.0</ele><time>2026-04-04T14:56:49.823Z</time></trkpt><trkpt lat="41.890375" lon="-7.9702767"><ele>1136.0</ele><time>2026-04-04T14:56:50.823Z</time></trkpt><trkpt lat="41.89034" lon="-7.970355"><ele>1139.0</ele><time>2026-04-04T14:56:51.823Z</time></trkpt><trkpt lat="41.8903017" lon="-7.970435"><ele>1139.0</ele><time>2026-04-04T14:56:52.823Z</time></trkpt><trkpt lat="41.8902558" lon="-7.9705206"><ele>1139.0</ele><time>2026-04-04T14:56:53.823Z</time></trkpt><trkpt lat="41.8902026" lon="-7.9706076"><ele>1139.0</ele><time>2026-04-04T14:56:54.823Z</time></trkpt><trkpt lat="41.8901376" lon="-7.970699"><ele>1139.0</ele><time>2026-04-04T14:56:55.824Z</time></trkpt><trkpt lat="41.8900635" lon="-7.9707963"><ele>1139.0</ele><time>2026-04-04T14:56:56.824Z</time></trkpt><trkpt lat="41.8899781" lon="-7.9708992"><ele>1138.6000000000001</ele><time>2026-04-04T14:56:57.822Z</time></trkpt><trkpt lat="41.889891" lon="-7.9710041"><ele>1138.2</ele><time>2026-04-04T14:56:58.823Z</time></trkpt><trkpt lat="41.8898073" lon="-7.9710984"><ele>1137.8000000000002</ele><time>2026-04-04T14:56:59.823Z</time></trkpt><trkpt lat="41.8897196" lon="-7.9711819"><ele>1137.4</ele><time>2026-04-04T14:57:00.823Z</time></trkpt><trkpt lat="41.8896246" lon="-7.9712628"><ele>1137.0</ele><time>2026-04-04T14:57:01.823Z</time></trkpt><trkpt lat="41.8895141" lon="-7.9713587"><ele>1137.0</ele><time>2026-04-04T14:57:02.823Z</time></trkpt><trkpt lat="41.8894111" lon="-7.9714422"><ele>1137.0</ele><time>2026-04-04T14:57:03.823Z</time></trkpt><trkpt lat="41.889326" lon="-7.9715204"><ele>1137.0</ele><time>2026-04-04T14:57:04.824Z</time></trkpt><trkpt lat="41.8892605" lon="-7.9715903"><ele>1137.0</ele><time>2026-04-04T14:57:05.822Z</time></trkpt><trkpt lat="41.8892111" lon="-7.9716522"><ele>1137.0</ele><time>2026-04-04T14:57:06.823Z</time></trkpt><trkpt lat="41.8891616" lon="-7.9717555"><ele>1135.0</ele><time>2026-04-04T14:57:08.823Z</time></trkpt><trkpt lat="41.8891264" lon="-7.9718659"><ele>1133.0</ele><time>2026-04-04T14:57:11.823Z</time></trkpt><trkpt lat="41.8890978" lon="-7.9719499"><ele>1131.0</ele><time>2026-04-04T14:57:14.823Z</time></trkpt><trkpt lat="41.8890957" lon="-7.9720552"><ele>1129.0</ele><time>2026-04-04T14:57:17.823Z</time></trkpt><trkpt lat="41.8891291" lon="-7.9721582"><ele>1127.0</ele><time>2026-04-04T14:57:19.824Z</time></trkpt><trkpt lat="41.8891991" lon="-7.972291"><ele>1125.0</ele><time>2026-04-04T14:57:21.822Z</time></trkpt><trkpt lat="41.8892549" lon="-7.9724061"><ele>1124.8</ele><time>2026-04-04T14:57:23.824Z</time></trkpt><trkpt lat="41.8893389" lon="-7.9725481"><ele>1124.6</ele><time>2026-04-04T14:57:25.823Z</time></trkpt><trkpt lat="41.8893766" lon="-7.9726303"><ele>1124.4</ele><time>2026-04-04T14:57:26.823Z</time></trkpt><trkpt lat="41.8894066" lon="-7.9727102"><ele>1124.2</ele><time>2026-04-04T14:57:27.822Z</time></trkpt><trkpt lat="41.8894447" lon="-7.9728628"><ele>1124.0</ele><time>2026-04-04T14:57:29.823Z</time></trkpt><trkpt lat="41.8894309" lon="-7.9730347"><ele>1124.0</ele><time>2026-04-04T14:57:31.823Z</time></trkpt><trkpt lat="41.8894221" lon="-7.9731229"><ele>1124.0</ele><time>2026-04-04T14:57:32.823Z</time></trkpt><trkpt lat="41.8894363" lon="-7.9732788"><ele>1124.0</ele><time>2026-04-04T14:57:34.823Z</time></trkpt><trkpt lat="41.8895021" lon="-7.9734201"><ele>1124.0</ele><time>2026-04-04T14:57:36.822Z</time></trkpt><trkpt lat="41.8896" lon="-7.9735167"><ele>1124.0</ele><time>2026-04-04T14:57:38.822Z</time></trkpt><trkpt lat="41.8896683" lon="-7.9735583"><ele>1122.6000000000001</ele><time>2026-04-04T14:57:39.822Z</time></trkpt><trkpt lat="41.8897517" lon="-7.9736067"><ele>1121.2</ele><time>2026-04-04T14:57:40.823Z</time></trkpt><trkpt lat="41.889845" lon="-7.9736633"><ele>1119.8000000000002</ele><time>2026-04-04T14:57:41.823Z</time></trkpt><trkpt lat="41.8899367" lon="-7.9737217"><ele>1118.4</ele><time>2026-04-04T14:57:42.822Z</time></trkpt><trkpt lat="41.890015" lon="-7.973785"><ele>1117.0</ele><time>2026-04-04T14:57:43.823Z</time></trkpt><trkpt lat="41.89008" lon="-7.973845"><ele>1118.4</ele><time>2026-04-04T14:57:44.823Z</time></trkpt><trkpt lat="41.8901467" lon="-7.9739533"><ele>1119.8000000000002</ele><time>2026-04-04T14:57:46.823Z</time></trkpt><trkpt lat="41.8901383" lon="-7.9740783"><ele>1121.2</ele><time>2026-04-04T14:57:55.823Z</time></trkpt><trkpt lat="41.8901133" lon="-7.9741617"><ele>1122.6000000000001</ele><time>2026-04-04T14:57:57.823Z</time></trkpt><trkpt lat="41.8900933" lon="-7.9743067"><ele>1124.0</ele><time>2026-04-04T14:57:59.823Z</time></trkpt><trkpt lat="41.8900917" lon="-7.9744183"><ele>1124.0</ele><time>2026-04-04T14:58:00.823Z</time></trkpt><trkpt lat="41.8900867" lon="-7.9745683"><ele>1124.0</ele><time>2026-04-04T14:58:01.823Z</time></trkpt><trkpt lat="41.8900867" lon="-7.97469"><ele>1124.0</ele><time>2026-04-04T14:58:02.823Z</time></trkpt><trkpt lat="41.890085" lon="-7.9748067"><ele>1124.0</ele><time>2026-04-04T14:58:03.823Z</time></trkpt><trkpt lat="41.8900967" lon="-7.9749067"><ele>1124.0</ele><time>2026-04-04T14:58:04.823Z</time></trkpt><trkpt lat="41.8901217" lon="-7.9749967"><ele>1124.0</ele><time>2026-04-04T14:58:05.823Z</time></trkpt><trkpt lat="41.890145" lon="-7.975095"><ele>1123.0</ele><time>2026-04-04T14:58:06.824Z</time></trkpt><trkpt lat="41.8901667" lon="-7.975195"><ele>1122.0</ele><time>2026-04-04T14:58:07.823Z</time></trkpt><trkpt lat="41.8901817" lon="-7.9752967"><ele>1121.0</ele><time>2026-04-04T14:58:08.823Z</time></trkpt><trkpt lat="41.890185" lon="-7.975395"><ele>1120.0</ele><time>2026-04-04T14:58:09.822Z</time></trkpt><trkpt lat="41.8901833" lon="-7.97549"><ele>1119.0</ele><time>2026-04-04T14:58:10.824Z</time></trkpt><trkpt lat="41.8901767" lon="-7.9756567"><ele>1118.0</ele><time>2026-04-04T14:58:12.824Z</time></trkpt><trkpt lat="41.890185" lon="-7.9757867"><ele>1116.3333333333335</ele><time>2026-04-04T14:58:14.825Z</time></trkpt><trkpt lat="41.89021" lon="-7.9759233"><ele>1114.6666666666667</ele><time>2026-04-04T14:58:16.823Z</time></trkpt><trkpt lat="41.8902283" lon="-7.9760117"><ele>1113.0</ele><time>2026-04-04T14:58:17.823Z</time></trkpt><trkpt lat="41.8902483" lon="-7.9761"><ele>1111.3333333333333</ele><time>2026-04-04T14:58:18.824Z</time></trkpt><trkpt lat="41.890255" lon="-7.9761883"><ele>1109.6666666666665</ele><time>2026-04-04T14:58:19.823Z</time></trkpt><trkpt lat="41.89023" lon="-7.9763433"><ele>1108.0</ele><time>2026-04-04T14:58:21.823Z</time></trkpt><trkpt lat="41.890185" lon="-7.976475"><ele>1108.0</ele><time>2026-04-04T14:58:23.823Z</time></trkpt><trkpt lat="41.8901733" lon="-7.9765817"><ele>1108.0</ele><time>2026-04-04T14:58:25.824Z</time></trkpt><trkpt lat="41.8901717" lon="-7.9766917"><ele>1108.0</ele><time>2026-04-04T14:58:28.823Z</time></trkpt><trkpt lat="41.8902117" lon="-7.976765"><ele>1108.0</ele><time>2026-04-04T14:58:30.824Z</time></trkpt><trkpt lat="41.890305" lon="-7.9768033"><ele>1108.0</ele><time>2026-04-04T14:58:32.825Z</time></trkpt><trkpt lat="41.89039" lon="-7.9768583"><ele>1108.0</ele><time>2026-04-04T14:58:34.823Z</time></trkpt><trkpt lat="41.8904883" lon="-7.9769017"><ele>1105.0</ele><time>2026-04-04T14:58:36.823Z</time></trkpt><trkpt lat="41.890595" lon="-7.9769667"><ele>1102.0</ele><time>2026-04-04T14:58:38.824Z</time></trkpt><trkpt lat="41.890695" lon="-7.9770433"><ele>1099.0</ele><time>2026-04-04T14:58:40.823Z</time></trkpt><trkpt lat="41.8907817" lon="-7.9770917"><ele>1096.0</ele><time>2026-04-04T14:58:42.823Z</time></trkpt><trkpt lat="41.8909017" lon="-7.9771383"><ele>1095.8</ele><time>2026-04-04T14:58:44.824Z</time></trkpt><trkpt lat="41.8910233" lon="-7.9771617"><ele>1095.6</ele><time>2026-04-04T14:58:46.823Z</time></trkpt><trkpt lat="41.8911217" lon="-7.9771883"><ele>1095.4</ele><time>2026-04-04T14:58:48.823Z</time></trkpt><trkpt lat="41.89119" lon="-7.97728"><ele>1095.2</ele><time>2026-04-04T14:58:50.823Z</time></trkpt><trkpt lat="41.8912767" lon="-7.9773767"><ele>1095.0</ele><time>2026-04-04T14:58:52.823Z</time></trkpt><trkpt lat="41.8913767" lon="-7.9774517"><ele>1095.0</ele><time>2026-04-04T14:58:54.823Z</time></trkpt><trkpt lat="41.891475" lon="-7.9775067"><ele>1095.0</ele><time>2026-04-04T14:58:56.824Z</time></trkpt><trkpt lat="41.8915483" lon="-7.9775583"><ele>1095.0</ele><time>2026-04-04T14:58:58.823Z</time></trkpt><trkpt lat="41.89161" lon="-7.9776317"><ele>1095.0</ele><time>2026-04-04T14:59:01.824Z</time></trkpt><trkpt lat="41.8916733" lon="-7.977635"><ele>1095.0</ele><time>2026-04-04T14:59:03.823Z</time></trkpt><trkpt lat="41.891785" lon="-7.9776483"><ele>1095.0</ele><time>2026-04-04T14:59:05.822Z</time></trkpt><trkpt lat="41.891855" lon="-7.9776567"><ele>1092.8</ele><time>2026-04-04T14:59:06.823Z</time></trkpt><trkpt lat="41.8919217" lon="-7.97766"><ele>1090.6</ele><time>2026-04-04T14:59:07.824Z</time></trkpt><trkpt lat="41.8920317" lon="-7.9776483"><ele>1088.4</ele><time>2026-04-04T14:59:09.823Z</time></trkpt><trkpt lat="41.8921433" lon="-7.9776067"><ele>1086.2</ele><time>2026-04-04T14:59:11.824Z</time></trkpt><trkpt lat="41.8922333" lon="-7.9775667"><ele>1084.0</ele><time>2026-04-04T14:59:13.824Z</time></trkpt><trkpt lat="41.8923167" lon="-7.9775533"><ele>1084.0</ele><time>2026-04-04T14:59:15.824Z</time></trkpt><trkpt lat="41.8923867" lon="-7.9775583"><ele>1084.0</ele><time>2026-04-04T14:59:17.825Z</time></trkpt><trkpt lat="41.89246" lon="-7.9775583"><ele>1084.0</ele><time>2026-04-04T14:59:19.822Z</time></trkpt><trkpt lat="41.8925467" lon="-7.9775883"><ele>1084.0</ele><time>2026-04-04T14:59:21.823Z</time></trkpt><trkpt lat="41.8926617" lon="-7.9775717"><ele>1084.0</ele><time>2026-04-04T15:00:46.822Z</time></trkpt><trkpt lat="41.8927317" lon="-7.9775567"><ele>1084.0</ele><time>2026-04-04T15:00:48.823Z</time></trkpt><trkpt lat="41.8928033" lon="-7.977575"><ele>1080.1666666666665</ele><time>2026-04-04T15:00:51.823Z</time></trkpt><trkpt lat="41.8928717" lon="-7.977615"><ele>1076.3333333333333</ele><time>2026-04-04T15:00:54.823Z</time></trkpt><trkpt lat="41.89294" lon="-7.9776217"><ele>1072.5</ele><time>2026-04-04T15:00:57.823Z</time></trkpt><trkpt lat="41.8930167" lon="-7.9776033"><ele>1068.6666666666667</ele><time>2026-04-04T15:01:00.822Z</time></trkpt><trkpt lat="41.8931217" lon="-7.9775467"><ele>1064.8333333333335</ele><time>2026-04-04T15:02:43.823Z</time></trkpt><trkpt lat="41.8931967" lon="-7.97754"><ele>1061.0</ele><time>2026-04-04T15:02:46.823Z</time></trkpt><trkpt lat="41.8932717" lon="-7.9775433"><ele>1061.0</ele><time>2026-04-04T15:02:48.823Z</time></trkpt><trkpt lat="41.8933433" lon="-7.97753"><ele>1061.0</ele><time>2026-04-04T15:02:50.824Z</time></trkpt><trkpt lat="41.893415" lon="-7.9775033"><ele>1061.0</ele><time>2026-04-04T15:02:53.824Z</time></trkpt><trkpt lat="41.8934817" lon="-7.9774817"><ele>1061.0</ele><time>2026-04-04T15:02:56.824Z</time></trkpt><trkpt lat="41.8935583" lon="-7.977465"><ele>1061.0</ele><time>2026-04-04T15:02:59.824Z</time></trkpt><trkpt lat="41.8936483" lon="-7.977455"><ele>1061.0</ele><time>2026-04-04T15:03:02.824Z</time></trkpt><trkpt lat="41.8937317" lon="-7.977455"><ele>1060.5</ele><time>2026-04-04T15:03:05.825Z</time></trkpt><trkpt lat="41.8938017" lon="-7.9774483"><ele>1060.0</ele><time>2026-04-04T15:03:07.823Z</time></trkpt><trkpt lat="41.8938883" lon="-7.9774367"><ele>1059.5</ele><time>2026-04-04T15:03:10.825Z</time></trkpt><trkpt lat="41.893975" lon="-7.977435"><ele>1059.0</ele><time>2026-04-04T15:03:13.823Z</time></trkpt><trkpt lat="41.8940483" lon="-7.9774317"><ele>1058.5</ele><time>2026-04-04T15:03:16.822Z</time></trkpt><trkpt lat="41.8941233" lon="-7.9774167"><ele>1058.0</ele><time>2026-04-04T15:03:20.823Z</time></trkpt><trkpt lat="41.8941983" lon="-7.9773983"><ele>1057.142857142857</ele><time>2026-04-04T15:03:25.822Z</time></trkpt><trkpt lat="41.8942617" lon="-7.9774133"><ele>1056.2857142857142</ele><time>2026-04-04T15:03:27.822Z</time></trkpt><trkpt lat="41.894335" lon="-7.9774233"><ele>1055.4285714285713</ele><time>2026-04-04T15:03:29.823Z</time></trkpt><trkpt lat="41.8943983" lon="-7.9774167"><ele>1054.5714285714284</ele><time>2026-04-04T15:03:31.824Z</time></trkpt><trkpt lat="41.8944867" lon="-7.9773817"><ele>1053.7142857142856</ele><time>2026-04-04T15:03:34.822Z</time></trkpt><trkpt lat="41.8945517" lon="-7.97737"><ele>1052.857142857143</ele><time>2026-04-04T15:03:36.822Z</time></trkpt><trkpt lat="41.8946383" lon="-7.9773867"><ele>1052.0</ele><time>2026-04-04T15:03:39.823Z</time></trkpt><trkpt lat="41.8947167" lon="-7.9774233"><ele>1052.0</ele><time>2026-04-04T15:03:42.823Z</time></trkpt><trkpt lat="41.894765" lon="-7.977485"><ele>1052.0</ele><time>2026-04-04T15:03:45.823Z</time></trkpt><trkpt lat="41.8948033" lon="-7.9775683"><ele>1052.0</ele><time>2026-04-04T15:03:48.823Z</time></trkpt><trkpt lat="41.8948433" lon="-7.977645"><ele>1052.0</ele><time>2026-04-04T15:03:50.824Z</time></trkpt><trkpt lat="41.8948967" lon="-7.9777267"><ele>1052.0</ele><time>2026-04-04T15:03:52.823Z</time></trkpt><trkpt lat="41.8949733" lon="-7.977795"><ele>1052.0</ele><time>2026-04-04T15:03:54.823Z</time></trkpt><trkpt lat="41.895055" lon="-7.9778283"><ele>1047.1666666666667</ele><time>2026-04-04T15:03:56.823Z</time></trkpt><trkpt lat="41.8951383" lon="-7.9778183"><ele>1042.3333333333335</ele><time>2026-04-04T15:03:58.824Z</time></trkpt><trkpt lat="41.8952183" lon="-7.97777"><ele>1037.5</ele><time>2026-04-04T15:04:00.823Z</time></trkpt><trkpt lat="41.8952967" lon="-7.9777217"><ele>1032.6666666666667</ele><time>2026-04-04T15:04:02.823Z</time></trkpt><trkpt lat="41.8953683" lon="-7.9777117"><ele>1027.8333333333333</ele><time>2026-04-04T15:04:04.823Z</time></trkpt><trkpt lat="41.89544" lon="-7.9777283"><ele>1023.0</ele><time>2026-04-04T15:04:06.824Z</time></trkpt><trkpt lat="41.8955133" lon="-7.9777833"><ele>1023.0</ele><time>2026-04-04T15:04:08.825Z</time></trkpt><trkpt lat="41.8955517" lon="-7.9778517"><ele>1023.0</ele><time>2026-04-04T15:04:10.823Z</time></trkpt><trkpt lat="41.8955167" lon="-7.9779383"><ele>1023.0</ele><time>2026-04-04T15:04:13.824Z</time></trkpt><trkpt lat="41.89544" lon="-7.9780067"><ele>1023.0</ele><time>2026-04-04T15:04:15.824Z</time></trkpt><trkpt lat="41.89534" lon="-7.9780733"><ele>1023.0</ele><time>2026-04-04T15:04:17.823Z</time></trkpt><trkpt lat="41.8952767" lon="-7.9781517"><ele>1023.0</ele><time>2026-04-04T15:04:19.823Z</time></trkpt><trkpt lat="41.89526" lon="-7.9782517"><ele>1023.0</ele><time>2026-04-04T15:04:21.822Z</time></trkpt><trkpt lat="41.8952467" lon="-7.9783433"><ele>1023.0</ele><time>2026-04-04T15:04:23.824Z</time></trkpt><trkpt lat="41.8952333" lon="-7.9784267"><ele>1023.0</ele><time>2026-04-04T15:04:25.823Z</time></trkpt><trkpt lat="41.8952467" lon="-7.9785167"><ele>1023.0</ele><time>2026-04-04T15:04:27.824Z</time></trkpt><trkpt lat="41.895255" lon="-7.978615"><ele>1023.0</ele><time>2026-04-04T15:04:29.823Z</time></trkpt><trkpt lat="41.8952633" lon="-7.9787167"><ele>1023.0</ele><time>2026-04-04T15:04:31.823Z</time></trkpt><trkpt lat="41.8952683" lon="-7.97884"><ele>1023.0</ele><time>2026-04-04T15:04:33.823Z</time></trkpt><trkpt lat="41.895265" lon="-7.9790083"><ele>1021.8333333333334</ele><time>2026-04-04T15:04:35.823Z</time></trkpt><trkpt lat="41.895275" lon="-7.979095"><ele>1020.6666666666667</ele><time>2026-04-04T15:04:36.824Z</time></trkpt><trkpt lat="41.8953083" lon="-7.9792367"><ele>1019.5</ele><time>2026-04-04T15:04:38.824Z</time></trkpt><trkpt lat="41.8953717" lon="-7.9793017"><ele>1018.3333333333334</ele><time>2026-04-04T15:04:41.823Z</time></trkpt><trkpt lat="41.8954333" lon="-7.9792483"><ele>1017.1666666666667</ele><time>2026-04-04T15:04:43.823Z</time></trkpt><trkpt lat="41.8955017" lon="-7.9791717"><ele>1016.0</ele><time>2026-04-04T15:04:45.826Z</time></trkpt><trkpt lat="41.8955633" lon="-7.9790633"><ele>1015.1999999999999</ele><time>2026-04-04T15:04:47.824Z</time></trkpt><trkpt lat="41.8956133" lon="-7.9789517"><ele>1014.3999999999999</ele><time>2026-04-04T15:04:49.823Z</time></trkpt><trkpt lat="41.8956867" lon="-7.9788483"><ele>1013.6</ele><time>2026-04-04T15:04:51.823Z</time></trkpt><trkpt lat="41.8957667" lon="-7.9788083"><ele>1012.8</ele><time>2026-04-04T15:04:53.823Z</time></trkpt><trkpt lat="41.895855" lon="-7.9788267"><ele>1012.0</ele><time>2026-04-04T15:04:55.823Z</time></trkpt><trkpt lat="41.8959367" lon="-7.9788817"><ele>1011.6</ele><time>2026-04-04T15:04:57.823Z</time></trkpt><trkpt lat="41.896025" lon="-7.97894"><ele>1011.2</ele><time>2026-04-04T15:04:59.824Z</time></trkpt><trkpt lat="41.8961267" lon="-7.979015"><ele>1010.8</ele><time>2026-04-04T15:05:01.823Z</time></trkpt><trkpt lat="41.8962333" lon="-7.9791"><ele>1010.4</ele><time>2026-04-04T15:05:03.824Z</time></trkpt><trkpt lat="41.8962867" lon="-7.9791483"><ele>1010.0</ele><time>2026-04-04T15:05:04.823Z</time></trkpt><trkpt lat="41.8963717" lon="-7.97923"><ele>1010.0000000000001</ele><time>2026-04-04T15:05:06.824Z</time></trkpt><trkpt lat="41.89642" lon="-7.9793317"><ele>1010.0</ele><time>2026-04-04T15:05:08.824Z</time></trkpt><trkpt lat="41.896435" lon="-7.9794467"><ele>1010.0</ele><time>2026-04-04T15:05:10.824Z</time></trkpt><trkpt lat="41.8964633" lon="-7.9795567"><ele>1010.0</ele><time>2026-04-04T15:05:12.824Z</time></trkpt><trkpt lat="41.89652" lon="-7.97963"><ele>1010.0000000000001</ele><time>2026-04-04T15:05:14.824Z</time></trkpt><trkpt lat="41.8965917" lon="-7.9796767"><ele>1010.0</ele><time>2026-04-04T15:05:16.823Z</time></trkpt><trkpt lat="41.8966717" lon="-7.979685"><ele>1010.0</ele><time>2026-04-04T15:05:18.823Z</time></trkpt><trkpt lat="41.8967767" lon="-7.9796817"><ele>1010.0</ele><time>2026-04-04T15:05:20.824Z</time></trkpt><trkpt lat="41.8968933" lon="-7.9797017"><ele>1010.0</ele><time>2026-04-04T15:05:22.823Z</time></trkpt><trkpt lat="41.897" lon="-7.9797517"><ele>1010.0</ele><time>2026-04-04T15:05:24.823Z</time></trkpt><trkpt lat="41.8970933" lon="-7.97981"><ele>1010.0</ele><time>2026-04-04T15:05:26.823Z</time></trkpt><trkpt lat="41.8972083" lon="-7.9798483"><ele>1010.0</ele><time>2026-04-04T15:05:28.823Z</time></trkpt><trkpt lat="41.89733" lon="-7.9798783"><ele>1010.0</ele><time>2026-04-04T15:05:30.824Z</time></trkpt><trkpt lat="41.8973933" lon="-7.979895"><ele>1010.0</ele><time>2026-04-04T15:05:31.823Z</time></trkpt><trkpt lat="41.89751" lon="-7.979915"><ele>1010.0</ele><time>2026-04-04T15:05:33.823Z</time></trkpt><trkpt lat="41.8975733" lon="-7.9799183"><ele>1010.0</ele><time>2026-04-04T15:05:34.824Z</time></trkpt><trkpt lat="41.89769" lon="-7.9799267"><ele>1010.1666666666667</ele><time>2026-04-04T15:05:36.824Z</time></trkpt><trkpt lat="41.897805" lon="-7.9799333"><ele>1010.3333333333334</ele><time>2026-04-04T15:05:38.824Z</time></trkpt><trkpt lat="41.8978767" lon="-7.979935"><ele>1010.5</ele><time>2026-04-04T15:05:39.824Z</time></trkpt><trkpt lat="41.8979433" lon="-7.9799333"><ele>1010.6666666666667</ele><time>2026-04-04T15:05:40.823Z</time></trkpt><trkpt lat="41.89801" lon="-7.979935"><ele>1010.8333333333334</ele><time>2026-04-04T15:05:41.823Z</time></trkpt><trkpt lat="41.89811" lon="-7.979935"><ele>1011.0</ele><time>2026-04-04T15:05:43.824Z</time></trkpt><trkpt lat="41.8981983" lon="-7.979945"><ele>1011.0</ele><time>2026-04-04T15:05:45.823Z</time></trkpt><trkpt lat="41.8982983" lon="-7.979955"><ele>1010.9999999999999</ele><time>2026-04-04T15:05:47.823Z</time></trkpt><trkpt lat="41.8983983" lon="-7.9799917"><ele>1010.9999999999999</ele><time>2026-04-04T15:05:49.823Z</time></trkpt><trkpt lat="41.8985017" lon="-7.9800617"><ele>1011.0</ele><time>2026-04-04T15:05:51.823Z</time></trkpt><trkpt lat="41.8985983" lon="-7.9801133"><ele>1011.0</ele><time>2026-04-04T15:05:53.823Z</time></trkpt><trkpt lat="41.89869" lon="-7.9801883"><ele>1011.0</ele><time>2026-04-04T15:05:55.823Z</time></trkpt><trkpt lat="41.8987717" lon="-7.9803"><ele>1010.9999999999999</ele><time>2026-04-04T15:05:57.823Z</time></trkpt><trkpt lat="41.8988417" lon="-7.9804317"><ele>1010.9999999999999</ele><time>2026-04-04T15:05:59.823Z</time></trkpt><trkpt lat="41.8989067" lon="-7.980535"><ele>1011.0</ele><time>2026-04-04T15:06:01.824Z</time></trkpt><trkpt lat="41.8989533" lon="-7.980615"><ele>1011.0</ele><time>2026-04-04T15:06:03.822Z</time></trkpt><trkpt lat="41.8989917" lon="-7.9806833"><ele>1011.0</ele><time>2026-04-04T15:06:05.824Z</time></trkpt><trkpt lat="41.899045" lon="-7.9807567"><ele>1011.0</ele><time>2026-04-04T15:06:08.824Z</time></trkpt><trkpt lat="41.8991117" lon="-7.9808417"><ele>1011.0</ele><time>2026-04-04T15:06:11.823Z</time></trkpt><trkpt lat="41.8991733" lon="-7.98092"><ele>1011.0</ele><time>2026-04-04T15:06:14.824Z</time></trkpt><trkpt lat="41.8991117" lon="-7.98089"><ele>1011.0</ele><time>2026-04-04T15:06:21.823Z</time></trkpt><trkpt lat="41.8990317" lon="-7.9807983"><ele>1011.0</ele><time>2026-04-04T15:06:23.824Z</time></trkpt><trkpt lat="41.8989483" lon="-7.9807083"><ele>1011.0</ele><time>2026-04-04T15:06:25.823Z</time></trkpt><trkpt lat="41.8988983" lon="-7.980645"><ele>1011.0</ele><time>2026-04-04T15:06:27.823Z</time></trkpt><trkpt lat="41.898985" lon="-7.9806733"><ele>1011.0</ele><time>2026-04-04T15:06:37.822Z</time></trkpt><trkpt lat="41.8990417" lon="-7.980725"><ele>1011.0</ele><time>2026-04-04T15:06:39.822Z</time></trkpt><trkpt lat="41.8991017" lon="-7.9807883"><ele>1011.0</ele><time>2026-04-04T15:06:41.823Z</time></trkpt><trkpt lat="41.8991933" lon="-7.98085"><ele>1011.0</ele><time>2026-04-04T15:06:43.822Z</time></trkpt><trkpt lat="41.8992917" lon="-7.9808867"><ele>1012.1999999999999</ele><time>2026-04-04T15:06:45.822Z</time></trkpt><trkpt lat="41.8993833" lon="-7.9809567"><ele>1013.3999999999999</ele><time>2026-04-04T15:06:47.822Z</time></trkpt><trkpt lat="41.8994717" lon="-7.9810533"><ele>1014.6</ele><time>2026-04-04T15:06:49.823Z</time></trkpt><trkpt lat="41.8995567" lon="-7.9811117"><ele>1015.8</ele><time>2026-04-04T15:06:51.822Z</time></trkpt><trkpt lat="41.899625" lon="-7.9811033"><ele>1017.0</ele><time>2026-04-04T15:06:53.822Z</time></trkpt><trkpt lat="41.8997067" lon="-7.9810617"><ele>1017.0</ele><time>2026-04-04T15:06:55.822Z</time></trkpt><trkpt lat="41.899775" lon="-7.9809767"><ele>1017.0</ele><time>2026-04-04T15:06:57.822Z</time></trkpt><trkpt lat="41.8998017" lon="-7.9808883"><ele>1017.0</ele><time>2026-04-04T15:06:59.822Z</time></trkpt><trkpt lat="41.8998067" lon="-7.980795"><ele>1017.0</ele><time>2026-04-04T15:07:01.823Z</time></trkpt><trkpt lat="41.8998433" lon="-7.9806883"><ele>1017.0</ele><time>2026-04-04T15:07:04.822Z</time></trkpt><trkpt lat="41.89984" lon="-7.980775"><ele>1017.0</ele><time>2026-04-04T15:07:36.822Z</time></trkpt><trkpt lat="41.8998367" lon="-7.9808817"><ele>1017.0</ele><time>2026-04-04T15:07:38.823Z</time></trkpt><trkpt lat="41.8997933" lon="-7.9810033"><ele>1017.0</ele><time>2026-04-04T15:07:40.822Z</time></trkpt><trkpt lat="41.89972" lon="-7.9810933"><ele>1017.0</ele><time>2026-04-04T15:07:42.823Z</time></trkpt><trkpt lat="41.8996333" lon="-7.9811283"><ele>1017.0</ele><time>2026-04-04T15:07:44.822Z</time></trkpt><trkpt lat="41.8995667" lon="-7.9811033"><ele>1017.0</ele><time>2026-04-04T15:07:46.825Z</time></trkpt><trkpt lat="41.8994867" lon="-7.9810283"><ele>1017.0</ele><time>2026-04-04T15:07:48.822Z</time></trkpt><trkpt lat="41.8994" lon="-7.9809683"><ele>1017.0</ele><time>2026-04-04T15:07:50.823Z</time></trkpt><trkpt lat="41.8993117" lon="-7.9809267"><ele>1017.0</ele><time>2026-04-04T15:07:52.823Z</time></trkpt><trkpt lat="41.8992283" lon="-7.9808933"><ele>1017.0</ele><time>2026-04-04T15:07:54.822Z</time></trkpt><trkpt lat="41.8991583" lon="-7.9808483"><ele>1017.0</ele><time>2026-04-04T15:07:56.823Z</time></trkpt><trkpt lat="41.8991" lon="-7.98081"><ele>1017.0</ele><time>2026-04-04T15:07:58.823Z</time></trkpt><trkpt lat="41.8990267" lon="-7.9807467"><ele>1016.0</ele><time>2026-04-04T15:08:01.822Z</time></trkpt><trkpt lat="41.8989683" lon="-7.9806867"><ele>1015.0</ele><time>2026-04-04T15:08:03.823Z</time></trkpt><trkpt lat="41.8989083" lon="-7.9806233"><ele>1014.0</ele><time>2026-04-04T15:08:05.823Z</time></trkpt><trkpt lat="41.8988583" lon="-7.9805417"><ele>1013.0</ele><time>2026-04-04T15:08:08.824Z</time></trkpt><trkpt lat="41.8988117" lon="-7.9804567"><ele>1012.0</ele><time>2026-04-04T15:08:11.823Z</time></trkpt><trkpt lat="41.8987667" lon="-7.9803833"><ele>1011.0</ele><time>2026-04-04T15:08:13.822Z</time></trkpt><trkpt lat="41.898715" lon="-7.9802967"><ele>1011.0</ele><time>2026-04-04T15:08:15.822Z</time></trkpt><trkpt lat="41.8986633" lon="-7.9802133"><ele>1011.0</ele><time>2026-04-04T15:08:17.823Z</time></trkpt><trkpt lat="41.8986183" lon="-7.9801383"><ele>1011.0</ele><time>2026-04-04T15:08:19.824Z</time></trkpt><trkpt lat="41.8985983" lon="-7.9800267"><ele>1011.0</ele><time>2026-04-04T15:08:22.822Z</time></trkpt><trkpt lat="41.8986483" lon="-7.9801283"><ele>1011.0</ele><time>2026-04-04T15:08:43.826Z</time></trkpt><trkpt lat="41.898685" lon="-7.9802467"><ele>1011.0</ele><time>2026-04-04T15:08:45.823Z</time></trkpt><trkpt lat="41.8987583" lon="-7.9803817"><ele>1011.0</ele><time>2026-04-04T15:08:47.823Z</time></trkpt><trkpt lat="41.898805" lon="-7.9804617"><ele>1010.9999999999999</ele><time>2026-04-04T15:08:48.823Z</time></trkpt><trkpt lat="41.89885" lon="-7.9805417"><ele>1010.9999999999999</ele><time>2026-04-04T15:08:49.823Z</time></trkpt><trkpt lat="41.898905" lon="-7.9806367"><ele>1011.0</ele><time>2026-04-04T15:08:50.824Z</time></trkpt><trkpt lat="41.8989717" lon="-7.98075"><ele>1011.0</ele><time>2026-04-04T15:08:51.824Z</time></trkpt><trkpt lat="41.8990433" lon="-7.9808567"><ele>1012.1999999999999</ele><time>2026-04-04T15:08:52.824Z</time></trkpt><trkpt lat="41.8991217" lon="-7.9809683"><ele>1013.3999999999999</ele><time>2026-04-04T15:08:53.825Z</time></trkpt><trkpt lat="41.8992" lon="-7.9810733"><ele>1014.6</ele><time>2026-04-04T15:08:54.824Z</time></trkpt><trkpt lat="41.8992733" lon="-7.9811683"><ele>1015.8</ele><time>2026-04-04T15:08:55.823Z</time></trkpt><trkpt lat="41.8993483" lon="-7.981265"><ele>1017.0</ele><time>2026-04-04T15:08:56.826Z</time></trkpt><trkpt lat="41.89942" lon="-7.9813517"><ele>1017.0</ele><time>2026-04-04T15:08:57.823Z</time></trkpt><trkpt lat="41.8994917" lon="-7.9814267"><ele>1017.0</ele><time>2026-04-04T15:08:58.824Z</time></trkpt><trkpt lat="41.899565" lon="-7.9815"><ele>1017.0</ele><time>2026-04-04T15:08:59.823Z</time></trkpt><trkpt lat="41.8996383" lon="-7.9815717"><ele>1017.0</ele><time>2026-04-04T15:09:00.823Z</time></trkpt><trkpt lat="41.8997133" lon="-7.9816267"><ele>1017.0</ele><time>2026-04-04T15:09:01.823Z</time></trkpt><trkpt lat="41.899785" lon="-7.981665"><ele>1017.0</ele><time>2026-04-04T15:09:02.824Z</time></trkpt><trkpt lat="41.899855" lon="-7.9816683"><ele>1017.0</ele><time>2026-04-04T15:09:03.824Z</time></trkpt><trkpt lat="41.899925" lon="-7.98166"><ele>1017.0</ele><time>2026-04-04T15:09:04.823Z</time></trkpt><trkpt lat="41.9000317" lon="-7.98169"><ele>1017.0</ele><time>2026-04-04T15:09:06.824Z</time></trkpt><trkpt lat="41.9000983" lon="-7.981765"><ele>1017.0</ele><time>2026-04-04T15:09:08.824Z</time></trkpt><trkpt lat="41.9001167" lon="-7.98186"><ele>1017.0</ele><time>2026-04-04T15:09:10.823Z</time></trkpt><trkpt lat="41.9000983" lon="-7.98197"><ele>1017.0</ele><time>2026-04-04T15:09:12.823Z</time></trkpt><trkpt lat="41.9000483" lon="-7.982075"><ele>1016.6</ele><time>2026-04-04T15:09:14.823Z</time></trkpt><trkpt lat="41.8999917" lon="-7.9821767"><ele>1016.2</ele><time>2026-04-04T15:09:16.823Z</time></trkpt><trkpt lat="41.8999183" lon="-7.9822667"><ele>1015.8</ele><time>2026-04-04T15:09:18.823Z</time></trkpt><trkpt lat="41.8998167" lon="-7.98232"><ele>1015.4</ele><time>2026-04-04T15:09:20.824Z</time></trkpt><trkpt lat="41.899695" lon="-7.982325"><ele>1015.0</ele><time>2026-04-04T15:09:22.822Z</time></trkpt><trkpt lat="41.8996317" lon="-7.9823017"><ele>1015.0</ele><time>2026-04-04T15:09:23.824Z</time></trkpt><trkpt lat="41.89957" lon="-7.9822667"><ele>1015.0</ele><time>2026-04-04T15:09:24.824Z</time></trkpt><trkpt lat="41.8995033" lon="-7.9822083"><ele>1015.0</ele><time>2026-04-04T15:09:25.824Z</time></trkpt><trkpt lat="41.899435" lon="-7.9821617"><ele>1015.0</ele><time>2026-04-04T15:09:26.823Z</time></trkpt><trkpt lat="41.8993667" lon="-7.9821367"><ele>1015.0</ele><time>2026-04-04T15:09:27.823Z</time></trkpt><trkpt lat="41.89929" lon="-7.9821417"><ele>1015.0</ele><time>2026-04-04T15:09:28.825Z</time></trkpt><trkpt lat="41.8992217" lon="-7.9821633"><ele>1015.0</ele><time>2026-04-04T15:09:29.827Z</time></trkpt><trkpt lat="41.899155" lon="-7.9822833"><ele>1016.6666666666666</ele><time>2026-04-04T15:09:31.824Z</time></trkpt><trkpt lat="41.8991333" lon="-7.9823867"><ele>1018.3333333333333</ele><time>2026-04-04T15:09:32.824Z</time></trkpt><trkpt lat="41.8991167" lon="-7.982515"><ele>1020.0</ele><time>2026-04-04T15:09:33.823Z</time></trkpt><trkpt lat="41.8990967" lon="-7.9826383"><ele>1021.6666666666667</ele><time>2026-04-04T15:09:34.824Z</time></trkpt><trkpt lat="41.8990667" lon="-7.98275"><ele>1023.3333333333334</ele><time>2026-04-04T15:09:35.824Z</time></trkpt><trkpt lat="41.8990233" lon="-7.982855"><ele>1025.0</ele><time>2026-04-04T15:09:36.823Z</time></trkpt><trkpt lat="41.898965" lon="-7.9829517"><ele>1025.0</ele><time>2026-04-04T15:09:37.823Z</time></trkpt><trkpt lat="41.8988833" lon="-7.983055"><ele>1025.0</ele><time>2026-04-04T15:09:38.825Z</time></trkpt><trkpt lat="41.89879" lon="-7.98316"><ele>1025.0</ele><time>2026-04-04T15:09:39.823Z</time></trkpt><trkpt lat="41.898705" lon="-7.9832667"><ele>1025.0</ele><time>2026-04-04T15:09:40.824Z</time></trkpt><trkpt lat="41.89863" lon="-7.9833767"><ele>1024.5</ele><time>2026-04-04T15:09:41.824Z</time></trkpt><trkpt lat="41.8985683" lon="-7.983485"><ele>1024.0</ele><time>2026-04-04T15:09:42.823Z</time></trkpt><trkpt lat="41.898515" lon="-7.9835867"><ele>1023.5</ele><time>2026-04-04T15:09:43.824Z</time></trkpt><trkpt lat="41.8984633" lon="-7.9836683"><ele>1023.0</ele><time>2026-04-04T15:09:44.824Z</time></trkpt><trkpt lat="41.898415" lon="-7.9837283"><ele>1022.5000000000001</ele><time>2026-04-04T15:09:45.824Z</time></trkpt><trkpt lat="41.898365" lon="-7.98378"><ele>1022.0</ele><time>2026-04-04T15:09:46.823Z</time></trkpt><trkpt lat="41.898285" lon="-7.9838033"><ele>1030.0</ele><time>2026-04-04T15:09:48.822Z</time></trkpt><trkpt lat="41.8982683" lon="-7.983655"><ele>1038.0</ele><time>2026-04-04T15:09:50.823Z</time></trkpt><trkpt lat="41.89828" lon="-7.983495"><ele>1046.0</ele><time>2026-04-04T15:09:51.823Z</time></trkpt><trkpt lat="41.8982883" lon="-7.9833183"><ele>1054.0</ele><time>2026-04-04T15:09:52.822Z</time></trkpt><trkpt lat="41.8982933" lon="-7.98316"><ele>1054.0</ele><time>2026-04-04T15:09:53.823Z</time></trkpt><trkpt lat="41.898305" lon="-7.9829767"><ele>1054.0</ele><time>2026-04-04T15:09:54.823Z</time></trkpt><trkpt lat="41.8983233" lon="-7.9827817"><ele>1054.0</ele><time>2026-04-04T15:09:55.824Z</time></trkpt><trkpt lat="41.8983417" lon="-7.9826033"><ele>1054.0</ele><time>2026-04-04T15:09:56.823Z</time></trkpt><trkpt lat="41.8983483" lon="-7.9824517"><ele>1055.0</ele><time>2026-04-04T15:09:57.822Z</time></trkpt><trkpt lat="41.898345" lon="-7.9823133"><ele>1056.0</ele><time>2026-04-04T15:09:58.823Z</time></trkpt><trkpt lat="41.8983267" lon="-7.982185"><ele>1057.0</ele><time>2026-04-04T15:09:59.823Z</time></trkpt><trkpt lat="41.8982883" lon="-7.9820783"><ele>1058.0</ele><time>2026-04-04T15:10:00.824Z</time></trkpt><trkpt lat="41.8982383" lon="-7.9819917"><ele>1059.0</ele><time>2026-04-04T15:10:01.823Z</time></trkpt><trkpt lat="41.8981733" lon="-7.9819267"><ele>1059.0</ele><time>2026-04-04T15:10:02.823Z</time></trkpt><trkpt lat="41.8980883" lon="-7.9818733"><ele>1059.0</ele><time>2026-04-04T15:10:03.823Z</time></trkpt><trkpt lat="41.8979967" lon="-7.9818133"><ele>1059.0</ele><time>2026-04-04T15:10:04.823Z</time></trkpt><trkpt lat="41.8979167" lon="-7.98176"><ele>1059.0</ele><time>2026-04-04T15:10:05.822Z</time></trkpt><trkpt lat="41.8978417" lon="-7.9817267"><ele>1059.0</ele><time>2026-04-04T15:10:06.822Z</time></trkpt><trkpt lat="41.8977783" lon="-7.9817117"><ele>1059.0</ele><time>2026-04-04T15:10:07.824Z</time></trkpt><trkpt lat="41.8976917" lon="-7.9817417"><ele>1059.0</ele><time>2026-04-04T15:10:09.822Z</time></trkpt><trkpt lat="41.8977067" lon="-7.98186"><ele>1059.0</ele><time>2026-04-04T15:10:11.822Z</time></trkpt><trkpt lat="41.8977667" lon="-7.982015"><ele>1059.0</ele><time>2026-04-04T15:10:13.823Z</time></trkpt><trkpt lat="41.8977917" lon="-7.9821117"><ele>1059.0</ele><time>2026-04-04T15:10:14.823Z</time></trkpt><trkpt lat="41.897805" lon="-7.982205"><ele>1059.0</ele><time>2026-04-04T15:10:15.823Z</time></trkpt><trkpt lat="41.8978033" lon="-7.9823417"><ele>1059.0</ele><time>2026-04-04T15:10:17.822Z</time></trkpt><trkpt lat="41.8977283" lon="-7.982395"><ele>1059.0</ele><time>2026-04-04T15:10:19.824Z</time></trkpt><trkpt lat="41.897615" lon="-7.9824133"><ele>1059.0</ele><time>2026-04-04T15:10:21.823Z</time></trkpt><trkpt lat="41.8974733" lon="-7.9824417"><ele>1059.0</ele><time>2026-04-04T15:10:23.824Z</time></trkpt><trkpt lat="41.897385" lon="-7.9824517"><ele>1059.0</ele><time>2026-04-04T15:10:24.823Z</time></trkpt><trkpt lat="41.8972867" lon="-7.98245"><ele>1063.0</ele><time>2026-04-04T15:10:25.824Z</time></trkpt><trkpt lat="41.8971817" lon="-7.9824433"><ele>1067.0</ele><time>2026-04-04T15:10:26.824Z</time></trkpt><trkpt lat="41.8970867" lon="-7.9824333"><ele>1071.0</ele><time>2026-04-04T15:10:27.823Z</time></trkpt><trkpt lat="41.8969983" lon="-7.9824267"><ele>1075.0</ele><time>2026-04-04T15:10:28.822Z</time></trkpt><trkpt lat="41.896925" lon="-7.9824317"><ele>1079.0</ele><time>2026-04-04T15:10:29.825Z</time></trkpt><trkpt lat="41.8968533" lon="-7.98245"><ele>1083.0</ele><time>2026-04-04T15:10:30.823Z</time></trkpt><trkpt lat="41.896785" lon="-7.9824883"><ele>1085.3333333333333</ele><time>2026-04-04T15:10:31.823Z</time></trkpt><trkpt lat="41.896715" lon="-7.98254"><ele>1087.6666666666667</ele><time>2026-04-04T15:10:32.826Z</time></trkpt><trkpt lat="41.8966467" lon="-7.982595"><ele>1090.0</ele><time>2026-04-04T15:10:33.822Z</time></trkpt><trkpt lat="41.896575" lon="-7.982655"><ele>1092.3333333333335</ele><time>2026-04-04T15:10:34.823Z</time></trkpt><trkpt lat="41.8965117" lon="-7.9827133"><ele>1094.6666666666667</ele><time>2026-04-04T15:10:35.823Z</time></trkpt><trkpt lat="41.896425" lon="-7.98281"><ele>1097.0</ele><time>2026-04-04T15:10:37.823Z</time></trkpt><trkpt lat="41.8963683" lon="-7.9828917"><ele>1097.0</ele><time>2026-04-04T15:10:39.822Z</time></trkpt><trkpt lat="41.89633" lon="-7.9829817"><ele>1097.0</ele><time>2026-04-04T15:10:42.823Z</time></trkpt><trkpt lat="41.8963033" lon="-7.98308"><ele>1097.0</ele><time>2026-04-04T15:10:44.823Z</time></trkpt><trkpt lat="41.896275" lon="-7.98322"><ele>1097.0</ele><time>2026-04-04T15:10:46.823Z</time></trkpt><trkpt lat="41.8962467" lon="-7.983395"><ele>1097.0</ele><time>2026-04-04T15:10:48.822Z</time></trkpt><trkpt lat="41.8962267" lon="-7.9835"><ele>1098.0</ele><time>2026-04-04T15:10:49.823Z</time></trkpt><trkpt lat="41.8962117" lon="-7.9836117"><ele>1099.0</ele><time>2026-04-04T15:10:50.823Z</time></trkpt><trkpt lat="41.8961967" lon="-7.9837267"><ele>1100.0</ele><time>2026-04-04T15:10:51.822Z</time></trkpt><trkpt lat="41.8961983" lon="-7.98383"><ele>1101.0</ele><time>2026-04-04T15:10:52.823Z</time></trkpt><trkpt lat="41.89621" lon="-7.9839283"><ele>1102.0</ele><time>2026-04-04T15:10:53.823Z</time></trkpt><trkpt lat="41.8962417" lon="-7.984015"><ele>1103.0</ele><time>2026-04-04T15:10:54.823Z</time></trkpt><trkpt lat="41.8962833" lon="-7.984095"><ele>1104.1666666666667</ele><time>2026-04-04T15:10:55.823Z</time></trkpt><trkpt lat="41.8963367" lon="-7.9841817"><ele>1105.3333333333335</ele><time>2026-04-04T15:10:56.823Z</time></trkpt><trkpt lat="41.8963967" lon="-7.9842683"><ele>1106.5</ele><time>2026-04-04T15:10:57.822Z</time></trkpt><trkpt lat="41.8964617" lon="-7.984345"><ele>1107.6666666666667</ele><time>2026-04-04T15:10:58.824Z</time></trkpt><trkpt lat="41.8965317" lon="-7.9844"><ele>1108.8333333333333</ele><time>2026-04-04T15:10:59.823Z</time></trkpt><trkpt lat="41.8966033" lon="-7.9844417"><ele>1110.0</ele><time>2026-04-04T15:11:00.823Z</time></trkpt><trkpt lat="41.896665" lon="-7.9844783"><ele>1110.0</ele><time>2026-04-04T15:11:01.823Z</time></trkpt><trkpt lat="41.8967383" lon="-7.9845933"><ele>1110.0</ele><time>2026-04-04T15:11:03.822Z</time></trkpt><trkpt lat="41.8967317" lon="-7.9847717"><ele>1110.0</ele><time>2026-04-04T15:11:05.825Z</time></trkpt><trkpt lat="41.896705" lon="-7.9848867"><ele>1110.0</ele><time>2026-04-04T15:11:06.823Z</time></trkpt><trkpt lat="41.8966917" lon="-7.9850017"><ele>1110.0</ele><time>2026-04-04T15:11:07.823Z</time></trkpt><trkpt lat="41.8966917" lon="-7.9851167"><ele>1110.8</ele><time>2026-04-04T15:11:08.823Z</time></trkpt><trkpt lat="41.8966983" lon="-7.9852283"><ele>1111.6</ele><time>2026-04-04T15:11:09.823Z</time></trkpt><trkpt lat="41.8967167" lon="-7.9853217"><ele>1112.4</ele><time>2026-04-04T15:11:10.823Z</time></trkpt><trkpt lat="41.896755" lon="-7.9854817"><ele>1113.2</ele><time>2026-04-04T15:11:12.823Z</time></trkpt><trkpt lat="41.896755" lon="-7.9856483"><ele>1114.0</ele><time>2026-04-04T15:11:14.823Z</time></trkpt><trkpt lat="41.8967367" lon="-7.98574"><ele>1114.0</ele><time>2026-04-04T15:11:15.823Z</time></trkpt><trkpt lat="41.8967067" lon="-7.98584"><ele>1114.0</ele><time>2026-04-04T15:11:16.823Z</time></trkpt><trkpt lat="41.8966733" lon="-7.9859517"><ele>1114.0</ele><time>2026-04-04T15:11:17.823Z</time></trkpt><trkpt lat="41.8966517" lon="-7.9860683"><ele>1114.0</ele><time>2026-04-04T15:11:18.822Z</time></trkpt><trkpt lat="41.8966383" lon="-7.9862017"><ele>1114.0</ele><time>2026-04-04T15:11:19.824Z</time></trkpt><trkpt lat="41.8966317" lon="-7.9863483"><ele>1114.4</ele><time>2026-04-04T15:11:20.823Z</time></trkpt><trkpt lat="41.8966367" lon="-7.9864917"><ele>1114.8000000000002</ele><time>2026-04-04T15:11:21.822Z</time></trkpt><trkpt lat="41.896645" lon="-7.9866333"><ele>1115.1999999999998</ele><time>2026-04-04T15:11:22.822Z</time></trkpt><trkpt lat="41.89665" lon="-7.986775"><ele>1115.6</ele><time>2026-04-04T15:11:23.824Z</time></trkpt><trkpt lat="41.896645" lon="-7.9869133"><ele>1116.0</ele><time>2026-04-04T15:11:24.823Z</time></trkpt><trkpt lat="41.8966267" lon="-7.9870533"><ele>1116.0</ele><time>2026-04-04T15:11:25.823Z</time></trkpt><trkpt lat="41.8965917" lon="-7.9872033"><ele>1116.0</ele><time>2026-04-04T15:11:26.823Z</time></trkpt><trkpt lat="41.8965583" lon="-7.9873533"><ele>1116.0</ele><time>2026-04-04T15:11:27.822Z</time></trkpt><trkpt lat="41.8965433" lon="-7.9874933"><ele>1116.0</ele><time>2026-04-04T15:11:28.824Z</time></trkpt><trkpt lat="41.8965417" lon="-7.9876167"><ele>1116.0</ele><time>2026-04-04T15:11:29.823Z</time></trkpt><trkpt lat="41.89655" lon="-7.9877183"><ele>1115.8333333333333</ele><time>2026-04-04T15:11:30.823Z</time></trkpt><trkpt lat="41.896555" lon="-7.9878133"><ele>1115.6666666666667</ele><time>2026-04-04T15:11:31.824Z</time></trkpt><trkpt lat="41.8965517" lon="-7.9879067"><ele>1115.5</ele><time>2026-04-04T15:11:32.823Z</time></trkpt><trkpt lat="41.8965317" lon="-7.9880083"><ele>1115.3333333333335</ele><time>2026-04-04T15:11:33.822Z</time></trkpt><trkpt lat="41.8965167" lon="-7.9881017"><ele>1115.1666666666667</ele><time>2026-04-04T15:11:34.823Z</time></trkpt><trkpt lat="41.8965167" lon="-7.988245"><ele>1115.0</ele><time>2026-04-04T15:11:36.823Z</time></trkpt><trkpt lat="41.896595" lon="-7.98835"><ele>1115.0</ele><time>2026-04-04T15:11:38.824Z</time></trkpt><trkpt lat="41.8966583" lon="-7.9883967"><ele>1115.0</ele><time>2026-04-04T15:11:39.823Z</time></trkpt><trkpt lat="41.8967567" lon="-7.9884917"><ele>1115.0</ele><time>2026-04-04T15:11:41.824Z</time></trkpt><trkpt lat="41.8968083" lon="-7.9885433"><ele>1115.0</ele><time>2026-04-04T15:11:42.823Z</time></trkpt><trkpt lat="41.8969033" lon="-7.988635"><ele>1115.0</ele><time>2026-04-04T15:11:44.823Z</time></trkpt><trkpt lat="41.8969817" lon="-7.9887217"><ele>1114.4</ele><time>2026-04-04T15:11:46.825Z</time></trkpt><trkpt lat="41.897025" lon="-7.9887867"><ele>1113.8</ele><time>2026-04-04T15:11:48.824Z</time></trkpt><trkpt lat="41.89706" lon="-7.9888717"><ele>1113.2</ele><time>2026-04-04T15:11:51.822Z</time></trkpt><trkpt lat="41.8970733" lon="-7.988985"><ele>1112.6</ele><time>2026-04-04T15:11:53.823Z</time></trkpt><trkpt lat="41.897095" lon="-7.9891217"><ele>1112.0</ele><time>2026-04-04T15:11:55.824Z</time></trkpt><trkpt lat="41.897175" lon="-7.98927"><ele>1112.0</ele><time>2026-04-04T15:11:57.823Z</time></trkpt><trkpt lat="41.89723" lon="-7.989345"><ele>1112.0</ele><time>2026-04-04T15:11:58.824Z</time></trkpt><trkpt lat="41.8972867" lon="-7.9894267"><ele>1112.0</ele><time>2026-04-04T15:11:59.823Z</time></trkpt><trkpt lat="41.8973333" lon="-7.9895233"><ele>1112.0</ele><time>2026-04-04T15:12:00.824Z</time></trkpt><trkpt lat="41.897375" lon="-7.9896333"><ele>1112.0</ele><time>2026-04-04T15:12:01.823Z</time></trkpt><trkpt lat="41.8974067" lon="-7.98977"><ele>1112.0</ele><time>2026-04-04T15:12:02.824Z</time></trkpt><trkpt lat="41.897435" lon="-7.9899167"><ele>1113.4</ele><time>2026-04-04T15:12:03.823Z</time></trkpt><trkpt lat="41.8974633" lon="-7.9900667"><ele>1114.8000000000002</ele><time>2026-04-04T15:12:04.823Z</time></trkpt><trkpt lat="41.8974917" lon="-7.9902133"><ele>1116.2</ele><time>2026-04-04T15:12:05.823Z</time></trkpt><trkpt lat="41.897515" lon="-7.9903433"><ele>1117.6000000000001</ele><time>2026-04-04T15:12:06.825Z</time></trkpt><trkpt lat="41.8975317" lon="-7.9904667"><ele>1119.0</ele><time>2026-04-04T15:12:07.827Z</time></trkpt><trkpt lat="41.8975317" lon="-7.99059"><ele>1119.0</ele><time>2026-04-04T15:12:08.823Z</time></trkpt><trkpt lat="41.8975167" lon="-7.9907167"><ele>1119.0</ele><time>2026-04-04T15:12:09.823Z</time></trkpt><trkpt lat="41.8974983" lon="-7.9908533"><ele>1119.0</ele><time>2026-04-04T15:12:10.825Z</time></trkpt><trkpt lat="41.8974783" lon="-7.9909967"><ele>1119.0</ele><time>2026-04-04T15:12:11.823Z</time></trkpt><trkpt lat="41.89746" lon="-7.9911483"><ele>1119.0</ele><time>2026-04-04T15:12:12.823Z</time></trkpt><trkpt lat="41.89744" lon="-7.9912933"><ele>1118.1666666666667</ele><time>2026-04-04T15:12:13.824Z</time></trkpt><trkpt lat="41.8974183" lon="-7.9914183"><ele>1117.3333333333333</ele><time>2026-04-04T15:12:14.824Z</time></trkpt><trkpt lat="41.8973933" lon="-7.991535"><ele>1116.5</ele><time>2026-04-04T15:12:15.823Z</time></trkpt><trkpt lat="41.8973683" lon="-7.99163"><ele>1115.6666666666665</ele><time>2026-04-04T15:12:16.823Z</time></trkpt><trkpt lat="41.89733" lon="-7.9917417"><ele>1114.8333333333333</ele><time>2026-04-04T15:12:18.823Z</time></trkpt><trkpt lat="41.8973033" lon="-7.9918267"><ele>1114.0</ele><time>2026-04-04T15:12:23.823Z</time></trkpt><trkpt lat="41.8972617" lon="-7.9918933"><ele>1112.0</ele><time>2026-04-04T15:12:31.827Z</time></trkpt><trkpt lat="41.8972033" lon="-7.9920117"><ele>1110.0</ele><time>2026-04-04T15:12:34.823Z</time></trkpt><trkpt lat="41.8971683" lon="-7.9921517"><ele>1108.0</ele><time>2026-04-04T15:12:36.823Z</time></trkpt><trkpt lat="41.8971367" lon="-7.99231"><ele>1106.0</ele><time>2026-04-04T15:12:38.824Z</time></trkpt><trkpt lat="41.8971117" lon="-7.9924717"><ele>1105.4285714285713</ele><time>2026-04-04T15:12:40.824Z</time></trkpt><trkpt lat="41.8971033" lon="-7.992565"><ele>1104.857142857143</ele><time>2026-04-04T15:12:41.824Z</time></trkpt><trkpt lat="41.8970967" lon="-7.9926533"><ele>1104.2857142857142</ele><time>2026-04-04T15:12:42.823Z</time></trkpt><trkpt lat="41.8970967" lon="-7.99274"><ele>1103.7142857142858</ele><time>2026-04-04T15:12:43.825Z</time></trkpt><trkpt lat="41.8970917" lon="-7.9928333"><ele>1103.142857142857</ele><time>2026-04-04T15:12:44.824Z</time></trkpt><trkpt lat="41.8970833" lon="-7.9929283"><ele>1102.5714285714284</ele><time>2026-04-04T15:12:45.823Z</time></trkpt><trkpt lat="41.8970767" lon="-7.9930233"><ele>1102.0</ele><time>2026-04-04T15:12:46.824Z</time></trkpt><trkpt lat="41.8970683" lon="-7.99313"><ele>1102.0</ele><time>2026-04-04T15:12:47.824Z</time></trkpt><trkpt lat="41.89706" lon="-7.9932433"><ele>1102.0</ele><time>2026-04-04T15:12:48.828Z</time></trkpt><trkpt lat="41.8970467" lon="-7.9933567"><ele>1102.0</ele><time>2026-04-04T15:12:49.824Z</time></trkpt><trkpt lat="41.89703" lon="-7.9934517"><ele>1102.0</ele><time>2026-04-04T15:12:50.824Z</time></trkpt><trkpt lat="41.8970017" lon="-7.9935933"><ele>1102.0</ele><time>2026-04-04T15:12:52.825Z</time></trkpt><trkpt lat="41.89698" lon="-7.99372"><ele>1102.0</ele><time>2026-04-04T15:12:54.823Z</time></trkpt><trkpt lat="41.8969633" lon="-7.9938183"><ele>1101.5</ele><time>2026-04-04T15:12:56.824Z</time></trkpt><trkpt lat="41.8969417" lon="-7.9939433"><ele>1101.0</ele><time>2026-04-04T15:12:59.823Z</time></trkpt><trkpt lat="41.8969117" lon="-7.9940433"><ele>1100.5</ele><time>2026-04-04T15:13:02.823Z</time></trkpt><trkpt lat="41.896875" lon="-7.9941383"><ele>1100.0</ele><time>2026-04-04T15:13:05.824Z</time></trkpt><trkpt lat="41.8968533" lon="-7.9942217"><ele>1099.5</ele><time>2026-04-04T15:13:09.823Z</time></trkpt><trkpt lat="41.8968" lon="-7.994295"><ele>1099.0</ele><time>2026-04-04T15:13:14.826Z</time></trkpt><trkpt lat="41.8967183" lon="-7.9943583"><ele>1095.4285714285713</ele><time>2026-04-04T15:13:22.823Z</time></trkpt><trkpt lat="41.8966867" lon="-7.9944367"><ele>1091.857142857143</ele><time>2026-04-04T15:13:25.825Z</time></trkpt><trkpt lat="41.8966683" lon="-7.994525"><ele>1088.2857142857142</ele><time>2026-04-04T15:13:28.823Z</time></trkpt><trkpt lat="41.89664" lon="-7.9946167"><ele>1084.7142857142858</ele><time>2026-04-04T15:13:30.824Z</time></trkpt><trkpt lat="41.89663" lon="-7.9947233"><ele>1081.142857142857</ele><time>2026-04-04T15:13:32.824Z</time></trkpt><trkpt lat="41.8966217" lon="-7.9948233"><ele>1077.5714285714284</ele><time>2026-04-04T15:13:34.824Z</time></trkpt><trkpt lat="41.896595" lon="-7.9949183"><ele>1074.0</ele><time>2026-04-04T15:13:36.824Z</time></trkpt><trkpt lat="41.89657" lon="-7.9950083"><ele>1073.6000000000001</ele><time>2026-04-04T15:13:38.824Z</time></trkpt><trkpt lat="41.8965533" lon="-7.995105"><ele>1073.2</ele><time>2026-04-04T15:13:41.823Z</time></trkpt><trkpt lat="41.896595" lon="-7.9951833"><ele>1072.8000000000002</ele><time>2026-04-04T15:14:27.825Z</time></trkpt><trkpt lat="41.8966583" lon="-7.99532"><ele>1072.4</ele><time>2026-04-04T15:14:29.826Z</time></trkpt><trkpt lat="41.8966983" lon="-7.9954083"><ele>1072.0</ele><time>2026-04-04T15:14:30.823Z</time></trkpt><trkpt lat="41.89674" lon="-7.9955583"><ele>1073.0</ele><time>2026-04-04T15:14:31.823Z</time></trkpt><trkpt lat="41.8967667" lon="-7.9957033"><ele>1074.0</ele><time>2026-04-04T15:14:32.823Z</time></trkpt><trkpt lat="41.8967967" lon="-7.9958433"><ele>1075.0</ele><time>2026-04-04T15:14:33.822Z</time></trkpt><trkpt lat="41.8968217" lon="-7.9959767"><ele>1076.0</ele><time>2026-04-04T15:14:34.823Z</time></trkpt><trkpt lat="41.8968367" lon="-7.99609"><ele>1077.0</ele><time>2026-04-04T15:14:35.824Z</time></trkpt><trkpt lat="41.8968467" lon="-7.9962"><ele>1077.0</ele><time>2026-04-04T15:14:36.824Z</time></trkpt><trkpt lat="41.89685" lon="-7.9963083"><ele>1077.0</ele><time>2026-04-04T15:14:37.824Z</time></trkpt><trkpt lat="41.89685" lon="-7.9964133"><ele>1077.0</ele><time>2026-04-04T15:14:38.823Z</time></trkpt><trkpt lat="41.8968433" lon="-7.996515"><ele>1077.0</ele><time>2026-04-04T15:14:39.822Z</time></trkpt><trkpt lat="41.8968417" lon="-7.9966"><ele>1077.0</ele><time>2026-04-04T15:14:40.826Z</time></trkpt><trkpt lat="41.896845" lon="-7.996685"><ele>1077.0</ele><time>2026-04-04T15:14:41.822Z</time></trkpt><trkpt lat="41.89685" lon="-7.99677"><ele>1077.0</ele><time>2026-04-04T15:14:42.822Z</time></trkpt><trkpt lat="41.8969033" lon="-7.996925"><ele>1074.3333333333333</ele><time>2026-04-04T15:14:44.823Z</time></trkpt><trkpt lat="41.8969533" lon="-7.9969967"><ele>1071.6666666666667</ele><time>2026-04-04T15:14:45.822Z</time></trkpt><trkpt lat="41.897005" lon="-7.9970783"><ele>1069.0</ele><time>2026-04-04T15:14:46.825Z</time></trkpt><trkpt lat="41.897065" lon="-7.99715"><ele>1066.3333333333335</ele><time>2026-04-04T15:14:47.822Z</time></trkpt><trkpt lat="41.8971183" lon="-7.997225"><ele>1063.6666666666667</ele><time>2026-04-04T15:14:48.823Z</time></trkpt><trkpt lat="41.89717" lon="-7.9973033"><ele>1061.0</ele><time>2026-04-04T15:14:49.824Z</time></trkpt><trkpt lat="41.8972183" lon="-7.997375"><ele>1061.0</ele><time>2026-04-04T15:14:50.826Z</time></trkpt><trkpt lat="41.8972967" lon="-7.997455"><ele>1061.0</ele><time>2026-04-04T15:14:52.822Z</time></trkpt><trkpt lat="41.8973833" lon="-7.997465"><ele>1061.0</ele><time>2026-04-04T15:14:54.824Z</time></trkpt><trkpt lat="41.8974983" lon="-7.99746"><ele>1061.0</ele><time>2026-04-04T15:14:56.823Z</time></trkpt><trkpt lat="41.897575" lon="-7.9975067"><ele>1061.0</ele><time>2026-04-04T15:14:58.823Z</time></trkpt><trkpt lat="41.897635" lon="-7.9976"><ele>1059.6</ele><time>2026-04-04T15:15:00.823Z</time></trkpt><trkpt lat="41.897715" lon="-7.9976667"><ele>1058.1999999999998</ele><time>2026-04-04T15:15:02.823Z</time></trkpt><trkpt lat="41.89781" lon="-7.99773"><ele>1056.8000000000002</ele><time>2026-04-04T15:15:04.825Z</time></trkpt><trkpt lat="41.897885" lon="-7.9978133"><ele>1055.4</ele><time>2026-04-04T15:15:06.824Z</time></trkpt><trkpt lat="41.8979383" lon="-7.9979183"><ele>1054.0</ele><time>2026-04-04T15:15:08.823Z</time></trkpt><trkpt lat="41.8979883" lon="-7.998"><ele>1054.0</ele><time>2026-04-04T15:15:10.826Z</time></trkpt><trkpt lat="41.8980433" lon="-7.99807"><ele>1054.0</ele><time>2026-04-04T15:15:12.823Z</time></trkpt><trkpt lat="41.8980967" lon="-7.9981617"><ele>1054.0</ele><time>2026-04-04T15:15:14.826Z</time></trkpt><trkpt lat="41.89815" lon="-7.998235"><ele>1054.0</ele><time>2026-04-04T15:15:16.823Z</time></trkpt><trkpt lat="41.898205" lon="-7.998325"><ele>1054.0</ele><time>2026-04-04T15:15:19.826Z</time></trkpt><trkpt lat="41.898245" lon="-7.9984117"><ele>1054.0</ele><time>2026-04-04T15:15:23.825Z</time></trkpt><trkpt lat="41.8981733" lon="-7.9983883"><ele>1054.0</ele><time>2026-04-04T15:15:41.823Z</time></trkpt><trkpt lat="41.898135" lon="-7.998305"><ele>1054.0</ele><time>2026-04-04T15:15:43.824Z</time></trkpt><trkpt lat="41.898065" lon="-7.9981533"><ele>1054.0</ele><time>2026-04-04T15:15:45.823Z</time></trkpt><trkpt lat="41.898005" lon="-7.99805"><ele>1054.0</ele><time>2026-04-04T15:15:46.823Z</time></trkpt><trkpt lat="41.8979383" lon="-7.997945"><ele>1054.0</ele><time>2026-04-04T15:15:47.823Z</time></trkpt><trkpt lat="41.8978817" lon="-7.9978583"><ele>1054.0</ele><time>2026-04-04T15:15:48.823Z</time></trkpt><trkpt lat="41.89783" lon="-7.9977767"><ele>1054.0</ele><time>2026-04-04T15:15:49.824Z</time></trkpt><trkpt lat="41.8977783" lon="-7.9977083"><ele>1054.0</ele><time>2026-04-04T15:15:50.824Z</time></trkpt><trkpt lat="41.8976683" lon="-7.9976333"><ele>1054.0</ele><time>2026-04-04T15:15:52.824Z</time></trkpt><trkpt lat="41.8976133" lon="-7.9975917"><ele>1054.0</ele><time>2026-04-04T15:15:53.823Z</time></trkpt><trkpt lat="41.8975533" lon="-7.9975533"><ele>1054.0</ele><time>2026-04-04T15:15:54.824Z</time></trkpt><trkpt lat="41.89745" lon="-7.9975333"><ele>1053.6000000000001</ele><time>2026-04-04T15:15:56.823Z</time></trkpt><trkpt lat="41.8973833" lon="-7.9976017"><ele>1053.2</ele><time>2026-04-04T15:15:58.823Z</time></trkpt><trkpt lat="41.897355" lon="-7.9977383"><ele>1052.8000000000002</ele><time>2026-04-04T15:16:00.823Z</time></trkpt><trkpt lat="41.8973667" lon="-7.99787"><ele>1052.4</ele><time>2026-04-04T15:16:02.824Z</time></trkpt><trkpt lat="41.8974233" lon="-7.9979933"><ele>1052.0</ele><time>2026-04-04T15:16:04.823Z</time></trkpt><trkpt lat="41.8974667" lon="-7.99809"><ele>1052.0</ele><time>2026-04-04T15:16:06.825Z</time></trkpt><trkpt lat="41.8974683" lon="-7.9981767"><ele>1052.0</ele><time>2026-04-04T15:16:08.824Z</time></trkpt><trkpt lat="41.8974167" lon="-7.9982633"><ele>1052.0</ele><time>2026-04-04T15:16:10.823Z</time></trkpt><trkpt lat="41.8973417" lon="-7.9983617"><ele>1052.0</ele><time>2026-04-04T15:16:12.823Z</time></trkpt><trkpt lat="41.89726" lon="-7.99842"><ele>1052.0</ele><time>2026-04-04T15:16:14.824Z</time></trkpt><trkpt lat="41.897155" lon="-7.9984383"><ele>1050.6666666666667</ele><time>2026-04-04T15:16:16.823Z</time></trkpt><trkpt lat="41.8970867" lon="-7.998455"><ele>1049.3333333333335</ele><time>2026-04-04T15:16:17.825Z</time></trkpt><trkpt lat="41.897005" lon="-7.998485"><ele>1048.0</ele><time>2026-04-04T15:16:18.823Z</time></trkpt><trkpt lat="41.89692" lon="-7.99852"><ele>1046.6666666666667</ele><time>2026-04-04T15:16:19.823Z</time></trkpt><trkpt lat="41.8968417" lon="-7.9985583"><ele>1045.3333333333333</ele><time>2026-04-04T15:16:20.824Z</time></trkpt><trkpt lat="41.8967617" lon="-7.9985883"><ele>1044.0</ele><time>2026-04-04T15:16:21.824Z</time></trkpt><trkpt lat="41.89667" lon="-7.9986717"><ele>1042.0</ele><time>2026-04-04T15:16:23.823Z</time></trkpt><trkpt lat="41.896615" lon="-7.9988133"><ele>1040.0</ele><time>2026-04-04T15:16:25.824Z</time></trkpt><trkpt lat="41.8965983" lon="-7.9988983"><ele>1038.0</ele><time>2026-04-04T15:16:26.824Z</time></trkpt><trkpt lat="41.89657" lon="-7.9990383"><ele>1036.0</ele><time>2026-04-04T15:16:28.824Z</time></trkpt><trkpt lat="41.896575" lon="-7.9991783"><ele>1034.0</ele><time>2026-04-04T15:16:30.825Z</time></trkpt><trkpt lat="41.89659" lon="-7.9993033"><ele>1033.0</ele><time>2026-04-04T15:16:32.824Z</time></trkpt><trkpt lat="41.8966033" lon="-7.9994183"><ele>1032.0</ele><time>2026-04-04T15:16:34.824Z</time></trkpt><trkpt lat="41.8966083" lon="-7.9995333"><ele>1031.0</ele><time>2026-04-04T15:16:36.823Z</time></trkpt><trkpt lat="41.89661" lon="-7.9996633"><ele>1030.0</ele><time>2026-04-04T15:16:38.824Z</time></trkpt><trkpt lat="41.8966033" lon="-7.999795"><ele>1029.0</ele><time>2026-04-04T15:16:40.823Z</time></trkpt><trkpt lat="41.8965733" lon="-7.99991"><ele>1029.0</ele><time>2026-04-04T15:16:42.823Z</time></trkpt><trkpt lat="41.8965233" lon="-7.9999917"><ele>1029.0</ele><time>2026-04-04T15:16:45.824Z</time></trkpt><trkpt lat="41.8964417" lon="-8.0000333"><ele>1029.0</ele><time>2026-04-04T15:16:54.823Z</time></trkpt><trkpt lat="41.8963817" lon="-8.0000633"><ele>1029.0</ele><time>2026-04-04T15:16:55.823Z</time></trkpt><trkpt lat="41.896285" lon="-8.0001367"><ele>1029.0</ele><time>2026-04-04T15:16:57.826Z</time></trkpt><trkpt lat="41.89618" lon="-8.000215"><ele>1029.0</ele><time>2026-04-04T15:16:59.822Z</time></trkpt><trkpt lat="41.89611" lon="-8.0002433"><ele>1029.0</ele><time>2026-04-04T15:17:00.822Z</time></trkpt><trkpt lat="41.896045" lon="-8.0002517"><ele>1029.0</ele><time>2026-04-04T15:17:01.825Z</time></trkpt><trkpt lat="41.8959783" lon="-8.0002567"><ele>1029.0</ele><time>2026-04-04T15:17:02.822Z</time></trkpt><trkpt lat="41.8958583" lon="-8.0002933"><ele>1029.0</ele><time>2026-04-04T15:17:04.822Z</time></trkpt><trkpt lat="41.8957517" lon="-8.0003433"><ele>1029.0</ele><time>2026-04-04T15:17:06.823Z</time></trkpt><trkpt lat="41.8956267" lon="-8.0003433"><ele>1027.5</ele><time>2026-04-04T15:17:08.824Z</time></trkpt><trkpt lat="41.8955617" lon="-8.0003217"><ele>1026.0</ele><time>2026-04-04T15:17:09.822Z</time></trkpt><trkpt lat="41.8954967" lon="-8.0002917"><ele>1024.5</ele><time>2026-04-04T15:17:10.822Z</time></trkpt><trkpt lat="41.8954267" lon="-8.0002583"><ele>1023.0</ele><time>2026-04-04T15:17:11.822Z</time></trkpt><trkpt lat="41.8953533" lon="-8.0002233"><ele>1021.5</ele><time>2026-04-04T15:17:12.823Z</time></trkpt><trkpt lat="41.8952833" lon="-8.0001867"><ele>1020.0</ele><time>2026-04-04T15:17:13.822Z</time></trkpt><trkpt lat="41.8951717" lon="-8.0001133"><ele>1020.0</ele><time>2026-04-04T15:17:15.823Z</time></trkpt><trkpt lat="41.8950917" lon="-8.00006"><ele>1020.0</ele><time>2026-04-04T15:17:17.822Z</time></trkpt><trkpt lat="41.8949883" lon="-8.000045"><ele>1020.0</ele><time>2026-04-04T15:17:19.823Z</time></trkpt><trkpt lat="41.8948933" lon="-8.0000117"><ele>1020.0</ele><time>2026-04-04T15:17:21.822Z</time></trkpt><trkpt lat="41.8947883" lon="-7.9999117"><ele>1020.0</ele><time>2026-04-04T15:17:23.822Z</time></trkpt><trkpt lat="41.89475" lon="-7.9998267"><ele>1018.0</ele><time>2026-04-04T15:17:24.822Z</time></trkpt><trkpt lat="41.89472" lon="-7.9997267"><ele>1016.0</ele><time>2026-04-04T15:17:25.822Z</time></trkpt><trkpt lat="41.8946883" lon="-7.99961"><ele>1014.0</ele><time>2026-04-04T15:17:26.823Z</time></trkpt><trkpt lat="41.8946517" lon="-7.9994733"><ele>1012.0</ele><time>2026-04-04T15:17:27.822Z</time></trkpt><trkpt lat="41.894605" lon="-7.9993333"><ele>1010.0</ele><time>2026-04-04T15:17:28.823Z</time></trkpt><trkpt lat="41.8945567" lon="-7.9992"><ele>1009.8</ele><time>2026-04-04T15:17:29.823Z</time></trkpt><trkpt lat="41.894515" lon="-7.9990633"><ele>1009.6</ele><time>2026-04-04T15:17:30.823Z</time></trkpt><trkpt lat="41.8944817" lon="-7.998935"><ele>1009.4000000000001</ele><time>2026-04-04T15:17:31.823Z</time></trkpt><trkpt lat="41.8944533" lon="-7.998805"><ele>1009.2</ele><time>2026-04-04T15:17:32.823Z</time></trkpt><trkpt lat="41.89443" lon="-7.998675"><ele>1009.0</ele><time>2026-04-04T15:17:33.824Z</time></trkpt><trkpt lat="41.8944117" lon="-7.9985533"><ele>1008.9999999999999</ele><time>2026-04-04T15:17:34.823Z</time></trkpt><trkpt lat="41.89439" lon="-7.99845"><ele>1009.0</ele><time>2026-04-04T15:17:35.822Z</time></trkpt><trkpt lat="41.8943733" lon="-7.9983667"><ele>1009.0</ele><time>2026-04-04T15:17:36.822Z</time></trkpt><trkpt lat="41.8943133" lon="-7.9982783"><ele>1009.0</ele><time>2026-04-04T15:17:38.823Z</time></trkpt><trkpt lat="41.8942017" lon="-7.998305"><ele>1008.9999999999999</ele><time>2026-04-04T15:17:40.822Z</time></trkpt><trkpt lat="41.8941217" lon="-7.998365"><ele>1009.0</ele><time>2026-04-04T15:17:41.823Z</time></trkpt><trkpt lat="41.89403" lon="-7.99846"><ele>1006.1666666666666</ele><time>2026-04-04T15:17:42.824Z</time></trkpt><trkpt lat="41.8939583" lon="-7.9985383"><ele>1003.3333333333333</ele><time>2026-04-04T15:17:43.822Z</time></trkpt><trkpt lat="41.893895" lon="-7.9986167"><ele>1000.5</ele><time>2026-04-04T15:17:44.824Z</time></trkpt><trkpt lat="41.893845" lon="-7.9986983"><ele>997.6666666666667</ele><time>2026-04-04T15:17:45.822Z</time></trkpt><trkpt lat="41.8938067" lon="-7.9987833"><ele>994.8333333333334</ele><time>2026-04-04T15:17:46.822Z</time></trkpt><trkpt lat="41.8937783" lon="-7.9988633"><ele>992.0</ele><time>2026-04-04T15:17:47.822Z</time></trkpt><trkpt lat="41.8937267" lon="-7.9990083"><ele>992.0000000000001</ele><time>2026-04-04T15:17:49.823Z</time></trkpt><trkpt lat="41.89371" lon="-7.9990933"><ele>992.0</ele><time>2026-04-04T15:17:50.823Z</time></trkpt><trkpt lat="41.8936933" lon="-7.9991767"><ele>992.0</ele><time>2026-04-04T15:17:51.822Z</time></trkpt><trkpt lat="41.8936633" lon="-7.9993367"><ele>992.0</ele><time>2026-04-04T15:17:53.823Z</time></trkpt><trkpt lat="41.89361" lon="-7.9994367"><ele>992.0000000000001</ele><time>2026-04-04T15:17:55.822Z</time></trkpt><trkpt lat="41.89355" lon="-7.9995417"><ele>992.0</ele><time>2026-04-04T15:17:58.825Z</time></trkpt><trkpt lat="41.8935117" lon="-7.9996917"><ele>990.6666666666667</ele><time>2026-04-04T15:18:00.823Z</time></trkpt><trkpt lat="41.8935167" lon="-7.9997933"><ele>989.3333333333334</ele><time>2026-04-04T15:18:01.823Z</time></trkpt><trkpt lat="41.8935367" lon="-7.9999"><ele>988.0</ele><time>2026-04-04T15:18:02.823Z</time></trkpt><trkpt lat="41.8935633" lon="-8.0000167"><ele>986.6666666666667</ele><time>2026-04-04T15:18:03.823Z</time></trkpt><trkpt lat="41.8935833" lon="-8.0001383"><ele>985.3333333333334</ele><time>2026-04-04T15:18:04.822Z</time></trkpt><trkpt lat="41.8936233" lon="-8.0002683"><ele>984.0</ele><time>2026-04-04T15:18:05.823Z</time></trkpt><trkpt lat="41.893675" lon="-8.0003767"><ele>984.0</ele><time>2026-04-04T15:18:06.822Z</time></trkpt><trkpt lat="41.8937183" lon="-8.0004983"><ele>984.0</ele><time>2026-04-04T15:18:07.822Z</time></trkpt><trkpt lat="41.8937533" lon="-8.000615"><ele>984.0</ele><time>2026-04-04T15:18:08.823Z</time></trkpt><trkpt lat="41.8937817" lon="-8.0007217"><ele>984.0</ele><time>2026-04-04T15:18:09.823Z</time></trkpt><trkpt lat="41.8938117" lon="-8.0008283"><ele>984.0</ele><time>2026-04-04T15:18:10.823Z</time></trkpt><trkpt lat="41.8938433" lon="-8.0009183"><ele>984.0</ele><time>2026-04-04T15:18:11.823Z</time></trkpt><trkpt lat="41.8938833" lon="-8.0009933"><ele>982.5</ele><time>2026-04-04T15:18:12.825Z</time></trkpt><trkpt lat="41.8939183" lon="-8.00108"><ele>981.0</ele><time>2026-04-04T15:18:13.823Z</time></trkpt><trkpt lat="41.8939483" lon="-8.001185"><ele>979.5</ele><time>2026-04-04T15:18:14.823Z</time></trkpt><trkpt lat="41.89398" lon="-8.0012983"><ele>978.0</ele><time>2026-04-04T15:18:15.822Z</time></trkpt><trkpt lat="41.8940233" lon="-8.0014133"><ele>976.5</ele><time>2026-04-04T15:18:16.824Z</time></trkpt><trkpt lat="41.8940667" lon="-8.00153"><ele>975.0</ele><time>2026-04-04T15:18:17.823Z</time></trkpt><trkpt lat="41.8941017" lon="-8.00165"><ele>973.1666666666666</ele><time>2026-04-04T15:18:18.823Z</time></trkpt><trkpt lat="41.8941317" lon="-8.0017633"><ele>971.3333333333333</ele><time>2026-04-04T15:18:19.826Z</time></trkpt><trkpt lat="41.8941567" lon="-8.0018633"><ele>969.5</ele><time>2026-04-04T15:18:20.823Z</time></trkpt><trkpt lat="41.89418" lon="-8.0019683"><ele>967.6666666666666</ele><time>2026-04-04T15:18:21.822Z</time></trkpt><trkpt lat="41.8941933" lon="-8.0020867"><ele>965.8333333333333</ele><time>2026-04-04T15:18:22.824Z</time></trkpt><trkpt lat="41.8942133" lon="-8.002205"><ele>964.0</ele><time>2026-04-04T15:18:23.825Z</time></trkpt><trkpt lat="41.8942233" lon="-8.0023417"><ele>964.0</ele><time>2026-04-04T15:18:24.824Z</time></trkpt><trkpt lat="41.8942283" lon="-8.0025017"><ele>964.0000000000001</ele><time>2026-04-04T15:18:25.823Z</time></trkpt><trkpt lat="41.8942383" lon="-8.002655"><ele>964.0000000000001</ele><time>2026-04-04T15:18:26.823Z</time></trkpt><trkpt lat="41.894255" lon="-8.00279"><ele>964.0</ele><time>2026-04-04T15:18:27.823Z</time></trkpt><trkpt lat="41.8942733" lon="-8.00291"><ele>964.0</ele><time>2026-04-04T15:18:28.822Z</time></trkpt><trkpt lat="41.894295" lon="-8.003025"><ele>963.9999999999999</ele><time>2026-04-04T15:18:29.823Z</time></trkpt><trkpt lat="41.894315" lon="-8.0031333"><ele>964.0</ele><time>2026-04-04T15:18:30.825Z</time></trkpt><trkpt lat="41.8943167" lon="-8.0032483"><ele>964.0</ele><time>2026-04-04T15:18:31.824Z</time></trkpt><trkpt lat="41.894315" lon="-8.00335"><ele>964.0</ele><time>2026-04-04T15:18:32.823Z</time></trkpt><trkpt lat="41.8943067" lon="-8.00345"><ele>963.9999999999999</ele><time>2026-04-04T15:18:33.822Z</time></trkpt><trkpt lat="41.8943067" lon="-8.003555"><ele>964.0</ele><time>2026-04-04T15:18:34.822Z</time></trkpt><trkpt lat="41.8943133" lon="-8.00366"><ele>961.6</ele><time>2026-04-04T15:18:35.822Z</time></trkpt><trkpt lat="41.8943267" lon="-8.003775"><ele>959.2</ele><time>2026-04-04T15:18:36.823Z</time></trkpt><trkpt lat="41.894355" lon="-8.0039"><ele>956.8000000000001</ele><time>2026-04-04T15:18:37.824Z</time></trkpt><trkpt lat="41.8943783" lon="-8.0040317"><ele>954.4000000000001</ele><time>2026-04-04T15:18:38.824Z</time></trkpt><trkpt lat="41.8944017" lon="-8.0041517"><ele>952.0</ele><time>2026-04-04T15:18:39.823Z</time></trkpt><trkpt lat="41.8944183" lon="-8.0042617"><ele>949.8</ele><time>2026-04-04T15:18:40.824Z</time></trkpt><trkpt lat="41.894425" lon="-8.0043833"><ele>947.6</ele><time>2026-04-04T15:18:41.824Z</time></trkpt><trkpt lat="41.89443" lon="-8.0045183"><ele>945.3999999999999</ele><time>2026-04-04T15:18:42.823Z</time></trkpt><trkpt lat="41.8944267" lon="-8.004665"><ele>943.1999999999999</ele><time>2026-04-04T15:18:43.823Z</time></trkpt><trkpt lat="41.894415" lon="-8.004815"><ele>941.0</ele><time>2026-04-04T15:18:44.823Z</time></trkpt><trkpt lat="41.89439" lon="-8.0049633"><ele>939.5999999999999</ele><time>2026-04-04T15:18:45.826Z</time></trkpt><trkpt lat="41.8943533" lon="-8.005105"><ele>938.1999999999999</ele><time>2026-04-04T15:18:46.823Z</time></trkpt><trkpt lat="41.8943183" lon="-8.0052467"><ele>936.8000000000001</ele><time>2026-04-04T15:18:47.824Z</time></trkpt><trkpt lat="41.8943" lon="-8.0053933"><ele>935.4000000000001</ele><time>2026-04-04T15:18:48.823Z</time></trkpt><trkpt lat="41.8943033" lon="-8.00554"><ele>934.0</ele><time>2026-04-04T15:18:49.825Z</time></trkpt><trkpt lat="41.894325" lon="-8.0056767"><ele>934.0</ele><time>2026-04-04T15:18:50.823Z</time></trkpt><trkpt lat="41.8943633" lon="-8.005795"><ele>934.0000000000001</ele><time>2026-04-04T15:18:51.823Z</time></trkpt><trkpt lat="41.894405" lon="-8.0059067"><ele>934.0000000000001</ele><time>2026-04-04T15:18:52.823Z</time></trkpt><trkpt lat="41.89444" lon="-8.006015"><ele>934.0</ele><time>2026-04-04T15:18:53.822Z</time></trkpt><trkpt lat="41.8944717" lon="-8.006125"><ele>934.0</ele><time>2026-04-04T15:18:54.824Z</time></trkpt><trkpt lat="41.8944933" lon="-8.0062467"><ele>933.4999999999999</ele><time>2026-04-04T15:18:55.823Z</time></trkpt><trkpt lat="41.8945133" lon="-8.00638"><ele>933.0</ele><time>2026-04-04T15:18:56.823Z</time></trkpt><trkpt lat="41.8945233" lon="-8.006495"><ele>932.5</ele><time>2026-04-04T15:18:57.822Z</time></trkpt><trkpt lat="41.894535" lon="-8.00661"><ele>932.0</ele><time>2026-04-04T15:18:58.823Z</time></trkpt><trkpt lat="41.8945467" lon="-8.0066983"><ele>931.4999999999999</ele><time>2026-04-04T15:18:59.824Z</time></trkpt><trkpt lat="41.8945667" lon="-8.00679"><ele>931.0</ele><time>2026-04-04T15:19:00.823Z</time></trkpt><trkpt lat="41.8945983" lon="-8.0068967"><ele>929.4</ele><time>2026-04-04T15:19:01.824Z</time></trkpt><trkpt lat="41.894645" lon="-8.0070083"><ele>927.8</ele><time>2026-04-04T15:19:02.824Z</time></trkpt><trkpt lat="41.89469" lon="-8.0071367"><ele>926.1999999999999</ele><time>2026-04-04T15:19:03.823Z</time></trkpt><trkpt lat="41.8947267" lon="-8.007255"><ele>924.5999999999999</ele><time>2026-04-04T15:19:04.823Z</time></trkpt><trkpt lat="41.8947583" lon="-8.0073583"><ele>923.0</ele><time>2026-04-04T15:19:05.823Z</time></trkpt><trkpt lat="41.8947983" lon="-8.0074617"><ele>919.8</ele><time>2026-04-04T15:19:06.823Z</time></trkpt><trkpt lat="41.894835" lon="-8.0075883"><ele>916.5999999999999</ele><time>2026-04-04T15:19:07.826Z</time></trkpt><trkpt lat="41.89487" lon="-8.0077267"><ele>913.4000000000001</ele><time>2026-04-04T15:19:08.823Z</time></trkpt><trkpt lat="41.8949067" lon="-8.00786"><ele>910.2</ele><time>2026-04-04T15:19:09.822Z</time></trkpt><trkpt lat="41.89494" lon="-8.00798"><ele>907.0</ele><time>2026-04-04T15:19:10.823Z</time></trkpt><trkpt lat="41.8949683" lon="-8.0080733"><ele>906.9999999999999</ele><time>2026-04-04T15:19:11.823Z</time></trkpt><trkpt lat="41.8950083" lon="-8.0081533"><ele>907.0</ele><time>2026-04-04T15:19:12.823Z</time></trkpt><trkpt lat="41.895045" lon="-8.0082483"><ele>907.0</ele><time>2026-04-04T15:19:13.823Z</time></trkpt><trkpt lat="41.8950767" lon="-8.0083417"><ele>907.0</ele><time>2026-04-04T15:19:14.823Z</time></trkpt><trkpt lat="41.895105" lon="-8.0084467"><ele>906.9999999999999</ele><time>2026-04-04T15:19:15.822Z</time></trkpt><trkpt lat="41.8951233" lon="-8.0085467"><ele>907.0</ele><time>2026-04-04T15:19:16.823Z</time></trkpt><trkpt lat="41.8952133" lon="-8.0086967"><ele>905.0</ele><time>2026-04-04T15:19:18.824Z</time></trkpt><trkpt lat="41.8952967" lon="-8.008805"><ele>903.0</ele><time>2026-04-04T15:19:19.823Z</time></trkpt><trkpt lat="41.8953783" lon="-8.0089333"><ele>901.0</ele><time>2026-04-04T15:19:20.824Z</time></trkpt><trkpt lat="41.89546" lon="-8.009055"><ele>899.0</ele><time>2026-04-04T15:19:21.824Z</time></trkpt><trkpt lat="41.8955383" lon="-8.0091633"><ele>896.0</ele><time>2026-04-04T15:19:22.823Z</time></trkpt><trkpt lat="41.895625" lon="-8.0092867"><ele>893.0</ele><time>2026-04-04T15:19:23.823Z</time></trkpt><trkpt lat="41.89572" lon="-8.0094283"><ele>890.0</ele><time>2026-04-04T15:19:24.823Z</time></trkpt><trkpt lat="41.8958133" lon="-8.00956"><ele>887.0</ele><time>2026-04-04T15:19:25.824Z</time></trkpt><trkpt lat="41.8959117" lon="-8.0096717"><ele>886.2</ele><time>2026-04-04T15:19:26.823Z</time></trkpt><trkpt lat="41.8959933" lon="-8.0097467"><ele>885.4000000000001</ele><time>2026-04-04T15:19:27.823Z</time></trkpt><trkpt lat="41.89608" lon="-8.0098"><ele>884.5999999999999</ele><time>2026-04-04T15:19:28.823Z</time></trkpt><trkpt lat="41.8961683" lon="-8.0098167"><ele>883.8</ele><time>2026-04-04T15:19:29.823Z</time></trkpt><trkpt lat="41.8962617" lon="-8.0098083"><ele>883.0</ele><time>2026-04-04T15:19:30.823Z</time></trkpt><trkpt lat="41.8963567" lon="-8.0097717"><ele>883.0</ele><time>2026-04-04T15:19:31.823Z</time></trkpt><trkpt lat="41.8964733" lon="-8.0097267"><ele>883.0</ele><time>2026-04-04T15:19:32.824Z</time></trkpt><trkpt lat="41.89659" lon="-8.0096817"><ele>883.0</ele><time>2026-04-04T15:19:33.823Z</time></trkpt><trkpt lat="41.8967033" lon="-8.0096483"><ele>883.0</ele><time>2026-04-04T15:19:34.823Z</time></trkpt><trkpt lat="41.8968033" lon="-8.00963"><ele>883.4999999999999</ele><time>2026-04-04T15:19:35.826Z</time></trkpt><trkpt lat="41.8968783" lon="-8.0096133"><ele>884.0</ele><time>2026-04-04T15:19:36.824Z</time></trkpt><trkpt lat="41.89699" lon="-8.0095617"><ele>884.5</ele><time>2026-04-04T15:19:38.824Z</time></trkpt><trkpt lat="41.8970683" lon="-8.0095667"><ele>885.0</ele><time>2026-04-04T15:19:40.823Z</time></trkpt><trkpt lat="41.8971433" lon="-8.009625"><ele>885.4999999999999</ele><time>2026-04-04T15:19:42.823Z</time></trkpt><trkpt lat="41.8972017" lon="-8.0096617"><ele>886.0</ele><time>2026-04-04T15:19:43.823Z</time></trkpt><trkpt lat="41.8972583" lon="-8.0097083"><ele>885.9999999999999</ele><time>2026-04-04T15:19:44.823Z</time></trkpt><trkpt lat="41.8973133" lon="-8.009755"><ele>886.0</ele><time>2026-04-04T15:19:45.823Z</time></trkpt><trkpt lat="41.89744" lon="-8.0098167"><ele>886.0</ele><time>2026-04-04T15:19:47.823Z</time></trkpt><trkpt lat="41.8975167" lon="-8.0098283"><ele>886.0</ele><time>2026-04-04T15:19:48.823Z</time></trkpt><trkpt lat="41.8975983" lon="-8.0098517"><ele>885.9999999999999</ele><time>2026-04-04T15:19:49.824Z</time></trkpt><trkpt lat="41.897675" lon="-8.0098767"><ele>886.0</ele><time>2026-04-04T15:19:50.823Z</time></trkpt><trkpt lat="41.8977467" lon="-8.009905"><ele>886.4999999999999</ele><time>2026-04-04T15:19:51.823Z</time></trkpt><trkpt lat="41.8978167" lon="-8.0099383"><ele>887.0</ele><time>2026-04-04T15:19:52.823Z</time></trkpt><trkpt lat="41.8978867" lon="-8.009965"><ele>887.5</ele><time>2026-04-04T15:19:53.823Z</time></trkpt><trkpt lat="41.8979617" lon="-8.0099783"><ele>888.0</ele><time>2026-04-04T15:19:54.823Z</time></trkpt><trkpt lat="41.8980267" lon="-8.0099667"><ele>888.4999999999999</ele><time>2026-04-04T15:19:55.823Z</time></trkpt><trkpt lat="41.89815" lon="-8.0099867"><ele>889.0</ele><time>2026-04-04T15:19:57.824Z</time></trkpt><trkpt lat="41.89821" lon="-8.0100333"><ele>888.9999999999999</ele><time>2026-04-04T15:19:58.824Z</time></trkpt><trkpt lat="41.89827" lon="-8.010105"><ele>889.0</ele><time>2026-04-04T15:19:59.824Z</time></trkpt><trkpt lat="41.89833" lon="-8.0102067"><ele>889.0</ele><time>2026-04-04T15:20:00.824Z</time></trkpt><trkpt lat="41.8983917" lon="-8.0102717"><ele>889.0</ele><time>2026-04-04T15:20:01.824Z</time></trkpt><trkpt lat="41.8984583" lon="-8.01033"><ele>888.9999999999999</ele><time>2026-04-04T15:20:02.824Z</time></trkpt><trkpt lat="41.8985367" lon="-8.0103733"><ele>889.0</ele><time>2026-04-04T15:20:03.823Z</time></trkpt><trkpt lat="41.8986233" lon="-8.010415"><ele>891.4000000000001</ele><time>2026-04-04T15:20:04.824Z</time></trkpt><trkpt lat="41.8987267" lon="-8.0104417"><ele>893.8000000000001</ele><time>2026-04-04T15:20:05.823Z</time></trkpt><trkpt lat="41.8988417" lon="-8.010455"><ele>896.1999999999999</ele><time>2026-04-04T15:20:06.824Z</time></trkpt><trkpt lat="41.898945" lon="-8.0104833"><ele>898.5999999999999</ele><time>2026-04-04T15:20:07.823Z</time></trkpt><trkpt lat="41.89903" lon="-8.0105133"><ele>901.0</ele><time>2026-04-04T15:20:08.823Z</time></trkpt><trkpt lat="41.8991017" lon="-8.0105333"><ele>900.9999999999999</ele><time>2026-04-04T15:20:09.824Z</time></trkpt><trkpt lat="41.8991683" lon="-8.010535"><ele>901.0</ele><time>2026-04-04T15:20:10.824Z</time></trkpt><trkpt lat="41.8992867" lon="-8.01051"><ele>901.0</ele><time>2026-04-04T15:20:12.823Z</time></trkpt><trkpt lat="41.8993617" lon="-8.0105033"><ele>901.0</ele><time>2026-04-04T15:20:13.823Z</time></trkpt><trkpt lat="41.8994367" lon="-8.010505"><ele>900.9999999999999</ele><time>2026-04-04T15:20:14.824Z</time></trkpt><trkpt lat="41.8995167" lon="-8.01052"><ele>901.0</ele><time>2026-04-04T15:20:15.824Z</time></trkpt><trkpt lat="41.899605" lon="-8.010525"><ele>902.1999999999999</ele><time>2026-04-04T15:20:16.824Z</time></trkpt><trkpt lat="41.8996983" lon="-8.01052"><ele>903.3999999999999</ele><time>2026-04-04T15:20:17.823Z</time></trkpt><trkpt lat="41.8998" lon="-8.0105267"><ele>904.6</ele><time>2026-04-04T15:20:18.823Z</time></trkpt><trkpt lat="41.899915" lon="-8.0105317"><ele>905.8</ele><time>2026-04-04T15:20:19.823Z</time></trkpt><trkpt lat="41.9000433" lon="-8.0105333"><ele>907.0</ele><time>2026-04-04T15:20:20.824Z</time></trkpt><trkpt lat="41.9001683" lon="-8.0105433"><ele>906.9999999999999</ele><time>2026-04-04T15:20:21.823Z</time></trkpt><trkpt lat="41.900265" lon="-8.0105717"><ele>907.0</ele><time>2026-04-04T15:20:22.823Z</time></trkpt><trkpt lat="41.9003483" lon="-8.0106117"><ele>907.0</ele><time>2026-04-04T15:20:23.822Z</time></trkpt><trkpt lat="41.9004283" lon="-8.01064"><ele>907.0</ele><time>2026-04-04T15:20:24.824Z</time></trkpt><trkpt lat="41.90051" lon="-8.0106583"><ele>906.9999999999999</ele><time>2026-04-04T15:20:25.823Z</time></trkpt><trkpt lat="41.90059" lon="-8.0106533"><ele>907.0</ele><time>2026-04-04T15:20:26.824Z</time></trkpt><trkpt lat="41.90068" lon="-8.0106517"><ele>906.9999999999999</ele><time>2026-04-04T15:20:27.824Z</time></trkpt><trkpt lat="41.9007667" lon="-8.01065"><ele>907.0</ele><time>2026-04-04T15:20:28.822Z</time></trkpt><trkpt lat="41.9008467" lon="-8.0106533"><ele>907.0</ele><time>2026-04-04T15:20:29.825Z</time></trkpt><trkpt lat="41.9009117" lon="-8.01066"><ele>907.0</ele><time>2026-04-04T15:20:30.824Z</time></trkpt><trkpt lat="41.901025" lon="-8.0106717"><ele>906.9999999999999</ele><time>2026-04-04T15:20:32.824Z</time></trkpt><trkpt lat="41.9011067" lon="-8.01075"><ele>907.0</ele><time>2026-04-04T15:20:34.822Z</time></trkpt><trkpt lat="41.9011517" lon="-8.0108383"><ele>902.6666666666666</ele><time>2026-04-04T15:20:35.823Z</time></trkpt><trkpt lat="41.90121" lon="-8.0109367"><ele>898.3333333333333</ele><time>2026-04-04T15:20:36.822Z</time></trkpt><trkpt lat="41.90127" lon="-8.0110233"><ele>894.0</ele><time>2026-04-04T15:20:37.822Z</time></trkpt><trkpt lat="41.9013417" lon="-8.011105"><ele>889.6666666666667</ele><time>2026-04-04T15:20:38.824Z</time></trkpt><trkpt lat="41.9014067" lon="-8.0111733"><ele>885.3333333333334</ele><time>2026-04-04T15:20:39.822Z</time></trkpt><trkpt lat="41.90147" lon="-8.01122"><ele>881.0</ele><time>2026-04-04T15:20:40.823Z</time></trkpt><trkpt lat="41.9015333" lon="-8.01125"><ele>881.0</ele><time>2026-04-04T15:20:41.823Z</time></trkpt><trkpt lat="41.9016067" lon="-8.0112517"><ele>880.9999999999999</ele><time>2026-04-04T15:20:42.823Z</time></trkpt><trkpt lat="41.901685" lon="-8.01124"><ele>880.9999999999999</ele><time>2026-04-04T15:20:43.822Z</time></trkpt><trkpt lat="41.901775" lon="-8.0112183"><ele>881.0</ele><time>2026-04-04T15:20:44.822Z</time></trkpt><trkpt lat="41.9018833" lon="-8.0111567"><ele>881.0</ele><time>2026-04-04T15:20:45.823Z</time></trkpt><trkpt lat="41.9020083" lon="-8.0110717"><ele>880.1999999999999</ele><time>2026-04-04T15:20:46.822Z</time></trkpt><trkpt lat="41.9021167" lon="-8.011015"><ele>879.3999999999999</ele><time>2026-04-04T15:20:47.823Z</time></trkpt><trkpt lat="41.90221" lon="-8.0109817"><ele>878.6</ele><time>2026-04-04T15:20:48.823Z</time></trkpt><trkpt lat="41.902295" lon="-8.01097"><ele>877.8</ele><time>2026-04-04T15:20:49.823Z</time></trkpt><trkpt lat="41.9023883" lon="-8.0109783"><ele>877.0</ele><time>2026-04-04T15:20:50.823Z</time></trkpt><trkpt lat="41.9024783" lon="-8.0109733"><ele>877.0</ele><time>2026-04-04T15:20:51.822Z</time></trkpt><trkpt lat="41.902565" lon="-8.0109517"><ele>877.0</ele><time>2026-04-04T15:20:52.823Z</time></trkpt><trkpt lat="41.9026533" lon="-8.0109167"><ele>877.0</ele><time>2026-04-04T15:20:53.822Z</time></trkpt><trkpt lat="41.9027467" lon="-8.0108817"><ele>877.0</ele><time>2026-04-04T15:20:54.824Z</time></trkpt><trkpt lat="41.902845" lon="-8.010845"><ele>877.0</ele><time>2026-04-04T15:20:55.822Z</time></trkpt><trkpt lat="41.90295" lon="-8.0108133"><ele>879.3333333333333</ele><time>2026-04-04T15:20:56.823Z</time></trkpt><trkpt lat="41.90305" lon="-8.0107817"><ele>881.6666666666666</ele><time>2026-04-04T15:20:57.822Z</time></trkpt><trkpt lat="41.9031317" lon="-8.0107467"><ele>884.0</ele><time>2026-04-04T15:20:58.823Z</time></trkpt><trkpt lat="41.9032033" lon="-8.0106933"><ele>886.3333333333333</ele><time>2026-04-04T15:20:59.822Z</time></trkpt><trkpt lat="41.9032667" lon="-8.0106333"><ele>888.6666666666666</ele><time>2026-04-04T15:21:00.823Z</time></trkpt><trkpt lat="41.9033317" lon="-8.0105933"><ele>891.0</ele><time>2026-04-04T15:21:01.824Z</time></trkpt><trkpt lat="41.903395" lon="-8.0105767"><ele>890.8333333333334</ele><time>2026-04-04T15:21:02.823Z</time></trkpt><trkpt lat="41.90346" lon="-8.0105817"><ele>890.6666666666667</ele><time>2026-04-04T15:21:03.822Z</time></trkpt><trkpt lat="41.90354" lon="-8.01062"><ele>890.5</ele><time>2026-04-04T15:21:04.825Z</time></trkpt><trkpt lat="41.9036183" lon="-8.0106633"><ele>890.3333333333334</ele><time>2026-04-04T15:21:05.823Z</time></trkpt><trkpt lat="41.90369" lon="-8.0106867"><ele>890.1666666666667</ele><time>2026-04-04T15:21:06.823Z</time></trkpt><trkpt lat="41.9037633" lon="-8.01071"><ele>890.0</ele><time>2026-04-04T15:21:07.823Z</time></trkpt><trkpt lat="41.90384" lon="-8.010725"><ele>890.0</ele><time>2026-04-04T15:21:08.823Z</time></trkpt><trkpt lat="41.9039133" lon="-8.0107083"><ele>890.0</ele><time>2026-04-04T15:21:09.823Z</time></trkpt><trkpt lat="41.90401" lon="-8.01067"><ele>890.0</ele><time>2026-04-04T15:21:11.823Z</time></trkpt><trkpt lat="41.9040833" lon="-8.0106183"><ele>890.0</ele><time>2026-04-04T15:21:13.824Z</time></trkpt><trkpt lat="41.9041783" lon="-8.0106467"><ele>890.0</ele><time>2026-04-04T15:29:53.824Z</time></trkpt><trkpt lat="41.9042617" lon="-8.0107133"><ele>890.0</ele><time>2026-04-04T15:29:55.825Z</time></trkpt><trkpt lat="41.9043483" lon="-8.0107767"><ele>890.0</ele><time>2026-04-04T15:29:57.823Z</time></trkpt><trkpt lat="41.9044183" lon="-8.0108533"><ele>890.0</ele><time>2026-04-04T15:29:59.825Z</time></trkpt><trkpt lat="41.904485" lon="-8.0109533"><ele>890.0</ele><time>2026-04-04T15:30:01.824Z</time></trkpt><trkpt lat="41.904585" lon="-8.0111467"><ele>888.6666666666667</ele><time>2026-04-04T15:30:05.823Z</time></trkpt><trkpt lat="41.90467" lon="-8.01119"><ele>887.3333333333334</ele><time>2026-04-04T15:30:07.822Z</time></trkpt><trkpt lat="41.904735" lon="-8.011245"><ele>886.0</ele><time>2026-04-04T15:30:09.822Z</time></trkpt><trkpt lat="41.9047983" lon="-8.01128"><ele>884.6666666666667</ele><time>2026-04-04T15:30:11.823Z</time></trkpt><trkpt lat="41.9048833" lon="-8.01123"><ele>883.3333333333334</ele><time>2026-04-04T15:30:16.822Z</time></trkpt><trkpt lat="41.9049483" lon="-8.0111967"><ele>882.0</ele><time>2026-04-04T15:30:18.823Z</time></trkpt><trkpt lat="41.9050233" lon="-8.0111717"><ele>882.5714285714286</ele><time>2026-04-04T15:30:21.823Z</time></trkpt><trkpt lat="41.9050983" lon="-8.0111333"><ele>883.1428571428571</ele><time>2026-04-04T15:30:25.827Z</time></trkpt><trkpt lat="41.9051683" lon="-8.0111233"><ele>883.7142857142858</ele><time>2026-04-04T15:30:27.822Z</time></trkpt><trkpt lat="41.9052317" lon="-8.0111167"><ele>884.2857142857142</ele><time>2026-04-04T15:30:29.822Z</time></trkpt><trkpt lat="41.9053" lon="-8.011085"><ele>884.8571428571429</ele><time>2026-04-04T15:30:31.822Z</time></trkpt><trkpt lat="41.9053567" lon="-8.0110417"><ele>885.4285714285714</ele><time>2026-04-04T15:30:33.823Z</time></trkpt><trkpt lat="41.9054183" lon="-8.0110033"><ele>886.0</ele><time>2026-04-04T15:30:35.824Z</time></trkpt><trkpt lat="41.90551" lon="-8.01097"><ele>885.9999999999999</ele><time>2026-04-04T15:30:37.823Z</time></trkpt><trkpt lat="41.9055783" lon="-8.0109267"><ele>886.0</ele><time>2026-04-04T15:30:39.822Z</time></trkpt><trkpt lat="41.9056717" lon="-8.0109217"><ele>886.0</ele><time>2026-04-04T15:30:42.823Z</time></trkpt><trkpt lat="41.90574" lon="-8.010965"><ele>886.0</ele><time>2026-04-04T15:30:44.823Z</time></trkpt><trkpt lat="41.9058283" lon="-8.0110083"><ele>885.9999999999999</ele><time>2026-04-04T15:30:46.823Z</time></trkpt><trkpt lat="41.9059117" lon="-8.0110367"><ele>886.0</ele><time>2026-04-04T15:30:48.823Z</time></trkpt><trkpt lat="41.9060017" lon="-8.01106"><ele>886.1999999999999</ele><time>2026-04-04T15:30:50.823Z</time></trkpt><trkpt lat="41.9060883" lon="-8.0110633"><ele>886.3999999999999</ele><time>2026-04-04T15:30:52.822Z</time></trkpt><trkpt lat="41.9061883" lon="-8.0109983"><ele>886.6</ele><time>2026-04-04T15:30:54.823Z</time></trkpt><trkpt lat="41.9062883" lon="-8.0108883"><ele>886.8</ele><time>2026-04-04T15:30:56.827Z</time></trkpt><trkpt lat="41.9063433" lon="-8.0108267"><ele>887.0</ele><time>2026-04-04T15:30:57.823Z</time></trkpt><trkpt lat="41.9064033" lon="-8.0107683"><ele>888.3333333333334</ele><time>2026-04-04T15:30:58.822Z</time></trkpt><trkpt lat="41.906465" lon="-8.01071"><ele>889.6666666666667</ele><time>2026-04-04T15:30:59.824Z</time></trkpt><trkpt lat="41.90652" lon="-8.0106533"><ele>891.0</ele><time>2026-04-04T15:31:00.823Z</time></trkpt><trkpt lat="41.9065783" lon="-8.0106017"><ele>892.3333333333333</ele><time>2026-04-04T15:31:01.823Z</time></trkpt><trkpt lat="41.9066317" lon="-8.0105567"><ele>893.6666666666666</ele><time>2026-04-04T15:31:02.823Z</time></trkpt><trkpt lat="41.906725" lon="-8.0105"><ele>895.0</ele><time>2026-04-04T15:31:04.822Z</time></trkpt><trkpt lat="41.9068233" lon="-8.0104767"><ele>894.9999999999999</ele><time>2026-04-04T15:31:06.822Z</time></trkpt><trkpt lat="41.906935" lon="-8.0104667"><ele>895.0</ele><time>2026-04-04T15:31:08.823Z</time></trkpt><trkpt lat="41.9070033" lon="-8.01045"><ele>895.0</ele><time>2026-04-04T15:31:09.822Z</time></trkpt><trkpt lat="41.9070733" lon="-8.010425"><ele>895.0</ele><time>2026-04-04T15:31:10.823Z</time></trkpt><trkpt lat="41.90715" lon="-8.010395"><ele>894.9999999999999</ele><time>2026-04-04T15:31:11.824Z</time></trkpt><trkpt lat="41.90723" lon="-8.01036"><ele>895.0</ele><time>2026-04-04T15:31:12.823Z</time></trkpt><trkpt lat="41.9073133" lon="-8.0103233"><ele>895.0</ele><time>2026-04-04T15:31:13.823Z</time></trkpt><trkpt lat="41.9074" lon="-8.0102833"><ele>895.0</ele><time>2026-04-04T15:31:14.823Z</time></trkpt><trkpt lat="41.9074933" lon="-8.0102367"><ele>895.0</ele><time>2026-04-04T15:31:15.823Z</time></trkpt><trkpt lat="41.9075967" lon="-8.0101917"><ele>895.0</ele><time>2026-04-04T15:31:16.822Z</time></trkpt><trkpt lat="41.9076933" lon="-8.01014"><ele>895.0</ele><time>2026-04-04T15:31:17.823Z</time></trkpt><trkpt lat="41.9077933" lon="-8.01009"><ele>893.25</ele><time>2026-04-04T15:31:18.823Z</time></trkpt><trkpt lat="41.9078867" lon="-8.0100333"><ele>891.5</ele><time>2026-04-04T15:31:19.822Z</time></trkpt><trkpt lat="41.9079933" lon="-8.0099817"><ele>889.75</ele><time>2026-04-04T15:31:20.824Z</time></trkpt><trkpt lat="41.9081083" lon="-8.0099367"><ele>888.0</ele><time>2026-04-04T15:31:21.823Z</time></trkpt><trkpt lat="41.9082267" lon="-8.0098783"><ele>888.0</ele><time>2026-04-04T15:31:22.823Z</time></trkpt><trkpt lat="41.908345" lon="-8.0097933"><ele>888.0</ele><time>2026-04-04T15:31:23.823Z</time></trkpt><trkpt lat="41.9084717" lon="-8.0096767"><ele>888.0</ele><time>2026-04-04T15:31:24.823Z</time></trkpt><trkpt lat="41.9085967" lon="-8.009555"><ele>888.0</ele><time>2026-04-04T15:31:25.825Z</time></trkpt><trkpt lat="41.9087183" lon="-8.009435"><ele>888.0</ele><time>2026-04-04T15:31:26.823Z</time></trkpt><trkpt lat="41.9088233" lon="-8.0093283"><ele>888.0</ele><time>2026-04-04T15:31:27.822Z</time></trkpt><trkpt lat="41.908915" lon="-8.0092233"><ele>888.0</ele><time>2026-04-04T15:31:28.823Z</time></trkpt><trkpt lat="41.908985" lon="-8.0091317"><ele>888.0</ele><time>2026-04-04T15:31:29.824Z</time></trkpt><trkpt lat="41.909025" lon="-8.0090367"><ele>888.0</ele><time>2026-04-04T15:31:30.823Z</time></trkpt><trkpt lat="41.909055" lon="-8.0089467"><ele>888.2</ele><time>2026-04-04T15:31:31.823Z</time></trkpt><trkpt lat="41.9090433" lon="-8.0087967"><ele>888.4</ele><time>2026-04-04T15:31:33.823Z</time></trkpt><trkpt lat="41.908995" lon="-8.008715"><ele>888.6000000000001</ele><time>2026-04-04T15:31:34.822Z</time></trkpt><trkpt lat="41.90896" lon="-8.008635"><ele>888.8000000000001</ele><time>2026-04-04T15:31:35.824Z</time></trkpt><trkpt lat="41.9089083" lon="-8.0085717"><ele>889.0</ele><time>2026-04-04T15:31:36.823Z</time></trkpt><trkpt lat="41.90878" lon="-8.0084983"><ele>889.0</ele><time>2026-04-04T15:31:37.823Z</time></trkpt><trkpt lat="41.9086967" lon="-8.0084233"><ele>889.0000000000001</ele><time>2026-04-04T15:31:38.823Z</time></trkpt><trkpt lat="41.9086067" lon="-8.0083417"><ele>889.0000000000001</ele><time>2026-04-04T15:31:39.822Z</time></trkpt><trkpt lat="41.9085433" lon="-8.008255"><ele>889.0</ele><time>2026-04-04T15:31:40.822Z</time></trkpt><trkpt lat="41.908495" lon="-8.0081733"><ele>889.0</ele><time>2026-04-04T15:31:41.823Z</time></trkpt><trkpt lat="41.9084667" lon="-8.0080767"><ele>890.6</ele><time>2026-04-04T15:31:42.823Z</time></trkpt><trkpt lat="41.908475" lon="-8.0079767"><ele>892.2</ele><time>2026-04-04T15:31:43.823Z</time></trkpt><trkpt lat="41.908515" lon="-8.007855"><ele>893.8000000000001</ele><time>2026-04-04T15:31:44.824Z</time></trkpt><trkpt lat="41.9085733" lon="-8.0077283"><ele>895.4000000000001</ele><time>2026-04-04T15:31:45.823Z</time></trkpt><trkpt lat="41.9086483" lon="-8.00761"><ele>897.0</ele><time>2026-04-04T15:31:46.823Z</time></trkpt><trkpt lat="41.9087067" lon="-8.0075217"><ele>897.0</ele><time>2026-04-04T15:31:47.823Z</time></trkpt><trkpt lat="41.9087567" lon="-8.0074533"><ele>897.0</ele><time>2026-04-04T15:31:48.824Z</time></trkpt><trkpt lat="41.908855" lon="-8.007385"><ele>897.0</ele><time>2026-04-04T15:31:50.824Z</time></trkpt><trkpt lat="41.908995" lon="-8.007465"><ele>897.0</ele><time>2026-04-04T15:31:52.823Z</time></trkpt><trkpt lat="41.909085" lon="-8.0075217"><ele>897.0</ele><time>2026-04-04T15:31:53.823Z</time></trkpt><trkpt lat="41.9091617" lon="-8.0075333"><ele>896.8</ele><time>2026-04-04T15:31:54.823Z</time></trkpt><trkpt lat="41.9092483" lon="-8.0076067"><ele>896.6</ele><time>2026-04-04T15:31:55.823Z</time></trkpt><trkpt lat="41.9093317" lon="-8.0075583"><ele>896.3999999999999</ele><time>2026-04-04T15:31:57.823Z</time></trkpt><trkpt lat="41.9093883" lon="-8.007385"><ele>896.1999999999999</ele><time>2026-04-04T15:31:59.823Z</time></trkpt><trkpt lat="41.9094233" lon="-8.0073133"><ele>896.0</ele><time>2026-04-04T15:32:00.826Z</time></trkpt><trkpt lat="41.9095317" lon="-8.00722"><ele>899.1999999999999</ele><time>2026-04-04T15:32:02.824Z</time></trkpt><trkpt lat="41.9096067" lon="-8.0071933"><ele>902.3999999999999</ele><time>2026-04-04T15:32:03.823Z</time></trkpt><trkpt lat="41.909695" lon="-8.0071833"><ele>905.6</ele><time>2026-04-04T15:32:04.823Z</time></trkpt><trkpt lat="41.9097917" lon="-8.00719"><ele>908.8</ele><time>2026-04-04T15:32:05.824Z</time></trkpt><trkpt lat="41.909885" lon="-8.0071917"><ele>912.0</ele><time>2026-04-04T15:32:06.823Z</time></trkpt><trkpt lat="41.9099867" lon="-8.0071867"><ele>909.75</ele><time>2026-04-04T15:32:07.823Z</time></trkpt><trkpt lat="41.9101033" lon="-8.0071617"><ele>907.5</ele><time>2026-04-04T15:32:08.824Z</time></trkpt><trkpt lat="41.91022" lon="-8.0071317"><ele>905.25</ele><time>2026-04-04T15:32:09.822Z</time></trkpt><trkpt lat="41.9103317" lon="-8.00711"><ele>903.0</ele><time>2026-04-04T15:32:10.823Z</time></trkpt><trkpt lat="41.910445" lon="-8.0070983"><ele>903.0</ele><time>2026-04-04T15:32:11.823Z</time></trkpt><trkpt lat="41.9105517" lon="-8.0070983"><ele>903.0</ele><time>2026-04-04T15:32:12.824Z</time></trkpt><trkpt lat="41.910655" lon="-8.007105"><ele>903.0</ele><time>2026-04-04T15:32:13.823Z</time></trkpt><trkpt lat="41.910745" lon="-8.007105"><ele>903.0</ele><time>2026-04-04T15:32:14.824Z</time></trkpt><trkpt lat="41.9108367" lon="-8.0071"><ele>903.0</ele><time>2026-04-04T15:32:15.825Z</time></trkpt><trkpt lat="41.91091" lon="-8.007085"><ele>901.1666666666666</ele><time>2026-04-04T15:32:16.823Z</time></trkpt><trkpt lat="41.9110133" lon="-8.00706"><ele>899.3333333333333</ele><time>2026-04-04T15:32:18.823Z</time></trkpt><trkpt lat="41.911085" lon="-8.0070583"><ele>897.5</ele><time>2026-04-04T15:32:20.824Z</time></trkpt><trkpt lat="41.911165" lon="-8.0070533"><ele>895.6666666666666</ele><time>2026-04-04T15:32:22.824Z</time></trkpt><trkpt lat="41.9112433" lon="-8.0070567"><ele>893.8333333333333</ele><time>2026-04-04T15:32:24.823Z</time></trkpt><trkpt lat="41.91133" lon="-8.0070633"><ele>892.0</ele><time>2026-04-04T15:32:26.826Z</time></trkpt><trkpt lat="41.9114183" lon="-8.0070667"><ele>891.9999999999999</ele><time>2026-04-04T15:32:28.824Z</time></trkpt><trkpt lat="41.9115017" lon="-8.007065"><ele>892.0</ele><time>2026-04-04T15:32:30.824Z</time></trkpt><trkpt lat="41.9115783" lon="-8.0070783"><ele>892.0</ele><time>2026-04-04T15:32:32.825Z</time></trkpt><trkpt lat="41.9116583" lon="-8.0070983"><ele>892.0</ele><time>2026-04-04T15:32:34.824Z</time></trkpt><trkpt lat="41.9117417" lon="-8.0071167"><ele>891.9999999999999</ele><time>2026-04-04T15:32:36.825Z</time></trkpt><trkpt lat="41.91183" lon="-8.0071367"><ele>892.0</ele><time>2026-04-04T15:32:38.825Z</time></trkpt><trkpt lat="41.9119217" lon="-8.0071633"><ele>890.4000000000001</ele><time>2026-04-04T15:32:40.824Z</time></trkpt><trkpt lat="41.9120233" lon="-8.007205"><ele>888.8000000000001</ele><time>2026-04-04T15:32:42.824Z</time></trkpt><trkpt lat="41.9121383" lon="-8.0072467"><ele>887.2</ele><time>2026-04-04T15:32:44.825Z</time></trkpt><trkpt lat="41.9122517" lon="-8.0072933"><ele>885.6</ele><time>2026-04-04T15:32:46.824Z</time></trkpt><trkpt lat="41.9123133" lon="-8.007325"><ele>884.0</ele><time>2026-04-04T15:32:47.824Z</time></trkpt><trkpt lat="41.912375" lon="-8.0073517"><ele>884.0</ele><time>2026-04-04T15:32:48.825Z</time></trkpt><trkpt lat="41.912435" lon="-8.00738"><ele>884.0000000000001</ele><time>2026-04-04T15:32:49.824Z</time></trkpt><trkpt lat="41.9125467" lon="-8.007425"><ele>884.0000000000001</ele><time>2026-04-04T15:32:51.824Z</time></trkpt><trkpt lat="41.9126433" lon="-8.007455"><ele>884.0</ele><time>2026-04-04T15:32:53.824Z</time></trkpt><trkpt lat="41.9127383" lon="-8.007495"><ele>884.0</ele><time>2026-04-04T15:32:55.824Z</time></trkpt><trkpt lat="41.9128383" lon="-8.0074983"><ele>882.6</ele><time>2026-04-04T15:32:57.824Z</time></trkpt><trkpt lat="41.9129483" lon="-8.0074467"><ele>881.2</ele><time>2026-04-04T15:32:59.824Z</time></trkpt><trkpt lat="41.9130083" lon="-8.0073917"><ele>879.8000000000001</ele><time>2026-04-04T15:33:00.825Z</time></trkpt><trkpt lat="41.9130717" lon="-8.0073167"><ele>878.4000000000001</ele><time>2026-04-04T15:33:01.824Z</time></trkpt><trkpt lat="41.9131383" lon="-8.00722"><ele>877.0</ele><time>2026-04-04T15:33:02.826Z</time></trkpt><trkpt lat="41.91321" lon="-8.00712"><ele>877.0</ele><time>2026-04-04T15:33:03.824Z</time></trkpt><trkpt lat="41.9132883" lon="-8.0070183"><ele>877.0</ele><time>2026-04-04T15:33:04.822Z</time></trkpt><trkpt lat="41.913365" lon="-8.0069267"><ele>877.0</ele><time>2026-04-04T15:33:05.823Z</time></trkpt><trkpt lat="41.913445" lon="-8.006835"><ele>877.0</ele><time>2026-04-04T15:33:06.822Z</time></trkpt><trkpt lat="41.9135233" lon="-8.0067367"><ele>877.0</ele><time>2026-04-04T15:33:07.823Z</time></trkpt><trkpt lat="41.9136067" lon="-8.0066417"><ele>875.8</ele><time>2026-04-04T15:33:08.823Z</time></trkpt><trkpt lat="41.9136883" lon="-8.0065583"><ele>874.6</ele><time>2026-04-04T15:33:09.822Z</time></trkpt><trkpt lat="41.913775" lon="-8.00649"><ele>873.3999999999999</ele><time>2026-04-04T15:33:10.822Z</time></trkpt><trkpt lat="41.9138617" lon="-8.0064383"><ele>872.1999999999999</ele><time>2026-04-04T15:33:11.823Z</time></trkpt><trkpt lat="41.91395" lon="-8.0063967"><ele>871.0</ele><time>2026-04-04T15:33:12.825Z</time></trkpt><trkpt lat="41.9140433" lon="-8.00637"><ele>871.0</ele><time>2026-04-04T15:33:13.822Z</time></trkpt><trkpt lat="41.91414" lon="-8.0063533"><ele>870.9999999999999</ele><time>2026-04-04T15:33:14.825Z</time></trkpt><trkpt lat="41.9142367" lon="-8.0063433"><ele>870.9999999999999</ele><time>2026-04-04T15:33:15.822Z</time></trkpt><trkpt lat="41.9143383" lon="-8.0063383"><ele>871.0</ele><time>2026-04-04T15:33:16.823Z</time></trkpt><trkpt lat="41.9144417" lon="-8.006335"><ele>871.0</ele><time>2026-04-04T15:33:17.824Z</time></trkpt><trkpt lat="41.9145467" lon="-8.006335"><ele>869.5999999999999</ele><time>2026-04-04T15:33:18.825Z</time></trkpt><trkpt lat="41.9146567" lon="-8.0063333"><ele>868.1999999999999</ele><time>2026-04-04T15:33:19.824Z</time></trkpt><trkpt lat="41.91476" lon="-8.0063217"><ele>866.8000000000001</ele><time>2026-04-04T15:33:20.823Z</time></trkpt><trkpt lat="41.91487" lon="-8.0062983"><ele>865.4000000000001</ele><time>2026-04-04T15:33:21.822Z</time></trkpt><trkpt lat="41.9149767" lon="-8.0062683"><ele>864.0</ele><time>2026-04-04T15:33:22.824Z</time></trkpt><trkpt lat="41.915075" lon="-8.0062233"><ele>864.0</ele><time>2026-04-04T15:33:23.822Z</time></trkpt><trkpt lat="41.9151683" lon="-8.0061667"><ele>864.0000000000001</ele><time>2026-04-04T15:33:24.822Z</time></trkpt><trkpt lat="41.9152283" lon="-8.0060767"><ele>864.0000000000001</ele><time>2026-04-04T15:33:25.825Z</time></trkpt><trkpt lat="41.9152683" lon="-8.0059717"><ele>864.0</ele><time>2026-04-04T15:33:26.823Z</time></trkpt><trkpt lat="41.9153133" lon="-8.0058567"><ele>864.0</ele><time>2026-04-04T15:33:27.824Z</time></trkpt><trkpt lat="41.9153617" lon="-8.005735"><ele>865.6</ele><time>2026-04-04T15:33:28.826Z</time></trkpt><trkpt lat="41.9154133" lon="-8.0056183"><ele>867.2</ele><time>2026-04-04T15:33:29.824Z</time></trkpt><trkpt lat="41.915465" lon="-8.00551"><ele>868.8000000000001</ele><time>2026-04-04T15:33:30.826Z</time></trkpt><trkpt lat="41.91552" lon="-8.005405"><ele>870.4000000000001</ele><time>2026-04-04T15:33:31.824Z</time></trkpt><trkpt lat="41.9155833" lon="-8.00532"><ele>872.0</ele><time>2026-04-04T15:33:32.825Z</time></trkpt><trkpt lat="41.915665" lon="-8.0052467"><ele>872.0</ele><time>2026-04-04T15:33:33.825Z</time></trkpt><trkpt lat="41.91575" lon="-8.0051733"><ele>872.0</ele><time>2026-04-04T15:33:34.824Z</time></trkpt><trkpt lat="41.9158383" lon="-8.0051017"><ele>872.0</ele><time>2026-04-04T15:33:35.824Z</time></trkpt><trkpt lat="41.91593" lon="-8.0050267"><ele>872.0</ele><time>2026-04-04T15:33:36.826Z</time></trkpt><trkpt lat="41.9160183" lon="-8.00494"><ele>872.0</ele><time>2026-04-04T15:33:37.824Z</time></trkpt><trkpt lat="41.9161117" lon="-8.0048483"><ele>873.5</ele><time>2026-04-04T15:33:38.824Z</time></trkpt><trkpt lat="41.91621" lon="-8.004755"><ele>875.0</ele><time>2026-04-04T15:33:39.825Z</time></trkpt><trkpt lat="41.9163033" lon="-8.004665"><ele>876.5</ele><time>2026-04-04T15:33:40.822Z</time></trkpt><trkpt lat="41.9163917" lon="-8.0045783"><ele>878.0</ele><time>2026-04-04T15:33:41.824Z</time></trkpt><trkpt lat="41.9164783" lon="-8.0044967"><ele>878.0</ele><time>2026-04-04T15:33:42.827Z</time></trkpt><trkpt lat="41.9165633" lon="-8.00442"><ele>878.0</ele><time>2026-04-04T15:33:43.825Z</time></trkpt><trkpt lat="41.9166467" lon="-8.0043417"><ele>878.0</ele><time>2026-04-04T15:33:44.823Z</time></trkpt><trkpt lat="41.9167317" lon="-8.004265"><ele>878.0</ele><time>2026-04-04T15:33:45.826Z</time></trkpt><trkpt lat="41.9168183" lon="-8.0041833"><ele>878.0</ele><time>2026-04-04T15:33:46.826Z</time></trkpt><trkpt lat="41.9169" lon="-8.0041017"><ele>876.25</ele><time>2026-04-04T15:33:47.823Z</time></trkpt><trkpt lat="41.9169867" lon="-8.004015"><ele>874.5</ele><time>2026-04-04T15:33:48.824Z</time></trkpt><trkpt lat="41.9170783" lon="-8.0039283"><ele>872.75</ele><time>2026-04-04T15:33:49.823Z</time></trkpt><trkpt lat="41.917175" lon="-8.003835"><ele>871.0</ele><time>2026-04-04T15:33:50.826Z</time></trkpt><trkpt lat="41.9172717" lon="-8.0037483"><ele>871.0</ele><time>2026-04-04T15:33:51.824Z</time></trkpt><trkpt lat="41.9173683" lon="-8.0036583"><ele>871.0</ele><time>2026-04-04T15:33:52.825Z</time></trkpt><trkpt lat="41.917465" lon="-8.0035633"><ele>871.0</ele><time>2026-04-04T15:33:53.823Z</time></trkpt><trkpt lat="41.9175633" lon="-8.0034633"><ele>871.0</ele><time>2026-04-04T15:33:54.823Z</time></trkpt><trkpt lat="41.9176667" lon="-8.0033617"><ele>870.1999999999999</ele><time>2026-04-04T15:33:55.823Z</time></trkpt><trkpt lat="41.9177667" lon="-8.0032667"><ele>869.3999999999999</ele><time>2026-04-04T15:33:56.831Z</time></trkpt><trkpt lat="41.91786" lon="-8.0031767"><ele>868.6</ele><time>2026-04-04T15:33:57.826Z</time></trkpt><trkpt lat="41.9179483" lon="-8.0030917"><ele>867.8</ele><time>2026-04-04T15:33:58.824Z</time></trkpt><trkpt lat="41.9180317" lon="-8.0030133"><ele>867.0</ele><time>2026-04-04T15:33:59.826Z</time></trkpt><trkpt lat="41.9181067" lon="-8.0029433"><ele>867.0</ele><time>2026-04-04T15:34:00.822Z</time></trkpt><trkpt lat="41.9181783" lon="-8.0028817"><ele>867.0</ele><time>2026-04-04T15:34:01.823Z</time></trkpt><trkpt lat="41.918245" lon="-8.00282"><ele>867.0</ele><time>2026-04-04T15:34:02.825Z</time></trkpt><trkpt lat="41.9183083" lon="-8.00276"><ele>867.0</ele><time>2026-04-04T15:34:03.823Z</time></trkpt><trkpt lat="41.9183683" lon="-8.0027017"><ele>867.0</ele><time>2026-04-04T15:34:04.824Z</time></trkpt><trkpt lat="41.9184267" lon="-8.0026383"><ele>867.0</ele><time>2026-04-04T15:34:05.824Z</time></trkpt><trkpt lat="41.9184833" lon="-8.0025683"><ele>866.2</ele><time>2026-04-04T15:34:06.824Z</time></trkpt><trkpt lat="41.918545" lon="-8.00249"><ele>865.4000000000001</ele><time>2026-04-04T15:34:07.824Z</time></trkpt><trkpt lat="41.9186117" lon="-8.0024083"><ele>864.5999999999999</ele><time>2026-04-04T15:34:08.824Z</time></trkpt><trkpt lat="41.9186783" lon="-8.0023233"><ele>863.8</ele><time>2026-04-04T15:34:09.823Z</time></trkpt><trkpt lat="41.9187417" lon="-8.002235"><ele>863.0</ele><time>2026-04-04T15:34:10.824Z</time></trkpt><trkpt lat="41.9188033" lon="-8.00214"><ele>863.0</ele><time>2026-04-04T15:34:11.826Z</time></trkpt><trkpt lat="41.9188667" lon="-8.0020417"><ele>863.0</ele><time>2026-04-04T15:34:12.823Z</time></trkpt><trkpt lat="41.9189383" lon="-8.0019383"><ele>863.0</ele><time>2026-04-04T15:34:13.822Z</time></trkpt><trkpt lat="41.919015" lon="-8.00183"><ele>863.0</ele><time>2026-04-04T15:34:14.825Z</time></trkpt><trkpt lat="41.9191017" lon="-8.0017217"><ele>863.0</ele><time>2026-04-04T15:34:15.823Z</time></trkpt><trkpt lat="41.9191967" lon="-8.00162"><ele>860.0</ele><time>2026-04-04T15:34:16.823Z</time></trkpt><trkpt lat="41.9193017" lon="-8.0015183"><ele>857.0</ele><time>2026-04-04T15:34:17.823Z</time></trkpt><trkpt lat="41.9194033" lon="-8.0014267"><ele>854.0</ele><time>2026-04-04T15:34:18.826Z</time></trkpt><trkpt lat="41.9195017" lon="-8.0013417"><ele>851.0</ele><time>2026-04-04T15:34:19.824Z</time></trkpt><trkpt lat="41.919595" lon="-8.001265"><ele>851.0000000000001</ele><time>2026-04-04T15:34:20.824Z</time></trkpt><trkpt lat="41.919685" lon="-8.0012033"><ele>851.0</ele><time>2026-04-04T15:34:21.823Z</time></trkpt><trkpt lat="41.9197717" lon="-8.0011567"><ele>851.0</ele><time>2026-04-04T15:34:22.825Z</time></trkpt><trkpt lat="41.9198533" lon="-8.0011333"><ele>851.0</ele><time>2026-04-04T15:34:23.823Z</time></trkpt><trkpt lat="41.9199417" lon="-8.0011383"><ele>851.0000000000001</ele><time>2026-04-04T15:34:24.823Z</time></trkpt><trkpt lat="41.9200233" lon="-8.0011417"><ele>851.0</ele><time>2026-04-04T15:34:25.823Z</time></trkpt><trkpt lat="41.920105" lon="-8.0011367"><ele>850.8333333333334</ele><time>2026-04-04T15:34:26.825Z</time></trkpt><trkpt lat="41.9201833" lon="-8.0011167"><ele>850.6666666666667</ele><time>2026-04-04T15:34:27.823Z</time></trkpt><trkpt lat="41.9202633" lon="-8.0010717"><ele>850.5</ele><time>2026-04-04T15:34:28.823Z</time></trkpt><trkpt lat="41.920345" lon="-8.0010233"><ele>850.3333333333333</ele><time>2026-04-04T15:34:29.824Z</time></trkpt><trkpt lat="41.9204283" lon="-8.0009733"><ele>850.1666666666666</ele><time>2026-04-04T15:34:30.824Z</time></trkpt><trkpt lat="41.9205167" lon="-8.000915"><ele>850.0</ele><time>2026-04-04T15:34:31.825Z</time></trkpt><trkpt lat="41.9206117" lon="-8.000855"><ele>847.0</ele><time>2026-04-04T15:34:32.824Z</time></trkpt><trkpt lat="41.9207117" lon="-8.000795"><ele>844.0</ele><time>2026-04-04T15:34:33.823Z</time></trkpt><trkpt lat="41.92082" lon="-8.0007317"><ele>841.0</ele><time>2026-04-04T15:34:34.823Z</time></trkpt><trkpt lat="41.9209333" lon="-8.0006683"><ele>838.0</ele><time>2026-04-04T15:34:35.825Z</time></trkpt><trkpt lat="41.9210517" lon="-8.0006"><ele>836.0</ele><time>2026-04-04T15:34:36.824Z</time></trkpt><trkpt lat="41.9211667" lon="-8.00054"><ele>834.0</ele><time>2026-04-04T15:34:37.824Z</time></trkpt><trkpt lat="41.92128" lon="-8.0004783"><ele>832.0</ele><time>2026-04-04T15:34:38.824Z</time></trkpt><trkpt lat="41.9213967" lon="-8.0004217"><ele>830.0</ele><time>2026-04-04T15:34:39.823Z</time></trkpt><trkpt lat="41.921515" lon="-8.0003567"><ele>830.0</ele><time>2026-04-04T15:34:40.824Z</time></trkpt><trkpt lat="41.921625" lon="-8.0003017"><ele>830.0</ele><time>2026-04-04T15:34:41.824Z</time></trkpt><trkpt lat="41.9217267" lon="-8.0002467"><ele>830.0</ele><time>2026-04-04T15:34:42.824Z</time></trkpt><trkpt lat="41.9218233" lon="-8.000175"><ele>830.0</ele><time>2026-04-04T15:34:43.824Z</time></trkpt><trkpt lat="41.9219133" lon="-8.0000833"><ele>827.75</ele><time>2026-04-04T15:34:44.824Z</time></trkpt><trkpt lat="41.9220017" lon="-7.9999767"><ele>825.5</ele><time>2026-04-04T15:34:45.825Z</time></trkpt><trkpt lat="41.922095" lon="-7.9998633"><ele>823.25</ele><time>2026-04-04T15:34:46.825Z</time></trkpt><trkpt lat="41.9221867" lon="-7.999755"><ele>821.0</ele><time>2026-04-04T15:34:47.824Z</time></trkpt><trkpt lat="41.92228" lon="-7.999655"><ele>821.0</ele><time>2026-04-04T15:34:48.824Z</time></trkpt><trkpt lat="41.9223617" lon="-7.99956"><ele>821.0</ele><time>2026-04-04T15:34:49.824Z</time></trkpt><trkpt lat="41.9224433" lon="-7.9994567"><ele>821.0</ele><time>2026-04-04T15:34:50.825Z</time></trkpt><trkpt lat="41.922525" lon="-7.9993583"><ele>821.0</ele><time>2026-04-04T15:34:51.823Z</time></trkpt><trkpt lat="41.9226067" lon="-7.9992567"><ele>821.0</ele><time>2026-04-04T15:34:52.824Z</time></trkpt><trkpt lat="41.9226783" lon="-7.9991583"><ele>816.0</ele><time>2026-04-04T15:34:53.824Z</time></trkpt><trkpt lat="41.9227283" lon="-7.99906"><ele>811.0</ele><time>2026-04-04T15:34:54.824Z</time></trkpt><trkpt lat="41.9227617" lon="-7.9989583"><ele>806.0</ele><time>2026-04-04T15:34:55.825Z</time></trkpt><trkpt lat="41.9227883" lon="-7.9988467"><ele>801.0</ele><time>2026-04-04T15:34:56.826Z</time></trkpt><trkpt lat="41.9227833" lon="-7.998725"><ele>796.0</ele><time>2026-04-04T15:34:57.823Z</time></trkpt><trkpt lat="41.9227617" lon="-7.9985917"><ele>796.0</ele><time>2026-04-04T15:34:58.824Z</time></trkpt><trkpt lat="41.922695" lon="-7.9984383"><ele>796.0</ele><time>2026-04-04T15:34:59.825Z</time></trkpt><trkpt lat="41.9226467" lon="-7.9982867"><ele>796.0</ele><time>2026-04-04T15:35:00.823Z</time></trkpt><trkpt lat="41.922595" lon="-7.99813"><ele>796.0</ele><time>2026-04-04T15:35:01.823Z</time></trkpt><trkpt lat="41.9225483" lon="-7.9979683"><ele>800.0</ele><time>2026-04-04T15:35:02.824Z</time></trkpt><trkpt lat="41.9225117" lon="-7.9978033"><ele>804.0</ele><time>2026-04-04T15:35:03.823Z</time></trkpt><trkpt lat="41.922485" lon="-7.99765"><ele>808.0</ele><time>2026-04-04T15:35:04.823Z</time></trkpt><trkpt lat="41.92247" lon="-7.997495"><ele>812.0</ele><time>2026-04-04T15:35:05.824Z</time></trkpt><trkpt lat="41.922465" lon="-7.9973533"><ele>812.0</ele><time>2026-04-04T15:35:06.823Z</time></trkpt><trkpt lat="41.92246" lon="-7.997225"><ele>812.0</ele><time>2026-04-04T15:35:07.826Z</time></trkpt><trkpt lat="41.9224483" lon="-7.997105"><ele>812.0</ele><time>2026-04-04T15:35:08.823Z</time></trkpt><trkpt lat="41.922435" lon="-7.9969767"><ele>812.0</ele><time>2026-04-04T15:35:09.823Z</time></trkpt><trkpt lat="41.9224167" lon="-7.99683"><ele>812.0</ele><time>2026-04-04T15:35:10.826Z</time></trkpt><trkpt lat="41.9223967" lon="-7.9966817"><ele>811.0</ele><time>2026-04-04T15:35:11.826Z</time></trkpt><trkpt lat="41.92237" lon="-7.9965283"><ele>810.0</ele><time>2026-04-04T15:35:12.823Z</time></trkpt><trkpt lat="41.9223367" lon="-7.99638"><ele>809.0</ele><time>2026-04-04T15:35:13.824Z</time></trkpt><trkpt lat="41.9223" lon="-7.9962417"><ele>808.0</ele><time>2026-04-04T15:35:14.825Z</time></trkpt><trkpt lat="41.922265" lon="-7.996105"><ele>807.0</ele><time>2026-04-04T15:35:15.827Z</time></trkpt><trkpt lat="41.9222233" lon="-7.9959833"><ele>807.0</ele><time>2026-04-04T15:35:16.825Z</time></trkpt><trkpt lat="41.92217" lon="-7.99587"><ele>807.0</ele><time>2026-04-04T15:35:17.825Z</time></trkpt><trkpt lat="41.9221" lon="-7.9957683"><ele>807.0</ele><time>2026-04-04T15:35:18.825Z</time></trkpt><trkpt lat="41.922015" lon="-7.99567"><ele>807.0</ele><time>2026-04-04T15:35:19.824Z</time></trkpt><trkpt lat="41.9219317" lon="-7.9955617"><ele>807.0</ele><time>2026-04-04T15:35:20.825Z</time></trkpt><trkpt lat="41.9218533" lon="-7.995445"><ele>808.0</ele><time>2026-04-04T15:35:21.823Z</time></trkpt><trkpt lat="41.9217983" lon="-7.9953233"><ele>809.0</ele><time>2026-04-04T15:35:22.824Z</time></trkpt><trkpt lat="41.9217567" lon="-7.99521"><ele>810.0</ele><time>2026-04-04T15:35:23.825Z</time></trkpt><trkpt lat="41.9217267" lon="-7.9951117"><ele>811.0</ele><time>2026-04-04T15:35:24.825Z</time></trkpt><trkpt lat="41.921715" lon="-7.9950017"><ele>812.0</ele><time>2026-04-04T15:35:26.826Z</time></trkpt><trkpt lat="41.9218017" lon="-7.9949633"><ele>809.1666666666667</ele><time>2026-04-04T15:35:29.826Z</time></trkpt><trkpt lat="41.9219183" lon="-7.9949167"><ele>806.3333333333334</ele><time>2026-04-04T15:35:31.824Z</time></trkpt><trkpt lat="41.921985" lon="-7.9948767"><ele>803.5</ele><time>2026-04-04T15:35:32.823Z</time></trkpt><trkpt lat="41.922055" lon="-7.99484"><ele>800.6666666666667</ele><time>2026-04-04T15:35:33.823Z</time></trkpt><trkpt lat="41.9221233" lon="-7.9948183"><ele>797.8333333333334</ele><time>2026-04-04T15:35:34.823Z</time></trkpt><trkpt lat="41.9221967" lon="-7.99482"><ele>795.0</ele><time>2026-04-04T15:35:35.824Z</time></trkpt><trkpt lat="41.92229" lon="-7.994855"><ele>795.0</ele><time>2026-04-04T15:35:36.823Z</time></trkpt><trkpt lat="41.9223733" lon="-7.9949217"><ele>795.0</ele><time>2026-04-04T15:35:37.824Z</time></trkpt><trkpt lat="41.9224483" lon="-7.99502"><ele>795.0</ele><time>2026-04-04T15:35:38.827Z</time></trkpt><trkpt lat="41.9224883" lon="-7.99514"><ele>795.0</ele><time>2026-04-04T15:35:39.824Z</time></trkpt><trkpt lat="41.9225183" lon="-7.9952367"><ele>795.0</ele><time>2026-04-04T15:35:40.825Z</time></trkpt><trkpt lat="41.92252" lon="-7.99538"><ele>795.4</ele><time>2026-04-04T15:35:41.824Z</time></trkpt><trkpt lat="41.9225217" lon="-7.9955117"><ele>795.8</ele><time>2026-04-04T15:35:42.823Z</time></trkpt><trkpt lat="41.92253" lon="-7.9956467"><ele>796.2</ele><time>2026-04-04T15:35:43.824Z</time></trkpt><trkpt lat="41.9225517" lon="-7.9957733"><ele>796.6</ele><time>2026-04-04T15:35:44.826Z</time></trkpt><trkpt lat="41.9225967" lon="-7.995895"><ele>797.0</ele><time>2026-04-04T15:35:45.826Z</time></trkpt><trkpt lat="41.9226533" lon="-7.99602"><ele>793.25</ele><time>2026-04-04T15:35:46.824Z</time></trkpt><trkpt lat="41.92272" lon="-7.9961417"><ele>789.5</ele><time>2026-04-04T15:35:47.824Z</time></trkpt><trkpt lat="41.9227983" lon="-7.9962583"><ele>785.75</ele><time>2026-04-04T15:35:48.825Z</time></trkpt><trkpt lat="41.9228867" lon="-7.9963767"><ele>782.0</ele><time>2026-04-04T15:35:49.824Z</time></trkpt><trkpt lat="41.922975" lon="-7.9964817"><ele>782.0</ele><time>2026-04-04T15:35:50.825Z</time></trkpt><trkpt lat="41.9230583" lon="-7.9965767"><ele>782.0</ele><time>2026-04-04T15:35:51.824Z</time></trkpt><trkpt lat="41.9231367" lon="-7.9966567"><ele>782.0</ele><time>2026-04-04T15:35:52.824Z</time></trkpt><trkpt lat="41.9232117" lon="-7.99674"><ele>782.0</ele><time>2026-04-04T15:35:53.825Z</time></trkpt><trkpt lat="41.9232833" lon="-7.9968317"><ele>782.0</ele><time>2026-04-04T15:35:54.824Z</time></trkpt><trkpt lat="41.9233533" lon="-7.9969433"><ele>781.0</ele><time>2026-04-04T15:35:55.826Z</time></trkpt><trkpt lat="41.9234167" lon="-7.9970633"><ele>780.0</ele><time>2026-04-04T15:35:56.825Z</time></trkpt><trkpt lat="41.923475" lon="-7.9971733"><ele>779.0</ele><time>2026-04-04T15:35:57.824Z</time></trkpt><trkpt lat="41.9235317" lon="-7.9972733"><ele>778.0</ele><time>2026-04-04T15:35:58.825Z</time></trkpt><trkpt lat="41.92359" lon="-7.9973517"><ele>777.0</ele><time>2026-04-04T15:35:59.824Z</time></trkpt><trkpt lat="41.9236467" lon="-7.9974167"><ele>777.0</ele><time>2026-04-04T15:36:00.823Z</time></trkpt><trkpt lat="41.9237017" lon="-7.9974617"><ele>777.0</ele><time>2026-04-04T15:36:01.824Z</time></trkpt><trkpt lat="41.9238317" lon="-7.9974167"><ele>777.0</ele><time>2026-04-04T15:36:03.823Z</time></trkpt><trkpt lat="41.9238883" lon="-7.9973267"><ele>777.0</ele><time>2026-04-04T15:36:04.823Z</time></trkpt><trkpt lat="41.923915" lon="-7.9972117"><ele>777.0</ele><time>2026-04-04T15:36:05.825Z</time></trkpt><trkpt lat="41.9239283" lon="-7.9971183"><ele>777.0</ele><time>2026-04-04T15:36:06.823Z</time></trkpt><trkpt lat="41.9239117" lon="-7.99701"><ele>777.0</ele><time>2026-04-04T15:36:07.824Z</time></trkpt><trkpt lat="41.92386" lon="-7.9968917"><ele>777.0</ele><time>2026-04-04T15:36:08.826Z</time></trkpt><trkpt lat="41.9237767" lon="-7.996765"><ele>777.0</ele><time>2026-04-04T15:36:09.826Z</time></trkpt><trkpt lat="41.92371" lon="-7.9966467"><ele>777.0</ele><time>2026-04-04T15:36:10.824Z</time></trkpt><trkpt lat="41.923645" lon="-7.996535"><ele>777.0</ele><time>2026-04-04T15:36:11.824Z</time></trkpt><trkpt lat="41.92361" lon="-7.9964367"><ele>777.2</ele><time>2026-04-04T15:36:12.827Z</time></trkpt><trkpt lat="41.9235917" lon="-7.9963483"><ele>777.4000000000001</ele><time>2026-04-04T15:36:13.826Z</time></trkpt><trkpt lat="41.9236167" lon="-7.9962583"><ele>777.5999999999999</ele><time>2026-04-04T15:36:14.825Z</time></trkpt><trkpt lat="41.923645" lon="-7.9961767"><ele>777.8</ele><time>2026-04-04T15:36:15.827Z</time></trkpt><trkpt lat="41.9237817" lon="-7.996055"><ele>778.0</ele><time>2026-04-04T15:36:16.822Z</time></trkpt><trkpt lat="41.9238867" lon="-7.995945"><ele>775.3333333333333</ele><time>2026-04-04T15:36:17.824Z</time></trkpt><trkpt lat="41.9240183" lon="-7.995825"><ele>772.6666666666667</ele><time>2026-04-04T15:36:18.823Z</time></trkpt><trkpt lat="41.9241483" lon="-7.9957133"><ele>770.0</ele><time>2026-04-04T15:36:19.823Z</time></trkpt><trkpt lat="41.92427" lon="-7.9956283"><ele>768.1666666666667</ele><time>2026-04-04T15:36:20.825Z</time></trkpt><trkpt lat="41.9243767" lon="-7.9955783"><ele>766.3333333333334</ele><time>2026-04-04T15:36:21.822Z</time></trkpt><trkpt lat="41.9244783" lon="-7.995545"><ele>764.5</ele><time>2026-04-04T15:36:22.822Z</time></trkpt><trkpt lat="41.9245583" lon="-7.9955383"><ele>762.6666666666667</ele><time>2026-04-04T15:36:23.823Z</time></trkpt><trkpt lat="41.9246283" lon="-7.995565"><ele>760.8333333333334</ele><time>2026-04-04T15:36:24.826Z</time></trkpt><trkpt lat="41.9246917" lon="-7.9956183"><ele>759.0</ele><time>2026-04-04T15:36:25.823Z</time></trkpt><trkpt lat="41.9247417" lon="-7.9957067"><ele>759.0</ele><time>2026-04-04T15:36:26.823Z</time></trkpt><trkpt lat="41.9247917" lon="-7.9958017"><ele>759.0</ele><time>2026-04-04T15:36:27.823Z</time></trkpt><trkpt lat="41.9248333" lon="-7.9959117"><ele>759.0</ele><time>2026-04-04T15:36:28.824Z</time></trkpt><trkpt lat="41.924885" lon="-7.9960017"><ele>759.0</ele><time>2026-04-04T15:36:29.824Z</time></trkpt><trkpt lat="41.92494" lon="-7.9960883"><ele>759.0</ele><time>2026-04-04T15:36:30.823Z</time></trkpt><trkpt lat="41.925015" lon="-7.996155"><ele>759.0</ele><time>2026-04-04T15:36:31.824Z</time></trkpt><trkpt lat="41.9251217" lon="-7.9961833"><ele>757.8000000000001</ele><time>2026-04-04T15:36:32.825Z</time></trkpt><trkpt lat="41.92526" lon="-7.9961817"><ele>756.6</ele><time>2026-04-04T15:36:33.823Z</time></trkpt><trkpt lat="41.9253683" lon="-7.9962017"><ele>755.4</ele><time>2026-04-04T15:36:34.824Z</time></trkpt><trkpt lat="41.9254617" lon="-7.9962417"><ele>754.2</ele><time>2026-04-04T15:36:35.823Z</time></trkpt><trkpt lat="41.9255333" lon="-7.9963133"><ele>753.0</ele><time>2026-04-04T15:36:36.824Z</time></trkpt><trkpt lat="41.9255983" lon="-7.9964183"><ele>753.0</ele><time>2026-04-04T15:36:37.825Z</time></trkpt><trkpt lat="41.92563" lon="-7.9965583"><ele>753.0</ele><time>2026-04-04T15:36:38.824Z</time></trkpt><trkpt lat="41.925655" lon="-7.9967383"><ele>753.0</ele><time>2026-04-04T15:36:39.823Z</time></trkpt><trkpt lat="41.9256583" lon="-7.996945"><ele>753.0</ele><time>2026-04-04T15:36:40.823Z</time></trkpt><trkpt lat="41.9256533" lon="-7.9971483"><ele>751.75</ele><time>2026-04-04T15:36:41.824Z</time></trkpt><trkpt lat="41.9256433" lon="-7.9973433"><ele>750.5</ele><time>2026-04-04T15:36:42.825Z</time></trkpt><trkpt lat="41.9256167" lon="-7.9975283"><ele>749.25</ele><time>2026-04-04T15:36:43.823Z</time></trkpt><trkpt lat="41.9255783" lon="-7.9976983"><ele>748.0</ele><time>2026-04-04T15:36:44.826Z</time></trkpt><trkpt lat="41.9255083" lon="-7.9978683"><ele>747.0</ele><time>2026-04-04T15:36:45.823Z</time></trkpt><trkpt lat="41.9254333" lon="-7.9980383"><ele>746.0</ele><time>2026-04-04T15:36:46.823Z</time></trkpt><trkpt lat="41.9253767" lon="-7.9981983"><ele>745.0</ele><time>2026-04-04T15:36:47.826Z</time></trkpt><trkpt lat="41.9253233" lon="-7.99835"><ele>744.0</ele><time>2026-04-04T15:36:48.824Z</time></trkpt><trkpt lat="41.9252667" lon="-7.9985033"><ele>744.0</ele><time>2026-04-04T15:36:49.823Z</time></trkpt><trkpt lat="41.9251967" lon="-7.9986317"><ele>744.0</ele><time>2026-04-04T15:36:50.824Z</time></trkpt><trkpt lat="41.9251467" lon="-7.998735"><ele>744.0</ele><time>2026-04-04T15:36:51.826Z</time></trkpt><trkpt lat="41.9251167" lon="-7.9988217"><ele>744.0</ele><time>2026-04-04T15:36:52.824Z</time></trkpt><trkpt lat="41.9250933" lon="-7.998965"><ele>744.0</ele><time>2026-04-04T15:36:54.823Z</time></trkpt><trkpt lat="41.9251517" lon="-7.999025"><ele>744.0</ele><time>2026-04-04T15:36:56.824Z</time></trkpt><trkpt lat="41.925275" lon="-7.9989417"><ele>744.0</ele><time>2026-04-04T15:36:57.823Z</time></trkpt><trkpt lat="41.9253733" lon="-7.9988817"><ele>744.0</ele><time>2026-04-04T15:36:58.823Z</time></trkpt><trkpt lat="41.9254917" lon="-7.998825"><ele>744.0</ele><time>2026-04-04T15:36:59.823Z</time></trkpt><trkpt lat="41.9256117" lon="-7.9987817"><ele>744.0</ele><time>2026-04-04T15:37:00.823Z</time></trkpt><trkpt lat="41.9258233" lon="-7.9987283"><ele>744.0</ele><time>2026-04-04T15:37:01.823Z</time></trkpt><trkpt lat="41.9259667" lon="-7.9986717"><ele>744.0</ele><time>2026-04-04T15:37:02.824Z</time></trkpt><trkpt lat="41.9261083" lon="-7.9986167"><ele>743.6666666666666</ele><time>2026-04-04T15:37:03.823Z</time></trkpt><trkpt lat="41.9262417" lon="-7.9985417"><ele>743.3333333333333</ele><time>2026-04-04T15:37:04.824Z</time></trkpt><trkpt lat="41.9263733" lon="-7.9984567"><ele>743.0</ele><time>2026-04-04T15:37:05.825Z</time></trkpt><trkpt lat="41.9265267" lon="-7.99837"><ele>743.25</ele><time>2026-04-04T15:37:06.826Z</time></trkpt><trkpt lat="41.9266433" lon="-7.9982883"><ele>743.5</ele><time>2026-04-04T15:37:07.824Z</time></trkpt><trkpt lat="41.9267533" lon="-7.9982117"><ele>743.75</ele><time>2026-04-04T15:37:08.824Z</time></trkpt><trkpt lat="41.9268567" lon="-7.9981483"><ele>744.0</ele><time>2026-04-04T15:37:09.824Z</time></trkpt><trkpt lat="41.9269533" lon="-7.9981083"><ele>744.3333333333334</ele><time>2026-04-04T15:37:10.826Z</time></trkpt><trkpt lat="41.9270383" lon="-7.9980683"><ele>744.6666666666666</ele><time>2026-04-04T15:37:11.824Z</time></trkpt><trkpt lat="41.9271133" lon="-7.998025"><ele>745.0</ele><time>2026-04-04T15:37:12.823Z</time></trkpt><trkpt lat="41.92718" lon="-7.9979683"><ele>745.3333333333333</ele><time>2026-04-04T15:37:13.824Z</time></trkpt><trkpt lat="41.9272233" lon="-7.997895"><ele>745.6666666666666</ele><time>2026-04-04T15:37:14.827Z</time></trkpt><trkpt lat="41.9272433" lon="-7.997795"><ele>746.0</ele><time>2026-04-04T15:37:15.823Z</time></trkpt><trkpt lat="41.92727" lon="-7.9976867"><ele>746.0</ele><time>2026-04-04T15:37:16.826Z</time></trkpt><trkpt lat="41.9272683" lon="-7.997545"><ele>746.0</ele><time>2026-04-04T15:37:17.827Z</time></trkpt><trkpt lat="41.9272867" lon="-7.9973983"><ele>746.0</ele><time>2026-04-04T15:37:18.822Z</time></trkpt><trkpt lat="41.9273067" lon="-7.9972517"><ele>746.0</ele><time>2026-04-04T15:37:19.825Z</time></trkpt><trkpt lat="41.927335" lon="-7.99711"><ele>746.0</ele><time>2026-04-04T15:37:20.824Z</time></trkpt><trkpt lat="41.9273767" lon="-7.99698"><ele>745.5999999999999</ele><time>2026-04-04T15:37:21.825Z</time></trkpt><trkpt lat="41.92743" lon="-7.9968533"><ele>745.2</ele><time>2026-04-04T15:37:22.823Z</time></trkpt><trkpt lat="41.9274817" lon="-7.9967317"><ele>744.8</ele><time>2026-04-04T15:37:23.823Z</time></trkpt><trkpt lat="41.9275183" lon="-7.996615"><ele>744.4000000000001</ele><time>2026-04-04T15:37:24.827Z</time></trkpt><trkpt lat="41.9275367" lon="-7.9964933"><ele>744.0</ele><time>2026-04-04T15:37:25.826Z</time></trkpt><trkpt lat="41.9275367" lon="-7.9963667"><ele>743.1666666666666</ele><time>2026-04-04T15:37:26.825Z</time></trkpt><trkpt lat="41.92754" lon="-7.9962717"><ele>742.3333333333334</ele><time>2026-04-04T15:37:27.826Z</time></trkpt><trkpt lat="41.9275683" lon="-7.99614"><ele>741.5</ele><time>2026-04-04T15:37:29.825Z</time></trkpt><trkpt lat="41.9276367" lon="-7.99614"><ele>740.6666666666667</ele><time>2026-04-04T15:37:31.826Z</time></trkpt><trkpt lat="41.9277" lon="-7.9962783"><ele>739.8333333333334</ele><time>2026-04-04T15:37:33.823Z</time></trkpt><trkpt lat="41.9277133" lon="-7.99639"><ele>739.0</ele><time>2026-04-04T15:37:34.823Z</time></trkpt><trkpt lat="41.9277267" lon="-7.9965467"><ele>737.25</ele><time>2026-04-04T15:37:35.823Z</time></trkpt><trkpt lat="41.9277283" lon="-7.9967383"><ele>735.5</ele><time>2026-04-04T15:37:36.823Z</time></trkpt><trkpt lat="41.9277233" lon="-7.9969083"><ele>733.75</ele><time>2026-04-04T15:37:37.824Z</time></trkpt><trkpt lat="41.92772" lon="-7.9970517"><ele>732.0</ele><time>2026-04-04T15:37:38.823Z</time></trkpt><trkpt lat="41.9277283" lon="-7.99717"><ele>732.0</ele><time>2026-04-04T15:37:39.823Z</time></trkpt><trkpt lat="41.9277467" lon="-7.997265"><ele>732.0</ele><time>2026-04-04T15:37:40.823Z</time></trkpt><trkpt lat="41.927775" lon="-7.99735"><ele>732.0</ele><time>2026-04-04T15:37:41.824Z</time></trkpt><trkpt lat="41.9278017" lon="-7.9974383"><ele>732.0</ele><time>2026-04-04T15:37:42.824Z</time></trkpt><trkpt lat="41.9278683" lon="-7.9974983"><ele>732.0</ele><time>2026-04-04T15:37:43.823Z</time></trkpt><trkpt lat="41.9279783" lon="-7.9974967"><ele>732.0</ele><time>2026-04-04T15:37:44.824Z</time></trkpt><trkpt lat="41.9280967" lon="-7.9975033"><ele>732.0</ele><time>2026-04-04T15:37:45.822Z</time></trkpt><trkpt lat="41.9282617" lon="-7.99749"><ele>732.0</ele><time>2026-04-04T15:37:46.823Z</time></trkpt><trkpt lat="41.9284167" lon="-7.99747"><ele>732.0</ele><time>2026-04-04T15:37:47.823Z</time></trkpt><trkpt lat="41.92857" lon="-7.99742"><ele>730.6</ele><time>2026-04-04T15:37:48.823Z</time></trkpt><trkpt lat="41.92868" lon="-7.99736"><ele>729.2</ele><time>2026-04-04T15:37:49.826Z</time></trkpt><trkpt lat="41.9287667" lon="-7.9973183"><ele>727.8</ele><time>2026-04-04T15:37:50.823Z</time></trkpt><trkpt lat="41.92885" lon="-7.9972967"><ele>726.4</ele><time>2026-04-04T15:37:51.823Z</time></trkpt><trkpt lat="41.9289433" lon="-7.9973017"><ele>725.0</ele><time>2026-04-04T15:37:52.824Z</time></trkpt><trkpt lat="41.9290467" lon="-7.9973717"><ele>725.0</ele><time>2026-04-04T15:37:53.823Z</time></trkpt><trkpt lat="41.92914" lon="-7.99749"><ele>725.0</ele><time>2026-04-04T15:37:54.826Z</time></trkpt><trkpt lat="41.929215" lon="-7.9975883"><ele>725.0</ele><time>2026-04-04T15:37:55.827Z</time></trkpt><trkpt lat="41.9292783" lon="-7.9976617"><ele>725.0</ele><time>2026-04-04T15:37:56.825Z</time></trkpt><trkpt lat="41.9293383" lon="-7.9977017"><ele>725.0</ele><time>2026-04-04T15:37:57.823Z</time></trkpt><trkpt lat="41.9294067" lon="-7.9977183"><ele>724.0</ele><time>2026-04-04T15:37:58.823Z</time></trkpt><trkpt lat="41.9294883" lon="-7.9976833"><ele>723.0</ele><time>2026-04-04T15:37:59.825Z</time></trkpt><trkpt lat="41.9295733" lon="-7.9976283"><ele>722.0</ele><time>2026-04-04T15:38:00.827Z</time></trkpt><trkpt lat="41.9296517" lon="-7.9975583"><ele>721.0</ele><time>2026-04-04T15:38:01.824Z</time></trkpt><trkpt lat="41.9297233" lon="-7.9974883"><ele>720.0</ele><time>2026-04-04T15:38:02.825Z</time></trkpt><trkpt lat="41.9297733" lon="-7.9973933"><ele>719.0</ele><time>2026-04-04T15:38:03.823Z</time></trkpt><trkpt lat="41.9298133" lon="-7.997295"><ele>719.0</ele><time>2026-04-04T15:38:04.824Z</time></trkpt><trkpt lat="41.9298233" lon="-7.997195"><ele>719.0</ele><time>2026-04-04T15:38:05.825Z</time></trkpt><trkpt lat="41.9298233" lon="-7.9970917"><ele>719.0</ele><time>2026-04-04T15:38:06.828Z</time></trkpt><trkpt lat="41.929825" lon="-7.9969883"><ele>719.0</ele><time>2026-04-04T15:38:07.825Z</time></trkpt><trkpt lat="41.9298317" lon="-7.9969"><ele>719.0</ele><time>2026-04-04T15:38:08.823Z</time></trkpt><trkpt lat="41.9298283" lon="-7.9968017"><ele>719.0</ele><time>2026-04-04T15:38:10.824Z</time></trkpt><trkpt lat="41.9297983" lon="-7.9969333"><ele>719.0</ele><time>2026-04-04T15:38:14.824Z</time></trkpt><trkpt lat="41.9297733" lon="-7.9971033"><ele>719.0</ele><time>2026-04-04T15:38:16.823Z</time></trkpt><trkpt lat="41.929765" lon="-7.9972033"><ele>719.0</ele><time>2026-04-04T15:38:17.823Z</time></trkpt><trkpt lat="41.9297483" lon="-7.9972933"><ele>719.0</ele><time>2026-04-04T15:38:18.823Z</time></trkpt><trkpt lat="41.9297117" lon="-7.9974333"><ele>719.0</ele><time>2026-04-04T15:38:20.825Z</time></trkpt><trkpt lat="41.929665" lon="-7.9975717"><ele>718.6</ele><time>2026-04-04T15:38:22.826Z</time></trkpt><trkpt lat="41.92964" lon="-7.9976883"><ele>718.2</ele><time>2026-04-04T15:38:24.824Z</time></trkpt><trkpt lat="41.9296183" lon="-7.997805"><ele>717.8000000000001</ele><time>2026-04-04T15:38:26.824Z</time></trkpt><trkpt lat="41.929595" lon="-7.9979717"><ele>717.4000000000001</ele><time>2026-04-04T15:38:28.824Z</time></trkpt><trkpt lat="41.9295883" lon="-7.99807"><ele>717.0</ele><time>2026-04-04T15:38:29.824Z</time></trkpt><trkpt lat="41.9295783" lon="-7.9981867"><ele>717.0</ele><time>2026-04-04T15:38:30.824Z</time></trkpt><trkpt lat="41.9295733" lon="-7.9983083"><ele>717.0</ele><time>2026-04-04T15:38:31.824Z</time></trkpt><trkpt lat="41.9295667" lon="-7.998435"><ele>717.0</ele><time>2026-04-04T15:38:32.825Z</time></trkpt><trkpt lat="41.9295633" lon="-7.9985733"><ele>717.0</ele><time>2026-04-04T15:38:33.824Z</time></trkpt><trkpt lat="41.9295667" lon="-7.9987133"><ele>717.0</ele><time>2026-04-04T15:38:34.825Z</time></trkpt><trkpt lat="41.9295617" lon="-7.9988317"><ele>715.5</ele><time>2026-04-04T15:38:35.826Z</time></trkpt><trkpt lat="41.9295317" lon="-7.9989483"><ele>714.0</ele><time>2026-04-04T15:38:36.823Z</time></trkpt><trkpt lat="41.9294967" lon="-7.9990517"><ele>712.5</ele><time>2026-04-04T15:38:37.823Z</time></trkpt><trkpt lat="41.9294667" lon="-7.99914"><ele>711.0</ele><time>2026-04-04T15:38:38.824Z</time></trkpt><trkpt lat="41.9294417" lon="-7.9992317"><ele>709.5</ele><time>2026-04-04T15:38:39.823Z</time></trkpt><trkpt lat="41.9294117" lon="-7.99933"><ele>708.0</ele><time>2026-04-04T15:38:40.825Z</time></trkpt><trkpt lat="41.929375" lon="-7.9994167"><ele>707.4</ele><time>2026-04-04T15:38:41.823Z</time></trkpt><trkpt lat="41.9292733" lon="-7.999515"><ele>706.8</ele><time>2026-04-04T15:38:43.823Z</time></trkpt><trkpt lat="41.9291933" lon="-7.999545"><ele>706.2</ele><time>2026-04-04T15:38:44.824Z</time></trkpt><trkpt lat="41.929105" lon="-7.9995817"><ele>705.6</ele><time>2026-04-04T15:38:45.823Z</time></trkpt><trkpt lat="41.9289967" lon="-7.9996333"><ele>705.0</ele><time>2026-04-04T15:38:46.824Z</time></trkpt><trkpt lat="41.9288883" lon="-7.9997"><ele>705.0</ele><time>2026-04-04T15:38:47.824Z</time></trkpt><trkpt lat="41.928775" lon="-7.9997783"><ele>705.0</ele><time>2026-04-04T15:38:48.823Z</time></trkpt><trkpt lat="41.92866" lon="-7.9998783"><ele>705.0</ele><time>2026-04-04T15:38:49.823Z</time></trkpt><trkpt lat="41.928555" lon="-7.9999983"><ele>705.0</ele><time>2026-04-04T15:38:50.823Z</time></trkpt><trkpt lat="41.9284633" lon="-8.0001183"><ele>706.75</ele><time>2026-04-04T15:38:51.823Z</time></trkpt><trkpt lat="41.9283767" lon="-8.0002183"><ele>708.5</ele><time>2026-04-04T15:38:52.827Z</time></trkpt><trkpt lat="41.9282883" lon="-8.0003"><ele>710.25</ele><time>2026-04-04T15:38:53.824Z</time></trkpt><trkpt lat="41.9281967" lon="-8.0003783"><ele>712.0</ele><time>2026-04-04T15:38:54.823Z</time></trkpt><trkpt lat="41.92809" lon="-8.000455"><ele>712.0</ele><time>2026-04-04T15:38:55.824Z</time></trkpt><trkpt lat="41.9279833" lon="-8.0005117"><ele>712.0</ele><time>2026-04-04T15:38:56.825Z</time></trkpt><trkpt lat="41.9278933" lon="-8.0005417"><ele>712.0</ele><time>2026-04-04T15:38:57.826Z</time></trkpt><trkpt lat="41.9278117" lon="-8.0005717"><ele>712.0</ele><time>2026-04-04T15:38:58.824Z</time></trkpt><trkpt lat="41.92774" lon="-8.00062"><ele>712.0</ele><time>2026-04-04T15:38:59.823Z</time></trkpt><trkpt lat="41.927675" lon="-8.0007"><ele>712.0</ele><time>2026-04-04T15:39:00.823Z</time></trkpt><trkpt lat="41.9276133" lon="-8.00082"><ele>712.0</ele><time>2026-04-04T15:39:01.826Z</time></trkpt><trkpt lat="41.92755" lon="-8.00093"><ele>712.0</ele><time>2026-04-04T15:39:02.827Z</time></trkpt><trkpt lat="41.927485" lon="-8.0010217"><ele>712.0</ele><time>2026-04-04T15:39:03.823Z</time></trkpt><trkpt lat="41.9274183" lon="-8.0011033"><ele>712.0</ele><time>2026-04-04T15:39:04.824Z</time></trkpt><trkpt lat="41.927355" lon="-8.001165"><ele>711.0</ele><time>2026-04-04T15:39:05.826Z</time></trkpt><trkpt lat="41.9272867" lon="-8.0012333"><ele>710.0</ele><time>2026-04-04T15:39:07.827Z</time></trkpt><trkpt lat="41.927335" lon="-8.001175"><ele>709.0</ele><time>2026-04-04T15:39:15.826Z</time></trkpt><trkpt lat="41.9273983" lon="-8.0012283"><ele>708.0</ele><time>2026-04-04T15:39:17.824Z</time></trkpt><trkpt lat="41.9274733" lon="-8.0012983"><ele>707.0</ele><time>2026-04-04T15:39:19.824Z</time></trkpt><trkpt lat="41.927575" lon="-8.0013317"><ele>706.0</ele><time>2026-04-04T15:39:21.824Z</time></trkpt><trkpt lat="41.92764" lon="-8.0013433"><ele>704.4</ele><time>2026-04-04T15:39:22.824Z</time></trkpt><trkpt lat="41.9277117" lon="-8.0013517"><ele>702.8</ele><time>2026-04-04T15:39:23.824Z</time></trkpt><trkpt lat="41.927785" lon="-8.0013583"><ele>701.1999999999999</ele><time>2026-04-04T15:39:24.823Z</time></trkpt><trkpt lat="41.9279" lon="-8.0013333"><ele>699.5999999999999</ele><time>2026-04-04T15:39:26.823Z</time></trkpt><trkpt lat="41.927985" lon="-8.0012317"><ele>698.0</ele><time>2026-04-04T15:39:28.823Z</time></trkpt><trkpt lat="41.9280783" lon="-8.0011467"><ele>698.0</ele><time>2026-04-04T15:39:30.823Z</time></trkpt><trkpt lat="41.928185" lon="-8.00116"><ele>698.0</ele><time>2026-04-04T15:39:32.827Z</time></trkpt><trkpt lat="41.928245" lon="-8.00121"><ele>698.0</ele><time>2026-04-04T15:39:33.824Z</time></trkpt><trkpt lat="41.9283083" lon="-8.0012767"><ele>698.0</ele><time>2026-04-04T15:39:34.824Z</time></trkpt><trkpt lat="41.9283883" lon="-8.0013583"><ele>698.0</ele><time>2026-04-04T15:39:35.827Z</time></trkpt><trkpt lat="41.9284717" lon="-8.00144"><ele>696.5999999999999</ele><time>2026-04-04T15:39:36.823Z</time></trkpt><trkpt lat="41.9285533" lon="-8.001505"><ele>695.1999999999999</ele><time>2026-04-04T15:39:37.824Z</time></trkpt><trkpt lat="41.9286567" lon="-8.00154"><ele>693.8</ele><time>2026-04-04T15:39:38.824Z</time></trkpt><trkpt lat="41.9287633" lon="-8.00157"><ele>692.4</ele><time>2026-04-04T15:39:39.824Z</time></trkpt><trkpt lat="41.9288517" lon="-8.0016183"><ele>691.0</ele><time>2026-04-04T15:39:40.825Z</time></trkpt><trkpt lat="41.9289583" lon="-8.0016617"><ele>689.8</ele><time>2026-04-04T15:39:41.823Z</time></trkpt><trkpt lat="41.92907" lon="-8.0017017"><ele>688.5999999999999</ele><time>2026-04-04T15:39:42.823Z</time></trkpt><trkpt lat="41.929165" lon="-8.0017317"><ele>687.4</ele><time>2026-04-04T15:39:43.824Z</time></trkpt><trkpt lat="41.92924" lon="-8.001765"><ele>686.2</ele><time>2026-04-04T15:39:44.827Z</time></trkpt><trkpt lat="41.9293117" lon="-8.0018617"><ele>685.0</ele><time>2026-04-04T15:39:46.824Z</time></trkpt><trkpt lat="41.929325" lon="-8.0019517"><ele>684.6666666666667</ele><time>2026-04-04T15:39:47.826Z</time></trkpt><trkpt lat="41.9293433" lon="-8.0020433"><ele>684.3333333333334</ele><time>2026-04-04T15:39:48.824Z</time></trkpt><trkpt lat="41.9293583" lon="-8.0021367"><ele>684.0</ele><time>2026-04-04T15:39:49.823Z</time></trkpt><trkpt lat="41.92939" lon="-8.0022683"><ele>683.6666666666666</ele><time>2026-04-04T15:39:51.825Z</time></trkpt><trkpt lat="41.9294383" lon="-8.0023633"><ele>683.3333333333333</ele><time>2026-04-04T15:39:53.824Z</time></trkpt><trkpt lat="41.929495" lon="-8.00248"><ele>683.0</ele><time>2026-04-04T15:39:55.824Z</time></trkpt><trkpt lat="41.9295267" lon="-8.0025667"><ele>683.0</ele><time>2026-04-04T15:39:57.823Z</time></trkpt><trkpt lat="41.9295583" lon="-8.0026533"><ele>683.0</ele><time>2026-04-04T15:39:59.823Z</time></trkpt><trkpt lat="41.929615" lon="-8.002785"><ele>683.0</ele><time>2026-04-04T15:40:01.823Z</time></trkpt><trkpt lat="41.9296467" lon="-8.0028667"><ele>683.0</ele><time>2026-04-04T15:40:02.824Z</time></trkpt><trkpt lat="41.9296733" lon="-8.0029467"><ele>683.0</ele><time>2026-04-04T15:40:03.822Z</time></trkpt><trkpt lat="41.9297217" lon="-8.0030783"><ele>683.0</ele><time>2026-04-04T15:40:05.823Z</time></trkpt><trkpt lat="41.9297717" lon="-8.003215"><ele>683.75</ele><time>2026-04-04T15:40:07.823Z</time></trkpt><trkpt lat="41.92982" lon="-8.0033683"><ele>684.5</ele><time>2026-04-04T15:40:09.824Z</time></trkpt><trkpt lat="41.9298767" lon="-8.0035133"><ele>685.25</ele><time>2026-04-04T15:40:11.824Z</time></trkpt><trkpt lat="41.92995" lon="-8.0036467"><ele>686.0</ele><time>2026-04-04T15:40:13.823Z</time></trkpt><trkpt lat="41.9300367" lon="-8.0037567"><ele>688.6666666666666</ele><time>2026-04-04T15:40:15.824Z</time></trkpt><trkpt lat="41.9300983" lon="-8.0038033"><ele>691.3333333333333</ele><time>2026-04-04T15:40:16.824Z</time></trkpt><trkpt lat="41.9301683" lon="-8.003845"><ele>694.0</ele><time>2026-04-04T15:40:17.826Z</time></trkpt><trkpt lat="41.930245" lon="-8.0038867"><ele>696.6666666666666</ele><time>2026-04-04T15:40:18.824Z</time></trkpt><trkpt lat="41.9303167" lon="-8.0039217"><ele>699.3333333333334</ele><time>2026-04-04T15:40:19.824Z</time></trkpt><trkpt lat="41.9303867" lon="-8.0039633"><ele>702.0</ele><time>2026-04-04T15:40:20.824Z</time></trkpt><trkpt lat="41.930455" lon="-8.004005"><ele>702.0</ele><time>2026-04-04T15:40:21.823Z</time></trkpt><trkpt lat="41.9305217" lon="-8.00406"><ele>702.0</ele><time>2026-04-04T15:40:22.823Z</time></trkpt><trkpt lat="41.9305867" lon="-8.0041217"><ele>702.0</ele><time>2026-04-04T15:40:23.823Z</time></trkpt><trkpt lat="41.9306533" lon="-8.0041883"><ele>702.0</ele><time>2026-04-04T15:40:24.824Z</time></trkpt><trkpt lat="41.9307217" lon="-8.0042667"><ele>702.0</ele><time>2026-04-04T15:40:25.823Z</time></trkpt><trkpt lat="41.9307883" lon="-8.00435"><ele>702.0</ele><time>2026-04-04T15:40:26.824Z</time></trkpt><trkpt lat="41.9308583" lon="-8.00444"><ele>704.8</ele><time>2026-04-04T15:40:27.824Z</time></trkpt><trkpt lat="41.93093" lon="-8.004535"><ele>707.6</ele><time>2026-04-04T15:40:28.823Z</time></trkpt><trkpt lat="41.9310033" lon="-8.0046317"><ele>710.4</ele><time>2026-04-04T15:40:29.823Z</time></trkpt><trkpt lat="41.9310767" lon="-8.004725"><ele>713.1999999999999</ele><time>2026-04-04T15:40:30.823Z</time></trkpt><trkpt lat="41.93115" lon="-8.004815"><ele>716.0</ele><time>2026-04-04T15:40:31.824Z</time></trkpt><trkpt lat="41.9312233" lon="-8.0049017"><ele>716.0</ele><time>2026-04-04T15:40:32.824Z</time></trkpt><trkpt lat="41.9312967" lon="-8.004985"><ele>716.0</ele><time>2026-04-04T15:40:33.823Z</time></trkpt><trkpt lat="41.9313767" lon="-8.005075"><ele>716.0</ele><time>2026-04-04T15:40:34.823Z</time></trkpt><trkpt lat="41.9314583" lon="-8.00518"><ele>716.0</ele><time>2026-04-04T15:40:35.825Z</time></trkpt><trkpt lat="41.931535" lon="-8.0053"><ele>716.0</ele><time>2026-04-04T15:40:36.824Z</time></trkpt><trkpt lat="41.9316017" lon="-8.0054183"><ele>716.0</ele><time>2026-04-04T15:40:37.826Z</time></trkpt><trkpt lat="41.9316633" lon="-8.0055417"><ele>716.0</ele><time>2026-04-04T15:40:38.825Z</time></trkpt><trkpt lat="41.93173" lon="-8.0056617"><ele>716.0</ele><time>2026-04-04T15:40:39.826Z</time></trkpt><trkpt lat="41.931805" lon="-8.00578"><ele>716.0</ele><time>2026-04-04T15:40:40.823Z</time></trkpt><trkpt lat="41.931895" lon="-8.005885"><ele>715.0</ele><time>2026-04-04T15:40:41.826Z</time></trkpt><trkpt lat="41.9319933" lon="-8.0059867"><ele>714.0</ele><time>2026-04-04T15:40:42.822Z</time></trkpt><trkpt lat="41.932085" lon="-8.0060667"><ele>713.0</ele><time>2026-04-04T15:40:43.823Z</time></trkpt><trkpt lat="41.9321733" lon="-8.006135"><ele>712.0</ele><time>2026-04-04T15:40:44.823Z</time></trkpt><trkpt lat="41.9322583" lon="-8.0061967"><ele>711.0</ele><time>2026-04-04T15:40:45.824Z</time></trkpt><trkpt lat="41.9323433" lon="-8.00626"><ele>711.0</ele><time>2026-04-04T15:40:46.826Z</time></trkpt><trkpt lat="41.9324333" lon="-8.0063067"><ele>711.0</ele><time>2026-04-04T15:40:47.823Z</time></trkpt><trkpt lat="41.932535" lon="-8.0063283"><ele>711.0</ele><time>2026-04-04T15:40:48.823Z</time></trkpt><trkpt lat="41.9326417" lon="-8.0063317"><ele>711.0</ele><time>2026-04-04T15:40:49.824Z</time></trkpt><trkpt lat="41.9327483" lon="-8.0063183"><ele>711.0</ele><time>2026-04-04T15:40:50.823Z</time></trkpt><trkpt lat="41.9328617" lon="-8.0062833"><ele>711.5</ele><time>2026-04-04T15:40:51.822Z</time></trkpt><trkpt lat="41.932975" lon="-8.006225"><ele>712.0</ele><time>2026-04-04T15:40:52.823Z</time></trkpt><trkpt lat="41.9330817" lon="-8.0061617"><ele>712.5</ele><time>2026-04-04T15:40:53.824Z</time></trkpt><trkpt lat="41.93318" lon="-8.0060967"><ele>713.0</ele><time>2026-04-04T15:40:54.823Z</time></trkpt><trkpt lat="41.9332833" lon="-8.00602"><ele>713.0</ele><time>2026-04-04T15:40:55.823Z</time></trkpt><trkpt lat="41.9333867" lon="-8.0059483"><ele>713.0</ele><time>2026-04-04T15:40:56.824Z</time></trkpt><trkpt lat="41.9334883" lon="-8.0058817"><ele>713.0</ele><time>2026-04-04T15:40:57.823Z</time></trkpt><trkpt lat="41.9335917" lon="-8.0058117"><ele>713.0</ele><time>2026-04-04T15:40:58.823Z</time></trkpt><trkpt lat="41.9336917" lon="-8.0057383"><ele>714.4</ele><time>2026-04-04T15:40:59.824Z</time></trkpt><trkpt lat="41.9337917" lon="-8.0056667"><ele>715.8</ele><time>2026-04-04T15:41:00.826Z</time></trkpt><trkpt lat="41.9338917" lon="-8.0056"><ele>717.2</ele><time>2026-04-04T15:41:01.823Z</time></trkpt><trkpt lat="41.9339917" lon="-8.0055317"><ele>718.6</ele><time>2026-04-04T15:41:02.824Z</time></trkpt><trkpt lat="41.9340883" lon="-8.0054683"><ele>720.0</ele><time>2026-04-04T15:41:03.826Z</time></trkpt><trkpt lat="41.934175" lon="-8.005405"><ele>720.0</ele><time>2026-04-04T15:41:04.825Z</time></trkpt><trkpt lat="41.934265" lon="-8.0053433"><ele>720.0</ele><time>2026-04-04T15:41:05.826Z</time></trkpt><trkpt lat="41.9343517" lon="-8.005275"><ele>720.0</ele><time>2026-04-04T15:41:06.824Z</time></trkpt><trkpt lat="41.9344433" lon="-8.00521"><ele>720.0</ele><time>2026-04-04T15:41:07.824Z</time></trkpt><trkpt lat="41.934535" lon="-8.0051467"><ele>720.0</ele><time>2026-04-04T15:41:08.823Z</time></trkpt><trkpt lat="41.93463" lon="-8.0050783"><ele>720.0</ele><time>2026-04-04T15:41:09.824Z</time></trkpt><trkpt lat="41.9347217" lon="-8.00501"><ele>720.0</ele><time>2026-04-04T15:41:10.824Z</time></trkpt><trkpt lat="41.9348217" lon="-8.0049367"><ele>720.0</ele><time>2026-04-04T15:41:11.824Z</time></trkpt><trkpt lat="41.9349233" lon="-8.0048633"><ele>720.0</ele><time>2026-04-04T15:41:12.824Z</time></trkpt><trkpt lat="41.93502" lon="-8.0047967"><ele>720.0</ele><time>2026-04-04T15:41:13.824Z</time></trkpt><trkpt lat="41.9351083" lon="-8.0047417"><ele>720.6666666666666</ele><time>2026-04-04T15:41:14.826Z</time></trkpt><trkpt lat="41.9351817" lon="-8.0046917"><ele>721.3333333333334</ele><time>2026-04-04T15:41:15.824Z</time></trkpt><trkpt lat="41.93525" lon="-8.00465"><ele>722.0</ele><time>2026-04-04T15:41:16.823Z</time></trkpt><trkpt lat="41.9353467" lon="-8.004595"><ele>722.6666666666667</ele><time>2026-04-04T15:41:18.824Z</time></trkpt><trkpt lat="41.9354083" lon="-8.0045717"><ele>723.3333333333334</ele><time>2026-04-04T15:41:21.824Z</time></trkpt><trkpt lat="41.9354817" lon="-8.0046217"><ele>724.0</ele><time>2026-04-04T15:44:06.823Z</time></trkpt><trkpt lat="41.9355033" lon="-8.0047717"><ele>724.0</ele><time>2026-04-04T15:44:08.823Z</time></trkpt><trkpt lat="41.9355067" lon="-8.004885"><ele>724.0</ele><time>2026-04-04T15:44:09.822Z</time></trkpt><trkpt lat="41.935515" lon="-8.0050183"><ele>724.0</ele><time>2026-04-04T15:44:10.824Z</time></trkpt><trkpt lat="41.9355217" lon="-8.0051867"><ele>724.0</ele><time>2026-04-04T15:44:11.823Z</time></trkpt><trkpt lat="41.935535" lon="-8.0053617"><ele>724.0</ele><time>2026-04-04T15:44:12.824Z</time></trkpt><trkpt lat="41.9355533" lon="-8.0055267"><ele>723.5</ele><time>2026-04-04T15:44:13.823Z</time></trkpt><trkpt lat="41.9355883" lon="-8.0056917"><ele>723.0</ele><time>2026-04-04T15:44:14.823Z</time></trkpt><trkpt lat="41.9356533" lon="-8.0058333"><ele>722.5</ele><time>2026-04-04T15:44:15.823Z</time></trkpt><trkpt lat="41.935745" lon="-8.0059483"><ele>722.0</ele><time>2026-04-04T15:44:16.823Z</time></trkpt><trkpt lat="41.9358517" lon="-8.006035"><ele>720.8</ele><time>2026-04-04T15:44:17.822Z</time></trkpt><trkpt lat="41.9359633" lon="-8.0060983"><ele>719.6</ele><time>2026-04-04T15:44:18.823Z</time></trkpt><trkpt lat="41.9360733" lon="-8.0061417"><ele>718.4</ele><time>2026-04-04T15:44:19.822Z</time></trkpt><trkpt lat="41.9361783" lon="-8.006175"><ele>717.1999999999999</ele><time>2026-04-04T15:44:20.823Z</time></trkpt><trkpt lat="41.93627" lon="-8.0062117"><ele>716.0</ele><time>2026-04-04T15:44:21.823Z</time></trkpt><trkpt lat="41.9363517" lon="-8.00626"><ele>716.0000000000001</ele><time>2026-04-04T15:44:22.822Z</time></trkpt><trkpt lat="41.9364033" lon="-8.0063267"><ele>716.0</ele><time>2026-04-04T15:44:23.823Z</time></trkpt><trkpt lat="41.9364433" lon="-8.0063983"><ele>716.0</ele><time>2026-04-04T15:44:24.823Z</time></trkpt><trkpt lat="41.9364733" lon="-8.0064817"><ele>716.0</ele><time>2026-04-04T15:44:25.823Z</time></trkpt><trkpt lat="41.9364867" lon="-8.0065783"><ele>716.0</ele><time>2026-04-04T15:44:26.823Z</time></trkpt><trkpt lat="41.9364983" lon="-8.0066733"><ele>716.0000000000001</ele><time>2026-04-04T15:44:27.824Z</time></trkpt><trkpt lat="41.9365" lon="-8.0067717"><ele>716.0</ele><time>2026-04-04T15:44:28.824Z</time></trkpt><trkpt lat="41.936495" lon="-8.00687"><ele>716.0</ele><time>2026-04-04T15:44:29.823Z</time></trkpt><trkpt lat="41.9364883" lon="-8.00697"><ele>716.0</ele><time>2026-04-04T15:44:30.824Z</time></trkpt><trkpt lat="41.9364733" lon="-8.00708"><ele>716.0</ele><time>2026-04-04T15:44:31.823Z</time></trkpt><trkpt lat="41.9364617" lon="-8.0071933"><ele>716.0</ele><time>2026-04-04T15:44:32.823Z</time></trkpt><trkpt lat="41.9364533" lon="-8.0073067"><ele>716.0</ele><time>2026-04-04T15:44:33.823Z</time></trkpt><trkpt lat="41.9364483" lon="-8.0074283"><ele>716.0</ele><time>2026-04-04T15:44:34.824Z</time></trkpt><trkpt lat="41.936445" lon="-8.00755"><ele>716.5999999999999</ele><time>2026-04-04T15:44:35.824Z</time></trkpt><trkpt lat="41.9364583" lon="-8.0076833"><ele>717.2</ele><time>2026-04-04T15:44:36.824Z</time></trkpt><trkpt lat="41.9364867" lon="-8.0078083"><ele>717.8</ele><time>2026-04-04T15:44:37.823Z</time></trkpt><trkpt lat="41.9365283" lon="-8.0079333"><ele>718.4000000000001</ele><time>2026-04-04T15:44:38.824Z</time></trkpt><trkpt lat="41.9365783" lon="-8.0080467"><ele>719.0</ele><time>2026-04-04T15:44:39.826Z</time></trkpt><trkpt lat="41.9366367" lon="-8.0081467"><ele>719.0</ele><time>2026-04-04T15:44:40.824Z</time></trkpt><trkpt lat="41.9367083" lon="-8.00823"><ele>719.0</ele><time>2026-04-04T15:44:41.823Z</time></trkpt><trkpt lat="41.93679" lon="-8.0082983"><ele>719.0</ele><time>2026-04-04T15:44:42.823Z</time></trkpt><trkpt lat="41.9368817" lon="-8.0083417"><ele>719.0</ele><time>2026-04-04T15:44:43.825Z</time></trkpt><trkpt lat="41.936975" lon="-8.0083733"><ele>719.0</ele><time>2026-04-04T15:44:44.824Z</time></trkpt><trkpt lat="41.93708" lon="-8.008405"><ele>721.8000000000001</ele><time>2026-04-04T15:44:45.824Z</time></trkpt><trkpt lat="41.93718" lon="-8.00843"><ele>724.6</ele><time>2026-04-04T15:44:46.826Z</time></trkpt><trkpt lat="41.9372733" lon="-8.0084533"><ele>727.4</ele><time>2026-04-04T15:44:47.823Z</time></trkpt><trkpt lat="41.937365" lon="-8.0084883"><ele>730.2</ele><time>2026-04-04T15:44:48.823Z</time></trkpt><trkpt lat="41.9374517" lon="-8.0085383"><ele>733.0</ele><time>2026-04-04T15:44:49.823Z</time></trkpt><trkpt lat="41.937535" lon="-8.0086"><ele>732.6666666666667</ele><time>2026-04-04T15:44:50.823Z</time></trkpt><trkpt lat="41.9376133" lon="-8.00866"><ele>732.3333333333334</ele><time>2026-04-04T15:44:51.823Z</time></trkpt><trkpt lat="41.9376967" lon="-8.0087233"><ele>732.0</ele><time>2026-04-04T15:44:52.823Z</time></trkpt><trkpt lat="41.9377817" lon="-8.00877"><ele>731.6666666666666</ele><time>2026-04-04T15:44:53.823Z</time></trkpt><trkpt lat="41.9378583" lon="-8.0088033"><ele>731.3333333333333</ele><time>2026-04-04T15:44:54.824Z</time></trkpt><trkpt lat="41.937935" lon="-8.0088283"><ele>731.0</ele><time>2026-04-04T15:44:55.823Z</time></trkpt><trkpt lat="41.93802" lon="-8.008855"><ele>731.0</ele><time>2026-04-04T15:44:56.823Z</time></trkpt><trkpt lat="41.9381033" lon="-8.0088633"><ele>731.0</ele><time>2026-04-04T15:44:57.823Z</time></trkpt><trkpt lat="41.9381933" lon="-8.0088717"><ele>731.0</ele><time>2026-04-04T15:44:58.823Z</time></trkpt><trkpt lat="41.938285" lon="-8.00886"><ele>731.0</ele><time>2026-04-04T15:44:59.824Z</time></trkpt><trkpt lat="41.938385" lon="-8.0088233"><ele>731.0</ele><time>2026-04-04T15:45:00.823Z</time></trkpt><trkpt lat="41.9385" lon="-8.0087683"><ele>732.0</ele><time>2026-04-04T15:45:01.824Z</time></trkpt><trkpt lat="41.9386083" lon="-8.0087167"><ele>733.0</ele><time>2026-04-04T15:45:02.824Z</time></trkpt><trkpt lat="41.9387067" lon="-8.0086683"><ele>734.0</ele><time>2026-04-04T15:45:03.823Z</time></trkpt><trkpt lat="41.9387883" lon="-8.0086167"><ele>735.0</ele><time>2026-04-04T15:45:04.824Z</time></trkpt><trkpt lat="41.9388667" lon="-8.0085733"><ele>736.0</ele><time>2026-04-04T15:45:05.823Z</time></trkpt><trkpt lat="41.9389467" lon="-8.0085283"><ele>736.0</ele><time>2026-04-04T15:45:06.824Z</time></trkpt><trkpt lat="41.9390183" lon="-8.008515"><ele>736.0</ele><time>2026-04-04T15:45:07.826Z</time></trkpt><trkpt lat="41.9391033" lon="-8.008545"><ele>736.0</ele><time>2026-04-04T15:45:09.824Z</time></trkpt><trkpt lat="41.9391217" lon="-8.0086817"><ele>736.0</ele><time>2026-04-04T15:45:11.823Z</time></trkpt><trkpt lat="41.93911" lon="-8.0087917"><ele>736.0</ele><time>2026-04-04T15:45:12.823Z</time></trkpt><trkpt lat="41.9391" lon="-8.0089033"><ele>736.0</ele><time>2026-04-04T15:45:13.823Z</time></trkpt><trkpt lat="41.9390883" lon="-8.0090367"><ele>736.5</ele><time>2026-04-04T15:45:14.823Z</time></trkpt><trkpt lat="41.939075" lon="-8.0091633"><ele>737.0</ele><time>2026-04-04T15:45:15.823Z</time></trkpt><trkpt lat="41.9390633" lon="-8.0092883"><ele>737.5</ele><time>2026-04-04T15:45:16.825Z</time></trkpt><trkpt lat="41.93906" lon="-8.0094067"><ele>738.0</ele><time>2026-04-04T15:45:17.824Z</time></trkpt><trkpt lat="41.939055" lon="-8.0095183"><ele>738.5</ele><time>2026-04-04T15:45:18.823Z</time></trkpt><trkpt lat="41.939045" lon="-8.00961"><ele>739.0</ele><time>2026-04-04T15:45:19.824Z</time></trkpt><trkpt lat="41.939025" lon="-8.0097433"><ele>739.0</ele><time>2026-04-04T15:45:21.823Z</time></trkpt><trkpt lat="41.9389533" lon="-8.0098567"><ele>739.0</ele><time>2026-04-04T15:45:23.823Z</time></trkpt><trkpt lat="41.9388267" lon="-8.0099133"><ele>739.0</ele><time>2026-04-04T15:45:25.825Z</time></trkpt><trkpt lat="41.9387467" lon="-8.0099217"><ele>739.0</ele><time>2026-04-04T15:45:26.825Z</time></trkpt><trkpt lat="41.9386433" lon="-8.0099217"><ele>739.0</ele><time>2026-04-04T15:45:27.824Z</time></trkpt><trkpt lat="41.93855" lon="-8.009945"><ele>739.0</ele><time>2026-04-04T15:45:28.823Z</time></trkpt><trkpt lat="41.9384383" lon="-8.0099867"><ele>739.0</ele><time>2026-04-04T15:45:29.823Z</time></trkpt><trkpt lat="41.93831" lon="-8.0100383"><ele>739.0</ele><time>2026-04-04T15:45:30.823Z</time></trkpt><trkpt lat="41.9382083" lon="-8.010075"><ele>739.0</ele><time>2026-04-04T15:45:31.823Z</time></trkpt><trkpt lat="41.9381133" lon="-8.01009"><ele>739.0</ele><time>2026-04-04T15:45:32.825Z</time></trkpt><trkpt lat="41.93802" lon="-8.010085"><ele>739.0</ele><time>2026-04-04T15:45:33.823Z</time></trkpt><trkpt lat="41.9379167" lon="-8.0100683"><ele>739.0</ele><time>2026-04-04T15:45:34.824Z</time></trkpt><trkpt lat="41.93782" lon="-8.010035"><ele>739.0</ele><time>2026-04-04T15:45:35.823Z</time></trkpt><trkpt lat="41.9377383" lon="-8.0099683"><ele>739.0</ele><time>2026-04-04T15:45:36.824Z</time></trkpt><trkpt lat="41.9376633" lon="-8.0098517"><ele>739.0</ele><time>2026-04-04T15:45:37.824Z</time></trkpt><trkpt lat="41.9376133" lon="-8.0097333"><ele>739.0</ele><time>2026-04-04T15:45:38.824Z</time></trkpt><trkpt lat="41.9375533" lon="-8.0096383"><ele>739.0</ele><time>2026-04-04T15:45:39.823Z</time></trkpt><trkpt lat="41.9374867" lon="-8.009545"><ele>739.0</ele><time>2026-04-04T15:45:40.823Z</time></trkpt><trkpt lat="41.9374" lon="-8.009465"><ele>739.0</ele><time>2026-04-04T15:45:41.824Z</time></trkpt><trkpt lat="41.937285" lon="-8.0093933"><ele>739.6</ele><time>2026-04-04T15:45:42.823Z</time></trkpt><trkpt lat="41.93718" lon="-8.0093483"><ele>740.2</ele><time>2026-04-04T15:45:43.824Z</time></trkpt><trkpt lat="41.9371033" lon="-8.009325"><ele>740.8000000000001</ele><time>2026-04-04T15:45:44.824Z</time></trkpt><trkpt lat="41.93702" lon="-8.0093217"><ele>741.4000000000001</ele><time>2026-04-04T15:45:45.823Z</time></trkpt><trkpt lat="41.93694" lon="-8.0093367"><ele>742.0</ele><time>2026-04-04T15:45:46.823Z</time></trkpt><trkpt lat="41.9368483" lon="-8.0093833"><ele>742.0</ele><time>2026-04-04T15:45:47.824Z</time></trkpt><trkpt lat="41.9367467" lon="-8.009455"><ele>742.0</ele><time>2026-04-04T15:45:48.824Z</time></trkpt><trkpt lat="41.93665" lon="-8.0095383"><ele>742.0</ele><time>2026-04-04T15:45:49.824Z</time></trkpt><trkpt lat="41.9365533" lon="-8.0096383"><ele>742.0</ele><time>2026-04-04T15:45:50.823Z</time></trkpt><trkpt lat="41.936455" lon="-8.0097433"><ele>740.75</ele><time>2026-04-04T15:45:51.823Z</time></trkpt><trkpt lat="41.93636" lon="-8.0098517"><ele>739.5</ele><time>2026-04-04T15:45:52.823Z</time></trkpt><trkpt lat="41.9362683" lon="-8.0099667"><ele>738.25</ele><time>2026-04-04T15:45:53.823Z</time></trkpt><trkpt lat="41.936185" lon="-8.0100983"><ele>737.0</ele><time>2026-04-04T15:45:54.824Z</time></trkpt><trkpt lat="41.93611" lon="-8.0102217"><ele>740.75</ele><time>2026-04-04T15:45:55.824Z</time></trkpt><trkpt lat="41.936055" lon="-8.0103467"><ele>744.5</ele><time>2026-04-04T15:45:56.824Z</time></trkpt><trkpt lat="41.936015" lon="-8.010475"><ele>748.25</ele><time>2026-04-04T15:45:57.823Z</time></trkpt><trkpt lat="41.9359817" lon="-8.0106233"><ele>752.0</ele><time>2026-04-04T15:45:58.825Z</time></trkpt><trkpt lat="41.93596" lon="-8.010795"><ele>754.0</ele><time>2026-04-04T15:45:59.824Z</time></trkpt><trkpt lat="41.93595" lon="-8.010985"><ele>756.0</ele><time>2026-04-04T15:46:00.824Z</time></trkpt><trkpt lat="41.9359433" lon="-8.0111517"><ele>758.0</ele><time>2026-04-04T15:46:01.823Z</time></trkpt><trkpt lat="41.935945" lon="-8.0112967"><ele>760.0</ele><time>2026-04-04T15:46:02.823Z</time></trkpt><trkpt lat="41.9359133" lon="-8.01141"><ele>759.2</ele><time>2026-04-04T15:46:03.823Z</time></trkpt><trkpt lat="41.9358617" lon="-8.011515"><ele>758.4</ele><time>2026-04-04T15:46:04.827Z</time></trkpt><trkpt lat="41.93579" lon="-8.0116217"><ele>757.5999999999999</ele><time>2026-04-04T15:46:05.827Z</time></trkpt><trkpt lat="41.93572" lon="-8.01171"><ele>756.8</ele><time>2026-04-04T15:46:06.824Z</time></trkpt><trkpt lat="41.9356667" lon="-8.0118483"><ele>756.0</ele><time>2026-04-04T15:46:07.823Z</time></trkpt><trkpt lat="41.93562" lon="-8.012"><ele>756.0</ele><time>2026-04-04T15:46:08.824Z</time></trkpt><trkpt lat="41.9355683" lon="-8.0121567"><ele>756.0</ele><time>2026-04-04T15:46:09.823Z</time></trkpt><trkpt lat="41.93552" lon="-8.01232"><ele>756.0</ele><time>2026-04-04T15:46:10.823Z</time></trkpt><trkpt lat="41.9354883" lon="-8.0124833"><ele>756.0</ele><time>2026-04-04T15:46:11.825Z</time></trkpt><trkpt lat="41.9354733" lon="-8.0126433"><ele>757.0</ele><time>2026-04-04T15:46:12.824Z</time></trkpt><trkpt lat="41.9354883" lon="-8.0128067"><ele>758.0</ele><time>2026-04-04T15:46:13.824Z</time></trkpt><trkpt lat="41.935525" lon="-8.01297"><ele>759.0</ele><time>2026-04-04T15:46:14.827Z</time></trkpt><trkpt lat="41.9355867" lon="-8.013115"><ele>760.0</ele><time>2026-04-04T15:46:15.823Z</time></trkpt><trkpt lat="41.93566" lon="-8.0132433"><ele>759.75</ele><time>2026-04-04T15:46:16.823Z</time></trkpt><trkpt lat="41.93574" lon="-8.0133567"><ele>759.5</ele><time>2026-04-04T15:46:17.824Z</time></trkpt><trkpt lat="41.935835" lon="-8.0134567"><ele>759.25</ele><time>2026-04-04T15:46:18.824Z</time></trkpt><trkpt lat="41.9359283" lon="-8.0135667"><ele>759.0</ele><time>2026-04-04T15:46:19.824Z</time></trkpt><trkpt lat="41.9360033" lon="-8.01367"><ele>760.0</ele><time>2026-04-04T15:46:20.825Z</time></trkpt><trkpt lat="41.9360467" lon="-8.0137833"><ele>761.0</ele><time>2026-04-04T15:46:21.824Z</time></trkpt><trkpt lat="41.93607" lon="-8.01388"><ele>762.0</ele><time>2026-04-04T15:46:22.825Z</time></trkpt><trkpt lat="41.936065" lon="-8.014005"><ele>763.0</ele><time>2026-04-04T15:46:24.825Z</time></trkpt><trkpt lat="41.9359833" lon="-8.0140883"><ele>764.0</ele><time>2026-04-04T15:46:26.825Z</time></trkpt><trkpt lat="41.9359217" lon="-8.0141383"><ele>765.0</ele><time>2026-04-04T15:46:27.824Z</time></trkpt><trkpt lat="41.9358417" lon="-8.0141967"><ele>765.0</ele><time>2026-04-04T15:46:28.824Z</time></trkpt><trkpt lat="41.93575" lon="-8.0142517"><ele>765.0</ele><time>2026-04-04T15:46:29.823Z</time></trkpt><trkpt lat="41.93565" lon="-8.0143183"><ele>765.0</ele><time>2026-04-04T15:46:30.824Z</time></trkpt><trkpt lat="41.9355467" lon="-8.0144117"><ele>765.0</ele><time>2026-04-04T15:46:31.825Z</time></trkpt><trkpt lat="41.935435" lon="-8.0145367"><ele>765.0</ele><time>2026-04-04T15:46:32.824Z</time></trkpt><trkpt lat="41.93532" lon="-8.01467"><ele>765.0</ele><time>2026-04-04T15:46:33.823Z</time></trkpt><trkpt lat="41.9352067" lon="-8.01479"><ele>765.0</ele><time>2026-04-04T15:46:34.823Z</time></trkpt><trkpt lat="41.9350933" lon="-8.0148967"><ele>765.0</ele><time>2026-04-04T15:46:35.824Z</time></trkpt><trkpt lat="41.93499" lon="-8.0149983"><ele>764.5</ele><time>2026-04-04T15:46:36.823Z</time></trkpt><trkpt lat="41.93489" lon="-8.0151183"><ele>764.0</ele><time>2026-04-04T15:46:37.823Z</time></trkpt><trkpt lat="41.9347833" lon="-8.0152567"><ele>763.5</ele><time>2026-04-04T15:46:38.824Z</time></trkpt><trkpt lat="41.9346617" lon="-8.0154033"><ele>763.0</ele><time>2026-04-04T15:46:39.823Z</time></trkpt><trkpt lat="41.9345317" lon="-8.01554"><ele>763.0</ele><time>2026-04-04T15:46:40.822Z</time></trkpt><trkpt lat="41.9343917" lon="-8.0156617"><ele>763.0</ele><time>2026-04-04T15:46:41.824Z</time></trkpt><trkpt lat="41.9342533" lon="-8.0157683"><ele>763.0</ele><time>2026-04-04T15:46:42.822Z</time></trkpt><trkpt lat="41.93414" lon="-8.0158683"><ele>763.2</ele><time>2026-04-04T15:46:43.822Z</time></trkpt><trkpt lat="41.93406" lon="-8.0159667"><ele>763.4</ele><time>2026-04-04T15:46:44.823Z</time></trkpt><trkpt lat="41.9340033" lon="-8.0160683"><ele>763.6</ele><time>2026-04-04T15:46:45.822Z</time></trkpt><trkpt lat="41.9339533" lon="-8.0161817"><ele>763.8000000000001</ele><time>2026-04-04T15:46:46.823Z</time></trkpt><trkpt lat="41.933925" lon="-8.0163383"><ele>764.0</ele><time>2026-04-04T15:46:47.825Z</time></trkpt><trkpt lat="41.9338917" lon="-8.016515"><ele>765.4000000000001</ele><time>2026-04-04T15:46:48.822Z</time></trkpt><trkpt lat="41.9338533" lon="-8.01668"><ele>766.8</ele><time>2026-04-04T15:46:49.822Z</time></trkpt><trkpt lat="41.933805" lon="-8.0168183"><ele>768.2</ele><time>2026-04-04T15:46:50.825Z</time></trkpt><trkpt lat="41.9337483" lon="-8.0169267"><ele>769.5999999999999</ele><time>2026-04-04T15:46:51.822Z</time></trkpt><trkpt lat="41.9336817" lon="-8.0170217"><ele>771.0</ele><time>2026-04-04T15:46:52.822Z</time></trkpt><trkpt lat="41.9336067" lon="-8.01709"><ele>771.0</ele><time>2026-04-04T15:46:53.824Z</time></trkpt><trkpt lat="41.93351" lon="-8.0171417"><ele>771.0</ele><time>2026-04-04T15:46:54.823Z</time></trkpt><trkpt lat="41.9334133" lon="-8.0171933"><ele>771.0</ele><time>2026-04-04T15:46:55.823Z</time></trkpt><trkpt lat="41.93332" lon="-8.0172217"><ele>771.0</ele><time>2026-04-04T15:46:56.824Z</time></trkpt><trkpt lat="41.9331983" lon="-8.0172133"><ele>771.0</ele><time>2026-04-04T15:46:57.823Z</time></trkpt><trkpt lat="41.9331" lon="-8.0171183"><ele>768.5</ele><time>2026-04-04T15:46:58.822Z</time></trkpt><trkpt lat="41.9329717" lon="-8.0169617"><ele>766.0</ele><time>2026-04-04T15:46:59.824Z</time></trkpt><trkpt lat="41.9328583" lon="-8.0168833"><ele>763.5</ele><time>2026-04-04T15:47:00.822Z</time></trkpt><trkpt lat="41.9327533" lon="-8.0168567"><ele>761.0</ele><time>2026-04-04T15:47:01.823Z</time></trkpt><trkpt lat="41.9326233" lon="-8.0168467"><ele>761.75</ele><time>2026-04-04T15:47:02.825Z</time></trkpt><trkpt lat="41.9325" lon="-8.0168467"><ele>762.5</ele><time>2026-04-04T15:47:03.822Z</time></trkpt><trkpt lat="41.9323583" lon="-8.0168283"><ele>763.25</ele><time>2026-04-04T15:47:04.822Z</time></trkpt><trkpt lat="41.932205" lon="-8.01681"><ele>764.0</ele><time>2026-04-04T15:47:05.824Z</time></trkpt><trkpt lat="41.932045" lon="-8.016775"><ele>764.0</ele><time>2026-04-04T15:47:06.822Z</time></trkpt><trkpt lat="41.9319017" lon="-8.0167483"><ele>764.0</ele><time>2026-04-04T15:47:07.822Z</time></trkpt><trkpt lat="41.93177" lon="-8.0167333"><ele>764.0</ele><time>2026-04-04T15:47:08.824Z</time></trkpt><trkpt lat="41.9316533" lon="-8.016735"><ele>764.0</ele><time>2026-04-04T15:47:09.823Z</time></trkpt><trkpt lat="41.9315583" lon="-8.01675"><ele>763.4000000000001</ele><time>2026-04-04T15:47:10.823Z</time></trkpt><trkpt lat="41.93148" lon="-8.0167633"><ele>762.8</ele><time>2026-04-04T15:47:11.822Z</time></trkpt><trkpt lat="41.931415" lon="-8.0167817"><ele>762.2</ele><time>2026-04-04T15:47:12.824Z</time></trkpt><trkpt lat="41.9313233" lon="-8.0168283"><ele>761.5999999999999</ele><time>2026-04-04T15:47:14.823Z</time></trkpt><trkpt lat="41.9313733" lon="-8.0169667"><ele>761.0</ele><time>2026-04-04T15:47:59.823Z</time></trkpt><trkpt lat="41.931315" lon="-8.0170983"><ele>761.0</ele><time>2026-04-04T15:48:02.824Z</time></trkpt><trkpt lat="41.9312833" lon="-8.0171917"><ele>761.0</ele><time>2026-04-04T15:48:03.822Z</time></trkpt><trkpt lat="41.9312433" lon="-8.01732"><ele>761.0</ele><time>2026-04-04T15:48:04.823Z</time></trkpt><trkpt lat="41.931195" lon="-8.0174333"><ele>761.0</ele><time>2026-04-04T15:48:05.824Z</time></trkpt><trkpt lat="41.931145" lon="-8.0175667"><ele>761.0</ele><time>2026-04-04T15:48:06.822Z</time></trkpt><trkpt lat="41.9311067" lon="-8.0177083"><ele>763.75</ele><time>2026-04-04T15:48:07.823Z</time></trkpt><trkpt lat="41.9310633" lon="-8.01786"><ele>766.5</ele><time>2026-04-04T15:48:08.823Z</time></trkpt><trkpt lat="41.9310233" lon="-8.0180267"><ele>769.25</ele><time>2026-04-04T15:48:09.823Z</time></trkpt><trkpt lat="41.9309783" lon="-8.0181883"><ele>772.0</ele><time>2026-04-04T15:48:10.823Z</time></trkpt><trkpt lat="41.9309467" lon="-8.018335"><ele>772.8</ele><time>2026-04-04T15:48:11.827Z</time></trkpt><trkpt lat="41.9309217" lon="-8.01848"><ele>773.6</ele><time>2026-04-04T15:48:12.823Z</time></trkpt><trkpt lat="41.9309067" lon="-8.0186217"><ele>774.4</ele><time>2026-04-04T15:48:13.822Z</time></trkpt><trkpt lat="41.9309017" lon="-8.0187633"><ele>775.1999999999999</ele><time>2026-04-04T15:48:14.823Z</time></trkpt><trkpt lat="41.9309017" lon="-8.0189183"><ele>776.0</ele><time>2026-04-04T15:48:15.822Z</time></trkpt><trkpt lat="41.9309133" lon="-8.0190817"><ele>774.5999999999999</ele><time>2026-04-04T15:48:16.822Z</time></trkpt><trkpt lat="41.9309333" lon="-8.01923"><ele>773.2</ele><time>2026-04-04T15:48:17.822Z</time></trkpt><trkpt lat="41.93096" lon="-8.019365"><ele>771.8</ele><time>2026-04-04T15:48:18.823Z</time></trkpt><trkpt lat="41.9309833" lon="-8.019475"><ele>770.4000000000001</ele><time>2026-04-04T15:48:19.823Z</time></trkpt><trkpt lat="41.9310033" lon="-8.0195667"><ele>769.0</ele><time>2026-04-04T15:48:20.825Z</time></trkpt><trkpt lat="41.9310167" lon="-8.0196883"><ele>769.0</ele><time>2026-04-04T15:48:22.823Z</time></trkpt><trkpt lat="41.931055" lon="-8.0198183"><ele>769.0</ele><time>2026-04-04T15:48:24.823Z</time></trkpt><trkpt lat="41.9310867" lon="-8.0199083"><ele>769.0</ele><time>2026-04-04T15:48:25.825Z</time></trkpt><trkpt lat="41.9311267" lon="-8.0200133"><ele>769.0</ele><time>2026-04-04T15:48:26.823Z</time></trkpt><trkpt lat="41.93119" lon="-8.0201583"><ele>769.0</ele><time>2026-04-04T15:48:27.823Z</time></trkpt><trkpt lat="41.93127" lon="-8.0203083"><ele>766.0</ele><time>2026-04-04T15:48:28.824Z</time></trkpt><trkpt lat="41.93136" lon="-8.0204417"><ele>763.0</ele><time>2026-04-04T15:48:29.824Z</time></trkpt><trkpt lat="41.9314667" lon="-8.0205933"><ele>760.0</ele><time>2026-04-04T15:48:30.824Z</time></trkpt><trkpt lat="41.9315833" lon="-8.0207383"><ele>757.0</ele><time>2026-04-04T15:48:31.823Z</time></trkpt><trkpt lat="41.9316883" lon="-8.0208717"><ele>752.6666666666667</ele><time>2026-04-04T15:48:32.823Z</time></trkpt><trkpt lat="41.931785" lon="-8.0210183"><ele>748.3333333333334</ele><time>2026-04-04T15:48:33.823Z</time></trkpt><trkpt lat="41.93188" lon="-8.0212033"><ele>744.0</ele><time>2026-04-04T15:48:34.823Z</time></trkpt><trkpt lat="41.9319783" lon="-8.0214067"><ele>744.0</ele><time>2026-04-04T15:48:35.823Z</time></trkpt><trkpt lat="41.93207" lon="-8.0216067"><ele>744.0</ele><time>2026-04-04T15:48:36.822Z</time></trkpt><trkpt lat="41.9321617" lon="-8.0218083"><ele>744.0</ele><time>2026-04-04T15:48:37.823Z</time></trkpt><trkpt lat="41.9322517" lon="-8.0220067"><ele>742.0</ele><time>2026-04-04T15:48:38.825Z</time></trkpt><trkpt lat="41.93234" lon="-8.02219"><ele>740.0</ele><time>2026-04-04T15:48:39.824Z</time></trkpt><trkpt lat="41.9324117" lon="-8.0223533"><ele>738.0</ele><time>2026-04-04T15:48:40.823Z</time></trkpt><trkpt lat="41.932465" lon="-8.0224967"><ele>736.0</ele><time>2026-04-04T15:48:41.825Z</time></trkpt><trkpt lat="41.9325017" lon="-8.0226233"><ele>735.0</ele><time>2026-04-04T15:48:42.823Z</time></trkpt><trkpt lat="41.932515" lon="-8.0227317"><ele>734.0</ele><time>2026-04-04T15:48:43.825Z</time></trkpt><trkpt lat="41.932515" lon="-8.0228333"><ele>733.0</ele><time>2026-04-04T15:48:44.825Z</time></trkpt><trkpt lat="41.9324567" lon="-8.0229567"><ele>732.0</ele><time>2026-04-04T15:48:46.823Z</time></trkpt><trkpt lat="41.93232" lon="-8.022995"><ele>731.0</ele><time>2026-04-04T15:48:48.824Z</time></trkpt><trkpt lat="41.9322567" lon="-8.022995"><ele>731.0</ele><time>2026-04-04T15:48:49.824Z</time></trkpt><trkpt lat="41.9321517" lon="-8.0229767"><ele>731.0</ele><time>2026-04-04T15:48:51.823Z</time></trkpt><trkpt lat="41.93206" lon="-8.02296"><ele>731.0</ele><time>2026-04-04T15:48:53.825Z</time></trkpt><trkpt lat="41.931975" lon="-8.0229583"><ele>731.0</ele><time>2026-04-04T15:48:56.824Z</time></trkpt><trkpt lat="41.932005" lon="-8.02288"><ele>731.0</ele><time>2026-04-04T15:49:02.824Z</time></trkpt><trkpt lat="41.9320717" lon="-8.02288"><ele>731.0</ele><time>2026-04-04T15:49:04.823Z</time></trkpt><trkpt lat="41.9321533" lon="-8.0228817"><ele>731.0</ele><time>2026-04-04T15:49:06.823Z</time></trkpt><trkpt lat="41.9322683" lon="-8.0228933"><ele>731.0</ele><time>2026-04-04T15:49:08.824Z</time></trkpt><trkpt lat="41.9323383" lon="-8.0228917"><ele>731.0</ele><time>2026-04-04T15:49:09.823Z</time></trkpt><trkpt lat="41.9324117" lon="-8.0228733"><ele>731.0</ele><time>2026-04-04T15:49:10.823Z</time></trkpt><trkpt lat="41.9324783" lon="-8.02284"><ele>731.0</ele><time>2026-04-04T15:49:11.824Z</time></trkpt><trkpt lat="41.9325333" lon="-8.0227933"><ele>731.0</ele><time>2026-04-04T15:49:12.823Z</time></trkpt><trkpt lat="41.9325817" lon="-8.0227317"><ele>731.1999999999999</ele><time>2026-04-04T15:49:13.823Z</time></trkpt><trkpt lat="41.9326633" lon="-8.0226067"><ele>731.4</ele><time>2026-04-04T15:49:15.824Z</time></trkpt><trkpt lat="41.93275" lon="-8.0224817"><ele>731.6</ele><time>2026-04-04T15:49:17.823Z</time></trkpt><trkpt lat="41.9328017" lon="-8.0224333"><ele>731.8</ele><time>2026-04-04T15:49:18.823Z</time></trkpt><trkpt lat="41.932865" lon="-8.0223933"><ele>732.0</ele><time>2026-04-04T15:49:19.825Z</time></trkpt><trkpt lat="41.9329433" lon="-8.0223567"><ele>733.4000000000001</ele><time>2026-04-04T15:49:20.825Z</time></trkpt><trkpt lat="41.9330533" lon="-8.0223433"><ele>734.8000000000001</ele><time>2026-04-04T15:49:21.823Z</time></trkpt><trkpt lat="41.9331733" lon="-8.02236"><ele>736.2</ele><time>2026-04-04T15:49:22.825Z</time></trkpt><trkpt lat="41.9332867" lon="-8.0223817"><ele>737.6</ele><time>2026-04-04T15:49:23.824Z</time></trkpt><trkpt lat="41.9333883" lon="-8.0223833"><ele>739.0</ele><time>2026-04-04T15:49:24.823Z</time></trkpt><trkpt lat="41.93348" lon="-8.022365"><ele>739.0</ele><time>2026-04-04T15:49:25.823Z</time></trkpt><trkpt lat="41.9335567" lon="-8.0223317"><ele>739.0</ele><time>2026-04-04T15:49:26.824Z</time></trkpt><trkpt lat="41.9336283" lon="-8.0222783"><ele>739.0</ele><time>2026-04-04T15:49:27.823Z</time></trkpt><trkpt lat="41.9336933" lon="-8.0222067"><ele>739.0</ele><time>2026-04-04T15:49:28.823Z</time></trkpt><trkpt lat="41.9337433" lon="-8.0221183"><ele>739.0</ele><time>2026-04-04T15:49:29.823Z</time></trkpt><trkpt lat="41.9337917" lon="-8.02203"><ele>739.0</ele><time>2026-04-04T15:49:30.824Z</time></trkpt><trkpt lat="41.9338283" lon="-8.02194"><ele>739.0</ele><time>2026-04-04T15:49:31.825Z</time></trkpt><trkpt lat="41.9338583" lon="-8.0218483"><ele>739.0</ele><time>2026-04-04T15:49:32.826Z</time></trkpt><trkpt lat="41.9338733" lon="-8.0217467"><ele>739.0</ele><time>2026-04-04T15:49:33.823Z</time></trkpt><trkpt lat="41.93388" lon="-8.021645"><ele>739.0</ele><time>2026-04-04T15:49:34.824Z</time></trkpt><trkpt lat="41.9338733" lon="-8.02155"><ele>739.0</ele><time>2026-04-04T15:49:35.823Z</time></trkpt><trkpt lat="41.93386" lon="-8.0214583"><ele>739.0</ele><time>2026-04-04T15:49:36.823Z</time></trkpt><trkpt lat="41.93384" lon="-8.0213767"><ele>739.0</ele><time>2026-04-04T15:49:37.824Z</time></trkpt><trkpt lat="41.93383" lon="-8.0212583"><ele>740.3333333333334</ele><time>2026-04-04T15:49:39.823Z</time></trkpt><trkpt lat="41.9338583" lon="-8.0211733"><ele>741.6666666666667</ele><time>2026-04-04T15:49:41.824Z</time></trkpt><trkpt lat="41.9338733" lon="-8.02108"><ele>743.0</ele><time>2026-04-04T15:49:43.823Z</time></trkpt><trkpt lat="41.93391" lon="-8.02097"><ele>744.3333333333334</ele><time>2026-04-04T15:49:46.824Z</time></trkpt><trkpt lat="41.933955" lon="-8.0208967"><ele>745.6666666666666</ele><time>2026-04-04T15:49:49.823Z</time></trkpt><trkpt lat="41.9339483" lon="-8.020995"><ele>747.0</ele><time>2026-04-04T15:50:33.824Z</time></trkpt><trkpt lat="41.9339" lon="-8.021115"><ele>747.0</ele><time>2026-04-04T15:50:35.824Z</time></trkpt><trkpt lat="41.9338733" lon="-8.02124"><ele>747.0</ele><time>2026-04-04T15:50:37.823Z</time></trkpt><trkpt lat="41.93388" lon="-8.0213967"><ele>747.0</ele><time>2026-04-04T15:50:39.822Z</time></trkpt><trkpt lat="41.9338867" lon="-8.0214983"><ele>747.0</ele><time>2026-04-04T15:50:40.824Z</time></trkpt><trkpt lat="41.9338933" lon="-8.0216033"><ele>747.0</ele><time>2026-04-04T15:50:41.825Z</time></trkpt><trkpt lat="41.9338833" lon="-8.0217017"><ele>747.0</ele><time>2026-04-04T15:50:42.823Z</time></trkpt><trkpt lat="41.9338617" lon="-8.0218033"><ele>745.6666666666666</ele><time>2026-04-04T15:50:43.823Z</time></trkpt><trkpt lat="41.93383" lon="-8.021925"><ele>744.3333333333334</ele><time>2026-04-04T15:50:44.823Z</time></trkpt><trkpt lat="41.9337817" lon="-8.02203"><ele>743.0</ele><time>2026-04-04T15:50:45.822Z</time></trkpt><trkpt lat="41.9337383" lon="-8.022115"><ele>741.6666666666667</ele><time>2026-04-04T15:50:46.823Z</time></trkpt><trkpt lat="41.9337" lon="-8.0221833"><ele>740.3333333333334</ele><time>2026-04-04T15:50:47.823Z</time></trkpt><trkpt lat="41.9336267" lon="-8.0222817"><ele>739.0</ele><time>2026-04-04T15:50:49.822Z</time></trkpt><trkpt lat="41.9335433" lon="-8.0223717"><ele>739.0</ele><time>2026-04-04T15:50:51.822Z</time></trkpt><trkpt lat="41.9334717" lon="-8.0224417"><ele>739.0</ele><time>2026-04-04T15:50:53.824Z</time></trkpt><trkpt lat="41.9333833" lon="-8.022495"><ele>739.0</ele><time>2026-04-04T15:50:55.823Z</time></trkpt><trkpt lat="41.933305" lon="-8.0225167"><ele>739.0</ele><time>2026-04-04T15:50:57.822Z</time></trkpt><trkpt lat="41.93322" lon="-8.022505"><ele>739.0</ele><time>2026-04-04T15:51:00.824Z</time></trkpt><trkpt lat="41.9331467" lon="-8.02248"><ele>739.0</ele><time>2026-04-04T15:51:02.823Z</time></trkpt><trkpt lat="41.93305" lon="-8.02245"><ele>739.3333333333334</ele><time>2026-04-04T15:51:04.822Z</time></trkpt><trkpt lat="41.9329233" lon="-8.02243"><ele>739.6666666666667</ele><time>2026-04-04T15:51:06.823Z</time></trkpt><trkpt lat="41.93285" lon="-8.0224367"><ele>740.0</ele><time>2026-04-04T15:51:07.823Z</time></trkpt><trkpt lat="41.9327717" lon="-8.0224533"><ele>740.3333333333334</ele><time>2026-04-04T15:51:08.824Z</time></trkpt><trkpt lat="41.9326933" lon="-8.0225017"><ele>740.6666666666666</ele><time>2026-04-04T15:51:09.825Z</time></trkpt><trkpt lat="41.9326233" lon="-8.022555"><ele>741.0</ele><time>2026-04-04T15:51:10.823Z</time></trkpt><trkpt lat="41.9325533" lon="-8.0226317"><ele>739.0</ele><time>2026-04-04T15:51:11.824Z</time></trkpt><trkpt lat="41.9324733" lon="-8.02272"><ele>737.0</ele><time>2026-04-04T15:51:12.823Z</time></trkpt><trkpt lat="41.9323917" lon="-8.0228083"><ele>735.0</ele><time>2026-04-04T15:51:13.823Z</time></trkpt><trkpt lat="41.932305" lon="-8.022885"><ele>733.0</ele><time>2026-04-04T15:51:14.823Z</time></trkpt><trkpt lat="41.9321983" lon="-8.0229317"><ele>731.0</ele><time>2026-04-04T15:51:15.824Z</time></trkpt><trkpt lat="41.9320933" lon="-8.022945"><ele>731.0</ele><time>2026-04-04T15:51:16.823Z</time></trkpt><trkpt lat="41.93201" lon="-8.0229467"><ele>731.0</ele><time>2026-04-04T15:51:17.823Z</time></trkpt><trkpt lat="41.9319433" lon="-8.022955"><ele>731.0</ele><time>2026-04-04T15:51:18.823Z</time></trkpt><trkpt lat="41.9318583" lon="-8.0230183"><ele>731.0</ele><time>2026-04-04T15:51:20.824Z</time></trkpt><trkpt lat="41.9318483" lon="-8.0231367"><ele>731.0</ele><time>2026-04-04T15:51:22.824Z</time></trkpt><trkpt lat="41.9319417" lon="-8.023295"><ele>728.5999999999999</ele><time>2026-04-04T15:51:24.824Z</time></trkpt><trkpt lat="41.9320167" lon="-8.0233817"><ele>726.2</ele><time>2026-04-04T15:51:25.823Z</time></trkpt><trkpt lat="41.932115" lon="-8.02346"><ele>723.8</ele><time>2026-04-04T15:51:26.823Z</time></trkpt><trkpt lat="41.9322017" lon="-8.0235267"><ele>721.4000000000001</ele><time>2026-04-04T15:51:27.825Z</time></trkpt><trkpt lat="41.9322817" lon="-8.0235817"><ele>719.0</ele><time>2026-04-04T15:51:28.823Z</time></trkpt><trkpt lat="41.93237" lon="-8.0236317"><ele>719.0</ele><time>2026-04-04T15:51:29.824Z</time></trkpt><trkpt lat="41.932455" lon="-8.023675"><ele>719.0</ele><time>2026-04-04T15:51:30.824Z</time></trkpt><trkpt lat="41.9325417" lon="-8.023705"><ele>719.0</ele><time>2026-04-04T15:51:31.824Z</time></trkpt><trkpt lat="41.932625" lon="-8.0237267"><ele>719.0</ele><time>2026-04-04T15:51:32.823Z</time></trkpt><trkpt lat="41.9327067" lon="-8.0237367"><ele>719.0</ele><time>2026-04-04T15:51:33.823Z</time></trkpt><trkpt lat="41.9327917" lon="-8.023725"><ele>719.0</ele><time>2026-04-04T15:51:34.823Z</time></trkpt><trkpt lat="41.9328583" lon="-8.0237067"><ele>718.3333333333333</ele><time>2026-04-04T15:51:35.823Z</time></trkpt><trkpt lat="41.9329217" lon="-8.0236867"><ele>717.6666666666666</ele><time>2026-04-04T15:51:36.823Z</time></trkpt><trkpt lat="41.9329833" lon="-8.0236367"><ele>717.0</ele><time>2026-04-04T15:51:38.824Z</time></trkpt><trkpt lat="41.93302" lon="-8.02356"><ele>716.3333333333334</ele><time>2026-04-04T15:51:40.823Z</time></trkpt><trkpt lat="41.9330583" lon="-8.0234783"><ele>715.6666666666667</ele><time>2026-04-04T15:51:42.823Z</time></trkpt><trkpt lat="41.9331367" lon="-8.0234133"><ele>715.0</ele><time>2026-04-04T15:51:44.824Z</time></trkpt><trkpt lat="41.9332567" lon="-8.0233917"><ele>715.0</ele><time>2026-04-04T15:51:46.823Z</time></trkpt><trkpt lat="41.9333333" lon="-8.023395"><ele>715.0</ele><time>2026-04-04T15:51:47.823Z</time></trkpt><trkpt lat="41.9334083" lon="-8.0233983"><ele>715.0</ele><time>2026-04-04T15:51:48.823Z</time></trkpt><trkpt lat="41.93348" lon="-8.0233933"><ele>715.0</ele><time>2026-04-04T15:51:49.824Z</time></trkpt><trkpt lat="41.9335517" lon="-8.0233867"><ele>715.0</ele><time>2026-04-04T15:51:50.824Z</time></trkpt><trkpt lat="41.9336217" lon="-8.0233617"><ele>715.0</ele><time>2026-04-04T15:51:51.823Z</time></trkpt><trkpt lat="41.9337383" lon="-8.0232817"><ele>717.5</ele><time>2026-04-04T15:51:53.822Z</time></trkpt><trkpt lat="41.9338183" lon="-8.0231933"><ele>720.0</ele><time>2026-04-04T15:51:54.823Z</time></trkpt><trkpt lat="41.933905" lon="-8.0230767"><ele>722.5</ele><time>2026-04-04T15:51:55.823Z</time></trkpt><trkpt lat="41.9339833" lon="-8.02293"><ele>725.0</ele><time>2026-04-04T15:51:56.824Z</time></trkpt><trkpt lat="41.93406" lon="-8.0228067"><ele>725.0</ele><time>2026-04-04T15:51:57.823Z</time></trkpt><trkpt lat="41.9341417" lon="-8.0226983"><ele>725.0</ele><time>2026-04-04T15:51:58.823Z</time></trkpt><trkpt lat="41.93423" lon="-8.0226133"><ele>725.0</ele><time>2026-04-04T15:51:59.823Z</time></trkpt><trkpt lat="41.93432" lon="-8.022545"><ele>725.0</ele><time>2026-04-04T15:52:00.824Z</time></trkpt><trkpt lat="41.9344117" lon="-8.0224867"><ele>725.0</ele><time>2026-04-04T15:52:01.823Z</time></trkpt><trkpt lat="41.93451" lon="-8.02244"><ele>729.6</ele><time>2026-04-04T15:52:02.824Z</time></trkpt><trkpt lat="41.9346067" lon="-8.0224017"><ele>734.2</ele><time>2026-04-04T15:52:03.823Z</time></trkpt><trkpt lat="41.9347067" lon="-8.0223867"><ele>738.8</ele><time>2026-04-04T15:52:04.823Z</time></trkpt><trkpt lat="41.9348217" lon="-8.022405"><ele>743.4</ele><time>2026-04-04T15:52:05.824Z</time></trkpt><trkpt lat="41.93494" lon="-8.0224383"><ele>748.0</ele><time>2026-04-04T15:52:06.824Z</time></trkpt><trkpt lat="41.935055" lon="-8.0224733"><ele>744.25</ele><time>2026-04-04T15:52:07.823Z</time></trkpt><trkpt lat="41.93516" lon="-8.0225017"><ele>740.5</ele><time>2026-04-04T15:52:08.823Z</time></trkpt><trkpt lat="41.9352617" lon="-8.0225283"><ele>736.75</ele><time>2026-04-04T15:52:09.823Z</time></trkpt><trkpt lat="41.9353733" lon="-8.022545"><ele>733.0</ele><time>2026-04-04T15:52:10.823Z</time></trkpt><trkpt lat="41.9355033" lon="-8.0225517"><ele>733.0</ele><time>2026-04-04T15:52:11.824Z</time></trkpt><trkpt lat="41.935615" lon="-8.0225733"><ele>733.0</ele><time>2026-04-04T15:52:12.823Z</time></trkpt><trkpt lat="41.9357233" lon="-8.022595"><ele>733.0</ele><time>2026-04-04T15:52:13.823Z</time></trkpt><trkpt lat="41.9358317" lon="-8.022585"><ele>733.0</ele><time>2026-04-04T15:52:14.824Z</time></trkpt><trkpt lat="41.93593" lon="-8.02257"><ele>733.0</ele><time>2026-04-04T15:52:15.822Z</time></trkpt><trkpt lat="41.9360283" lon="-8.0225483"><ele>732.0</ele><time>2026-04-04T15:52:16.824Z</time></trkpt><trkpt lat="41.9361233" lon="-8.0225283"><ele>731.0</ele><time>2026-04-04T15:52:17.823Z</time></trkpt><trkpt lat="41.9362167" lon="-8.0225183"><ele>730.0</ele><time>2026-04-04T15:52:18.824Z</time></trkpt><trkpt lat="41.9362967" lon="-8.0225433"><ele>729.0</ele><time>2026-04-04T15:52:19.823Z</time></trkpt><trkpt lat="41.936385" lon="-8.02258"><ele>728.0</ele><time>2026-04-04T15:52:20.823Z</time></trkpt><trkpt lat="41.936475" lon="-8.022625"><ele>728.0</ele><time>2026-04-04T15:52:21.824Z</time></trkpt><trkpt lat="41.9365517" lon="-8.022675"><ele>728.0</ele><time>2026-04-04T15:52:22.823Z</time></trkpt><trkpt lat="41.9366233" lon="-8.0227267"><ele>728.0</ele><time>2026-04-04T15:52:23.825Z</time></trkpt><trkpt lat="41.9366867" lon="-8.02278"><ele>728.0</ele><time>2026-04-04T15:52:24.823Z</time></trkpt><trkpt lat="41.93675" lon="-8.0228267"><ele>728.0</ele><time>2026-04-04T15:52:25.823Z</time></trkpt><trkpt lat="41.936835" lon="-8.0228517"><ele>728.0</ele><time>2026-04-04T15:52:26.824Z</time></trkpt><trkpt lat="41.93693" lon="-8.0228467"><ele>727.4</ele><time>2026-04-04T15:52:27.823Z</time></trkpt><trkpt lat="41.9370017" lon="-8.0228533"><ele>726.8</ele><time>2026-04-04T15:52:28.824Z</time></trkpt><trkpt lat="41.9371167" lon="-8.02286"><ele>726.2</ele><time>2026-04-04T15:52:30.824Z</time></trkpt><trkpt lat="41.937235" lon="-8.0228317"><ele>725.6</ele><time>2026-04-04T15:52:32.824Z</time></trkpt><trkpt lat="41.9372983" lon="-8.0227983"><ele>725.0</ele><time>2026-04-04T15:52:33.823Z</time></trkpt><trkpt lat="41.9373683" lon="-8.0227583"><ele>725.0</ele><time>2026-04-04T15:52:34.823Z</time></trkpt><trkpt lat="41.9374533" lon="-8.0227217"><ele>725.0</ele><time>2026-04-04T15:52:35.823Z</time></trkpt><trkpt lat="41.9375383" lon="-8.0226917"><ele>725.0</ele><time>2026-04-04T15:52:36.825Z</time></trkpt><trkpt lat="41.93761" lon="-8.0226667"><ele>725.0</ele><time>2026-04-04T15:52:37.823Z</time></trkpt><trkpt lat="41.9377133" lon="-8.0226383"><ele>725.0</ele><time>2026-04-04T15:52:39.823Z</time></trkpt><trkpt lat="41.9378117" lon="-8.02267"><ele>724.0</ele><time>2026-04-04T15:52:41.824Z</time></trkpt><trkpt lat="41.9378317" lon="-8.02279"><ele>723.0</ele><time>2026-04-04T15:52:43.824Z</time></trkpt><trkpt lat="41.9378117" lon="-8.0229"><ele>722.0</ele><time>2026-04-04T15:52:44.824Z</time></trkpt><trkpt lat="41.9377933" lon="-8.0230217"><ele>721.0</ele><time>2026-04-04T15:52:45.824Z</time></trkpt><trkpt lat="41.9377633" lon="-8.02317"><ele>720.0</ele><time>2026-04-04T15:52:46.823Z</time></trkpt><trkpt lat="41.937755" lon="-8.0233033"><ele>718.4</ele><time>2026-04-04T15:52:47.824Z</time></trkpt><trkpt lat="41.9377567" lon="-8.0234467"><ele>716.8</ele><time>2026-04-04T15:52:48.823Z</time></trkpt><trkpt lat="41.937765" lon="-8.0235833"><ele>715.2</ele><time>2026-04-04T15:52:49.824Z</time></trkpt><trkpt lat="41.937775" lon="-8.0237167"><ele>713.6</ele><time>2026-04-04T15:52:50.824Z</time></trkpt><trkpt lat="41.9377833" lon="-8.0238483"><ele>712.0</ele><time>2026-04-04T15:52:51.824Z</time></trkpt><trkpt lat="41.937785" lon="-8.02397"><ele>712.0</ele><time>2026-04-04T15:52:52.823Z</time></trkpt><trkpt lat="41.93778" lon="-8.0240867"><ele>712.0</ele><time>2026-04-04T15:52:53.824Z</time></trkpt><trkpt lat="41.9377633" lon="-8.024195"><ele>712.0</ele><time>2026-04-04T15:52:54.824Z</time></trkpt><trkpt lat="41.937735" lon="-8.0242783"><ele>712.0</ele><time>2026-04-04T15:52:55.823Z</time></trkpt><trkpt lat="41.937695" lon="-8.0243617"><ele>712.0</ele><time>2026-04-04T15:52:56.824Z</time></trkpt><trkpt lat="41.9376233" lon="-8.0244317"><ele>712.0</ele><time>2026-04-04T15:52:57.823Z</time></trkpt><trkpt lat="41.937535" lon="-8.0244983"><ele>712.25</ele><time>2026-04-04T15:52:58.823Z</time></trkpt><trkpt lat="41.9373917" lon="-8.02455"><ele>712.5</ele><time>2026-04-04T15:52:59.824Z</time></trkpt><trkpt lat="41.9372617" lon="-8.024585"><ele>712.75</ele><time>2026-04-04T15:53:00.824Z</time></trkpt><trkpt lat="41.93715" lon="-8.024625"><ele>713.0</ele><time>2026-04-04T15:53:01.824Z</time></trkpt><trkpt lat="41.937055" lon="-8.02466"><ele>713.0</ele><time>2026-04-04T15:53:02.824Z</time></trkpt><trkpt lat="41.9369517" lon="-8.0246917"><ele>713.0</ele><time>2026-04-04T15:53:03.823Z</time></trkpt><trkpt lat="41.9368583" lon="-8.0247317"><ele>713.0</ele><time>2026-04-04T15:53:04.823Z</time></trkpt><trkpt lat="41.9367717" lon="-8.0247883"><ele>713.0</ele><time>2026-04-04T15:53:05.823Z</time></trkpt><trkpt lat="41.9366917" lon="-8.0248467"><ele>713.0</ele><time>2026-04-04T15:53:06.824Z</time></trkpt><trkpt lat="41.93662" lon="-8.02491"><ele>711.3333333333333</ele><time>2026-04-04T15:53:07.822Z</time></trkpt><trkpt lat="41.9365467" lon="-8.0249817"><ele>709.6666666666666</ele><time>2026-04-04T15:53:08.824Z</time></trkpt><trkpt lat="41.9364683" lon="-8.0250483"><ele>708.0</ele><time>2026-04-04T15:53:09.822Z</time></trkpt><trkpt lat="41.9364033" lon="-8.0251283"><ele>706.3333333333334</ele><time>2026-04-04T15:53:10.822Z</time></trkpt><trkpt lat="41.9363433" lon="-8.0252117"><ele>704.6666666666667</ele><time>2026-04-04T15:53:11.823Z</time></trkpt><trkpt lat="41.9362933" lon="-8.0253017"><ele>703.0</ele><time>2026-04-04T15:53:12.823Z</time></trkpt><trkpt lat="41.9362567" lon="-8.025395"><ele>703.0</ele><time>2026-04-04T15:53:13.823Z</time></trkpt><trkpt lat="41.93623" lon="-8.0254867"><ele>703.0</ele><time>2026-04-04T15:53:14.823Z</time></trkpt><trkpt lat="41.936205" lon="-8.0255733"><ele>703.0</ele><time>2026-04-04T15:53:15.822Z</time></trkpt><trkpt lat="41.9361833" lon="-8.0257317"><ele>703.0</ele><time>2026-04-04T15:53:17.822Z</time></trkpt><trkpt lat="41.936175" lon="-8.02586"><ele>703.0</ele><time>2026-04-04T15:53:19.823Z</time></trkpt><trkpt lat="41.9361817" lon="-8.02603"><ele>701.4</ele><time>2026-04-04T15:53:21.822Z</time></trkpt><trkpt lat="41.936195" lon="-8.026155"><ele>699.8</ele><time>2026-04-04T15:53:22.825Z</time></trkpt><trkpt lat="41.9362183" lon="-8.0262833"><ele>698.2</ele><time>2026-04-04T15:53:23.822Z</time></trkpt><trkpt lat="41.9362383" lon="-8.0264133"><ele>696.6</ele><time>2026-04-04T15:53:24.822Z</time></trkpt><trkpt lat="41.9362583" lon="-8.0265333"><ele>695.0</ele><time>2026-04-04T15:53:25.823Z</time></trkpt><trkpt lat="41.9362783" lon="-8.026665"><ele>693.8</ele><time>2026-04-04T15:53:26.824Z</time></trkpt><trkpt lat="41.9363067" lon="-8.0268067"><ele>692.6</ele><time>2026-04-04T15:53:27.822Z</time></trkpt><trkpt lat="41.93635" lon="-8.0269483"><ele>691.4000000000001</ele><time>2026-04-04T15:53:28.823Z</time></trkpt><trkpt lat="41.9364" lon="-8.0270933"><ele>690.2</ele><time>2026-04-04T15:53:29.822Z</time></trkpt><trkpt lat="41.9364333" lon="-8.02723"><ele>689.0</ele><time>2026-04-04T15:53:30.824Z</time></trkpt><trkpt lat="41.936455" lon="-8.0273683"><ele>687.4000000000001</ele><time>2026-04-04T15:53:31.822Z</time></trkpt><trkpt lat="41.93647" lon="-8.0275"><ele>685.8</ele><time>2026-04-04T15:53:32.823Z</time></trkpt><trkpt lat="41.9364917" lon="-8.02763"><ele>684.2</ele><time>2026-04-04T15:53:33.823Z</time></trkpt><trkpt lat="41.9365217" lon="-8.02776"><ele>682.5999999999999</ele><time>2026-04-04T15:53:34.823Z</time></trkpt><trkpt lat="41.936565" lon="-8.027885"><ele>681.0</ele><time>2026-04-04T15:53:35.822Z</time></trkpt><trkpt lat="41.93661" lon="-8.028005"><ele>681.0</ele><time>2026-04-04T15:53:36.823Z</time></trkpt><trkpt lat="41.93666" lon="-8.0281217"><ele>681.0</ele><time>2026-04-04T15:53:37.823Z</time></trkpt><trkpt lat="41.93671" lon="-8.02824"><ele>681.0</ele><time>2026-04-04T15:53:38.823Z</time></trkpt><trkpt lat="41.9367617" lon="-8.0283583"><ele>681.0</ele><time>2026-04-04T15:53:39.822Z</time></trkpt><trkpt lat="41.9368033" lon="-8.0284733"><ele>681.0</ele><time>2026-04-04T15:53:40.823Z</time></trkpt><trkpt lat="41.9368417" lon="-8.028585"><ele>679.0</ele><time>2026-04-04T15:53:41.822Z</time></trkpt><trkpt lat="41.9368617" lon="-8.0286917"><ele>677.0</ele><time>2026-04-04T15:53:42.823Z</time></trkpt><trkpt lat="41.9368617" lon="-8.028785"><ele>675.0</ele><time>2026-04-04T15:53:43.823Z</time></trkpt><trkpt lat="41.9368567" lon="-8.02887"><ele>673.0</ele><time>2026-04-04T15:53:44.824Z</time></trkpt><trkpt lat="41.936815" lon="-8.0289733"><ele>671.0</ele><time>2026-04-04T15:53:46.823Z</time></trkpt><trkpt lat="41.9367817" lon="-8.0290633"><ele>669.0</ele><time>2026-04-04T15:53:49.823Z</time></trkpt><trkpt lat="41.9367017" lon="-8.0290433"><ele>668.6666666666666</ele><time>2026-04-04T15:53:53.822Z</time></trkpt><trkpt lat="41.9366417" lon="-8.028965"><ele>668.3333333333334</ele><time>2026-04-04T15:53:55.823Z</time></trkpt><trkpt lat="41.9365833" lon="-8.02892"><ele>668.0</ele><time>2026-04-04T15:53:57.823Z</time></trkpt><trkpt lat="41.9365283" lon="-8.0289867"><ele>667.6666666666667</ele><time>2026-04-04T15:53:59.823Z</time></trkpt><trkpt lat="41.9365033" lon="-8.02909"><ele>667.3333333333334</ele><time>2026-04-04T15:54:01.823Z</time></trkpt><trkpt lat="41.9364667" lon="-8.0291783"><ele>667.0</ele><time>2026-04-04T15:54:04.825Z</time></trkpt><trkpt lat="41.936425" lon="-8.029275"><ele>665.6666666666667</ele><time>2026-04-04T15:54:18.823Z</time></trkpt><trkpt lat="41.9364033" lon="-8.02938"><ele>664.3333333333334</ele><time>2026-04-04T15:54:21.822Z</time></trkpt><trkpt lat="41.936385" lon="-8.029475"><ele>663.0</ele><time>2026-04-04T15:54:24.824Z</time></trkpt><trkpt lat="41.9363733" lon="-8.0295767"><ele>661.6666666666666</ele><time>2026-04-04T15:54:27.822Z</time></trkpt><trkpt lat="41.9363633" lon="-8.02971"><ele>660.3333333333333</ele><time>2026-04-04T15:54:30.823Z</time></trkpt><trkpt lat="41.93637" lon="-8.029825"><ele>659.0</ele><time>2026-04-04T15:54:32.824Z</time></trkpt><trkpt lat="41.9364" lon="-8.029955"><ele>656.8000000000001</ele><time>2026-04-04T15:54:34.823Z</time></trkpt><trkpt lat="41.93647" lon="-8.0300683"><ele>654.6</ele><time>2026-04-04T15:54:36.823Z</time></trkpt><trkpt lat="41.9365633" lon="-8.03014"><ele>652.4</ele><time>2026-04-04T15:54:38.823Z</time></trkpt><trkpt lat="41.9366517" lon="-8.0301817"><ele>650.2</ele><time>2026-04-04T15:54:40.822Z</time></trkpt><trkpt lat="41.9367333" lon="-8.03022"><ele>648.0</ele><time>2026-04-04T15:54:42.823Z</time></trkpt><trkpt lat="41.936805" lon="-8.030255"><ele>647.4</ele><time>2026-04-04T15:54:44.823Z</time></trkpt><trkpt lat="41.9368867" lon="-8.0302983"><ele>646.8</ele><time>2026-04-04T15:54:46.822Z</time></trkpt><trkpt lat="41.9369933" lon="-8.030345"><ele>646.2</ele><time>2026-04-04T15:54:48.823Z</time></trkpt><trkpt lat="41.9371067" lon="-8.0303817"><ele>645.6</ele><time>2026-04-04T15:54:50.823Z</time></trkpt><trkpt lat="41.9372117" lon="-8.030415"><ele>645.0</ele><time>2026-04-04T15:54:52.824Z</time></trkpt><trkpt lat="41.9372983" lon="-8.0304417"><ele>645.0</ele><time>2026-04-04T15:54:54.823Z</time></trkpt><trkpt lat="41.9373833" lon="-8.03048"><ele>645.0</ele><time>2026-04-04T15:54:56.824Z</time></trkpt><trkpt lat="41.9374417" lon="-8.03054"><ele>645.0</ele><time>2026-04-04T15:54:58.822Z</time></trkpt><trkpt lat="41.93748" lon="-8.0306267"><ele>645.0</ele><time>2026-04-04T15:55:01.823Z</time></trkpt><trkpt lat="41.937515" lon="-8.0307367"><ele>645.0</ele><time>2026-04-04T15:55:04.823Z</time></trkpt><trkpt lat="41.93753" lon="-8.03087"><ele>645.0</ele><time>2026-04-04T15:55:07.824Z</time></trkpt><trkpt lat="41.9375217" lon="-8.0310033"><ele>641.8</ele><time>2026-04-04T15:55:09.822Z</time></trkpt><trkpt lat="41.9374867" lon="-8.0311633"><ele>638.6</ele><time>2026-04-04T15:55:11.823Z</time></trkpt><trkpt lat="41.937465" lon="-8.0312583"><ele>635.4</ele><time>2026-04-04T15:55:12.823Z</time></trkpt><trkpt lat="41.9374367" lon="-8.0313617"><ele>632.2</ele><time>2026-04-04T15:55:13.823Z</time></trkpt><trkpt lat="41.9373967" lon="-8.03147"><ele>629.0</ele><time>2026-04-04T15:55:14.823Z</time></trkpt><trkpt lat="41.93735" lon="-8.0315783"><ele>627.0</ele><time>2026-04-04T15:55:15.822Z</time></trkpt><trkpt lat="41.9372967" lon="-8.0316733"><ele>625.0</ele><time>2026-04-04T15:55:16.823Z</time></trkpt><trkpt lat="41.9372383" lon="-8.0317533"><ele>623.0</ele><time>2026-04-04T15:55:17.823Z</time></trkpt><trkpt lat="41.937175" lon="-8.031825"><ele>621.0</ele><time>2026-04-04T15:55:18.823Z</time></trkpt><trkpt lat="41.9371167" lon="-8.03189"><ele>619.0</ele><time>2026-04-04T15:55:19.824Z</time></trkpt><trkpt lat="41.93706" lon="-8.03195"><ele>617.0</ele><time>2026-04-04T15:55:20.823Z</time></trkpt><trkpt lat="41.9370033" lon="-8.0320017"><ele>617.0</ele><time>2026-04-04T15:55:21.822Z</time></trkpt><trkpt lat="41.93691" lon="-8.0321017"><ele>617.0</ele><time>2026-04-04T15:55:23.823Z</time></trkpt><trkpt lat="41.936855" lon="-8.0321533"><ele>617.0</ele><time>2026-04-04T15:55:24.824Z</time></trkpt><trkpt lat="41.9367883" lon="-8.0322033"><ele>617.0</ele><time>2026-04-04T15:55:25.823Z</time></trkpt><trkpt lat="41.93671" lon="-8.0322483"><ele>617.0</ele><time>2026-04-04T15:55:26.824Z</time></trkpt><trkpt lat="41.9366233" lon="-8.0322933"><ele>617.0</ele><time>2026-04-04T15:55:27.822Z</time></trkpt><trkpt lat="41.9365383" lon="-8.0323383"><ele>617.6666666666666</ele><time>2026-04-04T15:55:28.824Z</time></trkpt><trkpt lat="41.9364567" lon="-8.0323783"><ele>618.3333333333333</ele><time>2026-04-04T15:55:29.824Z</time></trkpt><trkpt lat="41.9363817" lon="-8.03241"><ele>619.0</ele><time>2026-04-04T15:55:30.824Z</time></trkpt><trkpt lat="41.93631" lon="-8.03243"><ele>619.6666666666666</ele><time>2026-04-04T15:55:31.824Z</time></trkpt><trkpt lat="41.93624" lon="-8.0324433"><ele>620.3333333333334</ele><time>2026-04-04T15:55:32.824Z</time></trkpt><trkpt lat="41.93617" lon="-8.0324517"><ele>621.0</ele><time>2026-04-04T15:55:33.822Z</time></trkpt><trkpt lat="41.9361" lon="-8.032455"><ele>621.0</ele><time>2026-04-04T15:55:34.823Z</time></trkpt><trkpt lat="41.9360267" lon="-8.0324533"><ele>621.0</ele><time>2026-04-04T15:55:35.824Z</time></trkpt><trkpt lat="41.9359583" lon="-8.0324467"><ele>621.0</ele><time>2026-04-04T15:55:36.823Z</time></trkpt><trkpt lat="41.9358417" lon="-8.03248"><ele>621.0</ele><time>2026-04-04T15:55:38.824Z</time></trkpt><trkpt lat="41.9357517" lon="-8.0325967"><ele>621.0</ele><time>2026-04-04T15:55:40.824Z</time></trkpt><trkpt lat="41.9357383" lon="-8.032695"><ele>616.5</ele><time>2026-04-04T15:55:41.824Z</time></trkpt><trkpt lat="41.935765" lon="-8.0328083"><ele>612.0</ele><time>2026-04-04T15:55:42.824Z</time></trkpt><trkpt lat="41.9358267" lon="-8.0329483"><ele>607.5</ele><time>2026-04-04T15:55:43.824Z</time></trkpt><trkpt lat="41.935895" lon="-8.03307"><ele>603.0</ele><time>2026-04-04T15:55:44.824Z</time></trkpt><trkpt lat="41.9359933" lon="-8.033185"><ele>603.0</ele><time>2026-04-04T15:55:45.824Z</time></trkpt><trkpt lat="41.9361" lon="-8.03326"><ele>603.0</ele><time>2026-04-04T15:55:46.824Z</time></trkpt><trkpt lat="41.9362017" lon="-8.033275"><ele>603.0</ele><time>2026-04-04T15:55:47.825Z</time></trkpt><trkpt lat="41.936305" lon="-8.0332783"><ele>603.0</ele><time>2026-04-04T15:55:48.825Z</time></trkpt><trkpt lat="41.9363983" lon="-8.0332867"><ele>603.0</ele><time>2026-04-04T15:55:49.825Z</time></trkpt><trkpt lat="41.9365067" lon="-8.0332933"><ele>598.8</ele><time>2026-04-04T15:55:50.823Z</time></trkpt><trkpt lat="41.9365983" lon="-8.0333167"><ele>594.5999999999999</ele><time>2026-04-04T15:55:51.823Z</time></trkpt><trkpt lat="41.9366917" lon="-8.0333683"><ele>590.4000000000001</ele><time>2026-04-04T15:55:52.824Z</time></trkpt><trkpt lat="41.9367583" lon="-8.0334383"><ele>586.2</ele><time>2026-04-04T15:55:53.824Z</time></trkpt><trkpt lat="41.9368367" lon="-8.033505"><ele>582.0</ele><time>2026-04-04T15:55:54.823Z</time></trkpt><trkpt lat="41.9369167" lon="-8.0335667"><ele>581.3333333333334</ele><time>2026-04-04T15:55:55.824Z</time></trkpt><trkpt lat="41.9369917" lon="-8.0336133"><ele>580.6666666666666</ele><time>2026-04-04T15:55:56.824Z</time></trkpt><trkpt lat="41.9370717" lon="-8.033645"><ele>580.0</ele><time>2026-04-04T15:55:57.824Z</time></trkpt><trkpt lat="41.9371583" lon="-8.033665"><ele>579.3333333333333</ele><time>2026-04-04T15:55:58.823Z</time></trkpt><trkpt lat="41.93724" lon="-8.0336767"><ele>578.6666666666666</ele><time>2026-04-04T15:55:59.823Z</time></trkpt><trkpt lat="41.93732" lon="-8.0336867"><ele>578.0</ele><time>2026-04-04T15:56:00.824Z</time></trkpt><trkpt lat="41.937405" lon="-8.0336967"><ele>578.0</ele><time>2026-04-04T15:56:01.824Z</time></trkpt><trkpt lat="41.93749" lon="-8.0336933"><ele>578.0</ele><time>2026-04-04T15:56:02.824Z</time></trkpt><trkpt lat="41.9375667" lon="-8.0336917"><ele>578.0</ele><time>2026-04-04T15:56:03.825Z</time></trkpt><trkpt lat="41.9376483" lon="-8.033695"><ele>578.0</ele><time>2026-04-04T15:56:04.824Z</time></trkpt><trkpt lat="41.9377383" lon="-8.0337017"><ele>578.0</ele><time>2026-04-04T15:56:05.823Z</time></trkpt><trkpt lat="41.9378317" lon="-8.0337133"><ele>578.0</ele><time>2026-04-04T15:56:06.824Z</time></trkpt><trkpt lat="41.9379233" lon="-8.0337317"><ele>576.3333333333333</ele><time>2026-04-04T15:56:07.824Z</time></trkpt><trkpt lat="41.93802" lon="-8.0337483"><ele>574.6666666666666</ele><time>2026-04-04T15:56:08.824Z</time></trkpt><trkpt lat="41.9381083" lon="-8.0337567"><ele>573.0</ele><time>2026-04-04T15:56:09.824Z</time></trkpt><trkpt lat="41.9381917" lon="-8.0337483"><ele>571.3333333333334</ele><time>2026-04-04T15:56:10.823Z</time></trkpt><trkpt lat="41.9382667" lon="-8.03373"><ele>569.6666666666667</ele><time>2026-04-04T15:56:11.823Z</time></trkpt><trkpt lat="41.9383267" lon="-8.0337"><ele>568.0</ele><time>2026-04-04T15:56:12.827Z</time></trkpt><trkpt lat="41.9384367" lon="-8.0336733"><ele>566.1999999999999</ele><time>2026-04-04T15:56:14.824Z</time></trkpt><trkpt lat="41.9385017" lon="-8.033755"><ele>564.4</ele><time>2026-04-04T15:56:17.823Z</time></trkpt><trkpt lat="41.9385233" lon="-8.033875"><ele>562.5999999999999</ele><time>2026-04-04T15:56:19.824Z</time></trkpt><trkpt lat="41.9385417" lon="-8.0340033"><ele>560.8</ele><time>2026-04-04T15:56:21.824Z</time></trkpt><trkpt lat="41.9385833" lon="-8.0341367"><ele>559.0</ele><time>2026-04-04T15:56:23.823Z</time></trkpt><trkpt lat="41.93863" lon="-8.0342467"><ele>557.2</ele><time>2026-04-04T15:56:25.825Z</time></trkpt><trkpt lat="41.93867" lon="-8.03432"><ele>555.4</ele><time>2026-04-04T15:56:27.823Z</time></trkpt><trkpt lat="41.93874" lon="-8.0344067"><ele>553.6</ele><time>2026-04-04T15:56:30.823Z</time></trkpt><trkpt lat="41.938805" lon="-8.034475"><ele>551.8</ele><time>2026-04-04T15:56:32.824Z</time></trkpt><trkpt lat="41.938895" lon="-8.0345367"><ele>550.0</ele><time>2026-04-04T15:56:34.823Z</time></trkpt><trkpt lat="41.9389967" lon="-8.0345983"><ele>550.0</ele><time>2026-04-04T15:56:36.823Z</time></trkpt><trkpt lat="41.939055" lon="-8.0346367"><ele>550.0</ele><time>2026-04-04T15:56:37.823Z</time></trkpt><trkpt lat="41.9391217" lon="-8.0346867"><ele>550.0</ele><time>2026-04-04T15:56:38.823Z</time></trkpt><trkpt lat="41.9391917" lon="-8.034735"><ele>550.0</ele><time>2026-04-04T15:56:39.824Z</time></trkpt><trkpt lat="41.9392667" lon="-8.0347867"><ele>550.0</ele><time>2026-04-04T15:56:40.826Z</time></trkpt><trkpt lat="41.93934" lon="-8.03484"><ele>550.0</ele><time>2026-04-04T15:56:41.824Z</time></trkpt><trkpt lat="41.93942" lon="-8.034895"><ele>550.4</ele><time>2026-04-04T15:56:42.824Z</time></trkpt><trkpt lat="41.9395" lon="-8.0349517"><ele>550.8</ele><time>2026-04-04T15:56:43.824Z</time></trkpt><trkpt lat="41.939585" lon="-8.03502"><ele>551.2</ele><time>2026-04-04T15:56:44.823Z</time></trkpt><trkpt lat="41.9396683" lon="-8.0350817"><ele>551.6</ele><time>2026-04-04T15:56:45.823Z</time></trkpt><trkpt lat="41.9397517" lon="-8.0351333"><ele>552.0</ele><time>2026-04-04T15:56:46.823Z</time></trkpt><trkpt lat="41.9398317" lon="-8.0351883"><ele>552.0</ele><time>2026-04-04T15:56:47.824Z</time></trkpt><trkpt lat="41.9399217" lon="-8.0352383"><ele>552.0</ele><time>2026-04-04T15:56:48.823Z</time></trkpt><trkpt lat="41.9400183" lon="-8.0352617"><ele>552.0</ele><time>2026-04-04T15:56:49.823Z</time></trkpt><trkpt lat="41.94012" lon="-8.0352717"><ele>552.0</ele><time>2026-04-04T15:56:50.824Z</time></trkpt><trkpt lat="41.94022" lon="-8.0352633"><ele>552.0</ele><time>2026-04-04T15:56:51.824Z</time></trkpt><trkpt lat="41.9403183" lon="-8.0352567"><ele>551.8000000000001</ele><time>2026-04-04T15:56:52.824Z</time></trkpt><trkpt lat="41.940415" lon="-8.035255"><ele>551.6</ele><time>2026-04-04T15:56:53.824Z</time></trkpt><trkpt lat="41.94051" lon="-8.0352633"><ele>551.4000000000001</ele><time>2026-04-04T15:56:54.824Z</time></trkpt><trkpt lat="41.9406033" lon="-8.0352817"><ele>551.2</ele><time>2026-04-04T15:56:55.823Z</time></trkpt><trkpt lat="41.9407" lon="-8.0353017"><ele>551.0</ele><time>2026-04-04T15:56:56.824Z</time></trkpt><trkpt lat="41.94079" lon="-8.035335"><ele>551.0</ele><time>2026-04-04T15:56:57.823Z</time></trkpt><trkpt lat="41.9408767" lon="-8.0353833"><ele>551.0</ele><time>2026-04-04T15:56:58.824Z</time></trkpt><trkpt lat="41.94096" lon="-8.03544"><ele>551.0</ele><time>2026-04-04T15:56:59.823Z</time></trkpt><trkpt lat="41.9410433" lon="-8.0355017"><ele>551.0</ele><time>2026-04-04T15:57:00.823Z</time></trkpt><trkpt lat="41.9411283" lon="-8.0355567"><ele>551.0</ele><time>2026-04-04T15:57:01.824Z</time></trkpt><trkpt lat="41.9412133" lon="-8.0356033"><ele>551.1666666666666</ele><time>2026-04-04T15:57:02.824Z</time></trkpt><trkpt lat="41.9413017" lon="-8.0356383"><ele>551.3333333333333</ele><time>2026-04-04T15:57:03.824Z</time></trkpt><trkpt lat="41.9413867" lon="-8.03566"><ele>551.5</ele><time>2026-04-04T15:57:04.823Z</time></trkpt><trkpt lat="41.9414667" lon="-8.0356783"><ele>551.6666666666666</ele><time>2026-04-04T15:57:05.824Z</time></trkpt><trkpt lat="41.9415383" lon="-8.0356917"><ele>551.8333333333334</ele><time>2026-04-04T15:57:06.824Z</time></trkpt><trkpt lat="41.941605" lon="-8.0356917"><ele>552.0</ele><time>2026-04-04T15:57:07.824Z</time></trkpt><trkpt lat="41.94167" lon="-8.03568"><ele>552.3333333333334</ele><time>2026-04-04T15:57:08.825Z</time></trkpt><trkpt lat="41.9417383" lon="-8.035655"><ele>552.6666666666666</ele><time>2026-04-04T15:57:09.823Z</time></trkpt><trkpt lat="41.9418" lon="-8.0356167"><ele>553.0</ele><time>2026-04-04T15:57:10.825Z</time></trkpt><trkpt lat="41.9418717" lon="-8.0355367"><ele>553.3333333333333</ele><time>2026-04-04T15:57:11.824Z</time></trkpt><trkpt lat="41.941945" lon="-8.0354467"><ele>553.6666666666666</ele><time>2026-04-04T15:57:12.824Z</time></trkpt><trkpt lat="41.9420117" lon="-8.035355"><ele>554.0</ele><time>2026-04-04T15:57:13.824Z</time></trkpt><trkpt lat="41.9420667" lon="-8.0352667"><ele>554.0</ele><time>2026-04-04T15:57:14.824Z</time></trkpt><trkpt lat="41.9420983" lon="-8.0351833"><ele>554.0</ele><time>2026-04-04T15:57:15.824Z</time></trkpt><trkpt lat="41.94213" lon="-8.0350333"><ele>554.0</ele><time>2026-04-04T15:57:17.823Z</time></trkpt><trkpt lat="41.9421517" lon="-8.0349033"><ele>554.0</ele><time>2026-04-04T15:57:19.825Z</time></trkpt><trkpt lat="41.94217" lon="-8.03482"><ele>554.0</ele><time>2026-04-04T15:57:20.824Z</time></trkpt><trkpt lat="41.9422017" lon="-8.0347283"><ele>554.0</ele><time>2026-04-04T15:57:21.824Z</time></trkpt><trkpt lat="41.9422417" lon="-8.034635"><ele>553.1666666666666</ele><time>2026-04-04T15:57:22.823Z</time></trkpt><trkpt lat="41.9422833" lon="-8.0345483"><ele>552.3333333333333</ele><time>2026-04-04T15:57:23.823Z</time></trkpt><trkpt lat="41.9423233" lon="-8.03447"><ele>551.5</ele><time>2026-04-04T15:57:24.824Z</time></trkpt><trkpt lat="41.942375" lon="-8.0343833"><ele>550.6666666666666</ele><time>2026-04-04T15:57:25.824Z</time></trkpt><trkpt lat="41.9424467" lon="-8.0343033"><ele>549.8333333333334</ele><time>2026-04-04T15:57:26.824Z</time></trkpt><trkpt lat="41.9425233" lon="-8.0342383"><ele>549.0</ele><time>2026-04-04T15:57:27.823Z</time></trkpt><trkpt lat="41.94259" lon="-8.0341867"><ele>548.1428571428571</ele><time>2026-04-04T15:57:28.824Z</time></trkpt><trkpt lat="41.9426533" lon="-8.0341483"><ele>547.2857142857143</ele><time>2026-04-04T15:57:29.823Z</time></trkpt><trkpt lat="41.942725" lon="-8.034125"><ele>546.4285714285714</ele><time>2026-04-04T15:57:30.824Z</time></trkpt><trkpt lat="41.94279" lon="-8.034135"><ele>545.5714285714286</ele><time>2026-04-04T15:57:31.824Z</time></trkpt><trkpt lat="41.9428633" lon="-8.0341783"><ele>544.7142857142857</ele><time>2026-04-04T15:57:32.824Z</time></trkpt><trkpt lat="41.9429267" lon="-8.0342467"><ele>543.8571428571429</ele><time>2026-04-04T15:57:33.825Z</time></trkpt><trkpt lat="41.942965" lon="-8.0343267"><ele>543.0</ele><time>2026-04-04T15:57:34.824Z</time></trkpt><trkpt lat="41.942985" lon="-8.0345283"><ele>543.0</ele><time>2026-04-04T15:57:36.824Z</time></trkpt><trkpt lat="41.942975" lon="-8.03465"><ele>543.0</ele><time>2026-04-04T15:57:37.824Z</time></trkpt><trkpt lat="41.9429917" lon="-8.0347483"><ele>543.0</ele><time>2026-04-04T15:57:38.824Z</time></trkpt><trkpt lat="41.9430417" lon="-8.0348667"><ele>543.0</ele><time>2026-04-04T15:57:40.823Z</time></trkpt><trkpt lat="41.9431633" lon="-8.0348683"><ele>543.0</ele><time>2026-04-04T15:57:42.824Z</time></trkpt><trkpt lat="41.94323" lon="-8.03484"><ele>543.0</ele><time>2026-04-04T15:57:43.825Z</time></trkpt><trkpt lat="41.9432983" lon="-8.034815"><ele>543.0</ele><time>2026-04-04T15:57:44.825Z</time></trkpt><trkpt lat="41.9433683" lon="-8.03479"><ele>543.0</ele><time>2026-04-04T15:57:45.824Z</time></trkpt><trkpt lat="41.94344" lon="-8.03477"><ele>543.0</ele><time>2026-04-04T15:57:46.823Z</time></trkpt><trkpt lat="41.943515" lon="-8.0347517"><ele>543.0</ele><time>2026-04-04T15:57:47.823Z</time></trkpt><trkpt lat="41.9436" lon="-8.0347367"><ele>543.0</ele><time>2026-04-04T15:57:48.824Z</time></trkpt><trkpt lat="41.9436867" lon="-8.0347283"><ele>543.0</ele><time>2026-04-04T15:57:49.823Z</time></trkpt><trkpt lat="41.9437667" lon="-8.0347267"><ele>543.0</ele><time>2026-04-04T15:57:50.824Z</time></trkpt><trkpt lat="41.9438383" lon="-8.0347317"><ele>543.0</ele><time>2026-04-04T15:57:51.824Z</time></trkpt><trkpt lat="41.94396" lon="-8.0347533"><ele>543.0</ele><time>2026-04-04T15:57:53.824Z</time></trkpt><trkpt lat="41.9440583" lon="-8.0347883"><ele>543.0</ele><time>2026-04-04T15:57:55.824Z</time></trkpt><trkpt lat="41.9441317" lon="-8.0348267"><ele>543.0</ele><time>2026-04-04T15:57:57.823Z</time></trkpt><trkpt lat="41.9442" lon="-8.03487"><ele>543.0</ele><time>2026-04-04T15:57:59.823Z</time></trkpt><trkpt lat="41.944295" lon="-8.034925"><ele>543.0</ele><time>2026-04-04T15:58:01.826Z</time></trkpt><trkpt lat="41.944405" lon="-8.0349767"><ele>543.0</ele><time>2026-04-04T15:58:03.823Z</time></trkpt><trkpt lat="41.944465" lon="-8.0350033"><ele>543.0</ele><time>2026-04-04T15:58:04.824Z</time></trkpt><trkpt lat="41.9445317" lon="-8.0350367"><ele>543.0</ele><time>2026-04-04T15:58:05.825Z</time></trkpt><trkpt lat="41.9445983" lon="-8.035075"><ele>543.1666666666666</ele><time>2026-04-04T15:58:06.824Z</time></trkpt><trkpt lat="41.9446667" lon="-8.0351233"><ele>543.3333333333334</ele><time>2026-04-04T15:58:07.823Z</time></trkpt><trkpt lat="41.94473" lon="-8.0351767"><ele>543.5</ele><time>2026-04-04T15:58:08.826Z</time></trkpt><trkpt lat="41.9447933" lon="-8.03523"><ele>543.6666666666667</ele><time>2026-04-04T15:58:09.822Z</time></trkpt><trkpt lat="41.9448483" lon="-8.03528"><ele>543.8333333333334</ele><time>2026-04-04T15:58:10.824Z</time></trkpt><trkpt lat="41.944935" lon="-8.0353633"><ele>544.0</ele><time>2026-04-04T15:58:12.822Z</time></trkpt><trkpt lat="41.9450217" lon="-8.0354117"><ele>545.1666666666667</ele><time>2026-04-04T15:58:14.824Z</time></trkpt><trkpt lat="41.94513" lon="-8.0354133"><ele>546.3333333333334</ele><time>2026-04-04T15:58:16.823Z</time></trkpt><trkpt lat="41.9451933" lon="-8.0353817"><ele>547.5</ele><time>2026-04-04T15:58:17.823Z</time></trkpt><trkpt lat="41.94526" lon="-8.0353217"><ele>548.6666666666666</ele><time>2026-04-04T15:58:18.823Z</time></trkpt><trkpt lat="41.945325" lon="-8.0352617"><ele>549.8333333333333</ele><time>2026-04-04T15:58:19.824Z</time></trkpt><trkpt lat="41.9453883" lon="-8.0352133"><ele>551.0</ele><time>2026-04-04T15:58:20.823Z</time></trkpt><trkpt lat="41.9454483" lon="-8.035165"><ele>550.9999999999999</ele><time>2026-04-04T15:58:21.823Z</time></trkpt><trkpt lat="41.9455033" lon="-8.03512"><ele>551.0</ele><time>2026-04-04T15:58:22.823Z</time></trkpt><trkpt lat="41.94556" lon="-8.0350783"><ele>551.0</ele><time>2026-04-04T15:58:23.827Z</time></trkpt><trkpt lat="41.9456133" lon="-8.0350317"><ele>551.0</ele><time>2026-04-04T15:58:24.823Z</time></trkpt><trkpt lat="41.9456967" lon="-8.034975"><ele>551.0</ele><time>2026-04-04T15:58:26.823Z</time></trkpt><trkpt lat="41.9457617" lon="-8.034935"><ele>550.9999999999999</ele><time>2026-04-04T15:58:28.823Z</time></trkpt><trkpt lat="41.9458417" lon="-8.0348783"><ele>551.0</ele><time>2026-04-04T15:58:30.825Z</time></trkpt><trkpt lat="41.9459" lon="-8.034835"><ele>550.5</ele><time>2026-04-04T15:58:31.822Z</time></trkpt><trkpt lat="41.9459667" lon="-8.0347767"><ele>550.0</ele><time>2026-04-04T15:58:32.825Z</time></trkpt><trkpt lat="41.9460233" lon="-8.0347233"><ele>549.5</ele><time>2026-04-04T15:58:33.822Z</time></trkpt><trkpt lat="41.946075" lon="-8.0346717"><ele>549.0</ele><time>2026-04-04T15:58:34.824Z</time></trkpt><trkpt lat="41.94613" lon="-8.0346133"><ele>548.5</ele><time>2026-04-04T15:58:35.823Z</time></trkpt><trkpt lat="41.9461933" lon="-8.0345467"><ele>548.0</ele><time>2026-04-04T15:58:36.823Z</time></trkpt><trkpt lat="41.9462617" lon="-8.0344717"><ele>548.0</ele><time>2026-04-04T15:58:37.823Z</time></trkpt><trkpt lat="41.9463333" lon="-8.034395"><ele>548.0</ele><time>2026-04-04T15:58:38.823Z</time></trkpt><trkpt lat="41.9464133" lon="-8.034315"><ele>548.0</ele><time>2026-04-04T15:58:39.824Z</time></trkpt><trkpt lat="41.9464967" lon="-8.0342317"><ele>548.0</ele><time>2026-04-04T15:58:40.823Z</time></trkpt><trkpt lat="41.9465933" lon="-8.034135"><ele>548.0</ele><time>2026-04-04T15:58:41.824Z</time></trkpt><trkpt lat="41.946695" lon="-8.034035"><ele>549.75</ele><time>2026-04-04T15:58:42.823Z</time></trkpt><trkpt lat="41.9467967" lon="-8.0339333"><ele>551.5</ele><time>2026-04-04T15:58:43.823Z</time></trkpt><trkpt lat="41.9468933" lon="-8.03383"><ele>553.25</ele><time>2026-04-04T15:58:44.824Z</time></trkpt><trkpt lat="41.94699" lon="-8.0337267"><ele>555.0</ele><time>2026-04-04T15:58:45.824Z</time></trkpt><trkpt lat="41.9470917" lon="-8.0336233"><ele>555.0</ele><time>2026-04-04T15:58:46.823Z</time></trkpt><trkpt lat="41.9471917" lon="-8.03352"><ele>555.0</ele><time>2026-04-04T15:58:47.823Z</time></trkpt><trkpt lat="41.94729" lon="-8.03342"><ele>555.0</ele><time>2026-04-04T15:58:48.823Z</time></trkpt><trkpt lat="41.9473917" lon="-8.0333167"><ele>555.0</ele><time>2026-04-04T15:58:49.823Z</time></trkpt><trkpt lat="41.947495" lon="-8.0332067"><ele>556.5</ele><time>2026-04-04T15:58:50.824Z</time></trkpt><trkpt lat="41.9475933" lon="-8.0330967"><ele>558.0</ele><time>2026-04-04T15:58:51.822Z</time></trkpt><trkpt lat="41.9476933" lon="-8.032985"><ele>559.5</ele><time>2026-04-04T15:58:52.825Z</time></trkpt><trkpt lat="41.9477933" lon="-8.0328767"><ele>561.0</ele><time>2026-04-04T15:58:53.823Z</time></trkpt><trkpt lat="41.9478967" lon="-8.032775"><ele>561.0</ele><time>2026-04-04T15:58:54.824Z</time></trkpt><trkpt lat="41.9480117" lon="-8.0326783"><ele>561.0</ele><time>2026-04-04T15:58:55.823Z</time></trkpt><trkpt lat="41.948135" lon="-8.032605"><ele>561.0</ele><time>2026-04-04T15:58:56.823Z</time></trkpt><trkpt lat="41.9482583" lon="-8.0325517"><ele>561.0</ele><time>2026-04-04T15:58:57.823Z</time></trkpt><trkpt lat="41.9483883" lon="-8.0325183"><ele>560.25</ele><time>2026-04-04T15:58:58.823Z</time></trkpt><trkpt lat="41.9485233" lon="-8.032505"><ele>559.5</ele><time>2026-04-04T15:58:59.824Z</time></trkpt><trkpt lat="41.9486583" lon="-8.032515"><ele>558.75</ele><time>2026-04-04T15:59:00.823Z</time></trkpt><trkpt lat="41.9487933" lon="-8.0325433"><ele>558.0</ele><time>2026-04-04T15:59:01.823Z</time></trkpt><trkpt lat="41.9489283" lon="-8.0325867"><ele>558.0</ele><time>2026-04-04T15:59:02.824Z</time></trkpt><trkpt lat="41.9490617" lon="-8.03263"><ele>558.0</ele><time>2026-04-04T15:59:03.823Z</time></trkpt><trkpt lat="41.9491983" lon="-8.0326667"><ele>558.0</ele><time>2026-04-04T15:59:04.824Z</time></trkpt><trkpt lat="41.9493283" lon="-8.032695"><ele>558.0</ele><time>2026-04-04T15:59:05.824Z</time></trkpt><trkpt lat="41.9494583" lon="-8.032725"><ele>557.5</ele><time>2026-04-04T15:59:06.824Z</time></trkpt><trkpt lat="41.9495933" lon="-8.0327417"><ele>557.0</ele><time>2026-04-04T15:59:07.823Z</time></trkpt><trkpt lat="41.9497367" lon="-8.032745"><ele>556.5</ele><time>2026-04-04T15:59:08.824Z</time></trkpt><trkpt lat="41.949875" lon="-8.0327267"><ele>556.0</ele><time>2026-04-04T15:59:09.825Z</time></trkpt><trkpt lat="41.9500183" lon="-8.0326867"><ele>558.0</ele><time>2026-04-04T15:59:10.823Z</time></trkpt><trkpt lat="41.950155" lon="-8.032625"><ele>560.0</ele><time>2026-04-04T15:59:11.823Z</time></trkpt><trkpt lat="41.9502783" lon="-8.0325383"><ele>562.0</ele><time>2026-04-04T15:59:12.824Z</time></trkpt><trkpt lat="41.9503933" lon="-8.0324317"><ele>564.0</ele><time>2026-04-04T15:59:13.824Z</time></trkpt><trkpt lat="41.9504967" lon="-8.0322967"><ele>564.0</ele><time>2026-04-04T15:59:14.824Z</time></trkpt><trkpt lat="41.95059" lon="-8.03214"><ele>564.0</ele><time>2026-04-04T15:59:15.823Z</time></trkpt><trkpt lat="41.95067" lon="-8.0319783"><ele>564.0</ele><time>2026-04-04T15:59:16.823Z</time></trkpt><trkpt lat="41.9507517" lon="-8.0318183"><ele>564.0</ele><time>2026-04-04T15:59:17.824Z</time></trkpt><trkpt lat="41.9508283" lon="-8.0316583"><ele>566.75</ele><time>2026-04-04T15:59:18.827Z</time></trkpt><trkpt lat="41.950905" lon="-8.0315"><ele>569.5</ele><time>2026-04-04T15:59:19.823Z</time></trkpt><trkpt lat="41.95098" lon="-8.03133"><ele>572.25</ele><time>2026-04-04T15:59:20.823Z</time></trkpt><trkpt lat="41.9510583" lon="-8.0311667"><ele>575.0</ele><time>2026-04-04T15:59:21.824Z</time></trkpt><trkpt lat="41.9511283" lon="-8.0310083"><ele>575.0</ele><time>2026-04-04T15:59:22.824Z</time></trkpt><trkpt lat="41.9511983" lon="-8.030865"><ele>575.0</ele><time>2026-04-04T15:59:23.823Z</time></trkpt><trkpt lat="41.951265" lon="-8.03074"><ele>575.0</ele><time>2026-04-04T15:59:24.823Z</time></trkpt><trkpt lat="41.9513217" lon="-8.0306183"><ele>575.0</ele><time>2026-04-04T15:59:25.823Z</time></trkpt><trkpt lat="41.95137" lon="-8.0305083"><ele>575.0</ele><time>2026-04-04T15:59:26.824Z</time></trkpt><trkpt lat="41.95141" lon="-8.0304"><ele>573.3333333333333</ele><time>2026-04-04T15:59:27.823Z</time></trkpt><trkpt lat="41.9514467" lon="-8.0302967"><ele>571.6666666666666</ele><time>2026-04-04T15:59:28.823Z</time></trkpt><trkpt lat="41.9514883" lon="-8.0301833"><ele>570.0</ele><time>2026-04-04T15:59:29.823Z</time></trkpt><trkpt lat="41.95152" lon="-8.0300733"><ele>568.3333333333334</ele><time>2026-04-04T15:59:30.824Z</time></trkpt><trkpt lat="41.9515483" lon="-8.0299583"><ele>566.6666666666667</ele><time>2026-04-04T15:59:31.825Z</time></trkpt><trkpt lat="41.951575" lon="-8.02985"><ele>565.0</ele><time>2026-04-04T15:59:32.824Z</time></trkpt><trkpt lat="41.9516033" lon="-8.0297567"><ele>563.1666666666667</ele><time>2026-04-04T15:59:33.823Z</time></trkpt><trkpt lat="41.95163" lon="-8.029665"><ele>561.3333333333334</ele><time>2026-04-04T15:59:34.823Z</time></trkpt><trkpt lat="41.9516767" lon="-8.0295233"><ele>559.5</ele><time>2026-04-04T15:59:36.823Z</time></trkpt><trkpt lat="41.9517483" lon="-8.0294133"><ele>557.6666666666666</ele><time>2026-04-04T15:59:38.824Z</time></trkpt><trkpt lat="41.9518033" lon="-8.02933"><ele>555.8333333333333</ele><time>2026-04-04T15:59:40.823Z</time></trkpt><trkpt lat="41.9518367" lon="-8.029255"><ele>554.0</ele><time>2026-04-04T15:59:42.823Z</time></trkpt><trkpt lat="41.9519083" lon="-8.02931"><ele>554.0</ele><time>2026-04-04T16:00:27.823Z</time></trkpt><trkpt lat="41.9519667" lon="-8.029395"><ele>554.0</ele><time>2026-04-04T16:02:55.823Z</time></trkpt><trkpt lat="41.9519067" lon="-8.0295017"><ele>554.0</ele><time>2026-04-04T16:02:59.823Z</time></trkpt><trkpt lat="41.9518067" lon="-8.0296033"><ele>554.0</ele><time>2026-04-04T16:03:01.824Z</time></trkpt><trkpt lat="41.9517333" lon="-8.029675"><ele>554.0</ele><time>2026-04-04T16:03:03.824Z</time></trkpt><trkpt lat="41.9516933" lon="-8.0297517"><ele>558.0</ele><time>2026-04-04T16:03:05.823Z</time></trkpt><trkpt lat="41.9517267" lon="-8.029825"><ele>562.0</ele><time>2026-04-04T16:03:09.823Z</time></trkpt><trkpt lat="41.951785" lon="-8.0297733"><ele>566.0</ele><time>2026-04-04T16:03:11.823Z</time></trkpt><trkpt lat="41.9518633" lon="-8.029675"><ele>570.0</ele><time>2026-04-04T16:03:13.823Z</time></trkpt><trkpt lat="41.9519067" lon="-8.0296117"><ele>574.0</ele><time>2026-04-04T16:03:14.824Z</time></trkpt><trkpt lat="41.9519983" lon="-8.0295"><ele>578.0</ele><time>2026-04-04T16:03:16.823Z</time></trkpt><trkpt lat="41.952095" lon="-8.0294"><ele>578.0</ele><time>2026-04-04T16:03:18.823Z</time></trkpt><trkpt lat="41.9521817" lon="-8.0293517"><ele>578.0</ele><time>2026-04-04T16:03:20.824Z</time></trkpt><trkpt lat="41.9522317" lon="-8.0294167"><ele>578.0</ele><time>2026-04-04T16:03:22.822Z</time></trkpt><trkpt lat="41.9522483" lon="-8.02953"><ele>578.0</ele><time>2026-04-04T16:03:24.824Z</time></trkpt><trkpt lat="41.95224" lon="-8.0296583"><ele>578.0</ele><time>2026-04-04T16:03:26.823Z</time></trkpt><trkpt lat="41.952225" lon="-8.0298333"><ele>578.0</ele><time>2026-04-04T16:03:28.822Z</time></trkpt><trkpt lat="41.952215" lon="-8.0299217"><ele>578.0</ele><time>2026-04-04T16:03:29.823Z</time></trkpt><trkpt lat="41.9522017" lon="-8.0300267"><ele>578.0</ele><time>2026-04-04T16:03:30.823Z</time></trkpt><trkpt lat="41.9521933" lon="-8.030135"><ele>578.0</ele><time>2026-04-04T16:03:31.823Z</time></trkpt><trkpt lat="41.9521833" lon="-8.030245"><ele>578.0</ele><time>2026-04-04T16:03:32.823Z</time></trkpt><trkpt lat="41.95217" lon="-8.0303333"><ele>578.0</ele><time>2026-04-04T16:03:33.822Z</time></trkpt><trkpt lat="41.9521483" lon="-8.030425"><ele>578.0</ele><time>2026-04-04T16:03:35.823Z</time></trkpt><trkpt lat="41.9522017" lon="-8.030325"><ele>578.0</ele><time>2026-04-04T16:03:48.823Z</time></trkpt><trkpt lat="41.9522467" lon="-8.0302167"><ele>578.0</ele><time>2026-04-04T16:03:50.824Z</time></trkpt><trkpt lat="41.9523233" lon="-8.0301133"><ele>578.0</ele><time>2026-04-04T16:03:52.823Z</time></trkpt><trkpt lat="41.952415" lon="-8.0300017"><ele>578.0</ele><time>2026-04-04T16:03:54.823Z</time></trkpt><trkpt lat="41.9524867" lon="-8.0298867"><ele>578.0</ele><time>2026-04-04T16:03:56.823Z</time></trkpt><trkpt lat="41.9525417" lon="-8.0298233"><ele>581.0</ele><time>2026-04-04T16:03:57.823Z</time></trkpt><trkpt lat="41.9526133" lon="-8.02975"><ele>584.0</ele><time>2026-04-04T16:03:58.823Z</time></trkpt><trkpt lat="41.952695" lon="-8.0296767"><ele>587.0</ele><time>2026-04-04T16:03:59.823Z</time></trkpt><trkpt lat="41.9527833" lon="-8.0295983"><ele>590.0</ele><time>2026-04-04T16:04:00.824Z</time></trkpt><trkpt lat="41.9528733" lon="-8.0295383"><ele>593.0</ele><time>2026-04-04T16:04:01.823Z</time></trkpt><trkpt lat="41.9529567" lon="-8.0294867"><ele>593.0</ele><time>2026-04-04T16:04:02.823Z</time></trkpt><trkpt lat="41.9530333" lon="-8.029445"><ele>593.0</ele><time>2026-04-04T16:04:03.822Z</time></trkpt><trkpt lat="41.9531067" lon="-8.029405"><ele>593.0</ele><time>2026-04-04T16:04:04.822Z</time></trkpt><trkpt lat="41.9531667" lon="-8.029365"><ele>593.0</ele><time>2026-04-04T16:04:05.824Z</time></trkpt><trkpt lat="41.9532483" lon="-8.0293033"><ele>593.0</ele><time>2026-04-04T16:04:07.822Z</time></trkpt><trkpt lat="41.9533167" lon="-8.0292267"><ele>593.0</ele><time>2026-04-04T16:04:10.823Z</time></trkpt><trkpt lat="41.9533917" lon="-8.0292017"><ele>593.0</ele><time>2026-04-04T16:04:14.823Z</time></trkpt><trkpt lat="41.9533267" lon="-8.02925"><ele>593.0</ele><time>2026-04-04T16:04:25.822Z</time></trkpt><trkpt lat="41.9532467" lon="-8.0293117"><ele>593.0</ele><time>2026-04-04T16:04:27.823Z</time></trkpt><trkpt lat="41.9531883" lon="-8.0293583"><ele>593.0</ele><time>2026-04-04T16:04:30.823Z</time></trkpt><trkpt lat="41.9531617" lon="-8.0294667"><ele>593.0</ele><time>2026-04-04T16:04:35.823Z</time></trkpt><trkpt lat="41.9531" lon="-8.0295517"><ele>593.0</ele><time>2026-04-04T16:04:38.824Z</time></trkpt><trkpt lat="41.9530567" lon="-8.0296267"><ele>593.0</ele><time>2026-04-04T16:04:41.823Z</time></trkpt><trkpt lat="41.9530183" lon="-8.0297533"><ele>593.0</ele><time>2026-04-04T16:04:44.823Z</time></trkpt><trkpt lat="41.9529983" lon="-8.0298567"><ele>593.0</ele><time>2026-04-04T16:04:46.823Z</time></trkpt><trkpt lat="41.9529633" lon="-8.02997"><ele>593.0</ele><time>2026-04-04T16:04:48.824Z</time></trkpt><trkpt lat="41.9529133" lon="-8.030065"><ele>593.0</ele><time>2026-04-04T16:04:50.824Z</time></trkpt><trkpt lat="41.9528767" lon="-8.03015"><ele>593.0</ele><time>2026-04-04T16:04:52.824Z</time></trkpt><trkpt lat="41.9528467" lon="-8.0302567"><ele>595.5</ele><time>2026-04-04T16:04:54.824Z</time></trkpt><trkpt lat="41.9528183" lon="-8.03036"><ele>598.0</ele><time>2026-04-04T16:04:56.823Z</time></trkpt><trkpt lat="41.9527967" lon="-8.0304733"><ele>600.5</ele><time>2026-04-04T16:04:58.822Z</time></trkpt><trkpt lat="41.9527817" lon="-8.0305667"><ele>603.0</ele><time>2026-04-04T16:05:00.823Z</time></trkpt><trkpt lat="41.9527667" lon="-8.0306583"><ele>605.5</ele><time>2026-04-04T16:05:02.824Z</time></trkpt><trkpt lat="41.9527467" lon="-8.0307467"><ele>608.0</ele><time>2026-04-04T16:05:04.823Z</time></trkpt><trkpt lat="41.9527367" lon="-8.0308467"><ele>606.8333333333333</ele><time>2026-04-04T16:05:07.824Z</time></trkpt><trkpt lat="41.9527233" lon="-8.0309583"><ele>605.6666666666666</ele><time>2026-04-04T16:05:09.825Z</time></trkpt><trkpt lat="41.95268" lon="-8.0310617"><ele>604.5</ele><time>2026-04-04T16:05:11.823Z</time></trkpt><trkpt lat="41.9526417" lon="-8.0311633"><ele>603.3333333333334</ele><time>2026-04-04T16:05:13.824Z</time></trkpt><trkpt lat="41.95259" lon="-8.0312583"><ele>602.1666666666667</ele><time>2026-04-04T16:05:15.823Z</time></trkpt><trkpt lat="41.9525233" lon="-8.0313367"><ele>601.0</ele><time>2026-04-04T16:05:18.824Z</time></trkpt><trkpt lat="41.952585" lon="-8.031285"><ele>602.0</ele><time>2026-04-04T16:05:29.823Z</time></trkpt><trkpt lat="41.9526183" lon="-8.03121"><ele>603.0</ele><time>2026-04-04T16:05:32.824Z</time></trkpt><trkpt lat="41.95262" lon="-8.0311167"><ele>604.0</ele><time>2026-04-04T16:05:36.825Z</time></trkpt><trkpt lat="41.9526467" lon="-8.0310117"><ele>605.0</ele><time>2026-04-04T16:05:40.823Z</time></trkpt><trkpt lat="41.9526667" lon="-8.030895"><ele>606.0</ele><time>2026-04-04T16:05:43.824Z</time></trkpt><trkpt lat="41.9526717" lon="-8.03081"><ele>607.0</ele><time>2026-04-04T16:05:45.824Z</time></trkpt><trkpt lat="41.952675" lon="-8.0307183"><ele>608.0</ele><time>2026-04-04T16:05:47.822Z</time></trkpt><trkpt lat="41.95267" lon="-8.0306317"><ele>608.0</ele><time>2026-04-04T16:05:49.823Z</time></trkpt><trkpt lat="41.9527033" lon="-8.030505"><ele>608.0</ele><time>2026-04-04T16:05:51.823Z</time></trkpt><trkpt lat="41.9527433" lon="-8.0303933"><ele>608.0</ele><time>2026-04-04T16:05:53.823Z</time></trkpt><trkpt lat="41.9527817" lon="-8.0303017"><ele>608.0</ele><time>2026-04-04T16:05:55.823Z</time></trkpt><trkpt lat="41.9528" lon="-8.0302017"><ele>608.0</ele><time>2026-04-04T16:05:57.823Z</time></trkpt><trkpt lat="41.9528183" lon="-8.0301017"><ele>608.0</ele><time>2026-04-04T16:05:59.825Z</time></trkpt><trkpt lat="41.95287" lon="-8.0300083"><ele>605.5</ele><time>2026-04-04T16:06:01.823Z</time></trkpt><trkpt lat="41.952925" lon="-8.0299167"><ele>603.0</ele><time>2026-04-04T16:06:03.824Z</time></trkpt><trkpt lat="41.95297" lon="-8.0298183"><ele>600.5</ele><time>2026-04-04T16:06:05.826Z</time></trkpt><trkpt lat="41.9530183" lon="-8.0297283"><ele>598.0</ele><time>2026-04-04T16:06:07.823Z</time></trkpt><trkpt lat="41.9530917" lon="-8.0296467"><ele>595.5</ele><time>2026-04-04T16:06:09.823Z</time></trkpt><trkpt lat="41.9531467" lon="-8.0295983"><ele>593.0</ele><time>2026-04-04T16:06:10.823Z</time></trkpt><trkpt lat="41.95321" lon="-8.029535"><ele>593.0</ele><time>2026-04-04T16:06:11.824Z</time></trkpt><trkpt lat="41.9532733" lon="-8.0294783"><ele>593.0</ele><time>2026-04-04T16:06:12.822Z</time></trkpt><trkpt lat="41.9533317" lon="-8.02942"><ele>593.0</ele><time>2026-04-04T16:06:13.824Z</time></trkpt><trkpt lat="41.9533933" lon="-8.02935"><ele>593.0</ele><time>2026-04-04T16:06:14.823Z</time></trkpt><trkpt lat="41.9534667" lon="-8.0292717"><ele>593.0</ele><time>2026-04-04T16:06:15.823Z</time></trkpt><trkpt lat="41.95353" lon="-8.0291933"><ele>593.0</ele><time>2026-04-04T16:06:16.825Z</time></trkpt><trkpt lat="41.953585" lon="-8.0291033"><ele>593.8</ele><time>2026-04-04T16:06:17.823Z</time></trkpt><trkpt lat="41.9536433" lon="-8.028995"><ele>594.5999999999999</ele><time>2026-04-04T16:06:18.824Z</time></trkpt><trkpt lat="41.953695" lon="-8.0288717"><ele>595.4000000000001</ele><time>2026-04-04T16:06:19.824Z</time></trkpt><trkpt lat="41.9537333" lon="-8.0287567"><ele>596.2</ele><time>2026-04-04T16:06:20.824Z</time></trkpt><trkpt lat="41.9538017" lon="-8.0286117"><ele>597.0</ele><time>2026-04-04T16:06:21.824Z</time></trkpt><trkpt lat="41.9538517" lon="-8.0285117"><ele>597.0</ele><time>2026-04-04T16:06:22.823Z</time></trkpt><trkpt lat="41.9539217" lon="-8.0283733"><ele>597.0</ele><time>2026-04-04T16:06:23.824Z</time></trkpt><trkpt lat="41.9539717" lon="-8.0282767"><ele>597.0</ele><time>2026-04-04T16:06:24.824Z</time></trkpt><trkpt lat="41.9540117" lon="-8.0281883"><ele>597.0</ele><time>2026-04-04T16:06:25.823Z</time></trkpt><trkpt lat="41.954045" lon="-8.0280983"><ele>597.0</ele><time>2026-04-04T16:06:26.823Z</time></trkpt><trkpt lat="41.9540783" lon="-8.0280167"><ele>597.0</ele><time>2026-04-04T16:06:27.823Z</time></trkpt><trkpt lat="41.9541433" lon="-8.0278717"><ele>595.3333333333334</ele><time>2026-04-04T16:06:29.824Z</time></trkpt><trkpt lat="41.9541867" lon="-8.0278017"><ele>593.6666666666666</ele><time>2026-04-04T16:06:30.824Z</time></trkpt><trkpt lat="41.95426" lon="-8.02772"><ele>592.0</ele><time>2026-04-04T16:06:31.824Z</time></trkpt><trkpt lat="41.9543483" lon="-8.0276433"><ele>590.3333333333333</ele><time>2026-04-04T16:06:33.823Z</time></trkpt><trkpt lat="41.9544133" lon="-8.027595"><ele>588.6666666666666</ele><time>2026-04-04T16:06:36.824Z</time></trkpt><trkpt lat="41.954505" lon="-8.027575"><ele>587.0</ele><time>2026-04-04T16:06:39.824Z</time></trkpt><trkpt lat="41.9545533" lon="-8.0276433"><ele>587.0</ele><time>2026-04-04T16:06:41.825Z</time></trkpt><trkpt lat="41.9546083" lon="-8.0277483"><ele>587.0</ele><time>2026-04-04T16:06:43.827Z</time></trkpt><trkpt lat="41.9546817" lon="-8.0278683"><ele>587.0</ele><time>2026-04-04T16:06:45.824Z</time></trkpt><trkpt lat="41.9547283" lon="-8.0279483"><ele>587.0</ele><time>2026-04-04T16:06:46.823Z</time></trkpt><trkpt lat="41.9547867" lon="-8.0280283"><ele>587.0</ele><time>2026-04-04T16:06:47.823Z</time></trkpt><trkpt lat="41.9548467" lon="-8.0281033"><ele>587.0</ele><time>2026-04-04T16:06:48.824Z</time></trkpt><trkpt lat="41.9549167" lon="-8.0281733"><ele>587.0</ele><time>2026-04-04T16:06:49.824Z</time></trkpt><trkpt lat="41.954985" lon="-8.0282433"><ele>587.0</ele><time>2026-04-04T16:06:50.824Z</time></trkpt><trkpt lat="41.9550517" lon="-8.0283117"><ele>587.0</ele><time>2026-04-04T16:06:51.824Z</time></trkpt><trkpt lat="41.9551233" lon="-8.0283567"><ele>587.0</ele><time>2026-04-04T16:06:52.823Z</time></trkpt><trkpt lat="41.955195" lon="-8.0284"><ele>587.0</ele><time>2026-04-04T16:06:53.824Z</time></trkpt><trkpt lat="41.955265" lon="-8.0284417"><ele>590.6666666666666</ele><time>2026-04-04T16:06:54.824Z</time></trkpt><trkpt lat="41.95533" lon="-8.028505"><ele>594.3333333333333</ele><time>2026-04-04T16:06:55.823Z</time></trkpt><trkpt lat="41.9553917" lon="-8.02858"><ele>598.0</ele><time>2026-04-04T16:06:56.826Z</time></trkpt><trkpt lat="41.9554467" lon="-8.0286667"><ele>601.6666666666666</ele><time>2026-04-04T16:06:57.824Z</time></trkpt><trkpt lat="41.955505" lon="-8.0287517"><ele>605.3333333333334</ele><time>2026-04-04T16:06:58.823Z</time></trkpt><trkpt lat="41.9555567" lon="-8.028835"><ele>609.0</ele><time>2026-04-04T16:06:59.825Z</time></trkpt><trkpt lat="41.9555983" lon="-8.02892"><ele>609.0</ele><time>2026-04-04T16:07:00.824Z</time></trkpt><trkpt lat="41.95563" lon="-8.0290083"><ele>609.0</ele><time>2026-04-04T16:07:01.825Z</time></trkpt><trkpt lat="41.9556517" lon="-8.0291017"><ele>609.0</ele><time>2026-04-04T16:07:02.824Z</time></trkpt><trkpt lat="41.9556667" lon="-8.02919"><ele>609.0</ele><time>2026-04-04T16:07:03.824Z</time></trkpt><trkpt lat="41.9556733" lon="-8.0292883"><ele>609.0</ele><time>2026-04-04T16:07:04.824Z</time></trkpt><trkpt lat="41.955665" lon="-8.02939"><ele>609.0</ele><time>2026-04-04T16:07:05.825Z</time></trkpt><trkpt lat="41.9556567" lon="-8.02949"><ele>609.0</ele><time>2026-04-04T16:07:06.824Z</time></trkpt><trkpt lat="41.95566" lon="-8.0295983"><ele>611.1666666666666</ele><time>2026-04-04T16:07:07.824Z</time></trkpt><trkpt lat="41.9556717" lon="-8.0296983"><ele>613.3333333333334</ele><time>2026-04-04T16:07:08.824Z</time></trkpt><trkpt lat="41.955695" lon="-8.0297883"><ele>615.5</ele><time>2026-04-04T16:07:09.824Z</time></trkpt><trkpt lat="41.9557267" lon="-8.02988"><ele>617.6666666666667</ele><time>2026-04-04T16:07:10.825Z</time></trkpt><trkpt lat="41.9557633" lon="-8.02996"><ele>619.8333333333334</ele><time>2026-04-04T16:07:11.825Z</time></trkpt><trkpt lat="41.95587" lon="-8.0299967"><ele>622.0</ele><time>2026-04-04T16:07:13.824Z</time></trkpt><trkpt lat="41.9559433" lon="-8.0299483"><ele>626.0</ele><time>2026-04-04T16:07:14.824Z</time></trkpt><trkpt lat="41.95603" lon="-8.0298367"><ele>630.0</ele><time>2026-04-04T16:07:15.825Z</time></trkpt><trkpt lat="41.9560817" lon="-8.0297667"><ele>634.0</ele><time>2026-04-04T16:07:16.824Z</time></trkpt><trkpt lat="41.9561217" lon="-8.0296667"><ele>638.0</ele><time>2026-04-04T16:07:17.824Z</time></trkpt><trkpt lat="41.9561617" lon="-8.0295883"><ele>642.0</ele><time>2026-04-04T16:07:18.824Z</time></trkpt><trkpt lat="41.9562333" lon="-8.029475"><ele>642.0</ele><time>2026-04-04T16:07:20.825Z</time></trkpt><trkpt lat="41.9562833" lon="-8.02937"><ele>642.0</ele><time>2026-04-04T16:11:30.823Z</time></trkpt><trkpt lat="41.956305" lon="-8.02927"><ele>642.0</ele><time>2026-04-04T16:11:32.824Z</time></trkpt><trkpt lat="41.95635" lon="-8.02915"><ele>642.0</ele><time>2026-04-04T16:11:34.822Z</time></trkpt><trkpt lat="41.956415" lon="-8.029"><ele>642.0</ele><time>2026-04-04T16:11:36.823Z</time></trkpt><trkpt lat="41.9564633" lon="-8.028925"><ele>642.1666666666666</ele><time>2026-04-04T16:11:37.823Z</time></trkpt><trkpt lat="41.9565133" lon="-8.028845"><ele>642.3333333333334</ele><time>2026-04-04T16:11:38.824Z</time></trkpt><trkpt lat="41.956565" lon="-8.0287617"><ele>642.5</ele><time>2026-04-04T16:11:39.824Z</time></trkpt><trkpt lat="41.9566217" lon="-8.0286717"><ele>642.6666666666667</ele><time>2026-04-04T16:11:40.823Z</time></trkpt><trkpt lat="41.9566783" lon="-8.02857"><ele>642.8333333333334</ele><time>2026-04-04T16:11:41.824Z</time></trkpt><trkpt lat="41.95673" lon="-8.0284717"><ele>643.0</ele><time>2026-04-04T16:11:42.823Z</time></trkpt><trkpt lat="41.95678" lon="-8.0283767"><ele>640.1666666666667</ele><time>2026-04-04T16:11:43.824Z</time></trkpt><trkpt lat="41.9568217" lon="-8.0282867"><ele>637.3333333333334</ele><time>2026-04-04T16:11:44.825Z</time></trkpt><trkpt lat="41.9568633" lon="-8.0281983"><ele>634.5</ele><time>2026-04-04T16:11:45.823Z</time></trkpt><trkpt lat="41.9569117" lon="-8.0281133"><ele>631.6666666666666</ele><time>2026-04-04T16:11:46.823Z</time></trkpt><trkpt lat="41.9569733" lon="-8.0280433"><ele>628.8333333333333</ele><time>2026-04-04T16:11:47.823Z</time></trkpt><trkpt lat="41.9570433" lon="-8.0279833"><ele>626.0</ele><time>2026-04-04T16:11:48.823Z</time></trkpt><trkpt lat="41.957115" lon="-8.0279383"><ele>626.0</ele><time>2026-04-04T16:11:49.823Z</time></trkpt><trkpt lat="41.957195" lon="-8.0278983"><ele>626.0</ele><time>2026-04-04T16:11:50.824Z</time></trkpt><trkpt lat="41.9572683" lon="-8.0278567"><ele>626.0</ele><time>2026-04-04T16:11:51.823Z</time></trkpt><trkpt lat="41.9573433" lon="-8.027815"><ele>626.0</ele><time>2026-04-04T16:11:52.823Z</time></trkpt><trkpt lat="41.957425" lon="-8.0277717"><ele>626.0</ele><time>2026-04-04T16:11:53.823Z</time></trkpt><trkpt lat="41.9575067" lon="-8.0277283"><ele>626.0</ele><time>2026-04-04T16:11:54.825Z</time></trkpt><trkpt lat="41.95759" lon="-8.02769"><ele>628.0</ele><time>2026-04-04T16:11:55.823Z</time></trkpt><trkpt lat="41.9576783" lon="-8.0276417"><ele>630.0</ele><time>2026-04-04T16:11:56.823Z</time></trkpt><trkpt lat="41.95777" lon="-8.027585"><ele>632.0</ele><time>2026-04-04T16:11:57.822Z</time></trkpt><trkpt lat="41.957855" lon="-8.0275267"><ele>634.0</ele><time>2026-04-04T16:11:58.825Z</time></trkpt><trkpt lat="41.9579333" lon="-8.0274783"><ele>636.0</ele><time>2026-04-04T16:11:59.824Z</time></trkpt><trkpt lat="41.95801" lon="-8.02744"><ele>636.5</ele><time>2026-04-04T16:12:00.823Z</time></trkpt><trkpt lat="41.9580817" lon="-8.027395"><ele>637.0</ele><time>2026-04-04T16:12:01.822Z</time></trkpt><trkpt lat="41.958145" lon="-8.0273433"><ele>637.5</ele><time>2026-04-04T16:12:02.823Z</time></trkpt><trkpt lat="41.9582133" lon="-8.0272783"><ele>638.0</ele><time>2026-04-04T16:12:03.823Z</time></trkpt><trkpt lat="41.9582983" lon="-8.027205"><ele>638.5</ele><time>2026-04-04T16:12:04.823Z</time></trkpt><trkpt lat="41.958375" lon="-8.027135"><ele>639.0</ele><time>2026-04-04T16:12:05.823Z</time></trkpt><trkpt lat="41.958445" lon="-8.0270583"><ele>639.0</ele><time>2026-04-04T16:12:06.823Z</time></trkpt><trkpt lat="41.958495" lon="-8.0269817"><ele>639.0</ele><time>2026-04-04T16:12:07.824Z</time></trkpt><trkpt lat="41.95854" lon="-8.026895"><ele>639.0</ele><time>2026-04-04T16:12:08.824Z</time></trkpt><trkpt lat="41.9585833" lon="-8.0267933"><ele>639.0</ele><time>2026-04-04T16:12:09.822Z</time></trkpt><trkpt lat="41.9586117" lon="-8.0266967"><ele>639.0</ele><time>2026-04-04T16:12:10.823Z</time></trkpt><trkpt lat="41.9586367" lon="-8.0265883"><ele>639.0</ele><time>2026-04-04T16:12:11.823Z</time></trkpt><trkpt lat="41.95865" lon="-8.0264767"><ele>636.6666666666666</ele><time>2026-04-04T16:12:12.824Z</time></trkpt><trkpt lat="41.9586633" lon="-8.02637"><ele>634.3333333333334</ele><time>2026-04-04T16:12:13.822Z</time></trkpt><trkpt lat="41.9586883" lon="-8.0262683"><ele>632.0</ele><time>2026-04-04T16:12:14.825Z</time></trkpt><trkpt lat="41.9587267" lon="-8.0261817"><ele>629.6666666666667</ele><time>2026-04-04T16:12:15.823Z</time></trkpt><trkpt lat="41.958785" lon="-8.0261033"><ele>627.3333333333334</ele><time>2026-04-04T16:12:16.823Z</time></trkpt><trkpt lat="41.9588717" lon="-8.0260317"><ele>625.0</ele><time>2026-04-04T16:12:17.823Z</time></trkpt><trkpt lat="41.9589817" lon="-8.0259667"><ele>625.0</ele><time>2026-04-04T16:12:18.823Z</time></trkpt><trkpt lat="41.9590883" lon="-8.0258767"><ele>625.0</ele><time>2026-04-04T16:12:19.823Z</time></trkpt><trkpt lat="41.959185" lon="-8.0257967"><ele>625.0</ele><time>2026-04-04T16:12:20.823Z</time></trkpt><trkpt lat="41.959275" lon="-8.0257183"><ele>625.0</ele><time>2026-04-04T16:12:21.824Z</time></trkpt><trkpt lat="41.9593633" lon="-8.025665"><ele>625.0</ele><time>2026-04-04T16:12:22.823Z</time></trkpt><trkpt lat="41.9594433" lon="-8.0256317"><ele>625.5</ele><time>2026-04-04T16:12:23.825Z</time></trkpt><trkpt lat="41.9595233" lon="-8.0256067"><ele>626.0</ele><time>2026-04-04T16:12:24.823Z</time></trkpt><trkpt lat="41.9596167" lon="-8.0255833"><ele>626.5</ele><time>2026-04-04T16:12:25.823Z</time></trkpt><trkpt lat="41.9596983" lon="-8.0255633"><ele>627.0</ele><time>2026-04-04T16:12:26.823Z</time></trkpt><trkpt lat="41.9597717" lon="-8.0255383"><ele>627.5</ele><time>2026-04-04T16:12:27.823Z</time></trkpt><trkpt lat="41.9598767" lon="-8.0254833"><ele>628.0</ele><time>2026-04-04T16:12:29.823Z</time></trkpt><trkpt lat="41.9599367" lon="-8.0254383"><ele>628.0</ele><time>2026-04-04T16:12:30.823Z</time></trkpt><trkpt lat="41.9600017" lon="-8.0253833"><ele>628.0</ele><time>2026-04-04T16:12:31.823Z</time></trkpt><trkpt lat="41.9600683" lon="-8.0253283"><ele>628.0</ele><time>2026-04-04T16:12:32.822Z</time></trkpt><trkpt lat="41.9601367" lon="-8.025265"><ele>628.0</ele><time>2026-04-04T16:12:33.823Z</time></trkpt><trkpt lat="41.96022" lon="-8.0251983"><ele>628.0</ele><time>2026-04-04T16:12:34.824Z</time></trkpt><trkpt lat="41.9603217" lon="-8.0251267"><ele>628.5</ele><time>2026-04-04T16:12:35.824Z</time></trkpt><trkpt lat="41.9604217" lon="-8.0250467"><ele>629.0</ele><time>2026-04-04T16:12:36.825Z</time></trkpt><trkpt lat="41.9605283" lon="-8.0249483"><ele>629.5</ele><time>2026-04-04T16:12:37.824Z</time></trkpt><trkpt lat="41.960655" lon="-8.0248233"><ele>630.0</ele><time>2026-04-04T16:12:38.824Z</time></trkpt><trkpt lat="41.960755" lon="-8.0247183"><ele>630.0</ele><time>2026-04-04T16:12:39.823Z</time></trkpt><trkpt lat="41.9608633" lon="-8.024605"><ele>630.0</ele><time>2026-04-04T16:12:40.824Z</time></trkpt><trkpt lat="41.9609733" lon="-8.0244883"><ele>630.0</ele><time>2026-04-04T16:12:41.823Z</time></trkpt><trkpt lat="41.9610783" lon="-8.0243783"><ele>630.0</ele><time>2026-04-04T16:12:42.823Z</time></trkpt><trkpt lat="41.9611633" lon="-8.0242883"><ele>632.0</ele><time>2026-04-04T16:12:43.823Z</time></trkpt><trkpt lat="41.9612483" lon="-8.024205"><ele>634.0</ele><time>2026-04-04T16:12:44.825Z</time></trkpt><trkpt lat="41.9613067" lon="-8.0241417"><ele>636.0</ele><time>2026-04-04T16:12:45.824Z</time></trkpt><trkpt lat="41.9613517" lon="-8.0240817"><ele>638.0</ele><time>2026-04-04T16:12:46.824Z</time></trkpt><trkpt lat="41.9613667" lon="-8.0239717"><ele>640.0</ele><time>2026-04-04T16:12:48.824Z</time></trkpt><trkpt lat="41.9613117" lon="-8.023865"><ele>642.0</ele><time>2026-04-04T16:12:50.823Z</time></trkpt><trkpt lat="41.9611817" lon="-8.0238217"><ele>641.4</ele><time>2026-04-04T16:13:10.823Z</time></trkpt><trkpt lat="41.9611017" lon="-8.0237517"><ele>640.8000000000001</ele><time>2026-04-04T16:13:13.824Z</time></trkpt><trkpt lat="41.9609917" lon="-8.0237133"><ele>640.2</ele><time>2026-04-04T16:13:15.823Z</time></trkpt><trkpt lat="41.9609217" lon="-8.0237133"><ele>639.6</ele><time>2026-04-04T16:13:16.823Z</time></trkpt><trkpt lat="41.96083" lon="-8.023705"><ele>639.0</ele><time>2026-04-04T16:13:17.825Z</time></trkpt><trkpt lat="41.9606017" lon="-8.0237483"><ele>639.0</ele><time>2026-04-04T16:13:18.824Z</time></trkpt><trkpt lat="41.960455" lon="-8.02379"><ele>639.0</ele><time>2026-04-04T16:13:19.824Z</time></trkpt><trkpt lat="41.9603233" lon="-8.0237967"><ele>639.0</ele><time>2026-04-04T16:13:20.824Z</time></trkpt><trkpt lat="41.9601767" lon="-8.0238017"><ele>639.0</ele><time>2026-04-04T16:13:21.823Z</time></trkpt><trkpt lat="41.9600233" lon="-8.0237883"><ele>637.5</ele><time>2026-04-04T16:13:22.823Z</time></trkpt><trkpt lat="41.9598833" lon="-8.023785"><ele>636.0</ele><time>2026-04-04T16:13:23.823Z</time></trkpt><trkpt lat="41.95976" lon="-8.023785"><ele>634.5</ele><time>2026-04-04T16:13:24.822Z</time></trkpt><trkpt lat="41.9596283" lon="-8.02377"><ele>633.0</ele><time>2026-04-04T16:13:25.822Z</time></trkpt><trkpt lat="41.959505" lon="-8.0237367"><ele>633.0</ele><time>2026-04-04T16:13:26.824Z</time></trkpt><trkpt lat="41.95939" lon="-8.0236983"><ele>633.0</ele><time>2026-04-04T16:13:27.822Z</time></trkpt><trkpt lat="41.9592883" lon="-8.02366"><ele>633.0</ele><time>2026-04-04T16:13:28.823Z</time></trkpt><trkpt lat="41.9592033" lon="-8.0236167"><ele>633.0</ele><time>2026-04-04T16:13:29.823Z</time></trkpt><trkpt lat="41.95912" lon="-8.0235683"><ele>633.0</ele><time>2026-04-04T16:13:30.823Z</time></trkpt><trkpt lat="41.95905" lon="-8.023485"><ele>632.0</ele><time>2026-04-04T16:13:31.824Z</time></trkpt><trkpt lat="41.9589767" lon="-8.0233483"><ele>631.0</ele><time>2026-04-04T16:13:32.823Z</time></trkpt><trkpt lat="41.9589117" lon="-8.0232183"><ele>630.0</ele><time>2026-04-04T16:13:33.822Z</time></trkpt><trkpt lat="41.9588483" lon="-8.0230867"><ele>629.0</ele><time>2026-04-04T16:13:34.823Z</time></trkpt><trkpt lat="41.9587817" lon="-8.0229717"><ele>629.0</ele><time>2026-04-04T16:13:35.822Z</time></trkpt><trkpt lat="41.9586983" lon="-8.02286"><ele>629.0</ele><time>2026-04-04T16:13:36.824Z</time></trkpt><trkpt lat="41.9586067" lon="-8.0227467"><ele>629.0</ele><time>2026-04-04T16:13:37.822Z</time></trkpt><trkpt lat="41.958525" lon="-8.022635"><ele>629.0</ele><time>2026-04-04T16:13:38.823Z</time></trkpt><trkpt lat="41.9584467" lon="-8.0225283"><ele>630.0</ele><time>2026-04-04T16:13:39.822Z</time></trkpt><trkpt lat="41.9583833" lon="-8.022435"><ele>631.0</ele><time>2026-04-04T16:13:40.822Z</time></trkpt><trkpt lat="41.9583317" lon="-8.022355"><ele>632.0</ele><time>2026-04-04T16:13:41.822Z</time></trkpt><trkpt lat="41.95829" lon="-8.0222883"><ele>633.0</ele><time>2026-04-04T16:13:42.823Z</time></trkpt><trkpt lat="41.9582233" lon="-8.02217"><ele>634.0</ele><time>2026-04-04T16:13:44.822Z</time></trkpt><trkpt lat="41.9581567" lon="-8.022035"><ele>628.75</ele><time>2026-04-04T16:13:46.822Z</time></trkpt><trkpt lat="41.9580933" lon="-8.0219017"><ele>623.5</ele><time>2026-04-04T16:13:48.824Z</time></trkpt><trkpt lat="41.9580133" lon="-8.0217967"><ele>618.25</ele><time>2026-04-04T16:13:50.823Z</time></trkpt><trkpt lat="41.9579433" lon="-8.0216817"><ele>613.0</ele><time>2026-04-04T16:13:52.823Z</time></trkpt><trkpt lat="41.957885" lon="-8.02154"><ele>612.6</ele><time>2026-04-04T16:13:54.823Z</time></trkpt><trkpt lat="41.9578633" lon="-8.02144"><ele>612.1999999999999</ele><time>2026-04-04T16:13:55.823Z</time></trkpt><trkpt lat="41.95783" lon="-8.0213033"><ele>611.8</ele><time>2026-04-04T16:13:56.824Z</time></trkpt><trkpt lat="41.9577983" lon="-8.0211833"><ele>611.4</ele><time>2026-04-04T16:13:57.822Z</time></trkpt><trkpt lat="41.9577617" lon="-8.0210467"><ele>611.0</ele><time>2026-04-04T16:13:58.822Z</time></trkpt><trkpt lat="41.9577333" lon="-8.0209167"><ele>611.5</ele><time>2026-04-04T16:13:59.823Z</time></trkpt><trkpt lat="41.9576967" lon="-8.0207767"><ele>612.0</ele><time>2026-04-04T16:14:00.823Z</time></trkpt><trkpt lat="41.9576583" lon="-8.0206333"><ele>612.5</ele><time>2026-04-04T16:14:01.823Z</time></trkpt><trkpt lat="41.957615" lon="-8.0204733"><ele>613.0</ele><time>2026-04-04T16:14:02.822Z</time></trkpt><trkpt lat="41.9575767" lon="-8.0202817"><ele>613.0</ele><time>2026-04-04T16:14:03.823Z</time></trkpt><trkpt lat="41.9575483" lon="-8.02012"><ele>613.0</ele><time>2026-04-04T16:14:04.823Z</time></trkpt><trkpt lat="41.957515" lon="-8.0199483"><ele>613.0</ele><time>2026-04-04T16:14:05.823Z</time></trkpt><trkpt lat="41.95748" lon="-8.0197833"><ele>613.0</ele><time>2026-04-04T16:14:06.823Z</time></trkpt><trkpt lat="41.9574533" lon="-8.0196283"><ele>612.0</ele><time>2026-04-04T16:14:07.824Z</time></trkpt><trkpt lat="41.95743" lon="-8.0194933"><ele>611.0</ele><time>2026-04-04T16:14:08.823Z</time></trkpt><trkpt lat="41.9573967" lon="-8.0193833"><ele>610.0</ele><time>2026-04-04T16:14:09.823Z</time></trkpt><trkpt lat="41.9573533" lon="-8.0192817"><ele>609.0</ele><time>2026-04-04T16:14:10.822Z</time></trkpt><trkpt lat="41.9572983" lon="-8.0191733"><ele>608.0</ele><time>2026-04-04T16:14:11.822Z</time></trkpt><trkpt lat="41.9572317" lon="-8.0190667"><ele>608.0</ele><time>2026-04-04T16:14:12.823Z</time></trkpt><trkpt lat="41.9571533" lon="-8.0189717"><ele>608.0</ele><time>2026-04-04T16:14:13.823Z</time></trkpt><trkpt lat="41.957065" lon="-8.0188967"><ele>608.0</ele><time>2026-04-04T16:14:14.824Z</time></trkpt><trkpt lat="41.9569767" lon="-8.0188233"><ele>608.0</ele><time>2026-04-04T16:14:15.822Z</time></trkpt><trkpt lat="41.9569" lon="-8.0187367"><ele>608.0</ele><time>2026-04-04T16:14:16.823Z</time></trkpt><trkpt lat="41.9568183" lon="-8.0186217"><ele>608.0</ele><time>2026-04-04T16:14:17.822Z</time></trkpt><trkpt lat="41.9567333" lon="-8.018485"><ele>608.0</ele><time>2026-04-04T16:14:18.825Z</time></trkpt><trkpt lat="41.95666" lon="-8.0183583"><ele>608.0</ele><time>2026-04-04T16:14:19.822Z</time></trkpt><trkpt lat="41.956595" lon="-8.0182517"><ele>608.0</ele><time>2026-04-04T16:14:20.824Z</time></trkpt><trkpt lat="41.9565433" lon="-8.0181467"><ele>608.0</ele><time>2026-04-04T16:14:21.822Z</time></trkpt><trkpt lat="41.956505" lon="-8.01804"><ele>607.7142857142857</ele><time>2026-04-04T16:14:22.823Z</time></trkpt><trkpt lat="41.9564917" lon="-8.0179467"><ele>607.4285714285714</ele><time>2026-04-04T16:14:23.823Z</time></trkpt><trkpt lat="41.956485" lon="-8.0178517"><ele>607.1428571428571</ele><time>2026-04-04T16:14:24.823Z</time></trkpt><trkpt lat="41.95649" lon="-8.0177567"><ele>606.8571428571429</ele><time>2026-04-04T16:14:25.822Z</time></trkpt><trkpt lat="41.9564983" lon="-8.0176633"><ele>606.5714285714286</ele><time>2026-04-04T16:14:26.823Z</time></trkpt><trkpt lat="41.95651" lon="-8.0175633"><ele>606.2857142857143</ele><time>2026-04-04T16:14:27.822Z</time></trkpt><trkpt lat="41.9565283" lon="-8.01747"><ele>606.0</ele><time>2026-04-04T16:14:28.823Z</time></trkpt><trkpt lat="41.9565467" lon="-8.01738"><ele>605.1666666666666</ele><time>2026-04-04T16:14:29.823Z</time></trkpt><trkpt lat="41.9565683" lon="-8.017295"><ele>604.3333333333334</ele><time>2026-04-04T16:14:30.824Z</time></trkpt><trkpt lat="41.956585" lon="-8.01721"><ele>603.5</ele><time>2026-04-04T16:14:31.822Z</time></trkpt><trkpt lat="41.9566067" lon="-8.017125"><ele>602.6666666666667</ele><time>2026-04-04T16:14:32.824Z</time></trkpt><trkpt lat="41.95662" lon="-8.01704"><ele>601.8333333333334</ele><time>2026-04-04T16:14:33.823Z</time></trkpt><trkpt lat="41.9566567" lon="-8.0168933"><ele>601.0</ele><time>2026-04-04T16:14:35.823Z</time></trkpt><trkpt lat="41.9566883" lon="-8.0167833"><ele>602.5</ele><time>2026-04-04T16:14:37.822Z</time></trkpt><trkpt lat="41.9567283" lon="-8.0166817"><ele>604.0</ele><time>2026-04-04T16:14:39.822Z</time></trkpt><trkpt lat="41.9567883" lon="-8.0165383"><ele>605.5</ele><time>2026-04-04T16:14:41.823Z</time></trkpt><trkpt lat="41.9568133" lon="-8.0164517"><ele>607.0</ele><time>2026-04-04T16:14:42.823Z</time></trkpt><trkpt lat="41.95684" lon="-8.0163567"><ele>608.5</ele><time>2026-04-04T16:14:43.823Z</time></trkpt><trkpt lat="41.9568717" lon="-8.0162483"><ele>610.0</ele><time>2026-04-04T16:14:44.823Z</time></trkpt><trkpt lat="41.9569217" lon="-8.016125"><ele>610.0</ele><time>2026-04-04T16:14:45.824Z</time></trkpt><trkpt lat="41.9569633" lon="-8.01602"><ele>610.0</ele><time>2026-04-04T16:14:46.823Z</time></trkpt><trkpt lat="41.9569933" lon="-8.0159117"><ele>610.0</ele><time>2026-04-04T16:14:47.823Z</time></trkpt><trkpt lat="41.9570117" lon="-8.0158067"><ele>610.0</ele><time>2026-04-04T16:14:48.823Z</time></trkpt><trkpt lat="41.9570283" lon="-8.0156983"><ele>610.0</ele><time>2026-04-04T16:14:49.822Z</time></trkpt><trkpt lat="41.9570567" lon="-8.015585"><ele>610.0</ele><time>2026-04-04T16:14:50.823Z</time></trkpt><trkpt lat="41.9570917" lon="-8.0154567"><ele>607.0</ele><time>2026-04-04T16:14:51.823Z</time></trkpt><trkpt lat="41.957175" lon="-8.0152967"><ele>604.0</ele><time>2026-04-04T16:14:52.822Z</time></trkpt><trkpt lat="41.957235" lon="-8.0151817"><ele>601.0</ele><time>2026-04-04T16:14:53.823Z</time></trkpt><trkpt lat="41.9573033" lon="-8.0150717"><ele>598.0</ele><time>2026-04-04T16:14:54.823Z</time></trkpt><trkpt lat="41.9573917" lon="-8.0149767"><ele>595.75</ele><time>2026-04-04T16:14:55.823Z</time></trkpt><trkpt lat="41.95749" lon="-8.0148983"><ele>593.5</ele><time>2026-04-04T16:14:56.823Z</time></trkpt><trkpt lat="41.957595" lon="-8.0148433"><ele>591.25</ele><time>2026-04-04T16:14:57.823Z</time></trkpt><trkpt lat="41.9577117" lon="-8.0147883"><ele>589.0</ele><time>2026-04-04T16:14:58.823Z</time></trkpt><trkpt lat="41.9578267" lon="-8.0147433"><ele>589.0</ele><time>2026-04-04T16:14:59.823Z</time></trkpt><trkpt lat="41.9579383" lon="-8.0147117"><ele>589.0</ele><time>2026-04-04T16:15:00.823Z</time></trkpt><trkpt lat="41.9580433" lon="-8.0146583"><ele>589.0</ele><time>2026-04-04T16:15:01.823Z</time></trkpt><trkpt lat="41.958135" lon="-8.0146067"><ele>589.0</ele><time>2026-04-04T16:15:02.823Z</time></trkpt><trkpt lat="41.9582083" lon="-8.01452"><ele>589.0</ele><time>2026-04-04T16:15:03.823Z</time></trkpt><trkpt lat="41.9582667" lon="-8.0144333"><ele>589.0</ele><time>2026-04-04T16:15:04.823Z</time></trkpt><trkpt lat="41.958325" lon="-8.0143667"><ele>589.0</ele><time>2026-04-04T16:15:05.822Z</time></trkpt><trkpt lat="41.9583917" lon="-8.01431"><ele>589.0</ele><time>2026-04-04T16:15:06.823Z</time></trkpt><trkpt lat="41.95846" lon="-8.0142567"><ele>589.0</ele><time>2026-04-04T16:15:07.823Z</time></trkpt><trkpt lat="41.9585333" lon="-8.0141967"><ele>589.0</ele><time>2026-04-04T16:15:08.824Z</time></trkpt><trkpt lat="41.9586167" lon="-8.0141433"><ele>589.0</ele><time>2026-04-04T16:15:09.823Z</time></trkpt><trkpt lat="41.95869" lon="-8.01409"><ele>588.1666666666667</ele><time>2026-04-04T16:15:10.823Z</time></trkpt><trkpt lat="41.9587567" lon="-8.0140383"><ele>587.3333333333334</ele><time>2026-04-04T16:15:11.822Z</time></trkpt><trkpt lat="41.9588133" lon="-8.0139967"><ele>586.5</ele><time>2026-04-04T16:15:12.823Z</time></trkpt><trkpt lat="41.9589017" lon="-8.013905"><ele>585.6666666666666</ele><time>2026-04-04T16:15:14.823Z</time></trkpt><trkpt lat="41.9589833" lon="-8.0138317"><ele>584.8333333333333</ele><time>2026-04-04T16:15:16.823Z</time></trkpt><trkpt lat="41.9590483" lon="-8.013785"><ele>584.0</ele><time>2026-04-04T16:15:18.823Z</time></trkpt><trkpt lat="41.9591317" lon="-8.0137533"><ele>584.0</ele><time>2026-04-04T16:15:21.822Z</time></trkpt><trkpt lat="41.959215" lon="-8.0137533"><ele>584.0</ele><time>2026-04-04T16:15:24.823Z</time></trkpt><trkpt lat="41.9593033" lon="-8.013745"><ele>584.0</ele><time>2026-04-04T16:15:27.824Z</time></trkpt><trkpt lat="41.9593667" lon="-8.0137517"><ele>584.0</ele><time>2026-04-04T16:15:29.823Z</time></trkpt><trkpt lat="41.95945" lon="-8.0137783"><ele>584.0</ele><time>2026-04-04T16:15:34.823Z</time></trkpt><trkpt lat="41.9595183" lon="-8.0138333"><ele>584.0</ele><time>2026-04-04T16:15:36.823Z</time></trkpt><trkpt lat="41.959585" lon="-8.01391"><ele>584.0</ele><time>2026-04-04T16:15:38.823Z</time></trkpt><trkpt lat="41.95963" lon="-8.0140367"><ele>584.0</ele><time>2026-04-04T16:15:40.823Z</time></trkpt><trkpt lat="41.9596517" lon="-8.0141817"><ele>584.0</ele><time>2026-04-04T16:15:42.824Z</time></trkpt><trkpt lat="41.9596633" lon="-8.01433"><ele>584.0</ele><time>2026-04-04T16:15:44.823Z</time></trkpt><trkpt lat="41.9596767" lon="-8.0144783"><ele>584.0</ele><time>2026-04-04T16:15:46.825Z</time></trkpt><trkpt lat="41.9597117" lon="-8.01463"><ele>586.5</ele><time>2026-04-04T16:15:48.823Z</time></trkpt><trkpt lat="41.9597417" lon="-8.014795"><ele>589.0</ele><time>2026-04-04T16:15:50.823Z</time></trkpt><trkpt lat="41.95975" lon="-8.0148817"><ele>591.5</ele><time>2026-04-04T16:15:51.823Z</time></trkpt><trkpt lat="41.9597483" lon="-8.0149683"><ele>594.0</ele><time>2026-04-04T16:15:52.823Z</time></trkpt><trkpt lat="41.95975" lon="-8.015055"><ele>596.5</ele><time>2026-04-04T16:15:53.824Z</time></trkpt><trkpt lat="41.9597483" lon="-8.01514"><ele>599.0</ele><time>2026-04-04T16:15:54.823Z</time></trkpt><trkpt lat="41.9597183" lon="-8.0152867"><ele>600.4</ele><time>2026-04-04T16:15:56.824Z</time></trkpt><trkpt lat="41.9596517" lon="-8.0154033"><ele>601.8</ele><time>2026-04-04T16:15:58.823Z</time></trkpt><trkpt lat="41.9595983" lon="-8.0154967"><ele>603.2</ele><time>2026-04-04T16:16:00.824Z</time></trkpt><trkpt lat="41.9595783" lon="-8.0156433"><ele>604.6</ele><time>2026-04-04T16:16:02.824Z</time></trkpt><trkpt lat="41.9595933" lon="-8.01581"><ele>606.0</ele><time>2026-04-04T16:16:04.823Z</time></trkpt><trkpt lat="41.95961" lon="-8.0159167"><ele>607.5</ele><time>2026-04-04T16:16:05.823Z</time></trkpt><trkpt lat="41.959645" lon="-8.0160333"><ele>609.0</ele><time>2026-04-04T16:16:06.823Z</time></trkpt><trkpt lat="41.9596833" lon="-8.0161267"><ele>610.5</ele><time>2026-04-04T16:16:07.823Z</time></trkpt><trkpt lat="41.9597233" lon="-8.0162117"><ele>612.0</ele><time>2026-04-04T16:16:08.824Z</time></trkpt><trkpt lat="41.9597817" lon="-8.0162833"><ele>613.5</ele><time>2026-04-04T16:16:09.824Z</time></trkpt><trkpt lat="41.9598533" lon="-8.0163567"><ele>615.0</ele><time>2026-04-04T16:16:10.823Z</time></trkpt><trkpt lat="41.95993" lon="-8.0164167"><ele>615.0</ele><time>2026-04-04T16:16:11.824Z</time></trkpt><trkpt lat="41.9600117" lon="-8.0164617"><ele>615.0</ele><time>2026-04-04T16:16:12.823Z</time></trkpt><trkpt lat="41.9600983" lon="-8.016485"><ele>615.0</ele><time>2026-04-04T16:16:13.825Z</time></trkpt><trkpt lat="41.9601733" lon="-8.0164767"><ele>615.0</ele><time>2026-04-04T16:16:14.824Z</time></trkpt><trkpt lat="41.9602383" lon="-8.0164767"><ele>615.0</ele><time>2026-04-04T16:16:15.825Z</time></trkpt><trkpt lat="41.9603067" lon="-8.0164717"><ele>615.0</ele><time>2026-04-04T16:16:16.823Z</time></trkpt><trkpt lat="41.9604167" lon="-8.0164633"><ele>616.0</ele><time>2026-04-04T16:16:18.823Z</time></trkpt><trkpt lat="41.9605067" lon="-8.0164367"><ele>617.0</ele><time>2026-04-04T16:17:02.822Z</time></trkpt><trkpt lat="41.9605717" lon="-8.0164267"><ele>618.0</ele><time>2026-04-04T16:17:04.822Z</time></trkpt><trkpt lat="41.960665" lon="-8.01642"><ele>619.0</ele><time>2026-04-04T16:17:06.823Z</time></trkpt><trkpt lat="41.9607517" lon="-8.016415"><ele>620.0</ele><time>2026-04-04T16:17:08.823Z</time></trkpt><trkpt lat="41.96086" lon="-8.0164317"><ele>621.0</ele><time>2026-04-04T16:17:10.824Z</time></trkpt><trkpt lat="41.9609633" lon="-8.0164117"><ele>621.6666666666666</ele><time>2026-04-04T16:17:12.823Z</time></trkpt><trkpt lat="41.9610167" lon="-8.0163333"><ele>622.3333333333334</ele><time>2026-04-04T16:17:14.824Z</time></trkpt><trkpt lat="41.9610867" lon="-8.0163033"><ele>623.0</ele><time>2026-04-04T16:17:16.822Z</time></trkpt><trkpt lat="41.9611933" lon="-8.0163167"><ele>623.6666666666667</ele><time>2026-04-04T16:17:18.823Z</time></trkpt><trkpt lat="41.96126" lon="-8.016345"><ele>624.3333333333334</ele><time>2026-04-04T16:17:19.823Z</time></trkpt><trkpt lat="41.961335" lon="-8.016385"><ele>625.0</ele><time>2026-04-04T16:17:20.825Z</time></trkpt><trkpt lat="41.9614167" lon="-8.0164233"><ele>625.0</ele><time>2026-04-04T16:17:21.824Z</time></trkpt><trkpt lat="41.9615" lon="-8.0164717"><ele>625.0</ele><time>2026-04-04T16:17:22.823Z</time></trkpt><trkpt lat="41.96159" lon="-8.01653"><ele>625.0</ele><time>2026-04-04T16:17:23.823Z</time></trkpt><trkpt lat="41.96169" lon="-8.0165767"><ele>625.0</ele><time>2026-04-04T16:17:24.823Z</time></trkpt><trkpt lat="41.9617833" lon="-8.0166217"><ele>625.0</ele><time>2026-04-04T16:17:25.824Z</time></trkpt><trkpt lat="41.96187" lon="-8.0166583"><ele>628.6666666666667</ele><time>2026-04-04T16:17:26.823Z</time></trkpt><trkpt lat="41.9619483" lon="-8.0166933"><ele>632.3333333333334</ele><time>2026-04-04T16:17:27.822Z</time></trkpt><trkpt lat="41.9620183" lon="-8.016735"><ele>636.0</ele><time>2026-04-04T16:17:28.823Z</time></trkpt><trkpt lat="41.9620883" lon="-8.01678"><ele>639.6666666666666</ele><time>2026-04-04T16:17:29.823Z</time></trkpt><trkpt lat="41.9621667" lon="-8.0168267"><ele>643.3333333333333</ele><time>2026-04-04T16:17:30.823Z</time></trkpt><trkpt lat="41.9622583" lon="-8.0168767"><ele>647.0</ele><time>2026-04-04T16:17:31.824Z</time></trkpt><trkpt lat="41.962355" lon="-8.0169433"><ele>647.0</ele><time>2026-04-04T16:17:32.826Z</time></trkpt><trkpt lat="41.9624483" lon="-8.01701"><ele>647.0</ele><time>2026-04-04T16:17:33.822Z</time></trkpt><trkpt lat="41.9625367" lon="-8.0170733"><ele>647.0</ele><time>2026-04-04T16:17:34.822Z</time></trkpt><trkpt lat="41.9626233" lon="-8.017135"><ele>647.0</ele><time>2026-04-04T16:17:35.822Z</time></trkpt><trkpt lat="41.9627117" lon="-8.0172033"><ele>647.0</ele><time>2026-04-04T16:17:36.823Z</time></trkpt><trkpt lat="41.962795" lon="-8.0172683"><ele>651.0</ele><time>2026-04-04T16:17:37.823Z</time></trkpt><trkpt lat="41.9628867" lon="-8.01734"><ele>655.0</ele><time>2026-04-04T16:17:38.824Z</time></trkpt><trkpt lat="41.96299" lon="-8.0174117"><ele>659.0</ele><time>2026-04-04T16:17:39.823Z</time></trkpt><trkpt lat="41.9631083" lon="-8.017505"><ele>663.0</ele><time>2026-04-04T16:17:40.823Z</time></trkpt><trkpt lat="41.9632083" lon="-8.01758"><ele>664.8</ele><time>2026-04-04T16:17:41.823Z</time></trkpt><trkpt lat="41.9633017" lon="-8.01765"><ele>666.5999999999999</ele><time>2026-04-04T16:17:42.823Z</time></trkpt><trkpt lat="41.96338" lon="-8.0177383"><ele>668.4000000000001</ele><time>2026-04-04T16:17:43.822Z</time></trkpt><trkpt lat="41.96344" lon="-8.0178283"><ele>670.2</ele><time>2026-04-04T16:17:44.824Z</time></trkpt><trkpt lat="41.96349" lon="-8.0179183"><ele>672.0</ele><time>2026-04-04T16:17:45.824Z</time></trkpt><trkpt lat="41.96354" lon="-8.018025"><ele>674.8333333333334</ele><time>2026-04-04T16:17:46.823Z</time></trkpt><trkpt lat="41.96358" lon="-8.01813"><ele>677.6666666666666</ele><time>2026-04-04T16:17:47.823Z</time></trkpt><trkpt lat="41.963625" lon="-8.0182283"><ele>680.5</ele><time>2026-04-04T16:17:48.823Z</time></trkpt><trkpt lat="41.963675" lon="-8.0183233"><ele>683.3333333333333</ele><time>2026-04-04T16:17:49.823Z</time></trkpt><trkpt lat="41.9637333" lon="-8.0184067"><ele>686.1666666666666</ele><time>2026-04-04T16:17:50.823Z</time></trkpt><trkpt lat="41.9637917" lon="-8.0184683"><ele>689.0</ele><time>2026-04-04T16:17:51.823Z</time></trkpt><trkpt lat="41.963875" lon="-8.0184967"><ele>690.0</ele><time>2026-04-04T16:17:53.824Z</time></trkpt><trkpt lat="41.963955" lon="-8.0185067"><ele>691.0</ele><time>2026-04-04T16:17:58.822Z</time></trkpt><trkpt lat="41.9639933" lon="-8.0185883"><ele>692.0</ele><time>2026-04-04T16:18:00.824Z</time></trkpt><trkpt lat="41.9640317" lon="-8.01868"><ele>693.0</ele><time>2026-04-04T16:18:02.825Z</time></trkpt><trkpt lat="41.9640717" lon="-8.0187667"><ele>694.0</ele><time>2026-04-04T16:18:04.822Z</time></trkpt><trkpt lat="41.9640933" lon="-8.0188733"><ele>695.0</ele><time>2026-04-04T16:18:06.825Z</time></trkpt><trkpt lat="41.9641117" lon="-8.0189917"><ele>695.0</ele><time>2026-04-04T16:18:08.824Z</time></trkpt><trkpt lat="41.9641267" lon="-8.0190983"><ele>695.0</ele><time>2026-04-04T16:18:10.822Z</time></trkpt><trkpt lat="41.9641167" lon="-8.0192017"><ele>695.0</ele><time>2026-04-04T16:18:12.823Z</time></trkpt><trkpt lat="41.9640817" lon="-8.0193367"><ele>695.0</ele><time>2026-04-04T16:18:14.823Z</time></trkpt><trkpt lat="41.964045" lon="-8.0194083"><ele>695.0</ele><time>2026-04-04T16:18:15.823Z</time></trkpt><trkpt lat="41.9639633" lon="-8.019495"><ele>695.0</ele><time>2026-04-04T16:18:17.824Z</time></trkpt><trkpt lat="41.9638617" lon="-8.0194883"><ele>696.4</ele><time>2026-04-04T16:18:19.823Z</time></trkpt><trkpt lat="41.9637817" lon="-8.0195167"><ele>697.8</ele><time>2026-04-04T16:18:21.823Z</time></trkpt><trkpt lat="41.9637283" lon="-8.01959"><ele>699.2</ele><time>2026-04-04T16:18:23.824Z</time></trkpt><trkpt lat="41.96369" lon="-8.0196783"><ele>700.6</ele><time>2026-04-04T16:18:25.823Z</time></trkpt><trkpt lat="41.9636533" lon="-8.0198517"><ele>702.0</ele><time>2026-04-04T16:18:27.823Z</time></trkpt><trkpt lat="41.9636167" lon="-8.0199933"><ele>704.0</ele><time>2026-04-04T16:18:28.823Z</time></trkpt><trkpt lat="41.963575" lon="-8.0201033"><ele>706.0</ele><time>2026-04-04T16:18:29.824Z</time></trkpt><trkpt lat="41.963525" lon="-8.0202217"><ele>708.0</ele><time>2026-04-04T16:18:30.823Z</time></trkpt><trkpt lat="41.9634683" lon="-8.0203667"><ele>710.0</ele><time>2026-04-04T16:18:31.823Z</time></trkpt><trkpt lat="41.9634217" lon="-8.0205183"><ele>712.0</ele><time>2026-04-04T16:18:32.823Z</time></trkpt><trkpt lat="41.96339" lon="-8.02063"><ele>712.0</ele><time>2026-04-04T16:18:33.823Z</time></trkpt><trkpt lat="41.9633667" lon="-8.0207283"><ele>712.0</ele><time>2026-04-04T16:18:34.828Z</time></trkpt><trkpt lat="41.96336" lon="-8.0208783"><ele>712.0</ele><time>2026-04-04T16:18:36.825Z</time></trkpt><trkpt lat="41.96344" lon="-8.020975"><ele>712.0</ele><time>2026-04-04T16:18:38.823Z</time></trkpt><trkpt lat="41.9635017" lon="-8.0210067"><ele>712.0</ele><time>2026-04-04T16:18:39.823Z</time></trkpt><trkpt lat="41.9635683" lon="-8.0210333"><ele>712.0</ele><time>2026-04-04T16:18:40.823Z</time></trkpt><trkpt lat="41.96365" lon="-8.0210417"><ele>712.0</ele><time>2026-04-04T16:18:41.823Z</time></trkpt><trkpt lat="41.9637583" lon="-8.02102"><ele>712.0</ele><time>2026-04-04T16:18:42.823Z</time></trkpt><trkpt lat="41.9638967" lon="-8.0209483"><ele>712.0</ele><time>2026-04-04T16:18:43.823Z</time></trkpt><trkpt lat="41.963985" lon="-8.02088"><ele>712.0</ele><time>2026-04-04T16:18:44.823Z</time></trkpt><trkpt lat="41.9640667" lon="-8.0208433"><ele>712.0</ele><time>2026-04-04T16:18:45.823Z</time></trkpt><trkpt lat="41.964155" lon="-8.0208117"><ele>716.1666666666667</ele><time>2026-04-04T16:18:46.822Z</time></trkpt><trkpt lat="41.9642283" lon="-8.0208033"><ele>720.3333333333334</ele><time>2026-04-04T16:18:47.823Z</time></trkpt><trkpt lat="41.9643333" lon="-8.02075"><ele>724.5</ele><time>2026-04-04T16:18:49.824Z</time></trkpt><trkpt lat="41.9644033" lon="-8.0206867"><ele>728.6666666666666</ele><time>2026-04-04T16:18:51.823Z</time></trkpt><trkpt lat="41.964455" lon="-8.0206183"><ele>732.8333333333333</ele><time>2026-04-04T16:18:53.824Z</time></trkpt><trkpt lat="41.9645367" lon="-8.0206067"><ele>737.0</ele><time>2026-04-04T16:18:58.823Z</time></trkpt><trkpt lat="41.9646017" lon="-8.0206667"><ele>737.0</ele><time>2026-04-04T16:19:00.824Z</time></trkpt><trkpt lat="41.964665" lon="-8.0208133"><ele>737.0</ele><time>2026-04-04T16:19:02.824Z</time></trkpt><trkpt lat="41.9646967" lon="-8.0208983"><ele>737.0</ele><time>2026-04-04T16:19:03.823Z</time></trkpt><trkpt lat="41.9647383" lon="-8.0210017"><ele>737.0</ele><time>2026-04-04T16:19:04.823Z</time></trkpt><trkpt lat="41.9647767" lon="-8.0211"><ele>737.0</ele><time>2026-04-04T16:19:05.823Z</time></trkpt><trkpt lat="41.9648167" lon="-8.0211917"><ele>737.0</ele><time>2026-04-04T16:19:06.823Z</time></trkpt><trkpt lat="41.96487" lon="-8.021265"><ele>737.4000000000001</ele><time>2026-04-04T16:19:07.824Z</time></trkpt><trkpt lat="41.964925" lon="-8.0213267"><ele>737.8000000000001</ele><time>2026-04-04T16:19:08.824Z</time></trkpt><trkpt lat="41.9649983" lon="-8.02138"><ele>738.2</ele><time>2026-04-04T16:19:09.825Z</time></trkpt><trkpt lat="41.9650883" lon="-8.0214267"><ele>738.6</ele><time>2026-04-04T16:19:10.823Z</time></trkpt><trkpt lat="41.9651917" lon="-8.0214583"><ele>739.0</ele><time>2026-04-04T16:19:11.829Z</time></trkpt><trkpt lat="41.9652883" lon="-8.0214917"><ele>743.0</ele><time>2026-04-04T16:19:12.824Z</time></trkpt><trkpt lat="41.9653867" lon="-8.0215217"><ele>747.0</ele><time>2026-04-04T16:19:13.824Z</time></trkpt><trkpt lat="41.9654683" lon="-8.02154"><ele>751.0</ele><time>2026-04-04T16:19:14.824Z</time></trkpt><trkpt lat="41.9655583" lon="-8.021565"><ele>755.0</ele><time>2026-04-04T16:19:15.824Z</time></trkpt><trkpt lat="41.9656483" lon="-8.0215967"><ele>759.0</ele><time>2026-04-04T16:19:16.824Z</time></trkpt><trkpt lat="41.965755" lon="-8.021635"><ele>759.25</ele><time>2026-04-04T16:19:17.825Z</time></trkpt><trkpt lat="41.9658583" lon="-8.0216767"><ele>759.5</ele><time>2026-04-04T16:19:18.824Z</time></trkpt><trkpt lat="41.96597" lon="-8.0217133"><ele>759.75</ele><time>2026-04-04T16:19:19.824Z</time></trkpt><trkpt lat="41.9660867" lon="-8.021755"><ele>760.0</ele><time>2026-04-04T16:19:20.825Z</time></trkpt><trkpt lat="41.966205" lon="-8.0217933"><ele>760.0</ele><time>2026-04-04T16:19:21.824Z</time></trkpt><trkpt lat="41.9663217" lon="-8.0218267"><ele>760.0</ele><time>2026-04-04T16:19:22.824Z</time></trkpt><trkpt lat="41.96645" lon="-8.02186"><ele>760.0</ele><time>2026-04-04T16:19:23.824Z</time></trkpt><trkpt lat="41.9665783" lon="-8.0219033"><ele>760.0</ele><time>2026-04-04T16:19:24.824Z</time></trkpt><trkpt lat="41.9666967" lon="-8.021945"><ele>761.0</ele><time>2026-04-04T16:19:25.824Z</time></trkpt><trkpt lat="41.966805" lon="-8.0219833"><ele>762.0</ele><time>2026-04-04T16:19:26.825Z</time></trkpt><trkpt lat="41.966905" lon="-8.0219867"><ele>763.0</ele><time>2026-04-04T16:19:27.824Z</time></trkpt><trkpt lat="41.967005" lon="-8.02198"><ele>764.0</ele><time>2026-04-04T16:19:28.824Z</time></trkpt><trkpt lat="41.9671017" lon="-8.0219667"><ele>765.0</ele><time>2026-04-04T16:19:29.825Z</time></trkpt><trkpt lat="41.967185" lon="-8.0219533"><ele>765.0</ele><time>2026-04-04T16:19:30.824Z</time></trkpt><trkpt lat="41.9672517" lon="-8.0219367"><ele>765.0</ele><time>2026-04-04T16:19:31.824Z</time></trkpt><trkpt lat="41.9673267" lon="-8.0219083"><ele>765.0</ele><time>2026-04-04T16:19:32.824Z</time></trkpt><trkpt lat="41.9674" lon="-8.02188"><ele>765.0</ele><time>2026-04-04T16:19:33.824Z</time></trkpt><trkpt lat="41.967465" lon="-8.021865"><ele>765.0</ele><time>2026-04-04T16:19:34.824Z</time></trkpt><trkpt lat="41.967565" lon="-8.0218983"><ele>765.0</ele><time>2026-04-04T16:19:36.825Z</time></trkpt><trkpt lat="41.9676417" lon="-8.02197"><ele>767.25</ele><time>2026-04-04T16:19:38.824Z</time></trkpt><trkpt lat="41.9676467" lon="-8.0221283"><ele>769.5</ele><time>2026-04-04T16:19:40.825Z</time></trkpt><trkpt lat="41.9676167" lon="-8.022225"><ele>771.75</ele><time>2026-04-04T16:19:41.824Z</time></trkpt><trkpt lat="41.9675533" lon="-8.0223283"><ele>774.0</ele><time>2026-04-04T16:19:42.825Z</time></trkpt><trkpt lat="41.96741" lon="-8.0225033"><ele>774.0</ele><time>2026-04-04T16:19:43.824Z</time></trkpt><trkpt lat="41.96728" lon="-8.0226483"><ele>774.0</ele><time>2026-04-04T16:19:44.825Z</time></trkpt><trkpt lat="41.9671767" lon="-8.0227733"><ele>774.0</ele><time>2026-04-04T16:19:45.824Z</time></trkpt><trkpt lat="41.9670867" lon="-8.0228967"><ele>774.0</ele><time>2026-04-04T16:19:46.824Z</time></trkpt><trkpt lat="41.9670183" lon="-8.0230167"><ele>774.0</ele><time>2026-04-04T16:19:47.825Z</time></trkpt><trkpt lat="41.966955" lon="-8.0231267"><ele>774.0</ele><time>2026-04-04T16:19:48.827Z</time></trkpt><trkpt lat="41.9668917" lon="-8.0232167"><ele>774.0</ele><time>2026-04-04T16:19:49.824Z</time></trkpt><trkpt lat="41.96683" lon="-8.0233083"><ele>774.0</ele><time>2026-04-04T16:19:50.825Z</time></trkpt><trkpt lat="41.96675" lon="-8.0233883"><ele>774.0</ele><time>2026-04-04T16:19:51.825Z</time></trkpt><trkpt lat="41.9666567" lon="-8.0234683"><ele>770.0</ele><time>2026-04-04T16:19:52.824Z</time></trkpt><trkpt lat="41.9665783" lon="-8.0235417"><ele>766.0</ele><time>2026-04-04T16:19:53.825Z</time></trkpt><trkpt lat="41.9665117" lon="-8.02362"><ele>762.0</ele><time>2026-04-04T16:19:54.825Z</time></trkpt><trkpt lat="41.966455" lon="-8.0237267"><ele>758.0</ele><time>2026-04-04T16:19:55.824Z</time></trkpt><trkpt lat="41.966415" lon="-8.0238533"><ele>754.0</ele><time>2026-04-04T16:19:56.825Z</time></trkpt><trkpt lat="41.966365" lon="-8.0239733"><ele>754.0</ele><time>2026-04-04T16:19:57.825Z</time></trkpt><trkpt lat="41.9663033" lon="-8.02409"><ele>754.0</ele><time>2026-04-04T16:19:58.824Z</time></trkpt><trkpt lat="41.966245" lon="-8.0242017"><ele>754.0</ele><time>2026-04-04T16:19:59.824Z</time></trkpt><trkpt lat="41.9661767" lon="-8.0243"><ele>754.0</ele><time>2026-04-04T16:20:00.825Z</time></trkpt><trkpt lat="41.9661067" lon="-8.0243917"><ele>754.0</ele><time>2026-04-04T16:20:01.825Z</time></trkpt><trkpt lat="41.9660383" lon="-8.0244867"><ele>756.5</ele><time>2026-04-04T16:20:02.826Z</time></trkpt><trkpt lat="41.96597" lon="-8.024595"><ele>759.0</ele><time>2026-04-04T16:20:03.824Z</time></trkpt><trkpt lat="41.9658917" lon="-8.0247167"><ele>761.5</ele><time>2026-04-04T16:20:04.825Z</time></trkpt><trkpt lat="41.9657933" lon="-8.0248467"><ele>764.0</ele><time>2026-04-04T16:20:05.825Z</time></trkpt><trkpt lat="41.9656967" lon="-8.024975"><ele>760.4000000000001</ele><time>2026-04-04T16:20:06.825Z</time></trkpt><trkpt lat="41.965615" lon="-8.0250867"><ele>756.8</ele><time>2026-04-04T16:20:07.825Z</time></trkpt><trkpt lat="41.9655483" lon="-8.0251883"><ele>753.2</ele><time>2026-04-04T16:20:08.824Z</time></trkpt><trkpt lat="41.9654867" lon="-8.0252833"><ele>749.5999999999999</ele><time>2026-04-04T16:20:09.824Z</time></trkpt><trkpt lat="41.96543" lon="-8.0253733"><ele>746.0</ele><time>2026-04-04T16:20:10.825Z</time></trkpt><trkpt lat="41.96538" lon="-8.025475"><ele>746.0</ele><time>2026-04-04T16:20:11.824Z</time></trkpt><trkpt lat="41.9653367" lon="-8.02557"><ele>746.0</ele><time>2026-04-04T16:20:12.827Z</time></trkpt><trkpt lat="41.9653133" lon="-8.02567"><ele>746.0</ele><time>2026-04-04T16:20:13.824Z</time></trkpt><trkpt lat="41.9653117" lon="-8.0257817"><ele>746.0</ele><time>2026-04-04T16:20:14.825Z</time></trkpt><trkpt lat="41.96532" lon="-8.0258917"><ele>746.0</ele><time>2026-04-04T16:20:15.825Z</time></trkpt><trkpt lat="41.9653517" lon="-8.0260083"><ele>746.0</ele><time>2026-04-04T16:20:16.825Z</time></trkpt><trkpt lat="41.9654283" lon="-8.0261467"><ele>746.0</ele><time>2026-04-04T16:20:17.825Z</time></trkpt><trkpt lat="41.96549" lon="-8.02625"><ele>746.0</ele><time>2026-04-04T16:20:18.826Z</time></trkpt><trkpt lat="41.9655467" lon="-8.0263333"><ele>746.0</ele><time>2026-04-04T16:20:19.825Z</time></trkpt><trkpt lat="41.9655983" lon="-8.026415"><ele>746.0</ele><time>2026-04-04T16:20:20.825Z</time></trkpt><trkpt lat="41.9656767" lon="-8.0265233"><ele>746.0</ele><time>2026-04-04T16:20:22.823Z</time></trkpt><trkpt lat="41.9657233" lon="-8.0265817"><ele>746.0</ele><time>2026-04-04T16:20:25.823Z</time></trkpt><trkpt lat="41.9657833" lon="-8.0266267"><ele>745.4</ele><time>2026-04-04T16:20:28.824Z</time></trkpt><trkpt lat="41.965865" lon="-8.026705"><ele>744.8</ele><time>2026-04-04T16:20:31.823Z</time></trkpt><trkpt lat="41.96594" lon="-8.0267733"><ele>744.1999999999999</ele><time>2026-04-04T16:20:33.823Z</time></trkpt><trkpt lat="41.9660183" lon="-8.0268433"><ele>743.5999999999999</ele><time>2026-04-04T16:20:35.823Z</time></trkpt><trkpt lat="41.9661083" lon="-8.0269467"><ele>743.0</ele><time>2026-04-04T16:20:37.823Z</time></trkpt><trkpt lat="41.96616" lon="-8.0270033"><ele>743.0</ele><time>2026-04-04T16:20:38.823Z</time></trkpt><trkpt lat="41.966215" lon="-8.027065"><ele>743.0</ele><time>2026-04-04T16:20:39.823Z</time></trkpt><trkpt lat="41.966275" lon="-8.0271317"><ele>743.0</ele><time>2026-04-04T16:20:40.824Z</time></trkpt><trkpt lat="41.9664117" lon="-8.02728"><ele>743.0</ele><time>2026-04-04T16:20:42.823Z</time></trkpt><trkpt lat="41.9664867" lon="-8.0273633"><ele>743.0</ele><time>2026-04-04T16:20:43.823Z</time></trkpt><trkpt lat="41.9665683" lon="-8.0274517"><ele>742.0</ele><time>2026-04-04T16:20:44.823Z</time></trkpt><trkpt lat="41.9666517" lon="-8.0275367"><ele>741.0</ele><time>2026-04-04T16:20:45.824Z</time></trkpt><trkpt lat="41.9667367" lon="-8.027625"><ele>740.0</ele><time>2026-04-04T16:20:46.824Z</time></trkpt><trkpt lat="41.96682" lon="-8.0277183"><ele>739.0</ele><time>2026-04-04T16:20:47.823Z</time></trkpt><trkpt lat="41.9668983" lon="-8.0278083"><ele>738.0</ele><time>2026-04-04T16:20:48.824Z</time></trkpt><trkpt lat="41.96698" lon="-8.0279"><ele>740.0</ele><time>2026-04-04T16:20:49.823Z</time></trkpt><trkpt lat="41.96706" lon="-8.02799"><ele>742.0</ele><time>2026-04-04T16:20:50.824Z</time></trkpt><trkpt lat="41.9671317" lon="-8.0280733"><ele>744.0</ele><time>2026-04-04T16:20:51.824Z</time></trkpt><trkpt lat="41.9671917" lon="-8.0281433"><ele>746.0</ele><time>2026-04-04T16:20:52.823Z</time></trkpt><trkpt lat="41.967245" lon="-8.0282033"><ele>748.0</ele><time>2026-04-04T16:20:53.824Z</time></trkpt><trkpt lat="41.9673383" lon="-8.02827"><ele>748.0</ele><time>2026-04-04T16:20:55.824Z</time></trkpt><trkpt lat="41.967435" lon="-8.02825"><ele>748.0</ele><time>2026-04-04T16:20:57.823Z</time></trkpt><trkpt lat="41.9675583" lon="-8.028185"><ele>748.0</ele><time>2026-04-04T16:20:59.824Z</time></trkpt><trkpt lat="41.96764" lon="-8.0281433"><ele>748.0</ele><time>2026-04-04T16:21:00.824Z</time></trkpt><trkpt lat="41.967735" lon="-8.028105"><ele>748.0</ele><time>2026-04-04T16:21:01.823Z</time></trkpt><trkpt lat="41.9678383" lon="-8.0280717"><ele>749.0</ele><time>2026-04-04T16:21:02.823Z</time></trkpt><trkpt lat="41.967945" lon="-8.0280383"><ele>750.0</ele><time>2026-04-04T16:21:03.823Z</time></trkpt><trkpt lat="41.96805" lon="-8.028005"><ele>751.0</ele><time>2026-04-04T16:21:04.823Z</time></trkpt><trkpt lat="41.9681533" lon="-8.0279533"><ele>752.0</ele><time>2026-04-04T16:21:05.824Z</time></trkpt><trkpt lat="41.968255" lon="-8.0278883"><ele>753.0</ele><time>2026-04-04T16:21:06.823Z</time></trkpt><trkpt lat="41.96835" lon="-8.0278133"><ele>754.25</ele><time>2026-04-04T16:21:07.823Z</time></trkpt><trkpt lat="41.96843" lon="-8.02771"><ele>755.5</ele><time>2026-04-04T16:21:08.823Z</time></trkpt><trkpt lat="41.9685083" lon="-8.0276017"><ele>756.75</ele><time>2026-04-04T16:21:09.823Z</time></trkpt><trkpt lat="41.9685867" lon="-8.0274883"><ele>758.0</ele><time>2026-04-04T16:21:10.823Z</time></trkpt><trkpt lat="41.9686667" lon="-8.02738"><ele>762.0</ele><time>2026-04-04T16:21:11.823Z</time></trkpt><trkpt lat="41.9687533" lon="-8.0272817"><ele>766.0</ele><time>2026-04-04T16:21:12.824Z</time></trkpt><trkpt lat="41.9688533" lon="-8.02721"><ele>770.0</ele><time>2026-04-04T16:21:13.823Z</time></trkpt><trkpt lat="41.9689583" lon="-8.0271667"><ele>774.0</ele><time>2026-04-04T16:21:14.824Z</time></trkpt><trkpt lat="41.9690733" lon="-8.027165"><ele>774.0</ele><time>2026-04-04T16:21:15.824Z</time></trkpt><trkpt lat="41.9691917" lon="-8.0272017"><ele>774.0</ele><time>2026-04-04T16:21:16.823Z</time></trkpt><trkpt lat="41.9693183" lon="-8.02725"><ele>774.0</ele><time>2026-04-04T16:21:17.825Z</time></trkpt><trkpt lat="41.96944" lon="-8.0272883"><ele>774.0</ele><time>2026-04-04T16:21:18.823Z</time></trkpt><trkpt lat="41.9695633" lon="-8.0272983"><ele>776.0</ele><time>2026-04-04T16:21:19.823Z</time></trkpt><trkpt lat="41.9696867" lon="-8.027285"><ele>778.0</ele><time>2026-04-04T16:21:20.823Z</time></trkpt><trkpt lat="41.9698133" lon="-8.0272633"><ele>780.0</ele><time>2026-04-04T16:21:21.823Z</time></trkpt><trkpt lat="41.9699333" lon="-8.0272533"><ele>782.0</ele><time>2026-04-04T16:21:22.823Z</time></trkpt><trkpt lat="41.97005" lon="-8.0272717"><ele>780.5</ele><time>2026-04-04T16:21:23.823Z</time></trkpt><trkpt lat="41.9701583" lon="-8.027325"><ele>779.0</ele><time>2026-04-04T16:21:24.823Z</time></trkpt><trkpt lat="41.9702633" lon="-8.0274"><ele>777.5</ele><time>2026-04-04T16:21:25.823Z</time></trkpt><trkpt lat="41.9703717" lon="-8.027475"><ele>776.0</ele><time>2026-04-04T16:21:26.823Z</time></trkpt><trkpt lat="41.9704817" lon="-8.02754"><ele>776.0</ele><time>2026-04-04T16:21:27.823Z</time></trkpt><trkpt lat="41.9705933" lon="-8.027585"><ele>776.0</ele><time>2026-04-04T16:21:28.824Z</time></trkpt><trkpt lat="41.970695" lon="-8.027605"><ele>776.0</ele><time>2026-04-04T16:21:29.823Z</time></trkpt><trkpt lat="41.970795" lon="-8.027605"><ele>776.0</ele><time>2026-04-04T16:21:30.824Z</time></trkpt><trkpt lat="41.9709" lon="-8.02759"><ele>776.0</ele><time>2026-04-04T16:21:31.824Z</time></trkpt><trkpt lat="41.97101" lon="-8.0275683"><ele>776.1999999999999</ele><time>2026-04-04T16:21:32.823Z</time></trkpt><trkpt lat="41.9711183" lon="-8.027545"><ele>776.4</ele><time>2026-04-04T16:21:33.823Z</time></trkpt><trkpt lat="41.97123" lon="-8.0275217"><ele>776.6</ele><time>2026-04-04T16:21:34.824Z</time></trkpt><trkpt lat="41.971345" lon="-8.02749"><ele>776.8</ele><time>2026-04-04T16:21:35.824Z</time></trkpt><trkpt lat="41.9714433" lon="-8.0274583"><ele>777.0</ele><time>2026-04-04T16:21:36.823Z</time></trkpt><trkpt lat="41.9715383" lon="-8.0274183"><ele>780.0</ele><time>2026-04-04T16:21:37.825Z</time></trkpt><trkpt lat="41.9716317" lon="-8.027375"><ele>783.0</ele><time>2026-04-04T16:21:38.823Z</time></trkpt><trkpt lat="41.9717267" lon="-8.0273233"><ele>786.0</ele><time>2026-04-04T16:21:39.823Z</time></trkpt><trkpt lat="41.9718283" lon="-8.0272617"><ele>789.0</ele><time>2026-04-04T16:21:40.823Z</time></trkpt><trkpt lat="41.97193" lon="-8.02721"><ele>792.0</ele><time>2026-04-04T16:21:41.823Z</time></trkpt><trkpt lat="41.9720367" lon="-8.0271667"><ele>792.0</ele><time>2026-04-04T16:21:42.824Z</time></trkpt><trkpt lat="41.9721467" lon="-8.0271333"><ele>792.0</ele><time>2026-04-04T16:21:43.825Z</time></trkpt><trkpt lat="41.9722583" lon="-8.0271083"><ele>792.0</ele><time>2026-04-04T16:21:44.825Z</time></trkpt><trkpt lat="41.9723633" lon="-8.0270833"><ele>792.0</ele><time>2026-04-04T16:21:45.823Z</time></trkpt><trkpt lat="41.9724667" lon="-8.0270567"><ele>792.0</ele><time>2026-04-04T16:21:46.824Z</time></trkpt><trkpt lat="41.9725683" lon="-8.0270283"><ele>791.8</ele><time>2026-04-04T16:21:47.824Z</time></trkpt><trkpt lat="41.97267" lon="-8.027"><ele>791.6</ele><time>2026-04-04T16:21:48.823Z</time></trkpt><trkpt lat="41.9727667" lon="-8.0269717"><ele>791.4</ele><time>2026-04-04T16:21:49.824Z</time></trkpt><trkpt lat="41.9728633" lon="-8.0269383"><ele>791.1999999999999</ele><time>2026-04-04T16:21:50.823Z</time></trkpt><trkpt lat="41.9729583" lon="-8.0269033"><ele>791.0</ele><time>2026-04-04T16:21:51.823Z</time></trkpt><trkpt lat="41.9730483" lon="-8.0268717"><ele>791.0000000000001</ele><time>2026-04-04T16:21:52.823Z</time></trkpt><trkpt lat="41.9731333" lon="-8.0268367"><ele>791.0</ele><time>2026-04-04T16:21:53.823Z</time></trkpt><trkpt lat="41.97322" lon="-8.0267967"><ele>791.0</ele><time>2026-04-04T16:21:54.824Z</time></trkpt><trkpt lat="41.9733017" lon="-8.02674"><ele>791.0</ele><time>2026-04-04T16:21:55.823Z</time></trkpt><trkpt lat="41.9733683" lon="-8.0266733"><ele>791.0000000000001</ele><time>2026-04-04T16:21:56.824Z</time></trkpt><trkpt lat="41.97344" lon="-8.0266033"><ele>791.0</ele><time>2026-04-04T16:21:57.823Z</time></trkpt><trkpt lat="41.9735033" lon="-8.0265267"><ele>790.8333333333334</ele><time>2026-04-04T16:21:58.824Z</time></trkpt><trkpt lat="41.9735617" lon="-8.0264417"><ele>790.6666666666667</ele><time>2026-04-04T16:21:59.823Z</time></trkpt><trkpt lat="41.9736217" lon="-8.0263567"><ele>790.5</ele><time>2026-04-04T16:22:00.823Z</time></trkpt><trkpt lat="41.9736867" lon="-8.02628"><ele>790.3333333333333</ele><time>2026-04-04T16:22:01.824Z</time></trkpt><trkpt lat="41.9737517" lon="-8.026215"><ele>790.1666666666666</ele><time>2026-04-04T16:22:02.824Z</time></trkpt><trkpt lat="41.9738167" lon="-8.0261467"><ele>790.0</ele><time>2026-04-04T16:22:03.823Z</time></trkpt><trkpt lat="41.9738983" lon="-8.0260717"><ele>789.9999999999999</ele><time>2026-04-04T16:22:04.824Z</time></trkpt><trkpt lat="41.9739767" lon="-8.0259967"><ele>790.0</ele><time>2026-04-04T16:22:05.823Z</time></trkpt><trkpt lat="41.9740467" lon="-8.0259333"><ele>790.0</ele><time>2026-04-04T16:22:06.825Z</time></trkpt><trkpt lat="41.97411" lon="-8.02588"><ele>790.0</ele><time>2026-04-04T16:22:07.823Z</time></trkpt><trkpt lat="41.974175" lon="-8.0258183"><ele>789.9999999999999</ele><time>2026-04-04T16:22:09.823Z</time></trkpt><trkpt lat="41.9741117" lon="-8.0259417"><ele>790.0</ele><time>2026-04-04T16:22:14.823Z</time></trkpt><trkpt lat="41.9739767" lon="-8.026035"><ele>790.0</ele><time>2026-04-04T16:22:16.824Z</time></trkpt><trkpt lat="41.97388" lon="-8.0261167"><ele>790.0</ele><time>2026-04-04T16:22:17.823Z</time></trkpt><trkpt lat="41.9737817" lon="-8.02621"><ele>790.0</ele><time>2026-04-04T16:22:18.824Z</time></trkpt><trkpt lat="41.9736817" lon="-8.0263167"><ele>790.0</ele><time>2026-04-04T16:22:19.824Z</time></trkpt><trkpt lat="41.97355" lon="-8.0264383"><ele>790.0</ele><time>2026-04-04T16:22:20.823Z</time></trkpt><trkpt lat="41.9734617" lon="-8.02655"><ele>790.0</ele><time>2026-04-04T16:22:21.824Z</time></trkpt><trkpt lat="41.9733733" lon="-8.0266533"><ele>790.0</ele><time>2026-04-04T16:22:22.823Z</time></trkpt><trkpt lat="41.973285" lon="-8.02675"><ele>790.0</ele><time>2026-04-04T16:22:23.823Z</time></trkpt><trkpt lat="41.973195" lon="-8.0268217"><ele>790.1666666666666</ele><time>2026-04-04T16:22:24.824Z</time></trkpt><trkpt lat="41.97311" lon="-8.026875"><ele>790.3333333333333</ele><time>2026-04-04T16:22:25.824Z</time></trkpt><trkpt lat="41.9730283" lon="-8.0269117"><ele>790.5</ele><time>2026-04-04T16:22:26.823Z</time></trkpt><trkpt lat="41.972955" lon="-8.02694"><ele>790.6666666666667</ele><time>2026-04-04T16:22:27.823Z</time></trkpt><trkpt lat="41.9728883" lon="-8.026965"><ele>790.8333333333334</ele><time>2026-04-04T16:22:28.823Z</time></trkpt><trkpt lat="41.972825" lon="-8.0269833"><ele>791.0</ele><time>2026-04-04T16:22:29.825Z</time></trkpt><trkpt lat="41.97272" lon="-8.027005"><ele>791.0000000000001</ele><time>2026-04-04T16:22:31.823Z</time></trkpt><trkpt lat="41.97263" lon="-8.0270283"><ele>791.0</ele><time>2026-04-04T16:22:33.824Z</time></trkpt><trkpt lat="41.9725367" lon="-8.0270567"><ele>791.0</ele><time>2026-04-04T16:22:35.824Z</time></trkpt><trkpt lat="41.972455" lon="-8.02708"><ele>791.0</ele><time>2026-04-04T16:22:37.824Z</time></trkpt><trkpt lat="41.9723817" lon="-8.02711"><ele>791.0000000000001</ele><time>2026-04-04T16:22:40.825Z</time></trkpt><trkpt lat="41.9724317" lon="-8.0270483"><ele>791.0</ele><time>2026-04-04T16:22:46.823Z</time></trkpt><trkpt lat="41.9725633" lon="-8.0270167"><ele>791.0</ele><time>2026-04-04T16:22:48.823Z</time></trkpt><trkpt lat="41.9726467" lon="-8.0269883"><ele>791.0</ele><time>2026-04-04T16:22:49.823Z</time></trkpt><trkpt lat="41.9727367" lon="-8.0269517"><ele>791.0</ele><time>2026-04-04T16:22:50.823Z</time></trkpt><trkpt lat="41.9728383" lon="-8.0269117"><ele>791.0</ele><time>2026-04-04T16:22:51.823Z</time></trkpt><trkpt lat="41.9729467" lon="-8.0268733"><ele>791.0</ele><time>2026-04-04T16:22:52.823Z</time></trkpt><trkpt lat="41.9730517" lon="-8.02683"><ele>791.0</ele><time>2026-04-04T16:22:53.823Z</time></trkpt><trkpt lat="41.9731583" lon="-8.0267717"><ele>791.0</ele><time>2026-04-04T16:22:54.823Z</time></trkpt><trkpt lat="41.973265" lon="-8.0266883"><ele>791.0</ele><time>2026-04-04T16:22:55.823Z</time></trkpt><trkpt lat="41.9733667" lon="-8.0265883"><ele>791.0</ele><time>2026-04-04T16:22:56.824Z</time></trkpt><trkpt lat="41.973465" lon="-8.0264733"><ele>790.75</ele><time>2026-04-04T16:22:57.824Z</time></trkpt><trkpt lat="41.97356" lon="-8.026355"><ele>790.5</ele><time>2026-04-04T16:22:58.824Z</time></trkpt><trkpt lat="41.9736633" lon="-8.0262467"><ele>790.25</ele><time>2026-04-04T16:22:59.823Z</time></trkpt><trkpt lat="41.9737767" lon="-8.0261433"><ele>790.0</ele><time>2026-04-04T16:23:00.823Z</time></trkpt><trkpt lat="41.973895" lon="-8.0260417"><ele>790.0</ele><time>2026-04-04T16:23:01.823Z</time></trkpt><trkpt lat="41.9740117" lon="-8.0259467"><ele>790.0</ele><time>2026-04-04T16:23:02.824Z</time></trkpt><trkpt lat="41.9741233" lon="-8.0258567"><ele>790.0</ele><time>2026-04-04T16:23:03.823Z</time></trkpt><trkpt lat="41.9742283" lon="-8.0257883"><ele>790.0</ele><time>2026-04-04T16:23:04.823Z</time></trkpt><trkpt lat="41.9743333" lon="-8.025745"><ele>791.0</ele><time>2026-04-04T16:23:05.823Z</time></trkpt><trkpt lat="41.9744483" lon="-8.0257333"><ele>792.0</ele><time>2026-04-04T16:23:06.824Z</time></trkpt><trkpt lat="41.9745683" lon="-8.0257467"><ele>793.0</ele><time>2026-04-04T16:23:07.823Z</time></trkpt><trkpt lat="41.9746733" lon="-8.0257933"><ele>794.0</ele><time>2026-04-04T16:23:08.825Z</time></trkpt><trkpt lat="41.9747783" lon="-8.0258883"><ele>794.0</ele><time>2026-04-04T16:23:09.823Z</time></trkpt><trkpt lat="41.9748767" lon="-8.026"><ele>794.0</ele><time>2026-04-04T16:23:10.823Z</time></trkpt><trkpt lat="41.97497" lon="-8.0261167"><ele>794.0</ele><time>2026-04-04T16:23:11.825Z</time></trkpt><trkpt lat="41.9750583" lon="-8.026225"><ele>794.0</ele><time>2026-04-04T16:23:12.824Z</time></trkpt><trkpt lat="41.975145" lon="-8.02633"><ele>798.1666666666667</ele><time>2026-04-04T16:23:13.823Z</time></trkpt><trkpt lat="41.975215" lon="-8.0264133"><ele>802.3333333333334</ele><time>2026-04-04T16:23:14.823Z</time></trkpt><trkpt lat="41.97527" lon="-8.0264983"><ele>806.5</ele><time>2026-04-04T16:23:15.825Z</time></trkpt><trkpt lat="41.9753067" lon="-8.0265783"><ele>810.6666666666667</ele><time>2026-04-04T16:23:16.823Z</time></trkpt><trkpt lat="41.97533" lon="-8.0266667"><ele>814.8333333333334</ele><time>2026-04-04T16:23:17.823Z</time></trkpt><trkpt lat="41.97535" lon="-8.0267733"><ele>819.0</ele><time>2026-04-04T16:23:18.823Z</time></trkpt><trkpt lat="41.97536" lon="-8.02689"><ele>819.0</ele><time>2026-04-04T16:23:19.823Z</time></trkpt><trkpt lat="41.9753533" lon="-8.0270217"><ele>819.0</ele><time>2026-04-04T16:23:20.825Z</time></trkpt><trkpt lat="41.97533" lon="-8.0271717"><ele>819.0</ele><time>2026-04-04T16:23:21.825Z</time></trkpt><trkpt lat="41.975315" lon="-8.0273233"><ele>819.0</ele><time>2026-04-04T16:23:22.825Z</time></trkpt><trkpt lat="41.9753017" lon="-8.0274733"><ele>819.0</ele><time>2026-04-04T16:23:23.825Z</time></trkpt><trkpt lat="41.9752967" lon="-8.0276017"><ele>819.0</ele><time>2026-04-04T16:23:24.825Z</time></trkpt><trkpt lat="41.9752983" lon="-8.0277183"><ele>819.0</ele><time>2026-04-04T16:23:25.824Z</time></trkpt><trkpt lat="41.97532" lon="-8.0278267"><ele>819.0</ele><time>2026-04-04T16:23:26.826Z</time></trkpt><trkpt lat="41.9753567" lon="-8.02792"><ele>819.0</ele><time>2026-04-04T16:23:27.824Z</time></trkpt><trkpt lat="41.97542" lon="-8.028005"><ele>819.0</ele><time>2026-04-04T16:23:28.828Z</time></trkpt><trkpt lat="41.9755033" lon="-8.028085"><ele>819.0</ele><time>2026-04-04T16:23:29.824Z</time></trkpt><trkpt lat="41.9756133" lon="-8.0281667"><ele>819.0</ele><time>2026-04-04T16:23:30.825Z</time></trkpt><trkpt lat="41.97572" lon="-8.0282567"><ele>819.0</ele><time>2026-04-04T16:23:31.825Z</time></trkpt><trkpt lat="41.9758167" lon="-8.0283733"><ele>819.0</ele><time>2026-04-04T16:23:32.826Z</time></trkpt><trkpt lat="41.9758983" lon="-8.0285033"><ele>819.0</ele><time>2026-04-04T16:23:33.824Z</time></trkpt><trkpt lat="41.9759583" lon="-8.0286183"><ele>819.5</ele><time>2026-04-04T16:23:34.825Z</time></trkpt><trkpt lat="41.9760067" lon="-8.0287117"><ele>820.0</ele><time>2026-04-04T16:23:35.826Z</time></trkpt><trkpt lat="41.9760433" lon="-8.0287867"><ele>820.5</ele><time>2026-04-04T16:23:36.824Z</time></trkpt><trkpt lat="41.9760867" lon="-8.0288567"><ele>821.0</ele><time>2026-04-04T16:23:37.825Z</time></trkpt><trkpt lat="41.9761417" lon="-8.0289183"><ele>821.5</ele><time>2026-04-04T16:23:38.825Z</time></trkpt><trkpt lat="41.97621" lon="-8.0289733"><ele>822.0</ele><time>2026-04-04T16:23:39.823Z</time></trkpt><trkpt lat="41.9762917" lon="-8.0290167"><ele>822.0</ele><time>2026-04-04T16:23:40.823Z</time></trkpt><trkpt lat="41.9763933" lon="-8.0290417"><ele>822.0</ele><time>2026-04-04T16:23:41.824Z</time></trkpt><trkpt lat="41.9765217" lon="-8.0290333"><ele>822.0</ele><time>2026-04-04T16:23:42.824Z</time></trkpt><trkpt lat="41.9766467" lon="-8.0290267"><ele>822.0</ele><time>2026-04-04T16:23:43.823Z</time></trkpt><trkpt lat="41.97678" lon="-8.0290183"><ele>823.0</ele><time>2026-04-04T16:23:44.824Z</time></trkpt><trkpt lat="41.9769167" lon="-8.0289967"><ele>824.0</ele><time>2026-04-04T16:23:45.823Z</time></trkpt><trkpt lat="41.9770567" lon="-8.02897"><ele>825.0</ele><time>2026-04-04T16:23:46.824Z</time></trkpt><trkpt lat="41.9771883" lon="-8.028945"><ele>826.0</ele><time>2026-04-04T16:23:47.824Z</time></trkpt><trkpt lat="41.977305" lon="-8.0289183"><ele>825.9999999999999</ele><time>2026-04-04T16:23:48.823Z</time></trkpt><trkpt lat="41.9774067" lon="-8.0288917"><ele>826.0</ele><time>2026-04-04T16:23:49.823Z</time></trkpt><trkpt lat="41.9774967" lon="-8.02886"><ele>826.0</ele><time>2026-04-04T16:23:50.825Z</time></trkpt><trkpt lat="41.9775767" lon="-8.02883"><ele>826.0</ele><time>2026-04-04T16:23:51.825Z</time></trkpt><trkpt lat="41.9776383" lon="-8.028805"><ele>825.9999999999999</ele><time>2026-04-04T16:23:52.824Z</time></trkpt><trkpt lat="41.977735" lon="-8.028755"><ele>826.0</ele><time>2026-04-04T16:23:54.822Z</time></trkpt><trkpt lat="41.977825" lon="-8.0287"><ele>826.1666666666666</ele><time>2026-04-04T16:23:56.823Z</time></trkpt><trkpt lat="41.977905" lon="-8.0286267"><ele>826.3333333333333</ele><time>2026-04-04T16:23:58.822Z</time></trkpt><trkpt lat="41.9779767" lon="-8.028555"><ele>826.5</ele><time>2026-04-04T16:24:00.822Z</time></trkpt><trkpt lat="41.9780367" lon="-8.0284917"><ele>826.6666666666667</ele><time>2026-04-04T16:24:02.823Z</time></trkpt><trkpt lat="41.9780933" lon="-8.02842"><ele>826.8333333333334</ele><time>2026-04-04T16:24:04.822Z</time></trkpt><trkpt lat="41.9781567" lon="-8.0283417"><ele>827.0</ele><time>2026-04-04T16:24:06.823Z</time></trkpt><trkpt lat="41.9782183" lon="-8.0282433"><ele>827.0000000000001</ele><time>2026-04-04T16:24:08.823Z</time></trkpt><trkpt lat="41.9782833" lon="-8.0281567"><ele>827.0</ele><time>2026-04-04T16:24:10.823Z</time></trkpt><trkpt lat="41.9783467" lon="-8.0280467"><ele>827.0</ele><time>2026-04-04T16:24:12.824Z</time></trkpt><trkpt lat="41.9784033" lon="-8.0279533"><ele>827.0</ele><time>2026-04-04T16:24:14.822Z</time></trkpt><trkpt lat="41.9784417" lon="-8.0278683"><ele>827.0000000000001</ele><time>2026-04-04T16:24:16.822Z</time></trkpt><trkpt lat="41.9784617" lon="-8.02778"><ele>827.0</ele><time>2026-04-04T16:24:18.823Z</time></trkpt><trkpt lat="41.97848" lon="-8.0276567"><ele>826.5000000000001</ele><time>2026-04-04T16:24:20.823Z</time></trkpt><trkpt lat="41.9785117" lon="-8.0275117"><ele>826.0</ele><time>2026-04-04T16:24:22.822Z</time></trkpt><trkpt lat="41.978545" lon="-8.027435"><ele>825.5</ele><time>2026-04-04T16:24:23.823Z</time></trkpt><trkpt lat="41.978585" lon="-8.0273683"><ele>825.0</ele><time>2026-04-04T16:24:24.823Z</time></trkpt><trkpt lat="41.9786383" lon="-8.0273183"><ele>824.5000000000001</ele><time>2026-04-04T16:24:25.823Z</time></trkpt><trkpt lat="41.9787" lon="-8.0272783"><ele>824.0</ele><time>2026-04-04T16:24:26.824Z</time></trkpt><trkpt lat="41.9787717" lon="-8.027245"><ele>824.0000000000001</ele><time>2026-04-04T16:24:27.823Z</time></trkpt><trkpt lat="41.9788467" lon="-8.0272117"><ele>824.0</ele><time>2026-04-04T16:24:28.823Z</time></trkpt><trkpt lat="41.97892" lon="-8.0271783"><ele>824.0</ele><time>2026-04-04T16:24:29.823Z</time></trkpt><trkpt lat="41.9789883" lon="-8.0271433"><ele>824.0</ele><time>2026-04-04T16:24:30.822Z</time></trkpt><trkpt lat="41.97905" lon="-8.0271117"><ele>824.0000000000001</ele><time>2026-04-04T16:24:31.823Z</time></trkpt><trkpt lat="41.9791667" lon="-8.0270467"><ele>824.0</ele><time>2026-04-04T16:24:33.822Z</time></trkpt><trkpt lat="41.9792733" lon="-8.0269683"><ele>824.4000000000001</ele><time>2026-04-04T16:24:35.823Z</time></trkpt><trkpt lat="41.9793667" lon="-8.0268933"><ele>824.8</ele><time>2026-04-04T16:24:37.822Z</time></trkpt><trkpt lat="41.9794783" lon="-8.0268583"><ele>825.2</ele><time>2026-04-04T16:24:39.822Z</time></trkpt><trkpt lat="41.9795467" lon="-8.0268583"><ele>825.5999999999999</ele><time>2026-04-04T16:24:40.823Z</time></trkpt><trkpt lat="41.979625" lon="-8.026895"><ele>826.0</ele><time>2026-04-04T16:24:41.823Z</time></trkpt><trkpt lat="41.9797167" lon="-8.026945"><ele>826.0</ele><time>2026-04-04T16:24:42.824Z</time></trkpt><trkpt lat="41.9798183" lon="-8.0269983"><ele>826.0</ele><time>2026-04-04T16:24:43.827Z</time></trkpt><trkpt lat="41.979925" lon="-8.0270683"><ele>826.0</ele><time>2026-04-04T16:24:44.823Z</time></trkpt><trkpt lat="41.980035" lon="-8.0271233"><ele>826.0</ele><time>2026-04-04T16:24:45.824Z</time></trkpt><trkpt lat="41.98017" lon="-8.027185"><ele>826.25</ele><time>2026-04-04T16:24:46.822Z</time></trkpt><trkpt lat="41.9803067" lon="-8.0272383"><ele>826.5</ele><time>2026-04-04T16:24:47.823Z</time></trkpt><trkpt lat="41.98044" lon="-8.0272733"><ele>826.75</ele><time>2026-04-04T16:24:48.823Z</time></trkpt><trkpt lat="41.980575" lon="-8.0272933"><ele>827.0</ele><time>2026-04-04T16:24:49.824Z</time></trkpt><trkpt lat="41.9807017" lon="-8.0272817"><ele>827.0</ele><time>2026-04-04T16:24:50.823Z</time></trkpt><trkpt lat="41.9808183" lon="-8.0272433"><ele>827.0</ele><time>2026-04-04T16:24:51.822Z</time></trkpt><trkpt lat="41.9809333" lon="-8.0271717"><ele>827.0</ele><time>2026-04-04T16:24:52.823Z</time></trkpt><trkpt lat="41.9810417" lon="-8.027085"><ele>827.0</ele><time>2026-04-04T16:24:53.822Z</time></trkpt><trkpt lat="41.9811333" lon="-8.0269817"><ele>826.0</ele><time>2026-04-04T16:24:54.826Z</time></trkpt><trkpt lat="41.981205" lon="-8.0268667"><ele>825.0</ele><time>2026-04-04T16:24:55.823Z</time></trkpt><trkpt lat="41.9812683" lon="-8.0267367"><ele>824.0</ele><time>2026-04-04T16:24:56.823Z</time></trkpt><trkpt lat="41.98132" lon="-8.0266133"><ele>823.0</ele><time>2026-04-04T16:24:57.822Z</time></trkpt><trkpt lat="41.9813833" lon="-8.026515"><ele>822.0</ele><time>2026-04-04T16:24:58.823Z</time></trkpt><trkpt lat="41.9814467" lon="-8.0264583"><ele>824.2</ele><time>2026-04-04T16:24:59.823Z</time></trkpt><trkpt lat="41.981515" lon="-8.0264217"><ele>826.4000000000001</ele><time>2026-04-04T16:25:00.823Z</time></trkpt><trkpt lat="41.9815967" lon="-8.026405"><ele>828.5999999999999</ele><time>2026-04-04T16:25:01.823Z</time></trkpt><trkpt lat="41.9816883" lon="-8.0263967"><ele>830.8</ele><time>2026-04-04T16:25:02.823Z</time></trkpt><trkpt lat="41.9818067" lon="-8.0263817"><ele>833.0</ele><time>2026-04-04T16:25:03.823Z</time></trkpt><trkpt lat="41.981925" lon="-8.026365"><ele>833.0</ele><time>2026-04-04T16:25:04.822Z</time></trkpt><trkpt lat="41.9820467" lon="-8.02633"><ele>833.0</ele><time>2026-04-04T16:25:05.822Z</time></trkpt><trkpt lat="41.9821683" lon="-8.02627"><ele>833.0</ele><time>2026-04-04T16:25:06.823Z</time></trkpt><trkpt lat="41.982285" lon="-8.026175"><ele>833.0</ele><time>2026-04-04T16:25:07.823Z</time></trkpt><trkpt lat="41.9823917" lon="-8.0260517"><ele>833.0</ele><time>2026-04-04T16:25:08.823Z</time></trkpt><trkpt lat="41.98249" lon="-8.0259183"><ele>833.0</ele><time>2026-04-04T16:25:09.822Z</time></trkpt><trkpt lat="41.9825933" lon="-8.02577"><ele>833.0</ele><time>2026-04-04T16:25:10.822Z</time></trkpt><trkpt lat="41.98269" lon="-8.0256267"><ele>833.0</ele><time>2026-04-04T16:25:11.824Z</time></trkpt><trkpt lat="41.9827783" lon="-8.025485"><ele>834.25</ele><time>2026-04-04T16:25:12.824Z</time></trkpt><trkpt lat="41.982855" lon="-8.02536"><ele>835.5</ele><time>2026-04-04T16:25:13.823Z</time></trkpt><trkpt lat="41.982935" lon="-8.0252567"><ele>836.75</ele><time>2026-04-04T16:25:14.824Z</time></trkpt><trkpt lat="41.9830383" lon="-8.0251917"><ele>838.0</ele><time>2026-04-04T16:25:15.829Z</time></trkpt><trkpt lat="41.983155" lon="-8.025145"><ele>838.0</ele><time>2026-04-04T16:25:16.827Z</time></trkpt><trkpt lat="41.9832633" lon="-8.0251"><ele>838.0</ele><time>2026-04-04T16:25:17.823Z</time></trkpt><trkpt lat="41.9833667" lon="-8.02505"><ele>838.0</ele><time>2026-04-04T16:25:18.824Z</time></trkpt><trkpt lat="41.983445" lon="-8.0250367"><ele>838.0</ele><time>2026-04-04T16:25:19.822Z</time></trkpt><trkpt lat="41.98353" lon="-8.025045"><ele>838.0</ele><time>2026-04-04T16:25:20.823Z</time></trkpt><trkpt lat="41.9836117" lon="-8.02509"><ele>838.4</ele><time>2026-04-04T16:25:21.823Z</time></trkpt><trkpt lat="41.98368" lon="-8.02517"><ele>838.8</ele><time>2026-04-04T16:25:22.823Z</time></trkpt><trkpt lat="41.9837583" lon="-8.0252617"><ele>839.2</ele><time>2026-04-04T16:25:23.824Z</time></trkpt><trkpt lat="41.9838383" lon="-8.0253367"><ele>839.6</ele><time>2026-04-04T16:25:24.824Z</time></trkpt><trkpt lat="41.98392" lon="-8.0253983"><ele>840.0</ele><time>2026-04-04T16:25:25.823Z</time></trkpt><trkpt lat="41.98401" lon="-8.025425"><ele>840.0</ele><time>2026-04-04T16:25:26.823Z</time></trkpt><trkpt lat="41.9841033" lon="-8.0254183"><ele>840.0</ele><time>2026-04-04T16:25:27.823Z</time></trkpt><trkpt lat="41.9842267" lon="-8.0253533"><ele>840.0</ele><time>2026-04-04T16:25:28.824Z</time></trkpt><trkpt lat="41.9843633" lon="-8.0252417"><ele>840.0</ele><time>2026-04-04T16:25:29.823Z</time></trkpt><trkpt lat="41.98451" lon="-8.0251333"><ele>839.3333333333333</ele><time>2026-04-04T16:25:30.824Z</time></trkpt><trkpt lat="41.984655" lon="-8.0250167"><ele>838.6666666666666</ele><time>2026-04-04T16:25:31.823Z</time></trkpt><trkpt lat="41.98479" lon="-8.0249133"><ele>838.0</ele><time>2026-04-04T16:25:32.823Z</time></trkpt><trkpt lat="41.9849067" lon="-8.0248117"><ele>840.0</ele><time>2026-04-04T16:25:33.823Z</time></trkpt><trkpt lat="41.9850133" lon="-8.024725"><ele>842.0</ele><time>2026-04-04T16:25:34.824Z</time></trkpt><trkpt lat="41.985085" lon="-8.02468"><ele>844.0</ele><time>2026-04-04T16:25:35.823Z</time></trkpt><trkpt lat="41.9851683" lon="-8.0246617"><ele>846.0</ele><time>2026-04-04T16:25:36.825Z</time></trkpt><trkpt lat="41.9852633" lon="-8.0246717"><ele>848.0</ele><time>2026-04-04T16:25:37.823Z</time></trkpt><trkpt lat="41.9853633" lon="-8.0247033"><ele>848.0</ele><time>2026-04-04T16:25:38.823Z</time></trkpt><trkpt lat="41.9854733" lon="-8.0247367"><ele>848.0</ele><time>2026-04-04T16:25:39.823Z</time></trkpt><trkpt lat="41.9855633" lon="-8.0247517"><ele>848.0</ele><time>2026-04-04T16:25:40.823Z</time></trkpt><trkpt lat="41.9856417" lon="-8.0247667"><ele>848.0</ele><time>2026-04-04T16:25:41.824Z</time></trkpt><trkpt lat="41.985745" lon="-8.0247683"><ele>848.0</ele><time>2026-04-04T16:25:43.824Z</time></trkpt><trkpt lat="41.98581" lon="-8.02474"><ele>847.3333333333334</ele><time>2026-04-04T16:25:45.823Z</time></trkpt><trkpt lat="41.98588" lon="-8.0246983"><ele>846.6666666666667</ele><time>2026-04-04T16:25:47.823Z</time></trkpt><trkpt lat="41.9859917" lon="-8.02463"><ele>846.0</ele><time>2026-04-04T16:25:49.824Z</time></trkpt><trkpt lat="41.9860633" lon="-8.0245883"><ele>845.3333333333333</ele><time>2026-04-04T16:25:50.824Z</time></trkpt><trkpt lat="41.98614" lon="-8.0245467"><ele>844.6666666666666</ele><time>2026-04-04T16:25:51.823Z</time></trkpt><trkpt lat="41.98622" lon="-8.0245017"><ele>844.0</ele><time>2026-04-04T16:25:52.823Z</time></trkpt><trkpt lat="41.9862967" lon="-8.0244533"><ele>844.0</ele><time>2026-04-04T16:25:53.823Z</time></trkpt><trkpt lat="41.9863767" lon="-8.0244017"><ele>844.0</ele><time>2026-04-04T16:25:54.824Z</time></trkpt><trkpt lat="41.9864633" lon="-8.0243417"><ele>844.0</ele><time>2026-04-04T16:25:55.824Z</time></trkpt><trkpt lat="41.986555" lon="-8.0242833"><ele>844.0</ele><time>2026-04-04T16:25:56.823Z</time></trkpt><trkpt lat="41.9866517" lon="-8.0242067"><ele>844.0</ele><time>2026-04-04T16:25:57.823Z</time></trkpt><trkpt lat="41.9867583" lon="-8.02411"><ele>842.3333333333333</ele><time>2026-04-04T16:25:58.823Z</time></trkpt><trkpt lat="41.9868867" lon="-8.023995"><ele>840.6666666666667</ele><time>2026-04-04T16:25:59.823Z</time></trkpt><trkpt lat="41.9870117" lon="-8.0238633"><ele>839.0</ele><time>2026-04-04T16:26:00.824Z</time></trkpt><trkpt lat="41.9871333" lon="-8.023725"><ele>839.0</ele><time>2026-04-04T16:26:01.824Z</time></trkpt><trkpt lat="41.9872383" lon="-8.0235867"><ele>839.0</ele><time>2026-04-04T16:26:02.824Z</time></trkpt><trkpt lat="41.9873333" lon="-8.0234383"><ele>839.0</ele><time>2026-04-04T16:26:03.824Z</time></trkpt><trkpt lat="41.9874183" lon="-8.0232833"><ele>839.0</ele><time>2026-04-04T16:26:04.825Z</time></trkpt><trkpt lat="41.9874917" lon="-8.023135"><ele>838.5</ele><time>2026-04-04T16:26:05.823Z</time></trkpt><trkpt lat="41.9875567" lon="-8.02299"><ele>838.0</ele><time>2026-04-04T16:26:06.825Z</time></trkpt><trkpt lat="41.9876117" lon="-8.022835"><ele>837.5</ele><time>2026-04-04T16:26:07.823Z</time></trkpt><trkpt lat="41.987645" lon="-8.022665"><ele>837.0</ele><time>2026-04-04T16:26:08.824Z</time></trkpt><trkpt lat="41.98768" lon="-8.0224867"><ele>839.0</ele><time>2026-04-04T16:26:09.824Z</time></trkpt><trkpt lat="41.9877067" lon="-8.022315"><ele>841.0</ele><time>2026-04-04T16:26:10.823Z</time></trkpt><trkpt lat="41.9877383" lon="-8.0221833"><ele>843.0</ele><time>2026-04-04T16:26:11.823Z</time></trkpt><trkpt lat="41.9877633" lon="-8.0220883"><ele>845.0</ele><time>2026-04-04T16:26:12.824Z</time></trkpt><trkpt lat="41.9878167" lon="-8.02198"><ele>847.0</ele><time>2026-04-04T16:26:14.824Z</time></trkpt><trkpt lat="41.9878983" lon="-8.0219717"><ele>847.0</ele><time>2026-04-04T16:26:16.824Z</time></trkpt><trkpt lat="41.9880483" lon="-8.0220117"><ele>847.0</ele><time>2026-04-04T16:26:18.824Z</time></trkpt><trkpt lat="41.98816" lon="-8.02203"><ele>847.0</ele><time>2026-04-04T16:26:19.824Z</time></trkpt><trkpt lat="41.9882733" lon="-8.0220317"><ele>847.0</ele><time>2026-04-04T16:26:20.824Z</time></trkpt><trkpt lat="41.9883933" lon="-8.02202"><ele>848.25</ele><time>2026-04-04T16:26:21.823Z</time></trkpt><trkpt lat="41.9885317" lon="-8.0220117"><ele>849.5</ele><time>2026-04-04T16:26:22.823Z</time></trkpt><trkpt lat="41.988665" lon="-8.022005"><ele>850.75</ele><time>2026-04-04T16:26:23.824Z</time></trkpt><trkpt lat="41.988795" lon="-8.0220033"><ele>852.0</ele><time>2026-04-04T16:26:24.824Z</time></trkpt><trkpt lat="41.98891" lon="-8.02201"><ele>852.0</ele><time>2026-04-04T16:26:25.824Z</time></trkpt><trkpt lat="41.9890167" lon="-8.0220217"><ele>852.0</ele><time>2026-04-04T16:26:26.823Z</time></trkpt><trkpt lat="41.9891167" lon="-8.0220383"><ele>852.0</ele><time>2026-04-04T16:26:27.823Z</time></trkpt><trkpt lat="41.9892133" lon="-8.0220467"><ele>852.0</ele><time>2026-04-04T16:26:28.823Z</time></trkpt><trkpt lat="41.989305" lon="-8.02204"><ele>852.0</ele><time>2026-04-04T16:26:29.823Z</time></trkpt><trkpt lat="41.989385" lon="-8.0220267"><ele>852.4000000000001</ele><time>2026-04-04T16:26:30.824Z</time></trkpt><trkpt lat="41.9894683" lon="-8.0219867"><ele>852.8000000000001</ele><time>2026-04-04T16:26:31.823Z</time></trkpt><trkpt lat="41.9895367" lon="-8.0219433"><ele>853.2</ele><time>2026-04-04T16:26:32.823Z</time></trkpt><trkpt lat="41.98961" lon="-8.021885"><ele>853.6</ele><time>2026-04-04T16:26:33.826Z</time></trkpt><trkpt lat="41.9896967" lon="-8.0218183"><ele>854.0</ele><time>2026-04-04T16:26:34.823Z</time></trkpt><trkpt lat="41.9897867" lon="-8.0217567"><ele>854.0000000000001</ele><time>2026-04-04T16:26:35.823Z</time></trkpt><trkpt lat="41.9898767" lon="-8.0216983"><ele>854.0</ele><time>2026-04-04T16:26:36.824Z</time></trkpt><trkpt lat="41.9899667" lon="-8.02165"><ele>854.0</ele><time>2026-04-04T16:26:37.823Z</time></trkpt><trkpt lat="41.9900467" lon="-8.0216217"><ele>854.0</ele><time>2026-04-04T16:26:38.824Z</time></trkpt><trkpt lat="41.9901233" lon="-8.0216133"><ele>854.0000000000001</ele><time>2026-04-04T16:26:39.823Z</time></trkpt><trkpt lat="41.9902033" lon="-8.02162"><ele>854.0</ele><time>2026-04-04T16:26:40.823Z</time></trkpt><trkpt lat="41.99029" lon="-8.02165"><ele>854.5</ele><time>2026-04-04T16:26:41.823Z</time></trkpt><trkpt lat="41.9903967" lon="-8.021715"><ele>855.0</ele><time>2026-04-04T16:26:42.824Z</time></trkpt><trkpt lat="41.990515" lon="-8.0217933"><ele>855.5</ele><time>2026-04-04T16:26:43.824Z</time></trkpt><trkpt lat="41.9906283" lon="-8.0218433"><ele>856.0</ele><time>2026-04-04T16:26:44.824Z</time></trkpt><trkpt lat="41.9907483" lon="-8.02188"><ele>855.75</ele><time>2026-04-04T16:26:45.823Z</time></trkpt><trkpt lat="41.9908917" lon="-8.021885"><ele>855.5</ele><time>2026-04-04T16:26:46.824Z</time></trkpt><trkpt lat="41.99104" lon="-8.0218733"><ele>855.25</ele><time>2026-04-04T16:26:47.823Z</time></trkpt><trkpt lat="41.9911833" lon="-8.0218383"><ele>855.0</ele><time>2026-04-04T16:26:48.824Z</time></trkpt><trkpt lat="41.9913133" lon="-8.0217867"><ele>855.0</ele><time>2026-04-04T16:26:49.824Z</time></trkpt><trkpt lat="41.9914467" lon="-8.02175"><ele>855.0</ele><time>2026-04-04T16:26:50.825Z</time></trkpt><trkpt lat="41.9915817" lon="-8.02173"><ele>855.0</ele><time>2026-04-04T16:26:51.823Z</time></trkpt><trkpt lat="41.99172" lon="-8.0217267"><ele>855.0</ele><time>2026-04-04T16:26:52.823Z</time></trkpt><trkpt lat="41.99185" lon="-8.0217167"><ele>855.0</ele><time>2026-04-04T16:26:53.824Z</time></trkpt><trkpt lat="41.991965" lon="-8.0217133"><ele>855.0</ele><time>2026-04-04T16:26:54.824Z</time></trkpt><trkpt lat="41.992075" lon="-8.0217317"><ele>855.0</ele><time>2026-04-04T16:26:55.825Z</time></trkpt><trkpt lat="41.9921917" lon="-8.0217883"><ele>855.0</ele><time>2026-04-04T16:26:56.824Z</time></trkpt><trkpt lat="41.9922883" lon="-8.02183"><ele>855.0</ele><time>2026-04-04T16:26:57.824Z</time></trkpt><trkpt lat="41.99239" lon="-8.0218433"><ele>855.0</ele><time>2026-04-04T16:26:58.823Z</time></trkpt><trkpt lat="41.9925133" lon="-8.0217917"><ele>855.0</ele><time>2026-04-04T16:26:59.824Z</time></trkpt><trkpt lat="41.9926333" lon="-8.02172"><ele>855.0</ele><time>2026-04-04T16:27:00.824Z</time></trkpt><trkpt lat="41.9927517" lon="-8.0216167"><ele>853.0</ele><time>2026-04-04T16:27:01.823Z</time></trkpt><trkpt lat="41.9928517" lon="-8.0214967"><ele>851.0</ele><time>2026-04-04T16:27:02.824Z</time></trkpt><trkpt lat="41.992935" lon="-8.021345"><ele>849.0</ele><time>2026-04-04T16:27:03.823Z</time></trkpt><trkpt lat="41.9930117" lon="-8.0211867"><ele>847.0</ele><time>2026-04-04T16:27:04.824Z</time></trkpt><trkpt lat="41.9930583" lon="-8.0210133"><ele>847.0</ele><time>2026-04-04T16:27:05.824Z</time></trkpt><trkpt lat="41.99302" lon="-8.0208583"><ele>847.0</ele><time>2026-04-04T16:27:06.823Z</time></trkpt><trkpt lat="41.99297" lon="-8.020705"><ele>847.0</ele><time>2026-04-04T16:27:07.824Z</time></trkpt><trkpt lat="41.9929083" lon="-8.0205583"><ele>847.0</ele><time>2026-04-04T16:27:08.824Z</time></trkpt><trkpt lat="41.99286" lon="-8.0204117"><ele>848.1666666666666</ele><time>2026-04-04T16:27:09.824Z</time></trkpt><trkpt lat="41.9928333" lon="-8.0202917"><ele>849.3333333333333</ele><time>2026-04-04T16:27:10.823Z</time></trkpt><trkpt lat="41.9928267" lon="-8.0201933"><ele>850.5</ele><time>2026-04-04T16:27:11.823Z</time></trkpt><trkpt lat="41.9928367" lon="-8.0201033"><ele>851.6666666666667</ele><time>2026-04-04T16:27:12.824Z</time></trkpt><trkpt lat="41.9929267" lon="-8.020025"><ele>852.8333333333334</ele><time>2026-04-04T16:27:14.823Z</time></trkpt><trkpt lat="41.9929917" lon="-8.0199967"><ele>854.0</ele><time>2026-04-04T16:27:15.823Z</time></trkpt><trkpt lat="41.99308" lon="-8.0200183"><ele>854.0</ele><time>2026-04-04T16:27:16.823Z</time></trkpt><trkpt lat="41.9931883" lon="-8.0200483"><ele>854.0</ele><time>2026-04-04T16:27:17.823Z</time></trkpt><trkpt lat="41.9933167" lon="-8.0201167"><ele>854.0</ele><time>2026-04-04T16:27:18.824Z</time></trkpt><trkpt lat="41.993465" lon="-8.0202567"><ele>854.0</ele><time>2026-04-04T16:27:19.823Z</time></trkpt><trkpt lat="41.9935983" lon="-8.0203683"><ele>855.0</ele><time>2026-04-04T16:27:20.823Z</time></trkpt><trkpt lat="41.99374" lon="-8.0204817"><ele>856.0</ele><time>2026-04-04T16:27:21.823Z</time></trkpt><trkpt lat="41.993865" lon="-8.0205483"><ele>857.0</ele><time>2026-04-04T16:27:22.824Z</time></trkpt><trkpt lat="41.9939783" lon="-8.0205733"><ele>858.0</ele><time>2026-04-04T16:27:23.824Z</time></trkpt><trkpt lat="41.9940817" lon="-8.020565"><ele>856.0</ele><time>2026-04-04T16:27:24.824Z</time></trkpt><trkpt lat="41.9942083" lon="-8.0205533"><ele>854.0</ele><time>2026-04-04T16:27:25.824Z</time></trkpt><trkpt lat="41.9943317" lon="-8.0204783"><ele>852.0</ele><time>2026-04-04T16:27:26.824Z</time></trkpt><trkpt lat="41.9944067" lon="-8.0203667"><ele>850.0</ele><time>2026-04-04T16:27:27.824Z</time></trkpt><trkpt lat="41.9944883" lon="-8.020265"><ele>850.0</ele><time>2026-04-04T16:27:28.823Z</time></trkpt><trkpt lat="41.9945967" lon="-8.02019"><ele>850.0</ele><time>2026-04-04T16:27:29.823Z</time></trkpt><trkpt lat="41.9947317" lon="-8.02012"><ele>850.0</ele><time>2026-04-04T16:27:30.824Z</time></trkpt><trkpt lat="41.99488" lon="-8.0200517"><ele>850.0</ele><time>2026-04-04T16:27:31.823Z</time></trkpt><trkpt lat="41.9950467" lon="-8.01999"><ele>853.0</ele><time>2026-04-04T16:27:32.823Z</time></trkpt><trkpt lat="41.9952183" lon="-8.0199367"><ele>856.0</ele><time>2026-04-04T16:27:33.824Z</time></trkpt><trkpt lat="41.9953817" lon="-8.0199133"><ele>859.0</ele><time>2026-04-04T16:27:34.823Z</time></trkpt><trkpt lat="41.9955217" lon="-8.0199083"><ele>859.0</ele><time>2026-04-04T16:27:35.823Z</time></trkpt><trkpt lat="41.9956283" lon="-8.0199017"><ele>859.0</ele><time>2026-04-04T16:27:36.823Z</time></trkpt><trkpt lat="41.9957367" lon="-8.0198733"><ele>859.0</ele><time>2026-04-04T16:27:37.823Z</time></trkpt><trkpt lat="41.9958433" lon="-8.019805"><ele>859.0</ele><time>2026-04-04T16:27:38.823Z</time></trkpt><trkpt lat="41.9959533" lon="-8.019715"><ele>856.0</ele><time>2026-04-04T16:27:39.822Z</time></trkpt><trkpt lat="41.99608" lon="-8.0195983"><ele>853.0</ele><time>2026-04-04T16:27:40.822Z</time></trkpt><trkpt lat="41.996235" lon="-8.01946"><ele>850.0</ele><time>2026-04-04T16:27:41.822Z</time></trkpt><trkpt lat="41.9963833" lon="-8.01933"><ele>850.0</ele><time>2026-04-04T16:27:42.823Z</time></trkpt><trkpt lat="41.9965383" lon="-8.0192233"><ele>850.0</ele><time>2026-04-04T16:27:43.822Z</time></trkpt><trkpt lat="41.996715" lon="-8.01913"><ele>850.0</ele><time>2026-04-04T16:27:44.824Z</time></trkpt><trkpt lat="41.9969017" lon="-8.0190517"><ele>849.3333333333333</ele><time>2026-04-04T16:27:45.824Z</time></trkpt><trkpt lat="41.9970683" lon="-8.0189867"><ele>848.6666666666667</ele><time>2026-04-04T16:27:46.823Z</time></trkpt><trkpt lat="41.9972183" lon="-8.0189183"><ele>848.0</ele><time>2026-04-04T16:27:47.823Z</time></trkpt><trkpt lat="41.99733" lon="-8.01885"><ele>848.0</ele><time>2026-04-04T16:27:48.823Z</time></trkpt><trkpt lat="41.9974317" lon="-8.018735"><ele>848.0</ele><time>2026-04-04T16:27:49.824Z</time></trkpt><trkpt lat="41.997525" lon="-8.018585"><ele>848.0</ele><time>2026-04-04T16:27:50.823Z</time></trkpt><trkpt lat="41.9976117" lon="-8.0183933"><ele>848.0</ele><time>2026-04-04T16:27:51.823Z</time></trkpt><trkpt lat="41.9977" lon="-8.0182117"><ele>848.5</ele><time>2026-04-04T16:27:52.823Z</time></trkpt><trkpt lat="41.9977883" lon="-8.018065"><ele>849.0</ele><time>2026-04-04T16:27:53.823Z</time></trkpt><trkpt lat="41.9978883" lon="-8.01795"><ele>849.5</ele><time>2026-04-04T16:27:54.824Z</time></trkpt><trkpt lat="41.99801" lon="-8.0178683"><ele>850.0</ele><time>2026-04-04T16:27:55.823Z</time></trkpt><trkpt lat="41.9981583" lon="-8.0177833"><ele>850.0</ele><time>2026-04-04T16:27:56.823Z</time></trkpt><trkpt lat="41.9983217" lon="-8.0176783"><ele>850.0</ele><time>2026-04-04T16:27:57.822Z</time></trkpt><trkpt lat="41.9984683" lon="-8.0175733"><ele>850.0</ele><time>2026-04-04T16:27:58.823Z</time></trkpt><trkpt lat="41.998605" lon="-8.017485"><ele>852.5</ele><time>2026-04-04T16:27:59.822Z</time></trkpt><trkpt lat="41.9987267" lon="-8.01742"><ele>855.0</ele><time>2026-04-04T16:28:00.823Z</time></trkpt><trkpt lat="41.9988583" lon="-8.017355"><ele>857.5</ele><time>2026-04-04T16:28:01.822Z</time></trkpt><trkpt lat="41.998995" lon="-8.0172783"><ele>860.0</ele><time>2026-04-04T16:28:02.823Z</time></trkpt><trkpt lat="41.9991333" lon="-8.017185"><ele>858.6666666666667</ele><time>2026-04-04T16:28:03.823Z</time></trkpt><trkpt lat="41.99927" lon="-8.0170833"><ele>857.3333333333333</ele><time>2026-04-04T16:28:04.822Z</time></trkpt><trkpt lat="41.99942" lon="-8.0170017"><ele>856.0</ele><time>2026-04-04T16:28:05.822Z</time></trkpt><trkpt lat="41.999575" lon="-8.0169383"><ele>856.0</ele><time>2026-04-04T16:28:06.824Z</time></trkpt><trkpt lat="41.9997367" lon="-8.0168867"><ele>856.0</ele><time>2026-04-04T16:28:07.823Z</time></trkpt><trkpt lat="41.99988" lon="-8.0168483"><ele>856.0</ele><time>2026-04-04T16:28:08.823Z</time></trkpt><trkpt lat="41.9999967" lon="-8.0168033"><ele>856.0</ele><time>2026-04-04T16:28:09.824Z</time></trkpt><trkpt lat="42.0001033" lon="-8.016745"><ele>858.5</ele><time>2026-04-04T16:28:10.822Z</time></trkpt><trkpt lat="42.0002" lon="-8.016645"><ele>861.0</ele><time>2026-04-04T16:28:11.823Z</time></trkpt><trkpt lat="42.000285" lon="-8.0165117"><ele>863.5</ele><time>2026-04-04T16:28:12.824Z</time></trkpt><trkpt lat="42.0003667" lon="-8.0163517"><ele>866.0</ele><time>2026-04-04T16:28:13.823Z</time></trkpt><trkpt lat="42.0004317" lon="-8.0161433"><ele>866.0</ele><time>2026-04-04T16:28:14.826Z</time></trkpt><trkpt lat="42.0005183" lon="-8.01598"><ele>866.0</ele><time>2026-04-04T16:28:15.822Z</time></trkpt><trkpt lat="42.0006283" lon="-8.015815"><ele>866.0</ele><time>2026-04-04T16:28:16.822Z</time></trkpt><trkpt lat="42.0007583" lon="-8.0156767"><ele>865.6666666666667</ele><time>2026-04-04T16:28:17.823Z</time></trkpt><trkpt lat="42.0009267" lon="-8.015565"><ele>865.3333333333333</ele><time>2026-04-04T16:28:18.822Z</time></trkpt><trkpt lat="42.0011083" lon="-8.01545"><ele>865.0</ele><time>2026-04-04T16:28:19.824Z</time></trkpt><trkpt lat="42.0012883" lon="-8.015325"><ele>865.0</ele><time>2026-04-04T16:28:20.823Z</time></trkpt><trkpt lat="42.00146" lon="-8.0152133"><ele>865.0</ele><time>2026-04-04T16:28:21.823Z</time></trkpt><trkpt lat="42.001645" lon="-8.0151133"><ele>865.0</ele><time>2026-04-04T16:28:22.823Z</time></trkpt><trkpt lat="42.0018517" lon="-8.01503"><ele>866.6666666666666</ele><time>2026-04-04T16:28:23.823Z</time></trkpt><trkpt lat="42.0020467" lon="-8.014945"><ele>868.3333333333333</ele><time>2026-04-04T16:28:24.823Z</time></trkpt><trkpt lat="42.00223" lon="-8.0148533"><ele>870.0</ele><time>2026-04-04T16:28:25.822Z</time></trkpt><trkpt lat="42.0023933" lon="-8.0147617"><ele>868.75</ele><time>2026-04-04T16:28:26.823Z</time></trkpt><trkpt lat="42.00253" lon="-8.014675"><ele>867.5</ele><time>2026-04-04T16:28:27.823Z</time></trkpt><trkpt lat="42.0026367" lon="-8.0145883"><ele>866.25</ele><time>2026-04-04T16:28:28.824Z</time></trkpt><trkpt lat="42.0027" lon="-8.0144767"><ele>865.0</ele><time>2026-04-04T16:28:29.823Z</time></trkpt><trkpt lat="42.0027283" lon="-8.01435"><ele>865.0</ele><time>2026-04-04T16:28:30.824Z</time></trkpt><trkpt lat="42.002745" lon="-8.014215"><ele>865.0</ele><time>2026-04-04T16:28:31.823Z</time></trkpt><trkpt lat="42.0027317" lon="-8.0140583"><ele>865.0</ele><time>2026-04-04T16:28:32.825Z</time></trkpt><trkpt lat="42.0027017" lon="-8.01389"><ele>865.0</ele><time>2026-04-04T16:28:33.822Z</time></trkpt><trkpt lat="42.00265" lon="-8.0137483"><ele>865.1666666666666</ele><time>2026-04-04T16:28:34.823Z</time></trkpt><trkpt lat="42.0026017" lon="-8.0136367"><ele>865.3333333333333</ele><time>2026-04-04T16:28:35.823Z</time></trkpt><trkpt lat="42.00256" lon="-8.0135433"><ele>865.5</ele><time>2026-04-04T16:28:36.824Z</time></trkpt><trkpt lat="42.0025117" lon="-8.0134333"><ele>865.6666666666667</ele><time>2026-04-04T16:28:38.823Z</time></trkpt><trkpt lat="42.0025917" lon="-8.0134567"><ele>865.8333333333334</ele><time>2026-04-04T16:28:44.823Z</time></trkpt><trkpt lat="42.0026617" lon="-8.01345"><ele>866.0</ele><time>2026-04-04T16:28:48.822Z</time></trkpt><trkpt lat="42.0027517" lon="-8.01348"><ele>866.0000000000001</ele><time>2026-04-04T16:29:21.823Z</time></trkpt><trkpt lat="42.0028467" lon="-8.0134883"><ele>866.0</ele><time>2026-04-04T16:29:23.823Z</time></trkpt><trkpt lat="42.0029167" lon="-8.0135"><ele>866.0</ele><time>2026-04-04T16:29:24.822Z</time></trkpt><trkpt lat="42.0030017" lon="-8.0135183"><ele>866.0</ele><time>2026-04-04T16:29:25.823Z</time></trkpt><trkpt lat="42.003095" lon="-8.0135333"><ele>866.0000000000001</ele><time>2026-04-04T16:29:26.824Z</time></trkpt><trkpt lat="42.0031933" lon="-8.0135483"><ele>866.0</ele><time>2026-04-04T16:29:27.824Z</time></trkpt><trkpt lat="42.00329" lon="-8.0135717"><ele>865.0000000000001</ele><time>2026-04-04T16:29:28.823Z</time></trkpt><trkpt lat="42.003375" lon="-8.0135933"><ele>864.0</ele><time>2026-04-04T16:29:29.824Z</time></trkpt><trkpt lat="42.003455" lon="-8.0136117"><ele>863.0</ele><time>2026-04-04T16:29:30.822Z</time></trkpt><trkpt lat="42.0035367" lon="-8.013625"><ele>862.0</ele><time>2026-04-04T16:29:31.822Z</time></trkpt><trkpt lat="42.0036217" lon="-8.01364"><ele>861.0000000000001</ele><time>2026-04-04T16:29:32.822Z</time></trkpt><trkpt lat="42.0037083" lon="-8.01366"><ele>860.0</ele><time>2026-04-04T16:29:33.824Z</time></trkpt><trkpt lat="42.0037883" lon="-8.0136717"><ele>860.0000000000001</ele><time>2026-04-04T16:29:34.823Z</time></trkpt><trkpt lat="42.0038617" lon="-8.0136783"><ele>860.0</ele><time>2026-04-04T16:29:35.822Z</time></trkpt><trkpt lat="42.003975" lon="-8.013705"><ele>860.0</ele><time>2026-04-04T16:29:37.823Z</time></trkpt><trkpt lat="42.0040567" lon="-8.0137483"><ele>860.0</ele><time>2026-04-04T16:29:39.822Z</time></trkpt><trkpt lat="42.0041017" lon="-8.0138367"><ele>860.0000000000001</ele><time>2026-04-04T16:29:42.824Z</time></trkpt><trkpt lat="42.0040867" lon="-8.013935"><ele>860.0</ele><time>2026-04-04T16:29:44.823Z</time></trkpt><trkpt lat="42.0040867" lon="-8.0140483"><ele>858.4</ele><time>2026-04-04T16:29:47.823Z</time></trkpt><trkpt lat="42.004165" lon="-8.0140317"><ele>856.8</ele><time>2026-04-04T16:29:50.827Z</time></trkpt><trkpt lat="42.0042867" lon="-8.0139483"><ele>855.2</ele><time>2026-04-04T16:29:52.823Z</time></trkpt><trkpt lat="42.0043667" lon="-8.0138967"><ele>853.6</ele><time>2026-04-04T16:29:53.823Z</time></trkpt><trkpt lat="42.00444" lon="-8.013855"><ele>852.0</ele><time>2026-04-04T16:29:54.824Z</time></trkpt><trkpt lat="42.00452" lon="-8.0138183"><ele>852.0</ele><time>2026-04-04T16:29:55.823Z</time></trkpt><trkpt lat="42.0046083" lon="-8.01378"><ele>852.0</ele><time>2026-04-04T16:29:56.823Z</time></trkpt><trkpt lat="42.0046917" lon="-8.0137467"><ele>852.0</ele><time>2026-04-04T16:29:57.823Z</time></trkpt><trkpt lat="42.0047783" lon="-8.0137117"><ele>852.0</ele><time>2026-04-04T16:29:58.824Z</time></trkpt><trkpt lat="42.0048633" lon="-8.01367"><ele>852.0</ele><time>2026-04-04T16:29:59.822Z</time></trkpt><trkpt lat="42.004945" lon="-8.013615"><ele>852.4000000000001</ele><time>2026-04-04T16:30:00.824Z</time></trkpt><trkpt lat="42.0050233" lon="-8.013555"><ele>852.8000000000001</ele><time>2026-04-04T16:30:01.823Z</time></trkpt><trkpt lat="42.0051" lon="-8.013485"><ele>853.2</ele><time>2026-04-04T16:30:02.825Z</time></trkpt><trkpt lat="42.00517" lon="-8.0134067"><ele>853.6</ele><time>2026-04-04T16:30:03.824Z</time></trkpt><trkpt lat="42.0052383" lon="-8.0133317"><ele>854.0</ele><time>2026-04-04T16:30:04.823Z</time></trkpt><trkpt lat="42.0053067" lon="-8.0132567"><ele>854.0000000000001</ele><time>2026-04-04T16:30:05.823Z</time></trkpt><trkpt lat="42.0053767" lon="-8.0131883"><ele>854.0</ele><time>2026-04-04T16:30:06.823Z</time></trkpt><trkpt lat="42.0054533" lon="-8.0131233"><ele>854.0</ele><time>2026-04-04T16:30:07.824Z</time></trkpt><trkpt lat="42.00553" lon="-8.0130667"><ele>854.0</ele><time>2026-04-04T16:30:08.823Z</time></trkpt><trkpt lat="42.0056033" lon="-8.0130167"><ele>854.0000000000001</ele><time>2026-04-04T16:30:09.824Z</time></trkpt><trkpt lat="42.0056717" lon="-8.01298"><ele>854.0</ele><time>2026-04-04T16:30:10.823Z</time></trkpt><trkpt lat="42.00573" lon="-8.0129433"><ele>854.6666666666667</ele><time>2026-04-04T16:30:11.822Z</time></trkpt><trkpt lat="42.0058367" lon="-8.0129033"><ele>855.3333333333334</ele><time>2026-04-04T16:30:13.823Z</time></trkpt><trkpt lat="42.00595" lon="-8.012925"><ele>856.0</ele><time>2026-04-04T16:30:15.823Z</time></trkpt><trkpt lat="42.0060133" lon="-8.0129583"><ele>856.6666666666667</ele><time>2026-04-04T16:30:16.823Z</time></trkpt><trkpt lat="42.0060783" lon="-8.0129833"><ele>857.3333333333334</ele><time>2026-04-04T16:30:17.823Z</time></trkpt><trkpt lat="42.0061483" lon="-8.0130033"><ele>858.0</ele><time>2026-04-04T16:30:18.824Z</time></trkpt><trkpt lat="42.0062283" lon="-8.013015"><ele>858.0</ele><time>2026-04-04T16:30:19.823Z</time></trkpt><trkpt lat="42.0063183" lon="-8.0130067"><ele>858.0</ele><time>2026-04-04T16:30:20.823Z</time></trkpt><trkpt lat="42.0064217" lon="-8.0129917"><ele>858.0</ele><time>2026-04-04T16:30:21.824Z</time></trkpt><trkpt lat="42.0065467" lon="-8.0129683"><ele>858.0</ele><time>2026-04-04T16:30:22.823Z</time></trkpt><trkpt lat="42.00669" lon="-8.0129367"><ele>859.25</ele><time>2026-04-04T16:30:23.824Z</time></trkpt><trkpt lat="42.0068483" lon="-8.0129117"><ele>860.5</ele><time>2026-04-04T16:30:24.823Z</time></trkpt><trkpt lat="42.00698" lon="-8.0128767"><ele>861.75</ele><time>2026-04-04T16:30:25.824Z</time></trkpt><trkpt lat="42.00709" lon="-8.0128483"><ele>863.0</ele><time>2026-04-04T16:30:26.823Z</time></trkpt><trkpt lat="42.0071917" lon="-8.01282"><ele>863.0000000000001</ele><time>2026-04-04T16:30:27.823Z</time></trkpt><trkpt lat="42.0072767" lon="-8.0127967"><ele>863.0</ele><time>2026-04-04T16:30:28.823Z</time></trkpt><trkpt lat="42.0073483" lon="-8.0127683"><ele>863.0</ele><time>2026-04-04T16:30:29.823Z</time></trkpt><trkpt lat="42.0074117" lon="-8.0127433"><ele>863.0</ele><time>2026-04-04T16:30:30.824Z</time></trkpt><trkpt lat="42.0074783" lon="-8.01272"><ele>863.0000000000001</ele><time>2026-04-04T16:30:31.823Z</time></trkpt><trkpt lat="42.0075533" lon="-8.012705"><ele>863.0</ele><time>2026-04-04T16:30:32.824Z</time></trkpt><trkpt lat="42.007645" lon="-8.0126917"><ele>863.25</ele><time>2026-04-04T16:30:33.823Z</time></trkpt><trkpt lat="42.0077433" lon="-8.0126717"><ele>863.5</ele><time>2026-04-04T16:30:34.823Z</time></trkpt><trkpt lat="42.0078533" lon="-8.0126667"><ele>863.75</ele><time>2026-04-04T16:30:35.823Z</time></trkpt><trkpt lat="42.0079683" lon="-8.0126783"><ele>864.0</ele><time>2026-04-04T16:30:36.824Z</time></trkpt><trkpt lat="42.008095" lon="-8.0127167"><ele>864.0</ele><time>2026-04-04T16:30:37.824Z</time></trkpt><trkpt lat="42.0082183" lon="-8.01278"><ele>864.0</ele><time>2026-04-04T16:30:38.823Z</time></trkpt><trkpt lat="42.0083367" lon="-8.0128583"><ele>864.0</ele><time>2026-04-04T16:30:39.823Z</time></trkpt><trkpt lat="42.0084567" lon="-8.0129283"><ele>864.0</ele><time>2026-04-04T16:30:40.823Z</time></trkpt><trkpt lat="42.0085767" lon="-8.0129967"><ele>864.75</ele><time>2026-04-04T16:30:41.823Z</time></trkpt><trkpt lat="42.0086867" lon="-8.0130683"><ele>865.5</ele><time>2026-04-04T16:30:42.823Z</time></trkpt><trkpt lat="42.0087967" lon="-8.0131533"><ele>866.25</ele><time>2026-04-04T16:30:43.825Z</time></trkpt><trkpt lat="42.0089133" lon="-8.013235"><ele>867.0</ele><time>2026-04-04T16:30:44.826Z</time></trkpt><trkpt lat="42.0090233" lon="-8.013305"><ele>866.75</ele><time>2026-04-04T16:30:45.823Z</time></trkpt><trkpt lat="42.0091317" lon="-8.013375"><ele>866.5</ele><time>2026-04-04T16:30:46.824Z</time></trkpt><trkpt lat="42.0092483" lon="-8.0134467"><ele>866.25</ele><time>2026-04-04T16:30:47.823Z</time></trkpt><trkpt lat="42.00937" lon="-8.0135333"><ele>866.0</ele><time>2026-04-04T16:30:48.823Z</time></trkpt><trkpt lat="42.0095033" lon="-8.0136217"><ele>866.0</ele><time>2026-04-04T16:30:49.823Z</time></trkpt><trkpt lat="42.0096217" lon="-8.0137033"><ele>866.0</ele><time>2026-04-04T16:30:50.823Z</time></trkpt><trkpt lat="42.0097267" lon="-8.0137817"><ele>866.0</ele><time>2026-04-04T16:30:51.823Z</time></trkpt><trkpt lat="42.0098217" lon="-8.0138467"><ele>866.0</ele><time>2026-04-04T16:30:52.823Z</time></trkpt><trkpt lat="42.00991" lon="-8.0139033"><ele>866.0000000000001</ele><time>2026-04-04T16:30:53.824Z</time></trkpt><trkpt lat="42.0099867" lon="-8.013935"><ele>866.0</ele><time>2026-04-04T16:30:54.824Z</time></trkpt><trkpt lat="42.0100533" lon="-8.01396"><ele>866.0</ele><time>2026-04-04T16:30:55.823Z</time></trkpt><trkpt lat="42.01015" lon="-8.0139583"><ele>866.0</ele><time>2026-04-04T16:30:57.823Z</time></trkpt><trkpt lat="42.0102167" lon="-8.0139567"><ele>866.0000000000001</ele><time>2026-04-04T16:30:59.823Z</time></trkpt><trkpt lat="42.0102883" lon="-8.01395"><ele>866.0</ele><time>2026-04-04T16:31:01.824Z</time></trkpt><trkpt lat="42.0103733" lon="-8.01395"><ele>868.1999999999999</ele><time>2026-04-04T16:31:04.822Z</time></trkpt><trkpt lat="42.01048" lon="-8.0139533"><ele>870.3999999999999</ele><time>2026-04-04T16:31:06.824Z</time></trkpt><trkpt lat="42.0105483" lon="-8.0139617"><ele>872.6</ele><time>2026-04-04T16:31:07.824Z</time></trkpt><trkpt lat="42.010645" lon="-8.013965"><ele>874.8</ele><time>2026-04-04T16:31:08.825Z</time></trkpt><trkpt lat="42.01076" lon="-8.01396"><ele>877.0</ele><time>2026-04-04T16:31:09.824Z</time></trkpt><trkpt lat="42.0108833" lon="-8.0139567"><ele>878.75</ele><time>2026-04-04T16:31:10.823Z</time></trkpt><trkpt lat="42.011" lon="-8.0139683"><ele>880.5</ele><time>2026-04-04T16:31:11.823Z</time></trkpt><trkpt lat="42.0111217" lon="-8.014"><ele>882.25</ele><time>2026-04-04T16:31:12.824Z</time></trkpt><trkpt lat="42.0112483" lon="-8.0140633"><ele>884.0</ele><time>2026-04-04T16:31:13.825Z</time></trkpt><trkpt lat="42.0113833" lon="-8.0141533"><ele>882.0</ele><time>2026-04-04T16:31:14.824Z</time></trkpt><trkpt lat="42.0115233" lon="-8.0142633"><ele>880.0</ele><time>2026-04-04T16:31:15.824Z</time></trkpt><trkpt lat="42.01166" lon="-8.0143883"><ele>878.0</ele><time>2026-04-04T16:31:16.823Z</time></trkpt><trkpt lat="42.0117967" lon="-8.014505"><ele>878.0</ele><time>2026-04-04T16:31:17.823Z</time></trkpt><trkpt lat="42.01193" lon="-8.0146083"><ele>878.0</ele><time>2026-04-04T16:31:18.823Z</time></trkpt><trkpt lat="42.0120417" lon="-8.0146917"><ele>878.0</ele><time>2026-04-04T16:31:19.823Z</time></trkpt><trkpt lat="42.0121417" lon="-8.0147467"><ele>878.0</ele><time>2026-04-04T16:31:20.822Z</time></trkpt><trkpt lat="42.0122283" lon="-8.0147817"><ele>878.0</ele><time>2026-04-04T16:31:21.823Z</time></trkpt><trkpt lat="42.0123167" lon="-8.0148117"><ele>878.0</ele><time>2026-04-04T16:31:22.822Z</time></trkpt><trkpt lat="42.012405" lon="-8.014845"><ele>878.0</ele><time>2026-04-04T16:31:23.823Z</time></trkpt><trkpt lat="42.0125183" lon="-8.0148917"><ele>878.0</ele><time>2026-04-04T16:31:24.823Z</time></trkpt><trkpt lat="42.01262" lon="-8.014925"><ele>878.0</ele><time>2026-04-04T16:31:25.822Z</time></trkpt><trkpt lat="42.0127083" lon="-8.0149333"><ele>878.8</ele><time>2026-04-04T16:31:26.823Z</time></trkpt><trkpt lat="42.0127983" lon="-8.0149317"><ele>879.5999999999999</ele><time>2026-04-04T16:31:27.823Z</time></trkpt><trkpt lat="42.012875" lon="-8.0149133"><ele>880.4000000000001</ele><time>2026-04-04T16:31:28.822Z</time></trkpt><trkpt lat="42.0129683" lon="-8.0148817"><ele>881.2</ele><time>2026-04-04T16:31:29.823Z</time></trkpt><trkpt lat="42.0130633" lon="-8.0147667"><ele>882.0</ele><time>2026-04-04T16:31:30.825Z</time></trkpt><trkpt lat="42.0131567" lon="-8.0146633"><ele>882.0</ele><time>2026-04-04T16:31:31.822Z</time></trkpt><trkpt lat="42.0132433" lon="-8.0145733"><ele>882.0</ele><time>2026-04-04T16:31:32.823Z</time></trkpt><trkpt lat="42.0133167" lon="-8.0145"><ele>882.0</ele><time>2026-04-04T16:31:33.823Z</time></trkpt><trkpt lat="42.0134167" lon="-8.01448"><ele>882.0</ele><time>2026-04-04T16:31:35.823Z</time></trkpt><trkpt lat="42.0134783" lon="-8.0145017"><ele>882.0</ele><time>2026-04-04T16:31:36.823Z</time></trkpt><trkpt lat="42.0135383" lon="-8.0145617"><ele>882.0</ele><time>2026-04-04T16:31:37.823Z</time></trkpt><trkpt lat="42.0135983" lon="-8.0146033"><ele>880.0</ele><time>2026-04-04T16:31:38.824Z</time></trkpt><trkpt lat="42.0136567" lon="-8.0147033"><ele>878.0</ele><time>2026-04-04T16:31:39.823Z</time></trkpt><trkpt lat="42.0137217" lon="-8.01486"><ele>876.0</ele><time>2026-04-04T16:31:40.823Z</time></trkpt><trkpt lat="42.0138067" lon="-8.015015"><ele>874.0</ele><time>2026-04-04T16:31:41.823Z</time></trkpt><trkpt lat="42.01389" lon="-8.01511"><ele>872.0</ele><time>2026-04-04T16:31:42.823Z</time></trkpt><trkpt lat="42.01398" lon="-8.0152067"><ele>870.0</ele><time>2026-04-04T16:31:43.823Z</time></trkpt><trkpt lat="42.014075" lon="-8.0152983"><ele>868.0</ele><time>2026-04-04T16:31:44.823Z</time></trkpt><trkpt lat="42.0141617" lon="-8.0153833"><ele>866.0</ele><time>2026-04-04T16:31:45.823Z</time></trkpt><trkpt lat="42.0142533" lon="-8.01549"><ele>866.0</ele><time>2026-04-04T16:31:46.823Z</time></trkpt><trkpt lat="42.0143433" lon="-8.0155967"><ele>866.0</ele><time>2026-04-04T16:31:47.823Z</time></trkpt><trkpt lat="42.0144433" lon="-8.0157033"><ele>866.0</ele><time>2026-04-04T16:31:48.823Z</time></trkpt><trkpt lat="42.01455" lon="-8.0158"><ele>866.0</ele><time>2026-04-04T16:31:49.823Z</time></trkpt><trkpt lat="42.01465" lon="-8.0158783"><ele>865.5000000000001</ele><time>2026-04-04T16:31:50.824Z</time></trkpt><trkpt lat="42.0147367" lon="-8.01593"><ele>865.0</ele><time>2026-04-04T16:31:51.823Z</time></trkpt><trkpt lat="42.0148133" lon="-8.0159633"><ele>864.5</ele><time>2026-04-04T16:31:52.823Z</time></trkpt><trkpt lat="42.0148917" lon="-8.01597"><ele>864.0</ele><time>2026-04-04T16:31:53.823Z</time></trkpt><trkpt lat="42.0149683" lon="-8.0159533"><ele>863.5000000000001</ele><time>2026-04-04T16:31:54.823Z</time></trkpt><trkpt lat="42.0150567" lon="-8.0159167"><ele>863.0</ele><time>2026-04-04T16:31:55.823Z</time></trkpt><trkpt lat="42.0151533" lon="-8.0158667"><ele>864.8</ele><time>2026-04-04T16:31:56.825Z</time></trkpt><trkpt lat="42.0152683" lon="-8.0157817"><ele>866.5999999999999</ele><time>2026-04-04T16:31:57.823Z</time></trkpt><trkpt lat="42.0153633" lon="-8.0157133"><ele>868.4000000000001</ele><time>2026-04-04T16:31:58.823Z</time></trkpt><trkpt lat="42.015445" lon="-8.01565"><ele>870.2</ele><time>2026-04-04T16:31:59.824Z</time></trkpt><trkpt lat="42.015515" lon="-8.015595"><ele>872.0</ele><time>2026-04-04T16:32:00.824Z</time></trkpt><trkpt lat="42.0155783" lon="-8.0155383"><ele>872.0000000000001</ele><time>2026-04-04T16:32:01.823Z</time></trkpt><trkpt lat="42.01566" lon="-8.01546"><ele>872.0</ele><time>2026-04-04T16:32:03.823Z</time></trkpt><trkpt lat="42.01572" lon="-8.0154267"><ele>872.0</ele><time>2026-04-04T16:32:05.823Z</time></trkpt><trkpt lat="42.0158233" lon="-8.0153867"><ele>872.0</ele><time>2026-04-04T16:32:07.823Z</time></trkpt><trkpt lat="42.015885" lon="-8.0153567"><ele>872.0000000000001</ele><time>2026-04-04T16:32:08.823Z</time></trkpt><trkpt lat="42.015965" lon="-8.01532"><ele>872.0</ele><time>2026-04-04T16:32:09.823Z</time></trkpt><trkpt lat="42.0160817" lon="-8.0152683"><ele>871.5</ele><time>2026-04-04T16:32:10.823Z</time></trkpt><trkpt lat="42.0162283" lon="-8.0152083"><ele>871.0</ele><time>2026-04-04T16:32:11.823Z</time></trkpt><trkpt lat="42.01634" lon="-8.0151567"><ele>870.5</ele><time>2026-04-04T16:32:12.823Z</time></trkpt><trkpt lat="42.016435" lon="-8.0150917"><ele>870.0</ele><time>2026-04-04T16:32:13.823Z</time></trkpt><trkpt lat="42.01652" lon="-8.015005"><ele>871.0</ele><time>2026-04-04T16:32:14.824Z</time></trkpt><trkpt lat="42.0165867" lon="-8.0149033"><ele>872.0</ele><time>2026-04-04T16:32:15.823Z</time></trkpt><trkpt lat="42.0166367" lon="-8.0148233"><ele>873.0</ele><time>2026-04-04T16:32:16.824Z</time></trkpt><trkpt lat="42.0166967" lon="-8.0147533"><ele>874.0</ele><time>2026-04-04T16:32:17.824Z</time></trkpt><trkpt lat="42.0167617" lon="-8.0147067"><ele>875.0</ele><time>2026-04-04T16:32:18.825Z</time></trkpt><trkpt lat="42.01683" lon="-8.0147033"><ele>876.0</ele><time>2026-04-04T16:32:19.823Z</time></trkpt><trkpt lat="42.0169117" lon="-8.0147417"><ele>876.0</ele><time>2026-04-04T16:32:20.824Z</time></trkpt><trkpt lat="42.01701" lon="-8.0147683"><ele>875.9999999999999</ele><time>2026-04-04T16:32:21.823Z</time></trkpt><trkpt lat="42.01711" lon="-8.0147767"><ele>875.9999999999999</ele><time>2026-04-04T16:32:22.823Z</time></trkpt><trkpt lat="42.0172233" lon="-8.0147583"><ele>876.0</ele><time>2026-04-04T16:32:23.823Z</time></trkpt><trkpt lat="42.0173333" lon="-8.0147167"><ele>876.0</ele><time>2026-04-04T16:32:24.824Z</time></trkpt><trkpt lat="42.0174383" lon="-8.0146517"><ele>876.75</ele><time>2026-04-04T16:32:25.823Z</time></trkpt><trkpt lat="42.0175433" lon="-8.0145883"><ele>877.5</ele><time>2026-04-04T16:32:26.824Z</time></trkpt><trkpt lat="42.01767" lon="-8.0145167"><ele>878.25</ele><time>2026-04-04T16:32:27.823Z</time></trkpt><trkpt lat="42.0177983" lon="-8.01445"><ele>879.0</ele><time>2026-04-04T16:32:28.824Z</time></trkpt><trkpt lat="42.01794" lon="-8.0143783"><ele>879.0</ele><time>2026-04-04T16:32:29.824Z</time></trkpt><trkpt lat="42.0180783" lon="-8.0143083"><ele>879.0</ele><time>2026-04-04T16:32:30.824Z</time></trkpt><trkpt lat="42.018205" lon="-8.0142333"><ele>879.0</ele><time>2026-04-04T16:32:31.823Z</time></trkpt><trkpt lat="42.0183133" lon="-8.0141733"><ele>879.0</ele><time>2026-04-04T16:32:32.824Z</time></trkpt><trkpt lat="42.0184067" lon="-8.014135"><ele>878.6666666666666</ele><time>2026-04-04T16:32:33.823Z</time></trkpt><trkpt lat="42.0184717" lon="-8.0141267"><ele>878.3333333333333</ele><time>2026-04-04T16:32:34.823Z</time></trkpt><trkpt lat="42.0185517" lon="-8.01415"><ele>878.0</ele><time>2026-04-04T16:32:35.823Z</time></trkpt><trkpt lat="42.0186233" lon="-8.0141767"><ele>877.6666666666666</ele><time>2026-04-04T16:32:36.823Z</time></trkpt><trkpt lat="42.01871" lon="-8.0142417"><ele>877.3333333333333</ele><time>2026-04-04T16:32:37.823Z</time></trkpt><trkpt lat="42.0187683" lon="-8.0143883"><ele>877.0</ele><time>2026-04-04T16:32:38.823Z</time></trkpt><trkpt lat="42.01886" lon="-8.014475"><ele>877.0</ele><time>2026-04-04T16:32:39.823Z</time></trkpt><trkpt lat="42.0189383" lon="-8.014545"><ele>877.0</ele><time>2026-04-04T16:32:40.823Z</time></trkpt><trkpt lat="42.0190367" lon="-8.0146433"><ele>877.0</ele><time>2026-04-04T16:32:41.822Z</time></trkpt><trkpt lat="42.01912" lon="-8.014685"><ele>877.0</ele><time>2026-04-04T16:32:42.823Z</time></trkpt><trkpt lat="42.0192117" lon="-8.0147017"><ele>877.0</ele><time>2026-04-04T16:32:43.822Z</time></trkpt><trkpt lat="42.0193267" lon="-8.0146867"><ele>878.3333333333333</ele><time>2026-04-04T16:32:44.823Z</time></trkpt><trkpt lat="42.01948" lon="-8.0146667"><ele>879.6666666666667</ele><time>2026-04-04T16:32:45.822Z</time></trkpt><trkpt lat="42.0196533" lon="-8.0146433"><ele>881.0</ele><time>2026-04-04T16:32:46.824Z</time></trkpt><trkpt lat="42.0198183" lon="-8.0146283"><ele>881.0</ele><time>2026-04-04T16:32:47.823Z</time></trkpt><trkpt lat="42.0199717" lon="-8.0146133"><ele>881.0</ele><time>2026-04-04T16:32:48.824Z</time></trkpt><trkpt lat="42.020125" lon="-8.0145983"><ele>881.0</ele><time>2026-04-04T16:32:49.823Z</time></trkpt><trkpt lat="42.0202617" lon="-8.0145767"><ele>881.0</ele><time>2026-04-04T16:32:50.823Z</time></trkpt><trkpt lat="42.0203917" lon="-8.0145517"><ele>881.5</ele><time>2026-04-04T16:32:51.823Z</time></trkpt><trkpt lat="42.0205167" lon="-8.0145117"><ele>882.0</ele><time>2026-04-04T16:32:52.822Z</time></trkpt><trkpt lat="42.0206483" lon="-8.0144783"><ele>882.5</ele><time>2026-04-04T16:32:53.825Z</time></trkpt><trkpt lat="42.0207717" lon="-8.0144533"><ele>883.0</ele><time>2026-04-04T16:32:54.823Z</time></trkpt><trkpt lat="42.0208883" lon="-8.0144317"><ele>882.9999999999999</ele><time>2026-04-04T16:32:55.823Z</time></trkpt><trkpt lat="42.0209917" lon="-8.0144083"><ele>883.0</ele><time>2026-04-04T16:32:56.824Z</time></trkpt><trkpt lat="42.02108" lon="-8.01438"><ele>883.0</ele><time>2026-04-04T16:32:57.823Z</time></trkpt><trkpt lat="42.0211583" lon="-8.01434"><ele>883.0</ele><time>2026-04-04T16:32:58.823Z</time></trkpt><trkpt lat="42.02123" lon="-8.0143117"><ele>882.9999999999999</ele><time>2026-04-04T16:32:59.822Z</time></trkpt><trkpt lat="42.021305" lon="-8.01429"><ele>883.0</ele><time>2026-04-04T16:33:00.823Z</time></trkpt><trkpt lat="42.02139" lon="-8.0142733"><ele>883.0</ele><time>2026-04-04T16:33:01.823Z</time></trkpt><trkpt lat="42.0214867" lon="-8.0142617"><ele>883.0</ele><time>2026-04-04T16:33:02.823Z</time></trkpt><trkpt lat="42.021585" lon="-8.0142617"><ele>883.0</ele><time>2026-04-04T16:33:03.824Z</time></trkpt><trkpt lat="42.0216967" lon="-8.0142883"><ele>883.0</ele><time>2026-04-04T16:33:04.823Z</time></trkpt><trkpt lat="42.0218267" lon="-8.014325"><ele>883.0</ele><time>2026-04-04T16:33:05.824Z</time></trkpt><trkpt lat="42.0219533" lon="-8.014365"><ele>882.0</ele><time>2026-04-04T16:33:06.823Z</time></trkpt><trkpt lat="42.0220967" lon="-8.0144067"><ele>881.0</ele><time>2026-04-04T16:33:07.822Z</time></trkpt><trkpt lat="42.022255" lon="-8.014445"><ele>880.0</ele><time>2026-04-04T16:33:08.823Z</time></trkpt><trkpt lat="42.0224067" lon="-8.0145017"><ele>880.25</ele><time>2026-04-04T16:33:09.822Z</time></trkpt><trkpt lat="42.0225533" lon="-8.014565"><ele>880.5</ele><time>2026-04-04T16:33:10.823Z</time></trkpt><trkpt lat="42.0226967" lon="-8.0146417"><ele>880.75</ele><time>2026-04-04T16:33:11.823Z</time></trkpt><trkpt lat="42.022825" lon="-8.014705"><ele>881.0</ele><time>2026-04-04T16:33:12.823Z</time></trkpt><trkpt lat="42.02293" lon="-8.0147617"><ele>881.0000000000001</ele><time>2026-04-04T16:33:13.824Z</time></trkpt><trkpt lat="42.0230117" lon="-8.0147917"><ele>881.0</ele><time>2026-04-04T16:33:14.823Z</time></trkpt><trkpt lat="42.023075" lon="-8.014815"><ele>881.0</ele><time>2026-04-04T16:33:15.823Z</time></trkpt><trkpt lat="42.023175" lon="-8.0148317"><ele>881.0</ele><time>2026-04-04T16:33:17.823Z</time></trkpt><trkpt lat="42.0232467" lon="-8.0147983"><ele>881.0000000000001</ele><time>2026-04-04T16:33:19.823Z</time></trkpt><trkpt lat="42.023315" lon="-8.0147267"><ele>881.0</ele><time>2026-04-04T16:33:21.823Z</time></trkpt><trkpt lat="42.023375" lon="-8.0146983"><ele>880.8333333333334</ele><time>2026-04-04T16:33:23.823Z</time></trkpt><trkpt lat="42.0234317" lon="-8.014755"><ele>880.6666666666667</ele><time>2026-04-04T16:33:26.823Z</time></trkpt><trkpt lat="42.0234717" lon="-8.0148283"><ele>880.5</ele><time>2026-04-04T16:33:29.824Z</time></trkpt><trkpt lat="42.0235117" lon="-8.0149467"><ele>880.3333333333333</ele><time>2026-04-04T16:33:32.823Z</time></trkpt><trkpt lat="42.0235583" lon="-8.015045"><ele>880.1666666666666</ele><time>2026-04-04T16:33:34.823Z</time></trkpt><trkpt lat="42.0236333" lon="-8.0151717"><ele>880.0</ele><time>2026-04-04T16:33:36.823Z</time></trkpt><trkpt lat="42.0236767" lon="-8.0152467"><ele>879.5714285714286</ele><time>2026-04-04T16:33:37.823Z</time></trkpt><trkpt lat="42.0237267" lon="-8.01532"><ele>879.1428571428571</ele><time>2026-04-04T16:33:38.823Z</time></trkpt><trkpt lat="42.0237817" lon="-8.0153933"><ele>878.7142857142858</ele><time>2026-04-04T16:33:39.822Z</time></trkpt><trkpt lat="42.0238433" lon="-8.0154583"><ele>878.2857142857142</ele><time>2026-04-04T16:33:40.825Z</time></trkpt><trkpt lat="42.0239017" lon="-8.0155283"><ele>877.8571428571429</ele><time>2026-04-04T16:33:41.824Z</time></trkpt><trkpt lat="42.023955" lon="-8.0156"><ele>877.4285714285714</ele><time>2026-04-04T16:33:42.823Z</time></trkpt><trkpt lat="42.0240033" lon="-8.0156567"><ele>877.0</ele><time>2026-04-04T16:33:43.825Z</time></trkpt><trkpt lat="42.0240767" lon="-8.0157283"><ele>877.0</ele><time>2026-04-04T16:33:45.823Z</time></trkpt><trkpt lat="42.0241383" lon="-8.0157767"><ele>877.0</ele><time>2026-04-04T16:33:47.823Z</time></trkpt><trkpt lat="42.0240317" lon="-8.0157417"><ele>877.0</ele><time>2026-04-04T16:33:54.823Z</time></trkpt><trkpt lat="42.0239767" lon="-8.01568"><ele>877.0</ele><time>2026-04-04T16:33:55.823Z</time></trkpt><trkpt lat="42.0239117" lon="-8.0156"><ele>877.0</ele><time>2026-04-04T16:33:56.823Z</time></trkpt><trkpt lat="42.0238233" lon="-8.01549"><ele>877.0</ele><time>2026-04-04T16:33:57.823Z</time></trkpt><trkpt lat="42.0237317" lon="-8.0153733"><ele>877.0</ele><time>2026-04-04T16:33:58.824Z</time></trkpt><trkpt lat="42.0236583" lon="-8.01527"><ele>877.0</ele><time>2026-04-04T16:33:59.824Z</time></trkpt><trkpt lat="42.023595" lon="-8.015175"><ele>877.0</ele><time>2026-04-04T16:34:00.823Z</time></trkpt><trkpt lat="42.02354" lon="-8.0150867"><ele>877.0</ele><time>2026-04-04T16:34:01.823Z</time></trkpt><trkpt lat="42.0234667" lon="-8.0149867"><ele>877.4999999999999</ele><time>2026-04-04T16:34:02.823Z</time></trkpt><trkpt lat="42.0234167" lon="-8.0148917"><ele>878.0</ele><time>2026-04-04T16:34:03.823Z</time></trkpt><trkpt lat="42.02337" lon="-8.0148067"><ele>878.5</ele><time>2026-04-04T16:34:04.823Z</time></trkpt><trkpt lat="42.0233333" lon="-8.0147333"><ele>879.0</ele><time>2026-04-04T16:34:05.823Z</time></trkpt><trkpt lat="42.0233083" lon="-8.0146483"><ele>879.4999999999999</ele><time>2026-04-04T16:34:07.823Z</time></trkpt><trkpt lat="42.02334" lon="-8.0145283"><ele>880.0</ele><time>2026-04-04T16:34:10.823Z</time></trkpt><trkpt lat="42.0233983" lon="-8.0144383"><ele>879.9999999999999</ele><time>2026-04-04T16:34:12.824Z</time></trkpt><trkpt lat="42.0234383" lon="-8.0143717"><ele>880.0</ele><time>2026-04-04T16:34:14.823Z</time></trkpt><trkpt lat="42.0235" lon="-8.014285"><ele>880.0</ele><time>2026-04-04T16:34:17.824Z</time></trkpt><trkpt lat="42.0235467" lon="-8.0141983"><ele>880.0</ele><time>2026-04-04T16:34:19.823Z</time></trkpt><trkpt lat="42.0236083" lon="-8.01411"><ele>879.9999999999999</ele><time>2026-04-04T16:34:21.824Z</time></trkpt><trkpt lat="42.0237033" lon="-8.0140033"><ele>880.0</ele><time>2026-04-04T16:34:23.824Z</time></trkpt><trkpt lat="42.02381" lon="-8.0139067"><ele>880.4999999999999</ele><time>2026-04-04T16:34:25.823Z</time></trkpt><trkpt lat="42.0238667" lon="-8.0138617"><ele>881.0</ele><time>2026-04-04T16:34:26.824Z</time></trkpt><trkpt lat="42.0239717" lon="-8.01379"><ele>881.5</ele><time>2026-04-04T16:34:28.823Z</time></trkpt><trkpt lat="42.0240367" lon="-8.013755"><ele>882.0</ele><time>2026-04-04T16:34:29.824Z</time></trkpt><trkpt lat="42.0241383" lon="-8.0137133"><ele>882.4999999999999</ele><time>2026-04-04T16:34:31.824Z</time></trkpt><trkpt lat="42.02421" lon="-8.01369"><ele>883.0</ele><time>2026-04-04T16:34:33.824Z</time></trkpt><trkpt lat="42.0242717" lon="-8.0136617"><ele>881.0</ele><time>2026-04-04T16:34:35.824Z</time></trkpt><trkpt lat="42.0243667" lon="-8.0136083"><ele>879.0</ele><time>2026-04-04T16:34:37.823Z</time></trkpt><trkpt lat="42.0244683" lon="-8.0135483"><ele>877.0</ele><time>2026-04-04T16:34:39.823Z</time></trkpt><trkpt lat="42.0245633" lon="-8.0134983"><ele>875.0</ele><time>2026-04-04T16:34:41.824Z</time></trkpt><trkpt lat="42.0246467" lon="-8.0134383"><ele>873.0</ele><time>2026-04-04T16:34:43.824Z</time></trkpt><trkpt lat="42.02471" lon="-8.0133817"><ele>873.1666666666666</ele><time>2026-04-04T16:34:45.823Z</time></trkpt><trkpt lat="42.02477" lon="-8.0133017"><ele>873.3333333333333</ele><time>2026-04-04T16:34:47.823Z</time></trkpt><trkpt lat="42.0248117" lon="-8.0132233"><ele>873.5</ele><time>2026-04-04T16:34:49.824Z</time></trkpt><trkpt lat="42.0248567" lon="-8.0131383"><ele>873.6666666666666</ele><time>2026-04-04T16:34:51.823Z</time></trkpt><trkpt lat="42.0249267" lon="-8.0130317"><ele>873.8333333333333</ele><time>2026-04-04T16:34:53.825Z</time></trkpt><trkpt lat="42.0249767" lon="-8.0129517"><ele>874.0</ele><time>2026-04-04T16:34:55.823Z</time></trkpt><trkpt lat="42.0250367" lon="-8.01287"><ele>871.8333333333333</ele><time>2026-04-04T16:34:58.823Z</time></trkpt><trkpt lat="42.0250767" lon="-8.0128"><ele>869.6666666666666</ele><time>2026-04-04T16:35:00.824Z</time></trkpt><trkpt lat="42.0251083" lon="-8.0127183"><ele>867.5</ele><time>2026-04-04T16:35:02.823Z</time></trkpt><trkpt lat="42.0251333" lon="-8.012635"><ele>865.3333333333333</ele><time>2026-04-04T16:35:04.823Z</time></trkpt><trkpt lat="42.0251667" lon="-8.0125083"><ele>863.1666666666666</ele><time>2026-04-04T16:35:06.824Z</time></trkpt><trkpt lat="42.0251783" lon="-8.012405"><ele>861.0</ele><time>2026-04-04T16:35:08.824Z</time></trkpt><trkpt lat="42.0252067" lon="-8.0122983"><ele>860.6666666666666</ele><time>2026-04-04T16:35:10.824Z</time></trkpt><trkpt lat="42.0252267" lon="-8.0122"><ele>860.3333333333333</ele><time>2026-04-04T16:35:12.824Z</time></trkpt><trkpt lat="42.0252683" lon="-8.0120883"><ele>860.0</ele><time>2026-04-04T16:35:14.823Z</time></trkpt><trkpt lat="42.0252967" lon="-8.0120083"><ele>859.6666666666666</ele><time>2026-04-04T16:35:16.823Z</time></trkpt><trkpt lat="42.0253267" lon="-8.0119217"><ele>859.3333333333333</ele><time>2026-04-04T16:35:19.823Z</time></trkpt><trkpt lat="42.0253667" lon="-8.01181"><ele>859.0</ele><time>2026-04-04T16:35:22.822Z</time></trkpt><trkpt lat="42.0254183" lon="-8.0117433"><ele>859.4000000000001</ele><time>2026-04-04T16:35:24.823Z</time></trkpt><trkpt lat="42.025475" lon="-8.0116533"><ele>859.8000000000001</ele><time>2026-04-04T16:35:26.823Z</time></trkpt><trkpt lat="42.0255383" lon="-8.0115333"><ele>860.1999999999999</ele><time>2026-04-04T16:35:29.823Z</time></trkpt><trkpt lat="42.025605" lon="-8.0114333"><ele>860.5999999999999</ele><time>2026-04-04T16:35:32.824Z</time></trkpt><trkpt lat="42.02566" lon="-8.0113383"><ele>861.0</ele><time>2026-04-04T16:35:35.823Z</time></trkpt><trkpt lat="42.0256983" lon="-8.011265"><ele>861.0</ele><time>2026-04-04T16:35:37.822Z</time></trkpt><trkpt lat="42.0257383" lon="-8.0111883"><ele>860.9999999999999</ele><time>2026-04-04T16:35:39.822Z</time></trkpt><trkpt lat="42.0257867" lon="-8.011105"><ele>860.9999999999999</ele><time>2026-04-04T16:35:41.823Z</time></trkpt><trkpt lat="42.0258417" lon="-8.010955"><ele>861.0</ele><time>2026-04-04T16:35:43.823Z</time></trkpt><trkpt lat="42.0258733" lon="-8.0108117"><ele>861.0</ele><time>2026-04-04T16:35:45.822Z</time></trkpt><trkpt lat="42.0259083" lon="-8.0106617"><ele>859.0</ele><time>2026-04-04T16:35:47.823Z</time></trkpt><trkpt lat="42.0259417" lon="-8.0105333"><ele>856.9999999999999</ele><time>2026-04-04T16:35:49.822Z</time></trkpt><trkpt lat="42.025985" lon="-8.0104267"><ele>855.0</ele><time>2026-04-04T16:35:51.822Z</time></trkpt><trkpt lat="42.026055" lon="-8.0103367"><ele>853.0</ele><time>2026-04-04T16:35:53.823Z</time></trkpt><trkpt lat="42.02612" lon="-8.0102383"><ele>851.0</ele><time>2026-04-04T16:35:55.822Z</time></trkpt><trkpt lat="42.0261967" lon="-8.0101067"><ele>851.0</ele><time>2026-04-04T16:35:57.823Z</time></trkpt><trkpt lat="42.0262383" lon="-8.0100283"><ele>851.0</ele><time>2026-04-04T16:35:58.822Z</time></trkpt><trkpt lat="42.0262967" lon="-8.0099267"><ele>851.0</ele><time>2026-04-04T16:35:59.823Z</time></trkpt><trkpt lat="42.02636" lon="-8.0098167"><ele>851.0</ele><time>2026-04-04T16:36:00.824Z</time></trkpt><trkpt lat="42.0264267" lon="-8.00971"><ele>851.0</ele><time>2026-04-04T16:36:01.823Z</time></trkpt><trkpt lat="42.0264967" lon="-8.009595"><ele>851.75</ele><time>2026-04-04T16:36:02.822Z</time></trkpt><trkpt lat="42.0265817" lon="-8.0094783"><ele>852.5</ele><time>2026-04-04T16:36:03.822Z</time></trkpt><trkpt lat="42.026655" lon="-8.0093817"><ele>853.25</ele><time>2026-04-04T16:36:04.822Z</time></trkpt><trkpt lat="42.02673" lon="-8.0092683"><ele>854.0</ele><time>2026-04-04T16:36:05.823Z</time></trkpt><trkpt lat="42.0268033" lon="-8.0091417"><ele>854.0</ele><time>2026-04-04T16:36:06.823Z</time></trkpt><trkpt lat="42.0268833" lon="-8.00901"><ele>854.0000000000001</ele><time>2026-04-04T16:36:07.823Z</time></trkpt><trkpt lat="42.02696" lon="-8.00888"><ele>854.0000000000001</ele><time>2026-04-04T16:36:08.825Z</time></trkpt><trkpt lat="42.0270167" lon="-8.00877"><ele>854.0</ele><time>2026-04-04T16:36:09.822Z</time></trkpt><trkpt lat="42.0270717" lon="-8.0086617"><ele>854.0</ele><time>2026-04-04T16:36:10.823Z</time></trkpt><trkpt lat="42.027115" lon="-8.0085433"><ele>854.0</ele><time>2026-04-04T16:36:11.823Z</time></trkpt><trkpt lat="42.0271617" lon="-8.0084233"><ele>854.0000000000001</ele><time>2026-04-04T16:36:12.823Z</time></trkpt><trkpt lat="42.0272183" lon="-8.0082917"><ele>854.0000000000001</ele><time>2026-04-04T16:36:13.822Z</time></trkpt><trkpt lat="42.0272767" lon="-8.00815"><ele>854.0</ele><time>2026-04-04T16:36:14.824Z</time></trkpt><trkpt lat="42.027325" lon="-8.0080233"><ele>854.0</ele><time>2026-04-04T16:36:15.822Z</time></trkpt><trkpt lat="42.0273833" lon="-8.0079217"><ele>854.3333333333334</ele><time>2026-04-04T16:36:16.822Z</time></trkpt><trkpt lat="42.0274383" lon="-8.0078317"><ele>854.6666666666667</ele><time>2026-04-04T16:36:17.822Z</time></trkpt><trkpt lat="42.0274983" lon="-8.0077567"><ele>855.0</ele><time>2026-04-04T16:36:18.823Z</time></trkpt><trkpt lat="42.0275583" lon="-8.0076733"><ele>855.3333333333333</ele><time>2026-04-04T16:36:19.823Z</time></trkpt><trkpt lat="42.0276267" lon="-8.00758"><ele>855.6666666666666</ele><time>2026-04-04T16:36:20.823Z</time></trkpt><trkpt lat="42.027695" lon="-8.00749"><ele>856.0</ele><time>2026-04-04T16:36:21.822Z</time></trkpt><trkpt lat="42.0277683" lon="-8.00738"><ele>853.6666666666666</ele><time>2026-04-04T16:36:22.823Z</time></trkpt><trkpt lat="42.0278383" lon="-8.0072783"><ele>851.3333333333333</ele><time>2026-04-04T16:36:23.823Z</time></trkpt><trkpt lat="42.02789" lon="-8.0071833"><ele>849.0</ele><time>2026-04-04T16:36:24.823Z</time></trkpt><trkpt lat="42.02794" lon="-8.0070967"><ele>846.6666666666667</ele><time>2026-04-04T16:36:25.823Z</time></trkpt><trkpt lat="42.028" lon="-8.007015"><ele>844.3333333333334</ele><time>2026-04-04T16:36:26.823Z</time></trkpt><trkpt lat="42.0280667" lon="-8.0069317"><ele>842.0</ele><time>2026-04-04T16:36:27.823Z</time></trkpt><trkpt lat="42.0281283" lon="-8.0068483"><ele>842.0000000000001</ele><time>2026-04-04T16:36:28.822Z</time></trkpt><trkpt lat="42.028175" lon="-8.0067583"><ele>842.0</ele><time>2026-04-04T16:36:29.822Z</time></trkpt><trkpt lat="42.02821" lon="-8.0066667"><ele>842.0</ele><time>2026-04-04T16:36:30.823Z</time></trkpt><trkpt lat="42.0282367" lon="-8.0065733"><ele>842.0</ele><time>2026-04-04T16:36:31.822Z</time></trkpt><trkpt lat="42.02826" lon="-8.0064733"><ele>842.0000000000001</ele><time>2026-04-04T16:36:32.823Z</time></trkpt><trkpt lat="42.0282867" lon="-8.0063617"><ele>842.0</ele><time>2026-04-04T16:36:33.823Z</time></trkpt><trkpt lat="42.0283033" lon="-8.0062617"><ele>838.5000000000001</ele><time>2026-04-04T16:36:34.822Z</time></trkpt><trkpt lat="42.0283233" lon="-8.0061217"><ele>835.0</ele><time>2026-04-04T16:36:36.824Z</time></trkpt><trkpt lat="42.0283533" lon="-8.006035"><ele>831.5</ele><time>2026-04-04T16:36:38.824Z</time></trkpt><trkpt lat="42.0283733" lon="-8.0059517"><ele>828.0</ele><time>2026-04-04T16:36:40.823Z</time></trkpt><trkpt lat="42.0284067" lon="-8.0058467"><ele>824.5000000000001</ele><time>2026-04-04T16:36:42.823Z</time></trkpt><trkpt lat="42.0284233" lon="-8.00576"><ele>821.0</ele><time>2026-04-04T16:36:43.823Z</time></trkpt><trkpt lat="42.02843" lon="-8.0056617"><ele>820.8333333333334</ele><time>2026-04-04T16:36:44.823Z</time></trkpt><trkpt lat="42.0284317" lon="-8.0055333"><ele>820.6666666666667</ele><time>2026-04-04T16:36:45.823Z</time></trkpt><trkpt lat="42.0284217" lon="-8.0054117"><ele>820.5</ele><time>2026-04-04T16:36:46.823Z</time></trkpt><trkpt lat="42.028405" lon="-8.0053017"><ele>820.3333333333333</ele><time>2026-04-04T16:36:47.823Z</time></trkpt><trkpt lat="42.0283867" lon="-8.0052117"><ele>820.1666666666666</ele><time>2026-04-04T16:36:48.823Z</time></trkpt><trkpt lat="42.0283633" lon="-8.0051283"><ele>820.0</ele><time>2026-04-04T16:36:49.823Z</time></trkpt><trkpt lat="42.0283417" lon="-8.005035"><ele>819.6666666666666</ele><time>2026-04-04T16:36:51.824Z</time></trkpt><trkpt lat="42.0283267" lon="-8.0049483"><ele>819.3333333333333</ele><time>2026-04-04T16:36:55.824Z</time></trkpt><trkpt lat="42.0282517" lon="-8.00491"><ele>819.0</ele><time>2026-04-04T16:37:15.825Z</time></trkpt><trkpt lat="42.028195" lon="-8.0048667"><ele>818.6666666666667</ele><time>2026-04-04T16:37:26.826Z</time></trkpt><trkpt lat="42.0282867" lon="-8.0048867"><ele>818.3333333333334</ele><time>2026-04-04T16:37:42.823Z</time></trkpt><trkpt lat="42.0282217" lon="-8.00482"><ele>818.0</ele><time>2026-04-04T16:38:05.823Z</time></trkpt><trkpt lat="42.0281733" lon="-8.0047533"><ele>818.0000000000001</ele><time>2026-04-04T16:38:07.824Z</time></trkpt><trkpt lat="42.02812" lon="-8.0046983"><ele>818.0</ele><time>2026-04-04T16:38:09.823Z</time></trkpt><trkpt lat="42.02806" lon="-8.0046467"><ele>818.0</ele><time>2026-04-04T16:38:11.823Z</time></trkpt><trkpt lat="42.02798" lon="-8.004565"><ele>818.0</ele><time>2026-04-04T16:38:13.823Z</time></trkpt><trkpt lat="42.02792" lon="-8.0045183"><ele>818.0000000000001</ele><time>2026-04-04T16:38:14.824Z</time></trkpt><trkpt lat="42.0278567" lon="-8.0044783"><ele>818.0</ele><time>2026-04-04T16:38:15.824Z</time></trkpt><trkpt lat="42.0277883" lon="-8.0044317"><ele>818.0</ele><time>2026-04-04T16:38:16.825Z</time></trkpt><trkpt lat="42.0277117" lon="-8.0043683"><ele>818.0</ele><time>2026-04-04T16:38:17.823Z</time></trkpt><trkpt lat="42.0276333" lon="-8.0043017"><ele>818.0</ele><time>2026-04-04T16:38:18.823Z</time></trkpt><trkpt lat="42.02756" lon="-8.0042383"><ele>818.0</ele><time>2026-04-04T16:38:19.823Z</time></trkpt><trkpt lat="42.027465" lon="-8.004125"><ele>818.0</ele><time>2026-04-04T16:38:21.823Z</time></trkpt><trkpt lat="42.027415" lon="-8.00406"><ele>817.0</ele><time>2026-04-04T16:38:22.824Z</time></trkpt><trkpt lat="42.0273617" lon="-8.0039917"><ele>816.0</ele><time>2026-04-04T16:38:23.824Z</time></trkpt><trkpt lat="42.02731" lon="-8.0039133"><ele>815.0</ele><time>2026-04-04T16:38:24.823Z</time></trkpt><trkpt lat="42.02726" lon="-8.0038417"><ele>814.0</ele><time>2026-04-04T16:38:25.824Z</time></trkpt><trkpt lat="42.02718" lon="-8.0037267"><ele>813.0</ele><time>2026-04-04T16:38:27.824Z</time></trkpt><trkpt lat="42.027095" lon="-8.0036067"><ele>813.0</ele><time>2026-04-04T16:38:29.823Z</time></trkpt><trkpt lat="42.0270533" lon="-8.0035333"><ele>813.0</ele><time>2026-04-04T16:38:30.825Z</time></trkpt><trkpt lat="42.0270167" lon="-8.0034617"><ele>813.0</ele><time>2026-04-04T16:38:31.823Z</time></trkpt><trkpt lat="42.0269917" lon="-8.0033833"><ele>813.0</ele><time>2026-04-04T16:38:32.824Z</time></trkpt><trkpt lat="42.026975" lon="-8.0032767"><ele>813.0</ele><time>2026-04-04T16:38:33.823Z</time></trkpt><trkpt lat="42.0269667" lon="-8.0031683"><ele>813.0</ele><time>2026-04-04T16:38:34.823Z</time></trkpt><trkpt lat="42.02697" lon="-8.0030483"><ele>813.0</ele><time>2026-04-04T16:38:35.824Z</time></trkpt><trkpt lat="42.0269767" lon="-8.0029183"><ele>811.8</ele><time>2026-04-04T16:38:36.824Z</time></trkpt><trkpt lat="42.02698" lon="-8.0027867"><ele>810.5999999999999</ele><time>2026-04-04T16:38:37.823Z</time></trkpt><trkpt lat="42.0269783" lon="-8.0026533"><ele>809.4000000000001</ele><time>2026-04-04T16:38:38.823Z</time></trkpt><trkpt lat="42.026965" lon="-8.002525"><ele>808.2</ele><time>2026-04-04T16:38:39.824Z</time></trkpt><trkpt lat="42.0269233" lon="-8.0024067"><ele>807.0</ele><time>2026-04-04T16:38:40.824Z</time></trkpt><trkpt lat="42.0268833" lon="-8.0023167"><ele>808.2</ele><time>2026-04-04T16:38:41.823Z</time></trkpt><trkpt lat="42.0268467" lon="-8.002235"><ele>809.4000000000001</ele><time>2026-04-04T16:38:42.823Z</time></trkpt><trkpt lat="42.0267567" lon="-8.00211"><ele>810.5999999999999</ele><time>2026-04-04T16:38:44.824Z</time></trkpt><trkpt lat="42.0266883" lon="-8.002055"><ele>811.8</ele><time>2026-04-04T16:38:45.823Z</time></trkpt><trkpt lat="42.0266167" lon="-8.002"><ele>813.0</ele><time>2026-04-04T16:38:46.825Z</time></trkpt><trkpt lat="42.0265033" lon="-8.00197"><ele>813.0</ele><time>2026-04-04T16:38:47.825Z</time></trkpt><trkpt lat="42.0264083" lon="-8.0019117"><ele>813.0</ele><time>2026-04-04T16:38:48.823Z</time></trkpt><trkpt lat="42.0263217" lon="-8.0018417"><ele>813.0</ele><time>2026-04-04T16:38:49.824Z</time></trkpt><trkpt lat="42.026225" lon="-8.0017583"><ele>813.0</ele><time>2026-04-04T16:38:50.823Z</time></trkpt><trkpt lat="42.026125" lon="-8.0016783"><ele>813.0</ele><time>2026-04-04T16:38:51.823Z</time></trkpt><trkpt lat="42.0260417" lon="-8.0015933"><ele>811.2</ele><time>2026-04-04T16:38:52.825Z</time></trkpt><trkpt lat="42.0259667" lon="-8.0014933"><ele>809.4</ele><time>2026-04-04T16:38:53.823Z</time></trkpt><trkpt lat="42.0258867" lon="-8.0013967"><ele>807.6</ele><time>2026-04-04T16:38:54.823Z</time></trkpt><trkpt lat="42.02581" lon="-8.0013333"><ele>805.8000000000001</ele><time>2026-04-04T16:38:55.823Z</time></trkpt><trkpt lat="42.0257233" lon="-8.0012733"><ele>804.0</ele><time>2026-04-04T16:38:56.825Z</time></trkpt><trkpt lat="42.0256517" lon="-8.00122"><ele>804.0</ele><time>2026-04-04T16:38:57.824Z</time></trkpt><trkpt lat="42.0255717" lon="-8.00118"><ele>804.0</ele><time>2026-04-04T16:38:58.823Z</time></trkpt><trkpt lat="42.0254933" lon="-8.001155"><ele>804.0</ele><time>2026-04-04T16:38:59.823Z</time></trkpt><trkpt lat="42.0254267" lon="-8.0011233"><ele>804.0</ele><time>2026-04-04T16:39:00.823Z</time></trkpt><trkpt lat="42.0253183" lon="-8.0010633"><ele>804.0</ele><time>2026-04-04T16:39:02.823Z</time></trkpt><trkpt lat="42.0252617" lon="-8.0010183"><ele>804.0</ele><time>2026-04-04T16:39:03.825Z</time></trkpt><trkpt lat="42.025205" lon="-8.0009683"><ele>804.0</ele><time>2026-04-04T16:39:04.823Z</time></trkpt><trkpt lat="42.0251583" lon="-8.000895"><ele>804.0</ele><time>2026-04-04T16:39:05.824Z</time></trkpt><trkpt lat="42.0250767" lon="-8.0008167"><ele>804.0</ele><time>2026-04-04T16:39:06.826Z</time></trkpt><trkpt lat="42.02497" lon="-8.0007167"><ele>804.0</ele><time>2026-04-04T16:39:07.823Z</time></trkpt><trkpt lat="42.0248733" lon="-8.00061"><ele>804.0</ele><time>2026-04-04T16:39:08.823Z</time></trkpt><trkpt lat="42.024785" lon="-8.0005267"><ele>803.6666666666666</ele><time>2026-04-04T16:39:09.823Z</time></trkpt><trkpt lat="42.0247183" lon="-8.0004583"><ele>803.3333333333333</ele><time>2026-04-04T16:39:10.824Z</time></trkpt><trkpt lat="42.0246417" lon="-8.00037"><ele>803.0</ele><time>2026-04-04T16:39:11.823Z</time></trkpt><trkpt lat="42.0245917" lon="-8.0002683"><ele>802.6666666666666</ele><time>2026-04-04T16:39:12.824Z</time></trkpt><trkpt lat="42.0245467" lon="-8.0001717"><ele>802.3333333333333</ele><time>2026-04-04T16:39:13.823Z</time></trkpt><trkpt lat="42.02451" lon="-8.0000633"><ele>802.0</ele><time>2026-04-04T16:39:14.824Z</time></trkpt><trkpt lat="42.024455" lon="-7.9999783"><ele>802.0</ele><time>2026-04-04T16:39:15.823Z</time></trkpt><trkpt lat="42.0243967" lon="-7.9999"><ele>802.0</ele><time>2026-04-04T16:39:16.824Z</time></trkpt><trkpt lat="42.0243367" lon="-7.9998333"><ele>802.0</ele><time>2026-04-04T16:39:17.824Z</time></trkpt><trkpt lat="42.0242733" lon="-7.9997817"><ele>802.0</ele><time>2026-04-04T16:39:18.823Z</time></trkpt><trkpt lat="42.0241533" lon="-7.9996983"><ele>802.0</ele><time>2026-04-04T16:39:20.824Z</time></trkpt><trkpt lat="42.0240933" lon="-7.9996133"><ele>802.9999999999999</ele><time>2026-04-04T16:39:21.823Z</time></trkpt><trkpt lat="42.0240333" lon="-7.9995733"><ele>804.0</ele><time>2026-04-04T16:39:22.823Z</time></trkpt><trkpt lat="42.02393" lon="-7.9995267"><ele>805.0</ele><time>2026-04-04T16:39:24.825Z</time></trkpt><trkpt lat="42.0238417" lon="-7.9994783"><ele>806.0</ele><time>2026-04-04T16:39:26.824Z</time></trkpt><trkpt lat="42.0237733" lon="-7.9994317"><ele>806.9999999999999</ele><time>2026-04-04T16:39:29.823Z</time></trkpt><trkpt lat="42.0238383" lon="-7.999435"><ele>808.0</ele><time>2026-04-04T16:39:34.825Z</time></trkpt><trkpt lat="42.0239417" lon="-7.99945"><ele>807.9999999999999</ele><time>2026-04-04T16:39:36.825Z</time></trkpt><trkpt lat="42.024005" lon="-7.99946"><ele>808.0</ele><time>2026-04-04T16:39:37.823Z</time></trkpt><trkpt lat="42.0241033" lon="-7.9995"><ele>808.0</ele><time>2026-04-04T16:39:39.826Z</time></trkpt><trkpt lat="42.0241783" lon="-7.9995567"><ele>808.0</ele><time>2026-04-04T16:39:41.824Z</time></trkpt><trkpt lat="42.024255" lon="-7.9995417"><ele>807.9999999999999</ele><time>2026-04-04T16:45:34.823Z</time></trkpt><trkpt lat="42.0243133" lon="-7.999625"><ele>808.0</ele><time>2026-04-04T16:45:37.823Z</time></trkpt><trkpt lat="42.0243467" lon="-7.9997467"><ele>806.8</ele><time>2026-04-04T16:45:39.823Z</time></trkpt><trkpt lat="42.0243883" lon="-7.999845"><ele>805.5999999999999</ele><time>2026-04-04T16:45:41.823Z</time></trkpt><trkpt lat="42.0244417" lon="-7.9999233"><ele>804.4000000000001</ele><time>2026-04-04T16:45:43.824Z</time></trkpt><trkpt lat="42.0245233" lon="-7.999995"><ele>803.2</ele><time>2026-04-04T16:45:45.823Z</time></trkpt><trkpt lat="42.0246" lon="-8.0000617"><ele>802.0</ele><time>2026-04-04T16:45:47.824Z</time></trkpt><trkpt lat="42.0246817" lon="-8.00014"><ele>802.0</ele><time>2026-04-04T16:45:49.823Z</time></trkpt><trkpt lat="42.0247683" lon="-8.00024"><ele>802.0</ele><time>2026-04-04T16:45:51.823Z</time></trkpt><trkpt lat="42.0248733" lon="-8.0003717"><ele>802.0</ele><time>2026-04-04T16:45:53.824Z</time></trkpt><trkpt lat="42.02492" lon="-8.0004433"><ele>802.0</ele><time>2026-04-04T16:45:54.824Z</time></trkpt><trkpt lat="42.0249933" lon="-8.0005517"><ele>802.0</ele><time>2026-04-04T16:45:56.824Z</time></trkpt><trkpt lat="42.0250767" lon="-8.000635"><ele>802.4000000000001</ele><time>2026-04-04T16:45:58.824Z</time></trkpt><trkpt lat="42.0251317" lon="-8.0006817"><ele>802.8000000000001</ele><time>2026-04-04T16:45:59.824Z</time></trkpt><trkpt lat="42.0252583" lon="-8.0007517"><ele>803.2</ele><time>2026-04-04T16:46:01.823Z</time></trkpt><trkpt lat="42.0253333" lon="-8.000775"><ele>803.6</ele><time>2026-04-04T16:46:02.823Z</time></trkpt><trkpt lat="42.0254133" lon="-8.0008033"><ele>804.0</ele><time>2026-04-04T16:46:03.823Z</time></trkpt><trkpt lat="42.0255033" lon="-8.000845"><ele>804.0</ele><time>2026-04-04T16:46:04.824Z</time></trkpt><trkpt lat="42.025585" lon="-8.0009033"><ele>804.0</ele><time>2026-04-04T16:46:05.823Z</time></trkpt><trkpt lat="42.0256433" lon="-8.0009683"><ele>804.0</ele><time>2026-04-04T16:46:06.823Z</time></trkpt><trkpt lat="42.0257033" lon="-8.0010383"><ele>804.0</ele><time>2026-04-04T16:46:07.823Z</time></trkpt><trkpt lat="42.0257633" lon="-8.00113"><ele>804.0</ele><time>2026-04-04T16:46:08.823Z</time></trkpt><trkpt lat="42.0258167" lon="-8.0012183"><ele>804.0</ele><time>2026-04-04T16:46:09.823Z</time></trkpt><trkpt lat="42.025875" lon="-8.0012983"><ele>801.8000000000001</ele><time>2026-04-04T16:46:10.823Z</time></trkpt><trkpt lat="42.0259383" lon="-8.00137"><ele>799.6</ele><time>2026-04-04T16:46:11.824Z</time></trkpt><trkpt lat="42.0260183" lon="-8.0014367"><ele>797.4</ele><time>2026-04-04T16:46:12.823Z</time></trkpt><trkpt lat="42.02611" lon="-8.0015133"><ele>795.2</ele><time>2026-04-04T16:46:13.823Z</time></trkpt><trkpt lat="42.02618" lon="-8.0015667"><ele>793.0</ele><time>2026-04-04T16:46:14.823Z</time></trkpt><trkpt lat="42.0262583" lon="-8.0016383"><ele>794.4</ele><time>2026-04-04T16:46:15.824Z</time></trkpt><trkpt lat="42.02634" lon="-8.0016933"><ele>795.8</ele><time>2026-04-04T16:46:16.823Z</time></trkpt><trkpt lat="42.02642" lon="-8.0017517"><ele>797.2</ele><time>2026-04-04T16:46:17.823Z</time></trkpt><trkpt lat="42.0265133" lon="-8.0017933"><ele>798.6</ele><time>2026-04-04T16:46:18.823Z</time></trkpt><trkpt lat="42.0266033" lon="-8.0018733"><ele>800.0</ele><time>2026-04-04T16:46:19.823Z</time></trkpt><trkpt lat="42.0266833" lon="-8.0019217"><ele>800.0</ele><time>2026-04-04T16:46:20.825Z</time></trkpt><trkpt lat="42.0267583" lon="-8.0019867"><ele>800.0</ele><time>2026-04-04T16:46:21.823Z</time></trkpt><trkpt lat="42.0268283" lon="-8.0020617"><ele>800.0</ele><time>2026-04-04T16:46:22.824Z</time></trkpt><trkpt lat="42.026885" lon="-8.00215"><ele>800.0</ele><time>2026-04-04T16:46:23.824Z</time></trkpt><trkpt lat="42.026945" lon="-8.0022617"><ele>800.0</ele><time>2026-04-04T16:46:24.824Z</time></trkpt><trkpt lat="42.0269817" lon="-8.00237"><ele>800.0</ele><time>2026-04-04T16:46:25.824Z</time></trkpt><trkpt lat="42.0269933" lon="-8.0024883"><ele>800.0</ele><time>2026-04-04T16:46:26.825Z</time></trkpt><trkpt lat="42.0269917" lon="-8.00264"><ele>800.0</ele><time>2026-04-04T16:46:27.825Z</time></trkpt><trkpt lat="42.0269733" lon="-8.0027883"><ele>800.0</ele><time>2026-04-04T16:46:28.824Z</time></trkpt><trkpt lat="42.026955" lon="-8.002915"><ele>800.0</ele><time>2026-04-04T16:46:29.824Z</time></trkpt><trkpt lat="42.026935" lon="-8.0030483"><ele>801.1666666666667</ele><time>2026-04-04T16:46:30.824Z</time></trkpt><trkpt lat="42.0269433" lon="-8.0031517"><ele>802.3333333333334</ele><time>2026-04-04T16:46:31.824Z</time></trkpt><trkpt lat="42.0269717" lon="-8.00327"><ele>803.5</ele><time>2026-04-04T16:46:32.824Z</time></trkpt><trkpt lat="42.0270083" lon="-8.0033583"><ele>804.6666666666667</ele><time>2026-04-04T16:46:33.825Z</time></trkpt><trkpt lat="42.0270483" lon="-8.0034433"><ele>805.8333333333334</ele><time>2026-04-04T16:46:34.825Z</time></trkpt><trkpt lat="42.0270867" lon="-8.0035333"><ele>807.0</ele><time>2026-04-04T16:46:35.824Z</time></trkpt><trkpt lat="42.0271517" lon="-8.0036283"><ele>806.4000000000001</ele><time>2026-04-04T16:46:36.824Z</time></trkpt><trkpt lat="42.0272167" lon="-8.0037183"><ele>805.8000000000001</ele><time>2026-04-04T16:46:37.824Z</time></trkpt><trkpt lat="42.027285" lon="-8.0038033"><ele>805.2</ele><time>2026-04-04T16:46:38.824Z</time></trkpt><trkpt lat="42.0273417" lon="-8.0038817"><ele>804.6</ele><time>2026-04-04T16:46:39.825Z</time></trkpt><trkpt lat="42.0274183" lon="-8.0039833"><ele>804.0</ele><time>2026-04-04T16:46:40.824Z</time></trkpt><trkpt lat="42.0274933" lon="-8.0040733"><ele>804.0</ele><time>2026-04-04T16:46:41.824Z</time></trkpt><trkpt lat="42.0275717" lon="-8.0041533"><ele>804.0</ele><time>2026-04-04T16:46:42.825Z</time></trkpt><trkpt lat="42.02765" lon="-8.0042167"><ele>804.0</ele><time>2026-04-04T16:46:43.824Z</time></trkpt><trkpt lat="42.0277433" lon="-8.0042933"><ele>804.0</ele><time>2026-04-04T16:46:44.824Z</time></trkpt><trkpt lat="42.027825" lon="-8.004365"><ele>804.0</ele><time>2026-04-04T16:46:45.824Z</time></trkpt><trkpt lat="42.0279" lon="-8.004445"><ele>806.8000000000001</ele><time>2026-04-04T16:46:46.825Z</time></trkpt><trkpt lat="42.0279683" lon="-8.0045283"><ele>809.6</ele><time>2026-04-04T16:46:47.824Z</time></trkpt><trkpt lat="42.0280283" lon="-8.00462"><ele>812.4</ele><time>2026-04-04T16:46:48.824Z</time></trkpt><trkpt lat="42.0280933" lon="-8.00473"><ele>815.2</ele><time>2026-04-04T16:46:49.824Z</time></trkpt><trkpt lat="42.0281567" lon="-8.0048417"><ele>818.0</ele><time>2026-04-04T16:46:50.824Z</time></trkpt><trkpt lat="42.0282133" lon="-8.004935"><ele>818.3333333333334</ele><time>2026-04-04T16:46:51.824Z</time></trkpt><trkpt lat="42.0282683" lon="-8.0050167"><ele>818.6666666666667</ele><time>2026-04-04T16:46:52.824Z</time></trkpt><trkpt lat="42.028335" lon="-8.00508"><ele>819.0</ele><time>2026-04-04T16:46:53.824Z</time></trkpt><trkpt lat="42.028395" lon="-8.0051333"><ele>819.3333333333333</ele><time>2026-04-04T16:46:54.828Z</time></trkpt><trkpt lat="42.0285017" lon="-8.0052183"><ele>819.6666666666666</ele><time>2026-04-04T16:46:56.822Z</time></trkpt><trkpt lat="42.028565" lon="-8.0052517"><ele>820.0</ele><time>2026-04-04T16:46:57.824Z</time></trkpt><trkpt lat="42.0286783" lon="-8.00532"><ele>820.0</ele><time>2026-04-04T16:46:59.822Z</time></trkpt><trkpt lat="42.02878" lon="-8.0053983"><ele>820.0</ele><time>2026-04-04T16:47:01.823Z</time></trkpt><trkpt lat="42.0289033" lon="-8.0054567"><ele>820.0</ele><time>2026-04-04T16:47:03.822Z</time></trkpt><trkpt lat="42.0289767" lon="-8.0054867"><ele>820.0</ele><time>2026-04-04T16:47:04.822Z</time></trkpt><trkpt lat="42.029045" lon="-8.0055133"><ele>820.0</ele><time>2026-04-04T16:47:05.823Z</time></trkpt><trkpt lat="42.0291583" lon="-8.00553"><ele>819.2</ele><time>2026-04-04T16:47:07.823Z</time></trkpt><trkpt lat="42.029285" lon="-8.0055133"><ele>818.4</ele><time>2026-04-04T16:47:09.822Z</time></trkpt><trkpt lat="42.0293617" lon="-8.0055"><ele>817.5999999999999</ele><time>2026-04-04T16:47:10.822Z</time></trkpt><trkpt lat="42.02943" lon="-8.00549"><ele>816.8</ele><time>2026-04-04T16:47:11.822Z</time></trkpt><trkpt lat="42.0294967" lon="-8.0054783"><ele>816.0</ele><time>2026-04-04T16:47:12.823Z</time></trkpt><trkpt lat="42.0296167" lon="-8.0054433"><ele>816.0</ele><time>2026-04-04T16:47:14.823Z</time></trkpt><trkpt lat="42.029715" lon="-8.0053617"><ele>816.0</ele><time>2026-04-04T16:47:16.822Z</time></trkpt><trkpt lat="42.0297667" lon="-8.0053017"><ele>816.0</ele><time>2026-04-04T16:47:17.822Z</time></trkpt><trkpt lat="42.0298183" lon="-8.0052217"><ele>816.0</ele><time>2026-04-04T16:47:18.823Z</time></trkpt><trkpt lat="42.0298867" lon="-8.0051333"><ele>816.0</ele><time>2026-04-04T16:47:19.824Z</time></trkpt><trkpt lat="42.029955" lon="-8.0050617"><ele>816.0</ele><time>2026-04-04T16:47:20.823Z</time></trkpt><trkpt lat="42.0300183" lon="-8.0049933"><ele>814.1428571428571</ele><time>2026-04-04T16:47:21.822Z</time></trkpt><trkpt lat="42.030065" lon="-8.0049317"><ele>812.2857142857143</ele><time>2026-04-04T16:47:22.823Z</time></trkpt><trkpt lat="42.0301067" lon="-8.00486"><ele>810.4285714285713</ele><time>2026-04-04T16:47:23.823Z</time></trkpt><trkpt lat="42.03013" lon="-8.0047733"><ele>808.5714285714286</ele><time>2026-04-04T16:47:24.824Z</time></trkpt><trkpt lat="42.0301417" lon="-8.0046867"><ele>806.7142857142857</ele><time>2026-04-04T16:47:25.822Z</time></trkpt><trkpt lat="42.030165" lon="-8.0046017"><ele>804.8571428571428</ele><time>2026-04-04T16:47:26.822Z</time></trkpt><trkpt lat="42.0301917" lon="-8.0044933"><ele>803.0</ele><time>2026-04-04T16:47:28.822Z</time></trkpt><trkpt lat="42.0302167" lon="-8.0043933"><ele>803.0000000000001</ele><time>2026-04-04T16:47:30.823Z</time></trkpt><trkpt lat="42.030245" lon="-8.00429"><ele>803.0</ele><time>2026-04-04T16:47:32.823Z</time></trkpt><trkpt lat="42.0302717" lon="-8.0041983"><ele>803.0</ele><time>2026-04-04T16:47:35.822Z</time></trkpt><trkpt lat="42.0303383" lon="-8.00419"><ele>803.0</ele><time>2026-04-04T16:48:04.822Z</time></trkpt><trkpt lat="42.0303983" lon="-8.00424"><ele>803.0000000000001</ele><time>2026-04-04T16:48:06.823Z</time></trkpt><trkpt lat="42.0304733" lon="-8.00433"><ele>803.0</ele><time>2026-04-04T16:48:08.823Z</time></trkpt><trkpt lat="42.030565" lon="-8.0043883"><ele>803.0000000000001</ele><time>2026-04-04T16:48:10.824Z</time></trkpt><trkpt lat="42.03063" lon="-8.0044033"><ele>803.0</ele><time>2026-04-04T16:48:11.823Z</time></trkpt><trkpt lat="42.0307283" lon="-8.0044367"><ele>803.0</ele><time>2026-04-04T16:48:13.823Z</time></trkpt><trkpt lat="42.030815" lon="-8.0044617"><ele>803.0</ele><time>2026-04-04T16:48:15.822Z</time></trkpt><trkpt lat="42.03089" lon="-8.0044617"><ele>803.0000000000001</ele><time>2026-04-04T16:48:17.822Z</time></trkpt><trkpt lat="42.0309633" lon="-8.00449"><ele>803.0</ele><time>2026-04-04T16:48:20.823Z</time></trkpt><trkpt lat="42.031105" lon="-8.0045117"><ele>801.6666666666667</ele><time>2026-04-04T16:48:57.822Z</time></trkpt><trkpt lat="42.0312217" lon="-8.0046133"><ele>800.3333333333334</ele><time>2026-04-04T16:49:20.822Z</time></trkpt><trkpt lat="42.0312833" lon="-8.004645"><ele>799.0</ele><time>2026-04-04T16:49:23.823Z</time></trkpt><trkpt lat="42.031345" lon="-8.0046767"><ele>797.6666666666667</ele><time>2026-04-04T16:49:26.823Z</time></trkpt><trkpt lat="42.031405" lon="-8.00473"><ele>796.3333333333334</ele><time>2026-04-04T16:49:28.822Z</time></trkpt><trkpt lat="42.0314833" lon="-8.004795"><ele>795.0</ele><time>2026-04-04T16:49:31.823Z</time></trkpt><trkpt lat="42.0315467" lon="-8.004795"><ele>795.0</ele><time>2026-04-04T16:49:34.822Z</time></trkpt><trkpt lat="42.0316317" lon="-8.0047867"><ele>795.0</ele><time>2026-04-04T16:49:38.823Z</time></trkpt><trkpt lat="42.0317033" lon="-8.0048017"><ele>795.0</ele><time>2026-04-04T16:49:41.823Z</time></trkpt><trkpt lat="42.031785" lon="-8.0047817"><ele>795.0</ele><time>2026-04-04T16:49:45.823Z</time></trkpt><trkpt lat="42.0318467" lon="-8.0047633"><ele>795.0</ele><time>2026-04-04T16:49:47.823Z</time></trkpt><trkpt lat="42.031915" lon="-8.0047283"><ele>795.0</ele><time>2026-04-04T16:49:52.823Z</time></trkpt><trkpt lat="42.0319883" lon="-8.0046983"><ele>794.0</ele><time>2026-04-04T16:49:55.823Z</time></trkpt><trkpt lat="42.032045" lon="-8.0046467"><ele>793.0</ele><time>2026-04-04T16:49:59.823Z</time></trkpt><trkpt lat="42.0320817" lon="-8.004555"><ele>792.0</ele><time>2026-04-04T16:50:04.824Z</time></trkpt><trkpt lat="42.0321233" lon="-8.00448"><ele>791.0</ele><time>2026-04-04T16:50:10.825Z</time></trkpt><trkpt lat="42.0321833" lon="-8.0043283"><ele>790.0</ele><time>2026-04-04T16:50:54.823Z</time></trkpt><trkpt lat="42.0322717" lon="-8.0043"><ele>789.0</ele><time>2026-04-04T16:54:10.823Z</time></trkpt><trkpt lat="42.032225" lon="-8.0044767"><ele>788.9999999999999</ele><time>2026-04-04T17:01:33.823Z</time></trkpt><trkpt lat="42.0322167" lon="-8.0045983"><ele>789.0</ele><time>2026-04-04T17:01:41.822Z</time></trkpt><trkpt lat="42.03218" lon="-8.0046767"><ele>789.0</ele><time>2026-04-04T17:01:45.823Z</time></trkpt><trkpt lat="42.0321183" lon="-8.004745"><ele>789.0</ele><time>2026-04-04T17:01:49.822Z</time></trkpt><trkpt lat="42.0320567" lon="-8.0047733"><ele>789.0</ele><time>2026-04-04T17:01:51.823Z</time></trkpt><trkpt lat="42.0319867" lon="-8.0047933"><ele>788.9999999999999</ele><time>2026-04-04T17:01:54.823Z</time></trkpt><trkpt lat="42.0319167" lon="-8.0047983"><ele>789.0</ele><time>2026-04-04T17:01:56.823Z</time></trkpt><trkpt lat="42.0318283" lon="-8.0047983"><ele>789.0</ele><time>2026-04-04T17:01:59.824Z</time></trkpt><trkpt lat="42.0317533" lon="-8.0048117"><ele>789.0</ele><time>2026-04-04T17:02:03.823Z</time></trkpt><trkpt lat="42.03168" lon="-8.004815"><ele>789.0</ele><time>2026-04-04T17:02:06.825Z</time></trkpt><trkpt lat="42.0315967" lon="-8.004775"><ele>789.0</ele><time>2026-04-04T17:02:09.823Z</time></trkpt><trkpt lat="42.0315267" lon="-8.0047133"><ele>789.0</ele><time>2026-04-04T17:02:12.823Z</time></trkpt><trkpt lat="42.0314483" lon="-8.00467"><ele>789.0</ele><time>2026-04-04T17:02:15.823Z</time></trkpt><trkpt lat="42.0313817" lon="-8.0046317"><ele>790.0</ele><time>2026-04-04T17:02:18.824Z</time></trkpt><trkpt lat="42.0313267" lon="-8.0045767"><ele>791.0</ele><time>2026-04-04T17:02:21.824Z</time></trkpt><trkpt lat="42.0312683" lon="-8.0045217"><ele>792.0</ele><time>2026-04-04T17:02:24.824Z</time></trkpt><trkpt lat="42.0311817" lon="-8.0044567"><ele>793.0</ele><time>2026-04-04T17:02:32.823Z</time></trkpt><trkpt lat="42.03114" lon="-8.0043733"><ele>794.0</ele><time>2026-04-04T17:02:36.822Z</time></trkpt><trkpt lat="42.031085" lon="-8.0042983"><ele>795.0</ele><time>2026-04-04T17:02:39.822Z</time></trkpt><trkpt lat="42.0310417" lon="-8.0042"><ele>794.8333333333334</ele><time>2026-04-04T17:02:42.828Z</time></trkpt><trkpt lat="42.0310017" lon="-8.0040833"><ele>794.6666666666667</ele><time>2026-04-04T17:02:45.822Z</time></trkpt><trkpt lat="42.0309717" lon="-8.0040067"><ele>794.5</ele><time>2026-04-04T17:02:47.822Z</time></trkpt><trkpt lat="42.0309383" lon="-8.0039317"><ele>794.3333333333334</ele><time>2026-04-04T17:02:50.823Z</time></trkpt><trkpt lat="42.03088" lon="-8.0038717"><ele>794.1666666666667</ele><time>2026-04-04T17:02:53.821Z</time></trkpt><trkpt lat="42.0307933" lon="-8.0038333"><ele>794.0</ele><time>2026-04-04T17:02:56.822Z</time></trkpt><trkpt lat="42.030715" lon="-8.0037533"><ele>794.0000000000001</ele><time>2026-04-04T17:02:59.823Z</time></trkpt><trkpt lat="42.0306717" lon="-8.0036667"><ele>794.0</ele><time>2026-04-04T17:03:01.822Z</time></trkpt><trkpt lat="42.0306167" lon="-8.0035733"><ele>794.0</ele><time>2026-04-04T17:03:03.822Z</time></trkpt><trkpt lat="42.0305517" lon="-8.0034933"><ele>794.0</ele><time>2026-04-04T17:03:05.822Z</time></trkpt><trkpt lat="42.0304883" lon="-8.003425"><ele>794.0000000000001</ele><time>2026-04-04T17:03:07.823Z</time></trkpt><trkpt lat="42.0304217" lon="-8.0033517"><ele>794.0</ele><time>2026-04-04T17:03:09.823Z</time></trkpt><trkpt lat="42.030365" lon="-8.0033117"><ele>794.0000000000001</ele><time>2026-04-04T17:03:13.822Z</time></trkpt><trkpt lat="42.0302967" lon="-8.0032583"><ele>794.0</ele><time>2026-04-04T17:07:24.823Z</time></trkpt><trkpt lat="42.0302883" lon="-8.00314"><ele>794.0</ele><time>2026-04-04T17:07:27.822Z</time></trkpt><trkpt lat="42.0302767" lon="-8.0030417"><ele>794.0</ele><time>2026-04-04T17:07:29.822Z</time></trkpt><trkpt lat="42.030265" lon="-8.00294"><ele>794.0000000000001</ele><time>2026-04-04T17:07:31.824Z</time></trkpt><trkpt lat="42.0302517" lon="-8.00283"><ele>794.0</ele><time>2026-04-04T17:07:33.822Z</time></trkpt><trkpt lat="42.0302367" lon="-8.0027183"><ele>794.0000000000001</ele><time>2026-04-04T17:07:35.823Z</time></trkpt><trkpt lat="42.0302167" lon="-8.002595"><ele>794.0</ele><time>2026-04-04T17:07:37.823Z</time></trkpt><trkpt lat="42.0302" lon="-8.0024833"><ele>794.0</ele><time>2026-04-04T17:07:39.822Z</time></trkpt><trkpt lat="42.030185" lon="-8.0023683"><ele>794.0</ele><time>2026-04-04T17:07:41.823Z</time></trkpt><trkpt lat="42.0301883" lon="-8.002265"><ele>794.0000000000001</ele><time>2026-04-04T17:07:43.822Z</time></trkpt><trkpt lat="42.0301867" lon="-8.0021783"><ele>794.0</ele><time>2026-04-04T17:07:45.823Z</time></trkpt><trkpt lat="42.0301817" lon="-8.002055"><ele>791.0</ele><time>2026-04-04T17:07:48.823Z</time></trkpt><trkpt lat="42.0301867" lon="-8.0019483"><ele>788.0</ele><time>2026-04-04T17:07:52.822Z</time></trkpt><trkpt lat="42.0301933" lon="-8.0018333"><ele>785.0</ele><time>2026-04-04T17:07:55.823Z</time></trkpt><trkpt lat="42.0302033" lon="-8.0016883"><ele>782.0</ele><time>2026-04-04T17:07:57.822Z</time></trkpt><trkpt lat="42.0302083" lon="-8.0015283"><ele>779.0</ele><time>2026-04-04T17:07:59.823Z</time></trkpt><trkpt lat="42.0302033" lon="-8.0014033"><ele>776.3333333333334</ele><time>2026-04-04T17:08:01.823Z</time></trkpt><trkpt lat="42.0301983" lon="-8.0013083"><ele>773.6666666666667</ele><time>2026-04-04T17:08:03.824Z</time></trkpt><trkpt lat="42.030175" lon="-8.00122"><ele>771.0</ele><time>2026-04-04T17:08:05.823Z</time></trkpt><trkpt lat="42.0301517" lon="-8.0011083"><ele>768.3333333333334</ele><time>2026-04-04T17:08:07.824Z</time></trkpt><trkpt lat="42.0301317" lon="-8.0009733"><ele>765.6666666666667</ele><time>2026-04-04T17:08:09.823Z</time></trkpt><trkpt lat="42.0301183" lon="-8.0008533"><ele>763.0</ele><time>2026-04-04T17:08:11.823Z</time></trkpt><trkpt lat="42.0301183" lon="-8.0007517"><ele>761.1666666666667</ele><time>2026-04-04T17:08:13.822Z</time></trkpt><trkpt lat="42.0301133" lon="-8.0006667"><ele>759.3333333333334</ele><time>2026-04-04T17:08:15.822Z</time></trkpt><trkpt lat="42.030115" lon="-8.0005733"><ele>757.5</ele><time>2026-04-04T17:08:17.824Z</time></trkpt><trkpt lat="42.0301133" lon="-8.0004717"><ele>755.6666666666666</ele><time>2026-04-04T17:08:19.823Z</time></trkpt><trkpt lat="42.0301083" lon="-8.0003533"><ele>753.8333333333333</ele><time>2026-04-04T17:08:21.824Z</time></trkpt><trkpt lat="42.0301117" lon="-8.0002367"><ele>752.0</ele><time>2026-04-04T17:08:23.823Z</time></trkpt><trkpt lat="42.0301233" lon="-8.0001283"><ele>752.0</ele><time>2026-04-04T17:08:25.824Z</time></trkpt><trkpt lat="42.0301483" lon="-8.0000033"><ele>752.0</ele><time>2026-04-04T17:08:27.822Z</time></trkpt><trkpt lat="42.030195" lon="-7.9998717"><ele>752.0</ele><time>2026-04-04T17:08:29.823Z</time></trkpt><trkpt lat="42.03025" lon="-7.9997533"><ele>752.0</ele><time>2026-04-04T17:08:31.824Z</time></trkpt><trkpt lat="42.030305" lon="-7.99965"><ele>752.0</ele><time>2026-04-04T17:08:33.823Z</time></trkpt><trkpt lat="42.03036" lon="-7.9995733"><ele>752.0</ele><time>2026-04-04T17:08:35.822Z</time></trkpt><trkpt lat="42.0303933" lon="-7.9994983"><ele>752.0</ele><time>2026-04-04T17:08:37.823Z</time></trkpt><trkpt lat="42.030415" lon="-7.9994"><ele>752.0</ele><time>2026-04-04T17:08:40.823Z</time></trkpt><trkpt lat="42.0304217" lon="-7.9992817"><ele>752.0</ele><time>2026-04-04T17:08:43.823Z</time></trkpt><trkpt lat="42.030415" lon="-7.9991817"><ele>752.0</ele><time>2026-04-04T17:08:46.823Z</time></trkpt><trkpt lat="42.0303833" lon="-7.9990867"><ele>752.0</ele><time>2026-04-04T17:08:49.823Z</time></trkpt><trkpt lat="42.0303483" lon="-7.99901"><ele>752.0</ele><time>2026-04-04T17:08:51.823Z</time></trkpt><trkpt lat="42.0303167" lon="-7.9989083"><ele>751.0</ele><time>2026-04-04T17:08:53.823Z</time></trkpt><trkpt lat="42.030285" lon="-7.9988217"><ele>750.0</ele><time>2026-04-04T17:08:55.823Z</time></trkpt><trkpt lat="42.0303033" lon="-7.9987217"><ele>749.0</ele><time>2026-04-04T17:09:12.824Z</time></trkpt><trkpt lat="42.0303717" lon="-7.9987783"><ele>748.0</ele><time>2026-04-04T17:09:15.823Z</time></trkpt><trkpt lat="42.0304467" lon="-7.9988967"><ele>747.0</ele><time>2026-04-04T17:09:17.823Z</time></trkpt><trkpt lat="42.0304783" lon="-7.9989767"><ele>746.0</ele><time>2026-04-04T17:09:18.824Z</time></trkpt><trkpt lat="42.0305167" lon="-7.999105"><ele>747.1999999999999</ele><time>2026-04-04T17:09:20.825Z</time></trkpt><trkpt lat="42.0305317" lon="-7.999215"><ele>748.4</ele><time>2026-04-04T17:09:22.824Z</time></trkpt><trkpt lat="42.0305567" lon="-7.9993417"><ele>749.6</ele><time>2026-04-04T17:09:24.824Z</time></trkpt><trkpt lat="42.0306317" lon="-7.9994667"><ele>750.8</ele><time>2026-04-04T17:09:26.824Z</time></trkpt><trkpt lat="42.0307367" lon="-7.9995633"><ele>752.0</ele><time>2026-04-04T17:09:28.823Z</time></trkpt><trkpt lat="42.0308" lon="-7.9995983"><ele>750.8333333333333</ele><time>2026-04-04T17:09:29.823Z</time></trkpt><trkpt lat="42.0308967" lon="-7.9996617"><ele>749.6666666666666</ele><time>2026-04-04T17:09:31.825Z</time></trkpt><trkpt lat="42.0309667" lon="-7.9997217"><ele>748.5</ele><time>2026-04-04T17:09:33.824Z</time></trkpt><trkpt lat="42.0310217" lon="-7.9997833"><ele>747.3333333333334</ele><time>2026-04-04T17:09:35.823Z</time></trkpt><trkpt lat="42.031065" lon="-7.9998617"><ele>746.1666666666667</ele><time>2026-04-04T17:09:37.823Z</time></trkpt><trkpt lat="42.0311317" lon="-7.9999317"><ele>745.0</ele><time>2026-04-04T17:09:40.824Z</time></trkpt><trkpt lat="42.0312283" lon="-7.999935"><ele>745.0</ele><time>2026-04-04T17:09:43.824Z</time></trkpt><trkpt lat="42.03131" lon="-7.9998983"><ele>745.0</ele><time>2026-04-04T17:09:45.823Z</time></trkpt><trkpt lat="42.0313917" lon="-7.9998833"><ele>745.0</ele><time>2026-04-04T17:09:47.825Z</time></trkpt><trkpt lat="42.0314717" lon="-7.99989"><ele>745.0</ele><time>2026-04-04T17:09:49.823Z</time></trkpt><trkpt lat="42.031545" lon="-7.999875"><ele>745.0</ele><time>2026-04-04T17:09:51.823Z</time></trkpt><trkpt lat="42.0316233" lon="-7.9998267"><ele>745.0</ele><time>2026-04-04T17:09:53.823Z</time></trkpt><trkpt lat="42.0316867" lon="-7.9997817"><ele>744.5</ele><time>2026-04-04T17:09:55.823Z</time></trkpt><trkpt lat="42.031745" lon="-7.9997417"><ele>744.0</ele><time>2026-04-04T17:09:58.825Z</time></trkpt><trkpt lat="42.03181" lon="-7.9997417"><ele>743.5</ele><time>2026-04-04T17:10:01.824Z</time></trkpt><trkpt lat="42.0318633" lon="-7.9996633"><ele>743.0</ele><time>2026-04-04T17:10:05.824Z</time></trkpt><trkpt lat="42.0319117" lon="-7.9995933"><ele>742.5</ele><time>2026-04-04T17:12:21.823Z</time></trkpt><trkpt lat="42.0319" lon="-7.9997117"><ele>742.0</ele><time>2026-04-04T17:12:52.824Z</time></trkpt><trkpt lat="42.0318283" lon="-7.999765"><ele>742.0</ele><time>2026-04-04T17:12:55.825Z</time></trkpt><trkpt lat="42.0317317" lon="-7.9998317"><ele>742.0</ele><time>2026-04-04T17:12:58.824Z</time></trkpt><trkpt lat="42.0316517" lon="-7.9999"><ele>742.0</ele><time>2026-04-04T17:13:00.827Z</time></trkpt><trkpt lat="42.0315433" lon="-7.9999283"><ele>742.0</ele><time>2026-04-04T17:13:02.824Z</time></trkpt><trkpt lat="42.031445" lon="-7.99993"><ele>742.0</ele><time>2026-04-04T17:13:04.823Z</time></trkpt><trkpt lat="42.0313433" lon="-7.9999533"><ele>742.5</ele><time>2026-04-04T17:13:06.823Z</time></trkpt><trkpt lat="42.031235" lon="-7.9999767"><ele>743.0</ele><time>2026-04-04T17:13:08.824Z</time></trkpt><trkpt lat="42.0311633" lon="-7.999955"><ele>743.5</ele><time>2026-04-04T17:13:10.824Z</time></trkpt><trkpt lat="42.0311017" lon="-7.99987"><ele>744.0</ele><time>2026-04-04T17:13:13.823Z</time></trkpt><trkpt lat="42.0310517" lon="-7.9997983"><ele>744.5</ele><time>2026-04-04T17:13:15.825Z</time></trkpt><trkpt lat="42.0309817" lon="-7.9997333"><ele>745.0</ele><time>2026-04-04T17:13:17.823Z</time></trkpt><trkpt lat="42.0308883" lon="-7.9996833"><ele>746.4</ele><time>2026-04-04T17:13:19.825Z</time></trkpt><trkpt lat="42.0307783" lon="-7.9996167"><ele>747.8</ele><time>2026-04-04T17:13:21.825Z</time></trkpt><trkpt lat="42.03069" lon="-7.9995067"><ele>749.2</ele><time>2026-04-04T17:13:23.823Z</time></trkpt><trkpt lat="42.03064" lon="-7.9993917"><ele>750.6</ele><time>2026-04-04T17:13:25.823Z</time></trkpt><trkpt lat="42.03062" lon="-7.9992917"><ele>752.0</ele><time>2026-04-04T17:13:27.825Z</time></trkpt><trkpt lat="42.0306033" lon="-7.9992067"><ele>751.0</ele><time>2026-04-04T17:13:29.823Z</time></trkpt><trkpt lat="42.0305667" lon="-7.9991133"><ele>750.0</ele><time>2026-04-04T17:13:31.824Z</time></trkpt><trkpt lat="42.0305133" lon="-7.9990217"><ele>749.0</ele><time>2026-04-04T17:13:33.824Z</time></trkpt><trkpt lat="42.03045" lon="-7.9989283"><ele>748.0</ele><time>2026-04-04T17:13:35.824Z</time></trkpt><trkpt lat="42.0303817" lon="-7.9988533"><ele>747.0</ele><time>2026-04-04T17:13:37.823Z</time></trkpt><trkpt lat="42.0303133" lon="-7.9988083"><ele>746.0</ele><time>2026-04-04T17:13:40.823Z</time></trkpt><trkpt lat="42.0302433" lon="-7.9987383"><ele>746.0</ele><time>2026-04-04T17:13:44.825Z</time></trkpt><trkpt lat="42.0302" lon="-7.9986733"><ele>746.0</ele><time>2026-04-04T17:13:46.823Z</time></trkpt><trkpt lat="42.0301467" lon="-7.998595"><ele>746.0</ele><time>2026-04-04T17:13:49.822Z</time></trkpt><trkpt lat="42.0300883" lon="-7.9985233"><ele>746.0</ele><time>2026-04-04T17:13:53.823Z</time></trkpt><trkpt lat="42.030035" lon="-7.99847"><ele>746.0</ele><time>2026-04-04T17:13:55.823Z</time></trkpt><trkpt lat="42.0299583" lon="-7.9984033"><ele>746.0</ele><time>2026-04-04T17:13:58.823Z</time></trkpt><trkpt lat="42.0298933" lon="-7.9983367"><ele>742.5</ele><time>2026-04-04T17:14:01.823Z</time></trkpt><trkpt lat="42.029805" lon="-7.9982467"><ele>739.0</ele><time>2026-04-04T17:14:05.822Z</time></trkpt><trkpt lat="42.0297233" lon="-7.9981367"><ele>735.5</ele><time>2026-04-04T17:14:33.824Z</time></trkpt><trkpt lat="42.0296533" lon="-7.998085"><ele>732.0</ele><time>2026-04-04T17:14:35.828Z</time></trkpt><trkpt lat="42.0294983" lon="-7.997985"><ele>732.0</ele><time>2026-04-04T17:15:25.822Z</time></trkpt><trkpt lat="42.0294133" lon="-7.9979583"><ele>732.0</ele><time>2026-04-04T17:15:28.823Z</time></trkpt><trkpt lat="42.0293417" lon="-7.99797"><ele>732.0</ele><time>2026-04-04T17:15:30.823Z</time></trkpt><trkpt lat="42.0292417" lon="-7.9979967"><ele>732.0</ele><time>2026-04-04T17:15:32.823Z</time></trkpt><trkpt lat="42.0291533" lon="-7.9979867"><ele>732.0</ele><time>2026-04-04T17:15:34.823Z</time></trkpt><trkpt lat="42.029065" lon="-7.99798"><ele>732.0</ele><time>2026-04-04T17:15:36.823Z</time></trkpt><trkpt lat="42.028995" lon="-7.9979983"><ele>732.1666666666666</ele><time>2026-04-04T17:15:38.823Z</time></trkpt><trkpt lat="42.02894" lon="-7.9980667"><ele>732.3333333333334</ele><time>2026-04-04T17:15:40.823Z</time></trkpt><trkpt lat="42.0289217" lon="-7.9981517"><ele>732.5</ele><time>2026-04-04T17:15:42.823Z</time></trkpt><trkpt lat="42.02885" lon="-7.9982117"><ele>732.6666666666667</ele><time>2026-04-04T17:15:45.823Z</time></trkpt><trkpt lat="42.0287683" lon="-7.9982467"><ele>732.8333333333334</ele><time>2026-04-04T17:15:48.824Z</time></trkpt><trkpt lat="42.028695" lon="-7.998315"><ele>733.0</ele><time>2026-04-04T17:15:51.823Z</time></trkpt><trkpt lat="42.0286483" lon="-7.9983933"><ele>733.0</ele><time>2026-04-04T17:15:53.824Z</time></trkpt><trkpt lat="42.0285783" lon="-7.998525"><ele>733.0</ele><time>2026-04-04T17:15:55.823Z</time></trkpt><trkpt lat="42.0285167" lon="-7.9985883"><ele>733.0</ele><time>2026-04-04T17:15:57.822Z</time></trkpt><trkpt lat="42.028455" lon="-7.9986083"><ele>733.0</ele><time>2026-04-04T17:15:59.823Z</time></trkpt><trkpt lat="42.0284117" lon="-7.9985117"><ele>733.0</ele><time>2026-04-04T17:16:02.824Z</time></trkpt><trkpt lat="42.0284017" lon="-7.998375"><ele>733.0</ele><time>2026-04-04T17:16:04.824Z</time></trkpt><trkpt lat="42.028385" lon="-7.99829"><ele>732.9999999999999</ele><time>2026-04-04T17:16:05.823Z</time></trkpt><trkpt lat="42.02836" lon="-7.998205"><ele>733.0</ele><time>2026-04-04T17:16:06.825Z</time></trkpt><trkpt lat="42.02833" lon="-7.9981117"><ele>733.0</ele><time>2026-04-04T17:16:07.822Z</time></trkpt><trkpt lat="42.0282933" lon="-7.9980167"><ele>733.0</ele><time>2026-04-04T17:16:08.824Z</time></trkpt><trkpt lat="42.028255" lon="-7.9979267"><ele>733.0</ele><time>2026-04-04T17:16:09.823Z</time></trkpt><trkpt lat="42.028215" lon="-7.997845"><ele>732.9999999999999</ele><time>2026-04-04T17:16:10.823Z</time></trkpt><trkpt lat="42.0281683" lon="-7.9977683"><ele>733.0</ele><time>2026-04-04T17:16:11.826Z</time></trkpt><trkpt lat="42.0281233" lon="-7.9976933"><ele>732.8333333333334</ele><time>2026-04-04T17:16:12.824Z</time></trkpt><trkpt lat="42.02809" lon="-7.997615"><ele>732.6666666666667</ele><time>2026-04-04T17:16:13.824Z</time></trkpt><trkpt lat="42.02806" lon="-7.997525"><ele>732.5</ele><time>2026-04-04T17:16:14.824Z</time></trkpt><trkpt lat="42.028035" lon="-7.997425"><ele>732.3333333333334</ele><time>2026-04-04T17:16:15.824Z</time></trkpt><trkpt lat="42.028015" lon="-7.9973217"><ele>732.1666666666666</ele><time>2026-04-04T17:16:16.823Z</time></trkpt><trkpt lat="42.027995" lon="-7.9972233"><ele>732.0</ele><time>2026-04-04T17:16:17.824Z</time></trkpt><trkpt lat="42.0279733" lon="-7.9971183"><ele>733.6666666666666</ele><time>2026-04-04T17:16:18.823Z</time></trkpt><trkpt lat="42.027955" lon="-7.9970083"><ele>735.3333333333334</ele><time>2026-04-04T17:16:19.824Z</time></trkpt><trkpt lat="42.027945" lon="-7.9969"><ele>737.0</ele><time>2026-04-04T17:16:20.824Z</time></trkpt><trkpt lat="42.027945" lon="-7.9967833"><ele>738.6666666666667</ele><time>2026-04-04T17:16:21.823Z</time></trkpt><trkpt lat="42.0279517" lon="-7.9966617"><ele>740.3333333333334</ele><time>2026-04-04T17:16:22.824Z</time></trkpt><trkpt lat="42.0279583" lon="-7.996535"><ele>742.0</ele><time>2026-04-04T17:16:23.823Z</time></trkpt><trkpt lat="42.0279633" lon="-7.9964167"><ele>743.3333333333334</ele><time>2026-04-04T17:16:24.824Z</time></trkpt><trkpt lat="42.027965" lon="-7.9962983"><ele>744.6666666666667</ele><time>2026-04-04T17:16:25.826Z</time></trkpt><trkpt lat="42.0279617" lon="-7.99618"><ele>746.0</ele><time>2026-04-04T17:16:26.823Z</time></trkpt><trkpt lat="42.02796" lon="-7.9960667"><ele>747.3333333333334</ele><time>2026-04-04T17:16:27.823Z</time></trkpt><trkpt lat="42.0279617" lon="-7.99596"><ele>748.6666666666666</ele><time>2026-04-04T17:16:28.824Z</time></trkpt><trkpt lat="42.0279667" lon="-7.9958533"><ele>750.0</ele><time>2026-04-04T17:16:29.824Z</time></trkpt><trkpt lat="42.0279783" lon="-7.995755"><ele>750.4</ele><time>2026-04-04T17:16:30.823Z</time></trkpt><trkpt lat="42.0279883" lon="-7.9956683"><ele>750.8</ele><time>2026-04-04T17:16:31.823Z</time></trkpt><trkpt lat="42.0280083" lon="-7.9954933"><ele>751.2</ele><time>2026-04-04T17:16:33.824Z</time></trkpt><trkpt lat="42.0280217" lon="-7.995405"><ele>751.6</ele><time>2026-04-04T17:16:34.824Z</time></trkpt><trkpt lat="42.02805" lon="-7.9952667"><ele>752.0</ele><time>2026-04-04T17:16:36.824Z</time></trkpt><trkpt lat="42.0280733" lon="-7.9951433"><ele>752.2</ele><time>2026-04-04T17:16:38.824Z</time></trkpt><trkpt lat="42.0280633" lon="-7.99494"><ele>752.4000000000001</ele><time>2026-04-04T17:17:58.822Z</time></trkpt><trkpt lat="42.0280817" lon="-7.9947967"><ele>752.5999999999999</ele><time>2026-04-04T17:18:00.824Z</time></trkpt><trkpt lat="42.0281033" lon="-7.9947"><ele>752.8</ele><time>2026-04-04T17:18:01.822Z</time></trkpt><trkpt lat="42.0281217" lon="-7.9945933"><ele>753.0</ele><time>2026-04-04T17:18:02.824Z</time></trkpt><trkpt lat="42.0281367" lon="-7.9944833"><ele>753.0</ele><time>2026-04-04T17:18:03.822Z</time></trkpt><trkpt lat="42.0281417" lon="-7.994375"><ele>753.0</ele><time>2026-04-04T17:18:04.823Z</time></trkpt><trkpt lat="42.028145" lon="-7.994265"><ele>753.0</ele><time>2026-04-04T17:18:05.822Z</time></trkpt><trkpt lat="42.028145" lon="-7.9941617"><ele>753.0</ele><time>2026-04-04T17:18:06.822Z</time></trkpt><trkpt lat="42.028145" lon="-7.994055"><ele>753.0</ele><time>2026-04-04T17:18:07.826Z</time></trkpt><trkpt lat="42.0281383" lon="-7.9939567"><ele>753.0</ele><time>2026-04-04T17:18:08.823Z</time></trkpt><trkpt lat="42.0281317" lon="-7.993865"><ele>755.0</ele><time>2026-04-04T17:18:09.822Z</time></trkpt><trkpt lat="42.0281033" lon="-7.9937117"><ele>757.0</ele><time>2026-04-04T17:18:11.823Z</time></trkpt><trkpt lat="42.028055" lon="-7.9935933"><ele>759.0</ele><time>2026-04-04T17:18:13.823Z</time></trkpt><trkpt lat="42.0279967" lon="-7.9934483"><ele>761.0</ele><time>2026-04-04T17:18:15.823Z</time></trkpt><trkpt lat="42.0279783" lon="-7.993365"><ele>763.0</ele><time>2026-04-04T17:18:16.823Z</time></trkpt><trkpt lat="42.0279733" lon="-7.9932667"><ele>763.5</ele><time>2026-04-04T17:18:17.823Z</time></trkpt><trkpt lat="42.0279783" lon="-7.99316"><ele>764.0</ele><time>2026-04-04T17:18:18.823Z</time></trkpt><trkpt lat="42.0279833" lon="-7.9930467"><ele>764.5</ele><time>2026-04-04T17:18:19.824Z</time></trkpt><trkpt lat="42.0279967" lon="-7.9929367"><ele>765.0</ele><time>2026-04-04T17:18:20.823Z</time></trkpt><trkpt lat="42.0280217" lon="-7.9928367"><ele>765.5</ele><time>2026-04-04T17:18:21.823Z</time></trkpt><trkpt lat="42.0280533" lon="-7.9927367"><ele>766.0</ele><time>2026-04-04T17:18:22.824Z</time></trkpt><trkpt lat="42.0280917" lon="-7.9926417"><ele>766.0</ele><time>2026-04-04T17:18:23.823Z</time></trkpt><trkpt lat="42.02812" lon="-7.992545"><ele>766.0</ele><time>2026-04-04T17:18:24.823Z</time></trkpt><trkpt lat="42.028145" lon="-7.9924433"><ele>766.0</ele><time>2026-04-04T17:18:25.823Z</time></trkpt><trkpt lat="42.02817" lon="-7.9923317"><ele>766.0</ele><time>2026-04-04T17:18:26.824Z</time></trkpt><trkpt lat="42.028195" lon="-7.9922117"><ele>766.0</ele><time>2026-04-04T17:18:27.823Z</time></trkpt><trkpt lat="42.0282183" lon="-7.9920983"><ele>766.0</ele><time>2026-04-04T17:18:28.823Z</time></trkpt><trkpt lat="42.0282483" lon="-7.99199"><ele>765.8333333333334</ele><time>2026-04-04T17:18:29.823Z</time></trkpt><trkpt lat="42.0282867" lon="-7.9918933"><ele>765.6666666666667</ele><time>2026-04-04T17:18:30.823Z</time></trkpt><trkpt lat="42.028335" lon="-7.9918"><ele>765.5</ele><time>2026-04-04T17:18:31.823Z</time></trkpt><trkpt lat="42.0283933" lon="-7.9917133"><ele>765.3333333333334</ele><time>2026-04-04T17:18:32.826Z</time></trkpt><trkpt lat="42.0284533" lon="-7.991645"><ele>765.1666666666666</ele><time>2026-04-04T17:18:33.823Z</time></trkpt><trkpt lat="42.0285217" lon="-7.9915917"><ele>765.0</ele><time>2026-04-04T17:18:34.823Z</time></trkpt><trkpt lat="42.0285917" lon="-7.9915567"><ele>765.8333333333334</ele><time>2026-04-04T17:18:35.823Z</time></trkpt><trkpt lat="42.0286583" lon="-7.99154"><ele>766.6666666666667</ele><time>2026-04-04T17:18:36.822Z</time></trkpt><trkpt lat="42.0287217" lon="-7.9915217"><ele>767.5</ele><time>2026-04-04T17:18:37.824Z</time></trkpt><trkpt lat="42.028825" lon="-7.991435"><ele>768.3333333333334</ele><time>2026-04-04T17:18:39.823Z</time></trkpt><trkpt lat="42.028865" lon="-7.99136"><ele>769.1666666666667</ele><time>2026-04-04T17:18:40.823Z</time></trkpt><trkpt lat="42.0289067" lon="-7.9912917"><ele>770.0</ele><time>2026-04-04T17:18:41.823Z</time></trkpt><trkpt lat="42.0290067" lon="-7.9912083"><ele>770.0</ele><time>2026-04-04T17:18:43.823Z</time></trkpt><trkpt lat="42.0291133" lon="-7.9912083"><ele>770.0</ele><time>2026-04-04T17:18:45.823Z</time></trkpt><trkpt lat="42.0291917" lon="-7.991235"><ele>770.0</ele><time>2026-04-04T17:18:47.823Z</time></trkpt><trkpt lat="42.029245" lon="-7.9913033"><ele>770.0</ele><time>2026-04-04T17:18:49.823Z</time></trkpt><trkpt lat="42.029295" lon="-7.9914083"><ele>770.0</ele><time>2026-04-04T17:18:51.823Z</time></trkpt><trkpt lat="42.0293567" lon="-7.9915233"><ele>770.75</ele><time>2026-04-04T17:18:53.822Z</time></trkpt><trkpt lat="42.0294333" lon="-7.991635"><ele>771.5</ele><time>2026-04-04T17:18:55.823Z</time></trkpt><trkpt lat="42.0295233" lon="-7.9917433"><ele>772.25</ele><time>2026-04-04T17:18:57.823Z</time></trkpt><trkpt lat="42.029625" lon="-7.99181"><ele>773.0</ele><time>2026-04-04T17:18:59.823Z</time></trkpt><trkpt lat="42.0297367" lon="-7.9918583"><ele>773.0000000000001</ele><time>2026-04-04T17:19:01.823Z</time></trkpt><trkpt lat="42.0298383" lon="-7.991875"><ele>773.0</ele><time>2026-04-04T17:19:03.823Z</time></trkpt><trkpt lat="42.0299133" lon="-7.9918983"><ele>773.0</ele><time>2026-04-04T17:19:06.823Z</time></trkpt><trkpt lat="42.0299717" lon="-7.99182"><ele>773.0</ele><time>2026-04-04T17:19:15.824Z</time></trkpt><trkpt lat="42.0298967" lon="-7.9918283"><ele>773.0000000000001</ele><time>2026-04-04T17:19:19.823Z</time></trkpt><trkpt lat="42.0298133" lon="-7.991845"><ele>773.0</ele><time>2026-04-04T17:19:21.823Z</time></trkpt><trkpt lat="42.0297483" lon="-7.991885"><ele>773.0000000000001</ele><time>2026-04-04T17:19:23.823Z</time></trkpt><trkpt lat="42.02973" lon="-7.991985"><ele>773.0</ele><time>2026-04-04T17:19:26.823Z</time></trkpt><trkpt lat="42.0297733" lon="-7.9920617"><ele>773.0</ele><time>2026-04-04T17:19:28.825Z</time></trkpt><trkpt lat="42.0298383" lon="-7.9921017"><ele>773.0</ele><time>2026-04-04T17:19:29.823Z</time></trkpt><trkpt lat="42.0298933" lon="-7.9921467"><ele>773.0000000000001</ele><time>2026-04-04T17:19:30.823Z</time></trkpt><trkpt lat="42.0299667" lon="-7.9922083"><ele>773.0</ele><time>2026-04-04T17:19:31.823Z</time></trkpt><trkpt lat="42.0300383" lon="-7.9922783"><ele>772.6666666666667</ele><time>2026-04-04T17:19:32.824Z</time></trkpt><trkpt lat="42.03011" lon="-7.9923483"><ele>772.3333333333334</ele><time>2026-04-04T17:19:33.823Z</time></trkpt><trkpt lat="42.0301667" lon="-7.9924083"><ele>772.0</ele><time>2026-04-04T17:19:34.823Z</time></trkpt><trkpt lat="42.03023" lon="-7.9924983"><ele>771.6666666666667</ele><time>2026-04-04T17:19:36.824Z</time></trkpt><trkpt lat="42.0302783" lon="-7.9925533"><ele>771.3333333333334</ele><time>2026-04-04T17:19:39.823Z</time></trkpt><trkpt lat="42.0303217" lon="-7.9926183"><ele>771.0</ele><time>2026-04-04T17:20:08.825Z</time></trkpt><trkpt lat="42.030375" lon="-7.992715"><ele>771.0</ele><time>2026-04-04T17:20:23.824Z</time></trkpt><trkpt lat="42.0304133" lon="-7.9928017"><ele>771.0</ele><time>2026-04-04T17:20:25.824Z</time></trkpt><trkpt lat="42.0304433" lon="-7.9928767"><ele>771.0</ele><time>2026-04-04T17:20:27.823Z</time></trkpt><trkpt lat="42.030475" lon="-7.992975"><ele>771.0</ele><time>2026-04-04T17:20:31.824Z</time></trkpt><trkpt lat="42.0305183" lon="-7.9930583"><ele>771.0</ele><time>2026-04-04T17:20:39.823Z</time></trkpt><trkpt lat="42.03055" lon="-7.9931383"><ele>771.0</ele><time>2026-04-04T17:21:14.824Z</time></trkpt><trkpt lat="42.0306133" lon="-7.99323"><ele>770.4</ele><time>2026-04-04T17:21:16.824Z</time></trkpt><trkpt lat="42.0306733" lon="-7.9933933"><ele>769.8</ele><time>2026-04-04T17:21:18.824Z</time></trkpt><trkpt lat="42.0306917" lon="-7.9934917"><ele>769.1999999999999</ele><time>2026-04-04T17:21:19.824Z</time></trkpt><trkpt lat="42.0307633" lon="-7.99365"><ele>768.5999999999999</ele><time>2026-04-04T17:21:21.824Z</time></trkpt><trkpt lat="42.0308067" lon="-7.9937333"><ele>768.0</ele><time>2026-04-04T17:21:22.824Z</time></trkpt><trkpt lat="42.0308533" lon="-7.9938017"><ele>768.0</ele><time>2026-04-04T17:21:23.824Z</time></trkpt><trkpt lat="42.0309433" lon="-7.9939333"><ele>768.0</ele><time>2026-04-04T17:21:25.825Z</time></trkpt><trkpt lat="42.0310183" lon="-7.9940383"><ele>768.0</ele><time>2026-04-04T17:21:27.823Z</time></trkpt><trkpt lat="42.0310767" lon="-7.9941333"><ele>768.0</ele><time>2026-04-04T17:21:29.822Z</time></trkpt><trkpt lat="42.0311317" lon="-7.99425"><ele>768.0</ele><time>2026-04-04T17:21:31.823Z</time></trkpt><trkpt lat="42.0312517" lon="-7.994335"><ele>765.6666666666666</ele><time>2026-04-04T17:21:33.822Z</time></trkpt><trkpt lat="42.03134" lon="-7.9943983"><ele>763.3333333333334</ele><time>2026-04-04T17:21:35.822Z</time></trkpt><trkpt lat="42.0314117" lon="-7.99449"><ele>761.0</ele><time>2026-04-04T17:21:37.823Z</time></trkpt><trkpt lat="42.0314733" lon="-7.994565"><ele>758.6666666666667</ele><time>2026-04-04T17:21:39.823Z</time></trkpt><trkpt lat="42.031525" lon="-7.9946417"><ele>756.3333333333334</ele><time>2026-04-04T17:21:41.823Z</time></trkpt><trkpt lat="42.031555" lon="-7.99472"><ele>754.0</ele><time>2026-04-04T17:21:43.824Z</time></trkpt><trkpt lat="42.031575" lon="-7.994845"><ele>754.0</ele><time>2026-04-04T17:21:45.822Z</time></trkpt><trkpt lat="42.03159" lon="-7.994975"><ele>754.0</ele><time>2026-04-04T17:21:47.823Z</time></trkpt><trkpt lat="42.0315883" lon="-7.9951233"><ele>754.0</ele><time>2026-04-04T17:21:49.823Z</time></trkpt><trkpt lat="42.0315933" lon="-7.995245"><ele>754.0</ele><time>2026-04-04T17:21:51.823Z</time></trkpt><trkpt lat="42.0315883" lon="-7.9953567"><ele>754.0</ele><time>2026-04-04T17:21:53.823Z</time></trkpt><trkpt lat="42.0316017" lon="-7.9954633"><ele>754.0</ele><time>2026-04-04T17:21:55.822Z</time></trkpt><trkpt lat="42.03164" lon="-7.995595"><ele>754.0</ele><time>2026-04-04T17:21:57.823Z</time></trkpt><trkpt lat="42.0316883" lon="-7.99572"><ele>754.0</ele><time>2026-04-04T17:21:59.823Z</time></trkpt><trkpt lat="42.0317317" lon="-7.9957933"><ele>754.0</ele><time>2026-04-04T17:22:01.823Z</time></trkpt><trkpt lat="42.0317633" lon="-7.99587"><ele>754.0</ele><time>2026-04-04T17:22:03.823Z</time></trkpt><trkpt lat="42.03179" lon="-7.995965"><ele>754.0</ele><time>2026-04-04T17:22:07.824Z</time></trkpt><trkpt lat="42.0318433" lon="-7.9960383"><ele>754.0</ele><time>2026-04-04T17:22:10.823Z</time></trkpt><trkpt lat="42.0319" lon="-7.9960883"><ele>754.0</ele><time>2026-04-04T17:22:12.823Z</time></trkpt><trkpt lat="42.0319867" lon="-7.99616"><ele>754.0</ele><time>2026-04-04T17:22:14.824Z</time></trkpt><trkpt lat="42.032045" lon="-7.996215"><ele>754.0</ele><time>2026-04-04T17:22:15.823Z</time></trkpt><trkpt lat="42.0321233" lon="-7.996305"><ele>754.0</ele><time>2026-04-04T17:22:17.824Z</time></trkpt><trkpt lat="42.0321883" lon="-7.99637"><ele>754.0</ele><time>2026-04-04T17:22:19.823Z</time></trkpt><trkpt lat="42.032295" lon="-7.996435"><ele>754.0</ele><time>2026-04-04T17:22:21.823Z</time></trkpt><trkpt lat="42.0323533" lon="-7.9964733"><ele>754.0</ele><time>2026-04-04T17:22:22.824Z</time></trkpt><trkpt lat="42.03241" lon="-7.9965133"><ele>754.0</ele><time>2026-04-04T17:22:23.823Z</time></trkpt><trkpt lat="42.0325" lon="-7.9965783"><ele>754.0</ele><time>2026-04-04T17:22:25.823Z</time></trkpt><trkpt lat="42.0325867" lon="-7.9966317"><ele>754.0</ele><time>2026-04-04T17:22:27.823Z</time></trkpt><trkpt lat="42.0327033" lon="-7.99667"><ele>754.0</ele><time>2026-04-04T17:22:29.823Z</time></trkpt><trkpt lat="42.0327667" lon="-7.9966833"><ele>752.5</ele><time>2026-04-04T17:22:30.823Z</time></trkpt><trkpt lat="42.0328367" lon="-7.9967017"><ele>751.0</ele><time>2026-04-04T17:22:31.823Z</time></trkpt><trkpt lat="42.0329133" lon="-7.99672"><ele>749.5</ele><time>2026-04-04T17:22:32.823Z</time></trkpt><trkpt lat="42.0329867" lon="-7.9967367"><ele>748.0</ele><time>2026-04-04T17:22:33.822Z</time></trkpt><trkpt lat="42.0330617" lon="-7.9967567"><ele>746.5</ele><time>2026-04-04T17:22:34.823Z</time></trkpt><trkpt lat="42.0331367" lon="-7.9967733"><ele>745.0</ele><time>2026-04-04T17:22:35.823Z</time></trkpt><trkpt lat="42.0332117" lon="-7.9967867"><ele>745.0</ele><time>2026-04-04T17:22:36.824Z</time></trkpt><trkpt lat="42.033285" lon="-7.9968033"><ele>745.0</ele><time>2026-04-04T17:22:37.824Z</time></trkpt><trkpt lat="42.0333583" lon="-7.996825"><ele>745.0</ele><time>2026-04-04T17:22:38.824Z</time></trkpt><trkpt lat="42.0334267" lon="-7.9968417"><ele>745.0</ele><time>2026-04-04T17:22:39.824Z</time></trkpt><trkpt lat="42.0335483" lon="-7.9968783"><ele>745.0</ele><time>2026-04-04T17:22:41.823Z</time></trkpt><trkpt lat="42.0336567" lon="-7.99692"><ele>746.5</ele><time>2026-04-04T17:22:43.823Z</time></trkpt><trkpt lat="42.03378" lon="-7.996965"><ele>748.0</ele><time>2026-04-04T17:22:45.821Z</time></trkpt><trkpt lat="42.0338517" lon="-7.99699"><ele>749.5</ele><time>2026-04-04T17:22:46.823Z</time></trkpt><trkpt lat="42.0339267" lon="-7.99702"><ele>751.0</ele><time>2026-04-04T17:22:47.824Z</time></trkpt><trkpt lat="42.0340067" lon="-7.9970533"><ele>752.5</ele><time>2026-04-04T17:22:48.825Z</time></trkpt><trkpt lat="42.0340833" lon="-7.9970967"><ele>754.0</ele><time>2026-04-04T17:22:49.823Z</time></trkpt><trkpt lat="42.0341517" lon="-7.9971433"><ele>755.1666666666667</ele><time>2026-04-04T17:22:50.824Z</time></trkpt><trkpt lat="42.0342117" lon="-7.9971833"><ele>756.3333333333334</ele><time>2026-04-04T17:22:51.823Z</time></trkpt><trkpt lat="42.034315" lon="-7.997265"><ele>757.5</ele><time>2026-04-04T17:22:53.825Z</time></trkpt><trkpt lat="42.034375" lon="-7.997305"><ele>758.6666666666666</ele><time>2026-04-04T17:22:54.824Z</time></trkpt><trkpt lat="42.0344367" lon="-7.9973467"><ele>759.8333333333333</ele><time>2026-04-04T17:22:55.823Z</time></trkpt><trkpt lat="42.0344983" lon="-7.99738"><ele>761.0</ele><time>2026-04-04T17:22:56.823Z</time></trkpt><trkpt lat="42.0345617" lon="-7.9974033"><ele>761.0</ele><time>2026-04-04T17:22:57.823Z</time></trkpt><trkpt lat="42.0346467" lon="-7.9974317"><ele>761.0</ele><time>2026-04-04T17:22:59.823Z</time></trkpt><trkpt lat="42.0346833" lon="-7.99751"><ele>761.0</ele><time>2026-04-04T17:23:02.823Z</time></trkpt><trkpt lat="42.0347067" lon="-7.9975933"><ele>761.0</ele><time>2026-04-04T17:23:04.823Z</time></trkpt><trkpt lat="42.0347033" lon="-7.9977133"><ele>761.0</ele><time>2026-04-04T17:23:07.826Z</time></trkpt><trkpt lat="42.0346867" lon="-7.9978183"><ele>761.0</ele><time>2026-04-04T17:23:09.823Z</time></trkpt><trkpt lat="42.03466" lon="-7.9979617"><ele>761.0</ele><time>2026-04-04T17:23:11.823Z</time></trkpt><trkpt lat="42.034645" lon="-7.9980867"><ele>761.0</ele><time>2026-04-04T17:23:13.824Z</time></trkpt><trkpt lat="42.034665" lon="-7.9982117"><ele>761.0</ele><time>2026-04-04T17:23:15.824Z</time></trkpt><trkpt lat="42.0346983" lon="-7.99833"><ele>761.0</ele><time>2026-04-04T17:23:17.823Z</time></trkpt><trkpt lat="42.03476" lon="-7.99841"><ele>761.0</ele><time>2026-04-04T17:23:19.824Z</time></trkpt><trkpt lat="42.0348217" lon="-7.9984517"><ele>761.0</ele><time>2026-04-04T17:23:21.824Z</time></trkpt><trkpt lat="42.0349" lon="-7.99848"><ele>761.0</ele><time>2026-04-04T17:23:24.824Z</time></trkpt><trkpt lat="42.03497" lon="-7.9984917"><ele>761.0</ele><time>2026-04-04T17:23:26.824Z</time></trkpt><trkpt lat="42.0350317" lon="-7.9985183"><ele>761.0</ele><time>2026-04-04T17:23:28.823Z</time></trkpt><trkpt lat="42.0351167" lon="-7.99861"><ele>761.0</ele><time>2026-04-04T17:23:30.824Z</time></trkpt><trkpt lat="42.0351733" lon="-7.9986883"><ele>761.0</ele><time>2026-04-04T17:23:31.824Z</time></trkpt><trkpt lat="42.0352217" lon="-7.9987583"><ele>761.0</ele><time>2026-04-04T17:23:32.824Z</time></trkpt><trkpt lat="42.0352717" lon="-7.9988283"><ele>761.4</ele><time>2026-04-04T17:23:33.823Z</time></trkpt><trkpt lat="42.0353183" lon="-7.9989067"><ele>761.8</ele><time>2026-04-04T17:23:34.823Z</time></trkpt><trkpt lat="42.0353583" lon="-7.9989867"><ele>762.1999999999999</ele><time>2026-04-04T17:23:35.824Z</time></trkpt><trkpt lat="42.0354117" lon="-7.9991267"><ele>762.5999999999999</ele><time>2026-04-04T17:23:37.823Z</time></trkpt><trkpt lat="42.0354433" lon="-7.999255"><ele>763.0</ele><time>2026-04-04T17:23:39.823Z</time></trkpt><trkpt lat="42.035465" lon="-7.9993683"><ele>762.1666666666667</ele><time>2026-04-04T17:23:41.823Z</time></trkpt><trkpt lat="42.0354817" lon="-7.9994917"><ele>761.3333333333334</ele><time>2026-04-04T17:23:43.823Z</time></trkpt><trkpt lat="42.0355017" lon="-7.999625"><ele>760.5</ele><time>2026-04-04T17:23:45.824Z</time></trkpt><trkpt lat="42.0355383" lon="-7.9997583"><ele>759.6666666666666</ele><time>2026-04-04T17:23:47.823Z</time></trkpt><trkpt lat="42.0355733" lon="-7.999835"><ele>758.8333333333333</ele><time>2026-04-04T17:23:48.825Z</time></trkpt><trkpt lat="42.03561" lon="-7.9999083"><ele>758.0</ele><time>2026-04-04T17:23:49.823Z</time></trkpt><trkpt lat="42.035695" lon="-8.000025"><ele>758.0</ele><time>2026-04-04T17:23:51.824Z</time></trkpt><trkpt lat="42.03577" lon="-8.0001267"><ele>758.0</ele><time>2026-04-04T17:23:53.823Z</time></trkpt><trkpt lat="42.0358383" lon="-8.0001733"><ele>758.0</ele><time>2026-04-04T17:23:55.823Z</time></trkpt><trkpt lat="42.0359067" lon="-8.000125"><ele>758.0</ele><time>2026-04-04T17:23:57.823Z</time></trkpt><trkpt lat="42.0359317" lon="-8.00003"><ele>758.0</ele><time>2026-04-04T17:23:58.823Z</time></trkpt><trkpt lat="42.0359633" lon="-7.99993"><ele>758.0</ele><time>2026-04-04T17:23:59.823Z</time></trkpt><trkpt lat="42.0359983" lon="-7.9998317"><ele>760.0</ele><time>2026-04-04T17:24:00.825Z</time></trkpt><trkpt lat="42.0360233" lon="-7.99974"><ele>762.0</ele><time>2026-04-04T17:24:01.824Z</time></trkpt><trkpt lat="42.0360433" lon="-7.9996583"><ele>764.0</ele><time>2026-04-04T17:24:02.824Z</time></trkpt><trkpt lat="42.036105" lon="-7.9995283"><ele>766.0</ele><time>2026-04-04T17:24:04.824Z</time></trkpt><trkpt lat="42.03621" lon="-7.999455"><ele>768.0000000000001</ele><time>2026-04-04T17:24:06.823Z</time></trkpt><trkpt lat="42.0362667" lon="-7.999405"><ele>770.0</ele><time>2026-04-04T17:24:07.823Z</time></trkpt><trkpt lat="42.03632" lon="-7.9993583"><ele>770.0</ele><time>2026-04-04T17:24:08.825Z</time></trkpt><trkpt lat="42.0364267" lon="-7.9993033"><ele>770.0</ele><time>2026-04-04T17:24:10.824Z</time></trkpt><trkpt lat="42.0365383" lon="-7.9993167"><ele>770.0</ele><time>2026-04-04T17:24:12.824Z</time></trkpt><trkpt lat="42.0366" lon="-7.9993433"><ele>770.0</ele><time>2026-04-04T17:24:13.823Z</time></trkpt><trkpt lat="42.0366767" lon="-7.9993867"><ele>770.0</ele><time>2026-04-04T17:24:14.824Z</time></trkpt><trkpt lat="42.0367667" lon="-7.9994433"><ele>769.75</ele><time>2026-04-04T17:24:15.824Z</time></trkpt><trkpt lat="42.0368833" lon="-7.9995067"><ele>769.5</ele><time>2026-04-04T17:24:16.823Z</time></trkpt><trkpt lat="42.0370117" lon="-7.999575"><ele>769.25</ele><time>2026-04-04T17:24:17.824Z</time></trkpt><trkpt lat="42.03712" lon="-7.999635"><ele>769.0</ele><time>2026-04-04T17:24:18.825Z</time></trkpt><trkpt lat="42.037215" lon="-7.9996767"><ele>769.0</ele><time>2026-04-04T17:24:19.824Z</time></trkpt><trkpt lat="42.0373133" lon="-7.9997183"><ele>769.0</ele><time>2026-04-04T17:24:20.824Z</time></trkpt><trkpt lat="42.037415" lon="-7.999745"><ele>769.0</ele><time>2026-04-04T17:24:21.825Z</time></trkpt><trkpt lat="42.0375167" lon="-7.999765"><ele>769.0</ele><time>2026-04-04T17:24:22.824Z</time></trkpt><trkpt lat="42.037625" lon="-7.9997783"><ele>769.0</ele><time>2026-04-04T17:24:23.824Z</time></trkpt><trkpt lat="42.0377283" lon="-7.99979"><ele>767.75</ele><time>2026-04-04T17:24:24.824Z</time></trkpt><trkpt lat="42.0378433" lon="-7.9997883"><ele>766.5</ele><time>2026-04-04T17:24:25.823Z</time></trkpt><trkpt lat="42.0379683" lon="-7.9997733"><ele>765.25</ele><time>2026-04-04T17:24:26.825Z</time></trkpt><trkpt lat="42.0381083" lon="-7.9997633"><ele>764.0</ele><time>2026-04-04T17:24:27.824Z</time></trkpt><trkpt lat="42.0382433" lon="-7.99975"><ele>762.75</ele><time>2026-04-04T17:24:28.824Z</time></trkpt><trkpt lat="42.0383733" lon="-7.9997367"><ele>761.5</ele><time>2026-04-04T17:24:29.824Z</time></trkpt><trkpt lat="42.038495" lon="-7.9997267"><ele>760.25</ele><time>2026-04-04T17:24:30.824Z</time></trkpt><trkpt lat="42.0386083" lon="-7.9997183"><ele>759.0</ele><time>2026-04-04T17:24:31.824Z</time></trkpt><trkpt lat="42.0387067" lon="-7.9997133"><ele>759.0</ele><time>2026-04-04T17:24:32.823Z</time></trkpt><trkpt lat="42.0388067" lon="-7.9997133"><ele>759.0</ele><time>2026-04-04T17:24:33.823Z</time></trkpt><trkpt lat="42.0388967" lon="-7.99973"><ele>759.0</ele><time>2026-04-04T17:24:34.824Z</time></trkpt><trkpt lat="42.038985" lon="-7.9997417"><ele>759.0</ele><time>2026-04-04T17:24:35.824Z</time></trkpt><trkpt lat="42.0390717" lon="-7.9997583"><ele>759.0</ele><time>2026-04-04T17:24:36.824Z</time></trkpt><trkpt lat="42.0391617" lon="-7.9997583"><ele>759.1666666666666</ele><time>2026-04-04T17:24:37.824Z</time></trkpt><trkpt lat="42.0392517" lon="-7.9997683"><ele>759.3333333333334</ele><time>2026-04-04T17:24:38.824Z</time></trkpt><trkpt lat="42.0393417" lon="-7.9997783"><ele>759.5</ele><time>2026-04-04T17:24:39.824Z</time></trkpt><trkpt lat="42.0394333" lon="-7.9997883"><ele>759.6666666666667</ele><time>2026-04-04T17:24:40.824Z</time></trkpt><trkpt lat="42.0395217" lon="-7.999795"><ele>759.8333333333334</ele><time>2026-04-04T17:24:41.825Z</time></trkpt><trkpt lat="42.0396017" lon="-7.9997983"><ele>760.0</ele><time>2026-04-04T17:24:42.824Z</time></trkpt><trkpt lat="42.0396783" lon="-7.9998017"><ele>760.0</ele><time>2026-04-04T17:24:43.824Z</time></trkpt><trkpt lat="42.0397583" lon="-7.9998"><ele>760.0</ele><time>2026-04-04T17:24:44.827Z</time></trkpt><trkpt lat="42.03984" lon="-7.9997867"><ele>760.0</ele><time>2026-04-04T17:24:45.824Z</time></trkpt><trkpt lat="42.039925" lon="-7.99976"><ele>760.0</ele><time>2026-04-04T17:24:46.824Z</time></trkpt><trkpt lat="42.04" lon="-7.99973"><ele>760.0</ele><time>2026-04-04T17:24:47.825Z</time></trkpt><trkpt lat="42.0401017" lon="-7.99967"><ele>760.0</ele><time>2026-04-04T17:24:48.824Z</time></trkpt><trkpt lat="42.040175" lon="-7.999625"><ele>761.1666666666667</ele><time>2026-04-04T17:24:49.825Z</time></trkpt><trkpt lat="42.04025" lon="-7.9995817"><ele>762.3333333333334</ele><time>2026-04-04T17:24:50.824Z</time></trkpt><trkpt lat="42.0403283" lon="-7.9995417"><ele>763.5</ele><time>2026-04-04T17:24:51.823Z</time></trkpt><trkpt lat="42.0404017" lon="-7.9994983"><ele>764.6666666666666</ele><time>2026-04-04T17:24:52.824Z</time></trkpt><trkpt lat="42.0404667" lon="-7.99946"><ele>765.8333333333333</ele><time>2026-04-04T17:24:53.825Z</time></trkpt><trkpt lat="42.040555" lon="-7.9993983"><ele>767.0</ele><time>2026-04-04T17:24:55.826Z</time></trkpt><trkpt lat="42.04062" lon="-7.999355"><ele>767.0</ele><time>2026-04-04T17:24:57.824Z</time></trkpt><trkpt lat="42.04075" lon="-7.99931"><ele>767.0</ele><time>2026-04-04T17:24:59.824Z</time></trkpt><trkpt lat="42.0408367" lon="-7.9992817"><ele>767.0</ele><time>2026-04-04T17:25:00.824Z</time></trkpt><trkpt lat="42.0409217" lon="-7.9992483"><ele>767.0</ele><time>2026-04-04T17:25:01.825Z</time></trkpt><trkpt lat="42.0410183" lon="-7.9992033"><ele>767.0</ele><time>2026-04-04T17:25:02.824Z</time></trkpt><trkpt lat="42.0411133" lon="-7.9991517"><ele>769.4000000000001</ele><time>2026-04-04T17:25:03.824Z</time></trkpt><trkpt lat="42.0412117" lon="-7.99908"><ele>771.8000000000001</ele><time>2026-04-04T17:25:04.824Z</time></trkpt><trkpt lat="42.0412933" lon="-7.9990083"><ele>774.2</ele><time>2026-04-04T17:25:05.824Z</time></trkpt><trkpt lat="42.0413683" lon="-7.9989333"><ele>776.6</ele><time>2026-04-04T17:25:06.824Z</time></trkpt><trkpt lat="42.0414333" lon="-7.99886"><ele>779.0</ele><time>2026-04-04T17:25:07.824Z</time></trkpt><trkpt lat="42.0414917" lon="-7.99879"><ele>779.0</ele><time>2026-04-04T17:25:08.823Z</time></trkpt><trkpt lat="42.0415667" lon="-7.9986767"><ele>779.0</ele><time>2026-04-04T17:25:10.823Z</time></trkpt><trkpt lat="42.0416283" lon="-7.998595"><ele>779.0</ele><time>2026-04-04T17:25:12.824Z</time></trkpt><trkpt lat="42.04171" lon="-7.99857"><ele>779.0</ele><time>2026-04-04T17:25:15.824Z</time></trkpt><trkpt lat="42.0418217" lon="-7.9985933"><ele>779.0</ele><time>2026-04-04T17:25:17.824Z</time></trkpt><trkpt lat="42.0419" lon="-7.998615"><ele>779.1666666666667</ele><time>2026-04-04T17:25:18.823Z</time></trkpt><trkpt lat="42.0419683" lon="-7.9986367"><ele>779.3333333333334</ele><time>2026-04-04T17:25:19.824Z</time></trkpt><trkpt lat="42.04205" lon="-7.998655"><ele>779.5</ele><time>2026-04-04T17:25:20.824Z</time></trkpt><trkpt lat="42.0421217" lon="-7.9986717"><ele>779.6666666666667</ele><time>2026-04-04T17:25:21.825Z</time></trkpt><trkpt lat="42.0421917" lon="-7.998685"><ele>779.8333333333334</ele><time>2026-04-04T17:25:22.827Z</time></trkpt><trkpt lat="42.0422733" lon="-7.9986917"><ele>780.0</ele><time>2026-04-04T17:25:23.825Z</time></trkpt><trkpt lat="42.0423483" lon="-7.99871"><ele>780.0</ele><time>2026-04-04T17:25:24.824Z</time></trkpt><trkpt lat="42.0424217" lon="-7.9987267"><ele>780.0</ele><time>2026-04-04T17:25:25.828Z</time></trkpt><trkpt lat="42.0424867" lon="-7.9987433"><ele>780.0</ele><time>2026-04-04T17:25:26.824Z</time></trkpt><trkpt lat="42.0425517" lon="-7.9987483"><ele>780.0</ele><time>2026-04-04T17:25:27.823Z</time></trkpt><trkpt lat="42.0426317" lon="-7.9987333"><ele>780.0</ele><time>2026-04-04T17:25:28.823Z</time></trkpt><trkpt lat="42.0427" lon="-7.9987167"><ele>780.0</ele><time>2026-04-04T17:25:29.822Z</time></trkpt><trkpt lat="42.0427633" lon="-7.9987033"><ele>780.0</ele><time>2026-04-04T17:25:30.823Z</time></trkpt><trkpt lat="42.042885" lon="-7.9986583"><ele>779.3333333333334</ele><time>2026-04-04T17:25:32.824Z</time></trkpt><trkpt lat="42.042945" lon="-7.99862"><ele>778.6666666666667</ele><time>2026-04-04T17:25:33.823Z</time></trkpt><trkpt lat="42.04301" lon="-7.99858"><ele>778.0</ele><time>2026-04-04T17:25:34.822Z</time></trkpt><trkpt lat="42.0430733" lon="-7.9985533"><ele>777.3333333333334</ele><time>2026-04-04T17:25:35.823Z</time></trkpt><trkpt lat="42.04315" lon="-7.998525"><ele>776.6666666666667</ele><time>2026-04-04T17:25:36.823Z</time></trkpt><trkpt lat="42.0432333" lon="-7.9985233"><ele>776.0</ele><time>2026-04-04T17:25:37.824Z</time></trkpt><trkpt lat="42.04333" lon="-7.998525"><ele>776.0</ele><time>2026-04-04T17:25:38.823Z</time></trkpt><trkpt lat="42.0434217" lon="-7.9985283"><ele>776.0</ele><time>2026-04-04T17:25:39.822Z</time></trkpt><trkpt lat="42.04352" lon="-7.9985317"><ele>776.0</ele><time>2026-04-04T17:25:40.824Z</time></trkpt><trkpt lat="42.0436167" lon="-7.9985383"><ele>776.0</ele><time>2026-04-04T17:25:41.823Z</time></trkpt><trkpt lat="42.0437067" lon="-7.9985433"><ele>776.0</ele><time>2026-04-04T17:25:42.823Z</time></trkpt><trkpt lat="42.043805" lon="-7.998545"><ele>776.0</ele><time>2026-04-04T17:25:43.823Z</time></trkpt><trkpt lat="42.0439033" lon="-7.9985517"><ele>776.0</ele><time>2026-04-04T17:25:44.824Z</time></trkpt><trkpt lat="42.0440033" lon="-7.9985533"><ele>776.0</ele><time>2026-04-04T17:25:45.823Z</time></trkpt><trkpt lat="42.0441133" lon="-7.9985533"><ele>776.0</ele><time>2026-04-04T17:25:46.822Z</time></trkpt><trkpt lat="42.0442183" lon="-7.998555"><ele>776.0</ele><time>2026-04-04T17:25:47.823Z</time></trkpt><trkpt lat="42.04433" lon="-7.998555"><ele>778.0</ele><time>2026-04-04T17:25:48.823Z</time></trkpt><trkpt lat="42.044445" lon="-7.9985517"><ele>780.0</ele><time>2026-04-04T17:25:49.824Z</time></trkpt><trkpt lat="42.0445683" lon="-7.9985467"><ele>782.0</ele><time>2026-04-04T17:25:50.824Z</time></trkpt><trkpt lat="42.0446933" lon="-7.9985483"><ele>784.0</ele><time>2026-04-04T17:25:51.824Z</time></trkpt><trkpt lat="42.0447933" lon="-7.99855"><ele>784.0</ele><time>2026-04-04T17:25:52.822Z</time></trkpt><trkpt lat="42.04491" lon="-7.9985667"><ele>784.0</ele><time>2026-04-04T17:25:53.823Z</time></trkpt><trkpt lat="42.0450217" lon="-7.9985967"><ele>784.0</ele><time>2026-04-04T17:25:54.823Z</time></trkpt><trkpt lat="42.04513" lon="-7.99864"><ele>784.0</ele><time>2026-04-04T17:25:55.822Z</time></trkpt><trkpt lat="42.04523" lon="-7.9986917"><ele>785.6</ele><time>2026-04-04T17:25:56.826Z</time></trkpt><trkpt lat="42.045325" lon="-7.9987367"><ele>787.2</ele><time>2026-04-04T17:25:57.822Z</time></trkpt><trkpt lat="42.0454217" lon="-7.9987783"><ele>788.8000000000001</ele><time>2026-04-04T17:25:58.822Z</time></trkpt><trkpt lat="42.045515" lon="-7.99883"><ele>790.4000000000001</ele><time>2026-04-04T17:25:59.823Z</time></trkpt><trkpt lat="42.0456067" lon="-7.99889"><ele>792.0</ele><time>2026-04-04T17:26:00.823Z</time></trkpt><trkpt lat="42.0456917" lon="-7.9989667"><ele>792.0</ele><time>2026-04-04T17:26:01.824Z</time></trkpt><trkpt lat="42.045765" lon="-7.9990517"><ele>792.0</ele><time>2026-04-04T17:26:02.824Z</time></trkpt><trkpt lat="42.0458333" lon="-7.999155"><ele>792.0</ele><time>2026-04-04T17:26:03.823Z</time></trkpt><trkpt lat="42.0459017" lon="-7.9992617"><ele>792.0</ele><time>2026-04-04T17:26:04.822Z</time></trkpt><trkpt lat="42.0459717" lon="-7.9993683"><ele>792.0</ele><time>2026-04-04T17:26:05.823Z</time></trkpt><trkpt lat="42.0460467" lon="-7.999465"><ele>794.4000000000001</ele><time>2026-04-04T17:26:06.823Z</time></trkpt><trkpt lat="42.0461283" lon="-7.9995617"><ele>796.8000000000001</ele><time>2026-04-04T17:26:07.823Z</time></trkpt><trkpt lat="42.0462117" lon="-7.99965"><ele>799.2</ele><time>2026-04-04T17:26:08.825Z</time></trkpt><trkpt lat="42.0462917" lon="-7.9997417"><ele>801.6</ele><time>2026-04-04T17:26:09.822Z</time></trkpt><trkpt lat="42.0463733" lon="-7.9998167"><ele>804.0</ele><time>2026-04-04T17:26:10.823Z</time></trkpt><trkpt lat="42.0464617" lon="-7.9998717"><ele>804.0</ele><time>2026-04-04T17:26:11.823Z</time></trkpt><trkpt lat="42.046555" lon="-7.99992"><ele>804.0</ele><time>2026-04-04T17:26:12.824Z</time></trkpt><trkpt lat="42.0466483" lon="-7.9999767"><ele>804.0</ele><time>2026-04-04T17:26:13.823Z</time></trkpt><trkpt lat="42.0467283" lon="-8.0000367"><ele>804.0</ele><time>2026-04-04T17:26:14.823Z</time></trkpt><trkpt lat="42.0468" lon="-8.00012"><ele>804.0</ele><time>2026-04-04T17:26:15.823Z</time></trkpt><trkpt lat="42.0468667" lon="-8.0002233"><ele>807.2</ele><time>2026-04-04T17:26:16.824Z</time></trkpt><trkpt lat="42.04694" lon="-8.0003217"><ele>810.4000000000001</ele><time>2026-04-04T17:26:17.823Z</time></trkpt><trkpt lat="42.0470233" lon="-8.0003983"><ele>813.6</ele><time>2026-04-04T17:26:18.823Z</time></trkpt><trkpt lat="42.04712" lon="-8.0004517"><ele>816.8</ele><time>2026-04-04T17:26:19.824Z</time></trkpt><trkpt lat="42.047215" lon="-8.0004983"><ele>820.0</ele><time>2026-04-04T17:26:20.824Z</time></trkpt><trkpt lat="42.0473183" lon="-8.0005417"><ele>820.0</ele><time>2026-04-04T17:26:21.823Z</time></trkpt><trkpt lat="42.0474267" lon="-8.0005767"><ele>820.0</ele><time>2026-04-04T17:26:22.823Z</time></trkpt><trkpt lat="42.0475367" lon="-8.00061"><ele>820.0</ele><time>2026-04-04T17:26:23.822Z</time></trkpt><trkpt lat="42.04766" lon="-8.0006583"><ele>820.0</ele><time>2026-04-04T17:26:24.823Z</time></trkpt><trkpt lat="42.04777" lon="-8.000665"><ele>823.0</ele><time>2026-04-04T17:26:25.824Z</time></trkpt><trkpt lat="42.0478733" lon="-8.0006567"><ele>826.0</ele><time>2026-04-04T17:26:26.824Z</time></trkpt><trkpt lat="42.0479767" lon="-8.0006417"><ele>829.0</ele><time>2026-04-04T17:26:27.823Z</time></trkpt><trkpt lat="42.0480867" lon="-8.0006217"><ele>832.0</ele><time>2026-04-04T17:26:28.822Z</time></trkpt><trkpt lat="42.048195" lon="-8.000605"><ele>835.0</ele><time>2026-04-04T17:26:29.823Z</time></trkpt><trkpt lat="42.0483017" lon="-8.0006033"><ele>835.0</ele><time>2026-04-04T17:26:30.824Z</time></trkpt><trkpt lat="42.0484" lon="-8.0006083"><ele>835.0</ele><time>2026-04-04T17:26:31.823Z</time></trkpt><trkpt lat="42.048485" lon="-8.0006533"><ele>835.0</ele><time>2026-04-04T17:26:32.823Z</time></trkpt><trkpt lat="42.0485517" lon="-8.00073"><ele>835.0</ele><time>2026-04-04T17:26:33.823Z</time></trkpt><trkpt lat="42.04861" lon="-8.00083"><ele>835.0</ele><time>2026-04-04T17:26:34.823Z</time></trkpt><trkpt lat="42.04866" lon="-8.000955"><ele>835.0</ele><time>2026-04-04T17:26:35.823Z</time></trkpt><trkpt lat="42.0487083" lon="-8.00109"><ele>835.0</ele><time>2026-04-04T17:26:36.824Z</time></trkpt><trkpt lat="42.0487633" lon="-8.00124"><ele>835.0</ele><time>2026-04-04T17:26:37.824Z</time></trkpt><trkpt lat="42.048815" lon="-8.00139"><ele>835.0</ele><time>2026-04-04T17:26:38.823Z</time></trkpt><trkpt lat="42.0488633" lon="-8.0015433"><ele>834.75</ele><time>2026-04-04T17:26:39.823Z</time></trkpt><trkpt lat="42.0489183" lon="-8.0017183"><ele>834.5</ele><time>2026-04-04T17:26:40.822Z</time></trkpt><trkpt lat="42.0489717" lon="-8.00187"><ele>834.25</ele><time>2026-04-04T17:26:41.823Z</time></trkpt><trkpt lat="42.049025" lon="-8.0020117"><ele>834.0</ele><time>2026-04-04T17:26:42.825Z</time></trkpt><trkpt lat="42.0490733" lon="-8.002155"><ele>834.0</ele><time>2026-04-04T17:26:43.823Z</time></trkpt><trkpt lat="42.0491133" lon="-8.002295"><ele>834.0</ele><time>2026-04-04T17:26:44.823Z</time></trkpt><trkpt lat="42.049145" lon="-8.0024267"><ele>834.0</ele><time>2026-04-04T17:26:45.823Z</time></trkpt><trkpt lat="42.0491667" lon="-8.0025483"><ele>834.0</ele><time>2026-04-04T17:26:46.823Z</time></trkpt><trkpt lat="42.04919" lon="-8.0026567"><ele>834.0</ele><time>2026-04-04T17:26:47.822Z</time></trkpt><trkpt lat="42.0492183" lon="-8.0027567"><ele>836.1666666666666</ele><time>2026-04-04T17:26:48.824Z</time></trkpt><trkpt lat="42.04925" lon="-8.0028583"><ele>838.3333333333333</ele><time>2026-04-04T17:26:49.823Z</time></trkpt><trkpt lat="42.0492833" lon="-8.0029583"><ele>840.5</ele><time>2026-04-04T17:26:50.823Z</time></trkpt><trkpt lat="42.0493183" lon="-8.0030617"><ele>842.6666666666666</ele><time>2026-04-04T17:26:51.823Z</time></trkpt><trkpt lat="42.0493483" lon="-8.00317"><ele>844.8333333333333</ele><time>2026-04-04T17:26:52.823Z</time></trkpt><trkpt lat="42.0493733" lon="-8.003285"><ele>847.0</ele><time>2026-04-04T17:26:53.824Z</time></trkpt><trkpt lat="42.0493883" lon="-8.0033917"><ele>848.3333333333333</ele><time>2026-04-04T17:26:54.823Z</time></trkpt><trkpt lat="42.0493833" lon="-8.0035167"><ele>849.6666666666666</ele><time>2026-04-04T17:26:55.823Z</time></trkpt><trkpt lat="42.049385" lon="-8.0036417"><ele>851.0</ele><time>2026-04-04T17:26:56.823Z</time></trkpt><trkpt lat="42.0493933" lon="-8.00376"><ele>852.3333333333333</ele><time>2026-04-04T17:26:57.823Z</time></trkpt><trkpt lat="42.0494167" lon="-8.0038667"><ele>853.6666666666666</ele><time>2026-04-04T17:26:58.822Z</time></trkpt><trkpt lat="42.0494517" lon="-8.0039483"><ele>855.0</ele><time>2026-04-04T17:26:59.825Z</time></trkpt><trkpt lat="42.0494933" lon="-8.0040133"><ele>855.0</ele><time>2026-04-04T17:27:00.824Z</time></trkpt><trkpt lat="42.049615" lon="-8.0040383"><ele>855.0</ele><time>2026-04-04T17:27:02.823Z</time></trkpt><trkpt lat="42.0496967" lon="-8.00402"><ele>855.0</ele><time>2026-04-04T17:27:03.824Z</time></trkpt><trkpt lat="42.049795" lon="-8.0039767"><ele>855.0</ele><time>2026-04-04T17:27:04.823Z</time></trkpt><trkpt lat="42.0498917" lon="-8.0039483"><ele>855.0</ele><time>2026-04-04T17:27:05.823Z</time></trkpt><trkpt lat="42.0499833" lon="-8.00395"><ele>856.0</ele><time>2026-04-04T17:27:06.823Z</time></trkpt><trkpt lat="42.0500717" lon="-8.003965"><ele>857.0</ele><time>2026-04-04T17:27:07.823Z</time></trkpt><trkpt lat="42.0501567" lon="-8.003985"><ele>858.0</ele><time>2026-04-04T17:27:08.826Z</time></trkpt><trkpt lat="42.0502433" lon="-8.0040067"><ele>859.0</ele><time>2026-04-04T17:27:09.823Z</time></trkpt><trkpt lat="42.0503333" lon="-8.0040333"><ele>860.0</ele><time>2026-04-04T17:27:10.824Z</time></trkpt><trkpt lat="42.0504033" lon="-8.004075"><ele>861.0</ele><time>2026-04-04T17:27:11.822Z</time></trkpt><trkpt lat="42.0504933" lon="-8.0041483"><ele>863.3333333333334</ele><time>2026-04-04T17:27:13.823Z</time></trkpt><trkpt lat="42.0504183" lon="-8.0042583"><ele>865.6666666666667</ele><time>2026-04-04T17:27:17.823Z</time></trkpt><trkpt lat="42.0503433" lon="-8.0043617"><ele>868.0</ele><time>2026-04-04T17:27:19.823Z</time></trkpt><trkpt lat="42.0502983" lon="-8.0044283"><ele>870.3333333333334</ele><time>2026-04-04T17:27:20.823Z</time></trkpt><trkpt lat="42.050245" lon="-8.0044967"><ele>872.6666666666667</ele><time>2026-04-04T17:27:21.822Z</time></trkpt><trkpt lat="42.0501867" lon="-8.0045617"><ele>875.0</ele><time>2026-04-04T17:27:22.823Z</time></trkpt><trkpt lat="42.0501267" lon="-8.0046217"><ele>875.0000000000001</ele><time>2026-04-04T17:27:23.823Z</time></trkpt><trkpt lat="42.0500617" lon="-8.0046817"><ele>875.0</ele><time>2026-04-04T17:27:24.824Z</time></trkpt><trkpt lat="42.050005" lon="-8.0047433"><ele>875.0</ele><time>2026-04-04T17:27:25.823Z</time></trkpt><trkpt lat="42.0499583" lon="-8.0048067"><ele>875.0</ele><time>2026-04-04T17:27:26.827Z</time></trkpt><trkpt lat="42.0499333" lon="-8.0049367"><ele>875.0000000000001</ele><time>2026-04-04T17:27:28.823Z</time></trkpt><trkpt lat="42.04997" lon="-8.0050817"><ele>875.0</ele><time>2026-04-04T17:27:30.823Z</time></trkpt><trkpt lat="42.0500333" lon="-8.0052233"><ele>877.4</ele><time>2026-04-04T17:27:32.824Z</time></trkpt><trkpt lat="42.0500983" lon="-8.0053417"><ele>879.8</ele><time>2026-04-04T17:27:34.823Z</time></trkpt><trkpt lat="42.05017" lon="-8.00546"><ele>882.2</ele><time>2026-04-04T17:27:36.823Z</time></trkpt><trkpt lat="42.0502167" lon="-8.0055733"><ele>884.6</ele><time>2026-04-04T17:27:38.823Z</time></trkpt><trkpt lat="42.0502267" lon="-8.0056883"><ele>887.0</ele><time>2026-04-04T17:27:40.823Z</time></trkpt><trkpt lat="42.0501933" lon="-8.0058117"><ele>888.0000000000001</ele><time>2026-04-04T17:27:42.824Z</time></trkpt><trkpt lat="42.0501917" lon="-8.0059117"><ele>889.0</ele><time>2026-04-04T17:27:44.824Z</time></trkpt><trkpt lat="42.05019" lon="-8.0060217"><ele>890.0</ele><time>2026-04-04T17:27:46.823Z</time></trkpt><trkpt lat="42.0501817" lon="-8.0061367"><ele>891.0</ele><time>2026-04-04T17:27:48.824Z</time></trkpt><trkpt lat="42.0502217" lon="-8.0062383"><ele>892.0000000000001</ele><time>2026-04-04T17:27:50.824Z</time></trkpt><trkpt lat="42.0502767" lon="-8.0063233"><ele>893.0</ele><time>2026-04-04T17:27:52.824Z</time></trkpt><trkpt lat="42.0503333" lon="-8.0063817"><ele>893.0</ele><time>2026-04-04T17:27:54.825Z</time></trkpt><trkpt lat="42.05038" lon="-8.0064667"><ele>893.0</ele><time>2026-04-04T17:27:57.823Z</time></trkpt><trkpt lat="42.05038" lon="-8.0065767"><ele>893.0</ele><time>2026-04-04T17:27:59.823Z</time></trkpt><trkpt lat="42.0503517" lon="-8.0067233"><ele>893.0</ele><time>2026-04-04T17:28:01.823Z</time></trkpt><trkpt lat="42.0503133" lon="-8.006885"><ele>893.0</ele><time>2026-04-04T17:28:03.825Z</time></trkpt><trkpt lat="42.0502467" lon="-8.0070317"><ele>894.75</ele><time>2026-04-04T17:28:05.824Z</time></trkpt><trkpt lat="42.050195" lon="-8.0071667"><ele>896.5</ele><time>2026-04-04T17:28:07.824Z</time></trkpt><trkpt lat="42.05015" lon="-8.0073117"><ele>898.25</ele><time>2026-04-04T17:28:09.823Z</time></trkpt><trkpt lat="42.0501033" lon="-8.007465"><ele>900.0</ele><time>2026-04-04T17:28:11.824Z</time></trkpt><trkpt lat="42.05005" lon="-8.0076033"><ele>899.4</ele><time>2026-04-04T17:28:13.823Z</time></trkpt><trkpt lat="42.0499817" lon="-8.0077433"><ele>898.8</ele><time>2026-04-04T17:28:15.823Z</time></trkpt><trkpt lat="42.0499383" lon="-8.007865"><ele>898.2</ele><time>2026-04-04T17:28:17.824Z</time></trkpt><trkpt lat="42.0499217" lon="-8.0079917"><ele>897.6</ele><time>2026-04-04T17:28:19.824Z</time></trkpt><trkpt lat="42.0499317" lon="-8.0081283"><ele>897.0</ele><time>2026-04-04T17:28:21.823Z</time></trkpt><trkpt lat="42.049985" lon="-8.008265"><ele>899.0</ele><time>2026-04-04T17:28:23.823Z</time></trkpt><trkpt lat="42.0500433" lon="-8.0083933"><ele>901.0</ele><time>2026-04-04T17:28:25.824Z</time></trkpt><trkpt lat="42.0501167" lon="-8.0085183"><ele>903.0</ele><time>2026-04-04T17:28:27.824Z</time></trkpt><trkpt lat="42.05019" lon="-8.00863"><ele>905.0</ele><time>2026-04-04T17:28:29.823Z</time></trkpt><trkpt lat="42.0502433" lon="-8.0087283"><ele>907.0</ele><time>2026-04-04T17:28:31.824Z</time></trkpt><trkpt lat="42.0502867" lon="-8.0088367"><ele>906.9999999999999</ele><time>2026-04-04T17:28:33.823Z</time></trkpt><trkpt lat="42.05032" lon="-8.0089633"><ele>907.0</ele><time>2026-04-04T17:28:35.824Z</time></trkpt><trkpt lat="42.0503083" lon="-8.0091317"><ele>907.0</ele><time>2026-04-04T17:28:37.824Z</time></trkpt><trkpt lat="42.0503017" lon="-8.0092267"><ele>907.0</ele><time>2026-04-04T17:28:38.824Z</time></trkpt><trkpt lat="42.0502967" lon="-8.00933"><ele>906.9999999999999</ele><time>2026-04-04T17:28:39.824Z</time></trkpt><trkpt lat="42.0503" lon="-8.0094317"><ele>907.0</ele><time>2026-04-04T17:28:40.825Z</time></trkpt><trkpt lat="42.050305" lon="-8.0095267"><ele>906.8333333333333</ele><time>2026-04-04T17:28:41.824Z</time></trkpt><trkpt lat="42.0503283" lon="-8.00969"><ele>906.6666666666666</ele><time>2026-04-04T17:28:43.824Z</time></trkpt><trkpt lat="42.05037" lon="-8.009845"><ele>906.5</ele><time>2026-04-04T17:28:45.826Z</time></trkpt><trkpt lat="42.050405" lon="-8.0099233"><ele>906.3333333333333</ele><time>2026-04-04T17:28:46.824Z</time></trkpt><trkpt lat="42.0504433" lon="-8.009995"><ele>906.1666666666666</ele><time>2026-04-04T17:28:47.826Z</time></trkpt><trkpt lat="42.0504833" lon="-8.0100633"><ele>906.0</ele><time>2026-04-04T17:28:48.824Z</time></trkpt><trkpt lat="42.050565" lon="-8.0101833"><ele>906.0</ele><time>2026-04-04T17:28:50.825Z</time></trkpt><trkpt lat="42.0506467" lon="-8.010275"><ele>906.0</ele><time>2026-04-04T17:28:52.825Z</time></trkpt><trkpt lat="42.05072" lon="-8.01032"><ele>906.0</ele><time>2026-04-04T17:28:54.824Z</time></trkpt><trkpt lat="42.0507983" lon="-8.0103583"><ele>906.0</ele><time>2026-04-04T17:29:16.825Z</time></trkpt><trkpt lat="42.050895" lon="-8.01041"><ele>906.0</ele><time>2026-04-04T17:29:18.825Z</time></trkpt><trkpt lat="42.0509633" lon="-8.010425"><ele>906.0</ele><time>2026-04-04T17:29:19.825Z</time></trkpt><trkpt lat="42.0510533" lon="-8.01044"><ele>906.25</ele><time>2026-04-04T17:29:20.825Z</time></trkpt><trkpt lat="42.051165" lon="-8.01046"><ele>906.5</ele><time>2026-04-04T17:29:21.824Z</time></trkpt><trkpt lat="42.0512817" lon="-8.0104767"><ele>906.75</ele><time>2026-04-04T17:29:22.824Z</time></trkpt><trkpt lat="42.0513967" lon="-8.0104867"><ele>907.0</ele><time>2026-04-04T17:29:23.825Z</time></trkpt><trkpt lat="42.0515117" lon="-8.0104983"><ele>907.4000000000001</ele><time>2026-04-04T17:29:24.825Z</time></trkpt><trkpt lat="42.05163" lon="-8.0105117"><ele>907.8000000000001</ele><time>2026-04-04T17:29:25.824Z</time></trkpt><trkpt lat="42.05174" lon="-8.0105267"><ele>908.2</ele><time>2026-04-04T17:29:26.824Z</time></trkpt><trkpt lat="42.0518483" lon="-8.0105367"><ele>908.6</ele><time>2026-04-04T17:29:27.825Z</time></trkpt><trkpt lat="42.0519483" lon="-8.0105433"><ele>909.0</ele><time>2026-04-04T17:29:28.824Z</time></trkpt><trkpt lat="42.0520417" lon="-8.0105467"><ele>909.0</ele><time>2026-04-04T17:29:29.825Z</time></trkpt><trkpt lat="42.0521383" lon="-8.010555"><ele>909.0000000000001</ele><time>2026-04-04T17:29:30.824Z</time></trkpt><trkpt lat="42.0522367" lon="-8.0105633"><ele>909.0000000000001</ele><time>2026-04-04T17:29:31.825Z</time></trkpt><trkpt lat="42.0523383" lon="-8.0105733"><ele>909.0</ele><time>2026-04-04T17:29:32.825Z</time></trkpt><trkpt lat="42.052445" lon="-8.0105883"><ele>909.0</ele><time>2026-04-04T17:29:33.824Z</time></trkpt><trkpt lat="42.052545" lon="-8.0106017"><ele>909.4000000000001</ele><time>2026-04-04T17:29:34.824Z</time></trkpt><trkpt lat="42.05264" lon="-8.0106317"><ele>909.8000000000001</ele><time>2026-04-04T17:29:35.824Z</time></trkpt><trkpt lat="42.0527367" lon="-8.0106817"><ele>910.1999999999999</ele><time>2026-04-04T17:29:36.824Z</time></trkpt><trkpt lat="42.0528333" lon="-8.01074"><ele>910.5999999999999</ele><time>2026-04-04T17:29:37.823Z</time></trkpt><trkpt lat="42.0529283" lon="-8.0107967"><ele>911.0</ele><time>2026-04-04T17:29:38.823Z</time></trkpt><trkpt lat="42.05302" lon="-8.0108467"><ele>914.4</ele><time>2026-04-04T17:29:39.822Z</time></trkpt><trkpt lat="42.053115" lon="-8.0109033"><ele>917.8</ele><time>2026-04-04T17:29:40.826Z</time></trkpt><trkpt lat="42.05321" lon="-8.01096"><ele>921.1999999999999</ele><time>2026-04-04T17:29:41.823Z</time></trkpt><trkpt lat="42.053295" lon="-8.011015"><ele>924.5999999999999</ele><time>2026-04-04T17:29:42.824Z</time></trkpt><trkpt lat="42.05338" lon="-8.011085"><ele>928.0</ele><time>2026-04-04T17:29:43.823Z</time></trkpt><trkpt lat="42.05346" lon="-8.011155"><ele>928.0</ele><time>2026-04-04T17:29:44.824Z</time></trkpt><trkpt lat="42.0535383" lon="-8.0112183"><ele>928.0</ele><time>2026-04-04T17:29:45.822Z</time></trkpt><trkpt lat="42.0536217" lon="-8.0112767"><ele>928.0</ele><time>2026-04-04T17:29:46.823Z</time></trkpt><trkpt lat="42.0537117" lon="-8.0113267"><ele>928.0</ele><time>2026-04-04T17:29:47.823Z</time></trkpt><trkpt lat="42.053805" lon="-8.0113817"><ele>928.0</ele><time>2026-04-04T17:29:48.824Z</time></trkpt><trkpt lat="42.0538983" lon="-8.011455"><ele>928.0</ele><time>2026-04-04T17:29:49.823Z</time></trkpt><trkpt lat="42.0539817" lon="-8.0115417"><ele>928.0</ele><time>2026-04-04T17:29:50.824Z</time></trkpt><trkpt lat="42.0540533" lon="-8.0116483"><ele>928.0</ele><time>2026-04-04T17:29:51.823Z</time></trkpt><trkpt lat="42.054115" lon="-8.011765"><ele>928.0</ele><time>2026-04-04T17:29:52.823Z</time></trkpt><trkpt lat="42.0541867" lon="-8.0118767"><ele>928.0</ele><time>2026-04-04T17:29:53.823Z</time></trkpt><trkpt lat="42.054255" lon="-8.0119883"><ele>930.25</ele><time>2026-04-04T17:29:54.823Z</time></trkpt><trkpt lat="42.0543317" lon="-8.012095"><ele>932.5</ele><time>2026-04-04T17:29:55.823Z</time></trkpt><trkpt lat="42.0544117" lon="-8.0121967"><ele>934.75</ele><time>2026-04-04T17:29:56.825Z</time></trkpt><trkpt lat="42.0544917" lon="-8.0123083"><ele>937.0</ele><time>2026-04-04T17:29:57.823Z</time></trkpt><trkpt lat="42.0545717" lon="-8.0124183"><ele>940.0</ele><time>2026-04-04T17:29:58.823Z</time></trkpt><trkpt lat="42.0546533" lon="-8.0125267"><ele>943.0</ele><time>2026-04-04T17:29:59.823Z</time></trkpt><trkpt lat="42.0547367" lon="-8.0126367"><ele>946.0</ele><time>2026-04-04T17:30:00.824Z</time></trkpt><trkpt lat="42.0548117" lon="-8.0127467"><ele>949.0</ele><time>2026-04-04T17:30:01.823Z</time></trkpt><trkpt lat="42.054885" lon="-8.0128583"><ele>949.0</ele><time>2026-04-04T17:30:02.824Z</time></trkpt><trkpt lat="42.054955" lon="-8.012975"><ele>949.0</ele><time>2026-04-04T17:30:03.823Z</time></trkpt><trkpt lat="42.055025" lon="-8.0130967"><ele>949.0</ele><time>2026-04-04T17:30:04.823Z</time></trkpt><trkpt lat="42.0551017" lon="-8.0132233"><ele>949.0</ele><time>2026-04-04T17:30:05.823Z</time></trkpt><trkpt lat="42.0551833" lon="-8.0133517"><ele>949.0</ele><time>2026-04-04T17:30:06.823Z</time></trkpt><trkpt lat="42.05527" lon="-8.01347"><ele>949.0</ele><time>2026-04-04T17:30:07.823Z</time></trkpt><trkpt lat="42.05536" lon="-8.0135817"><ele>949.0</ele><time>2026-04-04T17:30:08.823Z</time></trkpt><trkpt lat="42.0554533" lon="-8.0136867"><ele>949.0</ele><time>2026-04-04T17:30:09.823Z</time></trkpt><trkpt lat="42.0555517" lon="-8.013795"><ele>949.0</ele><time>2026-04-04T17:30:10.823Z</time></trkpt><trkpt lat="42.05565" lon="-8.0139017"><ele>949.0</ele><time>2026-04-04T17:30:11.838Z</time></trkpt><trkpt lat="42.0557417" lon="-8.0140067"><ele>949.0</ele><time>2026-04-04T17:30:12.824Z</time></trkpt><trkpt lat="42.0558317" lon="-8.0141"><ele>949.0</ele><time>2026-04-04T17:30:13.823Z</time></trkpt><trkpt lat="42.05592" lon="-8.014195"><ele>948.75</ele><time>2026-04-04T17:30:14.825Z</time></trkpt><trkpt lat="42.05601" lon="-8.0142833"><ele>948.5</ele><time>2026-04-04T17:30:15.823Z</time></trkpt><trkpt lat="42.0561017" lon="-8.0143733"><ele>948.25</ele><time>2026-04-04T17:30:16.823Z</time></trkpt><trkpt lat="42.0561883" lon="-8.0144733"><ele>948.0</ele><time>2026-04-04T17:30:17.823Z</time></trkpt><trkpt lat="42.05627" lon="-8.01458"><ele>948.0</ele><time>2026-04-04T17:30:18.823Z</time></trkpt><trkpt lat="42.0563483" lon="-8.0146933"><ele>948.0</ele><time>2026-04-04T17:30:19.823Z</time></trkpt><trkpt lat="42.0564233" lon="-8.0148083"><ele>948.0</ele><time>2026-04-04T17:30:20.823Z</time></trkpt><trkpt lat="42.0565" lon="-8.014915"><ele>948.0</ele><time>2026-04-04T17:30:21.823Z</time></trkpt><trkpt lat="42.05658" lon="-8.0150233"><ele>947.2</ele><time>2026-04-04T17:30:22.823Z</time></trkpt><trkpt lat="42.0566617" lon="-8.015125"><ele>946.4</ele><time>2026-04-04T17:30:23.823Z</time></trkpt><trkpt lat="42.0567417" lon="-8.0152233"><ele>945.6000000000001</ele><time>2026-04-04T17:30:24.824Z</time></trkpt><trkpt lat="42.0568167" lon="-8.015315"><ele>944.8000000000001</ele><time>2026-04-04T17:30:25.823Z</time></trkpt><trkpt lat="42.0568883" lon="-8.015415"><ele>944.0</ele><time>2026-04-04T17:30:26.824Z</time></trkpt><trkpt lat="42.0569583" lon="-8.0155283"><ele>944.0</ele><time>2026-04-04T17:30:27.823Z</time></trkpt><trkpt lat="42.0570183" lon="-8.01566"><ele>944.0</ele><time>2026-04-04T17:30:28.823Z</time></trkpt><trkpt lat="42.0570717" lon="-8.0158067"><ele>944.0</ele><time>2026-04-04T17:30:29.823Z</time></trkpt><trkpt lat="42.0571217" lon="-8.0159633"><ele>944.0</ele><time>2026-04-04T17:30:30.824Z</time></trkpt><trkpt lat="42.0571733" lon="-8.0161067"><ele>943.0</ele><time>2026-04-04T17:30:31.823Z</time></trkpt><trkpt lat="42.057245" lon="-8.0162333"><ele>942.0</ele><time>2026-04-04T17:30:32.824Z</time></trkpt><trkpt lat="42.057335" lon="-8.0163433"><ele>941.0</ele><time>2026-04-04T17:30:33.823Z</time></trkpt><trkpt lat="42.0574333" lon="-8.0164483"><ele>940.0</ele><time>2026-04-04T17:30:34.826Z</time></trkpt><trkpt lat="42.0575533" lon="-8.0165467"><ele>938.5</ele><time>2026-04-04T17:30:35.823Z</time></trkpt><trkpt lat="42.05766" lon="-8.0166667"><ele>937.0</ele><time>2026-04-04T17:30:36.824Z</time></trkpt><trkpt lat="42.0577567" lon="-8.01681"><ele>935.5</ele><time>2026-04-04T17:30:37.824Z</time></trkpt><trkpt lat="42.057855" lon="-8.016945"><ele>934.0</ele><time>2026-04-04T17:30:38.826Z</time></trkpt><trkpt lat="42.0579533" lon="-8.0170617"><ele>934.0</ele><time>2026-04-04T17:30:39.825Z</time></trkpt><trkpt lat="42.058055" lon="-8.0171667"><ele>934.0</ele><time>2026-04-04T17:30:40.823Z</time></trkpt><trkpt lat="42.0581583" lon="-8.0172667"><ele>934.0</ele><time>2026-04-04T17:30:41.824Z</time></trkpt><trkpt lat="42.0582567" lon="-8.0173583"><ele>934.0</ele><time>2026-04-04T17:30:42.825Z</time></trkpt><trkpt lat="42.05835" lon="-8.017445"><ele>937.25</ele><time>2026-04-04T17:30:43.827Z</time></trkpt><trkpt lat="42.0584233" lon="-8.0175483"><ele>940.5</ele><time>2026-04-04T17:30:44.83Z</time></trkpt><trkpt lat="42.0584833" lon="-8.0176733"><ele>943.75</ele><time>2026-04-04T17:30:45.828Z</time></trkpt><trkpt lat="42.058525" lon="-8.0178233"><ele>947.0</ele><time>2026-04-04T17:30:46.826Z</time></trkpt><trkpt lat="42.05858" lon="-8.01797"><ele>947.0</ele><time>2026-04-04T17:30:47.827Z</time></trkpt><trkpt lat="42.0586483" lon="-8.0181067"><ele>947.0</ele><time>2026-04-04T17:30:48.825Z</time></trkpt><trkpt lat="42.0587333" lon="-8.0182233"><ele>947.0</ele><time>2026-04-04T17:30:49.827Z</time></trkpt><trkpt lat="42.0588317" lon="-8.0183167"><ele>947.0</ele><time>2026-04-04T17:30:50.826Z</time></trkpt><trkpt lat="42.0589333" lon="-8.018405"><ele>950.0</ele><time>2026-04-04T17:30:51.825Z</time></trkpt><trkpt lat="42.059035" lon="-8.0184867"><ele>953.0</ele><time>2026-04-04T17:30:52.826Z</time></trkpt><trkpt lat="42.0591417" lon="-8.0185567"><ele>956.0</ele><time>2026-04-04T17:30:53.827Z</time></trkpt><trkpt lat="42.0592467" lon="-8.018625"><ele>959.0</ele><time>2026-04-04T17:30:54.827Z</time></trkpt><trkpt lat="42.0593567" lon="-8.0186867"><ele>959.0</ele><time>2026-04-04T17:30:55.827Z</time></trkpt><trkpt lat="42.0594683" lon="-8.01874"><ele>959.0</ele><time>2026-04-04T17:30:56.828Z</time></trkpt><trkpt lat="42.059575" lon="-8.0188133"><ele>959.0</ele><time>2026-04-04T17:30:57.826Z</time></trkpt><trkpt lat="42.05967" lon="-8.0189033"><ele>959.0</ele><time>2026-04-04T17:30:58.826Z</time></trkpt><trkpt lat="42.059755" lon="-8.0190117"><ele>959.0</ele><time>2026-04-04T17:30:59.827Z</time></trkpt><trkpt lat="42.0598467" lon="-8.0191117"><ele>959.0</ele><time>2026-04-04T17:31:00.826Z</time></trkpt><trkpt lat="42.05995" lon="-8.0192033"><ele>959.0</ele><time>2026-04-04T17:31:01.826Z</time></trkpt><trkpt lat="42.0600583" lon="-8.01929"><ele>959.0</ele><time>2026-04-04T17:31:02.824Z</time></trkpt><trkpt lat="42.06016" lon="-8.0193683"><ele>959.6</ele><time>2026-04-04T17:31:03.827Z</time></trkpt><trkpt lat="42.0602583" lon="-8.0194367"><ele>960.2</ele><time>2026-04-04T17:31:04.824Z</time></trkpt><trkpt lat="42.060355" lon="-8.01951"><ele>960.8000000000001</ele><time>2026-04-04T17:31:05.824Z</time></trkpt><trkpt lat="42.0604417" lon="-8.0195817"><ele>961.4000000000001</ele><time>2026-04-04T17:31:06.828Z</time></trkpt><trkpt lat="42.06052" lon="-8.0196367"><ele>962.0</ele><time>2026-04-04T17:31:07.827Z</time></trkpt><trkpt lat="42.0605917" lon="-8.0196733"><ele>962.0000000000001</ele><time>2026-04-04T17:31:08.828Z</time></trkpt><trkpt lat="42.0606983" lon="-8.01971"><ele>962.0</ele><time>2026-04-04T17:31:10.827Z</time></trkpt><trkpt lat="42.0607617" lon="-8.0196783"><ele>962.0</ele><time>2026-04-04T17:31:12.826Z</time></trkpt><trkpt lat="42.06077" lon="-8.0195767"><ele>962.0</ele><time>2026-04-04T17:31:14.828Z</time></trkpt><trkpt lat="42.0607483" lon="-8.0194883"><ele>962.0000000000001</ele><time>2026-04-04T17:31:15.827Z</time></trkpt><trkpt lat="42.0607233" lon="-8.0193783"><ele>962.0</ele><time>2026-04-04T17:31:16.827Z</time></trkpt><trkpt lat="42.06071" lon="-8.0192617"><ele>961.8</ele><time>2026-04-04T17:31:17.828Z</time></trkpt><trkpt lat="42.0607183" lon="-8.01913"><ele>961.6</ele><time>2026-04-04T17:31:18.828Z</time></trkpt><trkpt lat="42.0607367" lon="-8.018995"><ele>961.3999999999999</ele><time>2026-04-04T17:31:19.828Z</time></trkpt><trkpt lat="42.06075" lon="-8.0188617"><ele>961.1999999999999</ele><time>2026-04-04T17:31:20.829Z</time></trkpt><trkpt lat="42.0607533" lon="-8.01872"><ele>961.0</ele><time>2026-04-04T17:31:21.825Z</time></trkpt><trkpt lat="42.0607383" lon="-8.0185833"><ele>961.0</ele><time>2026-04-04T17:31:22.825Z</time></trkpt><trkpt lat="42.0607" lon="-8.018455"><ele>961.0</ele><time>2026-04-04T17:31:23.824Z</time></trkpt><trkpt lat="42.060615" lon="-8.0183383"><ele>961.0</ele><time>2026-04-04T17:31:24.826Z</time></trkpt><trkpt lat="42.0605267" lon="-8.0182167"><ele>961.0</ele><time>2026-04-04T17:31:25.828Z</time></trkpt><trkpt lat="42.0604483" lon="-8.0180883"><ele>961.0</ele><time>2026-04-04T17:31:26.825Z</time></trkpt><trkpt lat="42.0603717" lon="-8.01792"><ele>961.0</ele><time>2026-04-04T17:31:27.827Z</time></trkpt><trkpt lat="42.0603067" lon="-8.017745"><ele>961.0</ele><time>2026-04-04T17:31:28.825Z</time></trkpt><trkpt lat="42.0602467" lon="-8.0175917"><ele>961.0</ele><time>2026-04-04T17:31:29.827Z</time></trkpt><trkpt lat="42.0601933" lon="-8.0174583"><ele>962.0</ele><time>2026-04-04T17:31:30.828Z</time></trkpt><trkpt lat="42.060145" lon="-8.01733"><ele>962.9999999999999</ele><time>2026-04-04T17:31:31.825Z</time></trkpt><trkpt lat="42.0601317" lon="-8.0171967"><ele>963.9999999999999</ele><time>2026-04-04T17:31:32.828Z</time></trkpt><trkpt lat="42.060145" lon="-8.0170617"><ele>965.0</ele><time>2026-04-04T17:31:33.825Z</time></trkpt><trkpt lat="42.0601967" lon="-8.01691"><ele>966.0</ele><time>2026-04-04T17:31:34.827Z</time></trkpt><trkpt lat="42.0602433" lon="-8.0167783"><ele>965.1999999999999</ele><time>2026-04-04T17:31:35.824Z</time></trkpt><trkpt lat="42.06028" lon="-8.016645"><ele>964.3999999999999</ele><time>2026-04-04T17:31:36.825Z</time></trkpt><trkpt lat="42.060305" lon="-8.0164983"><ele>963.6</ele><time>2026-04-04T17:31:37.824Z</time></trkpt><trkpt lat="42.060315" lon="-8.01635"><ele>962.8</ele><time>2026-04-04T17:31:38.825Z</time></trkpt><trkpt lat="42.06031" lon="-8.0161883"><ele>962.0</ele><time>2026-04-04T17:31:39.828Z</time></trkpt><trkpt lat="42.060315" lon="-8.0160317"><ele>962.0</ele><time>2026-04-04T17:31:40.828Z</time></trkpt><trkpt lat="42.0603267" lon="-8.0158783"><ele>962.0</ele><time>2026-04-04T17:31:41.829Z</time></trkpt><trkpt lat="42.060365" lon="-8.0157317"><ele>962.0</ele><time>2026-04-04T17:31:42.827Z</time></trkpt><trkpt lat="42.0604217" lon="-8.0155683"><ele>962.0</ele><time>2026-04-04T17:31:43.828Z</time></trkpt><trkpt lat="42.0604833" lon="-8.0154233"><ele>961.4000000000001</ele><time>2026-04-04T17:31:44.829Z</time></trkpt><trkpt lat="42.0605517" lon="-8.0153133"><ele>960.8000000000001</ele><time>2026-04-04T17:31:45.827Z</time></trkpt><trkpt lat="42.0606333" lon="-8.0152183"><ele>960.2</ele><time>2026-04-04T17:31:46.827Z</time></trkpt><trkpt lat="42.0607217" lon="-8.0151333"><ele>959.6</ele><time>2026-04-04T17:31:47.827Z</time></trkpt><trkpt lat="42.0608117" lon="-8.0150767"><ele>959.0</ele><time>2026-04-04T17:31:48.827Z</time></trkpt><trkpt lat="42.0608983" lon="-8.0150417"><ele>959.0000000000001</ele><time>2026-04-04T17:31:49.828Z</time></trkpt><trkpt lat="42.060975" lon="-8.0150067"><ele>959.0</ele><time>2026-04-04T17:31:50.829Z</time></trkpt><trkpt lat="42.061045" lon="-8.0149633"><ele>959.0</ele><time>2026-04-04T17:31:51.827Z</time></trkpt><trkpt lat="42.0611167" lon="-8.0149133"><ele>959.0</ele><time>2026-04-04T17:31:52.825Z</time></trkpt><trkpt lat="42.061195" lon="-8.0148717"><ele>959.0000000000001</ele><time>2026-04-04T17:31:53.828Z</time></trkpt><trkpt lat="42.0613" lon="-8.0148417"><ele>959.0</ele><time>2026-04-04T17:31:54.827Z</time></trkpt><trkpt lat="42.0614233" lon="-8.01481"><ele>954.5</ele><time>2026-04-04T17:31:55.828Z</time></trkpt><trkpt lat="42.0615483" lon="-8.01476"><ele>950.0</ele><time>2026-04-04T17:31:56.825Z</time></trkpt><trkpt lat="42.0616783" lon="-8.0146767"><ele>945.5</ele><time>2026-04-04T17:31:57.825Z</time></trkpt><trkpt lat="42.0618067" lon="-8.014565"><ele>941.0</ele><time>2026-04-04T17:31:58.828Z</time></trkpt><trkpt lat="42.061935" lon="-8.0144233"><ele>941.0</ele><time>2026-04-04T17:31:59.825Z</time></trkpt><trkpt lat="42.0620583" lon="-8.0142667"><ele>941.0</ele><time>2026-04-04T17:32:00.829Z</time></trkpt><trkpt lat="42.0621617" lon="-8.014115"><ele>941.0</ele><time>2026-04-04T17:32:01.825Z</time></trkpt><trkpt lat="42.0622467" lon="-8.0139667"><ele>940.1999999999999</ele><time>2026-04-04T17:32:02.828Z</time></trkpt><trkpt lat="42.06232" lon="-8.0138317"><ele>939.3999999999999</ele><time>2026-04-04T17:32:03.827Z</time></trkpt><trkpt lat="42.06239" lon="-8.01372"><ele>938.6</ele><time>2026-04-04T17:32:04.825Z</time></trkpt><trkpt lat="42.062465" lon="-8.013625"><ele>937.8</ele><time>2026-04-04T17:32:05.827Z</time></trkpt><trkpt lat="42.06253" lon="-8.01354"><ele>937.0</ele><time>2026-04-04T17:32:06.825Z</time></trkpt><trkpt lat="42.0625767" lon="-8.0134767"><ele>936.9999999999999</ele><time>2026-04-04T17:32:07.824Z</time></trkpt><trkpt lat="42.0625667" lon="-8.0133883"><ele>937.0</ele><time>2026-04-04T17:32:10.828Z</time></trkpt><trkpt lat="42.062495" lon="-8.013305"><ele>937.0</ele><time>2026-04-04T17:32:12.825Z</time></trkpt><trkpt lat="42.0624783" lon="-8.0131967"><ele>937.0</ele><time>2026-04-04T17:32:14.825Z</time></trkpt><trkpt lat="42.06254" lon="-8.0130717"><ele>936.9999999999999</ele><time>2026-04-04T17:32:16.825Z</time></trkpt><trkpt lat="42.062585" lon="-8.0130117"><ele>937.0</ele><time>2026-04-04T17:32:17.828Z</time></trkpt><trkpt lat="42.0626283" lon="-8.01295"><ele>935.4000000000001</ele><time>2026-04-04T17:32:18.826Z</time></trkpt><trkpt lat="42.062715" lon="-8.0128333"><ele>933.8000000000001</ele><time>2026-04-04T17:32:20.826Z</time></trkpt><trkpt lat="42.062795" lon="-8.012755"><ele>932.2</ele><time>2026-04-04T17:32:22.825Z</time></trkpt><trkpt lat="42.06286" lon="-8.0126733"><ele>930.6</ele><time>2026-04-04T17:32:24.825Z</time></trkpt><trkpt lat="42.0629233" lon="-8.0125817"><ele>929.0</ele><time>2026-04-04T17:32:26.827Z</time></trkpt><trkpt lat="42.0629883" lon="-8.0125417"><ele>929.0000000000001</ele><time>2026-04-04T17:32:28.826Z</time></trkpt><trkpt lat="42.0630967" lon="-8.01251"><ele>929.0</ele><time>2026-04-04T17:32:30.825Z</time></trkpt><trkpt lat="42.063185" lon="-8.01248"><ele>929.0</ele><time>2026-04-04T17:32:32.827Z</time></trkpt><trkpt lat="42.063265" lon="-8.0124383"><ele>929.0</ele><time>2026-04-04T17:32:34.824Z</time></trkpt><trkpt lat="42.0633183" lon="-8.01236"><ele>929.0000000000001</ele><time>2026-04-04T17:32:36.825Z</time></trkpt><trkpt lat="42.0633267" lon="-8.01225"><ele>929.0</ele><time>2026-04-04T17:32:38.825Z</time></trkpt><trkpt lat="42.063245" lon="-8.0121533"><ele>928.3333333333334</ele><time>2026-04-04T17:32:40.826Z</time></trkpt><trkpt lat="42.0631617" lon="-8.012075"><ele>927.6666666666667</ele><time>2026-04-04T17:32:42.826Z</time></trkpt><trkpt lat="42.063105" lon="-8.0120233"><ele>927.0</ele><time>2026-04-04T17:32:43.825Z</time></trkpt><trkpt lat="42.0630483" lon="-8.01197"><ele>926.3333333333333</ele><time>2026-04-04T17:32:44.826Z</time></trkpt><trkpt lat="42.0630033" lon="-8.0119033"><ele>925.6666666666666</ele><time>2026-04-04T17:32:45.827Z</time></trkpt><trkpt lat="42.06296" lon="-8.0118067"><ele>925.0</ele><time>2026-04-04T17:32:46.828Z</time></trkpt><trkpt lat="42.06294" lon="-8.0116733"><ele>924.75</ele><time>2026-04-04T17:32:47.828Z</time></trkpt><trkpt lat="42.0629433" lon="-8.0115333"><ele>924.5</ele><time>2026-04-04T17:32:48.829Z</time></trkpt><trkpt lat="42.06297" lon="-8.0113733"><ele>924.25</ele><time>2026-04-04T17:32:49.827Z</time></trkpt><trkpt lat="42.0630333" lon="-8.0111717"><ele>924.0</ele><time>2026-04-04T17:32:50.827Z</time></trkpt><trkpt lat="42.063105" lon="-8.0109767"><ele>923.75</ele><time>2026-04-04T17:32:51.827Z</time></trkpt><trkpt lat="42.0631733" lon="-8.0108133"><ele>923.5</ele><time>2026-04-04T17:32:52.828Z</time></trkpt><trkpt lat="42.0632317" lon="-8.01068"><ele>923.25</ele><time>2026-04-04T17:32:53.828Z</time></trkpt><trkpt lat="42.0632717" lon="-8.0105417"><ele>923.0</ele><time>2026-04-04T17:32:54.828Z</time></trkpt><trkpt lat="42.06329" lon="-8.01038"><ele>924.0</ele><time>2026-04-04T17:32:55.827Z</time></trkpt><trkpt lat="42.0632833" lon="-8.0101867"><ele>925.0</ele><time>2026-04-04T17:32:56.829Z</time></trkpt><trkpt lat="42.063265" lon="-8.0099833"><ele>926.0</ele><time>2026-04-04T17:32:57.828Z</time></trkpt><trkpt lat="42.0632483" lon="-8.009775"><ele>926.0</ele><time>2026-04-04T17:32:58.825Z</time></trkpt><trkpt lat="42.0632383" lon="-8.0095883"><ele>925.9999999999999</ele><time>2026-04-04T17:32:59.827Z</time></trkpt><trkpt lat="42.06322" lon="-8.00944"><ele>925.9999999999999</ele><time>2026-04-04T17:33:00.826Z</time></trkpt><trkpt lat="42.0632017" lon="-8.0093183"><ele>926.0</ele><time>2026-04-04T17:33:01.826Z</time></trkpt><trkpt lat="42.063175" lon="-8.0092217"><ele>926.0</ele><time>2026-04-04T17:33:02.825Z</time></trkpt><trkpt lat="42.0631083" lon="-8.0091117"><ele>926.0</ele><time>2026-04-04T17:33:04.825Z</time></trkpt><trkpt lat="42.0630717" lon="-8.00904"><ele>925.9999999999999</ele><time>2026-04-04T17:33:07.825Z</time></trkpt><trkpt lat="42.0631817" lon="-8.0090917"><ele>925.9999999999999</ele><time>2026-04-04T17:33:10.826Z</time></trkpt><trkpt lat="42.0632433" lon="-8.0091767"><ele>926.0</ele><time>2026-04-04T17:33:11.828Z</time></trkpt><trkpt lat="42.06332" lon="-8.00928"><ele>926.0</ele><time>2026-04-04T17:33:12.826Z</time></trkpt><trkpt lat="42.0634283" lon="-8.00942"><ele>929.0</ele><time>2026-04-04T17:33:13.827Z</time></trkpt><trkpt lat="42.0635667" lon="-8.00957"><ele>932.0</ele><time>2026-04-04T17:33:14.827Z</time></trkpt><trkpt lat="42.063715" lon="-8.0097033"><ele>935.0</ele><time>2026-04-04T17:33:15.826Z</time></trkpt><trkpt lat="42.0638633" lon="-8.0098533"><ele>934.3333333333334</ele><time>2026-04-04T17:33:16.826Z</time></trkpt><trkpt lat="42.0640083" lon="-8.0100067"><ele>933.6666666666667</ele><time>2026-04-04T17:33:17.828Z</time></trkpt><trkpt lat="42.0641367" lon="-8.0101517"><ele>933.0</ele><time>2026-04-04T17:33:18.827Z</time></trkpt><trkpt lat="42.0642517" lon="-8.01029"><ele>935.0</ele><time>2026-04-04T17:33:19.826Z</time></trkpt><trkpt lat="42.0643483" lon="-8.0104383"><ele>937.0</ele><time>2026-04-04T17:33:20.828Z</time></trkpt><trkpt lat="42.06442" lon="-8.0106183"><ele>939.0</ele><time>2026-04-04T17:33:21.828Z</time></trkpt><trkpt lat="42.0644767" lon="-8.0108167"><ele>939.25</ele><time>2026-04-04T17:33:22.828Z</time></trkpt><trkpt lat="42.0645283" lon="-8.0110083"><ele>939.5</ele><time>2026-04-04T17:33:23.828Z</time></trkpt><trkpt lat="42.0645817" lon="-8.01118"><ele>939.75</ele><time>2026-04-04T17:33:24.828Z</time></trkpt><trkpt lat="42.0646483" lon="-8.011345"><ele>940.0</ele><time>2026-04-04T17:33:25.828Z</time></trkpt><trkpt lat="42.0647383" lon="-8.0115133"><ele>940.3333333333333</ele><time>2026-04-04T17:33:26.83Z</time></trkpt><trkpt lat="42.0648483" lon="-8.0116883"><ele>940.6666666666667</ele><time>2026-04-04T17:33:27.828Z</time></trkpt><trkpt lat="42.0649583" lon="-8.011855"><ele>941.0</ele><time>2026-04-04T17:33:28.828Z</time></trkpt><trkpt lat="42.0650567" lon="-8.012"><ele>944.3333333333334</ele><time>2026-04-04T17:33:29.828Z</time></trkpt><trkpt lat="42.065165" lon="-8.01213"><ele>947.6666666666667</ele><time>2026-04-04T17:33:30.826Z</time></trkpt><trkpt lat="42.0652983" lon="-8.01226"><ele>951.0</ele><time>2026-04-04T17:33:31.825Z</time></trkpt><trkpt lat="42.0654417" lon="-8.01238"><ele>951.6666666666667</ele><time>2026-04-04T17:33:32.83Z</time></trkpt><trkpt lat="42.065585" lon="-8.0124933"><ele>952.3333333333334</ele><time>2026-04-04T17:33:33.828Z</time></trkpt><trkpt lat="42.0657317" lon="-8.0126083"><ele>953.0</ele><time>2026-04-04T17:33:34.829Z</time></trkpt><trkpt lat="42.06586" lon="-8.012725"><ele>956.25</ele><time>2026-04-04T17:33:35.829Z</time></trkpt><trkpt lat="42.0659783" lon="-8.012845"><ele>959.5</ele><time>2026-04-04T17:33:36.828Z</time></trkpt><trkpt lat="42.06609" lon="-8.0129583"><ele>962.75</ele><time>2026-04-04T17:33:37.829Z</time></trkpt><trkpt lat="42.0661917" lon="-8.01305"><ele>966.0</ele><time>2026-04-04T17:33:38.829Z</time></trkpt><trkpt lat="42.0663083" lon="-8.013125"><ele>966.0</ele><time>2026-04-04T17:33:39.826Z</time></trkpt><trkpt lat="42.0664267" lon="-8.013175"><ele>966.0</ele><time>2026-04-04T17:33:40.829Z</time></trkpt><trkpt lat="42.0665267" lon="-8.0132017"><ele>966.0</ele><time>2026-04-04T17:33:41.828Z</time></trkpt><trkpt lat="42.0666267" lon="-8.01319"><ele>966.0</ele><time>2026-04-04T17:33:42.828Z</time></trkpt><trkpt lat="42.0667533" lon="-8.0131633"><ele>968.0</ele><time>2026-04-04T17:33:43.828Z</time></trkpt><trkpt lat="42.0669033" lon="-8.0131483"><ele>970.0</ele><time>2026-04-04T17:33:44.829Z</time></trkpt><trkpt lat="42.0670583" lon="-8.01315"><ele>972.0</ele><time>2026-04-04T17:33:45.828Z</time></trkpt><trkpt lat="42.0672067" lon="-8.0131567"><ele>972.0</ele><time>2026-04-04T17:33:46.828Z</time></trkpt><trkpt lat="42.067345" lon="-8.01315"><ele>972.0</ele><time>2026-04-04T17:33:47.826Z</time></trkpt><trkpt lat="42.0674783" lon="-8.0131267"><ele>972.0</ele><time>2026-04-04T17:33:48.825Z</time></trkpt><trkpt lat="42.0676083" lon="-8.0130867"><ele>972.0</ele><time>2026-04-04T17:33:49.826Z</time></trkpt><trkpt lat="42.0677217" lon="-8.01303"><ele>972.5</ele><time>2026-04-04T17:33:50.826Z</time></trkpt><trkpt lat="42.0678133" lon="-8.0129483"><ele>973.0</ele><time>2026-04-04T17:33:51.825Z</time></trkpt><trkpt lat="42.06789" lon="-8.0128317"><ele>973.5</ele><time>2026-04-04T17:33:52.825Z</time></trkpt><trkpt lat="42.067965" lon="-8.0126817"><ele>974.0</ele><time>2026-04-04T17:33:53.825Z</time></trkpt><trkpt lat="42.0680583" lon="-8.0125083"><ele>972.6666666666667</ele><time>2026-04-04T17:33:54.828Z</time></trkpt><trkpt lat="42.0681683" lon="-8.0123333"><ele>971.3333333333333</ele><time>2026-04-04T17:33:55.826Z</time></trkpt><trkpt lat="42.0682733" lon="-8.012175"><ele>970.0</ele><time>2026-04-04T17:33:56.827Z</time></trkpt><trkpt lat="42.0683633" lon="-8.0120367"><ele>972.0</ele><time>2026-04-04T17:33:57.826Z</time></trkpt><trkpt lat="42.0684617" lon="-8.0119067"><ele>974.0</ele><time>2026-04-04T17:33:58.826Z</time></trkpt><trkpt lat="42.0685633" lon="-8.011785"><ele>976.0</ele><time>2026-04-04T17:33:59.827Z</time></trkpt><trkpt lat="42.0686583" lon="-8.0116733"><ele>978.0</ele><time>2026-04-04T17:34:00.825Z</time></trkpt><trkpt lat="42.0687367" lon="-8.0115617"><ele>978.0</ele><time>2026-04-04T17:34:01.827Z</time></trkpt><trkpt lat="42.0688067" lon="-8.011435"><ele>978.0</ele><time>2026-04-04T17:34:02.827Z</time></trkpt><trkpt lat="42.068875" lon="-8.011315"><ele>978.0</ele><time>2026-04-04T17:34:03.825Z</time></trkpt><trkpt lat="42.0689433" lon="-8.0112217"><ele>978.0</ele><time>2026-04-04T17:34:04.828Z</time></trkpt><trkpt lat="42.069025" lon="-8.01115"><ele>978.0</ele><time>2026-04-04T17:34:05.825Z</time></trkpt><trkpt lat="42.0691267" lon="-8.0111133"><ele>978.75</ele><time>2026-04-04T17:34:06.825Z</time></trkpt><trkpt lat="42.0692617" lon="-8.0111033"><ele>979.5</ele><time>2026-04-04T17:34:07.826Z</time></trkpt><trkpt lat="42.0693967" lon="-8.0110917"><ele>980.25</ele><time>2026-04-04T17:34:08.825Z</time></trkpt><trkpt lat="42.0695183" lon="-8.0110767"><ele>981.0</ele><time>2026-04-04T17:34:09.827Z</time></trkpt><trkpt lat="42.069635" lon="-8.011055"><ele>981.0</ele><time>2026-04-04T17:34:10.827Z</time></trkpt><trkpt lat="42.06975" lon="-8.0110283"><ele>981.0</ele><time>2026-04-04T17:34:11.827Z</time></trkpt><trkpt lat="42.0698617" lon="-8.0109983"><ele>981.0</ele><time>2026-04-04T17:34:12.827Z</time></trkpt><trkpt lat="42.06998" lon="-8.01097"><ele>981.0</ele><time>2026-04-04T17:34:13.827Z</time></trkpt><trkpt lat="42.070105" lon="-8.0109567"><ele>980.0</ele><time>2026-04-04T17:34:14.828Z</time></trkpt><trkpt lat="42.0702383" lon="-8.010965"><ele>979.0</ele><time>2026-04-04T17:34:15.828Z</time></trkpt><trkpt lat="42.07037" lon="-8.0109767"><ele>978.0</ele><time>2026-04-04T17:34:16.828Z</time></trkpt><trkpt lat="42.0705033" lon="-8.0109817"><ele>977.0</ele><time>2026-04-04T17:34:17.825Z</time></trkpt><trkpt lat="42.0706383" lon="-8.01099"><ele>976.3333333333334</ele><time>2026-04-04T17:34:18.827Z</time></trkpt><trkpt lat="42.0707867" lon="-8.0110017"><ele>975.6666666666667</ele><time>2026-04-04T17:34:19.826Z</time></trkpt><trkpt lat="42.0709383" lon="-8.0110017"><ele>975.0</ele><time>2026-04-04T17:34:20.827Z</time></trkpt><trkpt lat="42.0710917" lon="-8.011"><ele>975.0</ele><time>2026-04-04T17:34:21.827Z</time></trkpt><trkpt lat="42.071235" lon="-8.0110067"><ele>975.0</ele><time>2026-04-04T17:34:22.825Z</time></trkpt><trkpt lat="42.071365" lon="-8.0110283"><ele>975.0</ele><time>2026-04-04T17:34:23.825Z</time></trkpt><trkpt lat="42.071485" lon="-8.011065"><ele>975.0</ele><time>2026-04-04T17:34:24.829Z</time></trkpt><trkpt lat="42.0716" lon="-8.0111217"><ele>973.5</ele><time>2026-04-04T17:34:25.828Z</time></trkpt><trkpt lat="42.0717" lon="-8.0112017"><ele>972.0</ele><time>2026-04-04T17:34:26.83Z</time></trkpt><trkpt lat="42.0717883" lon="-8.0113067"><ele>970.5</ele><time>2026-04-04T17:34:27.828Z</time></trkpt><trkpt lat="42.0718767" lon="-8.01145"><ele>969.0</ele><time>2026-04-04T17:34:28.826Z</time></trkpt><trkpt lat="42.07198" lon="-8.01162"><ele>969.6666666666667</ele><time>2026-04-04T17:34:29.827Z</time></trkpt><trkpt lat="42.0720867" lon="-8.0118"><ele>970.3333333333334</ele><time>2026-04-04T17:34:30.831Z</time></trkpt><trkpt lat="42.0721917" lon="-8.0119717"><ele>971.0</ele><time>2026-04-04T17:34:31.826Z</time></trkpt><trkpt lat="42.0722933" lon="-8.0121417"><ele>971.0</ele><time>2026-04-04T17:34:32.829Z</time></trkpt><trkpt lat="42.072395" lon="-8.0123183"><ele>971.0</ele><time>2026-04-04T17:34:33.828Z</time></trkpt><trkpt lat="42.0724983" lon="-8.0124883"><ele>971.0</ele><time>2026-04-04T17:34:34.826Z</time></trkpt><trkpt lat="42.0726083" lon="-8.012645"><ele>969.0</ele><time>2026-04-04T17:34:35.826Z</time></trkpt><trkpt lat="42.072725" lon="-8.012795"><ele>967.0</ele><time>2026-04-04T17:34:36.829Z</time></trkpt><trkpt lat="42.0728633" lon="-8.012955"><ele>965.0</ele><time>2026-04-04T17:34:37.828Z</time></trkpt><trkpt lat="42.0730017" lon="-8.0131167"><ele>965.0</ele><time>2026-04-04T17:34:38.826Z</time></trkpt><trkpt lat="42.0731167" lon="-8.0132617"><ele>965.0</ele><time>2026-04-04T17:34:39.826Z</time></trkpt><trkpt lat="42.0732067" lon="-8.01336"><ele>965.0</ele><time>2026-04-04T17:34:40.828Z</time></trkpt><trkpt lat="42.0732767" lon="-8.0134117"><ele>965.0</ele><time>2026-04-04T17:34:41.828Z</time></trkpt><trkpt lat="42.07334" lon="-8.013425"><ele>965.0</ele><time>2026-04-04T17:34:42.828Z</time></trkpt><trkpt lat="42.0734083" lon="-8.013425"><ele>965.0</ele><time>2026-04-04T17:34:43.828Z</time></trkpt><trkpt lat="42.073495" lon="-8.0134083"><ele>965.0</ele><time>2026-04-04T17:34:44.828Z</time></trkpt><trkpt lat="42.0736083" lon="-8.013365"><ele>965.0</ele><time>2026-04-04T17:34:45.827Z</time></trkpt><trkpt lat="42.07372" lon="-8.0133317"><ele>965.0</ele><time>2026-04-04T17:34:46.828Z</time></trkpt><trkpt lat="42.0738633" lon="-8.013265"><ele>965.3333333333334</ele><time>2026-04-04T17:34:47.825Z</time></trkpt><trkpt lat="42.0740367" lon="-8.0131567"><ele>965.6666666666667</ele><time>2026-04-04T17:34:48.824Z</time></trkpt><trkpt lat="42.0742133" lon="-8.01305"><ele>966.0</ele><time>2026-04-04T17:34:49.826Z</time></trkpt><trkpt lat="42.0743867" lon="-8.012925"><ele>966.0</ele><time>2026-04-04T17:34:50.825Z</time></trkpt><trkpt lat="42.0745317" lon="-8.0128033"><ele>966.0</ele><time>2026-04-04T17:34:51.825Z</time></trkpt><trkpt lat="42.07464" lon="-8.0126983"><ele>966.0</ele><time>2026-04-04T17:34:52.825Z</time></trkpt><trkpt lat="42.0747217" lon="-8.0126083"><ele>966.0</ele><time>2026-04-04T17:34:53.825Z</time></trkpt><trkpt lat="42.0747917" lon="-8.01251"><ele>966.1999999999999</ele><time>2026-04-04T17:34:54.829Z</time></trkpt><trkpt lat="42.0748483" lon="-8.01241"><ele>966.3999999999999</ele><time>2026-04-04T17:34:55.827Z</time></trkpt><trkpt lat="42.07489" lon="-8.0123083"><ele>966.6</ele><time>2026-04-04T17:34:56.828Z</time></trkpt><trkpt lat="42.07492" lon="-8.0121967"><ele>966.8</ele><time>2026-04-04T17:34:57.828Z</time></trkpt><trkpt lat="42.0748917" lon="-8.0120617"><ele>967.0</ele><time>2026-04-04T17:34:58.826Z</time></trkpt><trkpt lat="42.0748383" lon="-8.0118967"><ele>967.0</ele><time>2026-04-04T17:34:59.825Z</time></trkpt><trkpt lat="42.0747867" lon="-8.01172"><ele>967.0</ele><time>2026-04-04T17:35:00.826Z</time></trkpt><trkpt lat="42.0747417" lon="-8.0115533"><ele>967.0</ele><time>2026-04-04T17:35:01.827Z</time></trkpt><trkpt lat="42.074715" lon="-8.0114333"><ele>967.0</ele><time>2026-04-04T17:35:02.829Z</time></trkpt><trkpt lat="42.0747067" lon="-8.0113283"><ele>967.0</ele><time>2026-04-04T17:35:03.827Z</time></trkpt><trkpt lat="42.0747167" lon="-8.0112217"><ele>967.0</ele><time>2026-04-04T17:35:04.827Z</time></trkpt><trkpt lat="42.0747683" lon="-8.01115"><ele>967.0</ele><time>2026-04-04T17:35:05.826Z</time></trkpt><trkpt lat="42.074875" lon="-8.0111133"><ele>967.0</ele><time>2026-04-04T17:35:06.826Z</time></trkpt><trkpt lat="42.0749833" lon="-8.011095"><ele>967.0</ele><time>2026-04-04T17:35:07.826Z</time></trkpt><trkpt lat="42.0750633" lon="-8.01106"><ele>967.0</ele><time>2026-04-04T17:35:08.829Z</time></trkpt><trkpt lat="42.0751417" lon="-8.0110083"><ele>967.5</ele><time>2026-04-04T17:35:09.826Z</time></trkpt><trkpt lat="42.0752333" lon="-8.010885"><ele>968.0</ele><time>2026-04-04T17:35:10.824Z</time></trkpt><trkpt lat="42.0753233" lon="-8.0107417"><ele>968.5</ele><time>2026-04-04T17:35:11.827Z</time></trkpt><trkpt lat="42.07541" lon="-8.0106233"><ele>969.0</ele><time>2026-04-04T17:35:12.828Z</time></trkpt><trkpt lat="42.075485" lon="-8.0105483"><ele>969.0</ele><time>2026-04-04T17:35:13.827Z</time></trkpt><trkpt lat="42.07555" lon="-8.010485"><ele>969.0</ele><time>2026-04-04T17:35:14.829Z</time></trkpt><trkpt lat="42.0756017" lon="-8.01042"><ele>969.0</ele><time>2026-04-04T17:35:15.828Z</time></trkpt><trkpt lat="42.07565" lon="-8.0103467"><ele>969.0</ele><time>2026-04-04T17:35:16.828Z</time></trkpt><trkpt lat="42.0756983" lon="-8.010255"><ele>969.0</ele><time>2026-04-04T17:35:17.826Z</time></trkpt><trkpt lat="42.0757517" lon="-8.0101417"><ele>969.0</ele><time>2026-04-04T17:35:18.825Z</time></trkpt><trkpt lat="42.0758067" lon="-8.01002"><ele>969.2</ele><time>2026-04-04T17:35:19.825Z</time></trkpt><trkpt lat="42.07586" lon="-8.0099"><ele>969.4000000000001</ele><time>2026-04-04T17:35:20.827Z</time></trkpt><trkpt lat="42.0759117" lon="-8.0097817"><ele>969.6</ele><time>2026-04-04T17:35:21.825Z</time></trkpt><trkpt lat="42.075965" lon="-8.0096667"><ele>969.8</ele><time>2026-04-04T17:35:22.825Z</time></trkpt><trkpt lat="42.0760167" lon="-8.0095517"><ele>970.0</ele><time>2026-04-04T17:35:23.825Z</time></trkpt><trkpt lat="42.0760717" lon="-8.00943"><ele>970.0</ele><time>2026-04-04T17:35:24.83Z</time></trkpt><trkpt lat="42.0761233" lon="-8.0093083"><ele>970.0</ele><time>2026-04-04T17:35:25.828Z</time></trkpt><trkpt lat="42.0761783" lon="-8.00918"><ele>970.0</ele><time>2026-04-04T17:35:26.83Z</time></trkpt><trkpt lat="42.0762317" lon="-8.009055"><ele>970.0</ele><time>2026-04-04T17:35:27.828Z</time></trkpt><trkpt lat="42.0762817" lon="-8.0089333"><ele>970.0</ele><time>2026-04-04T17:35:28.828Z</time></trkpt><trkpt lat="42.0763317" lon="-8.0088133"><ele>968.4</ele><time>2026-04-04T17:35:29.828Z</time></trkpt><trkpt lat="42.0763833" lon="-8.00869"><ele>966.8</ele><time>2026-04-04T17:35:30.828Z</time></trkpt><trkpt lat="42.0764367" lon="-8.0085617"><ele>965.2</ele><time>2026-04-04T17:35:31.828Z</time></trkpt><trkpt lat="42.07649" lon="-8.008435"><ele>963.6</ele><time>2026-04-04T17:35:32.83Z</time></trkpt><trkpt lat="42.0765433" lon="-8.0083083"><ele>962.0</ele><time>2026-04-04T17:35:33.828Z</time></trkpt><trkpt lat="42.0766033" lon="-8.0081867"><ele>961.8</ele><time>2026-04-04T17:35:34.828Z</time></trkpt><trkpt lat="42.07667" lon="-8.0080717"><ele>961.6</ele><time>2026-04-04T17:35:35.828Z</time></trkpt><trkpt lat="42.076745" lon="-8.0079683"><ele>961.3999999999999</ele><time>2026-04-04T17:35:36.829Z</time></trkpt><trkpt lat="42.076825" lon="-8.007875"><ele>961.1999999999999</ele><time>2026-04-04T17:35:37.828Z</time></trkpt><trkpt lat="42.076905" lon="-8.00779"><ele>961.0</ele><time>2026-04-04T17:35:38.825Z</time></trkpt><trkpt lat="42.0769833" lon="-8.00771"><ele>960.9999999999999</ele><time>2026-04-04T17:35:39.824Z</time></trkpt><trkpt lat="42.077065" lon="-8.0076517"><ele>961.0</ele><time>2026-04-04T17:35:40.828Z</time></trkpt><trkpt lat="42.077145" lon="-8.00762"><ele>961.0</ele><time>2026-04-04T17:35:41.827Z</time></trkpt><trkpt lat="42.07722" lon="-8.0076233"><ele>961.0</ele><time>2026-04-04T17:35:42.827Z</time></trkpt><trkpt lat="42.0772883" lon="-8.0076467"><ele>960.9999999999999</ele><time>2026-04-04T17:35:43.828Z</time></trkpt><trkpt lat="42.0773533" lon="-8.0076733"><ele>961.0</ele><time>2026-04-04T17:35:44.828Z</time></trkpt><trkpt lat="42.0774767" lon="-8.0077283"><ele>961.2857142857142</ele><time>2026-04-04T17:35:46.827Z</time></trkpt><trkpt lat="42.0775467" lon="-8.0077517"><ele>961.5714285714284</ele><time>2026-04-04T17:35:47.827Z</time></trkpt><trkpt lat="42.0776133" lon="-8.007765"><ele>961.8571428571429</ele><time>2026-04-04T17:35:48.828Z</time></trkpt><trkpt lat="42.0776783" lon="-8.0077683"><ele>962.1428571428571</ele><time>2026-04-04T17:35:49.827Z</time></trkpt><trkpt lat="42.0777433" lon="-8.00776"><ele>962.4285714285714</ele><time>2026-04-04T17:35:50.83Z</time></trkpt><trkpt lat="42.0778183" lon="-8.007735"><ele>962.7142857142858</ele><time>2026-04-04T17:35:51.827Z</time></trkpt><trkpt lat="42.077885" lon="-8.0076533"><ele>963.0000000000001</ele><time>2026-04-04T17:35:52.827Z</time></trkpt><trkpt lat="42.0779533" lon="-8.0075417"><ele>962.0</ele><time>2026-04-04T17:35:53.828Z</time></trkpt><trkpt lat="42.07803" lon="-8.0074067"><ele>961.0</ele><time>2026-04-04T17:35:54.828Z</time></trkpt><trkpt lat="42.078105" lon="-8.007275"><ele>960.0</ele><time>2026-04-04T17:35:55.828Z</time></trkpt><trkpt lat="42.0781783" lon="-8.00715"><ele>959.0</ele><time>2026-04-04T17:35:56.83Z</time></trkpt><trkpt lat="42.0782467" lon="-8.0070233"><ele>959.4000000000001</ele><time>2026-04-04T17:35:57.827Z</time></trkpt><trkpt lat="42.0782967" lon="-8.006895"><ele>959.8000000000001</ele><time>2026-04-04T17:35:58.828Z</time></trkpt><trkpt lat="42.0783233" lon="-8.0067583"><ele>960.1999999999999</ele><time>2026-04-04T17:35:59.826Z</time></trkpt><trkpt lat="42.078315" lon="-8.006625"><ele>960.5999999999999</ele><time>2026-04-04T17:36:00.828Z</time></trkpt><trkpt lat="42.0782683" lon="-8.00651"><ele>961.0</ele><time>2026-04-04T17:36:01.825Z</time></trkpt><trkpt lat="42.0782083" lon="-8.0064067"><ele>960.3333333333333</ele><time>2026-04-04T17:36:02.826Z</time></trkpt><trkpt lat="42.0781483" lon="-8.0063183"><ele>959.6666666666666</ele><time>2026-04-04T17:36:03.826Z</time></trkpt><trkpt lat="42.078095" lon="-8.0062383"><ele>959.0</ele><time>2026-04-04T17:36:04.826Z</time></trkpt><trkpt lat="42.0780517" lon="-8.0061683"><ele>958.3333333333333</ele><time>2026-04-04T17:36:05.826Z</time></trkpt><trkpt lat="42.07803" lon="-8.006045"><ele>957.6666666666666</ele><time>2026-04-04T17:36:07.827Z</time></trkpt><trkpt lat="42.0781033" lon="-8.0059217"><ele>957.0</ele><time>2026-04-04T17:36:09.827Z</time></trkpt><trkpt lat="42.0781617" lon="-8.005855"><ele>957.3333333333334</ele><time>2026-04-04T17:36:10.827Z</time></trkpt><trkpt lat="42.078225" lon="-8.0057967"><ele>957.6666666666667</ele><time>2026-04-04T17:36:11.828Z</time></trkpt><trkpt lat="42.0782967" lon="-8.0057417"><ele>958.0</ele><time>2026-04-04T17:36:12.828Z</time></trkpt><trkpt lat="42.0783767" lon="-8.0056883"><ele>958.3333333333334</ele><time>2026-04-04T17:36:13.828Z</time></trkpt><trkpt lat="42.0784567" lon="-8.0056267"><ele>958.6666666666667</ele><time>2026-04-04T17:36:14.829Z</time></trkpt><trkpt lat="42.0785283" lon="-8.00555"><ele>959.0</ele><time>2026-04-04T17:36:15.829Z</time></trkpt><trkpt lat="42.0785967" lon="-8.0054517"><ele>960.2</ele><time>2026-04-04T17:36:16.828Z</time></trkpt><trkpt lat="42.0786633" lon="-8.00534"><ele>961.4000000000001</ele><time>2026-04-04T17:36:17.828Z</time></trkpt><trkpt lat="42.0787217" lon="-8.0052133"><ele>962.6</ele><time>2026-04-04T17:36:18.828Z</time></trkpt><trkpt lat="42.07877" lon="-8.0050783"><ele>963.8</ele><time>2026-04-04T17:36:19.827Z</time></trkpt><trkpt lat="42.0788033" lon="-8.0049317"><ele>965.0</ele><time>2026-04-04T17:36:20.83Z</time></trkpt><trkpt lat="42.0788367" lon="-8.0047633"><ele>965.5</ele><time>2026-04-04T17:36:21.828Z</time></trkpt><trkpt lat="42.078875" lon="-8.004585"><ele>966.0</ele><time>2026-04-04T17:36:22.829Z</time></trkpt><trkpt lat="42.0789183" lon="-8.0044133"><ele>966.5</ele><time>2026-04-04T17:36:23.829Z</time></trkpt><trkpt lat="42.078965" lon="-8.004245"><ele>967.0</ele><time>2026-04-04T17:36:24.828Z</time></trkpt><trkpt lat="42.0790183" lon="-8.0040817"><ele>967.8</ele><time>2026-04-04T17:36:25.828Z</time></trkpt><trkpt lat="42.0790667" lon="-8.0039233"><ele>968.6</ele><time>2026-04-04T17:36:26.829Z</time></trkpt><trkpt lat="42.0791" lon="-8.00377"><ele>969.3999999999999</ele><time>2026-04-04T17:36:27.828Z</time></trkpt><trkpt lat="42.079125" lon="-8.0036283"><ele>970.1999999999999</ele><time>2026-04-04T17:36:28.825Z</time></trkpt><trkpt lat="42.0791517" lon="-8.003505"><ele>971.0</ele><time>2026-04-04T17:36:29.828Z</time></trkpt><trkpt lat="42.079185" lon="-8.00341"><ele>971.8</ele><time>2026-04-04T17:36:30.825Z</time></trkpt><trkpt lat="42.079235" lon="-8.0033433"><ele>972.5999999999999</ele><time>2026-04-04T17:36:31.825Z</time></trkpt><trkpt lat="42.0793067" lon="-8.0032817"><ele>973.4</ele><time>2026-04-04T17:36:32.826Z</time></trkpt><trkpt lat="42.0793983" lon="-8.0032233"><ele>974.2</ele><time>2026-04-04T17:36:33.828Z</time></trkpt><trkpt lat="42.0795533" lon="-8.0031567"><ele>975.0</ele><time>2026-04-04T17:36:34.827Z</time></trkpt><trkpt lat="42.0797083" lon="-8.00308"><ele>975.0</ele><time>2026-04-04T17:36:35.828Z</time></trkpt><trkpt lat="42.0798683" lon="-8.0029933"><ele>975.0</ele><time>2026-04-04T17:36:36.829Z</time></trkpt><trkpt lat="42.0800283" lon="-8.002895"><ele>975.0</ele><time>2026-04-04T17:36:37.828Z</time></trkpt><trkpt lat="42.0801833" lon="-8.0027917"><ele>975.6666666666667</ele><time>2026-04-04T17:36:38.826Z</time></trkpt><trkpt lat="42.0803333" lon="-8.0026867"><ele>976.3333333333334</ele><time>2026-04-04T17:36:39.826Z</time></trkpt><trkpt lat="42.08048" lon="-8.0025883"><ele>977.0</ele><time>2026-04-04T17:36:40.825Z</time></trkpt><trkpt lat="42.0806267" lon="-8.002505"><ele>976.0</ele><time>2026-04-04T17:36:41.828Z</time></trkpt><trkpt lat="42.0807733" lon="-8.0024233"><ele>975.0</ele><time>2026-04-04T17:36:42.829Z</time></trkpt><trkpt lat="42.0809217" lon="-8.0023333"><ele>974.0</ele><time>2026-04-04T17:36:43.827Z</time></trkpt><trkpt lat="42.0810717" lon="-8.002225"><ele>974.0</ele><time>2026-04-04T17:36:44.829Z</time></trkpt><trkpt lat="42.0812283" lon="-8.0021017"><ele>974.0</ele><time>2026-04-04T17:36:45.828Z</time></trkpt><trkpt lat="42.0813867" lon="-8.0019733"><ele>974.0</ele><time>2026-04-04T17:36:46.829Z</time></trkpt><trkpt lat="42.0815367" lon="-8.0018533"><ele>975.3333333333334</ele><time>2026-04-04T17:36:47.828Z</time></trkpt><trkpt lat="42.0816817" lon="-8.00174"><ele>976.6666666666667</ele><time>2026-04-04T17:36:48.829Z</time></trkpt><trkpt lat="42.08182" lon="-8.0016283"><ele>978.0</ele><time>2026-04-04T17:36:49.828Z</time></trkpt><trkpt lat="42.081955" lon="-8.001515"><ele>978.0</ele><time>2026-04-04T17:36:50.83Z</time></trkpt><trkpt lat="42.0820817" lon="-8.001405"><ele>978.0</ele><time>2026-04-04T17:36:51.828Z</time></trkpt><trkpt lat="42.0821967" lon="-8.0013067"><ele>978.0</ele><time>2026-04-04T17:36:52.828Z</time></trkpt><trkpt lat="42.0823133" lon="-8.0012317"><ele>978.0</ele><time>2026-04-04T17:36:53.828Z</time></trkpt><trkpt lat="42.0824317" lon="-8.00116"><ele>977.75</ele><time>2026-04-04T17:36:54.828Z</time></trkpt><trkpt lat="42.0825517" lon="-8.0010833"><ele>977.5</ele><time>2026-04-04T17:36:55.828Z</time></trkpt><trkpt lat="42.0826783" lon="-8.0009983"><ele>977.25</ele><time>2026-04-04T17:36:56.826Z</time></trkpt><trkpt lat="42.0828017" lon="-8.000905"><ele>977.0</ele><time>2026-04-04T17:36:57.827Z</time></trkpt><trkpt lat="42.0829267" lon="-8.0008"><ele>977.0</ele><time>2026-04-04T17:36:58.826Z</time></trkpt><trkpt lat="42.0830483" lon="-8.0006833"><ele>977.0</ele><time>2026-04-04T17:36:59.828Z</time></trkpt><trkpt lat="42.0831617" lon="-8.0005583"><ele>977.0</ele><time>2026-04-04T17:37:00.828Z</time></trkpt><trkpt lat="42.08327" lon="-8.0004283"><ele>977.0</ele><time>2026-04-04T17:37:01.828Z</time></trkpt><trkpt lat="42.0833883" lon="-8.0003067"><ele>976.0</ele><time>2026-04-04T17:37:02.826Z</time></trkpt><trkpt lat="42.0835083" lon="-8.0001867"><ele>975.0</ele><time>2026-04-04T17:37:03.825Z</time></trkpt><trkpt lat="42.08363" lon="-8.0000683"><ele>974.0</ele><time>2026-04-04T17:37:04.826Z</time></trkpt><trkpt lat="42.08375" lon="-7.9999517"><ele>973.0</ele><time>2026-04-04T17:37:05.825Z</time></trkpt><trkpt lat="42.0838583" lon="-7.9998483"><ele>973.0</ele><time>2026-04-04T17:37:06.829Z</time></trkpt><trkpt lat="42.0839383" lon="-7.9997683"><ele>973.0</ele><time>2026-04-04T17:37:07.828Z</time></trkpt><trkpt lat="42.084" lon="-7.9997117"><ele>973.0</ele><time>2026-04-04T17:37:08.828Z</time></trkpt><trkpt lat="42.0840883" lon="-7.9996317"><ele>973.0</ele><time>2026-04-04T17:37:10.827Z</time></trkpt><trkpt lat="42.0841467" lon="-7.9995683"><ele>973.0</ele><time>2026-04-04T17:37:13.827Z</time></trkpt><trkpt lat="42.0842517" lon="-7.9994783"><ele>972.1666666666666</ele><time>2026-04-04T17:38:50.823Z</time></trkpt><trkpt lat="42.08431" lon="-7.9994417"><ele>971.3333333333333</ele><time>2026-04-04T17:38:52.823Z</time></trkpt><trkpt lat="42.0843817" lon="-7.99939"><ele>970.5</ele><time>2026-04-04T17:38:54.825Z</time></trkpt><trkpt lat="42.084445" lon="-7.9993483"><ele>969.6666666666667</ele><time>2026-04-04T17:38:56.823Z</time></trkpt><trkpt lat="42.0845033" lon="-7.9993017"><ele>968.8333333333334</ele><time>2026-04-04T17:38:58.823Z</time></trkpt><trkpt lat="42.0845733" lon="-7.9992467"><ele>968.0</ele><time>2026-04-04T17:39:00.824Z</time></trkpt><trkpt lat="42.0846583" lon="-7.9991967"><ele>967.2</ele><time>2026-04-04T17:39:02.823Z</time></trkpt><trkpt lat="42.08472" lon="-7.999165"><ele>966.4</ele><time>2026-04-04T17:39:03.823Z</time></trkpt><trkpt lat="42.0847933" lon="-7.99911"><ele>965.6000000000001</ele><time>2026-04-04T17:39:04.823Z</time></trkpt><trkpt lat="42.0848733" lon="-7.9990533"><ele>964.8000000000001</ele><time>2026-04-04T17:39:05.823Z</time></trkpt><trkpt lat="42.084965" lon="-7.9989717"><ele>964.0</ele><time>2026-04-04T17:39:06.823Z</time></trkpt><trkpt lat="42.0850617" lon="-7.9988667"><ele>964.0</ele><time>2026-04-04T17:39:07.824Z</time></trkpt><trkpt lat="42.0851633" lon="-7.9987667"><ele>964.0</ele><time>2026-04-04T17:39:08.823Z</time></trkpt><trkpt lat="42.0852733" lon="-7.9986683"><ele>964.0</ele><time>2026-04-04T17:39:09.823Z</time></trkpt><trkpt lat="42.0853867" lon="-7.9985783"><ele>964.0</ele><time>2026-04-04T17:39:10.823Z</time></trkpt><trkpt lat="42.08549" lon="-7.9984933"><ele>964.0</ele><time>2026-04-04T17:39:11.823Z</time></trkpt><trkpt lat="42.0855833" lon="-7.9984167"><ele>964.0000000000001</ele><time>2026-04-04T17:39:12.824Z</time></trkpt><trkpt lat="42.0856783" lon="-7.9983367"><ele>964.0000000000001</ele><time>2026-04-04T17:39:13.823Z</time></trkpt><trkpt lat="42.0857683" lon="-7.99825"><ele>964.0</ele><time>2026-04-04T17:39:14.824Z</time></trkpt><trkpt lat="42.0858583" lon="-7.99817"><ele>964.0</ele><time>2026-04-04T17:39:15.823Z</time></trkpt><trkpt lat="42.0859517" lon="-7.9980867"><ele>964.25</ele><time>2026-04-04T17:39:16.824Z</time></trkpt><trkpt lat="42.08605" lon="-7.9980117"><ele>964.5</ele><time>2026-04-04T17:39:17.823Z</time></trkpt><trkpt lat="42.08615" lon="-7.9979383"><ele>964.75</ele><time>2026-04-04T17:39:18.824Z</time></trkpt><trkpt lat="42.0862483" lon="-7.99786"><ele>965.0</ele><time>2026-04-04T17:39:19.824Z</time></trkpt><trkpt lat="42.0863517" lon="-7.9977733"><ele>965.0</ele><time>2026-04-04T17:39:20.823Z</time></trkpt><trkpt lat="42.086455" lon="-7.997685"><ele>965.0</ele><time>2026-04-04T17:39:21.823Z</time></trkpt><trkpt lat="42.086565" lon="-7.9976"><ele>965.0</ele><time>2026-04-04T17:39:22.823Z</time></trkpt><trkpt lat="42.0866817" lon="-7.99751"><ele>965.0</ele><time>2026-04-04T17:39:23.823Z</time></trkpt><trkpt lat="42.0868033" lon="-7.9974267"><ele>966.25</ele><time>2026-04-04T17:39:24.824Z</time></trkpt><trkpt lat="42.0869267" lon="-7.997335"><ele>967.5</ele><time>2026-04-04T17:39:25.823Z</time></trkpt><trkpt lat="42.0870483" lon="-7.99724"><ele>968.75</ele><time>2026-04-04T17:39:26.824Z</time></trkpt><trkpt lat="42.08717" lon="-7.99715"><ele>970.0</ele><time>2026-04-04T17:39:27.824Z</time></trkpt><trkpt lat="42.0872817" lon="-7.9970583"><ele>970.0</ele><time>2026-04-04T17:39:28.823Z</time></trkpt><trkpt lat="42.0873883" lon="-7.9969583"><ele>970.0</ele><time>2026-04-04T17:39:29.824Z</time></trkpt><trkpt lat="42.0874717" lon="-7.996875"><ele>970.0</ele><time>2026-04-04T17:39:30.824Z</time></trkpt><trkpt lat="42.0875333" lon="-7.99681"><ele>970.0</ele><time>2026-04-04T17:39:31.824Z</time></trkpt><trkpt lat="42.0875817" lon="-7.9967417"><ele>970.0</ele><time>2026-04-04T17:39:32.824Z</time></trkpt><trkpt lat="42.0876533" lon="-7.9966383"><ele>970.4999999999999</ele><time>2026-04-04T17:39:34.823Z</time></trkpt><trkpt lat="42.0877317" lon="-7.996555"><ele>971.0</ele><time>2026-04-04T17:39:36.825Z</time></trkpt><trkpt lat="42.0878117" lon="-7.9965067"><ele>971.5</ele><time>2026-04-04T17:39:38.824Z</time></trkpt><trkpt lat="42.0879017" lon="-7.996465"><ele>972.0</ele><time>2026-04-04T17:39:40.823Z</time></trkpt><trkpt lat="42.0879617" lon="-7.9964267"><ele>972.4999999999999</ele><time>2026-04-04T17:39:41.823Z</time></trkpt><trkpt lat="42.0880367" lon="-7.9963767"><ele>973.0</ele><time>2026-04-04T17:39:42.825Z</time></trkpt><trkpt lat="42.0881283" lon="-7.9963167"><ele>973.0</ele><time>2026-04-04T17:39:43.823Z</time></trkpt><trkpt lat="42.088255" lon="-7.9962433"><ele>973.0</ele><time>2026-04-04T17:39:44.824Z</time></trkpt><trkpt lat="42.0884" lon="-7.9961583"><ele>973.0</ele><time>2026-04-04T17:39:45.823Z</time></trkpt><trkpt lat="42.0885117" lon="-7.996095"><ele>973.0</ele><time>2026-04-04T17:39:46.824Z</time></trkpt><trkpt lat="42.0885983" lon="-7.996035"><ele>973.3333333333333</ele><time>2026-04-04T17:39:47.823Z</time></trkpt><trkpt lat="42.0886733" lon="-7.9959717"><ele>973.6666666666666</ele><time>2026-04-04T17:39:48.825Z</time></trkpt><trkpt lat="42.0887333" lon="-7.995895"><ele>974.0</ele><time>2026-04-04T17:39:49.824Z</time></trkpt><trkpt lat="42.0887883" lon="-7.9958033"><ele>974.3333333333333</ele><time>2026-04-04T17:39:50.824Z</time></trkpt><trkpt lat="42.0888467" lon="-7.99571"><ele>974.6666666666666</ele><time>2026-04-04T17:39:51.823Z</time></trkpt><trkpt lat="42.08891" lon="-7.995625"><ele>975.0</ele><time>2026-04-04T17:39:52.824Z</time></trkpt><trkpt lat="42.0889767" lon="-7.9955417"><ele>975.0</ele><time>2026-04-04T17:39:53.824Z</time></trkpt><trkpt lat="42.0890467" lon="-7.9954683"><ele>975.0</ele><time>2026-04-04T17:39:54.824Z</time></trkpt><trkpt lat="42.0891283" lon="-7.995395"><ele>975.0</ele><time>2026-04-04T17:39:55.825Z</time></trkpt><trkpt lat="42.0892183" lon="-7.9953317"><ele>975.0</ele><time>2026-04-04T17:39:56.824Z</time></trkpt><trkpt lat="42.08932" lon="-7.9952717"><ele>975.0</ele><time>2026-04-04T17:39:57.824Z</time></trkpt><trkpt lat="42.0894367" lon="-7.9951867"><ele>975.5</ele><time>2026-04-04T17:39:58.825Z</time></trkpt><trkpt lat="42.0895667" lon="-7.9951033"><ele>976.0</ele><time>2026-04-04T17:39:59.824Z</time></trkpt><trkpt lat="42.0896833" lon="-7.9950233"><ele>976.5</ele><time>2026-04-04T17:40:00.823Z</time></trkpt><trkpt lat="42.0897783" lon="-7.9949517"><ele>977.0</ele><time>2026-04-04T17:40:01.823Z</time></trkpt><trkpt lat="42.08985" lon="-7.9948717"><ele>977.0</ele><time>2026-04-04T17:40:02.824Z</time></trkpt><trkpt lat="42.0899" lon="-7.9947867"><ele>977.0</ele><time>2026-04-04T17:40:03.824Z</time></trkpt><trkpt lat="42.0899533" lon="-7.9946833"><ele>977.0</ele><time>2026-04-04T17:40:04.823Z</time></trkpt><trkpt lat="42.0900033" lon="-7.9945633"><ele>977.0</ele><time>2026-04-04T17:40:05.823Z</time></trkpt><trkpt lat="42.0900567" lon="-7.9944533"><ele>977.0</ele><time>2026-04-04T17:40:06.824Z</time></trkpt><trkpt lat="42.0901267" lon="-7.9943817"><ele>977.4000000000001</ele><time>2026-04-04T17:40:07.824Z</time></trkpt><trkpt lat="42.0902117" lon="-7.9943267"><ele>977.8000000000001</ele><time>2026-04-04T17:40:08.824Z</time></trkpt><trkpt lat="42.090295" lon="-7.9942717"><ele>978.2</ele><time>2026-04-04T17:40:09.823Z</time></trkpt><trkpt lat="42.0903783" lon="-7.9942067"><ele>978.6</ele><time>2026-04-04T17:40:10.823Z</time></trkpt><trkpt lat="42.090465" lon="-7.99413"><ele>979.0</ele><time>2026-04-04T17:40:11.823Z</time></trkpt><trkpt lat="42.09055" lon="-7.9940567"><ele>979.0</ele><time>2026-04-04T17:40:12.824Z</time></trkpt><trkpt lat="42.0906417" lon="-7.9940067"><ele>979.0000000000001</ele><time>2026-04-04T17:40:13.823Z</time></trkpt><trkpt lat="42.09075" lon="-7.993985"><ele>979.0000000000001</ele><time>2026-04-04T17:40:14.824Z</time></trkpt><trkpt lat="42.09087" lon="-7.9939933"><ele>979.0</ele><time>2026-04-04T17:40:15.823Z</time></trkpt><trkpt lat="42.0909767" lon="-7.9940167"><ele>979.0</ele><time>2026-04-04T17:40:16.823Z</time></trkpt><trkpt lat="42.0910667" lon="-7.99403"><ele>978.8571428571429</ele><time>2026-04-04T17:40:17.824Z</time></trkpt><trkpt lat="42.0911533" lon="-7.9940417"><ele>978.7142857142858</ele><time>2026-04-04T17:40:18.823Z</time></trkpt><trkpt lat="42.0912233" lon="-7.9940583"><ele>978.5714285714287</ele><time>2026-04-04T17:40:19.824Z</time></trkpt><trkpt lat="42.091295" lon="-7.99408"><ele>978.4285714285714</ele><time>2026-04-04T17:40:20.824Z</time></trkpt><trkpt lat="42.09135" lon="-7.9941233"><ele>978.2857142857144</ele><time>2026-04-04T17:40:21.824Z</time></trkpt><trkpt lat="42.0914133" lon="-7.994175"><ele>978.1428571428572</ele><time>2026-04-04T17:40:22.824Z</time></trkpt><trkpt lat="42.0914783" lon="-7.994205"><ele>978.0</ele><time>2026-04-04T17:40:23.824Z</time></trkpt><trkpt lat="42.091575" lon="-7.99425"><ele>978.5</ele><time>2026-04-04T17:40:25.823Z</time></trkpt><trkpt lat="42.0916033" lon="-7.994355"><ele>979.0</ele><time>2026-04-04T17:40:27.823Z</time></trkpt><trkpt lat="42.0916167" lon="-7.9945567"><ele>979.5</ele><time>2026-04-04T17:40:29.823Z</time></trkpt><trkpt lat="42.091615" lon="-7.9947417"><ele>980.0</ele><time>2026-04-04T17:40:30.824Z</time></trkpt><trkpt lat="42.0916317" lon="-7.9949517"><ele>978.3333333333334</ele><time>2026-04-04T17:40:31.824Z</time></trkpt><trkpt lat="42.0916633" lon="-7.9951667"><ele>976.6666666666667</ele><time>2026-04-04T17:40:32.824Z</time></trkpt><trkpt lat="42.0916917" lon="-7.99538"><ele>975.0</ele><time>2026-04-04T17:40:33.824Z</time></trkpt><trkpt lat="42.0917333" lon="-7.995585"><ele>975.0</ele><time>2026-04-04T17:40:34.823Z</time></trkpt><trkpt lat="42.09178" lon="-7.9957933"><ele>975.0</ele><time>2026-04-04T17:40:35.823Z</time></trkpt><trkpt lat="42.0918233" lon="-7.9960067"><ele>975.0</ele><time>2026-04-04T17:40:36.824Z</time></trkpt><trkpt lat="42.0918783" lon="-7.99621"><ele>973.3333333333333</ele><time>2026-04-04T17:40:37.823Z</time></trkpt><trkpt lat="42.091945" lon="-7.996405"><ele>971.6666666666666</ele><time>2026-04-04T17:40:38.824Z</time></trkpt><trkpt lat="42.09203" lon="-7.99659"><ele>970.0</ele><time>2026-04-04T17:40:39.825Z</time></trkpt><trkpt lat="42.0921267" lon="-7.996785"><ele>968.3333333333333</ele><time>2026-04-04T17:40:40.825Z</time></trkpt><trkpt lat="42.0922317" lon="-7.9969833"><ele>966.6666666666667</ele><time>2026-04-04T17:40:41.823Z</time></trkpt><trkpt lat="42.0923467" lon="-7.9971817"><ele>965.0</ele><time>2026-04-04T17:40:42.824Z</time></trkpt><trkpt lat="42.0924583" lon="-7.997365"><ele>966.75</ele><time>2026-04-04T17:40:43.822Z</time></trkpt><trkpt lat="42.0925583" lon="-7.9975317"><ele>968.5</ele><time>2026-04-04T17:40:44.823Z</time></trkpt><trkpt lat="42.0926467" lon="-7.9976533"><ele>970.25</ele><time>2026-04-04T17:40:45.823Z</time></trkpt><trkpt lat="42.0927167" lon="-7.9977467"><ele>972.0</ele><time>2026-04-04T17:40:46.822Z</time></trkpt><trkpt lat="42.092765" lon="-7.99782"><ele>972.0</ele><time>2026-04-04T17:40:47.822Z</time></trkpt><trkpt lat="42.0928183" lon="-7.9979333"><ele>972.0</ele><time>2026-04-04T17:40:48.823Z</time></trkpt><trkpt lat="42.0928733" lon="-7.99807"><ele>972.0</ele><time>2026-04-04T17:40:49.822Z</time></trkpt><trkpt lat="42.0929167" lon="-7.9982033"><ele>972.0</ele><time>2026-04-04T17:40:50.823Z</time></trkpt><trkpt lat="42.092955" lon="-7.9983267"><ele>972.0</ele><time>2026-04-04T17:40:51.823Z</time></trkpt><trkpt lat="42.0929933" lon="-7.99845"><ele>970.0</ele><time>2026-04-04T17:40:52.823Z</time></trkpt><trkpt lat="42.0930317" lon="-7.9985933"><ele>968.0</ele><time>2026-04-04T17:40:53.824Z</time></trkpt><trkpt lat="42.0930717" lon="-7.99875"><ele>966.0</ele><time>2026-04-04T17:40:54.823Z</time></trkpt><trkpt lat="42.0931117" lon="-7.998915"><ele>964.0</ele><time>2026-04-04T17:40:55.822Z</time></trkpt><trkpt lat="42.0931433" lon="-7.9990883"><ele>962.2</ele><time>2026-04-04T17:40:56.823Z</time></trkpt><trkpt lat="42.09317" lon="-7.99925"><ele>960.4000000000001</ele><time>2026-04-04T17:40:57.821Z</time></trkpt><trkpt lat="42.0931917" lon="-7.999395"><ele>958.6</ele><time>2026-04-04T17:40:58.822Z</time></trkpt><trkpt lat="42.0932067" lon="-7.99953"><ele>956.8</ele><time>2026-04-04T17:40:59.822Z</time></trkpt><trkpt lat="42.0932267" lon="-7.9996417"><ele>955.0</ele><time>2026-04-04T17:41:00.823Z</time></trkpt><trkpt lat="42.0932483" lon="-7.99975"><ele>956.4</ele><time>2026-04-04T17:41:01.823Z</time></trkpt><trkpt lat="42.0932867" lon="-7.999845"><ele>957.8</ele><time>2026-04-04T17:41:02.823Z</time></trkpt><trkpt lat="42.0933383" lon="-7.9999533"><ele>959.2</ele><time>2026-04-04T17:41:03.822Z</time></trkpt><trkpt lat="42.093435" lon="-8.0000867"><ele>960.6</ele><time>2026-04-04T17:41:04.823Z</time></trkpt><trkpt lat="42.0935283" lon="-8.0002017"><ele>962.0</ele><time>2026-04-04T17:41:05.822Z</time></trkpt><trkpt lat="42.09361" lon="-8.0003167"><ele>962.0</ele><time>2026-04-04T17:41:06.823Z</time></trkpt><trkpt lat="42.093685" lon="-8.00041"><ele>962.0</ele><time>2026-04-04T17:41:07.822Z</time></trkpt><trkpt lat="42.093765" lon="-8.000485"><ele>962.0</ele><time>2026-04-04T17:41:08.823Z</time></trkpt><trkpt lat="42.09384" lon="-8.0005583"><ele>962.0</ele><time>2026-04-04T17:41:09.822Z</time></trkpt><trkpt lat="42.0939033" lon="-8.0006467"><ele>962.0</ele><time>2026-04-04T17:41:10.822Z</time></trkpt><trkpt lat="42.0939617" lon="-8.0007533"><ele>960.0</ele><time>2026-04-04T17:41:11.823Z</time></trkpt><trkpt lat="42.0940233" lon="-8.0008667"><ele>958.0</ele><time>2026-04-04T17:41:12.823Z</time></trkpt><trkpt lat="42.094085" lon="-8.0009883"><ele>956.0</ele><time>2026-04-04T17:41:13.822Z</time></trkpt><trkpt lat="42.0941533" lon="-8.0011033"><ele>954.0</ele><time>2026-04-04T17:41:14.822Z</time></trkpt><trkpt lat="42.0942267" lon="-8.0012167"><ele>952.0</ele><time>2026-04-04T17:41:15.823Z</time></trkpt><trkpt lat="42.09431" lon="-8.0013233"><ele>951.8</ele><time>2026-04-04T17:41:16.824Z</time></trkpt><trkpt lat="42.09439" lon="-8.0014333"><ele>951.6</ele><time>2026-04-04T17:41:17.823Z</time></trkpt><trkpt lat="42.0944767" lon="-8.0015267"><ele>951.3999999999999</ele><time>2026-04-04T17:41:18.823Z</time></trkpt><trkpt lat="42.094555" lon="-8.0016083"><ele>951.1999999999999</ele><time>2026-04-04T17:41:19.822Z</time></trkpt><trkpt lat="42.0946317" lon="-8.0016867"><ele>951.0</ele><time>2026-04-04T17:41:20.824Z</time></trkpt><trkpt lat="42.0947" lon="-8.001765"><ele>949.4</ele><time>2026-04-04T17:41:21.822Z</time></trkpt><trkpt lat="42.0947733" lon="-8.0018417"><ele>947.8</ele><time>2026-04-04T17:41:22.822Z</time></trkpt><trkpt lat="42.094845" lon="-8.001925"><ele>946.1999999999999</ele><time>2026-04-04T17:41:23.823Z</time></trkpt><trkpt lat="42.094915" lon="-8.0020067"><ele>944.5999999999999</ele><time>2026-04-04T17:41:24.823Z</time></trkpt><trkpt lat="42.0949917" lon="-8.002095"><ele>943.0</ele><time>2026-04-04T17:41:25.822Z</time></trkpt><trkpt lat="42.09506" lon="-8.0022067"><ele>940.5999999999999</ele><time>2026-04-04T17:41:26.823Z</time></trkpt><trkpt lat="42.0951333" lon="-8.0023117"><ele>938.1999999999999</ele><time>2026-04-04T17:41:27.822Z</time></trkpt><trkpt lat="42.0952033" lon="-8.00242"><ele>935.8</ele><time>2026-04-04T17:41:28.823Z</time></trkpt><trkpt lat="42.09527" lon="-8.0025333"><ele>933.4</ele><time>2026-04-04T17:41:29.823Z</time></trkpt><trkpt lat="42.0953483" lon="-8.00266"><ele>931.0</ele><time>2026-04-04T17:41:30.823Z</time></trkpt><trkpt lat="42.095425" lon="-8.0027883"><ele>927.5</ele><time>2026-04-04T17:41:31.823Z</time></trkpt><trkpt lat="42.0955017" lon="-8.0029417"><ele>924.0</ele><time>2026-04-04T17:41:32.823Z</time></trkpt><trkpt lat="42.0955783" lon="-8.0030983"><ele>920.5</ele><time>2026-04-04T17:41:33.823Z</time></trkpt><trkpt lat="42.09566" lon="-8.0032533"><ele>917.0</ele><time>2026-04-04T17:41:34.822Z</time></trkpt><trkpt lat="42.0957417" lon="-8.0033933"><ele>912.75</ele><time>2026-04-04T17:41:35.822Z</time></trkpt><trkpt lat="42.0958133" lon="-8.00352"><ele>908.5</ele><time>2026-04-04T17:41:36.823Z</time></trkpt><trkpt lat="42.0958833" lon="-8.0036417"><ele>904.25</ele><time>2026-04-04T17:41:37.822Z</time></trkpt><trkpt lat="42.09596" lon="-8.0037683"><ele>900.0</ele><time>2026-04-04T17:41:38.824Z</time></trkpt><trkpt lat="42.09604" lon="-8.0038767"><ele>900.0</ele><time>2026-04-04T17:41:39.823Z</time></trkpt><trkpt lat="42.0961233" lon="-8.0039733"><ele>900.0</ele><time>2026-04-04T17:41:40.822Z</time></trkpt><trkpt lat="42.0962067" lon="-8.00405"><ele>900.0</ele><time>2026-04-04T17:41:41.822Z</time></trkpt><trkpt lat="42.0962967" lon="-8.0041017"><ele>900.0</ele><time>2026-04-04T17:41:42.824Z</time></trkpt><trkpt lat="42.0964017" lon="-8.0041117"><ele>900.0</ele><time>2026-04-04T17:41:43.823Z</time></trkpt><trkpt lat="42.0965117" lon="-8.0041"><ele>898.75</ele><time>2026-04-04T17:41:44.822Z</time></trkpt><trkpt lat="42.0966417" lon="-8.0040367"><ele>897.5</ele><time>2026-04-04T17:41:45.823Z</time></trkpt><trkpt lat="42.0967683" lon="-8.0039433"><ele>896.25</ele><time>2026-04-04T17:41:46.823Z</time></trkpt><trkpt lat="42.096895" lon="-8.003815"><ele>895.0</ele><time>2026-04-04T17:41:47.823Z</time></trkpt><trkpt lat="42.097015" lon="-8.003685"><ele>895.0</ele><time>2026-04-04T17:41:48.822Z</time></trkpt><trkpt lat="42.0971383" lon="-8.0035567"><ele>895.0</ele><time>2026-04-04T17:41:49.823Z</time></trkpt><trkpt lat="42.097245" lon="-8.0034517"><ele>895.0</ele><time>2026-04-04T17:41:50.823Z</time></trkpt><trkpt lat="42.09733" lon="-8.0033533"><ele>895.0</ele><time>2026-04-04T17:41:51.824Z</time></trkpt><trkpt lat="42.097405" lon="-8.0032517"><ele>894.5</ele><time>2026-04-04T17:41:52.822Z</time></trkpt><trkpt lat="42.0974617" lon="-8.0031317"><ele>894.0</ele><time>2026-04-04T17:41:53.822Z</time></trkpt><trkpt lat="42.097485" lon="-8.002975"><ele>893.5</ele><time>2026-04-04T17:41:54.822Z</time></trkpt><trkpt lat="42.09751" lon="-8.002815"><ele>893.0</ele><time>2026-04-04T17:41:55.822Z</time></trkpt><trkpt lat="42.0975217" lon="-8.002635"><ele>891.25</ele><time>2026-04-04T17:41:56.824Z</time></trkpt><trkpt lat="42.0975167" lon="-8.002445"><ele>889.5</ele><time>2026-04-04T17:41:57.822Z</time></trkpt><trkpt lat="42.097505" lon="-8.002215"><ele>887.75</ele><time>2026-04-04T17:41:58.823Z</time></trkpt><trkpt lat="42.097505" lon="-8.0020417"><ele>886.0</ele><time>2026-04-04T17:41:59.822Z</time></trkpt><trkpt lat="42.0975133" lon="-8.0018833"><ele>886.0</ele><time>2026-04-04T17:42:00.823Z</time></trkpt><trkpt lat="42.097525" lon="-8.00173"><ele>885.9999999999999</ele><time>2026-04-04T17:42:01.822Z</time></trkpt><trkpt lat="42.09754" lon="-8.0015883"><ele>885.9999999999999</ele><time>2026-04-04T17:42:02.823Z</time></trkpt><trkpt lat="42.0975583" lon="-8.0014367"><ele>886.0</ele><time>2026-04-04T17:42:03.822Z</time></trkpt><trkpt lat="42.0975817" lon="-8.001295"><ele>886.0</ele><time>2026-04-04T17:42:04.823Z</time></trkpt><trkpt lat="42.097605" lon="-8.0011717"><ele>885.4999999999999</ele><time>2026-04-04T17:42:05.823Z</time></trkpt><trkpt lat="42.0976333" lon="-8.001095"><ele>885.0</ele><time>2026-04-04T17:42:06.823Z</time></trkpt><trkpt lat="42.0976767" lon="-8.001005"><ele>884.5</ele><time>2026-04-04T17:42:07.822Z</time></trkpt><trkpt lat="42.097715" lon="-8.000925"><ele>884.0</ele><time>2026-04-04T17:42:08.825Z</time></trkpt><trkpt lat="42.0977617" lon="-8.0008433"><ele>883.4999999999999</ele><time>2026-04-04T17:42:09.824Z</time></trkpt><trkpt lat="42.0978667" lon="-8.0007967"><ele>883.0</ele><time>2026-04-04T17:42:11.823Z</time></trkpt><trkpt lat="42.0979467" lon="-8.000795"><ele>884.4</ele><time>2026-04-04T17:42:14.824Z</time></trkpt><trkpt lat="42.0980433" lon="-8.00079"><ele>885.8</ele><time>2026-04-04T17:42:17.825Z</time></trkpt><trkpt lat="42.0981433" lon="-8.0007783"><ele>887.2</ele><time>2026-04-04T17:42:19.824Z</time></trkpt><trkpt lat="42.09826" lon="-8.0007783"><ele>888.6</ele><time>2026-04-04T17:42:21.824Z</time></trkpt><trkpt lat="42.09836" lon="-8.0007533"><ele>890.0</ele><time>2026-04-04T17:42:23.824Z</time></trkpt><trkpt lat="42.0984683" lon="-8.0007067"><ele>890.0</ele><time>2026-04-04T17:42:25.823Z</time></trkpt><trkpt lat="42.098575" lon="-8.0006633"><ele>890.0</ele><time>2026-04-04T17:42:27.824Z</time></trkpt><trkpt lat="42.0986617" lon="-8.0006267"><ele>890.0</ele><time>2026-04-04T17:42:29.824Z</time></trkpt><trkpt lat="42.098745" lon="-8.0006167"><ele>890.0</ele><time>2026-04-04T17:42:31.824Z</time></trkpt><trkpt lat="42.0988117" lon="-8.0005967"><ele>890.0</ele><time>2026-04-04T17:42:33.824Z</time></trkpt><trkpt lat="42.0989067" lon="-8.0005617"><ele>890.0</ele><time>2026-04-04T17:42:35.824Z</time></trkpt><trkpt lat="42.0990417" lon="-8.0005633"><ele>890.0</ele><time>2026-04-04T17:42:37.824Z</time></trkpt><trkpt lat="42.099115" lon="-8.0005633"><ele>890.0</ele><time>2026-04-04T17:42:38.825Z</time></trkpt><trkpt lat="42.0992067" lon="-8.0005583"><ele>890.0</ele><time>2026-04-04T17:42:39.824Z</time></trkpt><trkpt lat="42.0993417" lon="-8.0005617"><ele>890.0</ele><time>2026-04-04T17:42:40.824Z</time></trkpt><trkpt lat="42.0994533" lon="-8.0005833"><ele>888.8</ele><time>2026-04-04T17:42:41.824Z</time></trkpt><trkpt lat="42.0995567" lon="-8.0006133"><ele>887.6</ele><time>2026-04-04T17:42:42.824Z</time></trkpt><trkpt lat="42.09965" lon="-8.00066"><ele>886.4000000000001</ele><time>2026-04-04T17:42:43.824Z</time></trkpt><trkpt lat="42.099755" lon="-8.00069"><ele>885.2</ele><time>2026-04-04T17:42:44.824Z</time></trkpt><trkpt lat="42.0998483" lon="-8.0007133"><ele>884.0</ele><time>2026-04-04T17:42:45.824Z</time></trkpt><trkpt lat="42.0999433" lon="-8.00072"><ele>881.6666666666667</ele><time>2026-04-04T17:42:46.824Z</time></trkpt><trkpt lat="42.1000383" lon="-8.0007067"><ele>879.3333333333334</ele><time>2026-04-04T17:42:47.824Z</time></trkpt><trkpt lat="42.10014" lon="-8.0006867"><ele>877.0</ele><time>2026-04-04T17:42:48.824Z</time></trkpt><trkpt lat="42.1002217" lon="-8.0006567"><ele>874.6666666666667</ele><time>2026-04-04T17:42:49.824Z</time></trkpt><trkpt lat="42.1003067" lon="-8.0006233"><ele>872.3333333333334</ele><time>2026-04-04T17:42:50.824Z</time></trkpt><trkpt lat="42.1003683" lon="-8.000585"><ele>870.0</ele><time>2026-04-04T17:42:51.824Z</time></trkpt><trkpt lat="42.1004517" lon="-8.0004983"><ele>870.0</ele><time>2026-04-04T17:42:53.823Z</time></trkpt><trkpt lat="42.1005033" lon="-8.0004183"><ele>870.0</ele><time>2026-04-04T17:42:55.823Z</time></trkpt><trkpt lat="42.1004917" lon="-8.0003167"><ele>870.0</ele><time>2026-04-04T17:42:58.824Z</time></trkpt><trkpt lat="42.1004417" lon="-8.0002033"><ele>870.0</ele><time>2026-04-04T17:43:00.824Z</time></trkpt><trkpt lat="42.1004256" lon="-8.0000433"><ele>870.0</ele><time>2026-04-04T17:43:02.824Z</time></trkpt><trkpt lat="42.1004362" lon="-7.9999409"><ele>870.0</ele><time>2026-04-04T17:43:03.824Z</time></trkpt><trkpt lat="42.100455" lon="-7.999828"><ele>870.0</ele><time>2026-04-04T17:43:04.824Z</time></trkpt><trkpt lat="42.100486" lon="-7.999704"><ele>870.0</ele><time>2026-04-04T17:43:05.823Z</time></trkpt><trkpt lat="42.1005571" lon="-7.999556"><ele>870.0</ele><time>2026-04-04T17:43:06.823Z</time></trkpt><trkpt lat="42.10071" lon="-7.9994436"><ele>870.0</ele><time>2026-04-04T17:43:08.89Z</time></trkpt><trkpt lat="42.1007562" lon="-7.9992923"><ele>867.3333333333333</ele><time>2026-04-04T17:43:09.888Z</time></trkpt><trkpt lat="42.100802" lon="-7.9990416"><ele>864.6666666666666</ele><time>2026-04-04T17:43:10.886Z</time></trkpt><trkpt lat="42.1008518" lon="-7.9988835"><ele>862.0</ele><time>2026-04-04T17:43:11.797Z</time></trkpt><trkpt lat="42.1009088" lon="-7.9987096"><ele>862.0</ele><time>2026-04-04T17:43:12.849Z</time></trkpt><trkpt lat="42.1009504" lon="-7.9985369"><ele>862.0</ele><time>2026-04-04T17:43:13.88Z</time></trkpt><trkpt lat="42.1009754" lon="-7.9983766"><ele>862.0</ele><time>2026-04-04T17:43:14.825Z</time></trkpt><trkpt lat="42.1009977" lon="-7.9982533"><ele>862.0</ele><time>2026-04-04T17:43:15.876Z</time></trkpt><trkpt lat="42.1010695" lon="-7.9981039"><ele>863.4000000000001</ele><time>2026-04-04T17:43:16.874Z</time></trkpt><trkpt lat="42.1010916" lon="-7.9979212"><ele>864.8000000000001</ele><time>2026-04-04T17:43:18.824Z</time></trkpt><trkpt lat="42.1011249" lon="-7.9978023"><ele>866.2</ele><time>2026-04-04T17:43:19.823Z</time></trkpt><trkpt lat="42.1011709" lon="-7.9976814"><ele>867.6</ele><time>2026-04-04T17:43:20.825Z</time></trkpt><trkpt lat="42.1012139" lon="-7.9975675"><ele>869.0</ele><time>2026-04-04T17:43:21.823Z</time></trkpt><trkpt lat="42.10125" lon="-7.997455"><ele>869.8333333333334</ele><time>2026-04-04T17:43:22.822Z</time></trkpt><trkpt lat="42.1012631" lon="-7.9973545"><ele>870.6666666666667</ele><time>2026-04-04T17:43:23.823Z</time></trkpt><trkpt lat="42.1012541" lon="-7.9972624"><ele>871.5</ele><time>2026-04-04T17:43:24.822Z</time></trkpt><trkpt lat="42.1012217" lon="-7.9971691"><ele>872.3333333333333</ele><time>2026-04-04T17:43:25.823Z</time></trkpt><trkpt lat="42.1011472" lon="-7.9970977"><ele>873.1666666666666</ele><time>2026-04-04T17:43:26.824Z</time></trkpt><trkpt lat="42.1010952" lon="-7.9970227"><ele>874.0</ele><time>2026-04-04T17:43:27.823Z</time></trkpt><trkpt lat="42.1010689" lon="-7.9969406"><ele>873.9999999999999</ele><time>2026-04-04T17:43:28.824Z</time></trkpt><trkpt lat="42.1010472" lon="-7.9968438"><ele>874.0</ele><time>2026-04-04T17:43:29.824Z</time></trkpt><trkpt lat="42.1010409" lon="-7.996742"><ele>874.0</ele><time>2026-04-04T17:43:30.823Z</time></trkpt><trkpt lat="42.1010442" lon="-7.996627"><ele>874.0</ele><time>2026-04-04T17:43:31.824Z</time></trkpt><trkpt lat="42.1010546" lon="-7.9964947"><ele>873.9999999999999</ele><time>2026-04-04T17:43:32.823Z</time></trkpt><trkpt lat="42.1010731" lon="-7.9963423"><ele>874.0</ele><time>2026-04-04T17:43:33.823Z</time></trkpt><trkpt lat="42.1010915" lon="-7.9961712"><ele>874.0</ele><time>2026-04-04T17:43:34.823Z</time></trkpt><trkpt lat="42.1011131" lon="-7.9960089"><ele>874.0000000000001</ele><time>2026-04-04T17:43:35.824Z</time></trkpt><trkpt lat="42.1011318" lon="-7.9958845"><ele>874.0000000000001</ele><time>2026-04-04T17:43:36.823Z</time></trkpt><trkpt lat="42.1011541" lon="-7.9957724"><ele>874.0</ele><time>2026-04-04T17:43:37.823Z</time></trkpt><trkpt lat="42.1011926" lon="-7.995666"><ele>874.0</ele><time>2026-04-04T17:43:38.823Z</time></trkpt><trkpt lat="42.1012295" lon="-7.9955704"><ele>874.8000000000001</ele><time>2026-04-04T17:43:39.823Z</time></trkpt><trkpt lat="42.1012707" lon="-7.9954822"><ele>875.6000000000001</ele><time>2026-04-04T17:43:40.824Z</time></trkpt><trkpt lat="42.1013393" lon="-7.9954744"><ele>876.4</ele><time>2026-04-04T17:43:41.823Z</time></trkpt><trkpt lat="42.1014155" lon="-7.9955058"><ele>877.2</ele><time>2026-04-04T17:43:42.824Z</time></trkpt><trkpt lat="42.1015317" lon="-7.9956"><ele>878.0</ele><time>2026-04-04T17:43:43.824Z</time></trkpt><trkpt lat="42.1016517" lon="-7.99569"><ele>875.8</ele><time>2026-04-04T17:43:44.824Z</time></trkpt><trkpt lat="42.1017517" lon="-7.9957417"><ele>873.5999999999999</ele><time>2026-04-04T17:43:45.824Z</time></trkpt><trkpt lat="42.101845" lon="-7.9957883"><ele>871.4000000000001</ele><time>2026-04-04T17:43:46.824Z</time></trkpt><trkpt lat="42.1019433" lon="-7.9958267"><ele>869.2</ele><time>2026-04-04T17:43:47.825Z</time></trkpt><trkpt lat="42.1020483" lon="-7.99587"><ele>867.0</ele><time>2026-04-04T17:43:48.824Z</time></trkpt><trkpt lat="42.1021417" lon="-7.9958867"><ele>867.25</ele><time>2026-04-04T17:43:49.823Z</time></trkpt><trkpt lat="42.10228" lon="-7.9958433"><ele>867.5</ele><time>2026-04-04T17:43:50.823Z</time></trkpt><trkpt lat="42.1024183" lon="-7.9957833"><ele>867.75</ele><time>2026-04-04T17:43:51.823Z</time></trkpt><trkpt lat="42.10255" lon="-7.9957167"><ele>868.0</ele><time>2026-04-04T17:43:52.823Z</time></trkpt><trkpt lat="42.1026667" lon="-7.99566"><ele>868.0</ele><time>2026-04-04T17:43:53.824Z</time></trkpt><trkpt lat="42.1027767" lon="-7.99562"><ele>868.0</ele><time>2026-04-04T17:43:54.824Z</time></trkpt><trkpt lat="42.1028833" lon="-7.9955933"><ele>868.0</ele><time>2026-04-04T17:43:55.824Z</time></trkpt><trkpt lat="42.102995" lon="-7.9955833"><ele>868.0</ele><time>2026-04-04T17:43:56.823Z</time></trkpt><trkpt lat="42.1031183" lon="-7.995595"><ele>866.5</ele><time>2026-04-04T17:43:57.823Z</time></trkpt><trkpt lat="42.1032483" lon="-7.9956183"><ele>865.0</ele><time>2026-04-04T17:43:58.824Z</time></trkpt><trkpt lat="42.103365" lon="-7.99566"><ele>863.5</ele><time>2026-04-04T17:43:59.823Z</time></trkpt><trkpt lat="42.103495" lon="-7.9957267"><ele>862.0</ele><time>2026-04-04T17:44:00.823Z</time></trkpt><trkpt lat="42.1035917" lon="-7.9957883"><ele>860.8333333333333</ele><time>2026-04-04T17:44:01.823Z</time></trkpt><trkpt lat="42.103675" lon="-7.9958383"><ele>859.6666666666666</ele><time>2026-04-04T17:44:02.824Z</time></trkpt><trkpt lat="42.1037567" lon="-7.995885"><ele>858.5</ele><time>2026-04-04T17:44:03.823Z</time></trkpt><trkpt lat="42.1038417" lon="-7.9959067"><ele>857.3333333333333</ele><time>2026-04-04T17:44:04.824Z</time></trkpt><trkpt lat="42.1039267" lon="-7.99592"><ele>856.1666666666666</ele><time>2026-04-04T17:44:05.824Z</time></trkpt><trkpt lat="42.1040033" lon="-7.9959"><ele>855.0</ele><time>2026-04-04T17:44:06.825Z</time></trkpt><trkpt lat="42.10408" lon="-7.995815"><ele>855.0</ele><time>2026-04-04T17:44:07.822Z</time></trkpt><trkpt lat="42.104165" lon="-7.9957317"><ele>855.0</ele><time>2026-04-04T17:44:08.824Z</time></trkpt><trkpt lat="42.104235" lon="-7.9956067"><ele>855.0</ele><time>2026-04-04T17:44:09.822Z</time></trkpt><trkpt lat="42.1042833" lon="-7.9954833"><ele>855.0</ele><time>2026-04-04T17:44:10.823Z</time></trkpt><trkpt lat="42.10431" lon="-7.99532"><ele>855.0</ele><time>2026-04-04T17:44:11.823Z</time></trkpt><trkpt lat="42.1043517" lon="-7.995165"><ele>857.0</ele><time>2026-04-04T17:44:12.825Z</time></trkpt><trkpt lat="42.1044167" lon="-7.9950033"><ele>859.0</ele><time>2026-04-04T17:44:13.823Z</time></trkpt><trkpt lat="42.1044883" lon="-7.9948733"><ele>861.0</ele><time>2026-04-04T17:44:14.823Z</time></trkpt><trkpt lat="42.1045517" lon="-7.99477"><ele>863.0</ele><time>2026-04-04T17:44:15.823Z</time></trkpt><trkpt lat="42.1046133" lon="-7.9947017"><ele>865.0</ele><time>2026-04-04T17:44:16.823Z</time></trkpt><trkpt lat="42.1046783" lon="-7.99465"><ele>865.0</ele><time>2026-04-04T17:44:17.823Z</time></trkpt><trkpt lat="42.1047517" lon="-7.99461"><ele>865.0</ele><time>2026-04-04T17:44:18.824Z</time></trkpt><trkpt lat="42.1048433" lon="-7.9945833"><ele>865.0</ele><time>2026-04-04T17:44:19.824Z</time></trkpt><trkpt lat="42.1049583" lon="-7.9945417"><ele>865.0</ele><time>2026-04-04T17:44:20.824Z</time></trkpt><trkpt lat="42.105085" lon="-7.9944667"><ele>865.0</ele><time>2026-04-04T17:44:21.824Z</time></trkpt><trkpt lat="42.1052" lon="-7.99437"><ele>863.0</ele><time>2026-04-04T17:44:22.823Z</time></trkpt><trkpt lat="42.105305" lon="-7.994275"><ele>861.0</ele><time>2026-04-04T17:44:23.823Z</time></trkpt><trkpt lat="42.105375" lon="-7.9942"><ele>859.0</ele><time>2026-04-04T17:44:24.823Z</time></trkpt><trkpt lat="42.105425" lon="-7.9941333"><ele>857.0</ele><time>2026-04-04T17:44:25.823Z</time></trkpt><trkpt lat="42.1054833" lon="-7.993995"><ele>855.0</ele><time>2026-04-04T17:44:27.822Z</time></trkpt><trkpt lat="42.1054667" lon="-7.99384"><ele>855.0</ele><time>2026-04-04T17:44:29.824Z</time></trkpt><trkpt lat="42.105415" lon="-7.993755"><ele>855.0</ele><time>2026-04-04T17:44:30.823Z</time></trkpt><trkpt lat="42.10537" lon="-7.9936617"><ele>855.0</ele><time>2026-04-04T17:44:31.824Z</time></trkpt><trkpt lat="42.1052817" lon="-7.9935383"><ele>855.0</ele><time>2026-04-04T17:44:32.823Z</time></trkpt><trkpt lat="42.1052267" lon="-7.993385"><ele>855.0</ele><time>2026-04-04T17:44:33.824Z</time></trkpt><trkpt lat="42.1051917" lon="-7.9932183"><ele>856.6666666666667</ele><time>2026-04-04T17:44:34.824Z</time></trkpt><trkpt lat="42.1051533" lon="-7.9930133"><ele>858.3333333333334</ele><time>2026-04-04T17:44:35.823Z</time></trkpt><trkpt lat="42.105125" lon="-7.9927917"><ele>860.0</ele><time>2026-04-04T17:44:36.823Z</time></trkpt><trkpt lat="42.10511" lon="-7.9925767"><ele>862.25</ele><time>2026-04-04T17:44:37.824Z</time></trkpt><trkpt lat="42.1050967" lon="-7.9924017"><ele>864.5</ele><time>2026-04-04T17:44:38.824Z</time></trkpt><trkpt lat="42.1050967" lon="-7.9922433"><ele>866.75</ele><time>2026-04-04T17:44:39.823Z</time></trkpt><trkpt lat="42.105115" lon="-7.9920917"><ele>869.0</ele><time>2026-04-04T17:44:40.822Z</time></trkpt><trkpt lat="42.1051483" lon="-7.9919133"><ele>869.0</ele><time>2026-04-04T17:44:41.823Z</time></trkpt><trkpt lat="42.105185" lon="-7.99172"><ele>869.0</ele><time>2026-04-04T17:44:42.825Z</time></trkpt><trkpt lat="42.105215" lon="-7.9915467"><ele>869.0</ele><time>2026-04-04T17:44:43.823Z</time></trkpt><trkpt lat="42.1052333" lon="-7.9913883"><ele>869.0</ele><time>2026-04-04T17:44:44.825Z</time></trkpt><trkpt lat="42.10524" lon="-7.9912317"><ele>872.0</ele><time>2026-04-04T17:44:45.825Z</time></trkpt><trkpt lat="42.1052417" lon="-7.9910617"><ele>875.0</ele><time>2026-04-04T17:44:46.824Z</time></trkpt><trkpt lat="42.1052333" lon="-7.99087"><ele>878.0</ele><time>2026-04-04T17:44:47.823Z</time></trkpt><trkpt lat="42.1051983" lon="-7.9906633"><ele>881.0</ele><time>2026-04-04T17:44:48.823Z</time></trkpt><trkpt lat="42.105165" lon="-7.9904417"><ele>883.6666666666667</ele><time>2026-04-04T17:44:49.823Z</time></trkpt><trkpt lat="42.1051383" lon="-7.9902117"><ele>886.3333333333333</ele><time>2026-04-04T17:44:50.825Z</time></trkpt><trkpt lat="42.1051017" lon="-7.98999"><ele>889.0</ele><time>2026-04-04T17:44:51.827Z</time></trkpt><trkpt lat="42.1050667" lon="-7.989765"><ele>890.2</ele><time>2026-04-04T17:44:52.823Z</time></trkpt><trkpt lat="42.1050467" lon="-7.9895533"><ele>891.4000000000001</ele><time>2026-04-04T17:44:53.823Z</time></trkpt><trkpt lat="42.105025" lon="-7.9893867"><ele>892.6</ele><time>2026-04-04T17:44:54.824Z</time></trkpt><trkpt lat="42.1049783" lon="-7.9892933"><ele>893.8</ele><time>2026-04-04T17:44:55.824Z</time></trkpt><trkpt lat="42.1049617" lon="-7.9891883"><ele>895.0</ele><time>2026-04-04T17:44:56.828Z</time></trkpt><trkpt lat="42.1049583" lon="-7.9890867"><ele>895.6</ele><time>2026-04-04T17:44:57.823Z</time></trkpt><trkpt lat="42.1049683" lon="-7.9889767"><ele>896.2</ele><time>2026-04-04T17:44:58.823Z</time></trkpt><trkpt lat="42.10498" lon="-7.9888517"><ele>896.8</ele><time>2026-04-04T17:44:59.823Z</time></trkpt><trkpt lat="42.1049817" lon="-7.9887"><ele>897.4</ele><time>2026-04-04T17:45:00.823Z</time></trkpt><trkpt lat="42.1049683" lon="-7.9885317"><ele>898.0</ele><time>2026-04-04T17:45:01.823Z</time></trkpt><trkpt lat="42.104955" lon="-7.98836"><ele>899.2</ele><time>2026-04-04T17:45:02.823Z</time></trkpt><trkpt lat="42.10494" lon="-7.9881983"><ele>900.4</ele><time>2026-04-04T17:45:03.823Z</time></trkpt><trkpt lat="42.1049283" lon="-7.9880567"><ele>901.6000000000001</ele><time>2026-04-04T17:45:04.824Z</time></trkpt><trkpt lat="42.104905" lon="-7.987925"><ele>902.8000000000001</ele><time>2026-04-04T17:45:05.823Z</time></trkpt><trkpt lat="42.1048717" lon="-7.9878"><ele>904.0</ele><time>2026-04-04T17:45:06.823Z</time></trkpt><trkpt lat="42.1048217" lon="-7.9876817"><ele>906.25</ele><time>2026-04-04T17:45:07.823Z</time></trkpt><trkpt lat="42.1047583" lon="-7.9875533"><ele>908.5</ele><time>2026-04-04T17:45:08.823Z</time></trkpt><trkpt lat="42.10468" lon="-7.98741"><ele>910.75</ele><time>2026-04-04T17:45:09.825Z</time></trkpt><trkpt lat="42.104595" lon="-7.987265"><ele>913.0</ele><time>2026-04-04T17:45:10.824Z</time></trkpt><trkpt lat="42.1045133" lon="-7.9871333"><ele>913.0</ele><time>2026-04-04T17:45:11.825Z</time></trkpt><trkpt lat="42.1044483" lon="-7.9870067"><ele>913.0</ele><time>2026-04-04T17:45:12.825Z</time></trkpt><trkpt lat="42.1043967" lon="-7.9868783"><ele>913.0</ele><time>2026-04-04T17:45:13.824Z</time></trkpt><trkpt lat="42.1043583" lon="-7.98676"><ele>913.0</ele><time>2026-04-04T17:45:14.825Z</time></trkpt><trkpt lat="42.1043383" lon="-7.98666"><ele>913.0</ele><time>2026-04-04T17:45:15.824Z</time></trkpt><trkpt lat="42.1043333" lon="-7.9865667"><ele>913.1666666666666</ele><time>2026-04-04T17:45:16.824Z</time></trkpt><trkpt lat="42.1043333" lon="-7.9864333"><ele>913.3333333333333</ele><time>2026-04-04T17:45:18.825Z</time></trkpt><trkpt lat="42.104305" lon="-7.9863333"><ele>913.5</ele><time>2026-04-04T17:45:20.826Z</time></trkpt><trkpt lat="42.10423" lon="-7.9862467"><ele>913.6666666666667</ele><time>2026-04-04T17:45:22.824Z</time></trkpt><trkpt lat="42.104175" lon="-7.9862"><ele>913.8333333333334</ele><time>2026-04-04T17:45:23.825Z</time></trkpt><trkpt lat="42.1041017" lon="-7.9861283"><ele>914.0</ele><time>2026-04-04T17:45:24.824Z</time></trkpt><trkpt lat="42.10402" lon="-7.9860617"><ele>916.4000000000001</ele><time>2026-04-04T17:45:25.824Z</time></trkpt><trkpt lat="42.103935" lon="-7.9859683"><ele>918.8000000000001</ele><time>2026-04-04T17:45:26.824Z</time></trkpt><trkpt lat="42.1038767" lon="-7.9858467"><ele>921.1999999999999</ele><time>2026-04-04T17:45:27.825Z</time></trkpt><trkpt lat="42.1038233" lon="-7.98574"><ele>923.5999999999999</ele><time>2026-04-04T17:45:28.824Z</time></trkpt><trkpt lat="42.1037733" lon="-7.9856533"><ele>926.0</ele><time>2026-04-04T17:45:29.824Z</time></trkpt><trkpt lat="42.10373" lon="-7.9855817"><ele>926.0</ele><time>2026-04-04T17:45:30.826Z</time></trkpt><trkpt lat="42.1036883" lon="-7.98545"><ele>925.9999999999999</ele><time>2026-04-04T17:45:32.824Z</time></trkpt><trkpt lat="42.1036817" lon="-7.9852933"><ele>925.9999999999999</ele><time>2026-04-04T17:45:34.824Z</time></trkpt><trkpt lat="42.1036917" lon="-7.98519"><ele>926.0</ele><time>2026-04-04T17:45:35.824Z</time></trkpt><trkpt lat="42.103715" lon="-7.9850533"><ele>926.0</ele><time>2026-04-04T17:45:36.826Z</time></trkpt><trkpt lat="42.1037317" lon="-7.9849217"><ele>927.25</ele><time>2026-04-04T17:45:37.824Z</time></trkpt><trkpt lat="42.103755" lon="-7.9847417"><ele>928.5</ele><time>2026-04-04T17:45:38.825Z</time></trkpt><trkpt lat="42.1037733" lon="-7.9845617"><ele>929.75</ele><time>2026-04-04T17:45:39.826Z</time></trkpt><trkpt lat="42.103805" lon="-7.984385"><ele>931.0</ele><time>2026-04-04T17:45:40.824Z</time></trkpt><trkpt lat="42.1038217" lon="-7.9842283"><ele>932.4</ele><time>2026-04-04T17:45:41.826Z</time></trkpt><trkpt lat="42.1038517" lon="-7.9840967"><ele>933.8</ele><time>2026-04-04T17:45:42.825Z</time></trkpt><trkpt lat="42.1038917" lon="-7.9839967"><ele>935.1999999999999</ele><time>2026-04-04T17:45:43.824Z</time></trkpt><trkpt lat="42.103975" lon="-7.983895"><ele>936.5999999999999</ele><time>2026-04-04T17:45:45.824Z</time></trkpt><trkpt lat="42.10409" lon="-7.983845"><ele>938.0</ele><time>2026-04-04T17:45:47.823Z</time></trkpt><trkpt lat="42.1042183" lon="-7.9838"><ele>938.0000000000001</ele><time>2026-04-04T17:45:49.823Z</time></trkpt><trkpt lat="42.1043017" lon="-7.98377"><ele>938.0</ele><time>2026-04-04T17:45:50.825Z</time></trkpt><trkpt lat="42.1043783" lon="-7.9837367"><ele>938.0</ele><time>2026-04-04T17:45:51.823Z</time></trkpt><trkpt lat="42.1044583" lon="-7.9837017"><ele>938.0</ele><time>2026-04-04T17:45:52.823Z</time></trkpt><trkpt lat="42.10454" lon="-7.983665"><ele>938.0000000000001</ele><time>2026-04-04T17:45:53.823Z</time></trkpt><trkpt lat="42.1046217" lon="-7.983615"><ele>938.0</ele><time>2026-04-04T17:45:54.825Z</time></trkpt><trkpt lat="42.1047017" lon="-7.983565"><ele>938.0000000000001</ele><time>2026-04-04T17:45:55.823Z</time></trkpt><trkpt lat="42.1047767" lon="-7.9835183"><ele>938.0</ele><time>2026-04-04T17:45:56.824Z</time></trkpt><trkpt lat="42.1048483" lon="-7.983475"><ele>938.0</ele><time>2026-04-04T17:45:57.825Z</time></trkpt><trkpt lat="42.1049133" lon="-7.9834383"><ele>938.0</ele><time>2026-04-04T17:45:58.823Z</time></trkpt><trkpt lat="42.10502" lon="-7.983385"><ele>938.0000000000001</ele><time>2026-04-04T17:46:00.824Z</time></trkpt><trkpt lat="42.1051167" lon="-7.9833333"><ele>938.0</ele><time>2026-04-04T17:46:02.825Z</time></trkpt><trkpt lat="42.1052183" lon="-7.983285"><ele>938.2</ele><time>2026-04-04T17:46:04.823Z</time></trkpt><trkpt lat="42.1053133" lon="-7.9832383"><ele>938.4</ele><time>2026-04-04T17:46:06.825Z</time></trkpt><trkpt lat="42.1054" lon="-7.98319"><ele>938.6000000000001</ele><time>2026-04-04T17:46:08.823Z</time></trkpt><trkpt lat="42.1054967" lon="-7.9831417"><ele>938.8000000000001</ele><time>2026-04-04T17:46:10.823Z</time></trkpt><trkpt lat="42.105615" lon="-7.9830817"><ele>939.0</ele><time>2026-04-04T17:46:12.824Z</time></trkpt><trkpt lat="42.1056833" lon="-7.9830383"><ele>939.0</ele><time>2026-04-04T17:46:13.823Z</time></trkpt><trkpt lat="42.105765" lon="-7.983"><ele>939.0</ele><time>2026-04-04T17:46:14.824Z</time></trkpt><trkpt lat="42.105845" lon="-7.982965"><ele>939.0</ele><time>2026-04-04T17:46:15.824Z</time></trkpt><trkpt lat="42.1059183" lon="-7.9829233"><ele>939.0</ele><time>2026-04-04T17:46:16.823Z</time></trkpt><trkpt lat="42.1059883" lon="-7.9828783"><ele>939.0</ele><time>2026-04-04T17:46:17.823Z</time></trkpt><trkpt lat="42.1060567" lon="-7.9828433"><ele>939.0</ele><time>2026-04-04T17:46:18.824Z</time></trkpt><trkpt lat="42.106125" lon="-7.9828083"><ele>939.0</ele><time>2026-04-04T17:46:19.824Z</time></trkpt><trkpt lat="42.1061983" lon="-7.9827717"><ele>939.0000000000001</ele><time>2026-04-04T17:46:20.824Z</time></trkpt><trkpt lat="42.1062867" lon="-7.982725"><ele>939.0000000000001</ele><time>2026-04-04T17:46:21.823Z</time></trkpt><trkpt lat="42.1063817" lon="-7.982675"><ele>939.0</ele><time>2026-04-04T17:46:22.825Z</time></trkpt><trkpt lat="42.10648" lon="-7.982625"><ele>939.0</ele><time>2026-04-04T17:46:23.823Z</time></trkpt><trkpt lat="42.1065783" lon="-7.9825717"><ele>939.4000000000001</ele><time>2026-04-04T17:46:24.824Z</time></trkpt><trkpt lat="42.1066717" lon="-7.98252"><ele>939.8000000000001</ele><time>2026-04-04T17:46:25.824Z</time></trkpt><trkpt lat="42.10676" lon="-7.9824583"><ele>940.1999999999999</ele><time>2026-04-04T17:46:26.824Z</time></trkpt><trkpt lat="42.10685" lon="-7.9823967"><ele>940.5999999999999</ele><time>2026-04-04T17:46:27.823Z</time></trkpt><trkpt lat="42.1069417" lon="-7.9823317"><ele>941.0</ele><time>2026-04-04T17:46:28.823Z</time></trkpt><trkpt lat="42.1070367" lon="-7.9822733"><ele>939.4</ele><time>2026-04-04T17:46:29.823Z</time></trkpt><trkpt lat="42.1071367" lon="-7.982215"><ele>937.8</ele><time>2026-04-04T17:46:30.825Z</time></trkpt><trkpt lat="42.10725" lon="-7.98216"><ele>936.1999999999999</ele><time>2026-04-04T17:46:31.824Z</time></trkpt><trkpt lat="42.1073533" lon="-7.9821067"><ele>934.5999999999999</ele><time>2026-04-04T17:46:32.824Z</time></trkpt><trkpt lat="42.1074383" lon="-7.9820567"><ele>933.0</ele><time>2026-04-04T17:46:33.824Z</time></trkpt><trkpt lat="42.107515" lon="-7.9820167"><ele>933.0</ele><time>2026-04-04T17:46:34.824Z</time></trkpt><trkpt lat="42.107585" lon="-7.9819917"><ele>933.0</ele><time>2026-04-04T17:46:35.824Z</time></trkpt><trkpt lat="42.1076933" lon="-7.9819917"><ele>933.0</ele><time>2026-04-04T17:46:37.825Z</time></trkpt><trkpt lat="42.1078233" lon="-7.981965"><ele>933.0</ele><time>2026-04-04T17:46:39.824Z</time></trkpt><trkpt lat="42.107905" lon="-7.981935"><ele>933.0</ele><time>2026-04-04T17:46:40.824Z</time></trkpt><trkpt lat="42.1079933" lon="-7.9818883"><ele>933.0</ele><time>2026-04-04T17:46:41.824Z</time></trkpt><trkpt lat="42.1080933" lon="-7.9818283"><ele>933.0</ele><time>2026-04-04T17:46:42.824Z</time></trkpt><trkpt lat="42.1081967" lon="-7.9817483"><ele>933.0</ele><time>2026-04-04T17:46:43.825Z</time></trkpt><trkpt lat="42.1082833" lon="-7.9816867"><ele>933.0</ele><time>2026-04-04T17:46:44.824Z</time></trkpt><trkpt lat="42.1083917" lon="-7.9815917"><ele>931.2</ele><time>2026-04-04T17:46:45.824Z</time></trkpt><trkpt lat="42.108485" lon="-7.981485"><ele>929.4</ele><time>2026-04-04T17:46:46.824Z</time></trkpt><trkpt lat="42.1085767" lon="-7.981385"><ele>927.6000000000001</ele><time>2026-04-04T17:46:47.824Z</time></trkpt><trkpt lat="42.108655" lon="-7.9812917"><ele>925.8000000000001</ele><time>2026-04-04T17:46:48.824Z</time></trkpt><trkpt lat="42.108735" lon="-7.9812133"><ele>924.0</ele><time>2026-04-04T17:46:49.824Z</time></trkpt><trkpt lat="42.108795" lon="-7.9811467"><ele>924.0</ele><time>2026-04-04T17:46:50.824Z</time></trkpt><trkpt lat="42.1088533" lon="-7.981085"><ele>924.0000000000001</ele><time>2026-04-04T17:46:51.823Z</time></trkpt><trkpt lat="42.1089233" lon="-7.9809767"><ele>924.0000000000001</ele><time>2026-04-04T17:46:53.824Z</time></trkpt><trkpt lat="42.1089483" lon="-7.9808783"><ele>924.0</ele><time>2026-04-04T17:46:55.823Z</time></trkpt><trkpt lat="42.1090267" lon="-7.9807817"><ele>924.0</ele><time>2026-04-04T17:46:58.823Z</time></trkpt><trkpt lat="42.1091417" lon="-7.9807283"><ele>922.6666666666666</ele><time>2026-04-04T17:47:00.824Z</time></trkpt><trkpt lat="42.1092317" lon="-7.9806933"><ele>921.3333333333333</ele><time>2026-04-04T17:47:01.824Z</time></trkpt><trkpt lat="42.1093233" lon="-7.9806517"><ele>920.0</ele><time>2026-04-04T17:47:02.824Z</time></trkpt><trkpt lat="42.109405" lon="-7.9806233"><ele>918.6666666666666</ele><time>2026-04-04T17:47:03.825Z</time></trkpt><trkpt lat="42.1094817" lon="-7.9805933"><ele>917.3333333333333</ele><time>2026-04-04T17:47:04.824Z</time></trkpt><trkpt lat="42.1095617" lon="-7.9805617"><ele>916.0</ele><time>2026-04-04T17:47:05.823Z</time></trkpt><trkpt lat="42.109645" lon="-7.9805367"><ele>916.0</ele><time>2026-04-04T17:47:06.822Z</time></trkpt><trkpt lat="42.1097383" lon="-7.9805133"><ele>915.9999999999999</ele><time>2026-04-04T17:47:07.823Z</time></trkpt><trkpt lat="42.1098483" lon="-7.98048"><ele>915.9999999999999</ele><time>2026-04-04T17:47:08.822Z</time></trkpt><trkpt lat="42.1099567" lon="-7.98045"><ele>916.0</ele><time>2026-04-04T17:47:09.822Z</time></trkpt><trkpt lat="42.1100517" lon="-7.9804183"><ele>916.0</ele><time>2026-04-04T17:47:10.824Z</time></trkpt><trkpt lat="42.1101367" lon="-7.9803917"><ele>914.8333333333333</ele><time>2026-04-04T17:47:11.822Z</time></trkpt><trkpt lat="42.1102033" lon="-7.9803683"><ele>913.6666666666666</ele><time>2026-04-04T17:47:12.824Z</time></trkpt><trkpt lat="42.11025" lon="-7.9802717"><ele>912.5</ele><time>2026-04-04T17:47:16.822Z</time></trkpt><trkpt lat="42.1102583" lon="-7.9801417"><ele>911.3333333333333</ele><time>2026-04-04T17:47:19.825Z</time></trkpt><trkpt lat="42.1102733" lon="-7.980025"><ele>910.1666666666666</ele><time>2026-04-04T17:47:21.822Z</time></trkpt><trkpt lat="42.110295" lon="-7.979945"><ele>909.0</ele><time>2026-04-04T17:47:22.822Z</time></trkpt><trkpt lat="42.1103267" lon="-7.9798667"><ele>907.6666666666666</ele><time>2026-04-04T17:47:23.822Z</time></trkpt><trkpt lat="42.1104083" lon="-7.97977"><ele>906.3333333333333</ele><time>2026-04-04T17:47:25.822Z</time></trkpt><trkpt lat="42.110515" lon="-7.97972"><ele>905.0</ele><time>2026-04-04T17:47:27.825Z</time></trkpt><trkpt lat="42.1105683" lon="-7.97967"><ele>903.6666666666666</ele><time>2026-04-04T17:47:28.822Z</time></trkpt><trkpt lat="42.110615" lon="-7.9796017"><ele>902.3333333333333</ele><time>2026-04-04T17:47:29.823Z</time></trkpt><trkpt lat="42.1106567" lon="-7.9795017"><ele>901.0</ele><time>2026-04-04T17:47:30.823Z</time></trkpt><trkpt lat="42.11069" lon="-7.9793883"><ele>901.0</ele><time>2026-04-04T17:47:31.823Z</time></trkpt><trkpt lat="42.1107283" lon="-7.9792333"><ele>901.0</ele><time>2026-04-04T17:47:32.822Z</time></trkpt><trkpt lat="42.1107833" lon="-7.9790783"><ele>901.0</ele><time>2026-04-04T17:47:33.824Z</time></trkpt><trkpt lat="42.1108483" lon="-7.97896"><ele>901.0</ele><time>2026-04-04T17:47:34.822Z</time></trkpt><trkpt lat="42.11093" lon="-7.9788617"><ele>899.5</ele><time>2026-04-04T17:47:35.822Z</time></trkpt><trkpt lat="42.111015" lon="-7.978765"><ele>898.0</ele><time>2026-04-04T17:47:36.824Z</time></trkpt><trkpt lat="42.1110867" lon="-7.9786567"><ele>896.5</ele><time>2026-04-04T17:47:37.822Z</time></trkpt><trkpt lat="42.11116" lon="-7.97853"><ele>895.0</ele><time>2026-04-04T17:47:38.825Z</time></trkpt><trkpt lat="42.1112317" lon="-7.9783983"><ele>896.2</ele><time>2026-04-04T17:47:39.822Z</time></trkpt><trkpt lat="42.1112967" lon="-7.9782617"><ele>897.4</ele><time>2026-04-04T17:47:40.824Z</time></trkpt><trkpt lat="42.1113567" lon="-7.9781317"><ele>898.5999999999999</ele><time>2026-04-04T17:47:41.822Z</time></trkpt><trkpt lat="42.1114017" lon="-7.9780167"><ele>899.8</ele><time>2026-04-04T17:47:42.824Z</time></trkpt><trkpt lat="42.1114383" lon="-7.9779"><ele>901.0</ele><time>2026-04-04T17:47:43.823Z</time></trkpt><trkpt lat="42.111465" lon="-7.9778"><ele>901.0</ele><time>2026-04-04T17:47:44.823Z</time></trkpt><trkpt lat="42.1114933" lon="-7.9777133"><ele>900.9999999999999</ele><time>2026-04-04T17:47:45.823Z</time></trkpt><trkpt lat="42.1115683" lon="-7.9776233"><ele>900.9999999999999</ele><time>2026-04-04T17:47:47.823Z</time></trkpt><trkpt lat="42.1116817" lon="-7.9776183"><ele>901.0</ele><time>2026-04-04T17:47:49.823Z</time></trkpt><trkpt lat="42.1118167" lon="-7.977665"><ele>901.0</ele><time>2026-04-04T17:47:51.823Z</time></trkpt><trkpt lat="42.1119033" lon="-7.97769"><ele>899.8</ele><time>2026-04-04T17:47:52.822Z</time></trkpt><trkpt lat="42.1119917" lon="-7.9777117"><ele>898.5999999999999</ele><time>2026-04-04T17:47:53.823Z</time></trkpt><trkpt lat="42.1120833" lon="-7.977725"><ele>897.4</ele><time>2026-04-04T17:47:54.823Z</time></trkpt><trkpt lat="42.1121717" lon="-7.97773"><ele>896.2</ele><time>2026-04-04T17:47:55.823Z</time></trkpt><trkpt lat="42.1122633" lon="-7.977725"><ele>895.0</ele><time>2026-04-04T17:47:56.823Z</time></trkpt><trkpt lat="42.1123517" lon="-7.9777167"><ele>895.0</ele><time>2026-04-04T17:47:57.823Z</time></trkpt><trkpt lat="42.1124467" lon="-7.97769"><ele>895.0</ele><time>2026-04-04T17:47:58.824Z</time></trkpt><trkpt lat="42.1125433" lon="-7.9776533"><ele>895.0</ele><time>2026-04-04T17:47:59.824Z</time></trkpt><trkpt lat="42.1126417" lon="-7.9775983"><ele>895.0</ele><time>2026-04-04T17:48:00.824Z</time></trkpt><trkpt lat="42.1127383" lon="-7.97753"><ele>895.0</ele><time>2026-04-04T17:48:01.823Z</time></trkpt><trkpt lat="42.1128367" lon="-7.977465"><ele>894.4</ele><time>2026-04-04T17:48:02.826Z</time></trkpt><trkpt lat="42.11293" lon="-7.9774067"><ele>893.8</ele><time>2026-04-04T17:48:03.823Z</time></trkpt><trkpt lat="42.113025" lon="-7.9773467"><ele>893.2</ele><time>2026-04-04T17:48:04.823Z</time></trkpt><trkpt lat="42.11311" lon="-7.97728"><ele>892.6</ele><time>2026-04-04T17:48:05.824Z</time></trkpt><trkpt lat="42.1131883" lon="-7.9772183"><ele>892.0</ele><time>2026-04-04T17:48:06.824Z</time></trkpt><trkpt lat="42.1132567" lon="-7.9771683"><ele>891.9999999999999</ele><time>2026-04-04T17:48:07.823Z</time></trkpt><trkpt lat="42.1133367" lon="-7.9770917"><ele>892.0</ele><time>2026-04-04T17:48:09.823Z</time></trkpt><trkpt lat="42.1133883" lon="-7.9770383"><ele>892.0</ele><time>2026-04-04T17:48:11.823Z</time></trkpt><trkpt lat="42.113445" lon="-7.976995"><ele>892.0</ele><time>2026-04-04T17:48:14.823Z</time></trkpt><trkpt lat="42.1135217" lon="-7.9769833"><ele>891.9999999999999</ele><time>2026-04-04T17:52:13.824Z</time></trkpt><trkpt lat="42.1136533" lon="-7.9769833"><ele>892.0</ele><time>2026-04-04T17:52:15.823Z</time></trkpt><trkpt lat="42.1137417" lon="-7.9769817"><ele>892.0</ele><time>2026-04-04T17:52:16.826Z</time></trkpt><trkpt lat="42.1138333" lon="-7.9769717"><ele>892.0</ele><time>2026-04-04T17:52:17.825Z</time></trkpt><trkpt lat="42.1139283" lon="-7.9769583"><ele>892.0</ele><time>2026-04-04T17:52:18.823Z</time></trkpt><trkpt lat="42.1140367" lon="-7.97694"><ele>892.0</ele><time>2026-04-04T17:52:19.824Z</time></trkpt><trkpt lat="42.1141533" lon="-7.9769217"><ele>892.0</ele><time>2026-04-04T17:52:20.824Z</time></trkpt><trkpt lat="42.11426" lon="-7.9769067"><ele>889.0</ele><time>2026-04-04T17:52:21.823Z</time></trkpt><trkpt lat="42.1143733" lon="-7.9768917"><ele>886.0</ele><time>2026-04-04T17:52:22.825Z</time></trkpt><trkpt lat="42.114495" lon="-7.9768733"><ele>883.0</ele><time>2026-04-04T17:52:23.826Z</time></trkpt><trkpt lat="42.114615" lon="-7.9768667"><ele>880.0</ele><time>2026-04-04T17:52:24.825Z</time></trkpt><trkpt lat="42.1147433" lon="-7.9768533"><ele>880.0</ele><time>2026-04-04T17:52:25.824Z</time></trkpt><trkpt lat="42.1148717" lon="-7.9768483"><ele>880.0</ele><time>2026-04-04T17:52:26.824Z</time></trkpt><trkpt lat="42.1150033" lon="-7.9768517"><ele>880.0</ele><time>2026-04-04T17:52:27.824Z</time></trkpt><trkpt lat="42.1151217" lon="-7.9768583"><ele>880.0</ele><time>2026-04-04T17:52:28.823Z</time></trkpt><trkpt lat="42.1152267" lon="-7.9768683"><ele>878.4</ele><time>2026-04-04T17:52:29.824Z</time></trkpt><trkpt lat="42.115325" lon="-7.9768783"><ele>876.8</ele><time>2026-04-04T17:52:30.823Z</time></trkpt><trkpt lat="42.1154283" lon="-7.97687"><ele>875.2</ele><time>2026-04-04T17:52:31.824Z</time></trkpt><trkpt lat="42.115535" lon="-7.9768583"><ele>873.6</ele><time>2026-04-04T17:52:32.824Z</time></trkpt><trkpt lat="42.1156533" lon="-7.9768517"><ele>872.0</ele><time>2026-04-04T17:52:33.824Z</time></trkpt><trkpt lat="42.115785" lon="-7.976845"><ele>871.0</ele><time>2026-04-04T17:52:34.824Z</time></trkpt><trkpt lat="42.1159283" lon="-7.97684"><ele>870.0</ele><time>2026-04-04T17:52:35.824Z</time></trkpt><trkpt lat="42.1160783" lon="-7.9768333"><ele>869.0</ele><time>2026-04-04T17:52:36.824Z</time></trkpt><trkpt lat="42.1162333" lon="-7.9768317"><ele>868.0</ele><time>2026-04-04T17:52:37.824Z</time></trkpt><trkpt lat="42.1163833" lon="-7.9768267"><ele>868.0</ele><time>2026-04-04T17:52:38.824Z</time></trkpt><trkpt lat="42.1165217" lon="-7.976825"><ele>868.0</ele><time>2026-04-04T17:52:39.824Z</time></trkpt><trkpt lat="42.116635" lon="-7.9768233"><ele>868.0</ele><time>2026-04-04T17:52:40.823Z</time></trkpt><trkpt lat="42.1167383" lon="-7.9768233"><ele>868.0</ele><time>2026-04-04T17:52:41.824Z</time></trkpt><trkpt lat="42.1168433" lon="-7.9768217"><ele>866.75</ele><time>2026-04-04T17:52:42.824Z</time></trkpt><trkpt lat="42.116965" lon="-7.9768167"><ele>865.5</ele><time>2026-04-04T17:52:43.824Z</time></trkpt><trkpt lat="42.117095" lon="-7.9768"><ele>864.25</ele><time>2026-04-04T17:52:44.824Z</time></trkpt><trkpt lat="42.1172333" lon="-7.9767867"><ele>863.0</ele><time>2026-04-04T17:52:45.824Z</time></trkpt><trkpt lat="42.1173733" lon="-7.9767783"><ele>862.6666666666667</ele><time>2026-04-04T17:52:46.824Z</time></trkpt><trkpt lat="42.1175183" lon="-7.9767667"><ele>862.3333333333333</ele><time>2026-04-04T17:52:47.823Z</time></trkpt><trkpt lat="42.1176717" lon="-7.97676"><ele>862.0</ele><time>2026-04-04T17:52:48.824Z</time></trkpt><trkpt lat="42.1178367" lon="-7.97677"><ele>862.0</ele><time>2026-04-04T17:52:49.825Z</time></trkpt><trkpt lat="42.118005" lon="-7.97678"><ele>862.0</ele><time>2026-04-04T17:52:50.822Z</time></trkpt><trkpt lat="42.1181633" lon="-7.976785"><ele>862.0</ele><time>2026-04-04T17:52:51.823Z</time></trkpt><trkpt lat="42.11832" lon="-7.9767767"><ele>861.0</ele><time>2026-04-04T17:52:52.822Z</time></trkpt><trkpt lat="42.11848" lon="-7.9767683"><ele>860.0</ele><time>2026-04-04T17:52:53.822Z</time></trkpt><trkpt lat="42.1186533" lon="-7.976755"><ele>859.0</ele><time>2026-04-04T17:52:54.823Z</time></trkpt><trkpt lat="42.1188483" lon="-7.9767433"><ele>859.0</ele><time>2026-04-04T17:52:55.823Z</time></trkpt><trkpt lat="42.1190383" lon="-7.9767317"><ele>859.0</ele><time>2026-04-04T17:52:56.824Z</time></trkpt><trkpt lat="42.1192183" lon="-7.976715"><ele>859.0</ele><time>2026-04-04T17:52:57.823Z</time></trkpt><trkpt lat="42.119385" lon="-7.976705"><ele>857.3333333333333</ele><time>2026-04-04T17:52:58.825Z</time></trkpt><trkpt lat="42.1195667" lon="-7.9766917"><ele>855.6666666666667</ele><time>2026-04-04T17:52:59.823Z</time></trkpt><trkpt lat="42.1197567" lon="-7.97668"><ele>854.0</ele><time>2026-04-04T17:53:00.825Z</time></trkpt><trkpt lat="42.1199383" lon="-7.9766667"><ele>852.25</ele><time>2026-04-04T17:53:01.824Z</time></trkpt><trkpt lat="42.1201" lon="-7.9766583"><ele>850.5</ele><time>2026-04-04T17:53:02.824Z</time></trkpt><trkpt lat="42.1202217" lon="-7.9766533"><ele>848.75</ele><time>2026-04-04T17:53:03.822Z</time></trkpt><trkpt lat="42.1203167" lon="-7.9766567"><ele>847.0</ele><time>2026-04-04T17:53:04.823Z</time></trkpt><trkpt lat="42.1203917" lon="-7.9766767"><ele>846.9999999999999</ele><time>2026-04-04T17:53:05.823Z</time></trkpt><trkpt lat="42.1204617" lon="-7.9767167"><ele>847.0</ele><time>2026-04-04T17:53:06.823Z</time></trkpt><trkpt lat="42.1205367" lon="-7.9767767"><ele>847.0</ele><time>2026-04-04T17:53:07.824Z</time></trkpt><trkpt lat="42.1206117" lon="-7.9768317"><ele>847.0</ele><time>2026-04-04T17:53:08.824Z</time></trkpt><trkpt lat="42.1206783" lon="-7.9768783"><ele>846.9999999999999</ele><time>2026-04-04T17:53:09.823Z</time></trkpt><trkpt lat="42.1207767" lon="-7.9769417"><ele>847.0</ele><time>2026-04-04T17:53:11.823Z</time></trkpt><trkpt lat="42.1208367" lon="-7.9770183"><ele>846.9999999999999</ele><time>2026-04-04T17:53:13.825Z</time></trkpt><trkpt lat="42.1208917" lon="-7.9770983"><ele>847.0</ele><time>2026-04-04T17:53:15.823Z</time></trkpt><trkpt lat="42.12098" lon="-7.9771283"><ele>847.0</ele><time>2026-04-04T17:53:17.824Z</time></trkpt><trkpt lat="42.1210767" lon="-7.97714"><ele>847.0</ele><time>2026-04-04T17:53:19.824Z</time></trkpt><trkpt lat="42.1211367" lon="-7.9771"><ele>846.9999999999999</ele><time>2026-04-04T17:53:21.823Z</time></trkpt><trkpt lat="42.1211883" lon="-7.977015"><ele>847.0</ele><time>2026-04-04T17:53:25.824Z</time></trkpt><trkpt lat="42.1212233" lon="-7.9769383"><ele>847.0</ele><time>2026-04-04T17:53:27.824Z</time></trkpt><trkpt lat="42.1213" lon="-7.9768167"><ele>847.0</ele><time>2026-04-04T17:53:29.825Z</time></trkpt><trkpt lat="42.1213483" lon="-7.9767517"><ele>847.0</ele><time>2026-04-04T17:53:30.823Z</time></trkpt><trkpt lat="42.1213967" lon="-7.9766917"><ele>847.0</ele><time>2026-04-04T17:53:31.822Z</time></trkpt><trkpt lat="42.1215083" lon="-7.97662"><ele>847.0</ele><time>2026-04-04T17:53:33.822Z</time></trkpt><trkpt lat="42.121585" lon="-7.9766033"><ele>845.2</ele><time>2026-04-04T17:53:34.823Z</time></trkpt><trkpt lat="42.1216783" lon="-7.976605"><ele>843.4000000000001</ele><time>2026-04-04T17:53:35.824Z</time></trkpt><trkpt lat="42.1217817" lon="-7.976605"><ele>841.5999999999999</ele><time>2026-04-04T17:53:36.823Z</time></trkpt><trkpt lat="42.1218767" lon="-7.9765917"><ele>839.8</ele><time>2026-04-04T17:53:37.822Z</time></trkpt><trkpt lat="42.1219667" lon="-7.9765733"><ele>838.0</ele><time>2026-04-04T17:53:38.824Z</time></trkpt><trkpt lat="42.1220567" lon="-7.9765617"><ele>838.0</ele><time>2026-04-04T17:53:39.825Z</time></trkpt><trkpt lat="42.1221533" lon="-7.97655"><ele>838.0</ele><time>2026-04-04T17:53:40.823Z</time></trkpt><trkpt lat="42.1222733" lon="-7.9765333"><ele>838.0</ele><time>2026-04-04T17:53:41.824Z</time></trkpt><trkpt lat="42.1223933" lon="-7.9765217"><ele>838.0</ele><time>2026-04-04T17:53:42.823Z</time></trkpt><trkpt lat="42.12253" lon="-7.97651"><ele>836.5</ele><time>2026-04-04T17:53:43.823Z</time></trkpt><trkpt lat="42.1226617" lon="-7.97649"><ele>835.0</ele><time>2026-04-04T17:53:44.824Z</time></trkpt><trkpt lat="42.1227867" lon="-7.9764683"><ele>833.5</ele><time>2026-04-04T17:53:45.823Z</time></trkpt><trkpt lat="42.1228933" lon="-7.9764483"><ele>832.0</ele><time>2026-04-04T17:53:46.822Z</time></trkpt><trkpt lat="42.12298" lon="-7.976425"><ele>831.9999999999999</ele><time>2026-04-04T17:53:47.823Z</time></trkpt><trkpt lat="42.1230533" lon="-7.9763983"><ele>832.0</ele><time>2026-04-04T17:53:48.824Z</time></trkpt><trkpt lat="42.1231633" lon="-7.97633"><ele>832.0</ele><time>2026-04-04T17:53:50.823Z</time></trkpt><trkpt lat="42.12322" lon="-7.9762833"><ele>832.0</ele><time>2026-04-04T17:53:51.823Z</time></trkpt><trkpt lat="42.1232733" lon="-7.97622"><ele>831.9999999999999</ele><time>2026-04-04T17:53:52.824Z</time></trkpt><trkpt lat="42.1233217" lon="-7.9761533"><ele>832.0</ele><time>2026-04-04T17:53:53.823Z</time></trkpt><trkpt lat="42.1233867" lon="-7.9760583"><ele>832.25</ele><time>2026-04-04T17:53:54.824Z</time></trkpt><trkpt lat="42.1234567" lon="-7.9759317"><ele>832.5</ele><time>2026-04-04T17:53:55.822Z</time></trkpt><trkpt lat="42.1235483" lon="-7.975745"><ele>832.75</ele><time>2026-04-04T17:53:56.824Z</time></trkpt><trkpt lat="42.1236383" lon="-7.9755583"><ele>833.0</ele><time>2026-04-04T17:53:57.825Z</time></trkpt><trkpt lat="42.1237133" lon="-7.9753933"><ele>833.0</ele><time>2026-04-04T17:53:58.822Z</time></trkpt><trkpt lat="42.12378" lon="-7.9752483"><ele>833.0</ele><time>2026-04-04T17:53:59.823Z</time></trkpt><trkpt lat="42.123845" lon="-7.97511"><ele>833.0</ele><time>2026-04-04T17:54:00.823Z</time></trkpt><trkpt lat="42.1239117" lon="-7.9749867"><ele>833.0</ele><time>2026-04-04T17:54:01.824Z</time></trkpt><trkpt lat="42.12398" lon="-7.9748683"><ele>833.5</ele><time>2026-04-04T17:54:02.823Z</time></trkpt><trkpt lat="42.124065" lon="-7.9747367"><ele>834.0</ele><time>2026-04-04T17:54:03.822Z</time></trkpt><trkpt lat="42.12415" lon="-7.9745967"><ele>834.5</ele><time>2026-04-04T17:54:04.823Z</time></trkpt><trkpt lat="42.1242433" lon="-7.974445"><ele>835.0</ele><time>2026-04-04T17:54:05.823Z</time></trkpt><trkpt lat="42.124365" lon="-7.9742717"><ele>834.6666666666666</ele><time>2026-04-04T17:54:06.824Z</time></trkpt><trkpt lat="42.124495" lon="-7.9740867"><ele>834.3333333333333</ele><time>2026-04-04T17:54:07.824Z</time></trkpt><trkpt lat="42.1246383" lon="-7.9738933"><ele>834.0</ele><time>2026-04-04T17:54:08.823Z</time></trkpt><trkpt lat="42.12477" lon="-7.97371"><ele>834.0</ele><time>2026-04-04T17:54:09.824Z</time></trkpt><trkpt lat="42.1248967" lon="-7.9735367"><ele>834.0</ele><time>2026-04-04T17:54:10.823Z</time></trkpt><trkpt lat="42.12502" lon="-7.9733667"><ele>834.0</ele><time>2026-04-04T17:54:11.823Z</time></trkpt><trkpt lat="42.12514" lon="-7.9732083"><ele>834.0</ele><time>2026-04-04T17:54:12.824Z</time></trkpt><trkpt lat="42.125255" lon="-7.9730583"><ele>834.0</ele><time>2026-04-04T17:54:13.824Z</time></trkpt><trkpt lat="42.1253683" lon="-7.9729133"><ele>834.0</ele><time>2026-04-04T17:54:14.824Z</time></trkpt><trkpt lat="42.1254767" lon="-7.9727667"><ele>834.0</ele><time>2026-04-04T17:54:15.823Z</time></trkpt><trkpt lat="42.1255867" lon="-7.9726267"><ele>834.0</ele><time>2026-04-04T17:54:16.823Z</time></trkpt><trkpt lat="42.1256967" lon="-7.9724917"><ele>834.0</ele><time>2026-04-04T17:54:17.823Z</time></trkpt><trkpt lat="42.1258083" lon="-7.9723517"><ele>835.0</ele><time>2026-04-04T17:54:18.823Z</time></trkpt><trkpt lat="42.1259233" lon="-7.9722017"><ele>836.0</ele><time>2026-04-04T17:54:19.823Z</time></trkpt><trkpt lat="42.1260383" lon="-7.97204"><ele>837.0</ele><time>2026-04-04T17:54:20.824Z</time></trkpt><trkpt lat="42.126155" lon="-7.971875"><ele>837.0</ele><time>2026-04-04T17:54:21.823Z</time></trkpt><trkpt lat="42.126265" lon="-7.971715"><ele>837.0</ele><time>2026-04-04T17:54:22.824Z</time></trkpt><trkpt lat="42.1263683" lon="-7.9715583"><ele>837.0</ele><time>2026-04-04T17:54:23.824Z</time></trkpt><trkpt lat="42.1264633" lon="-7.9714233"><ele>837.25</ele><time>2026-04-04T17:54:24.824Z</time></trkpt><trkpt lat="42.1265467" lon="-7.9712983"><ele>837.5</ele><time>2026-04-04T17:54:25.824Z</time></trkpt><trkpt lat="42.1266117" lon="-7.9711733"><ele>837.75</ele><time>2026-04-04T17:54:26.824Z</time></trkpt><trkpt lat="42.1266617" lon="-7.9710367"><ele>838.0</ele><time>2026-04-04T17:54:27.823Z</time></trkpt><trkpt lat="42.126705" lon="-7.9708733"><ele>837.75</ele><time>2026-04-04T17:54:28.825Z</time></trkpt><trkpt lat="42.1267417" lon="-7.9706983"><ele>837.5</ele><time>2026-04-04T17:54:29.824Z</time></trkpt><trkpt lat="42.1267683" lon="-7.9705383"><ele>837.25</ele><time>2026-04-04T17:54:30.824Z</time></trkpt><trkpt lat="42.1267867" lon="-7.9703917"><ele>837.0</ele><time>2026-04-04T17:54:31.824Z</time></trkpt><trkpt lat="42.126805" lon="-7.9702717"><ele>837.0</ele><time>2026-04-04T17:54:32.824Z</time></trkpt><trkpt lat="42.1268217" lon="-7.97016"><ele>837.0</ele><time>2026-04-04T17:54:33.823Z</time></trkpt><trkpt lat="42.1268433" lon="-7.9700733"><ele>837.0</ele><time>2026-04-04T17:54:34.824Z</time></trkpt><trkpt lat="42.1268917" lon="-7.969995"><ele>837.0</ele><time>2026-04-04T17:54:36.824Z</time></trkpt><trkpt lat="42.1270067" lon="-7.9700017"><ele>837.0</ele><time>2026-04-04T17:54:38.824Z</time></trkpt><trkpt lat="42.1270967" lon="-7.9700267"><ele>837.0</ele><time>2026-04-04T17:54:39.825Z</time></trkpt><trkpt lat="42.1272183" lon="-7.9700633"><ele>837.0</ele><time>2026-04-04T17:54:40.824Z</time></trkpt><trkpt lat="42.1273267" lon="-7.97007"><ele>837.0</ele><time>2026-04-04T17:54:41.823Z</time></trkpt><trkpt lat="42.1274367" lon="-7.9700467"><ele>837.0</ele><time>2026-04-04T17:54:42.824Z</time></trkpt><trkpt lat="42.1275633" lon="-7.9700133"><ele>837.0</ele><time>2026-04-04T17:54:43.825Z</time></trkpt><trkpt lat="42.12769" lon="-7.96998"><ele>838.75</ele><time>2026-04-04T17:54:44.824Z</time></trkpt><trkpt lat="42.1278067" lon="-7.969935"><ele>840.5</ele><time>2026-04-04T17:54:45.823Z</time></trkpt><trkpt lat="42.12791" lon="-7.9698667"><ele>842.25</ele><time>2026-04-04T17:54:46.824Z</time></trkpt><trkpt lat="42.1280083" lon="-7.96978"><ele>844.0</ele><time>2026-04-04T17:54:47.823Z</time></trkpt><trkpt lat="42.1281133" lon="-7.96969"><ele>844.5</ele><time>2026-04-04T17:54:48.824Z</time></trkpt><trkpt lat="42.12823" lon="-7.9696017"><ele>845.0</ele><time>2026-04-04T17:54:49.824Z</time></trkpt><trkpt lat="42.1283567" lon="-7.9695383"><ele>845.5</ele><time>2026-04-04T17:54:50.824Z</time></trkpt><trkpt lat="42.1284917" lon="-7.969485"><ele>846.0</ele><time>2026-04-04T17:54:51.824Z</time></trkpt><trkpt lat="42.1286233" lon="-7.96944"><ele>846.0</ele><time>2026-04-04T17:54:52.823Z</time></trkpt><trkpt lat="42.128755" lon="-7.9693917"><ele>846.0</ele><time>2026-04-04T17:54:53.823Z</time></trkpt><trkpt lat="42.12889" lon="-7.9693267"><ele>846.0</ele><time>2026-04-04T17:54:54.824Z</time></trkpt><trkpt lat="42.129025" lon="-7.9692633"><ele>846.0</ele><time>2026-04-04T17:54:55.825Z</time></trkpt><trkpt lat="42.1291517" lon="-7.9692017"><ele>842.1999999999999</ele><time>2026-04-04T17:54:56.825Z</time></trkpt><trkpt lat="42.1292617" lon="-7.969155"><ele>838.4</ele><time>2026-04-04T17:54:57.826Z</time></trkpt><trkpt lat="42.1293633" lon="-7.9691217"><ele>834.6</ele><time>2026-04-04T17:54:58.823Z</time></trkpt><trkpt lat="42.1294667" lon="-7.9690867"><ele>830.8</ele><time>2026-04-04T17:54:59.823Z</time></trkpt><trkpt lat="42.129575" lon="-7.9690583"><ele>827.0</ele><time>2026-04-04T17:55:00.825Z</time></trkpt><trkpt lat="42.129685" lon="-7.96902"><ele>827.0</ele><time>2026-04-04T17:55:01.824Z</time></trkpt><trkpt lat="42.129805" lon="-7.9689733"><ele>827.0</ele><time>2026-04-04T17:55:02.824Z</time></trkpt><trkpt lat="42.129935" lon="-7.9689233"><ele>827.0</ele><time>2026-04-04T17:55:03.824Z</time></trkpt><trkpt lat="42.1300533" lon="-7.9688717"><ele>827.0</ele><time>2026-04-04T17:55:04.824Z</time></trkpt><trkpt lat="42.130155" lon="-7.9688267"><ele>824.4000000000001</ele><time>2026-04-04T17:55:05.824Z</time></trkpt><trkpt lat="42.130235" lon="-7.9687817"><ele>821.8000000000001</ele><time>2026-04-04T17:55:06.825Z</time></trkpt><trkpt lat="42.1303" lon="-7.9687483"><ele>819.2</ele><time>2026-04-04T17:55:07.824Z</time></trkpt><trkpt lat="42.13039" lon="-7.9686633"><ele>816.6</ele><time>2026-04-04T17:55:09.823Z</time></trkpt><trkpt lat="42.130455" lon="-7.96852"><ele>814.0</ele><time>2026-04-04T17:55:11.825Z</time></trkpt><trkpt lat="42.1304533" lon="-7.9683667"><ele>812.25</ele><time>2026-04-04T17:55:13.824Z</time></trkpt><trkpt lat="42.1304117" lon="-7.9682733"><ele>810.5</ele><time>2026-04-04T17:55:14.826Z</time></trkpt><trkpt lat="42.1303733" lon="-7.96815"><ele>808.75</ele><time>2026-04-04T17:55:15.824Z</time></trkpt><trkpt lat="42.130345" lon="-7.9679767"><ele>807.0</ele><time>2026-04-04T17:55:16.825Z</time></trkpt><trkpt lat="42.13032" lon="-7.9677933"><ele>807.0</ele><time>2026-04-04T17:55:17.824Z</time></trkpt><trkpt lat="42.1302967" lon="-7.9676383"><ele>807.0</ele><time>2026-04-04T17:55:18.824Z</time></trkpt><trkpt lat="42.130275" lon="-7.967485"><ele>807.0</ele><time>2026-04-04T17:55:19.824Z</time></trkpt><trkpt lat="42.1302417" lon="-7.9673283"><ele>807.0</ele><time>2026-04-04T17:55:20.825Z</time></trkpt><trkpt lat="42.1302067" lon="-7.9671683"><ele>806.5</ele><time>2026-04-04T17:55:21.823Z</time></trkpt><trkpt lat="42.13017" lon="-7.9670067"><ele>806.0</ele><time>2026-04-04T17:55:22.824Z</time></trkpt><trkpt lat="42.1301333" lon="-7.966845"><ele>805.5</ele><time>2026-04-04T17:55:23.824Z</time></trkpt><trkpt lat="42.1301" lon="-7.9666833"><ele>805.0</ele><time>2026-04-04T17:55:24.825Z</time></trkpt><trkpt lat="42.1300733" lon="-7.9665333"><ele>803.9999999999999</ele><time>2026-04-04T17:55:25.824Z</time></trkpt><trkpt lat="42.130045" lon="-7.9664033"><ele>803.0</ele><time>2026-04-04T17:55:26.825Z</time></trkpt><trkpt lat="42.1300267" lon="-7.9662867"><ele>802.0</ele><time>2026-04-04T17:55:27.825Z</time></trkpt><trkpt lat="42.1300217" lon="-7.96618"><ele>801.0</ele><time>2026-04-04T17:55:28.823Z</time></trkpt><trkpt lat="42.13003" lon="-7.9660767"><ele>799.9999999999999</ele><time>2026-04-04T17:55:29.824Z</time></trkpt><trkpt lat="42.1300433" lon="-7.9659667"><ele>799.0</ele><time>2026-04-04T17:55:30.826Z</time></trkpt><trkpt lat="42.1300467" lon="-7.9658583"><ele>798.75</ele><time>2026-04-04T17:55:31.824Z</time></trkpt><trkpt lat="42.130035" lon="-7.9657367"><ele>798.5</ele><time>2026-04-04T17:55:32.824Z</time></trkpt><trkpt lat="42.13002" lon="-7.9656033"><ele>798.25</ele><time>2026-04-04T17:55:33.824Z</time></trkpt><trkpt lat="42.1299983" lon="-7.9654267"><ele>798.0</ele><time>2026-04-04T17:55:34.825Z</time></trkpt><trkpt lat="42.1299833" lon="-7.965245"><ele>798.0</ele><time>2026-04-04T17:55:35.824Z</time></trkpt><trkpt lat="42.1299717" lon="-7.965065"><ele>798.0</ele><time>2026-04-04T17:55:36.824Z</time></trkpt><trkpt lat="42.12996" lon="-7.9648917"><ele>798.0</ele><time>2026-04-04T17:55:37.824Z</time></trkpt><trkpt lat="42.12993" lon="-7.9647667"><ele>798.0</ele><time>2026-04-04T17:55:38.824Z</time></trkpt><trkpt lat="42.1299183" lon="-7.96467"><ele>798.0</ele><time>2026-04-04T17:55:39.823Z</time></trkpt><trkpt lat="42.1299033" lon="-7.9645717"><ele>797.7142857142857</ele><time>2026-04-04T17:55:40.824Z</time></trkpt><trkpt lat="42.1298883" lon="-7.9644633"><ele>797.4285714285714</ele><time>2026-04-04T17:55:41.825Z</time></trkpt><trkpt lat="42.1298667" lon="-7.9643667"><ele>797.1428571428571</ele><time>2026-04-04T17:55:42.824Z</time></trkpt><trkpt lat="42.1298417" lon="-7.964285"><ele>796.8571428571429</ele><time>2026-04-04T17:55:43.823Z</time></trkpt><trkpt lat="42.1297883" lon="-7.96422"><ele>796.5714285714286</ele><time>2026-04-04T17:55:58.824Z</time></trkpt><trkpt lat="42.1297317" lon="-7.96417"><ele>796.2857142857142</ele><time>2026-04-04T17:56:00.824Z</time></trkpt><trkpt lat="42.12969" lon="-7.964095"><ele>796.0</ele><time>2026-04-04T17:56:02.824Z</time></trkpt><trkpt lat="42.1296617" lon="-7.96396"><ele>796.0</ele><time>2026-04-04T17:56:04.824Z</time></trkpt><trkpt lat="42.1296367" lon="-7.963805"><ele>796.0</ele><time>2026-04-04T17:56:06.825Z</time></trkpt><trkpt lat="42.12961" lon="-7.963645"><ele>796.0</ele><time>2026-04-04T17:56:08.825Z</time></trkpt><trkpt lat="42.1295783" lon="-7.9634733"><ele>796.0</ele><time>2026-04-04T17:56:10.823Z</time></trkpt><trkpt lat="42.12956" lon="-7.9633883"><ele>796.0</ele><time>2026-04-04T17:56:11.824Z</time></trkpt><trkpt lat="42.1295533" lon="-7.9632883"><ele>794.6666666666666</ele><time>2026-04-04T17:56:12.824Z</time></trkpt><trkpt lat="42.129545" lon="-7.9631867"><ele>793.3333333333333</ele><time>2026-04-04T17:56:13.824Z</time></trkpt><trkpt lat="42.1295467" lon="-7.9630767"><ele>792.0</ele><time>2026-04-04T17:56:14.824Z</time></trkpt><trkpt lat="42.1295517" lon="-7.9629717"><ele>790.6666666666667</ele><time>2026-04-04T17:56:15.823Z</time></trkpt><trkpt lat="42.1295533" lon="-7.9628867"><ele>789.3333333333334</ele><time>2026-04-04T17:56:16.826Z</time></trkpt><trkpt lat="42.1295267" lon="-7.9627417"><ele>788.0</ele><time>2026-04-04T17:56:18.824Z</time></trkpt><trkpt lat="42.1294883" lon="-7.96267"><ele>788.0000000000001</ele><time>2026-04-04T17:56:19.823Z</time></trkpt><trkpt lat="42.1294533" lon="-7.962595"><ele>788.0</ele><time>2026-04-04T17:56:20.824Z</time></trkpt><trkpt lat="42.1294067" lon="-7.9624567"><ele>788.0</ele><time>2026-04-04T17:56:22.825Z</time></trkpt><trkpt lat="42.1293833" lon="-7.9623733"><ele>788.0</ele><time>2026-04-04T17:56:24.826Z</time></trkpt><trkpt lat="42.1294367" lon="-7.962325"><ele>788.0000000000001</ele><time>2026-04-04T17:56:27.827Z</time></trkpt><trkpt lat="42.1295367" lon="-7.9623017"><ele>788.0</ele><time>2026-04-04T17:56:30.824Z</time></trkpt><trkpt lat="42.1296567" lon="-7.9622817"><ele>787.3333333333334</ele><time>2026-04-04T17:56:32.824Z</time></trkpt><trkpt lat="42.1297367" lon="-7.9622633"><ele>786.6666666666667</ele><time>2026-04-04T17:56:33.824Z</time></trkpt><trkpt lat="42.12982" lon="-7.9622383"><ele>786.0</ele><time>2026-04-04T17:56:34.824Z</time></trkpt><trkpt lat="42.1299067" lon="-7.9622117"><ele>785.3333333333333</ele><time>2026-04-04T17:56:35.825Z</time></trkpt><trkpt lat="42.1299917" lon="-7.96219"><ele>784.6666666666666</ele><time>2026-04-04T17:56:36.824Z</time></trkpt><trkpt lat="42.1300833" lon="-7.962165"><ele>784.0</ele><time>2026-04-04T17:56:37.824Z</time></trkpt><trkpt lat="42.130175" lon="-7.9621417"><ele>783.0</ele><time>2026-04-04T17:56:38.826Z</time></trkpt><trkpt lat="42.1302767" lon="-7.96212"><ele>782.0</ele><time>2026-04-04T17:56:39.824Z</time></trkpt><trkpt lat="42.1303767" lon="-7.9620933"><ele>781.0</ele><time>2026-04-04T17:56:40.824Z</time></trkpt><trkpt lat="42.130475" lon="-7.9620683"><ele>780.0</ele><time>2026-04-04T17:56:41.824Z</time></trkpt><trkpt lat="42.130575" lon="-7.9620533"><ele>779.0</ele><time>2026-04-04T17:56:42.825Z</time></trkpt><trkpt lat="42.1306717" lon="-7.962055"><ele>777.0000000000001</ele><time>2026-04-04T17:56:43.825Z</time></trkpt><trkpt lat="42.130755" lon="-7.9620633"><ele>775.0</ele><time>2026-04-04T17:56:44.825Z</time></trkpt><trkpt lat="42.130825" lon="-7.962085"><ele>773.0</ele><time>2026-04-04T17:56:45.823Z</time></trkpt><trkpt lat="42.13089" lon="-7.9621183"><ele>771.0</ele><time>2026-04-04T17:56:46.823Z</time></trkpt><trkpt lat="42.1309533" lon="-7.9621617"><ele>769.0</ele><time>2026-04-04T17:56:47.825Z</time></trkpt><trkpt lat="42.13104" lon="-7.9622117"><ele>767.0</ele><time>2026-04-04T17:56:48.826Z</time></trkpt><trkpt lat="42.1311333" lon="-7.9622533"><ele>767.0</ele><time>2026-04-04T17:56:49.825Z</time></trkpt><trkpt lat="42.1312267" lon="-7.962285"><ele>767.0</ele><time>2026-04-04T17:56:50.825Z</time></trkpt><trkpt lat="42.1313083" lon="-7.9623183"><ele>767.0</ele><time>2026-04-04T17:56:51.823Z</time></trkpt><trkpt lat="42.1313833" lon="-7.962345"><ele>767.0</ele><time>2026-04-04T17:56:52.824Z</time></trkpt><trkpt lat="42.1314517" lon="-7.9623767"><ele>767.0</ele><time>2026-04-04T17:56:53.823Z</time></trkpt><trkpt lat="42.13152" lon="-7.962395"><ele>767.0</ele><time>2026-04-04T17:56:54.824Z</time></trkpt><trkpt lat="42.1315883" lon="-7.9624117"><ele>766.0</ele><time>2026-04-04T17:56:55.827Z</time></trkpt><trkpt lat="42.1316633" lon="-7.9624333"><ele>765.0</ele><time>2026-04-04T17:56:56.825Z</time></trkpt><trkpt lat="42.1317433" lon="-7.96245"><ele>764.0</ele><time>2026-04-04T17:56:57.823Z</time></trkpt><trkpt lat="42.1318167" lon="-7.962475"><ele>763.0</ele><time>2026-04-04T17:56:58.824Z</time></trkpt><trkpt lat="42.13189" lon="-7.9624967"><ele>762.0</ele><time>2026-04-04T17:56:59.827Z</time></trkpt><trkpt lat="42.13197" lon="-7.9625233"><ele>761.0</ele><time>2026-04-04T17:57:00.824Z</time></trkpt><trkpt lat="42.13205" lon="-7.9625533"><ele>760.8</ele><time>2026-04-04T17:57:01.825Z</time></trkpt><trkpt lat="42.1321383" lon="-7.9625783"><ele>760.5999999999999</ele><time>2026-04-04T17:57:02.826Z</time></trkpt><trkpt lat="42.1322433" lon="-7.9625933"><ele>760.4</ele><time>2026-04-04T17:57:03.825Z</time></trkpt><trkpt lat="42.1323517" lon="-7.96261"><ele>760.2</ele><time>2026-04-04T17:57:04.824Z</time></trkpt><trkpt lat="42.1324517" lon="-7.962615"><ele>760.0</ele><time>2026-04-04T17:57:05.824Z</time></trkpt><trkpt lat="42.13255" lon="-7.9626167"><ele>758.6666666666667</ele><time>2026-04-04T17:57:06.824Z</time></trkpt><trkpt lat="42.1326483" lon="-7.9626133"><ele>757.3333333333334</ele><time>2026-04-04T17:57:07.824Z</time></trkpt><trkpt lat="42.1327433" lon="-7.9626067"><ele>756.0</ele><time>2026-04-04T17:57:08.824Z</time></trkpt><trkpt lat="42.1328283" lon="-7.96259"><ele>754.6666666666666</ele><time>2026-04-04T17:57:09.824Z</time></trkpt><trkpt lat="42.1329033" lon="-7.96257"><ele>753.3333333333333</ele><time>2026-04-04T17:57:10.824Z</time></trkpt><trkpt lat="42.1329833" lon="-7.9625333"><ele>752.0</ele><time>2026-04-04T17:57:11.824Z</time></trkpt><trkpt lat="42.133045" lon="-7.9624717"><ele>752.0</ele><time>2026-04-04T17:57:12.825Z</time></trkpt><trkpt lat="42.1331083" lon="-7.9624083"><ele>752.0</ele><time>2026-04-04T17:57:13.825Z</time></trkpt><trkpt lat="42.1331867" lon="-7.9623517"><ele>752.0</ele><time>2026-04-04T17:57:14.825Z</time></trkpt><trkpt lat="42.1332683" lon="-7.9623"><ele>752.0</ele><time>2026-04-04T17:57:15.825Z</time></trkpt><trkpt lat="42.1333567" lon="-7.9622683"><ele>752.0</ele><time>2026-04-04T17:57:16.824Z</time></trkpt><trkpt lat="42.13344" lon="-7.9622517"><ele>752.0</ele><time>2026-04-04T17:57:17.824Z</time></trkpt><trkpt lat="42.1335267" lon="-7.9622417"><ele>750.0</ele><time>2026-04-04T17:57:18.824Z</time></trkpt><trkpt lat="42.1336083" lon="-7.9622267"><ele>748.0</ele><time>2026-04-04T17:57:19.826Z</time></trkpt><trkpt lat="42.1336883" lon="-7.9622033"><ele>746.0</ele><time>2026-04-04T17:57:20.824Z</time></trkpt><trkpt lat="42.133765" lon="-7.96218"><ele>744.0</ele><time>2026-04-04T17:57:21.825Z</time></trkpt><trkpt lat="42.133835" lon="-7.9621633"><ele>742.0</ele><time>2026-04-04T17:57:22.824Z</time></trkpt><trkpt lat="42.1339067" lon="-7.962135"><ele>740.0</ele><time>2026-04-04T17:57:23.824Z</time></trkpt><trkpt lat="42.13397" lon="-7.9620967"><ele>740.0</ele><time>2026-04-04T17:57:24.826Z</time></trkpt><trkpt lat="42.13403" lon="-7.9620467"><ele>740.0</ele><time>2026-04-04T17:57:25.824Z</time></trkpt><trkpt lat="42.1340833" lon="-7.9619683"><ele>740.0</ele><time>2026-04-04T17:57:26.825Z</time></trkpt><trkpt lat="42.13415" lon="-7.9618733"><ele>740.0</ele><time>2026-04-04T17:57:27.824Z</time></trkpt><trkpt lat="42.1342367" lon="-7.9617567"><ele>740.0</ele><time>2026-04-04T17:57:28.824Z</time></trkpt><trkpt lat="42.1343117" lon="-7.9616683"><ele>739.0</ele><time>2026-04-04T17:57:29.824Z</time></trkpt><trkpt lat="42.1343817" lon="-7.96159"><ele>738.0</ele><time>2026-04-04T17:57:30.826Z</time></trkpt><trkpt lat="42.1344383" lon="-7.9615133"><ele>737.0</ele><time>2026-04-04T17:57:31.824Z</time></trkpt><trkpt lat="42.1344883" lon="-7.96143"><ele>736.0</ele><time>2026-04-04T17:57:32.825Z</time></trkpt><trkpt lat="42.1345233" lon="-7.9613333"><ele>735.0</ele><time>2026-04-04T17:57:33.825Z</time></trkpt><trkpt lat="42.1345433" lon="-7.9612117"><ele>734.0</ele><time>2026-04-04T17:57:34.825Z</time></trkpt><trkpt lat="42.13457" lon="-7.96112"><ele>734.0</ele><time>2026-04-04T17:57:35.825Z</time></trkpt><trkpt lat="42.134625" lon="-7.9610117"><ele>734.0</ele><time>2026-04-04T17:57:37.824Z</time></trkpt><trkpt lat="42.1347283" lon="-7.9609917"><ele>734.0</ele><time>2026-04-04T17:57:39.824Z</time></trkpt><trkpt lat="42.1348017" lon="-7.961005"><ele>734.0</ele><time>2026-04-04T17:57:40.824Z</time></trkpt><trkpt lat="42.134905" lon="-7.9610517"><ele>734.0</ele><time>2026-04-04T17:57:41.824Z</time></trkpt><trkpt lat="42.1349917" lon="-7.961075"><ele>732.0</ele><time>2026-04-04T17:57:42.824Z</time></trkpt><trkpt lat="42.135075" lon="-7.9610767"><ele>730.0</ele><time>2026-04-04T17:57:43.824Z</time></trkpt><trkpt lat="42.1351467" lon="-7.9610617"><ele>728.0</ele><time>2026-04-04T17:57:44.825Z</time></trkpt><trkpt lat="42.135265" lon="-7.9610083"><ele>726.0</ele><time>2026-04-04T17:57:46.824Z</time></trkpt><trkpt lat="42.1353283" lon="-7.9609933"><ele>724.0</ele><time>2026-04-04T17:57:47.824Z</time></trkpt><trkpt lat="42.1354417" lon="-7.960985"><ele>724.0</ele><time>2026-04-04T17:57:49.824Z</time></trkpt><trkpt lat="42.13551" lon="-7.9609817"><ele>724.0</ele><time>2026-04-04T17:57:50.826Z</time></trkpt><trkpt lat="42.1355733" lon="-7.9609867"><ele>724.0</ele><time>2026-04-04T17:57:51.825Z</time></trkpt><trkpt lat="42.1356367" lon="-7.9610033"><ele>724.0</ele><time>2026-04-04T17:57:52.826Z</time></trkpt><trkpt lat="42.1357367" lon="-7.96107"><ele>724.0</ele><time>2026-04-04T17:57:54.825Z</time></trkpt><trkpt lat="42.135805" lon="-7.961195"><ele>724.0</ele><time>2026-04-04T17:57:56.825Z</time></trkpt><trkpt lat="42.1358433" lon="-7.9612933"><ele>722.0</ele><time>2026-04-04T17:57:57.824Z</time></trkpt><trkpt lat="42.1358933" lon="-7.9613967"><ele>720.0</ele><time>2026-04-04T17:57:58.824Z</time></trkpt><trkpt lat="42.1359533" lon="-7.9614983"><ele>718.0</ele><time>2026-04-04T17:57:59.823Z</time></trkpt><trkpt lat="42.136025" lon="-7.9616017"><ele>716.0</ele><time>2026-04-04T17:58:00.824Z</time></trkpt><trkpt lat="42.13611" lon="-7.9616867"><ele>714.0</ele><time>2026-04-04T17:58:01.824Z</time></trkpt><trkpt lat="42.1361817" lon="-7.9617783"><ele>714.0</ele><time>2026-04-04T17:58:02.825Z</time></trkpt><trkpt lat="42.13624" lon="-7.9618783"><ele>714.0</ele><time>2026-04-04T17:58:03.824Z</time></trkpt><trkpt lat="42.1363" lon="-7.9619683"><ele>714.0</ele><time>2026-04-04T17:58:04.824Z</time></trkpt><trkpt lat="42.1363583" lon="-7.962065"><ele>714.0</ele><time>2026-04-04T17:58:05.825Z</time></trkpt><trkpt lat="42.136415" lon="-7.962175"><ele>714.0</ele><time>2026-04-04T17:58:06.825Z</time></trkpt><trkpt lat="42.136455" lon="-7.9622683"><ele>714.0</ele><time>2026-04-04T17:58:07.824Z</time></trkpt><trkpt lat="42.13648" lon="-7.9623667"><ele>714.0</ele><time>2026-04-04T17:58:08.824Z</time></trkpt><trkpt lat="42.1364817" lon="-7.9624783"><ele>714.0</ele><time>2026-04-04T17:58:09.825Z</time></trkpt><trkpt lat="42.1364867" lon="-7.9625783"><ele>714.0</ele><time>2026-04-04T17:58:10.824Z</time></trkpt><trkpt lat="42.1364833" lon="-7.96274"><ele>714.0</ele><time>2026-04-04T17:58:12.825Z</time></trkpt><trkpt lat="42.13649" lon="-7.9628433"><ele>714.0</ele><time>2026-04-04T17:58:14.825Z</time></trkpt><trkpt lat="42.1365933" lon="-7.9628583"><ele>710.6</ele><time>2026-04-04T17:58:17.824Z</time></trkpt><trkpt lat="42.1367533" lon="-7.962815"><ele>707.2</ele><time>2026-04-04T17:58:19.825Z</time></trkpt><trkpt lat="42.1368283" lon="-7.9627933"><ele>703.8000000000001</ele><time>2026-04-04T17:58:20.825Z</time></trkpt><trkpt lat="42.1369" lon="-7.9627833"><ele>700.4000000000001</ele><time>2026-04-04T17:58:21.825Z</time></trkpt><trkpt lat="42.1369883" lon="-7.9627617"><ele>697.0</ele><time>2026-04-04T17:58:22.824Z</time></trkpt><trkpt lat="42.137055" lon="-7.9627417"><ele>697.0</ele><time>2026-04-04T17:58:23.824Z</time></trkpt><trkpt lat="42.137165" lon="-7.962685"><ele>697.0</ele><time>2026-04-04T17:58:25.823Z</time></trkpt><trkpt lat="42.137235" lon="-7.9625867"><ele>697.0</ele><time>2026-04-04T17:58:27.823Z</time></trkpt><trkpt lat="42.1372667" lon="-7.9624417"><ele>697.0</ele><time>2026-04-04T17:58:29.822Z</time></trkpt><trkpt lat="42.1372783" lon="-7.9623467"><ele>697.0</ele><time>2026-04-04T17:58:30.823Z</time></trkpt><trkpt lat="42.137285" lon="-7.9622367"><ele>697.75</ele><time>2026-04-04T17:58:31.822Z</time></trkpt><trkpt lat="42.1372917" lon="-7.96205"><ele>698.5</ele><time>2026-04-04T17:58:33.823Z</time></trkpt><trkpt lat="42.1373267" lon="-7.9619"><ele>699.25</ele><time>2026-04-04T17:58:35.825Z</time></trkpt><trkpt lat="42.137395" lon="-7.9617683"><ele>700.0</ele><time>2026-04-04T17:58:37.823Z</time></trkpt><trkpt lat="42.1374983" lon="-7.9617167"><ele>697.5</ele><time>2026-04-04T17:58:39.822Z</time></trkpt><trkpt lat="42.1376067" lon="-7.9617533"><ele>695.0</ele><time>2026-04-04T17:58:41.824Z</time></trkpt><trkpt lat="42.1376683" lon="-7.9618"><ele>692.5</ele><time>2026-04-04T17:58:42.824Z</time></trkpt><trkpt lat="42.1377333" lon="-7.96184"><ele>690.0</ele><time>2026-04-04T17:58:43.823Z</time></trkpt><trkpt lat="42.1378117" lon="-7.9618733"><ele>687.5</ele><time>2026-04-04T17:58:44.824Z</time></trkpt><trkpt lat="42.1378917" lon="-7.9618883"><ele>685.0</ele><time>2026-04-04T17:58:45.824Z</time></trkpt><trkpt lat="42.1379867" lon="-7.9619133"><ele>685.0</ele><time>2026-04-04T17:58:46.822Z</time></trkpt><trkpt lat="42.1380783" lon="-7.9619617"><ele>685.0</ele><time>2026-04-04T17:58:47.823Z</time></trkpt><trkpt lat="42.1381517" lon="-7.9620033"><ele>685.0</ele><time>2026-04-04T17:58:48.823Z</time></trkpt><trkpt lat="42.1382183" lon="-7.9620717"><ele>685.0</ele><time>2026-04-04T17:58:49.822Z</time></trkpt><trkpt lat="42.1382917" lon="-7.9621617"><ele>685.0</ele><time>2026-04-04T17:58:50.824Z</time></trkpt><trkpt lat="42.1383517" lon="-7.9622533"><ele>682.3333333333334</ele><time>2026-04-04T17:58:51.823Z</time></trkpt><trkpt lat="42.1384067" lon="-7.9623433"><ele>679.6666666666667</ele><time>2026-04-04T17:58:52.822Z</time></trkpt><trkpt lat="42.1384567" lon="-7.9624283"><ele>677.0</ele><time>2026-04-04T17:58:53.822Z</time></trkpt><trkpt lat="42.138525" lon="-7.9625283"><ele>674.3333333333334</ele><time>2026-04-04T17:58:55.822Z</time></trkpt><trkpt lat="42.1385717" lon="-7.9626033"><ele>671.6666666666666</ele><time>2026-04-04T17:58:59.823Z</time></trkpt><trkpt lat="42.1386067" lon="-7.9626933"><ele>669.0</ele><time>2026-04-04T17:59:02.823Z</time></trkpt><trkpt lat="42.1386417" lon="-7.962775"><ele>669.0</ele><time>2026-04-04T17:59:04.822Z</time></trkpt><trkpt lat="42.1386867" lon="-7.96287"><ele>669.0</ele><time>2026-04-04T17:59:06.823Z</time></trkpt><trkpt lat="42.138745" lon="-7.9629367"><ele>669.0</ele><time>2026-04-04T17:59:08.823Z</time></trkpt><trkpt lat="42.1388117" lon="-7.9629617"><ele>669.0</ele><time>2026-04-04T17:59:10.822Z</time></trkpt><trkpt lat="42.138885" lon="-7.9629633"><ele>669.0</ele><time>2026-04-04T17:59:12.823Z</time></trkpt><trkpt lat="42.1389567" lon="-7.962985"><ele>669.0</ele><time>2026-04-04T17:59:14.823Z</time></trkpt><trkpt lat="42.1390267" lon="-7.9630367"><ele>665.3333333333334</ele><time>2026-04-04T17:59:16.824Z</time></trkpt><trkpt lat="42.1390883" lon="-7.9630833"><ele>661.6666666666666</ele><time>2026-04-04T17:59:18.823Z</time></trkpt><trkpt lat="42.1391683" lon="-7.9630883"><ele>658.0</ele><time>2026-04-04T17:59:20.823Z</time></trkpt><trkpt lat="42.13925" lon="-7.9630683"><ele>654.3333333333333</ele><time>2026-04-04T17:59:22.823Z</time></trkpt><trkpt lat="42.13934" lon="-7.963085"><ele>650.6666666666666</ele><time>2026-04-04T17:59:24.823Z</time></trkpt><trkpt lat="42.1394517" lon="-7.963125"><ele>647.0</ele><time>2026-04-04T17:59:26.824Z</time></trkpt><trkpt lat="42.1395483" lon="-7.96322"><ele>647.0</ele><time>2026-04-04T17:59:28.825Z</time></trkpt><trkpt lat="42.139605" lon="-7.96327"><ele>647.0</ele><time>2026-04-04T17:59:29.823Z</time></trkpt><trkpt lat="42.1397083" lon="-7.9633383"><ele>647.0</ele><time>2026-04-04T17:59:31.822Z</time></trkpt><trkpt lat="42.13982" lon="-7.9633717"><ele>647.0</ele><time>2026-04-04T17:59:33.823Z</time></trkpt><trkpt lat="42.1399033" lon="-7.96342"><ele>647.0</ele><time>2026-04-04T17:59:35.822Z</time></trkpt><trkpt lat="42.1399467" lon="-7.9634933"><ele>643.2</ele><time>2026-04-04T17:59:37.824Z</time></trkpt><trkpt lat="42.1399717" lon="-7.9636133"><ele>639.4000000000001</ele><time>2026-04-04T17:59:39.823Z</time></trkpt><trkpt lat="42.1400083" lon="-7.9637367"><ele>635.5999999999999</ele><time>2026-04-04T17:59:41.823Z</time></trkpt><trkpt lat="42.1400767" lon="-7.9638733"><ele>631.8</ele><time>2026-04-04T17:59:43.823Z</time></trkpt><trkpt lat="42.1401233" lon="-7.9639467"><ele>628.0</ele><time>2026-04-04T17:59:44.824Z</time></trkpt><trkpt lat="42.140185" lon="-7.9639917"><ele>628.0</ele><time>2026-04-04T17:59:45.822Z</time></trkpt><trkpt lat="42.1402933" lon="-7.9640417"><ele>628.0</ele><time>2026-04-04T17:59:47.823Z</time></trkpt><trkpt lat="42.14042" lon="-7.9640167"><ele>628.0</ele><time>2026-04-04T17:59:49.822Z</time></trkpt><trkpt lat="42.1404983" lon="-7.9640017"><ele>628.0</ele><time>2026-04-04T17:59:50.823Z</time></trkpt><trkpt lat="42.14059" lon="-7.964005"><ele>628.0</ele><time>2026-04-04T17:59:51.824Z</time></trkpt><trkpt lat="42.1406667" lon="-7.9640167"><ele>625.1999999999999</ele><time>2026-04-04T17:59:52.824Z</time></trkpt><trkpt lat="42.1407367" lon="-7.9640267"><ele>622.4</ele><time>2026-04-04T17:59:53.823Z</time></trkpt><trkpt lat="42.1408433" lon="-7.9640517"><ele>619.5999999999999</ele><time>2026-04-04T17:59:55.823Z</time></trkpt><trkpt lat="42.1408717" lon="-7.9639283"><ele>616.8</ele><time>2026-04-04T18:00:10.823Z</time></trkpt><trkpt lat="42.14088" lon="-7.9637883"><ele>614.0</ele><time>2026-04-04T18:00:12.823Z</time></trkpt><trkpt lat="42.1408483" lon="-7.9636583"><ele>614.0</ele><time>2026-04-04T18:00:14.823Z</time></trkpt><trkpt lat="42.1408317" lon="-7.9634983"><ele>614.0</ele><time>2026-04-04T18:00:16.823Z</time></trkpt><trkpt lat="42.1408217" lon="-7.9634117"><ele>614.0</ele><time>2026-04-04T18:00:17.825Z</time></trkpt><trkpt lat="42.14081" lon="-7.9633167"><ele>614.0</ele><time>2026-04-04T18:00:18.824Z</time></trkpt><trkpt lat="42.1407933" lon="-7.963215"><ele>614.0</ele><time>2026-04-04T18:00:19.823Z</time></trkpt><trkpt lat="42.1407717" lon="-7.963115"><ele>614.0</ele><time>2026-04-04T18:00:20.823Z</time></trkpt><trkpt lat="42.140745" lon="-7.9630167"><ele>613.5</ele><time>2026-04-04T18:00:21.822Z</time></trkpt><trkpt lat="42.140725" lon="-7.9629183"><ele>613.0</ele><time>2026-04-04T18:00:22.822Z</time></trkpt><trkpt lat="42.1407183" lon="-7.96282"><ele>612.5</ele><time>2026-04-04T18:00:23.822Z</time></trkpt><trkpt lat="42.14071" lon="-7.9627233"><ele>612.0</ele><time>2026-04-04T18:00:24.824Z</time></trkpt><trkpt lat="42.14074" lon="-7.9625983"><ele>611.5</ele><time>2026-04-04T18:00:25.823Z</time></trkpt><trkpt lat="42.14078" lon="-7.9624917"><ele>611.0</ele><time>2026-04-04T18:00:26.823Z</time></trkpt><trkpt lat="42.1408317" lon="-7.9623883"><ele>610.8333333333333</ele><time>2026-04-04T18:00:27.823Z</time></trkpt><trkpt lat="42.1408683" lon="-7.962315"><ele>610.6666666666666</ele><time>2026-04-04T18:00:28.824Z</time></trkpt><trkpt lat="42.1409167" lon="-7.9622367"><ele>610.5</ele><time>2026-04-04T18:00:29.823Z</time></trkpt><trkpt lat="42.1409433" lon="-7.96211"><ele>610.3333333333334</ele><time>2026-04-04T18:00:31.823Z</time></trkpt><trkpt lat="42.1409333" lon="-7.9620017"><ele>610.1666666666667</ele><time>2026-04-04T18:00:33.823Z</time></trkpt><trkpt lat="42.14086" lon="-7.9619383"><ele>610.0</ele><time>2026-04-04T18:00:35.823Z</time></trkpt><trkpt lat="42.1407717" lon="-7.96188"><ele>610.0</ele><time>2026-04-04T18:00:37.823Z</time></trkpt><trkpt lat="42.1407283" lon="-7.961765"><ele>610.0</ele><time>2026-04-04T18:00:39.823Z</time></trkpt><trkpt lat="42.140705" lon="-7.9615817"><ele>610.0</ele><time>2026-04-04T18:00:41.823Z</time></trkpt><trkpt lat="42.1407183" lon="-7.9614783"><ele>610.0</ele><time>2026-04-04T18:00:42.823Z</time></trkpt><trkpt lat="42.140745" lon="-7.9613667"><ele>610.0</ele><time>2026-04-04T18:00:43.822Z</time></trkpt><trkpt lat="42.14077" lon="-7.9612683"><ele>610.0</ele><time>2026-04-04T18:00:44.823Z</time></trkpt><trkpt lat="42.1408067" lon="-7.9611667"><ele>610.0</ele><time>2026-04-04T18:00:45.822Z</time></trkpt><trkpt lat="42.14084" lon="-7.9610833"><ele>610.0</ele><time>2026-04-04T18:00:46.823Z</time></trkpt><trkpt lat="42.1408933" lon="-7.9609567"><ele>610.0</ele><time>2026-04-04T18:00:48.823Z</time></trkpt><trkpt lat="42.1409683" lon="-7.9608817"><ele>610.0</ele><time>2026-04-04T18:00:50.824Z</time></trkpt><trkpt lat="42.1410333" lon="-7.960865"><ele>610.0</ele><time>2026-04-04T18:00:51.822Z</time></trkpt><trkpt lat="42.14114" lon="-7.96083"><ele>610.0</ele><time>2026-04-04T18:00:53.823Z</time></trkpt><trkpt lat="42.1412033" lon="-7.9608033"><ele>610.0</ele><time>2026-04-04T18:00:54.823Z</time></trkpt><trkpt lat="42.1412733" lon="-7.9607433"><ele>610.0</ele><time>2026-04-04T18:00:55.823Z</time></trkpt><trkpt lat="42.1413433" lon="-7.960675"><ele>610.0</ele><time>2026-04-04T18:00:56.823Z</time></trkpt><trkpt lat="42.1414083" lon="-7.9606117"><ele>610.0</ele><time>2026-04-04T18:00:57.824Z</time></trkpt><trkpt lat="42.1414733" lon="-7.960545"><ele>610.0</ele><time>2026-04-04T18:00:58.822Z</time></trkpt><trkpt lat="42.1415583" lon="-7.96047"><ele>606.1666666666667</ele><time>2026-04-04T18:00:59.822Z</time></trkpt><trkpt lat="42.14163" lon="-7.9604067"><ele>602.3333333333334</ele><time>2026-04-04T18:01:00.824Z</time></trkpt><trkpt lat="42.14169" lon="-7.9603467"><ele>598.5</ele><time>2026-04-04T18:01:01.823Z</time></trkpt><trkpt lat="42.1417433" lon="-7.9602867"><ele>594.6666666666666</ele><time>2026-04-04T18:01:02.823Z</time></trkpt><trkpt lat="42.141785" lon="-7.9602133"><ele>590.8333333333333</ele><time>2026-04-04T18:01:04.822Z</time></trkpt><trkpt lat="42.14185" lon="-7.9602217"><ele>587.0</ele><time>2026-04-04T18:01:07.823Z</time></trkpt><trkpt lat="42.14183" lon="-7.9603417"><ele>587.0</ele><time>2026-04-04T18:01:09.823Z</time></trkpt><trkpt lat="42.1417867" lon="-7.9604583"><ele>587.0</ele><time>2026-04-04T18:01:11.824Z</time></trkpt><trkpt lat="42.1417517" lon="-7.960535"><ele>587.0</ele><time>2026-04-04T18:01:12.823Z</time></trkpt><trkpt lat="42.14172" lon="-7.9606733"><ele>587.0</ele><time>2026-04-04T18:01:14.823Z</time></trkpt><trkpt lat="42.14172" lon="-7.96081"><ele>587.0</ele><time>2026-04-04T18:01:16.822Z</time></trkpt><trkpt lat="42.14177" lon="-7.96093"><ele>586.2</ele><time>2026-04-04T18:01:18.824Z</time></trkpt><trkpt lat="42.1417733" lon="-7.9610717"><ele>585.4000000000001</ele><time>2026-04-04T18:01:20.823Z</time></trkpt><trkpt lat="42.141775" lon="-7.9612433"><ele>584.5999999999999</ele><time>2026-04-04T18:01:22.823Z</time></trkpt><trkpt lat="42.1417733" lon="-7.9613567"><ele>583.8</ele><time>2026-04-04T18:01:23.822Z</time></trkpt><trkpt lat="42.1417633" lon="-7.9614783"><ele>583.0</ele><time>2026-04-04T18:01:24.823Z</time></trkpt><trkpt lat="42.141745" lon="-7.9616017"><ele>583.3333333333334</ele><time>2026-04-04T18:01:25.824Z</time></trkpt><trkpt lat="42.1417183" lon="-7.96172"><ele>583.6666666666667</ele><time>2026-04-04T18:01:26.823Z</time></trkpt><trkpt lat="42.1416933" lon="-7.9618367"><ele>584.0</ele><time>2026-04-04T18:01:27.824Z</time></trkpt><trkpt lat="42.1416733" lon="-7.9619467"><ele>584.3333333333334</ele><time>2026-04-04T18:01:28.822Z</time></trkpt><trkpt lat="42.141655" lon="-7.9620417"><ele>584.6666666666666</ele><time>2026-04-04T18:01:29.823Z</time></trkpt><trkpt lat="42.141655" lon="-7.9621367"><ele>585.0</ele><time>2026-04-04T18:01:30.824Z</time></trkpt><trkpt lat="42.1416583" lon="-7.9622233"><ele>585.0</ele><time>2026-04-04T18:01:31.823Z</time></trkpt><trkpt lat="42.1416667" lon="-7.962325"><ele>585.0</ele><time>2026-04-04T18:01:32.824Z</time></trkpt><trkpt lat="42.1417067" lon="-7.962435"><ele>585.0</ele><time>2026-04-04T18:01:33.823Z</time></trkpt><trkpt lat="42.141755" lon="-7.9625433"><ele>585.0</ele><time>2026-04-04T18:01:34.823Z</time></trkpt><trkpt lat="42.14179" lon="-7.9626633"><ele>585.0</ele><time>2026-04-04T18:01:35.823Z</time></trkpt><trkpt lat="42.1418367" lon="-7.962785"><ele>585.8</ele><time>2026-04-04T18:01:36.824Z</time></trkpt><trkpt lat="42.14188" lon="-7.962905"><ele>586.6</ele><time>2026-04-04T18:01:37.823Z</time></trkpt><trkpt lat="42.141925" lon="-7.9630367"><ele>587.4</ele><time>2026-04-04T18:01:38.823Z</time></trkpt><trkpt lat="42.141985" lon="-7.963165"><ele>588.2</ele><time>2026-04-04T18:01:39.823Z</time></trkpt><trkpt lat="42.14203" lon="-7.9632883"><ele>589.0</ele><time>2026-04-04T18:01:40.823Z</time></trkpt><trkpt lat="42.142065" lon="-7.963405"><ele>589.8</ele><time>2026-04-04T18:01:41.823Z</time></trkpt><trkpt lat="42.1420983" lon="-7.9635217"><ele>590.5999999999999</ele><time>2026-04-04T18:01:42.823Z</time></trkpt><trkpt lat="42.1421333" lon="-7.96364"><ele>591.4</ele><time>2026-04-04T18:01:43.823Z</time></trkpt><trkpt lat="42.1421817" lon="-7.9637333"><ele>592.1999999999999</ele><time>2026-04-04T18:01:44.823Z</time></trkpt><trkpt lat="42.1422683" lon="-7.96385"><ele>593.0</ele><time>2026-04-04T18:01:46.824Z</time></trkpt><trkpt lat="42.1423733" lon="-7.9638933"><ele>590.1999999999999</ele><time>2026-04-04T18:01:48.823Z</time></trkpt><trkpt lat="42.1424783" lon="-7.96385"><ele>587.4</ele><time>2026-04-04T18:01:50.824Z</time></trkpt><trkpt lat="42.1425333" lon="-7.963805"><ele>584.5999999999999</ele><time>2026-04-04T18:01:51.823Z</time></trkpt><trkpt lat="42.1426317" lon="-7.963725"><ele>581.8</ele><time>2026-04-04T18:01:53.824Z</time></trkpt><trkpt lat="42.1427183" lon="-7.9636717"><ele>579.0</ele><time>2026-04-04T18:01:55.823Z</time></trkpt><trkpt lat="42.1427983" lon="-7.9636417"><ele>579.0</ele><time>2026-04-04T18:03:49.823Z</time></trkpt><trkpt lat="42.14287" lon="-7.9635583"><ele>579.0</ele><time>2026-04-04T18:03:53.823Z</time></trkpt><trkpt lat="42.142925" lon="-7.9634133"><ele>579.0</ele><time>2026-04-04T18:03:55.823Z</time></trkpt><trkpt lat="42.1429533" lon="-7.9633317"><ele>579.0</ele><time>2026-04-04T18:03:56.824Z</time></trkpt><trkpt lat="42.1429867" lon="-7.9632367"><ele>579.0</ele><time>2026-04-04T18:03:57.824Z</time></trkpt><trkpt lat="42.1430433" lon="-7.963085"><ele>576.8</ele><time>2026-04-04T18:03:59.823Z</time></trkpt><trkpt lat="42.1430783" lon="-7.9630083"><ele>574.5999999999999</ele><time>2026-04-04T18:04:00.824Z</time></trkpt><trkpt lat="42.14313" lon="-7.9628717"><ele>572.4</ele><time>2026-04-04T18:04:02.823Z</time></trkpt><trkpt lat="42.143175" lon="-7.962755"><ele>570.1999999999999</ele><time>2026-04-04T18:04:04.823Z</time></trkpt><trkpt lat="42.143225" lon="-7.9626417"><ele>568.0</ele><time>2026-04-04T18:04:06.823Z</time></trkpt><trkpt lat="42.143285" lon="-7.9625317"><ele>565.8</ele><time>2026-04-04T18:04:08.824Z</time></trkpt><trkpt lat="42.14336" lon="-7.962425"><ele>563.5999999999999</ele><time>2026-04-04T18:04:10.822Z</time></trkpt><trkpt lat="42.14344" lon="-7.9623467"><ele>561.4000000000001</ele><time>2026-04-04T18:04:12.822Z</time></trkpt><trkpt lat="42.1435317" lon="-7.962265"><ele>559.2</ele><time>2026-04-04T18:04:14.823Z</time></trkpt><trkpt lat="42.1436233" lon="-7.96218"><ele>557.0</ele><time>2026-04-04T18:04:16.822Z</time></trkpt><trkpt lat="42.1437133" lon="-7.962095"><ele>557.0</ele><time>2026-04-04T18:04:18.825Z</time></trkpt><trkpt lat="42.1438133" lon="-7.96201"><ele>557.0</ele><time>2026-04-04T18:04:20.822Z</time></trkpt><trkpt lat="42.143905" lon="-7.9619"><ele>557.0</ele><time>2026-04-04T18:04:22.823Z</time></trkpt><trkpt lat="42.143955" lon="-7.9618483"><ele>557.0</ele><time>2026-04-04T18:04:23.822Z</time></trkpt><trkpt lat="42.1440617" lon="-7.96176"><ele>557.0</ele><time>2026-04-04T18:04:25.823Z</time></trkpt><trkpt lat="42.144115" lon="-7.9617133"><ele>554.6666666666666</ele><time>2026-04-04T18:04:26.823Z</time></trkpt><trkpt lat="42.1442317" lon="-7.96164"><ele>552.3333333333333</ele><time>2026-04-04T18:04:28.822Z</time></trkpt><trkpt lat="42.144295" lon="-7.9616117"><ele>550.0</ele><time>2026-04-04T18:04:29.823Z</time></trkpt><trkpt lat="42.1443583" lon="-7.9616017"><ele>547.6666666666666</ele><time>2026-04-04T18:04:30.823Z</time></trkpt><trkpt lat="42.1444233" lon="-7.9615983"><ele>545.3333333333334</ele><time>2026-04-04T18:04:31.823Z</time></trkpt><trkpt lat="42.1445433" lon="-7.9616033"><ele>543.0</ele><time>2026-04-04T18:04:33.822Z</time></trkpt><trkpt lat="42.1446067" lon="-7.9616"><ele>543.0</ele><time>2026-04-04T18:04:34.823Z</time></trkpt><trkpt lat="42.1446767" lon="-7.961585"><ele>543.0</ele><time>2026-04-04T18:04:35.825Z</time></trkpt><trkpt lat="42.1448017" lon="-7.9615667"><ele>543.0</ele><time>2026-04-04T18:04:37.822Z</time></trkpt><trkpt lat="42.1449033" lon="-7.9615567"><ele>543.0</ele><time>2026-04-04T18:04:39.822Z</time></trkpt><trkpt lat="42.1449867" lon="-7.9615267"><ele>543.0</ele><time>2026-04-04T18:04:42.823Z</time></trkpt><trkpt lat="42.145055" lon="-7.9614817"><ele>541.6666666666666</ele><time>2026-04-04T18:04:44.823Z</time></trkpt><trkpt lat="42.14514" lon="-7.961385"><ele>540.3333333333334</ele><time>2026-04-04T18:04:46.823Z</time></trkpt><trkpt lat="42.1451883" lon="-7.9613267"><ele>539.0</ele><time>2026-04-04T18:04:47.824Z</time></trkpt><trkpt lat="42.1452417" lon="-7.96128"><ele>537.6666666666667</ele><time>2026-04-04T18:04:48.823Z</time></trkpt><trkpt lat="42.1453083" lon="-7.9612333"><ele>536.3333333333334</ele><time>2026-04-04T18:04:49.823Z</time></trkpt><trkpt lat="42.1453883" lon="-7.9611617"><ele>535.0</ele><time>2026-04-04T18:04:50.824Z</time></trkpt><trkpt lat="42.1454467" lon="-7.9611033"><ele>535.0</ele><time>2026-04-04T18:04:51.822Z</time></trkpt><trkpt lat="42.1455067" lon="-7.9610417"><ele>535.0</ele><time>2026-04-04T18:04:52.822Z</time></trkpt><trkpt lat="42.1455567" lon="-7.9609683"><ele>535.0</ele><time>2026-04-04T18:04:53.824Z</time></trkpt><trkpt lat="42.1456117" lon="-7.9608667"><ele>535.0</ele><time>2026-04-04T18:04:54.827Z</time></trkpt><trkpt lat="42.1456617" lon="-7.96076"><ele>535.0</ele><time>2026-04-04T18:04:55.823Z</time></trkpt><trkpt lat="42.1456933" lon="-7.9606783"><ele>535.0</ele><time>2026-04-04T18:04:56.822Z</time></trkpt><trkpt lat="42.1457233" lon="-7.9605983"><ele>531.5</ele><time>2026-04-04T18:04:57.822Z</time></trkpt><trkpt lat="42.1457633" lon="-7.9605033"><ele>528.0</ele><time>2026-04-04T18:04:58.822Z</time></trkpt><trkpt lat="42.1458133" lon="-7.960435"><ele>524.5</ele><time>2026-04-04T18:04:59.823Z</time></trkpt><trkpt lat="42.1458817" lon="-7.9603667"><ele>521.0</ele><time>2026-04-04T18:05:00.823Z</time></trkpt><trkpt lat="42.1459467" lon="-7.9603333"><ele>517.5</ele><time>2026-04-04T18:05:01.822Z</time></trkpt><trkpt lat="42.1460583" lon="-7.9602933"><ele>514.0</ele><time>2026-04-04T18:05:03.823Z</time></trkpt><trkpt lat="42.1461583" lon="-7.9602317"><ele>514.0</ele><time>2026-04-04T18:05:05.822Z</time></trkpt><trkpt lat="42.1462267" lon="-7.9601183"><ele>514.0</ele><time>2026-04-04T18:05:07.822Z</time></trkpt><trkpt lat="42.14627" lon="-7.9599383"><ele>514.0</ele><time>2026-04-04T18:05:09.823Z</time></trkpt><trkpt lat="42.1462917" lon="-7.95984"><ele>514.0</ele><time>2026-04-04T18:05:10.822Z</time></trkpt><trkpt lat="42.1463183" lon="-7.959725"><ele>514.0</ele><time>2026-04-04T18:05:11.823Z</time></trkpt><trkpt lat="42.1463483" lon="-7.9596033"><ele>514.2</ele><time>2026-04-04T18:05:12.824Z</time></trkpt><trkpt lat="42.1463933" lon="-7.959485"><ele>514.4</ele><time>2026-04-04T18:05:13.823Z</time></trkpt><trkpt lat="42.1464483" lon="-7.959395"><ele>514.6</ele><time>2026-04-04T18:05:14.822Z</time></trkpt><trkpt lat="42.1465133" lon="-7.9593267"><ele>514.8</ele><time>2026-04-04T18:05:15.823Z</time></trkpt><trkpt lat="42.1466017" lon="-7.9592933"><ele>515.0</ele><time>2026-04-04T18:05:16.822Z</time></trkpt><trkpt lat="42.146695" lon="-7.959285"><ele>515.0</ele><time>2026-04-04T18:05:17.822Z</time></trkpt><trkpt lat="42.1464267" lon="-7.9595017"><ele>515.0</ele><time>2026-04-04T18:05:19.011Z</time></trkpt><trkpt lat="42.1465483" lon="-7.959495"><ele>515.0</ele><time>2026-04-04T18:05:21.823Z</time></trkpt><trkpt lat="42.1467033" lon="-7.9593833"><ele>513.8</ele><time>2026-04-04T18:05:22.824Z</time></trkpt><trkpt lat="42.1468433" lon="-7.95929"><ele>512.6</ele><time>2026-04-04T18:05:23.822Z</time></trkpt><trkpt lat="42.14694" lon="-7.9592217"><ele>511.4</ele><time>2026-04-04T18:05:24.822Z</time></trkpt><trkpt lat="42.1470217" lon="-7.959175"><ele>510.2</ele><time>2026-04-04T18:05:25.823Z</time></trkpt><trkpt lat="42.14709" lon="-7.959135"><ele>509.0</ele><time>2026-04-04T18:05:26.823Z</time></trkpt><trkpt lat="42.147175" lon="-7.95909"><ele>509.0</ele><time>2026-04-04T18:05:27.822Z</time></trkpt><trkpt lat="42.14732" lon="-7.9590417"><ele>509.0</ele><time>2026-04-04T18:05:29.825Z</time></trkpt><trkpt lat="42.1474067" lon="-7.959005"><ele>509.0</ele><time>2026-04-04T18:05:31.822Z</time></trkpt><trkpt lat="42.147495" lon="-7.9589283"><ele>509.0</ele><time>2026-04-04T18:05:33.823Z</time></trkpt><trkpt lat="42.1475867" lon="-7.9588817"><ele>509.0</ele><time>2026-04-04T18:05:35.823Z</time></trkpt><trkpt lat="42.1476783" lon="-7.9588467"><ele>508.66666666666663</ele><time>2026-04-04T18:05:37.828Z</time></trkpt><trkpt lat="42.14775" lon="-7.9588117"><ele>508.3333333333333</ele><time>2026-04-04T18:05:39.822Z</time></trkpt><trkpt lat="42.1478417" lon="-7.9587767"><ele>508.0</ele><time>2026-04-04T18:05:41.823Z</time></trkpt><trkpt lat="42.14791" lon="-7.95875"><ele>507.66666666666663</ele><time>2026-04-04T18:05:42.822Z</time></trkpt><trkpt lat="42.14797" lon="-7.9587217"><ele>507.3333333333333</ele><time>2026-04-04T18:05:43.823Z</time></trkpt><trkpt lat="42.1481067" lon="-7.9586817"><ele>507.0</ele><time>2026-04-04T18:05:45.823Z</time></trkpt><trkpt lat="42.148175" lon="-7.958655"><ele>506.8333333333333</ele><time>2026-04-04T18:05:46.822Z</time></trkpt><trkpt lat="42.1482417" lon="-7.9586133"><ele>506.66666666666663</ele><time>2026-04-04T18:05:47.824Z</time></trkpt><trkpt lat="42.1483183" lon="-7.95857"><ele>506.5</ele><time>2026-04-04T18:05:48.822Z</time></trkpt><trkpt lat="42.14839" lon="-7.9585167"><ele>506.3333333333333</ele><time>2026-04-04T18:05:49.822Z</time></trkpt><trkpt lat="42.1484633" lon="-7.9584533"><ele>506.16666666666663</ele><time>2026-04-04T18:05:50.823Z</time></trkpt><trkpt lat="42.1485367" lon="-7.95838"><ele>506.0</ele><time>2026-04-04T18:05:51.823Z</time></trkpt><trkpt lat="42.1486033" lon="-7.95831"><ele>506.0</ele><time>2026-04-04T18:05:52.822Z</time></trkpt><trkpt lat="42.1486767" lon="-7.95824"><ele>506.0</ele><time>2026-04-04T18:05:53.823Z</time></trkpt><trkpt lat="42.1487483" lon="-7.9581733"><ele>506.0</ele><time>2026-04-04T18:05:54.823Z</time></trkpt><trkpt lat="42.1488283" lon="-7.9580967"><ele>506.0</ele><time>2026-04-04T18:05:55.823Z</time></trkpt><trkpt lat="42.14891" lon="-7.9580217"><ele>506.0</ele><time>2026-04-04T18:05:56.823Z</time></trkpt><trkpt lat="42.1489817" lon="-7.9579533"><ele>506.99999999999994</ele><time>2026-04-04T18:05:57.822Z</time></trkpt><trkpt lat="42.1490533" lon="-7.95789"><ele>508.0</ele><time>2026-04-04T18:05:58.824Z</time></trkpt><trkpt lat="42.149125" lon="-7.95783"><ele>509.0</ele><time>2026-04-04T18:05:59.823Z</time></trkpt><trkpt lat="42.1492" lon="-7.9577667"><ele>510.0</ele><time>2026-04-04T18:06:00.823Z</time></trkpt><trkpt lat="42.1492667" lon="-7.957705"><ele>510.99999999999994</ele><time>2026-04-04T18:06:01.822Z</time></trkpt><trkpt lat="42.1493267" lon="-7.957655"><ele>512.0</ele><time>2026-04-04T18:06:02.823Z</time></trkpt><trkpt lat="42.1493867" lon="-7.9576117"><ele>511.99999999999994</ele><time>2026-04-04T18:06:03.823Z</time></trkpt><trkpt lat="42.1494433" lon="-7.9575683"><ele>512.0</ele><time>2026-04-04T18:06:04.822Z</time></trkpt><trkpt lat="42.1494967" lon="-7.95752"><ele>512.0</ele><time>2026-04-04T18:06:05.824Z</time></trkpt><trkpt lat="42.149605" lon="-7.9574217"><ele>512.0</ele><time>2026-04-04T18:06:07.822Z</time></trkpt><trkpt lat="42.1496717" lon="-7.95737"><ele>511.99999999999994</ele><time>2026-04-04T18:06:08.823Z</time></trkpt><trkpt lat="42.149735" lon="-7.9573133"><ele>512.0</ele><time>2026-04-04T18:06:09.823Z</time></trkpt><trkpt lat="42.1498017" lon="-7.9572567"><ele>511.8333333333333</ele><time>2026-04-04T18:06:10.823Z</time></trkpt><trkpt lat="42.1498633" lon="-7.9571883"><ele>511.66666666666663</ele><time>2026-04-04T18:06:11.823Z</time></trkpt><trkpt lat="42.14993" lon="-7.9571267"><ele>511.5</ele><time>2026-04-04T18:06:12.823Z</time></trkpt><trkpt lat="42.1500017" lon="-7.9570617"><ele>511.33333333333337</ele><time>2026-04-04T18:06:13.822Z</time></trkpt><trkpt lat="42.1500717" lon="-7.957"><ele>511.1666666666667</ele><time>2026-04-04T18:06:14.823Z</time></trkpt><trkpt lat="42.1501367" lon="-7.9569383"><ele>511.0</ele><time>2026-04-04T18:06:15.822Z</time></trkpt><trkpt lat="42.1502017" lon="-7.9568833"><ele>511.00000000000006</ele><time>2026-04-04T18:06:16.823Z</time></trkpt><trkpt lat="42.1502667" lon="-7.9568267"><ele>511.0</ele><time>2026-04-04T18:06:17.824Z</time></trkpt><trkpt lat="42.1503333" lon="-7.9567667"><ele>511.0</ele><time>2026-04-04T18:06:18.823Z</time></trkpt><trkpt lat="42.1504" lon="-7.95671"><ele>511.0</ele><time>2026-04-04T18:06:19.823Z</time></trkpt><trkpt lat="42.1504717" lon="-7.95665"><ele>511.00000000000006</ele><time>2026-04-04T18:06:20.824Z</time></trkpt><trkpt lat="42.1505467" lon="-7.9565933"><ele>511.0</ele><time>2026-04-04T18:06:21.823Z</time></trkpt><trkpt lat="42.1506183" lon="-7.9565333"><ele>511.1428571428571</ele><time>2026-04-04T18:06:22.823Z</time></trkpt><trkpt lat="42.1506833" lon="-7.956475"><ele>511.2857142857143</ele><time>2026-04-04T18:06:23.823Z</time></trkpt><trkpt lat="42.150745" lon="-7.9564233"><ele>511.42857142857144</ele><time>2026-04-04T18:06:24.825Z</time></trkpt><trkpt lat="42.1508083" lon="-7.9563733"><ele>511.57142857142856</ele><time>2026-04-04T18:06:25.822Z</time></trkpt><trkpt lat="42.1508717" lon="-7.9563233"><ele>511.71428571428567</ele><time>2026-04-04T18:06:26.823Z</time></trkpt><trkpt lat="42.15093" lon="-7.9562717"><ele>511.85714285714283</ele><time>2026-04-04T18:06:27.822Z</time></trkpt><trkpt lat="42.1509833" lon="-7.956225"><ele>512.0</ele><time>2026-04-04T18:06:28.822Z</time></trkpt><trkpt lat="42.1510833" lon="-7.9561367"><ele>512.0</ele><time>2026-04-04T18:06:30.824Z</time></trkpt><trkpt lat="42.1511417" lon="-7.9560883"><ele>511.99999999999994</ele><time>2026-04-04T18:06:31.823Z</time></trkpt><trkpt lat="42.1512" lon="-7.9560333"><ele>512.0</ele><time>2026-04-04T18:06:32.823Z</time></trkpt><trkpt lat="42.15126" lon="-7.9559733"><ele>512.0</ele><time>2026-04-04T18:06:33.823Z</time></trkpt><trkpt lat="42.1513183" lon="-7.9559133"><ele>511.99999999999994</ele><time>2026-04-04T18:06:34.823Z</time></trkpt><trkpt lat="42.1513717" lon="-7.95585"><ele>512.0</ele><time>2026-04-04T18:06:35.822Z</time></trkpt><trkpt lat="42.1514217" lon="-7.95579"><ele>512.0</ele><time>2026-04-04T18:06:36.823Z</time></trkpt><trkpt lat="42.1514967" lon="-7.9557067"><ele>511.66666666666663</ele><time>2026-04-04T18:06:38.824Z</time></trkpt><trkpt lat="42.1515567" lon="-7.9556283"><ele>511.3333333333333</ele><time>2026-04-04T18:09:08.826Z</time></trkpt><trkpt lat="42.151625" lon="-7.9555967"><ele>511.0</ele><time>2026-04-04T18:09:10.825Z</time></trkpt><trkpt lat="42.1517233" lon="-7.9555417"><ele>510.66666666666663</ele><time>2026-04-04T18:09:12.826Z</time></trkpt><trkpt lat="42.151775" lon="-7.9554917"><ele>510.3333333333333</ele><time>2026-04-04T18:09:13.825Z</time></trkpt><trkpt lat="42.151835" lon="-7.95543"><ele>510.0</ele><time>2026-04-04T18:09:14.826Z</time></trkpt><trkpt lat="42.1519033" lon="-7.955365"><ele>510.0</ele><time>2026-04-04T18:09:15.825Z</time></trkpt><trkpt lat="42.1519833" lon="-7.95529"><ele>510.0</ele><time>2026-04-04T18:09:16.825Z</time></trkpt><trkpt lat="42.1520567" lon="-7.955225"><ele>510.0</ele><time>2026-04-04T18:09:17.824Z</time></trkpt><trkpt lat="42.1521383" lon="-7.95518"><ele>510.0</ele><time>2026-04-04T18:09:18.825Z</time></trkpt><trkpt lat="42.15222" lon="-7.9551417"><ele>510.0</ele><time>2026-04-04T18:09:19.824Z</time></trkpt><trkpt lat="42.152305" lon="-7.9550933"><ele>509.8333333333333</ele><time>2026-04-04T18:09:20.827Z</time></trkpt><trkpt lat="42.1523867" lon="-7.955065"><ele>509.66666666666663</ele><time>2026-04-04T18:09:21.824Z</time></trkpt><trkpt lat="42.15247" lon="-7.9550383"><ele>509.5</ele><time>2026-04-04T18:09:22.825Z</time></trkpt><trkpt lat="42.1525517" lon="-7.9550167"><ele>509.3333333333333</ele><time>2026-04-04T18:09:23.825Z</time></trkpt><trkpt lat="42.1526367" lon="-7.9550067"><ele>509.16666666666663</ele><time>2026-04-04T18:09:24.825Z</time></trkpt><trkpt lat="42.15272" lon="-7.955"><ele>509.0</ele><time>2026-04-04T18:09:25.824Z</time></trkpt><trkpt lat="42.152805" lon="-7.9549967"><ele>508.99999999999994</ele><time>2026-04-04T18:09:26.825Z</time></trkpt><trkpt lat="42.15287" lon="-7.9550033"><ele>509.0</ele><time>2026-04-04T18:09:27.824Z</time></trkpt><trkpt lat="42.152935" lon="-7.9550033"><ele>509.0</ele><time>2026-04-04T18:09:28.824Z</time></trkpt><trkpt lat="42.153" lon="-7.955005"><ele>509.0</ele><time>2026-04-04T18:09:29.825Z</time></trkpt><trkpt lat="42.1531233" lon="-7.9549967"><ele>508.99999999999994</ele><time>2026-04-04T18:09:31.826Z</time></trkpt><trkpt lat="42.15319" lon="-7.954995"><ele>509.0</ele><time>2026-04-04T18:09:32.823Z</time></trkpt><trkpt lat="42.1533033" lon="-7.955035"><ele>510.2</ele><time>2026-04-04T18:09:34.823Z</time></trkpt><trkpt lat="42.1534167" lon="-7.95508"><ele>511.4</ele><time>2026-04-04T18:09:36.823Z</time></trkpt><trkpt lat="42.1535367" lon="-7.955105"><ele>512.6</ele><time>2026-04-04T18:09:38.824Z</time></trkpt><trkpt lat="42.1536333" lon="-7.9551183"><ele>513.8</ele><time>2026-04-04T18:09:40.825Z</time></trkpt><trkpt lat="42.153715" lon="-7.9550683"><ele>515.0</ele><time>2026-04-04T18:09:42.823Z</time></trkpt><trkpt lat="42.1537883" lon="-7.9550133"><ele>515.0</ele><time>2026-04-04T18:09:44.824Z</time></trkpt><trkpt lat="42.1538617" lon="-7.9549033"><ele>515.0</ele><time>2026-04-04T18:09:46.822Z</time></trkpt><trkpt lat="42.1538983" lon="-7.9548283"><ele>515.0</ele><time>2026-04-04T18:09:47.823Z</time></trkpt><trkpt lat="42.1539417" lon="-7.95475"><ele>515.0</ele><time>2026-04-04T18:09:48.823Z</time></trkpt><trkpt lat="42.1539833" lon="-7.9546717"><ele>515.0</ele><time>2026-04-04T18:09:49.823Z</time></trkpt><trkpt lat="42.1540233" lon="-7.9545733"><ele>515.0</ele><time>2026-04-04T18:09:50.822Z</time></trkpt><trkpt lat="42.15407" lon="-7.9544783"><ele>514.8333333333333</ele><time>2026-04-04T18:09:51.823Z</time></trkpt><trkpt lat="42.1541183" lon="-7.9543867"><ele>514.6666666666666</ele><time>2026-04-04T18:09:52.823Z</time></trkpt><trkpt lat="42.1541667" lon="-7.9543083"><ele>514.5</ele><time>2026-04-04T18:09:53.822Z</time></trkpt><trkpt lat="42.1542183" lon="-7.9542117"><ele>514.3333333333334</ele><time>2026-04-04T18:09:54.823Z</time></trkpt><trkpt lat="42.15428" lon="-7.9541267"><ele>514.1666666666667</ele><time>2026-04-04T18:09:55.823Z</time></trkpt><trkpt lat="42.1543467" lon="-7.9540433"><ele>514.0</ele><time>2026-04-04T18:09:56.823Z</time></trkpt><trkpt lat="42.1544233" lon="-7.9539783"><ele>514.0</ele><time>2026-04-04T18:09:57.822Z</time></trkpt><trkpt lat="42.1545267" lon="-7.9539083"><ele>514.0</ele><time>2026-04-04T18:09:58.824Z</time></trkpt><trkpt lat="42.154615" lon="-7.9538483"><ele>514.0</ele><time>2026-04-04T18:09:59.822Z</time></trkpt><trkpt lat="42.1546767" lon="-7.9537917"><ele>514.0</ele><time>2026-04-04T18:10:00.823Z</time></trkpt><trkpt lat="42.1547667" lon="-7.9536983"><ele>514.0</ele><time>2026-04-04T18:10:02.822Z</time></trkpt><trkpt lat="42.1548417" lon="-7.9536333"><ele>513.8333333333334</ele><time>2026-04-04T18:10:04.823Z</time></trkpt><trkpt lat="42.1549017" lon="-7.9535767"><ele>513.6666666666667</ele><time>2026-04-04T18:10:07.823Z</time></trkpt><trkpt lat="42.1549583" lon="-7.9534917"><ele>513.5</ele><time>2026-04-04T18:10:11.823Z</time></trkpt><trkpt lat="42.1550383" lon="-7.9534167"><ele>513.3333333333334</ele><time>2026-04-04T18:10:14.823Z</time></trkpt><trkpt lat="42.155115" lon="-7.9533717"><ele>513.1666666666666</ele><time>2026-04-04T18:10:17.822Z</time></trkpt><trkpt lat="42.15518" lon="-7.953415"><ele>513.0</ele><time>2026-04-04T18:10:21.825Z</time></trkpt><trkpt lat="42.1552633" lon="-7.9535417"><ele>513.8</ele><time>2026-04-04T18:10:23.823Z</time></trkpt><trkpt lat="42.1553167" lon="-7.9536433"><ele>514.5999999999999</ele><time>2026-04-04T18:10:24.823Z</time></trkpt><trkpt lat="42.1553683" lon="-7.95374"><ele>515.4000000000001</ele><time>2026-04-04T18:10:25.823Z</time></trkpt><trkpt lat="42.1554417" lon="-7.95384"><ele>516.2</ele><time>2026-04-04T18:10:26.823Z</time></trkpt><trkpt lat="42.1554983" lon="-7.9539483"><ele>517.0</ele><time>2026-04-04T18:10:27.824Z</time></trkpt><trkpt lat="42.1555667" lon="-7.95406"><ele>517.0</ele><time>2026-04-04T18:10:28.822Z</time></trkpt><trkpt lat="42.1556267" lon="-7.954155"><ele>517.0</ele><time>2026-04-04T18:10:29.822Z</time></trkpt><trkpt lat="42.155675" lon="-7.9542433"><ele>517.0</ele><time>2026-04-04T18:10:30.822Z</time></trkpt><trkpt lat="42.155725" lon="-7.9543317"><ele>517.0</ele><time>2026-04-04T18:10:31.822Z</time></trkpt><trkpt lat="42.1557717" lon="-7.9544267"><ele>517.0</ele><time>2026-04-04T18:10:32.823Z</time></trkpt><trkpt lat="42.1558167" lon="-7.954535"><ele>517.0</ele><time>2026-04-04T18:10:33.824Z</time></trkpt><trkpt lat="42.15585" lon="-7.9546417"><ele>519.1666666666667</ele><time>2026-04-04T18:10:34.822Z</time></trkpt><trkpt lat="42.1558767" lon="-7.95475"><ele>521.3333333333334</ele><time>2026-04-04T18:10:35.823Z</time></trkpt><trkpt lat="42.1559017" lon="-7.95487"><ele>523.5</ele><time>2026-04-04T18:10:36.823Z</time></trkpt><trkpt lat="42.1559417" lon="-7.95497"><ele>525.6666666666666</ele><time>2026-04-04T18:10:37.822Z</time></trkpt><trkpt lat="42.1559683" lon="-7.9550633"><ele>527.8333333333333</ele><time>2026-04-04T18:10:38.823Z</time></trkpt><trkpt lat="42.1560183" lon="-7.9551833"><ele>530.0</ele><time>2026-04-04T18:10:40.823Z</time></trkpt><trkpt lat="42.1560733" lon="-7.9552267"><ele>530.1666666666666</ele><time>2026-04-04T18:10:42.823Z</time></trkpt><trkpt lat="42.1561733" lon="-7.9552283"><ele>530.3333333333333</ele><time>2026-04-04T18:10:44.823Z</time></trkpt><trkpt lat="42.1562417" lon="-7.955225"><ele>530.5</ele><time>2026-04-04T18:10:45.823Z</time></trkpt><trkpt lat="42.156315" lon="-7.9552317"><ele>530.6666666666666</ele><time>2026-04-04T18:10:46.822Z</time></trkpt><trkpt lat="42.1563933" lon="-7.955235"><ele>530.8333333333334</ele><time>2026-04-04T18:10:47.822Z</time></trkpt><trkpt lat="42.1564733" lon="-7.9552517"><ele>531.0</ele><time>2026-04-04T18:10:48.823Z</time></trkpt><trkpt lat="42.156555" lon="-7.95526"><ele>532.0</ele><time>2026-04-04T18:10:49.823Z</time></trkpt><trkpt lat="42.15664" lon="-7.9552617"><ele>533.0</ele><time>2026-04-04T18:10:50.824Z</time></trkpt><trkpt lat="42.1567333" lon="-7.9552567"><ele>534.0</ele><time>2026-04-04T18:10:51.824Z</time></trkpt><trkpt lat="42.1568267" lon="-7.9552717"><ele>535.0</ele><time>2026-04-04T18:10:52.823Z</time></trkpt><trkpt lat="42.1569267" lon="-7.9552883"><ele>536.0</ele><time>2026-04-04T18:10:53.823Z</time></trkpt><trkpt lat="42.1570283" lon="-7.9553183"><ele>536.0</ele><time>2026-04-04T18:10:54.823Z</time></trkpt><trkpt lat="42.1571233" lon="-7.9553517"><ele>536.0</ele><time>2026-04-04T18:10:55.824Z</time></trkpt><trkpt lat="42.15724" lon="-7.9554017"><ele>536.0</ele><time>2026-04-04T18:10:56.825Z</time></trkpt><trkpt lat="42.1573517" lon="-7.955445"><ele>536.0</ele><time>2026-04-04T18:10:57.823Z</time></trkpt><trkpt lat="42.15744" lon="-7.9555383"><ele>536.0</ele><time>2026-04-04T18:10:58.822Z</time></trkpt><trkpt lat="42.1575383" lon="-7.9556133"><ele>535.8</ele><time>2026-04-04T18:10:59.823Z</time></trkpt><trkpt lat="42.1576283" lon="-7.9557033"><ele>535.6</ele><time>2026-04-04T18:11:00.827Z</time></trkpt><trkpt lat="42.1577183" lon="-7.9557783"><ele>535.4</ele><time>2026-04-04T18:11:01.822Z</time></trkpt><trkpt lat="42.1578083" lon="-7.9558483"><ele>535.2</ele><time>2026-04-04T18:11:02.823Z</time></trkpt><trkpt lat="42.15789" lon="-7.95591"><ele>535.0</ele><time>2026-04-04T18:11:03.823Z</time></trkpt><trkpt lat="42.1579683" lon="-7.9559583"><ele>535.8571428571429</ele><time>2026-04-04T18:11:04.824Z</time></trkpt><trkpt lat="42.1580333" lon="-7.95599"><ele>536.7142857142858</ele><time>2026-04-04T18:11:05.823Z</time></trkpt><trkpt lat="42.1581" lon="-7.9560317"><ele>537.5714285714287</ele><time>2026-04-04T18:11:06.824Z</time></trkpt><trkpt lat="42.1581633" lon="-7.9560433"><ele>538.4285714285714</ele><time>2026-04-04T18:11:07.823Z</time></trkpt><trkpt lat="42.158235" lon="-7.9560783"><ele>539.2857142857143</ele><time>2026-04-04T18:11:08.823Z</time></trkpt><trkpt lat="42.1583083" lon="-7.95611"><ele>540.1428571428572</ele><time>2026-04-04T18:11:09.823Z</time></trkpt><trkpt lat="42.1583733" lon="-7.9561633"><ele>541.0</ele><time>2026-04-04T18:11:10.823Z</time></trkpt><trkpt lat="42.1584267" lon="-7.9562167"><ele>541.0</ele><time>2026-04-04T18:11:11.823Z</time></trkpt><trkpt lat="42.15847" lon="-7.95632"><ele>541.0</ele><time>2026-04-04T18:11:13.823Z</time></trkpt><trkpt lat="42.1583867" lon="-7.9564417"><ele>541.0</ele><time>2026-04-04T18:11:15.823Z</time></trkpt><trkpt lat="42.1583067" lon="-7.9565017"><ele>541.0</ele><time>2026-04-04T18:11:16.822Z</time></trkpt><trkpt lat="42.1581" lon="-7.9566267"><ele>541.0</ele><time>2026-04-04T18:11:17.825Z</time></trkpt><trkpt lat="42.15797" lon="-7.9566867"><ele>541.0</ele><time>2026-04-04T18:11:18.824Z</time></trkpt><trkpt lat="42.157825" lon="-7.9567633"><ele>541.0</ele><time>2026-04-04T18:11:19.823Z</time></trkpt><trkpt lat="42.157665" lon="-7.956815"><ele>541.5</ele><time>2026-04-04T18:11:20.824Z</time></trkpt><trkpt lat="42.1575333" lon="-7.9568783"><ele>542.0</ele><time>2026-04-04T18:11:21.824Z</time></trkpt><trkpt lat="42.15742" lon="-7.9569467"><ele>542.5</ele><time>2026-04-04T18:11:22.823Z</time></trkpt><trkpt lat="42.1573233" lon="-7.9570117"><ele>543.0</ele><time>2026-04-04T18:11:23.823Z</time></trkpt><trkpt lat="42.157235" lon="-7.9570883"><ele>543.0</ele><time>2026-04-04T18:11:24.827Z</time></trkpt><trkpt lat="42.1571517" lon="-7.957165"><ele>543.0</ele><time>2026-04-04T18:11:25.823Z</time></trkpt><trkpt lat="42.1570667" lon="-7.9572383"><ele>543.0</ele><time>2026-04-04T18:11:26.823Z</time></trkpt><trkpt lat="42.1569733" lon="-7.9573117"><ele>543.0</ele><time>2026-04-04T18:11:27.823Z</time></trkpt><trkpt lat="42.1568817" lon="-7.9573833"><ele>543.0</ele><time>2026-04-04T18:11:28.822Z</time></trkpt><trkpt lat="42.1567917" lon="-7.9574383"><ele>543.0</ele><time>2026-04-04T18:11:29.822Z</time></trkpt><trkpt lat="42.1567117" lon="-7.957495"><ele>543.0</ele><time>2026-04-04T18:11:30.823Z</time></trkpt><trkpt lat="42.1566333" lon="-7.9575667"><ele>543.0</ele><time>2026-04-04T18:11:31.823Z</time></trkpt><trkpt lat="42.1565517" lon="-7.9576467"><ele>543.0</ele><time>2026-04-04T18:11:32.824Z</time></trkpt><trkpt lat="42.15647" lon="-7.95773"><ele>543.0</ele><time>2026-04-04T18:11:33.824Z</time></trkpt><trkpt lat="42.1564" lon="-7.9578283"><ele>542.6666666666666</ele><time>2026-04-04T18:11:34.823Z</time></trkpt><trkpt lat="42.15634" lon="-7.9579317"><ele>542.3333333333334</ele><time>2026-04-04T18:11:35.823Z</time></trkpt><trkpt lat="42.1562833" lon="-7.95803"><ele>542.0</ele><time>2026-04-04T18:11:36.824Z</time></trkpt><trkpt lat="42.156225" lon="-7.9581267"><ele>541.6666666666667</ele><time>2026-04-04T18:11:37.823Z</time></trkpt><trkpt lat="42.15618" lon="-7.9582183"><ele>541.3333333333334</ele><time>2026-04-04T18:11:38.824Z</time></trkpt><trkpt lat="42.1561383" lon="-7.9583"><ele>541.0</ele><time>2026-04-04T18:11:39.823Z</time></trkpt><trkpt lat="42.1561033" lon="-7.9583783"><ele>541.0</ele><time>2026-04-04T18:11:40.823Z</time></trkpt><trkpt lat="42.15608" lon="-7.9585067"><ele>541.0</ele><time>2026-04-04T18:11:42.825Z</time></trkpt><trkpt lat="42.1560817" lon="-7.9585967"><ele>541.0</ele><time>2026-04-04T18:11:44.823Z</time></trkpt><trkpt lat="42.1561933" lon="-7.9586133"><ele>541.0</ele><time>2026-04-04T18:11:47.822Z</time></trkpt><trkpt lat="42.1563017" lon="-7.958615"><ele>541.0</ele><time>2026-04-04T18:11:49.823Z</time></trkpt><trkpt lat="42.1563983" lon="-7.9587717"><ele>541.0</ele><time>2026-04-04T18:11:51.823Z</time></trkpt><trkpt lat="42.15645" lon="-7.9588733"><ele>541.0</ele><time>2026-04-04T18:11:52.824Z</time></trkpt><trkpt lat="42.1565033" lon="-7.9589983"><ele>541.0</ele><time>2026-04-04T18:11:53.823Z</time></trkpt><trkpt lat="42.1565433" lon="-7.9591183"><ele>541.0</ele><time>2026-04-04T18:11:54.823Z</time></trkpt><trkpt lat="42.156575" lon="-7.95922"><ele>541.0</ele><time>2026-04-04T18:11:55.823Z</time></trkpt><trkpt lat="42.1566" lon="-7.95932"><ele>542.8333333333334</ele><time>2026-04-04T18:11:56.823Z</time></trkpt><trkpt lat="42.1566117" lon="-7.9594283"><ele>544.6666666666667</ele><time>2026-04-04T18:11:57.825Z</time></trkpt><trkpt lat="42.1566183" lon="-7.9595333"><ele>546.5</ele><time>2026-04-04T18:11:58.822Z</time></trkpt><trkpt lat="42.156625" lon="-7.9596283"><ele>548.3333333333334</ele><time>2026-04-04T18:11:59.823Z</time></trkpt><trkpt lat="42.15663" lon="-7.9597233"><ele>550.1666666666666</ele><time>2026-04-04T18:12:00.827Z</time></trkpt><trkpt lat="42.1566467" lon="-7.9598683"><ele>552.0</ele><time>2026-04-04T18:12:02.823Z</time></trkpt><trkpt lat="42.1566733" lon="-7.960015"><ele>552.3333333333334</ele><time>2026-04-04T18:12:04.823Z</time></trkpt><trkpt lat="42.15669" lon="-7.9601833"><ele>552.6666666666666</ele><time>2026-04-04T18:12:06.823Z</time></trkpt><trkpt lat="42.1567033" lon="-7.9602717"><ele>553.0</ele><time>2026-04-04T18:12:07.824Z</time></trkpt><trkpt lat="42.15671" lon="-7.9603717"><ele>553.3333333333333</ele><time>2026-04-04T18:12:08.823Z</time></trkpt><trkpt lat="42.156715" lon="-7.9604617"><ele>553.6666666666666</ele><time>2026-04-04T18:12:09.824Z</time></trkpt><trkpt lat="42.1567133" lon="-7.9605617"><ele>554.0</ele><time>2026-04-04T18:12:10.824Z</time></trkpt><trkpt lat="42.1566883" lon="-7.96066"><ele>554.0</ele><time>2026-04-04T18:12:11.823Z</time></trkpt><trkpt lat="42.1566783" lon="-7.9607533"><ele>554.0</ele><time>2026-04-04T18:12:12.823Z</time></trkpt><trkpt lat="42.1566567" lon="-7.9608533"><ele>554.0</ele><time>2026-04-04T18:12:13.825Z</time></trkpt><trkpt lat="42.1566333" lon="-7.9609683"><ele>554.0</ele><time>2026-04-04T18:12:14.823Z</time></trkpt><trkpt lat="42.1565933" lon="-7.9610817"><ele>554.0</ele><time>2026-04-04T18:12:15.823Z</time></trkpt><trkpt lat="42.1565633" lon="-7.961195"><ele>554.0</ele><time>2026-04-04T18:12:16.823Z</time></trkpt><trkpt lat="42.1565467" lon="-7.9612967"><ele>553.3333333333333</ele><time>2026-04-04T18:12:17.824Z</time></trkpt><trkpt lat="42.15654" lon="-7.9613983"><ele>552.6666666666666</ele><time>2026-04-04T18:12:18.824Z</time></trkpt><trkpt lat="42.156535" lon="-7.961505"><ele>552.0</ele><time>2026-04-04T18:12:19.823Z</time></trkpt><trkpt lat="42.1565033" lon="-7.9616667"><ele>551.3333333333334</ele><time>2026-04-04T18:12:21.823Z</time></trkpt><trkpt lat="42.1564933" lon="-7.9617633"><ele>550.6666666666667</ele><time>2026-04-04T18:12:22.822Z</time></trkpt><trkpt lat="42.1564867" lon="-7.9618517"><ele>550.0</ele><time>2026-04-04T18:12:23.823Z</time></trkpt><trkpt lat="42.15647" lon="-7.9619633"><ele>552.1666666666667</ele><time>2026-04-04T18:12:24.823Z</time></trkpt><trkpt lat="42.1564567" lon="-7.9620533"><ele>554.3333333333334</ele><time>2026-04-04T18:12:25.823Z</time></trkpt><trkpt lat="42.156395" lon="-7.9621967"><ele>556.5</ele><time>2026-04-04T18:12:27.823Z</time></trkpt><trkpt lat="42.1563683" lon="-7.9622933"><ele>558.6666666666666</ele><time>2026-04-04T18:12:28.822Z</time></trkpt><trkpt lat="42.1563533" lon="-7.96239"><ele>560.8333333333333</ele><time>2026-04-04T18:12:29.823Z</time></trkpt><trkpt lat="42.1563467" lon="-7.9624867"><ele>563.0</ele><time>2026-04-04T18:12:30.824Z</time></trkpt><trkpt lat="42.1563317" lon="-7.9625983"><ele>565.0</ele><time>2026-04-04T18:12:31.824Z</time></trkpt><trkpt lat="42.1563017" lon="-7.9626983"><ele>567.0</ele><time>2026-04-04T18:12:32.825Z</time></trkpt><trkpt lat="42.1562667" lon="-7.9627933"><ele>569.0</ele><time>2026-04-04T18:12:33.823Z</time></trkpt><trkpt lat="42.1562083" lon="-7.9628867"><ele>571.0</ele><time>2026-04-04T18:12:34.823Z</time></trkpt><trkpt lat="42.1561583" lon="-7.962985"><ele>573.0</ele><time>2026-04-04T18:12:35.824Z</time></trkpt><trkpt lat="42.15612" lon="-7.9630833"><ele>575.0</ele><time>2026-04-04T18:12:36.824Z</time></trkpt><trkpt lat="42.1560933" lon="-7.9631867"><ele>575.0</ele><time>2026-04-04T18:12:37.823Z</time></trkpt><trkpt lat="42.15605" lon="-7.9633183"><ele>575.0</ele><time>2026-04-04T18:12:38.823Z</time></trkpt><trkpt lat="42.1560033" lon="-7.9634667"><ele>575.0</ele><time>2026-04-04T18:12:39.822Z</time></trkpt><trkpt lat="42.1559517" lon="-7.9636233"><ele>575.0</ele><time>2026-04-04T18:12:40.823Z</time></trkpt><trkpt lat="42.1559" lon="-7.9637733"><ele>576.4</ele><time>2026-04-04T18:12:41.823Z</time></trkpt><trkpt lat="42.1558467" lon="-7.9639167"><ele>577.8</ele><time>2026-04-04T18:12:42.823Z</time></trkpt><trkpt lat="42.1558183" lon="-7.964065"><ele>579.2</ele><time>2026-04-04T18:12:43.823Z</time></trkpt><trkpt lat="42.1558183" lon="-7.9641983"><ele>580.6</ele><time>2026-04-04T18:12:44.823Z</time></trkpt><trkpt lat="42.1558367" lon="-7.9643133"><ele>582.0</ele><time>2026-04-04T18:12:45.824Z</time></trkpt><trkpt lat="42.155875" lon="-7.9644283"><ele>583.2</ele><time>2026-04-04T18:12:46.823Z</time></trkpt><trkpt lat="42.1559267" lon="-7.96453"><ele>584.4000000000001</ele><time>2026-04-04T18:12:47.824Z</time></trkpt><trkpt lat="42.155995" lon="-7.9646233"><ele>585.5999999999999</ele><time>2026-04-04T18:12:48.824Z</time></trkpt><trkpt lat="42.1560817" lon="-7.9647183"><ele>586.8</ele><time>2026-04-04T18:12:49.822Z</time></trkpt><trkpt lat="42.156175" lon="-7.9648133"><ele>588.0</ele><time>2026-04-04T18:12:50.824Z</time></trkpt><trkpt lat="42.156275" lon="-7.9649117"><ele>588.0</ele><time>2026-04-04T18:12:51.823Z</time></trkpt><trkpt lat="42.1563783" lon="-7.9650117"><ele>588.0</ele><time>2026-04-04T18:12:52.823Z</time></trkpt><trkpt lat="42.1564783" lon="-7.965095"><ele>588.0</ele><time>2026-04-04T18:12:53.822Z</time></trkpt><trkpt lat="42.15658" lon="-7.9651933"><ele>588.0</ele><time>2026-04-04T18:12:54.824Z</time></trkpt><trkpt lat="42.1566817" lon="-7.9652983"><ele>590.0</ele><time>2026-04-04T18:12:55.822Z</time></trkpt><trkpt lat="42.1567883" lon="-7.9653967"><ele>592.0</ele><time>2026-04-04T18:12:56.824Z</time></trkpt><trkpt lat="42.156895" lon="-7.965495"><ele>594.0</ele><time>2026-04-04T18:12:57.825Z</time></trkpt><trkpt lat="42.1570083" lon="-7.9655717"><ele>596.0</ele><time>2026-04-04T18:12:58.822Z</time></trkpt><trkpt lat="42.1571233" lon="-7.9656267"><ele>596.0</ele><time>2026-04-04T18:12:59.824Z</time></trkpt><trkpt lat="42.1572433" lon="-7.9656983"><ele>596.0</ele><time>2026-04-04T18:13:00.824Z</time></trkpt><trkpt lat="42.1573783" lon="-7.9657933"><ele>596.0</ele><time>2026-04-04T18:13:01.823Z</time></trkpt><trkpt lat="42.1575117" lon="-7.9658967"><ele>596.0</ele><time>2026-04-04T18:13:02.823Z</time></trkpt><trkpt lat="42.1576283" lon="-7.9659933"><ele>598.0</ele><time>2026-04-04T18:13:03.824Z</time></trkpt><trkpt lat="42.1577217" lon="-7.9660817"><ele>600.0</ele><time>2026-04-04T18:13:04.822Z</time></trkpt><trkpt lat="42.1577917" lon="-7.9661717"><ele>602.0</ele><time>2026-04-04T18:13:05.825Z</time></trkpt><trkpt lat="42.1578467" lon="-7.9662867"><ele>604.0</ele><time>2026-04-04T18:13:06.826Z</time></trkpt><trkpt lat="42.1578933" lon="-7.9663933"><ele>606.0</ele><time>2026-04-04T18:13:07.823Z</time></trkpt><trkpt lat="42.15794" lon="-7.9664967"><ele>606.0</ele><time>2026-04-04T18:13:08.826Z</time></trkpt><trkpt lat="42.1579833" lon="-7.9665983"><ele>606.0</ele><time>2026-04-04T18:13:09.823Z</time></trkpt><trkpt lat="42.1579917" lon="-7.9666833"><ele>606.0</ele><time>2026-04-04T18:13:10.824Z</time></trkpt><trkpt lat="42.1579983" lon="-7.9667717"><ele>606.0</ele><time>2026-04-04T18:13:11.823Z</time></trkpt><trkpt lat="42.1580033" lon="-7.9668567"><ele>606.0</ele><time>2026-04-04T18:13:12.824Z</time></trkpt><trkpt lat="42.1580017" lon="-7.96696"><ele>606.0</ele><time>2026-04-04T18:13:13.824Z</time></trkpt><trkpt lat="42.1580083" lon="-7.967075"><ele>606.0</ele><time>2026-04-04T18:13:14.824Z</time></trkpt><trkpt lat="42.158015" lon="-7.96721"><ele>608.75</ele><time>2026-04-04T18:13:15.826Z</time></trkpt><trkpt lat="42.1580217" lon="-7.9673517"><ele>611.5</ele><time>2026-04-04T18:13:16.823Z</time></trkpt><trkpt lat="42.1580283" lon="-7.9675233"><ele>614.25</ele><time>2026-04-04T18:13:17.823Z</time></trkpt><trkpt lat="42.1580233" lon="-7.9676983"><ele>617.0</ele><time>2026-04-04T18:13:18.823Z</time></trkpt><trkpt lat="42.157995" lon="-7.9678667"><ele>617.6666666666666</ele><time>2026-04-04T18:13:19.823Z</time></trkpt><trkpt lat="42.157965" lon="-7.9680483"><ele>618.3333333333334</ele><time>2026-04-04T18:13:20.825Z</time></trkpt><trkpt lat="42.157925" lon="-7.968265"><ele>619.0</ele><time>2026-04-04T18:13:21.823Z</time></trkpt><trkpt lat="42.15787" lon="-7.9684933"><ele>617.6666666666667</ele><time>2026-04-04T18:13:22.824Z</time></trkpt><trkpt lat="42.1578" lon="-7.9686917"><ele>616.3333333333334</ele><time>2026-04-04T18:13:23.823Z</time></trkpt><trkpt lat="42.157735" lon="-7.96886"><ele>615.0</ele><time>2026-04-04T18:13:24.823Z</time></trkpt><trkpt lat="42.1576517" lon="-7.9690317"><ele>616.5</ele><time>2026-04-04T18:13:25.823Z</time></trkpt><trkpt lat="42.1575733" lon="-7.969205"><ele>618.0</ele><time>2026-04-04T18:13:26.824Z</time></trkpt><trkpt lat="42.1574883" lon="-7.9693683"><ele>619.5</ele><time>2026-04-04T18:13:27.825Z</time></trkpt><trkpt lat="42.15742" lon="-7.969525"><ele>621.0</ele><time>2026-04-04T18:13:28.826Z</time></trkpt><trkpt lat="42.1573517" lon="-7.9696683"><ele>623.3333333333334</ele><time>2026-04-04T18:13:29.823Z</time></trkpt><trkpt lat="42.1572933" lon="-7.9697917"><ele>625.6666666666666</ele><time>2026-04-04T18:13:30.824Z</time></trkpt><trkpt lat="42.1572533" lon="-7.9698883"><ele>628.0</ele><time>2026-04-04T18:13:31.824Z</time></trkpt><trkpt lat="42.1572467" lon="-7.9699967"><ele>630.3333333333333</ele><time>2026-04-04T18:13:32.823Z</time></trkpt><trkpt lat="42.1572367" lon="-7.9700883"><ele>632.6666666666666</ele><time>2026-04-04T18:13:33.824Z</time></trkpt><trkpt lat="42.1572467" lon="-7.9701833"><ele>635.0</ele><time>2026-04-04T18:13:34.823Z</time></trkpt><trkpt lat="42.1572667" lon="-7.970275"><ele>634.6666666666666</ele><time>2026-04-04T18:13:35.823Z</time></trkpt><trkpt lat="42.15755" lon="-7.9702883"><ele>634.3333333333334</ele><time>2026-04-04T18:13:37.823Z</time></trkpt><trkpt lat="42.1576917" lon="-7.97031"><ele>634.0</ele><time>2026-04-04T18:13:38.823Z</time></trkpt><trkpt lat="42.1577917" lon="-7.9703583"><ele>634.0</ele><time>2026-04-04T18:13:39.823Z</time></trkpt><trkpt lat="42.1578817" lon="-7.970425"><ele>634.0</ele><time>2026-04-04T18:13:40.824Z</time></trkpt><trkpt lat="42.157945" lon="-7.97051"><ele>634.0</ele><time>2026-04-04T18:13:41.823Z</time></trkpt><trkpt lat="42.1580083" lon="-7.9705967"><ele>634.0</ele><time>2026-04-04T18:13:42.823Z</time></trkpt><trkpt lat="42.1580467" lon="-7.970685"><ele>634.0</ele><time>2026-04-04T18:13:43.824Z</time></trkpt><trkpt lat="42.1580067" lon="-7.970895"><ele>635.3333333333334</ele><time>2026-04-04T18:13:45.824Z</time></trkpt><trkpt lat="42.15791" lon="-7.97104"><ele>636.6666666666666</ele><time>2026-04-04T18:13:46.824Z</time></trkpt><trkpt lat="42.157775" lon="-7.97117"><ele>638.0</ele><time>2026-04-04T18:13:47.825Z</time></trkpt><trkpt lat="42.15766" lon="-7.9713317"><ele>638.0</ele><time>2026-04-04T18:13:48.825Z</time></trkpt><trkpt lat="42.1575417" lon="-7.9715017"><ele>638.0</ele><time>2026-04-04T18:13:49.824Z</time></trkpt><trkpt lat="42.15741" lon="-7.97164"><ele>638.0</ele><time>2026-04-04T18:13:50.824Z</time></trkpt><trkpt lat="42.1572883" lon="-7.971715"><ele>642.8</ele><time>2026-04-04T18:13:51.824Z</time></trkpt><trkpt lat="42.1572433" lon="-7.97188"><ele>647.5999999999999</ele><time>2026-04-04T18:13:53.823Z</time></trkpt><trkpt lat="42.1572" lon="-7.9720167"><ele>652.4000000000001</ele><time>2026-04-04T18:13:55.823Z</time></trkpt><trkpt lat="42.1572033" lon="-7.9721067"><ele>657.2</ele><time>2026-04-04T18:13:56.823Z</time></trkpt><trkpt lat="42.15723" lon="-7.9721983"><ele>662.0</ele><time>2026-04-04T18:13:57.823Z</time></trkpt><trkpt lat="42.1572533" lon="-7.9722917"><ele>662.0</ele><time>2026-04-04T18:13:58.825Z</time></trkpt><trkpt lat="42.1573067" lon="-7.972415"><ele>662.0</ele><time>2026-04-04T18:14:00.825Z</time></trkpt><trkpt lat="42.1573667" lon="-7.972515"><ele>662.0</ele><time>2026-04-04T18:14:02.824Z</time></trkpt><trkpt lat="42.1574267" lon="-7.9725983"><ele>662.0</ele><time>2026-04-04T18:14:04.824Z</time></trkpt><trkpt lat="42.1574833" lon="-7.9727083"><ele>662.0</ele><time>2026-04-04T18:14:06.824Z</time></trkpt><trkpt lat="42.1575117" lon="-7.972815"><ele>662.0</ele><time>2026-04-04T18:14:09.823Z</time></trkpt><trkpt lat="42.1575583" lon="-7.9728967"><ele>662.0</ele><time>2026-04-04T18:14:14.825Z</time></trkpt><trkpt lat="42.157605" lon="-7.97299"><ele>662.0</ele><time>2026-04-04T18:14:17.823Z</time></trkpt><trkpt lat="42.15757" lon="-7.9730833"><ele>662.0</ele><time>2026-04-04T18:14:19.823Z</time></trkpt><trkpt lat="42.157525" lon="-7.9731933"><ele>662.0</ele><time>2026-04-04T18:14:21.832Z</time></trkpt><trkpt lat="42.1575" lon="-7.9732883"><ele>662.0</ele><time>2026-04-04T18:14:23.824Z</time></trkpt><trkpt lat="42.1575367" lon="-7.9733983"><ele>664.2</ele><time>2026-04-04T18:14:25.823Z</time></trkpt><trkpt lat="42.15757" lon="-7.9735717"><ele>666.4000000000001</ele><time>2026-04-04T18:14:27.824Z</time></trkpt><trkpt lat="42.1575767" lon="-7.97366"><ele>668.5999999999999</ele><time>2026-04-04T18:14:28.823Z</time></trkpt><trkpt lat="42.1575683" lon="-7.9738117"><ele>670.8</ele><time>2026-04-04T18:14:30.824Z</time></trkpt><trkpt lat="42.1575433" lon="-7.97389"><ele>673.0</ele><time>2026-04-04T18:14:31.824Z</time></trkpt><trkpt lat="42.1575133" lon="-7.9739833"><ele>673.0</ele><time>2026-04-04T18:14:32.825Z</time></trkpt><trkpt lat="42.1574617" lon="-7.974085"><ele>673.0</ele><time>2026-04-04T18:14:33.824Z</time></trkpt><trkpt lat="42.1574333" lon="-7.974165"><ele>673.0</ele><time>2026-04-04T18:14:34.824Z</time></trkpt><trkpt lat="42.1574167" lon="-7.974295"><ele>673.0</ele><time>2026-04-04T18:14:36.823Z</time></trkpt><trkpt lat="42.1574083" lon="-7.9744017"><ele>673.0</ele><time>2026-04-04T18:14:38.824Z</time></trkpt><trkpt lat="42.1574133" lon="-7.9745533"><ele>673.0</ele><time>2026-04-04T18:14:40.825Z</time></trkpt><trkpt lat="42.1575083" lon="-7.9745567"><ele>675.75</ele><time>2026-04-04T18:14:41.825Z</time></trkpt><trkpt lat="42.157595" lon="-7.97461"><ele>678.5</ele><time>2026-04-04T18:14:42.826Z</time></trkpt><trkpt lat="42.15773" lon="-7.974625"><ele>681.25</ele><time>2026-04-04T18:14:43.824Z</time></trkpt><trkpt lat="42.1579167" lon="-7.9746017"><ele>684.0</ele><time>2026-04-04T18:14:44.824Z</time></trkpt><trkpt lat="42.158075" lon="-7.97466"><ele>684.0</ele><time>2026-04-04T18:14:45.823Z</time></trkpt><trkpt lat="42.1581783" lon="-7.9746217"><ele>684.0</ele><time>2026-04-04T18:14:46.823Z</time></trkpt><trkpt lat="42.1582717" lon="-7.9746517"><ele>684.0</ele><time>2026-04-04T18:14:47.823Z</time></trkpt><trkpt lat="42.158365" lon="-7.9747083"><ele>684.0</ele><time>2026-04-04T18:14:48.822Z</time></trkpt><trkpt lat="42.1584833" lon="-7.9747983"><ele>684.0</ele><time>2026-04-04T18:14:49.823Z</time></trkpt><trkpt lat="42.1585533" lon="-7.9748817"><ele>683.8000000000001</ele><time>2026-04-04T18:14:50.823Z</time></trkpt><trkpt lat="42.1586217" lon="-7.9749033"><ele>683.6</ele><time>2026-04-04T18:14:51.822Z</time></trkpt><trkpt lat="42.1587" lon="-7.974915"><ele>683.4</ele><time>2026-04-04T18:14:52.822Z</time></trkpt><trkpt lat="42.1587783" lon="-7.9749617"><ele>683.2</ele><time>2026-04-04T18:14:53.823Z</time></trkpt><trkpt lat="42.1589017" lon="-7.9750033"><ele>683.0</ele><time>2026-04-04T18:14:54.824Z</time></trkpt><trkpt lat="42.159005" lon="-7.9750133"><ele>682.1666666666666</ele><time>2026-04-04T18:14:55.824Z</time></trkpt><trkpt lat="42.159085" lon="-7.97503"><ele>681.3333333333333</ele><time>2026-04-04T18:14:56.823Z</time></trkpt><trkpt lat="42.1591483" lon="-7.9750517"><ele>680.5</ele><time>2026-04-04T18:14:57.822Z</time></trkpt><trkpt lat="42.15926" lon="-7.9750333"><ele>679.6666666666666</ele><time>2026-04-04T18:14:58.824Z</time></trkpt><trkpt lat="42.15932" lon="-7.975065"><ele>678.8333333333334</ele><time>2026-04-04T18:15:00.823Z</time></trkpt><trkpt lat="42.1593617" lon="-7.9752133"><ele>678.0</ele><time>2026-04-04T18:15:02.823Z</time></trkpt><trkpt lat="42.1593883" lon="-7.9753017"><ele>678.0</ele><time>2026-04-04T18:15:03.822Z</time></trkpt><trkpt lat="42.1594133" lon="-7.9754083"><ele>678.0</ele><time>2026-04-04T18:15:04.823Z</time></trkpt><trkpt lat="42.1594517" lon="-7.9755567"><ele>678.0</ele><time>2026-04-04T18:15:05.822Z</time></trkpt><trkpt lat="42.1594817" lon="-7.9757233"><ele>678.0</ele><time>2026-04-04T18:15:06.822Z</time></trkpt><trkpt lat="42.1595033" lon="-7.9758583"><ele>678.0</ele><time>2026-04-04T18:15:07.823Z</time></trkpt><trkpt lat="42.15952" lon="-7.9759967"><ele>683.0</ele><time>2026-04-04T18:15:08.824Z</time></trkpt><trkpt lat="42.1595317" lon="-7.9761333"><ele>683.0</ele><time>2026-04-04T18:15:09.823Z</time></trkpt><trkpt lat="42.159545" lon="-7.9762583"><ele>683.0</ele><time>2026-04-04T18:15:10.822Z</time></trkpt><trkpt lat="42.1595533" lon="-7.97636"><ele>683.0</ele><time>2026-04-04T18:15:11.823Z</time></trkpt><trkpt lat="42.1595783" lon="-7.9765017"><ele>683.0</ele><time>2026-04-04T18:15:13.822Z</time></trkpt></trkseg></trk></gpx>